<?xml version='1.0' encoding='UTF-8'?><gpx version="1.1" creator="JPX - https://github.com/jenetics/jpx" xmlns="http://www.topografix.com/GPX/1/1"><trk><trkseg><trkpt lat="45.12446418871157" lon="7.650647419665642"><ele>251.00000000000003</ele><time>2026-04-19T09:38:51Z</time></trkpt><trkpt lat="45.124545549715535" lon="7.650687947008657"><ele>251.0</ele><time>2026-04-19T09:38:52Z</time></trkpt><trkpt lat="45.12463096878687" lon="7.650747003286415"><ele>251.0</ele><time>2026-04-19T09:38:53Z</time></trkpt><trkpt lat="45.12471112615854" lon="7.650796943030196"><ele>251.0</ele><time>2026-04-19T09:38:54Z</time></trkpt><trkpt lat="45.12478136488978" lon="7.650840718210395"><ele>251.00000000000003</ele><time>2026-04-19T09:38:55Z</time></trkpt><trkpt lat="45.124841246304115" lon="7.650881075698267"><ele>251.0</ele><time>2026-04-19T09:38:56Z</time></trkpt><trkpt lat="45.12493498707229" lon="7.650939543211447"><ele>251.20000000000002</ele><time>2026-04-19T09:38:58Z</time></trkpt><trkpt lat="45.125051689808956" lon="7.650924498368985"><ele>251.40000000000003</ele><time>2026-04-19T09:39:00Z</time></trkpt><trkpt lat="45.125113864762326" lon="7.650834640041127"><ele>251.6</ele><time>2026-04-19T09:39:01Z</time></trkpt><trkpt lat="45.12515821096172" lon="7.650672927784066"><ele>251.8</ele><time>2026-04-19T09:39:02Z</time></trkpt><trkpt lat="45.12520017130491" lon="7.650517416565133"><ele>252.0</ele><time>2026-04-19T09:39:03Z</time></trkpt><trkpt lat="45.12525306273702" lon="7.650362709448328"><ele>252.5</ele><time>2026-04-19T09:39:04Z</time></trkpt><trkpt lat="45.12529987138039" lon="7.650200196854161"><ele>253.0</ele><time>2026-04-19T09:39:05Z</time></trkpt><trkpt lat="45.12534025373359" lon="7.650026763316455"><ele>253.5</ele><time>2026-04-19T09:39:06Z</time></trkpt><trkpt lat="45.125387946762054" lon="7.649848469364533"><ele>254.0</ele><time>2026-04-19T09:39:07Z</time></trkpt><trkpt lat="45.125430391269276" lon="7.64968433765384"><ele>254.0</ele><time>2026-04-19T09:39:08Z</time></trkpt><trkpt lat="45.12546487216304" lon="7.649540484013695"><ele>253.99999999999997</ele><time>2026-04-19T09:39:09Z</time></trkpt><trkpt lat="45.12549891870808" lon="7.649414854606293"><ele>253.99999999999997</ele><time>2026-04-19T09:39:10Z</time></trkpt><trkpt lat="45.12552982786508" lon="7.649301703461464"><ele>254.0</ele><time>2026-04-19T09:39:11Z</time></trkpt><trkpt lat="45.125555411303615" lon="7.64917122838819"><ele>254.0</ele><time>2026-04-19T09:39:12Z</time></trkpt><trkpt lat="45.125595855895085" lon="7.649024776358599"><ele>254.79999999999998</ele><time>2026-04-19T09:39:13Z</time></trkpt><trkpt lat="45.12564747212005" lon="7.648888709607234"><ele>255.59999999999997</ele><time>2026-04-19T09:39:14Z</time></trkpt><trkpt lat="45.125671435796335" lon="7.64871837897584"><ele>256.4</ele><time>2026-04-19T09:39:15Z</time></trkpt><trkpt lat="45.12568853987498" lon="7.648566745783279"><ele>257.2</ele><time>2026-04-19T09:39:16Z</time></trkpt><trkpt lat="45.12573363359464" lon="7.648473187784291"><ele>258.0</ele><time>2026-04-19T09:39:17Z</time></trkpt><trkpt lat="45.12578895832346" lon="7.648341335719279"><ele>257.2</ele><time>2026-04-19T09:39:18Z</time></trkpt><trkpt lat="45.12588308253631" lon="7.648239218989401"><ele>256.4</ele><time>2026-04-19T09:39:19Z</time></trkpt><trkpt lat="45.12589919462904" lon="7.648098069556331"><ele>255.59999999999997</ele><time>2026-04-19T09:39:20Z</time></trkpt><trkpt lat="45.1259457826265" lon="7.647962082464136"><ele>254.79999999999998</ele><time>2026-04-19T09:39:22Z</time></trkpt><trkpt lat="45.12597366409863" lon="7.6478685495082335"><ele>254.0</ele><time>2026-04-19T09:39:24Z</time></trkpt><trkpt lat="45.12600698585852" lon="7.647721781053483"><ele>254.00000000000003</ele><time>2026-04-19T09:39:26Z</time></trkpt><trkpt lat="45.12604379971206" lon="7.647588815268869"><ele>254.0</ele><time>2026-04-19T09:39:27Z</time></trkpt><trkpt lat="45.126083623449304" lon="7.6474543011048075"><ele>254.0</ele><time>2026-04-19T09:39:28Z</time></trkpt><trkpt lat="45.12612185772129" lon="7.647332410013761"><ele>254.0</ele><time>2026-04-19T09:39:29Z</time></trkpt><trkpt lat="45.1261564892218" lon="7.6472258228717624"><ele>254.00000000000003</ele><time>2026-04-19T09:39:30Z</time></trkpt><trkpt lat="45.12617749269271" lon="7.647139172515809"><ele>254.0</ele><time>2026-04-19T09:39:31Z</time></trkpt><trkpt lat="45.12622441041782" lon="7.646989143557243"><ele>254.6</ele><time>2026-04-19T09:39:33Z</time></trkpt><trkpt lat="45.12627078818966" lon="7.646893192716264"><ele>255.2</ele><time>2026-04-19T09:39:34Z</time></trkpt><trkpt lat="45.126315168825236" lon="7.646765878154899"><ele>255.79999999999998</ele><time>2026-04-19T09:39:35Z</time></trkpt><trkpt lat="45.126360667158714" lon="7.6465986104230375"><ele>256.4</ele><time>2026-04-19T09:39:36Z</time></trkpt><trkpt lat="45.12642207100528" lon="7.646419995681512"><ele>257.0</ele><time>2026-04-19T09:39:37Z</time></trkpt><trkpt lat="45.12647859905098" lon="7.646224027364218"><ele>257.5</ele><time>2026-04-19T09:39:38Z</time></trkpt><trkpt lat="45.126532573007815" lon="7.646032780162312"><ele>258.0</ele><time>2026-04-19T09:39:39Z</time></trkpt><trkpt lat="45.12659115611853" lon="7.645844975430324"><ele>258.5</ele><time>2026-04-19T09:39:40Z</time></trkpt><trkpt lat="45.126640233963634" lon="7.645674987483063"><ele>259.0</ele><time>2026-04-19T09:39:41Z</time></trkpt><trkpt lat="45.1266857270686" lon="7.645518224662555"><ele>258.75</ele><time>2026-04-19T09:39:42Z</time></trkpt><trkpt lat="45.12674078705121" lon="7.645356141595025"><ele>258.5</ele><time>2026-04-19T09:39:43Z</time></trkpt><trkpt lat="45.126786216368096" lon="7.645179854008419"><ele>258.25</ele><time>2026-04-19T09:39:44Z</time></trkpt><trkpt lat="45.12682306634189" lon="7.64503118864214"><ele>258.0</ele><time>2026-04-19T09:39:45Z</time></trkpt><trkpt lat="45.12689034844443" lon="7.644926127754299"><ele>258.0</ele><time>2026-04-19T09:39:46Z</time></trkpt><trkpt lat="45.12689940350331" lon="7.644816555227044"><ele>258.0</ele><time>2026-04-19T09:39:47Z</time></trkpt><trkpt lat="45.126937445224506" lon="7.644679118440973"><ele>258.0</ele><time>2026-04-19T09:39:49Z</time></trkpt><trkpt lat="45.12696443574734" lon="7.644594506648019"><ele>258.0</ele><time>2026-04-19T09:39:50Z</time></trkpt><trkpt lat="45.12700159987126" lon="7.644486406390594"><ele>258.0</ele><time>2026-04-19T09:39:51Z</time></trkpt><trkpt lat="45.12704071261188" lon="7.644353036291995"><ele>258.0</ele><time>2026-04-19T09:39:52Z</time></trkpt><trkpt lat="45.127085387575704" lon="7.644195013010786"><ele>258.75</ele><time>2026-04-19T09:39:53Z</time></trkpt><trkpt lat="45.12714444061101" lon="7.644024045301245"><ele>259.5</ele><time>2026-04-19T09:39:54Z</time></trkpt><trkpt lat="45.127199805051" lon="7.643846652936455"><ele>260.25</ele><time>2026-04-19T09:39:55Z</time></trkpt><trkpt lat="45.12725420242283" lon="7.6436600747009615"><ele>261.0</ele><time>2026-04-19T09:39:56Z</time></trkpt><trkpt lat="45.12731377306512" lon="7.643468064391224"><ele>261.0</ele><time>2026-04-19T09:39:57Z</time></trkpt><trkpt lat="45.12736952122703" lon="7.643285070143397"><ele>261.0</ele><time>2026-04-19T09:39:58Z</time></trkpt><trkpt lat="45.12741503228393" lon="7.6431159420074115"><ele>261.0</ele><time>2026-04-19T09:39:59Z</time></trkpt><trkpt lat="45.12747025755449" lon="7.642952808364418"><ele>261.0</ele><time>2026-04-19T09:40:00Z</time></trkpt><trkpt lat="45.12753409844905" lon="7.6427778025522235"><ele>260.75</ele><time>2026-04-19T09:40:01Z</time></trkpt><trkpt lat="45.12760687289044" lon="7.642602542170191"><ele>260.5</ele><time>2026-04-19T09:40:02Z</time></trkpt><trkpt lat="45.127663355863035" lon="7.64242101244918"><ele>260.25</ele><time>2026-04-19T09:40:03Z</time></trkpt><trkpt lat="45.12771851872714" lon="7.642232294198841"><ele>260.0</ele><time>2026-04-19T09:40:04Z</time></trkpt><trkpt lat="45.12777340297053" lon="7.642050643707304"><ele>259.75</ele><time>2026-04-19T09:40:05Z</time></trkpt><trkpt lat="45.127829146348176" lon="7.641869661266258"><ele>259.5</ele><time>2026-04-19T09:40:06Z</time></trkpt><trkpt lat="45.127887224524876" lon="7.641670854436826"><ele>259.25</ele><time>2026-04-19T09:40:07Z</time></trkpt><trkpt lat="45.12795153082212" lon="7.641480893962626"><ele>259.0</ele><time>2026-04-19T09:40:08Z</time></trkpt><trkpt lat="45.12800587377932" lon="7.641303767958904"><ele>259.0</ele><time>2026-04-19T09:40:09Z</time></trkpt><trkpt lat="45.12805389886529" lon="7.641147711567009"><ele>259.0</ele><time>2026-04-19T09:40:10Z</time></trkpt><trkpt lat="45.12809968970429" lon="7.640994758648215"><ele>259.0</ele><time>2026-04-19T09:40:11Z</time></trkpt><trkpt lat="45.12814803762218" lon="7.640848957533234"><ele>259.0</ele><time>2026-04-19T09:40:12Z</time></trkpt><trkpt lat="45.1281938489019" lon="7.64071141165661"><ele>258.59999999999997</ele><time>2026-04-19T09:40:13Z</time></trkpt><trkpt lat="45.12824031649349" lon="7.640591476774509"><ele>258.2</ele><time>2026-04-19T09:40:14Z</time></trkpt><trkpt lat="45.128287052996235" lon="7.640470764725785"><ele>257.79999999999995</ele><time>2026-04-19T09:40:15Z</time></trkpt><trkpt lat="45.128330843755364" lon="7.640369882143321"><ele>257.4</ele><time>2026-04-19T09:40:16Z</time></trkpt><trkpt lat="45.12839130955741" lon="7.640230505075631"><ele>257.0</ele><time>2026-04-19T09:40:18Z</time></trkpt><trkpt lat="45.128462910292434" lon="7.64007686503949"><ele>257.0</ele><time>2026-04-19T09:40:20Z</time></trkpt><trkpt lat="45.128505128164555" lon="7.639991594422474"><ele>257.0</ele><time>2026-04-19T09:40:21Z</time></trkpt><trkpt lat="45.128546054592384" lon="7.639903524799528"><ele>257.0</ele><time>2026-04-19T09:40:22Z</time></trkpt><trkpt lat="45.12858487021959" lon="7.639802988374574"><ele>257.0</ele><time>2026-04-19T09:40:23Z</time></trkpt><trkpt lat="45.128612814745985" lon="7.639701803830548"><ele>257.0</ele><time>2026-04-19T09:40:24Z</time></trkpt><trkpt lat="45.128629768571365" lon="7.639606100409961"><ele>257.0</ele><time>2026-04-19T09:40:25Z</time></trkpt><trkpt lat="45.12864676058386" lon="7.639514047402478"><ele>257.0</ele><time>2026-04-19T09:40:26Z</time></trkpt><trkpt lat="45.128671531048084" lon="7.639426432048415"><ele>257.0</ele><time>2026-04-19T09:40:27Z</time></trkpt><trkpt lat="45.1286971877088" lon="7.639339802125957"><ele>257.0</ele><time>2026-04-19T09:40:28Z</time></trkpt><trkpt lat="45.12871632217955" lon="7.639254410412789"><ele>257.0</ele><time>2026-04-19T09:40:29Z</time></trkpt><trkpt lat="45.12875595005549" lon="7.639083309343586"><ele>257.0</ele><time>2026-04-19T09:40:31Z</time></trkpt><trkpt lat="45.12877362372007" lon="7.63899105655696"><ele>257.0</ele><time>2026-04-19T09:40:32Z</time></trkpt><trkpt lat="45.12879075185154" lon="7.638896463412246"><ele>257.0</ele><time>2026-04-19T09:40:33Z</time></trkpt><trkpt lat="45.12882666388648" lon="7.638794036337779"><ele>257.0</ele><time>2026-04-19T09:40:34Z</time></trkpt><trkpt lat="45.12884720178634" lon="7.638671975857955"><ele>257.0</ele><time>2026-04-19T09:40:35Z</time></trkpt><trkpt lat="45.12885477535056" lon="7.638532553897628"><ele>257.0</ele><time>2026-04-19T09:40:36Z</time></trkpt><trkpt lat="45.128877251278226" lon="7.63839258335891"><ele>257.0</ele><time>2026-04-19T09:40:37Z</time></trkpt><trkpt lat="45.128898400695384" lon="7.63826870711343"><ele>257.0</ele><time>2026-04-19T09:40:38Z</time></trkpt><trkpt lat="45.12891741097617" lon="7.638155859800718"><ele>257.1666666666667</ele><time>2026-04-19T09:40:39Z</time></trkpt><trkpt lat="45.128932721278076" lon="7.638061533094975"><ele>257.33333333333337</ele><time>2026-04-19T09:40:40Z</time></trkpt><trkpt lat="45.12894734387905" lon="7.637917001982376"><ele>257.5</ele><time>2026-04-19T09:40:42Z</time></trkpt><trkpt lat="45.12898768999636" lon="7.637797435554757"><ele>257.6666666666667</ele><time>2026-04-19T09:40:44Z</time></trkpt><trkpt lat="45.12891873826948" lon="7.637717743678486"><ele>257.8333333333333</ele><time>2026-04-19T09:40:45Z</time></trkpt><trkpt lat="45.12886467071374" lon="7.637633510453177"><ele>258.0</ele><time>2026-04-19T09:40:46Z</time></trkpt><trkpt lat="45.128824473060696" lon="7.637555407095305"><ele>258.1666666666667</ele><time>2026-04-19T09:40:47Z</time></trkpt><trkpt lat="45.12878457463925" lon="7.637475122351674"><ele>258.3333333333333</ele><time>2026-04-19T09:40:48Z</time></trkpt><trkpt lat="45.128743790859055" lon="7.637393300734906"><ele>258.5</ele><time>2026-04-19T09:40:49Z</time></trkpt><trkpt lat="45.12870267067646" lon="7.637316308295058"><ele>258.66666666666663</ele><time>2026-04-19T09:40:50Z</time></trkpt><trkpt lat="45.12862082027613" lon="7.637158465062746"><ele>258.8333333333333</ele><time>2026-04-19T09:40:52Z</time></trkpt><trkpt lat="45.128566264410445" lon="7.637067352967604"><ele>259.0</ele><time>2026-04-19T09:40:53Z</time></trkpt><trkpt lat="45.128509238900214" lon="7.636962502834054"><ele>259.2</ele><time>2026-04-19T09:40:54Z</time></trkpt><trkpt lat="45.12844830167548" lon="7.636848032090132"><ele>259.4</ele><time>2026-04-19T09:40:55Z</time></trkpt><trkpt lat="45.12838948738058" lon="7.636730862438367"><ele>259.6</ele><time>2026-04-19T09:40:56Z</time></trkpt><trkpt lat="45.12832774115827" lon="7.6366208332344065"><ele>259.8</ele><time>2026-04-19T09:40:57Z</time></trkpt><trkpt lat="45.12827575460142" lon="7.636522417928016"><ele>260.0</ele><time>2026-04-19T09:40:58Z</time></trkpt><trkpt lat="45.12822824051827" lon="7.636427627315127"><ele>260.33333333333337</ele><time>2026-04-19T09:40:59Z</time></trkpt><trkpt lat="45.12818451446372" lon="7.636353215375872"><ele>260.6666666666667</ele><time>2026-04-19T09:41:00Z</time></trkpt><trkpt lat="45.128134994338595" lon="7.636269719925733"><ele>261.0</ele><time>2026-04-19T09:41:01Z</time></trkpt><trkpt lat="45.128093038636635" lon="7.636192459113844"><ele>261.3333333333333</ele><time>2026-04-19T09:41:02Z</time></trkpt><trkpt lat="45.12805294109723" lon="7.63611415400467"><ele>261.66666666666663</ele><time>2026-04-19T09:41:03Z</time></trkpt><trkpt lat="45.12797748882757" lon="7.635972596989436"><ele>262.0</ele><time>2026-04-19T09:41:05Z</time></trkpt><trkpt lat="45.12793725109657" lon="7.635901322672032"><ele>262.4</ele><time>2026-04-19T09:41:06Z</time></trkpt><trkpt lat="45.12787014229506" lon="7.635873190563702"><ele>262.79999999999995</ele><time>2026-04-19T09:41:07Z</time></trkpt><trkpt lat="45.12780289941164" lon="7.635839841583338"><ele>263.2</ele><time>2026-04-19T09:41:08Z</time></trkpt><trkpt lat="45.12771249934576" lon="7.635888554972234"><ele>263.59999999999997</ele><time>2026-04-19T09:41:09Z</time></trkpt><trkpt lat="45.127631723714934" lon="7.635994803213513"><ele>264.0</ele><time>2026-04-19T09:41:10Z</time></trkpt><trkpt lat="45.127553829362924" lon="7.636136525327271"><ele>263.3333333333333</ele><time>2026-04-19T09:41:11Z</time></trkpt><trkpt lat="45.12745752164925" lon="7.636283631488228"><ele>262.66666666666663</ele><time>2026-04-19T09:41:12Z</time></trkpt><trkpt lat="45.12734639068991" lon="7.636438600672528"><ele>262.0</ele><time>2026-04-19T09:41:13Z</time></trkpt><trkpt lat="45.12723587382308" lon="7.63663596973755"><ele>261.3333333333333</ele><time>2026-04-19T09:41:14Z</time></trkpt><trkpt lat="45.12712466573558" lon="7.636846520676378"><ele>260.6666666666667</ele><time>2026-04-19T09:41:15Z</time></trkpt><trkpt lat="45.127012878836474" lon="7.637031371118265"><ele>260.0</ele><time>2026-04-19T09:41:16Z</time></trkpt><trkpt lat="45.126908821944234" lon="7.6371990550398134"><ele>259.6666666666667</ele><time>2026-04-19T09:41:17Z</time></trkpt><trkpt lat="45.12681338265734" lon="7.63735901933393"><ele>259.3333333333333</ele><time>2026-04-19T09:41:18Z</time></trkpt><trkpt lat="45.12671198181034" lon="7.637529711298241"><ele>259.0</ele><time>2026-04-19T09:41:19Z</time></trkpt><trkpt lat="45.12660710282838" lon="7.637702572586666"><ele>258.3333333333333</ele><time>2026-04-19T09:41:20Z</time></trkpt><trkpt lat="45.12649363702252" lon="7.637874259814333"><ele>257.6666666666667</ele><time>2026-04-19T09:41:21Z</time></trkpt><trkpt lat="45.12637557303704" lon="7.638033022631702"><ele>257.0</ele><time>2026-04-19T09:41:22Z</time></trkpt><trkpt lat="45.12626001763965" lon="7.638188731154717"><ele>257.0</ele><time>2026-04-19T09:41:23Z</time></trkpt><trkpt lat="45.12614054300427" lon="7.638321166574536"><ele>257.0</ele><time>2026-04-19T09:41:24Z</time></trkpt><trkpt lat="45.12603081018798" lon="7.6384512869106445"><ele>257.0</ele><time>2026-04-19T09:41:25Z</time></trkpt><trkpt lat="45.125924933232525" lon="7.638565277173633"><ele>257.0</ele><time>2026-04-19T09:41:26Z</time></trkpt><trkpt lat="45.125819856723965" lon="7.638683558161735"><ele>257.25</ele><time>2026-04-19T09:41:27Z</time></trkpt><trkpt lat="45.125702510629516" lon="7.63880190751337"><ele>257.5</ele><time>2026-04-19T09:41:28Z</time></trkpt><trkpt lat="45.12559104859615" lon="7.638947030680272"><ele>257.75</ele><time>2026-04-19T09:41:29Z</time></trkpt><trkpt lat="45.12547094973856" lon="7.639082221266478"><ele>258.0</ele><time>2026-04-19T09:41:30Z</time></trkpt><trkpt lat="45.125348734701035" lon="7.639214179078502"><ele>258.0</ele><time>2026-04-19T09:41:31Z</time></trkpt><trkpt lat="45.12523558470152" lon="7.639333687646113"><ele>258.0</ele><time>2026-04-19T09:41:32Z</time></trkpt><trkpt lat="45.12512963016565" lon="7.639446140205434"><ele>258.0</ele><time>2026-04-19T09:41:33Z</time></trkpt><trkpt lat="45.124984498368654" lon="7.639455190524909"><ele>258.0</ele><time>2026-04-19T09:41:34Z</time></trkpt><trkpt lat="45.124855246278614" lon="7.639469094602048"><ele>258.0</ele><time>2026-04-19T09:41:35Z</time></trkpt><trkpt lat="45.124722071754924" lon="7.639405381408623"><ele>258.0</ele><time>2026-04-19T09:41:36Z</time></trkpt><trkpt lat="45.124593937230316" lon="7.639295900745068"><ele>258.0</ele><time>2026-04-19T09:41:37Z</time></trkpt><trkpt lat="45.124458067169705" lon="7.63918230108595"><ele>258.0</ele><time>2026-04-19T09:41:38Z</time></trkpt><trkpt lat="45.12431509193194" lon="7.639075180415662"><ele>258.0</ele><time>2026-04-19T09:41:39Z</time></trkpt><trkpt lat="45.124164733549506" lon="7.638961551220368"><ele>258.0</ele><time>2026-04-19T09:41:40Z</time></trkpt><trkpt lat="45.12401825666682" lon="7.638844064015209"><ele>258.0</ele><time>2026-04-19T09:41:41Z</time></trkpt><trkpt lat="45.12388580878485" lon="7.63873701219016"><ele>258.0</ele><time>2026-04-19T09:41:42Z</time></trkpt><trkpt lat="45.12376105880777" lon="7.638639797658328"><ele>258.0</ele><time>2026-04-19T09:41:43Z</time></trkpt><trkpt lat="45.123647276754745" lon="7.6385492913718425"><ele>258.0</ele><time>2026-04-19T09:41:44Z</time></trkpt><trkpt lat="45.12354928959554" lon="7.638460639760332"><ele>258.0</ele><time>2026-04-19T09:41:45Z</time></trkpt><trkpt lat="45.123462600733596" lon="7.63838097943809"><ele>258.0</ele><time>2026-04-19T09:41:46Z</time></trkpt><trkpt lat="45.12339898738432" lon="7.638319468690653"><ele>258.0</ele><time>2026-04-19T09:41:47Z</time></trkpt><trkpt lat="45.123314345721326" lon="7.63822584219055"><ele>258.0</ele><time>2026-04-19T09:41:49Z</time></trkpt><trkpt lat="45.123242754192944" lon="7.638075713406745"><ele>258.0</ele><time>2026-04-19T09:41:51Z</time></trkpt><trkpt lat="45.12319567367886" lon="7.637981425508395"><ele>258.0</ele><time>2026-04-19T09:41:52Z</time></trkpt><trkpt lat="45.123130346297145" lon="7.6379017482439036"><ele>258.0</ele><time>2026-04-19T09:41:53Z</time></trkpt><trkpt lat="45.123047665567334" lon="7.637860733532841"><ele>258.0</ele><time>2026-04-19T09:41:54Z</time></trkpt><trkpt lat="45.12295343007056" lon="7.637877212613423"><ele>258.0</ele><time>2026-04-19T09:41:55Z</time></trkpt><trkpt lat="45.122879610702526" lon="7.637943316150244"><ele>258.0</ele><time>2026-04-19T09:41:56Z</time></trkpt><trkpt lat="45.122828318294125" lon="7.638039518450142"><ele>258.0</ele><time>2026-04-19T09:41:57Z</time></trkpt><trkpt lat="45.122787671131626" lon="7.638144082491121"><ele>258.0</ele><time>2026-04-19T09:41:58Z</time></trkpt><trkpt lat="45.12273337056167" lon="7.638238446268947"><ele>258.0</ele><time>2026-04-19T09:41:59Z</time></trkpt><trkpt lat="45.12266746019397" lon="7.638326228311417"><ele>258.0</ele><time>2026-04-19T09:42:00Z</time></trkpt><trkpt lat="45.12258191824194" lon="7.638404527402815"><ele>258.0</ele><time>2026-04-19T09:42:01Z</time></trkpt><trkpt lat="45.122498401358364" lon="7.638491664342552"><ele>258.0</ele><time>2026-04-19T09:42:02Z</time></trkpt><trkpt lat="45.12237500443644" lon="7.638519111739535"><ele>258.0</ele><time>2026-04-19T09:42:03Z</time></trkpt><trkpt lat="45.12225721089047" lon="7.6385801355014165"><ele>258.75</ele><time>2026-04-19T09:42:04Z</time></trkpt><trkpt lat="45.12212423301609" lon="7.638644746689914"><ele>259.5</ele><time>2026-04-19T09:42:05Z</time></trkpt><trkpt lat="45.121992415610784" lon="7.638707067624519"><ele>260.25</ele><time>2026-04-19T09:42:06Z</time></trkpt><trkpt lat="45.12184904064784" lon="7.6387691576603345"><ele>261.0</ele><time>2026-04-19T09:42:07Z</time></trkpt><trkpt lat="45.1216903351942" lon="7.638808558846473"><ele>260.6666666666667</ele><time>2026-04-19T09:42:08Z</time></trkpt><trkpt lat="45.12152589090195" lon="7.638838947987287"><ele>260.33333333333337</ele><time>2026-04-19T09:42:09Z</time></trkpt><trkpt lat="45.12135539597265" lon="7.638873479817776"><ele>260.0</ele><time>2026-04-19T09:42:10Z</time></trkpt><trkpt lat="45.12118987475423" lon="7.638892352727963"><ele>260.0</ele><time>2026-04-19T09:42:11Z</time></trkpt><trkpt lat="45.12102329803684" lon="7.638888452336381"><ele>260.0</ele><time>2026-04-19T09:42:12Z</time></trkpt><trkpt lat="45.12085380658559" lon="7.638841032116768"><ele>260.0</ele><time>2026-04-19T09:42:13Z</time></trkpt><trkpt lat="45.120687586963896" lon="7.6387560785910615"><ele>259.33333333333337</ele><time>2026-04-19T09:42:14Z</time></trkpt><trkpt lat="45.12052821013803" lon="7.638634852500731"><ele>258.6666666666667</ele><time>2026-04-19T09:42:15Z</time></trkpt><trkpt lat="45.1203813853957" lon="7.638476805153445"><ele>258.0</ele><time>2026-04-19T09:42:16Z</time></trkpt><trkpt lat="45.12024882026355" lon="7.638283937624907"><ele>258.0</ele><time>2026-04-19T09:42:17Z</time></trkpt><trkpt lat="45.120137287483615" lon="7.638054480214232"><ele>258.0</ele><time>2026-04-19T09:42:18Z</time></trkpt><trkpt lat="45.1200418730233" lon="7.637810479524264"><ele>258.0</ele><time>2026-04-19T09:42:19Z</time></trkpt><trkpt lat="45.11994983632586" lon="7.63755486695686"><ele>258.0</ele><time>2026-04-19T09:42:20Z</time></trkpt><trkpt lat="45.11985543118024" lon="7.6372959034747945"><ele>258.0</ele><time>2026-04-19T09:42:21Z</time></trkpt><trkpt lat="45.11975409018559" lon="7.637029009533053"><ele>258.0</ele><time>2026-04-19T09:42:22Z</time></trkpt><trkpt lat="45.11965213039165" lon="7.636759385186588"><ele>258.3333333333333</ele><time>2026-04-19T09:42:23Z</time></trkpt><trkpt lat="45.11955039495145" lon="7.636481295613456"><ele>258.66666666666663</ele><time>2026-04-19T09:42:24Z</time></trkpt><trkpt lat="45.11944385099615" lon="7.636204301022623"><ele>259.0</ele><time>2026-04-19T09:42:25Z</time></trkpt><trkpt lat="45.1193359646474" lon="7.63592470059978"><ele>260.0</ele><time>2026-04-19T09:42:26Z</time></trkpt><trkpt lat="45.11923026048252" lon="7.635641822759048"><ele>261.0</ele><time>2026-04-19T09:42:27Z</time></trkpt><trkpt lat="45.119123015743455" lon="7.635355189564774"><ele>259.5</ele><time>2026-04-19T09:42:28Z</time></trkpt><trkpt lat="45.11901383260154" lon="7.635059937151466"><ele>258.0</ele><time>2026-04-19T09:42:29Z</time></trkpt><trkpt lat="45.1189030605497" lon="7.634758961009694"><ele>259.0</ele><time>2026-04-19T09:42:30Z</time></trkpt><trkpt lat="45.11879033058424" lon="7.634453543883603"><ele>260.0</ele><time>2026-04-19T09:42:31Z</time></trkpt><trkpt lat="45.11867368436553" lon="7.634145779758919"><ele>260.0</ele><time>2026-04-19T09:42:32Z</time></trkpt><trkpt lat="45.11855605713515" lon="7.633840608869369"><ele>260.0</ele><time>2026-04-19T09:42:33Z</time></trkpt><trkpt lat="45.118439130177094" lon="7.633530237979698"><ele>260.0</ele><time>2026-04-19T09:42:34Z</time></trkpt><trkpt lat="45.118329060576066" lon="7.633226436205627"><ele>260.0</ele><time>2026-04-19T09:42:35Z</time></trkpt><trkpt lat="45.118218651987796" lon="7.632923525543736"><ele>261.0</ele><time>2026-04-19T09:42:36Z</time></trkpt><trkpt lat="45.11808823014128" lon="7.632641859387132"><ele>262.0</ele><time>2026-04-19T09:42:37Z</time></trkpt><trkpt lat="45.1179999779758" lon="7.632294708405922"><ele>263.0</ele><time>2026-04-19T09:42:38Z</time></trkpt><trkpt lat="45.11788335059299" lon="7.631971652607968"><ele>264.0</ele><time>2026-04-19T09:42:39Z</time></trkpt><trkpt lat="45.11776993226579" lon="7.6316460744040855"><ele>264.0</ele><time>2026-04-19T09:42:40Z</time></trkpt><trkpt lat="45.11765583564112" lon="7.631317318554745"><ele>264.0</ele><time>2026-04-19T09:42:41Z</time></trkpt><trkpt lat="45.11755005111531" lon="7.630982308471433"><ele>264.0</ele><time>2026-04-19T09:42:42Z</time></trkpt><trkpt lat="45.117441093132555" lon="7.630642644626595"><ele>264.0</ele><time>2026-04-19T09:42:43Z</time></trkpt><trkpt lat="45.11733212943058" lon="7.6302997169776745"><ele>264.0</ele><time>2026-04-19T09:42:44Z</time></trkpt><trkpt lat="45.11721485769674" lon="7.629959085916813"><ele>264.0</ele><time>2026-04-19T09:42:45Z</time></trkpt><trkpt lat="45.11710059415816" lon="7.629617818011806"><ele>263.5</ele><time>2026-04-19T09:42:46Z</time></trkpt><trkpt lat="45.116992130248086" lon="7.6292648890750225"><ele>263.0</ele><time>2026-04-19T09:42:47Z</time></trkpt><trkpt lat="45.11688035087593" lon="7.628915842797001"><ele>264.5</ele><time>2026-04-19T09:42:48Z</time></trkpt><trkpt lat="45.11676697052155" lon="7.628562857504686"><ele>266.0</ele><time>2026-04-19T09:42:49Z</time></trkpt><trkpt lat="45.116653650725404" lon="7.628213791360355"><ele>265.0</ele><time>2026-04-19T09:42:50Z</time></trkpt><trkpt lat="45.11654257101375" lon="7.627865025682838"><ele>264.0</ele><time>2026-04-19T09:42:51Z</time></trkpt><trkpt lat="45.116429237900455" lon="7.627517584377627"><ele>264.0</ele><time>2026-04-19T09:42:52Z</time></trkpt><trkpt lat="45.11631816163037" lon="7.627171770314943"><ele>264.0</ele><time>2026-04-19T09:42:53Z</time></trkpt><trkpt lat="45.116206366552525" lon="7.626827424462454"><ele>264.0</ele><time>2026-04-19T09:42:54Z</time></trkpt><trkpt lat="45.116092922574616" lon="7.6264856755408035"><ele>264.0</ele><time>2026-04-19T09:42:55Z</time></trkpt><trkpt lat="45.115976112496504" lon="7.626147681792775"><ele>264.5</ele><time>2026-04-19T09:42:56Z</time></trkpt><trkpt lat="45.115856294917585" lon="7.625815464399046"><ele>265.0</ele><time>2026-04-19T09:42:57Z</time></trkpt><trkpt lat="45.115734635021006" lon="7.625486601778029"><ele>264.0</ele><time>2026-04-19T09:42:58Z</time></trkpt><trkpt lat="45.115614095031454" lon="7.625167996558028"><ele>263.0</ele><time>2026-04-19T09:42:59Z</time></trkpt><trkpt lat="45.115491161243895" lon="7.624843752415729"><ele>263.0</ele><time>2026-04-19T09:43:00Z</time></trkpt><trkpt lat="45.115354542339375" lon="7.624520186993725"><ele>263.0</ele><time>2026-04-19T09:43:01Z</time></trkpt><trkpt lat="45.1152225751773" lon="7.624187855400066"><ele>265.0</ele><time>2026-04-19T09:43:02Z</time></trkpt><trkpt lat="45.1150869163305" lon="7.6238594521161565"><ele>267.0</ele><time>2026-04-19T09:43:03Z</time></trkpt><trkpt lat="45.11494874516396" lon="7.623536276989741"><ele>267.0</ele><time>2026-04-19T09:43:04Z</time></trkpt><trkpt lat="45.114808546134014" lon="7.623206799067651"><ele>267.0</ele><time>2026-04-19T09:43:05Z</time></trkpt><trkpt lat="45.114668025606704" lon="7.622877693462709"><ele>267.5</ele><time>2026-04-19T09:43:06Z</time></trkpt><trkpt lat="45.114521767077015" lon="7.6225544674665615"><ele>268.0</ele><time>2026-04-19T09:43:07Z</time></trkpt><trkpt lat="45.114377765960995" lon="7.62224360272654"><ele>269.5</ele><time>2026-04-19T09:43:08Z</time></trkpt><trkpt lat="45.11423020402682" lon="7.621929556001228"><ele>271.0</ele><time>2026-04-19T09:43:09Z</time></trkpt><trkpt lat="45.11407937048164" lon="7.621616547496969"><ele>270.5</ele><time>2026-04-19T09:43:10Z</time></trkpt><trkpt lat="45.11392827245873" lon="7.621310484354839"><ele>270.0</ele><time>2026-04-19T09:43:11Z</time></trkpt><trkpt lat="45.113779802954085" lon="7.620996800197427"><ele>270.0</ele><time>2026-04-19T09:43:12Z</time></trkpt><trkpt lat="45.113640720210704" lon="7.620686277607395"><ele>270.0</ele><time>2026-04-19T09:43:13Z</time></trkpt><trkpt lat="45.11348034347829" lon="7.620356939663662"><ele>270.0</ele><time>2026-04-19T09:43:14Z</time></trkpt><trkpt lat="45.113330538241804" lon="7.62003499062868"><ele>270.0</ele><time>2026-04-19T09:43:15Z</time></trkpt><trkpt lat="45.11318565491322" lon="7.619721989062419"><ele>271.0</ele><time>2026-04-19T09:43:16Z</time></trkpt><trkpt lat="45.113040912074645" lon="7.61940862249436"><ele>272.0</ele><time>2026-04-19T09:43:17Z</time></trkpt><trkpt lat="45.112891969544236" lon="7.6190937773545855"><ele>272.0</ele><time>2026-04-19T09:43:18Z</time></trkpt><trkpt lat="45.11274483927507" lon="7.618777307134088"><ele>272.0</ele><time>2026-04-19T09:43:19Z</time></trkpt><trkpt lat="45.112594768921376" lon="7.6184646804011935"><ele>272.0</ele><time>2026-04-19T09:43:20Z</time></trkpt><trkpt lat="45.112446830100076" lon="7.618149257420966"><ele>272.0</ele><time>2026-04-19T09:43:21Z</time></trkpt><trkpt lat="45.11229704655639" lon="7.617830229832015"><ele>272.5</ele><time>2026-04-19T09:43:22Z</time></trkpt><trkpt lat="45.1121461480321" lon="7.617514962449766"><ele>273.0</ele><time>2026-04-19T09:43:23Z</time></trkpt><trkpt lat="45.11199758224264" lon="7.617198977395117"><ele>273.0</ele><time>2026-04-19T09:43:24Z</time></trkpt><trkpt lat="45.11184852319778" lon="7.616880907313958"><ele>273.0</ele><time>2026-04-19T09:43:25Z</time></trkpt><trkpt lat="45.11170083021749" lon="7.616566607570343"><ele>273.0</ele><time>2026-04-19T09:43:26Z</time></trkpt><trkpt lat="45.11155242374481" lon="7.616249500117658"><ele>273.0</ele><time>2026-04-19T09:43:27Z</time></trkpt><trkpt lat="45.11140296072276" lon="7.615933140362111"><ele>273.0</ele><time>2026-04-19T09:43:28Z</time></trkpt><trkpt lat="45.11125351412433" lon="7.615619037549472"><ele>273.0</ele><time>2026-04-19T09:43:29Z</time></trkpt><trkpt lat="45.11110251905275" lon="7.615303901593408"><ele>273.5</ele><time>2026-04-19T09:43:30Z</time></trkpt><trkpt lat="45.11095192460096" lon="7.614988943820988"><ele>274.0</ele><time>2026-04-19T09:43:31Z</time></trkpt><trkpt lat="45.11080254098135" lon="7.61467604534272"><ele>273.5</ele><time>2026-04-19T09:43:32Z</time></trkpt><trkpt lat="45.110652617129205" lon="7.6143594016249345"><ele>273.0</ele><time>2026-04-19T09:43:33Z</time></trkpt><trkpt lat="45.11050333743992" lon="7.614044850434218"><ele>273.0</ele><time>2026-04-19T09:43:34Z</time></trkpt><trkpt lat="45.11035356568192" lon="7.613730780077705"><ele>273.0</ele><time>2026-04-19T09:43:35Z</time></trkpt><trkpt lat="45.110203587196686" lon="7.613416433376112"><ele>273.5</ele><time>2026-04-19T09:43:36Z</time></trkpt><trkpt lat="45.11005241832084" lon="7.613101610277456"><ele>274.0</ele><time>2026-04-19T09:43:37Z</time></trkpt><trkpt lat="45.1099013362206" lon="7.612788088007346"><ele>274.5</ele><time>2026-04-19T09:43:38Z</time></trkpt><trkpt lat="45.109751279859864" lon="7.6124740751376025"><ele>275.0</ele><time>2026-04-19T09:43:39Z</time></trkpt><trkpt lat="45.109600025628936" lon="7.612159823766486"><ele>274.0</ele><time>2026-04-19T09:43:40Z</time></trkpt><trkpt lat="45.10944955164379" lon="7.611845441995569"><ele>273.0</ele><time>2026-04-19T09:43:41Z</time></trkpt><trkpt lat="45.10930009865356" lon="7.61153215751221"><ele>273.0</ele><time>2026-04-19T09:43:42Z</time></trkpt><trkpt lat="45.109146278709254" lon="7.611218817876496"><ele>273.0</ele><time>2026-04-19T09:43:43Z</time></trkpt><trkpt lat="45.108994761531584" lon="7.610903860822901"><ele>273.0</ele><time>2026-04-19T09:43:44Z</time></trkpt><trkpt lat="45.108844177955916" lon="7.610588014254233"><ele>273.0</ele><time>2026-04-19T09:43:45Z</time></trkpt><trkpt lat="45.10869309608932" lon="7.610273400206134"><ele>273.0</ele><time>2026-04-19T09:43:46Z</time></trkpt><trkpt lat="45.108542141481486" lon="7.609958946795327"><ele>273.0</ele><time>2026-04-19T09:43:47Z</time></trkpt><trkpt lat="45.10839238145644" lon="7.609639389307955"><ele>273.5</ele><time>2026-04-19T09:43:48Z</time></trkpt><trkpt lat="45.108243416115" lon="7.609328727665209"><ele>274.0</ele><time>2026-04-19T09:43:49Z</time></trkpt><trkpt lat="45.10809455731273" lon="7.6090149702008665"><ele>274.5</ele><time>2026-04-19T09:43:50Z</time></trkpt><trkpt lat="45.1079449619976" lon="7.6086993763449655"><ele>275.0</ele><time>2026-04-19T09:43:51Z</time></trkpt><trkpt lat="45.10779148177617" lon="7.608387145286038"><ele>274.0</ele><time>2026-04-19T09:43:52Z</time></trkpt><trkpt lat="45.107637555060045" lon="7.608078454932062"><ele>273.0</ele><time>2026-04-19T09:43:53Z</time></trkpt><trkpt lat="45.1074864037866" lon="7.607760279310579"><ele>270.5</ele><time>2026-04-19T09:43:54Z</time></trkpt><trkpt lat="45.10734075789617" lon="7.607439350102615"><ele>268.0</ele><time>2026-04-19T09:43:55Z</time></trkpt><trkpt lat="45.107200475751945" lon="7.6071162183692715"><ele>270.5</ele><time>2026-04-19T09:43:56Z</time></trkpt><trkpt lat="45.10706169392835" lon="7.606788869619814"><ele>273.0</ele><time>2026-04-19T09:43:57Z</time></trkpt><trkpt lat="45.106926821182945" lon="7.606459263148791"><ele>275.0</ele><time>2026-04-19T09:43:58Z</time></trkpt><trkpt lat="45.10679569504168" lon="7.60612819838391"><ele>277.0</ele><time>2026-04-19T09:43:59Z</time></trkpt><trkpt lat="45.10666617067423" lon="7.605795773576417"><ele>277.0</ele><time>2026-04-19T09:44:00Z</time></trkpt><trkpt lat="45.106538151000784" lon="7.605465217137383"><ele>277.0</ele><time>2026-04-19T09:44:01Z</time></trkpt><trkpt lat="45.10641234840483" lon="7.605125709122913"><ele>277.0</ele><time>2026-04-19T09:44:02Z</time></trkpt><trkpt lat="45.10628944568252" lon="7.60479364426424"><ele>277.0</ele><time>2026-04-19T09:44:03Z</time></trkpt><trkpt lat="45.10616988764132" lon="7.604455746551539"><ele>277.0</ele><time>2026-04-19T09:44:04Z</time></trkpt><trkpt lat="45.106053794147066" lon="7.604118732450136"><ele>277.0</ele><time>2026-04-19T09:44:05Z</time></trkpt><trkpt lat="45.10593954947642" lon="7.603772407667281"><ele>277.5</ele><time>2026-04-19T09:44:06Z</time></trkpt><trkpt lat="45.10582725802463" lon="7.603427784793238"><ele>278.0</ele><time>2026-04-19T09:44:07Z</time></trkpt><trkpt lat="45.105715927210895" lon="7.60308193816513"><ele>277.5</ele><time>2026-04-19T09:44:08Z</time></trkpt><trkpt lat="45.1056044699457" lon="7.602733038102636"><ele>277.0</ele><time>2026-04-19T09:44:09Z</time></trkpt><trkpt lat="45.10549947692794" lon="7.602386471011509"><ele>277.0</ele><time>2026-04-19T09:44:10Z</time></trkpt><trkpt lat="45.105396977554754" lon="7.602032593207809"><ele>277.0</ele><time>2026-04-19T09:44:11Z</time></trkpt><trkpt lat="45.105294550332935" lon="7.601681924581878"><ele>277.0</ele><time>2026-04-19T09:44:12Z</time></trkpt><trkpt lat="45.10519549761753" lon="7.601328578326735"><ele>277.0</ele><time>2026-04-19T09:44:13Z</time></trkpt><trkpt lat="45.10509631770954" lon="7.600978724290415"><ele>277.5</ele><time>2026-04-19T09:44:14Z</time></trkpt><trkpt lat="45.104996118743664" lon="7.600627131484181"><ele>278.0</ele><time>2026-04-19T09:44:15Z</time></trkpt><trkpt lat="45.10489507393524" lon="7.600273872320595"><ele>278.0</ele><time>2026-04-19T09:44:16Z</time></trkpt><trkpt lat="45.10479889939531" lon="7.599922580177139"><ele>278.0</ele><time>2026-04-19T09:44:17Z</time></trkpt><trkpt lat="45.104695830786085" lon="7.599569186886543"><ele>279.0</ele><time>2026-04-19T09:44:18Z</time></trkpt><trkpt lat="45.1045972570613" lon="7.599213571363108"><ele>280.0</ele><time>2026-04-19T09:44:19Z</time></trkpt><trkpt lat="45.10450310551099" lon="7.598861791849843"><ele>281.0</ele><time>2026-04-19T09:44:20Z</time></trkpt><trkpt lat="45.10440586063778" lon="7.598507127404312"><ele>282.0</ele><time>2026-04-19T09:44:21Z</time></trkpt><trkpt lat="45.10430917190347" lon="7.598155068795219"><ele>282.0</ele><time>2026-04-19T09:44:22Z</time></trkpt><trkpt lat="45.10420979231661" lon="7.597801647664753"><ele>282.0</ele><time>2026-04-19T09:44:23Z</time></trkpt><trkpt lat="45.10411142696293" lon="7.597450976192398"><ele>282.0</ele><time>2026-04-19T09:44:24Z</time></trkpt><trkpt lat="45.10401397900602" lon="7.597097343845849"><ele>282.0</ele><time>2026-04-19T09:44:25Z</time></trkpt><trkpt lat="45.10391464886646" lon="7.596738350250352"><ele>282.0</ele><time>2026-04-19T09:44:26Z</time></trkpt><trkpt lat="45.10381801138751" lon="7.596383874860502"><ele>282.0</ele><time>2026-04-19T09:44:27Z</time></trkpt><trkpt lat="45.103720552468204" lon="7.596034240168293"><ele>282.0</ele><time>2026-04-19T09:44:28Z</time></trkpt><trkpt lat="45.103622505475094" lon="7.5956756343581375"><ele>282.0</ele><time>2026-04-19T09:44:29Z</time></trkpt><trkpt lat="45.10352710776198" lon="7.5953247748823625"><ele>282.0</ele><time>2026-04-19T09:44:30Z</time></trkpt><trkpt lat="45.103431303870956" lon="7.594969623185136"><ele>282.0</ele><time>2026-04-19T09:44:31Z</time></trkpt><trkpt lat="45.103336254760784" lon="7.594615098647366"><ele>282.5</ele><time>2026-04-19T09:44:32Z</time></trkpt><trkpt lat="45.10324075799204" lon="7.59426387318045"><ele>283.0</ele><time>2026-04-19T09:44:33Z</time></trkpt><trkpt lat="45.10314214467324" lon="7.593911492637749"><ele>282.0</ele><time>2026-04-19T09:44:34Z</time></trkpt><trkpt lat="45.10304339238925" lon="7.593559345321519"><ele>281.0</ele><time>2026-04-19T09:44:35Z</time></trkpt><trkpt lat="45.102945655236134" lon="7.593204835998936"><ele>281.0</ele><time>2026-04-19T09:44:36Z</time></trkpt><trkpt lat="45.10284948297633" lon="7.592850917780007"><ele>281.0</ele><time>2026-04-19T09:44:37Z</time></trkpt><trkpt lat="45.10275074274326" lon="7.59249068063896"><ele>282.0</ele><time>2026-04-19T09:44:38Z</time></trkpt><trkpt lat="45.10265434357766" lon="7.592137485914344"><ele>283.0</ele><time>2026-04-19T09:44:39Z</time></trkpt><trkpt lat="45.10255630756637" lon="7.591784938455277"><ele>284.0</ele><time>2026-04-19T09:44:40Z</time></trkpt><trkpt lat="45.102458492547996" lon="7.59143257298271"><ele>285.0</ele><time>2026-04-19T09:44:41Z</time></trkpt><trkpt lat="45.10236077808104" lon="7.591077379851065"><ele>285.0</ele><time>2026-04-19T09:44:42Z</time></trkpt><trkpt lat="45.10226488276159" lon="7.590723153164748"><ele>285.0</ele><time>2026-04-19T09:44:43Z</time></trkpt><trkpt lat="45.10216491461968" lon="7.590367733473712"><ele>283.5</ele><time>2026-04-19T09:44:44Z</time></trkpt><trkpt lat="45.102068171732014" lon="7.590016889380674"><ele>282.0</ele><time>2026-04-19T09:44:45Z</time></trkpt><trkpt lat="45.10196971365123" lon="7.58966345177228"><ele>283.0</ele><time>2026-04-19T09:44:46Z</time></trkpt><trkpt lat="45.10187071333489" lon="7.589310313875372"><ele>284.0</ele><time>2026-04-19T09:44:47Z</time></trkpt><trkpt lat="45.101771963164445" lon="7.588957645555606"><ele>285.0</ele><time>2026-04-19T09:44:48Z</time></trkpt><trkpt lat="45.10167390420566" lon="7.58860083477137"><ele>286.0</ele><time>2026-04-19T09:44:49Z</time></trkpt><trkpt lat="45.10157797736624" lon="7.588247965969058"><ele>286.0</ele><time>2026-04-19T09:44:50Z</time></trkpt><trkpt lat="45.10148517770066" lon="7.587887518884444"><ele>286.0</ele><time>2026-04-19T09:44:51Z</time></trkpt><trkpt lat="45.10138303474577" lon="7.587542336513362"><ele>286.0</ele><time>2026-04-19T09:44:52Z</time></trkpt><trkpt lat="45.10128405380956" lon="7.587188828099195"><ele>286.0</ele><time>2026-04-19T09:44:53Z</time></trkpt><trkpt lat="45.101188406035355" lon="7.586836662540007"><ele>286.5</ele><time>2026-04-19T09:44:54Z</time></trkpt><trkpt lat="45.1010922277973" lon="7.586482039211407"><ele>287.0</ele><time>2026-04-19T09:44:55Z</time></trkpt><trkpt lat="45.100995047019886" lon="7.586128574669678"><ele>287.0</ele><time>2026-04-19T09:44:56Z</time></trkpt><trkpt lat="45.10089901116625" lon="7.585772754070022"><ele>287.0</ele><time>2026-04-19T09:44:57Z</time></trkpt><trkpt lat="45.10080272601898" lon="7.585419537799416"><ele>287.0</ele><time>2026-04-19T09:44:58Z</time></trkpt><trkpt lat="45.10070414352851" lon="7.585069212617631"><ele>287.0</ele><time>2026-04-19T09:44:59Z</time></trkpt><trkpt lat="45.100604999918104" lon="7.584715249381621"><ele>286.5</ele><time>2026-04-19T09:45:00Z</time></trkpt><trkpt lat="45.100507789476495" lon="7.584361613631934"><ele>286.0</ele><time>2026-04-19T09:45:01Z</time></trkpt><trkpt lat="45.10040955074012" lon="7.584009785045076"><ele>287.0</ele><time>2026-04-19T09:45:02Z</time></trkpt><trkpt lat="45.10031116211385" lon="7.5836562692951555"><ele>288.0</ele><time>2026-04-19T09:45:03Z</time></trkpt><trkpt lat="45.100213971632556" lon="7.5833013769688185"><ele>288.0</ele><time>2026-04-19T09:45:04Z</time></trkpt><trkpt lat="45.10011793334085" lon="7.582946773622124"><ele>288.0</ele><time>2026-04-19T09:45:05Z</time></trkpt><trkpt lat="45.10002096118737" lon="7.582594808849305"><ele>288.0</ele><time>2026-04-19T09:45:06Z</time></trkpt><trkpt lat="45.099923383799634" lon="7.582243054982005"><ele>288.0</ele><time>2026-04-19T09:45:07Z</time></trkpt><trkpt lat="45.09982493606977" lon="7.581889659060472"><ele>288.0</ele><time>2026-04-19T09:45:08Z</time></trkpt><trkpt lat="45.09972834419122" lon="7.581541250400622"><ele>288.0</ele><time>2026-04-19T09:45:09Z</time></trkpt><trkpt lat="45.09963810768109" lon="7.581209193823768"><ele>289.0</ele><time>2026-04-19T09:45:10Z</time></trkpt><trkpt lat="45.09955024184771" lon="7.580894830604214"><ele>290.0</ele><time>2026-04-19T09:45:11Z</time></trkpt><trkpt lat="45.09946211127741" lon="7.580574859738876"><ele>291.0</ele><time>2026-04-19T09:45:12Z</time></trkpt><trkpt lat="45.09937138473379" lon="7.580250216352969"><ele>292.0</ele><time>2026-04-19T09:45:13Z</time></trkpt><trkpt lat="45.09927483165874" lon="7.579914769983885"><ele>292.0</ele><time>2026-04-19T09:45:14Z</time></trkpt><trkpt lat="45.09916837808481" lon="7.579572315466882"><ele>292.0</ele><time>2026-04-19T09:45:15Z</time></trkpt><trkpt lat="45.09906027885908" lon="7.579221224600116"><ele>292.0</ele><time>2026-04-19T09:45:16Z</time></trkpt><trkpt lat="45.098954291075245" lon="7.578865803759811"><ele>292.0</ele><time>2026-04-19T09:45:17Z</time></trkpt><trkpt lat="45.09885223366605" lon="7.578507151492012"><ele>293.0</ele><time>2026-04-19T09:45:18Z</time></trkpt><trkpt lat="45.09875067854836" lon="7.578152546327146"><ele>294.0</ele><time>2026-04-19T09:45:19Z</time></trkpt><trkpt lat="45.098647735797314" lon="7.577796151162793"><ele>294.5</ele><time>2026-04-19T09:45:20Z</time></trkpt><trkpt lat="45.09854340290008" lon="7.577437487973651"><ele>295.0</ele><time>2026-04-19T09:45:21Z</time></trkpt><trkpt lat="45.098430627734594" lon="7.577085505707001"><ele>294.5</ele><time>2026-04-19T09:45:22Z</time></trkpt><trkpt lat="45.09831285003235" lon="7.576735642238862"><ele>294.0</ele><time>2026-04-19T09:45:23Z</time></trkpt><trkpt lat="45.09818600269891" lon="7.576396021005733"><ele>295.0</ele><time>2026-04-19T09:45:24Z</time></trkpt><trkpt lat="45.098049318806936" lon="7.576061199112159"><ele>296.0</ele><time>2026-04-19T09:45:25Z</time></trkpt><trkpt lat="45.09790850732673" lon="7.575732795585983"><ele>296.0</ele><time>2026-04-19T09:45:26Z</time></trkpt><trkpt lat="45.09776525501772" lon="7.575408869063376"><ele>296.0</ele><time>2026-04-19T09:45:27Z</time></trkpt><trkpt lat="45.09762254204702" lon="7.575091555337961"><ele>296.0</ele><time>2026-04-19T09:45:28Z</time></trkpt><trkpt lat="45.09747518333891" lon="7.574769836052814"><ele>296.0</ele><time>2026-04-19T09:45:29Z</time></trkpt><trkpt lat="45.09732355221341" lon="7.57445173522222"><ele>296.0</ele><time>2026-04-19T09:45:30Z</time></trkpt><trkpt lat="45.09716272922747" lon="7.5741426074619795"><ele>296.0</ele><time>2026-04-19T09:45:31Z</time></trkpt><trkpt lat="45.09699132644869" lon="7.573841410621056"><ele>296.0</ele><time>2026-04-19T09:45:32Z</time></trkpt><trkpt lat="45.096808651284846" lon="7.573548903541055"><ele>296.0</ele><time>2026-04-19T09:45:33Z</time></trkpt><trkpt lat="45.09662708143056" lon="7.57326490387737"><ele>296.5</ele><time>2026-04-19T09:45:34Z</time></trkpt><trkpt lat="45.096441595837575" lon="7.572987074968811"><ele>297.0</ele><time>2026-04-19T09:45:35Z</time></trkpt><trkpt lat="45.09625038369422" lon="7.572714186789468"><ele>297.5</ele><time>2026-04-19T09:45:36Z</time></trkpt><trkpt lat="45.096052286927495" lon="7.572446353748645"><ele>298.0</ele><time>2026-04-19T09:45:37Z</time></trkpt><trkpt lat="45.09584908168367" lon="7.572186033751985"><ele>297.5</ele><time>2026-04-19T09:45:38Z</time></trkpt><trkpt lat="45.09564214552087" lon="7.57192668145244"><ele>297.0</ele><time>2026-04-19T09:45:39Z</time></trkpt><trkpt lat="45.095435761804005" lon="7.571660625981517"><ele>297.0</ele><time>2026-04-19T09:45:40Z</time></trkpt><trkpt lat="45.095227164554906" lon="7.571387232036193"><ele>297.0</ele><time>2026-04-19T09:45:41Z</time></trkpt><trkpt lat="45.09502096199619" lon="7.5711007654472935"><ele>298.0</ele><time>2026-04-19T09:45:42Z</time></trkpt><trkpt lat="45.09480033205067" lon="7.570865062861899"><ele>299.0</ele><time>2026-04-19T09:45:43Z</time></trkpt><trkpt lat="45.094591237765634" lon="7.570588894815331"><ele>300.0</ele><time>2026-04-19T09:45:44Z</time></trkpt><trkpt lat="45.09437755755924" lon="7.570319124782181"><ele>301.0</ele><time>2026-04-19T09:45:45Z</time></trkpt><trkpt lat="45.09416051577695" lon="7.570054590869811"><ele>301.0</ele><time>2026-04-19T09:45:46Z</time></trkpt><trkpt lat="45.09393726331629" lon="7.569794071693595"><ele>301.0</ele><time>2026-04-19T09:45:47Z</time></trkpt><trkpt lat="45.09371462080908" lon="7.569526299198954"><ele>301.5</ele><time>2026-04-19T09:45:48Z</time></trkpt><trkpt lat="45.09349047264057" lon="7.569256509586228"><ele>302.0</ele><time>2026-04-19T09:45:49Z</time></trkpt><trkpt lat="45.09326716693826" lon="7.568979491993166"><ele>300.5</ele><time>2026-04-19T09:45:50Z</time></trkpt><trkpt lat="45.093044764094834" lon="7.568701474342041"><ele>299.0</ele><time>2026-04-19T09:45:51Z</time></trkpt><trkpt lat="45.09282122026367" lon="7.568422531291906"><ele>299.0</ele><time>2026-04-19T09:45:52Z</time></trkpt><trkpt lat="45.092602380152094" lon="7.568143399606819"><ele>299.0</ele><time>2026-04-19T09:45:53Z</time></trkpt><trkpt lat="45.09238292464453" lon="7.567864064339948"><ele>298.0</ele><time>2026-04-19T09:45:54Z</time></trkpt><trkpt lat="45.09216456129629" lon="7.567587311354104"><ele>297.0</ele><time>2026-04-19T09:45:55Z</time></trkpt><trkpt lat="45.09194746020006" lon="7.567313556003419"><ele>297.0</ele><time>2026-04-19T09:45:56Z</time></trkpt><trkpt lat="45.091730504455704" lon="7.567039096003212"><ele>297.0</ele><time>2026-04-19T09:45:57Z</time></trkpt><trkpt lat="45.09151505364732" lon="7.566763931979435"><ele>296.0</ele><time>2026-04-19T09:45:58Z</time></trkpt><trkpt lat="45.09130276312699" lon="7.56648894769281"><ele>295.0</ele><time>2026-04-19T09:45:59Z</time></trkpt><trkpt lat="45.091089821329405" lon="7.5662215085173745"><ele>294.5</ele><time>2026-04-19T09:46:00Z</time></trkpt><trkpt lat="45.090874786735746" lon="7.565958046830087"><ele>294.0</ele><time>2026-04-19T09:46:01Z</time></trkpt><trkpt lat="45.09066151290662" lon="7.565691803258008"><ele>293.5</ele><time>2026-04-19T09:46:02Z</time></trkpt><trkpt lat="45.09044855710671" lon="7.565425119012627"><ele>293.0</ele><time>2026-04-19T09:46:03Z</time></trkpt><trkpt lat="45.09023593420101" lon="7.565157767291835"><ele>293.0</ele><time>2026-04-19T09:46:04Z</time></trkpt><trkpt lat="45.090023916633456" lon="7.564891532364078"><ele>293.0</ele><time>2026-04-19T09:46:05Z</time></trkpt><trkpt lat="45.089812655174896" lon="7.564624300467572"><ele>293.5</ele><time>2026-04-19T09:46:06Z</time></trkpt><trkpt lat="45.08959880875262" lon="7.564353905743518"><ele>294.0</ele><time>2026-04-19T09:46:07Z</time></trkpt><trkpt lat="45.08938513951815" lon="7.564084579850239"><ele>294.0</ele><time>2026-04-19T09:46:08Z</time></trkpt><trkpt lat="45.08917048612955" lon="7.563815297023342"><ele>294.0</ele><time>2026-04-19T09:46:09Z</time></trkpt><trkpt lat="45.08895669485619" lon="7.563544736575198"><ele>293.5</ele><time>2026-04-19T09:46:10Z</time></trkpt><trkpt lat="45.088742200343006" lon="7.563272665050301"><ele>293.0</ele><time>2026-04-19T09:46:11Z</time></trkpt><trkpt lat="45.088526182228584" lon="7.563001123369306"><ele>293.0</ele><time>2026-04-19T09:46:12Z</time></trkpt><trkpt lat="45.088310044090825" lon="7.562726928342927"><ele>293.0</ele><time>2026-04-19T09:46:13Z</time></trkpt><trkpt lat="45.088091231995065" lon="7.562453501540079"><ele>295.0</ele><time>2026-04-19T09:46:14Z</time></trkpt><trkpt lat="45.08787302014965" lon="7.56217921098927"><ele>297.0</ele><time>2026-04-19T09:46:15Z</time></trkpt><trkpt lat="45.087654820396736" lon="7.5619058490451865"><ele>297.5</ele><time>2026-04-19T09:46:16Z</time></trkpt><trkpt lat="45.0874350972768" lon="7.56163167387736"><ele>298.0</ele><time>2026-04-19T09:46:17Z</time></trkpt><trkpt lat="45.087215517360846" lon="7.561356000565868"><ele>302.0</ele><time>2026-04-19T09:46:18Z</time></trkpt><trkpt lat="45.08699553744145" lon="7.561077486650696"><ele>306.0</ele><time>2026-04-19T09:46:19Z</time></trkpt><trkpt lat="45.08677456688539" lon="7.560797886240849"><ele>308.5</ele><time>2026-04-19T09:46:20Z</time></trkpt><trkpt lat="45.08655188230109" lon="7.560521255690735"><ele>311.0</ele><time>2026-04-19T09:46:21Z</time></trkpt><trkpt lat="45.08632605001154" lon="7.560242221607177"><ele>311.0</ele><time>2026-04-19T09:46:22Z</time></trkpt><trkpt lat="45.08609912566587" lon="7.559961062518437"><ele>311.0</ele><time>2026-04-19T09:46:23Z</time></trkpt><trkpt lat="45.08587128610537" lon="7.559675162025012"><ele>313.0</ele><time>2026-04-19T09:46:24Z</time></trkpt><trkpt lat="45.0856434349228" lon="7.559386384485916"><ele>315.0</ele><time>2026-04-19T09:46:25Z</time></trkpt><trkpt lat="45.08541545149403" lon="7.559097352287355"><ele>315.0</ele><time>2026-04-19T09:46:26Z</time></trkpt><trkpt lat="45.08518551725104" lon="7.558806452852322"><ele>315.0</ele><time>2026-04-19T09:46:27Z</time></trkpt><trkpt lat="45.0849558414614" lon="7.558512694167208"><ele>314.0</ele><time>2026-04-19T09:46:28Z</time></trkpt><trkpt lat="45.08472416034216" lon="7.558220526138491"><ele>313.0</ele><time>2026-04-19T09:46:29Z</time></trkpt><trkpt lat="45.084490432338235" lon="7.557929482568425"><ele>313.0</ele><time>2026-04-19T09:46:30Z</time></trkpt><trkpt lat="45.0842559073586" lon="7.557633473352299"><ele>313.0</ele><time>2026-04-19T09:46:31Z</time></trkpt><trkpt lat="45.08402341653257" lon="7.557335298346594"><ele>313.0</ele><time>2026-04-19T09:46:32Z</time></trkpt><trkpt lat="45.08379429432073" lon="7.557038303500753"><ele>313.0</ele><time>2026-04-19T09:46:33Z</time></trkpt><trkpt lat="45.08357042940761" lon="7.556735990979979"><ele>314.0</ele><time>2026-04-19T09:46:34Z</time></trkpt><trkpt lat="45.08335684022586" lon="7.556422422297643"><ele>315.0</ele><time>2026-04-19T09:46:35Z</time></trkpt><trkpt lat="45.08315414574795" lon="7.556096023593467"><ele>316.0</ele><time>2026-04-19T09:46:36Z</time></trkpt><trkpt lat="45.082959904882614" lon="7.555765192025061"><ele>317.0</ele><time>2026-04-19T09:46:37Z</time></trkpt><trkpt lat="45.0827743216242" lon="7.555431946184582"><ele>317.0</ele><time>2026-04-19T09:46:38Z</time></trkpt><trkpt lat="45.082602256845746" lon="7.55509816104337"><ele>317.0</ele><time>2026-04-19T09:46:39Z</time></trkpt><trkpt lat="45.082440722965536" lon="7.5547549501806825"><ele>316.0</ele><time>2026-04-19T09:46:40Z</time></trkpt><trkpt lat="45.08228210700634" lon="7.554399172990333"><ele>315.0</ele><time>2026-04-19T09:46:41Z</time></trkpt><trkpt lat="45.08213066810643" lon="7.554036302496848"><ele>315.5</ele><time>2026-04-19T09:46:42Z</time></trkpt><trkpt lat="45.081983676797066" lon="7.553663702129551"><ele>316.0</ele><time>2026-04-19T09:46:43Z</time></trkpt><trkpt lat="45.08184530263672" lon="7.553288564239896"><ele>316.0</ele><time>2026-04-19T09:46:44Z</time></trkpt><trkpt lat="45.08171741715738" lon="7.552906008630936"><ele>316.0</ele><time>2026-04-19T09:46:45Z</time></trkpt><trkpt lat="45.08159749243304" lon="7.552513992552955"><ele>314.0</ele><time>2026-04-19T09:46:46Z</time></trkpt><trkpt lat="45.08149236812707" lon="7.552112019411033"><ele>312.0</ele><time>2026-04-19T09:46:47Z</time></trkpt><trkpt lat="45.08139830001044" lon="7.5517137462160475"><ele>312.0</ele><time>2026-04-19T09:46:48Z</time></trkpt><trkpt lat="45.08130897819567" lon="7.551335237232835"><ele>312.0</ele><time>2026-04-19T09:46:49Z</time></trkpt><trkpt lat="45.0812155686989" lon="7.550949909701164"><ele>313.5</ele><time>2026-04-19T09:46:50Z</time></trkpt><trkpt lat="45.08110571529609" lon="7.550565241603291"><ele>315.0</ele><time>2026-04-19T09:46:51Z</time></trkpt><trkpt lat="45.08096216237388" lon="7.550197236882437"><ele>315.5</ele><time>2026-04-19T09:46:52Z</time></trkpt><trkpt lat="45.080784219721075" lon="7.549856508844151"><ele>316.0</ele><time>2026-04-19T09:46:53Z</time></trkpt><trkpt lat="45.08058193620677" lon="7.54954260805353"><ele>317.5</ele><time>2026-04-19T09:46:54Z</time></trkpt><trkpt lat="45.080369640172584" lon="7.549266384109833"><ele>319.0</ele><time>2026-04-19T09:46:55Z</time></trkpt><trkpt lat="45.080147817889156" lon="7.549069056813797"><ele>320.0</ele><time>2026-04-19T09:46:56Z</time></trkpt><trkpt lat="45.079923447136075" lon="7.548874966606169"><ele>321.0</ele><time>2026-04-19T09:46:57Z</time></trkpt><trkpt lat="45.07968290181019" lon="7.548721562950445"><ele>322.0</ele><time>2026-04-19T09:46:58Z</time></trkpt><trkpt lat="45.07944034253503" lon="7.548592550336305"><ele>323.0</ele><time>2026-04-19T09:46:59Z</time></trkpt><trkpt lat="45.07918797440738" lon="7.5485026644031"><ele>323.5</ele><time>2026-04-19T09:47:00Z</time></trkpt><trkpt lat="45.078917560308305" lon="7.548424445244807"><ele>324.0</ele><time>2026-04-19T09:47:01Z</time></trkpt><trkpt lat="45.07863436738455" lon="7.548346326304916"><ele>324.0</ele><time>2026-04-19T09:47:02Z</time></trkpt><trkpt lat="45.07833906027307" lon="7.548256302233473"><ele>324.0</ele><time>2026-04-19T09:47:03Z</time></trkpt><trkpt lat="45.07803895074442" lon="7.548158359337791"><ele>324.0</ele><time>2026-04-19T09:47:04Z</time></trkpt><trkpt lat="45.07773491908071" lon="7.5480547714748445"><ele>324.0</ele><time>2026-04-19T09:47:05Z</time></trkpt><trkpt lat="45.07742546166026" lon="7.547955402105356"><ele>326.0</ele><time>2026-04-19T09:47:06Z</time></trkpt><trkpt lat="45.077117646805384" lon="7.5478586226788655"><ele>328.0</ele><time>2026-04-19T09:47:07Z</time></trkpt><trkpt lat="45.07680647851175" lon="7.547759705944858"><ele>328.0</ele><time>2026-04-19T09:47:08Z</time></trkpt><trkpt lat="45.07649446233154" lon="7.547661684760679"><ele>328.0</ele><time>2026-04-19T09:47:09Z</time></trkpt><trkpt lat="45.07617747996368" lon="7.547562417277839"><ele>328.0</ele><time>2026-04-19T09:47:10Z</time></trkpt><trkpt lat="45.07585710124605" lon="7.547463970238504"><ele>328.0</ele><time>2026-04-19T09:47:11Z</time></trkpt><trkpt lat="45.07553561807507" lon="7.5473637254025"><ele>326.0</ele><time>2026-04-19T09:47:12Z</time></trkpt><trkpt lat="45.07521900223869" lon="7.547263613975035"><ele>324.0</ele><time>2026-04-19T09:47:13Z</time></trkpt><trkpt lat="45.074909147365965" lon="7.547168433404865"><ele>323.0</ele><time>2026-04-19T09:47:14Z</time></trkpt><trkpt lat="45.07460798774274" lon="7.547076361837549"><ele>322.0</ele><time>2026-04-19T09:47:15Z</time></trkpt><trkpt lat="45.07431704465073" lon="7.546985383691242"><ele>324.0</ele><time>2026-04-19T09:47:16Z</time></trkpt><trkpt lat="45.074024703529155" lon="7.5468931754060256"><ele>326.0</ele><time>2026-04-19T09:47:17Z</time></trkpt><trkpt lat="45.073731245834956" lon="7.546800934998736"><ele>326.0</ele><time>2026-04-19T09:47:18Z</time></trkpt><trkpt lat="45.07343958851422" lon="7.546711874464465"><ele>326.0</ele><time>2026-04-19T09:47:19Z</time></trkpt><trkpt lat="45.073146087946576" lon="7.546620836065218"><ele>324.5</ele><time>2026-04-19T09:47:20Z</time></trkpt><trkpt lat="45.07285422907043" lon="7.546531845075549"><ele>323.0</ele><time>2026-04-19T09:47:21Z</time></trkpt><trkpt lat="45.072557791563945" lon="7.546441065540994"><ele>323.5</ele><time>2026-04-19T09:47:22Z</time></trkpt><trkpt lat="45.07226381002065" lon="7.5463533401513985"><ele>324.0</ele><time>2026-04-19T09:47:23Z</time></trkpt><trkpt lat="45.07197125862486" lon="7.546262258600855"><ele>324.5</ele><time>2026-04-19T09:47:24Z</time></trkpt><trkpt lat="45.071678320158135" lon="7.546174571737099"><ele>325.0</ele><time>2026-04-19T09:47:25Z</time></trkpt><trkpt lat="45.07138429614673" lon="7.546083470755768"><ele>325.0</ele><time>2026-04-19T09:47:26Z</time></trkpt><trkpt lat="45.071093031649866" lon="7.5459958932207885"><ele>325.0</ele><time>2026-04-19T09:47:27Z</time></trkpt><trkpt lat="45.07080711420983" lon="7.545911694107087"><ele>325.0</ele><time>2026-04-19T09:47:28Z</time></trkpt><trkpt lat="45.070520205240484" lon="7.545822152196734"><ele>325.0</ele><time>2026-04-19T09:47:29Z</time></trkpt><trkpt lat="45.07023545128924" lon="7.545736956496105"><ele>325.0</ele><time>2026-04-19T09:47:30Z</time></trkpt><trkpt lat="45.06995991344452" lon="7.545648228455553"><ele>325.0</ele><time>2026-04-19T09:47:31Z</time></trkpt><trkpt lat="45.06970104614739" lon="7.545564620624994"><ele>324.0</ele><time>2026-04-19T09:47:32Z</time></trkpt><trkpt lat="45.06945202079903" lon="7.5454821185478815"><ele>323.0</ele><time>2026-04-19T09:47:33Z</time></trkpt><trkpt lat="45.069213796768956" lon="7.545392286560026"><ele>322.5</ele><time>2026-04-19T09:47:34Z</time></trkpt><trkpt lat="45.06898497428257" lon="7.545299475724228"><ele>322.0</ele><time>2026-04-19T09:47:35Z</time></trkpt><trkpt lat="45.06875273323104" lon="7.545223941292517"><ele>322.0</ele><time>2026-04-19T09:47:36Z</time></trkpt><trkpt lat="45.06851314940307" lon="7.545143975552669"><ele>322.0</ele><time>2026-04-19T09:47:37Z</time></trkpt><trkpt lat="45.06828907545222" lon="7.545063564272434"><ele>320.5</ele><time>2026-04-19T09:47:38Z</time></trkpt><trkpt lat="45.06807145484655" lon="7.544982325749386"><ele>319.0</ele><time>2026-04-19T09:47:39Z</time></trkpt><trkpt lat="45.06784967277856" lon="7.544912717677181"><ele>319.0</ele><time>2026-04-19T09:47:40Z</time></trkpt><trkpt lat="45.067622551266595" lon="7.544843856525482"><ele>319.0</ele><time>2026-04-19T09:47:41Z</time></trkpt><trkpt lat="45.067399869254146" lon="7.544771562260525"><ele>319.0</ele><time>2026-04-19T09:47:42Z</time></trkpt><trkpt lat="45.06718007837478" lon="7.544697711537154"><ele>319.0</ele><time>2026-04-19T09:47:43Z</time></trkpt><trkpt lat="45.066952513414606" lon="7.54461685804093"><ele>319.5</ele><time>2026-04-19T09:47:44Z</time></trkpt><trkpt lat="45.066727176608076" lon="7.544531876817394"><ele>320.0</ele><time>2026-04-19T09:47:45Z</time></trkpt><trkpt lat="45.066510859587616" lon="7.544457452219319"><ele>320.33333333333337</ele><time>2026-04-19T09:47:46Z</time></trkpt><trkpt lat="45.066306151605815" lon="7.544393988015152"><ele>320.6666666666667</ele><time>2026-04-19T09:47:47Z</time></trkpt><trkpt lat="45.06611297032572" lon="7.54433460065827"><ele>321.0</ele><time>2026-04-19T09:47:48Z</time></trkpt><trkpt lat="45.06592006098209" lon="7.544279124016131"><ele>320.0</ele><time>2026-04-19T09:47:49Z</time></trkpt><trkpt lat="45.06574372125473" lon="7.5442072851799"><ele>319.0</ele><time>2026-04-19T09:47:50Z</time></trkpt><trkpt lat="45.065581106413966" lon="7.544145406572447"><ele>318.0</ele><time>2026-04-19T09:47:51Z</time></trkpt><trkpt lat="45.06543217113187" lon="7.544067122431331"><ele>318.0</ele><time>2026-04-19T09:47:52Z</time></trkpt><trkpt lat="45.06529576035054" lon="7.543958451415083"><ele>318.0</ele><time>2026-04-19T09:47:53Z</time></trkpt><trkpt lat="45.06517387835768" lon="7.5438165241717785"><ele>318.0</ele><time>2026-04-19T09:47:54Z</time></trkpt><trkpt lat="45.06506316746517" lon="7.543628456738295"><ele>318.25</ele><time>2026-04-19T09:47:55Z</time></trkpt><trkpt lat="45.06497817360518" lon="7.543435517244958"><ele>318.5</ele><time>2026-04-19T09:47:56Z</time></trkpt><trkpt lat="45.06492353048013" lon="7.543257509447393"><ele>318.75</ele><time>2026-04-19T09:47:57Z</time></trkpt><trkpt lat="45.064883283844054" lon="7.543078872197015"><ele>319.0</ele><time>2026-04-19T09:47:58Z</time></trkpt><trkpt lat="45.064862561307585" lon="7.542910599305852"><ele>319.25</ele><time>2026-04-19T09:47:59Z</time></trkpt><trkpt lat="45.064858329138424" lon="7.542747207931649"><ele>319.5</ele><time>2026-04-19T09:48:00Z</time></trkpt><trkpt lat="45.06486247715033" lon="7.542578572534858"><ele>319.75</ele><time>2026-04-19T09:48:01Z</time></trkpt><trkpt lat="45.06487806395812" lon="7.5424100548873145"><ele>320.0</ele><time>2026-04-19T09:48:02Z</time></trkpt><trkpt lat="45.064914072054655" lon="7.5422517115458545"><ele>320.0</ele><time>2026-04-19T09:48:03Z</time></trkpt><trkpt lat="45.06494070758906" lon="7.542098998992227"><ele>320.0</ele><time>2026-04-19T09:48:04Z</time></trkpt><trkpt lat="45.0649650883412" lon="7.541954598271681"><ele>320.0</ele><time>2026-04-19T09:48:05Z</time></trkpt><trkpt lat="45.0649870249357" lon="7.54181190312989"><ele>320.0</ele><time>2026-04-19T09:48:06Z</time></trkpt><trkpt lat="45.06501003649191" lon="7.541685918309574"><ele>320.0</ele><time>2026-04-19T09:48:07Z</time></trkpt><trkpt lat="45.065038217749844" lon="7.54158074330955"><ele>320.33333333333337</ele><time>2026-04-19T09:48:08Z</time></trkpt><trkpt lat="45.065070778324106" lon="7.541495329087682"><ele>320.6666666666667</ele><time>2026-04-19T09:48:09Z</time></trkpt><trkpt lat="45.065142520170625" lon="7.541367529657138"><ele>321.0</ele><time>2026-04-19T09:48:11Z</time></trkpt><trkpt lat="45.065192402598385" lon="7.541295298494573"><ele>321.3333333333333</ele><time>2026-04-19T09:48:12Z</time></trkpt><trkpt lat="45.06524469767432" lon="7.541195569910487"><ele>321.66666666666663</ele><time>2026-04-19T09:48:13Z</time></trkpt><trkpt lat="45.06528756194334" lon="7.541090091856689"><ele>322.0</ele><time>2026-04-19T09:48:14Z</time></trkpt><trkpt lat="45.065307416783234" lon="7.540985326342398"><ele>322.16666666666663</ele><time>2026-04-19T09:48:15Z</time></trkpt><trkpt lat="45.06531713594871" lon="7.540875823848489"><ele>322.3333333333333</ele><time>2026-04-19T09:48:16Z</time></trkpt><trkpt lat="45.065310268533864" lon="7.5407660207586265"><ele>322.5</ele><time>2026-04-19T09:48:17Z</time></trkpt><trkpt lat="45.06534278004365" lon="7.54065783438929"><ele>322.6666666666667</ele><time>2026-04-19T09:48:18Z</time></trkpt><trkpt lat="45.065351313882545" lon="7.540529546081769"><ele>322.83333333333337</ele><time>2026-04-19T09:48:19Z</time></trkpt><trkpt lat="45.06540937267237" lon="7.540397824893308"><ele>323.0</ele><time>2026-04-19T09:48:20Z</time></trkpt><trkpt lat="45.065478107092034" lon="7.5402495896517365"><ele>323.5</ele><time>2026-04-19T09:48:21Z</time></trkpt><trkpt lat="45.06553965615483" lon="7.540099583079513"><ele>324.0</ele><time>2026-04-19T09:48:22Z</time></trkpt><trkpt lat="45.065611563807785" lon="7.53995323929955"><ele>324.5</ele><time>2026-04-19T09:48:23Z</time></trkpt><trkpt lat="45.06569184681734" lon="7.539787098130519"><ele>325.0</ele><time>2026-04-19T09:48:24Z</time></trkpt><trkpt lat="45.06578603538282" lon="7.539592174560977"><ele>325.66666666666663</ele><time>2026-04-19T09:48:25Z</time></trkpt><trkpt lat="45.06588620831706" lon="7.539379394316196"><ele>326.3333333333333</ele><time>2026-04-19T09:48:26Z</time></trkpt><trkpt lat="45.06600235671084" lon="7.539162340500349"><ele>327.0</ele><time>2026-04-19T09:48:27Z</time></trkpt><trkpt lat="45.06613198990362" lon="7.53894424379074"><ele>327.0</ele><time>2026-04-19T09:48:28Z</time></trkpt><trkpt lat="45.066261102634826" lon="7.538720054113772"><ele>327.0</ele><time>2026-04-19T09:48:29Z</time></trkpt><trkpt lat="45.066396109660005" lon="7.5385076454343745"><ele>327.0</ele><time>2026-04-19T09:48:30Z</time></trkpt><trkpt lat="45.06650673024915" lon="7.538319818772193"><ele>326.5</ele><time>2026-04-19T09:48:31Z</time></trkpt><trkpt lat="45.066596149954826" lon="7.538132199054534"><ele>326.0</ele><time>2026-04-19T09:48:32Z</time></trkpt><trkpt lat="45.06667076305282" lon="7.537961503647595"><ele>325.5</ele><time>2026-04-19T09:48:33Z</time></trkpt><trkpt lat="45.066723381921854" lon="7.537802040400204"><ele>325.0</ele><time>2026-04-19T09:48:34Z</time></trkpt><trkpt lat="45.066735839343565" lon="7.537646469498665"><ele>325.8</ele><time>2026-04-19T09:48:35Z</time></trkpt><trkpt lat="45.066727892150475" lon="7.537521931277901"><ele>326.6</ele><time>2026-04-19T09:48:36Z</time></trkpt><trkpt lat="45.066752925319165" lon="7.537420363589981"><ele>327.4</ele><time>2026-04-19T09:48:40Z</time></trkpt><trkpt lat="45.06683505303223" lon="7.537286421497396"><ele>328.2</ele><time>2026-04-19T09:48:42Z</time></trkpt><trkpt lat="45.06689787113964" lon="7.537181077316328"><ele>329.0</ele><time>2026-04-19T09:48:43Z</time></trkpt><trkpt lat="45.066948611326424" lon="7.537060490332902"><ele>329.0</ele><time>2026-04-19T09:48:44Z</time></trkpt><trkpt lat="45.067039960445875" lon="7.536960777605483"><ele>329.0</ele><time>2026-04-19T09:48:45Z</time></trkpt><trkpt lat="45.06712281561497" lon="7.536810580827695"><ele>329.0</ele><time>2026-04-19T09:48:46Z</time></trkpt><trkpt lat="45.06720305288097" lon="7.536623888462283"><ele>329.0</ele><time>2026-04-19T09:48:47Z</time></trkpt><trkpt lat="45.06727509820418" lon="7.5363964036529225"><ele>329.6666666666667</ele><time>2026-04-19T09:48:48Z</time></trkpt><trkpt lat="45.06738228408698" lon="7.53617360919803"><ele>330.3333333333333</ele><time>2026-04-19T09:48:49Z</time></trkpt><trkpt lat="45.06747639264721" lon="7.535935515524549"><ele>331.0</ele><time>2026-04-19T09:48:50Z</time></trkpt><trkpt lat="45.0675906002438" lon="7.535690069972828"><ele>331.3333333333333</ele><time>2026-04-19T09:48:51Z</time></trkpt><trkpt lat="45.067696216680766" lon="7.5354592153552264"><ele>331.6666666666667</ele><time>2026-04-19T09:48:52Z</time></trkpt><trkpt lat="45.06779054265428" lon="7.5352422016319816"><ele>332.0</ele><time>2026-04-19T09:48:53Z</time></trkpt><trkpt lat="45.06787916788605" lon="7.535056367736454"><ele>332.5</ele><time>2026-04-19T09:48:54Z</time></trkpt><trkpt lat="45.06795981679005" lon="7.534883887038172"><ele>333.0</ele><time>2026-04-19T09:48:55Z</time></trkpt><trkpt lat="45.06803360966719" lon="7.534720361179283"><ele>333.5</ele><time>2026-04-19T09:48:56Z</time></trkpt><trkpt lat="45.06810509154461" lon="7.534573332162372"><ele>334.0</ele><time>2026-04-19T09:48:57Z</time></trkpt><trkpt lat="45.06816930528993" lon="7.534439779392553"><ele>334.2</ele><time>2026-04-19T09:48:58Z</time></trkpt><trkpt lat="45.06822120011431" lon="7.534321810691462"><ele>334.4</ele><time>2026-04-19T09:48:59Z</time></trkpt><trkpt lat="45.06827042215747" lon="7.53421782960688"><ele>334.6</ele><time>2026-04-19T09:49:00Z</time></trkpt><trkpt lat="45.06831593035101" lon="7.534122584114835"><ele>334.8</ele><time>2026-04-19T09:49:01Z</time></trkpt><trkpt lat="45.06835693439932" lon="7.534041672885209"><ele>335.0</ele><time>2026-04-19T09:49:02Z</time></trkpt><trkpt lat="45.0684338851776" lon="7.533923034846662"><ele>335.2</ele><time>2026-04-19T09:49:04Z</time></trkpt><trkpt lat="45.06854703916033" lon="7.5338506152118425"><ele>335.4</ele><time>2026-04-19T09:49:06Z</time></trkpt><trkpt lat="45.068590949238605" lon="7.533774262671676"><ele>335.6</ele><time>2026-04-19T09:49:07Z</time></trkpt><trkpt lat="45.06864550843002" lon="7.533701508866567"><ele>335.8</ele><time>2026-04-19T09:49:08Z</time></trkpt><trkpt lat="45.068611985553396" lon="7.533558533579989"><ele>336.0</ele><time>2026-04-19T09:49:09Z</time></trkpt><trkpt lat="45.06863366274491" lon="7.533455017343574"><ele>336.8</ele><time>2026-04-19T09:49:10Z</time></trkpt><trkpt lat="45.06867798763379" lon="7.533335969056714"><ele>337.6</ele><time>2026-04-19T09:49:11Z</time></trkpt><trkpt lat="45.06873653169565" lon="7.533212087892498"><ele>338.4</ele><time>2026-04-19T09:49:12Z</time></trkpt><trkpt lat="45.06881014867712" lon="7.533090759589938"><ele>339.2</ele><time>2026-04-19T09:49:13Z</time></trkpt><trkpt lat="45.06886626784166" lon="7.532942503592912"><ele>340.0</ele><time>2026-04-19T09:49:14Z</time></trkpt><trkpt lat="45.068932124772644" lon="7.532786140591675"><ele>340.75</ele><time>2026-04-19T09:49:15Z</time></trkpt><trkpt lat="45.06900993630196" lon="7.5326314389993865"><ele>341.5</ele><time>2026-04-19T09:49:16Z</time></trkpt><trkpt lat="45.0690800277983" lon="7.532478743207422"><ele>342.25</ele><time>2026-04-19T09:49:17Z</time></trkpt><trkpt lat="45.06914755419419" lon="7.532331392662707"><ele>343.0</ele><time>2026-04-19T09:49:18Z</time></trkpt><trkpt lat="45.06921579850818" lon="7.5321830071099365"><ele>344.25</ele><time>2026-04-19T09:49:19Z</time></trkpt><trkpt lat="45.06929064805215" lon="7.532022192414101"><ele>345.5</ele><time>2026-04-19T09:49:20Z</time></trkpt><trkpt lat="45.06936815265634" lon="7.531851534946136"><ele>346.75</ele><time>2026-04-19T09:49:21Z</time></trkpt><trkpt lat="45.069448084174404" lon="7.531671905995516"><ele>348.0</ele><time>2026-04-19T09:49:22Z</time></trkpt><trkpt lat="45.06952438237908" lon="7.531503800242371"><ele>348.0</ele><time>2026-04-19T09:49:23Z</time></trkpt><trkpt lat="45.06959580586778" lon="7.531364976640744"><ele>348.0</ele><time>2026-04-19T09:49:24Z</time></trkpt><trkpt lat="45.06965722132548" lon="7.531224837523611"><ele>348.0</ele><time>2026-04-19T09:49:25Z</time></trkpt><trkpt lat="45.069719238996925" lon="7.531083059422802"><ele>348.0</ele><time>2026-04-19T09:49:26Z</time></trkpt><trkpt lat="45.06978630426257" lon="7.53093959400535"><ele>348.5</ele><time>2026-04-19T09:49:27Z</time></trkpt><trkpt lat="45.069854057124395" lon="7.530796132536739"><ele>349.0</ele><time>2026-04-19T09:49:28Z</time></trkpt><trkpt lat="45.06991465584343" lon="7.530631334930902"><ele>349.5</ele><time>2026-04-19T09:49:29Z</time></trkpt><trkpt lat="45.06997729585288" lon="7.530440592204214"><ele>350.0</ele><time>2026-04-19T09:49:30Z</time></trkpt><trkpt lat="45.07006155385804" lon="7.530238788027656"><ele>351.0</ele><time>2026-04-19T09:49:31Z</time></trkpt><trkpt lat="45.07012902770254" lon="7.530050421353147"><ele>352.0</ele><time>2026-04-19T09:49:32Z</time></trkpt><trkpt lat="45.070189642635306" lon="7.529879025849462"><ele>353.0</ele><time>2026-04-19T09:49:33Z</time></trkpt><trkpt lat="45.070243783552826" lon="7.529720970730859"><ele>354.0</ele><time>2026-04-19T09:49:34Z</time></trkpt><trkpt lat="45.07029267380942" lon="7.529578243813655"><ele>354.0</ele><time>2026-04-19T09:49:35Z</time></trkpt><trkpt lat="45.07031908121418" lon="7.529449023504997"><ele>354.0</ele><time>2026-04-19T09:49:36Z</time></trkpt><trkpt lat="45.07035927630967" lon="7.529338698472987"><ele>354.0</ele><time>2026-04-19T09:49:37Z</time></trkpt><trkpt lat="45.07038948689298" lon="7.529255766357281"><ele>354.0</ele><time>2026-04-19T09:49:38Z</time></trkpt><trkpt lat="45.07043110463245" lon="7.529147951112302"><ele>354.0</ele><time>2026-04-19T09:49:40Z</time></trkpt><trkpt lat="45.070460074167435" lon="7.529059607357844"><ele>354.0</ele><time>2026-04-19T09:49:43Z</time></trkpt><trkpt lat="45.070527642855716" lon="7.528931251492409"><ele>354.0</ele><time>2026-04-19T09:50:47Z</time></trkpt><trkpt lat="45.07056613765539" lon="7.52885426129616"><ele>354.0</ele><time>2026-04-19T09:50:48Z</time></trkpt><trkpt lat="45.07061320013193" lon="7.528785672487859"><ele>354.0</ele><time>2026-04-19T09:50:49Z</time></trkpt><trkpt lat="45.07066842114716" lon="7.528707493554001"><ele>354.0</ele><time>2026-04-19T09:50:50Z</time></trkpt><trkpt lat="45.07072559425794" lon="7.528626551016306"><ele>354.0</ele><time>2026-04-19T09:50:51Z</time></trkpt><trkpt lat="45.07073061454427" lon="7.528476016179019"><ele>354.0</ele><time>2026-04-19T09:50:52Z</time></trkpt><trkpt lat="45.07073082112075" lon="7.528322348127593"><ele>354.25</ele><time>2026-04-19T09:50:53Z</time></trkpt><trkpt lat="45.07070929086057" lon="7.528137786544698"><ele>354.5</ele><time>2026-04-19T09:50:54Z</time></trkpt><trkpt lat="45.07069415512701" lon="7.527947877678377"><ele>354.75</ele><time>2026-04-19T09:50:55Z</time></trkpt><trkpt lat="45.070691425868915" lon="7.52773199488102"><ele>355.0</ele><time>2026-04-19T09:50:56Z</time></trkpt><trkpt lat="45.070681660952566" lon="7.527477586788275"><ele>355.3333333333333</ele><time>2026-04-19T09:50:57Z</time></trkpt><trkpt lat="45.07066906602004" lon="7.527192613614402"><ele>355.6666666666667</ele><time>2026-04-19T09:50:58Z</time></trkpt><trkpt lat="45.07066366134151" lon="7.526905212756782"><ele>356.0</ele><time>2026-04-19T09:50:59Z</time></trkpt><trkpt lat="45.07065160299935" lon="7.526588320411997"><ele>356.0</ele><time>2026-04-19T09:51:00Z</time></trkpt><trkpt lat="45.070637284244484" lon="7.526246074231182"><ele>356.0</ele><time>2026-04-19T09:51:01Z</time></trkpt><trkpt lat="45.07062324943547" lon="7.52589738694862"><ele>356.6666666666667</ele><time>2026-04-19T09:51:02Z</time></trkpt><trkpt lat="45.070614364342426" lon="7.525594709107534"><ele>357.3333333333333</ele><time>2026-04-19T09:51:03Z</time></trkpt><trkpt lat="45.070600220706304" lon="7.525315539876777"><ele>358.0</ele><time>2026-04-19T09:51:04Z</time></trkpt><trkpt lat="45.07058678218607" lon="7.5250396184154775"><ele>358.3333333333333</ele><time>2026-04-19T09:51:05Z</time></trkpt><trkpt lat="45.0705696095638" lon="7.52476233403787"><ele>358.6666666666667</ele><time>2026-04-19T09:51:06Z</time></trkpt><trkpt lat="45.070550266550704" lon="7.524517139945746"><ele>359.0</ele><time>2026-04-19T09:51:07Z</time></trkpt><trkpt lat="45.07053615119972" lon="7.524289383012206"><ele>359.0</ele><time>2026-04-19T09:51:08Z</time></trkpt><trkpt lat="45.070526080312305" lon="7.524074769293105"><ele>359.0</ele><time>2026-04-19T09:51:09Z</time></trkpt><trkpt lat="45.07051573478877" lon="7.523855040347319"><ele>359.0</ele><time>2026-04-19T09:51:10Z</time></trkpt><trkpt lat="45.07050391275728" lon="7.523610348622093"><ele>359.0</ele><time>2026-04-19T09:51:11Z</time></trkpt><trkpt lat="45.07048978882031" lon="7.523375748466545"><ele>359.0</ele><time>2026-04-19T09:51:12Z</time></trkpt><trkpt lat="45.070480761442255" lon="7.523162276655978"><ele>359.0</ele><time>2026-04-19T09:51:13Z</time></trkpt><trkpt lat="45.07047519790345" lon="7.522970031586904"><ele>359.0</ele><time>2026-04-19T09:51:14Z</time></trkpt><trkpt lat="45.070468624345594" lon="7.522791797846471"><ele>359.0</ele><time>2026-04-19T09:51:15Z</time></trkpt><trkpt lat="45.07046408434143" lon="7.522634484240083"><ele>359.0</ele><time>2026-04-19T09:51:16Z</time></trkpt><trkpt lat="45.070457831692735" lon="7.5224908539147375"><ele>359.0</ele><time>2026-04-19T09:51:17Z</time></trkpt><trkpt lat="45.07045639334362" lon="7.522367743033674"><ele>359.0</ele><time>2026-04-19T09:51:18Z</time></trkpt><trkpt lat="45.070457591213106" lon="7.5222610055523775"><ele>359.0</ele><time>2026-04-19T09:51:19Z</time></trkpt><trkpt lat="45.07045972271918" lon="7.522127399334688"><ele>359.0</ele><time>2026-04-19T09:51:21Z</time></trkpt><trkpt lat="45.070458466253825" lon="7.522010967117019"><ele>359.0</ele><time>2026-04-19T09:51:23Z</time></trkpt><trkpt lat="45.07047614655892" lon="7.521878039314595"><ele>359.0</ele><time>2026-04-19T09:51:26Z</time></trkpt><trkpt lat="45.070539619741744" lon="7.521825128118091"><ele>359.0</ele><time>2026-04-19T09:51:28Z</time></trkpt><trkpt lat="45.07058897567977" lon="7.521744753788404"><ele>359.0</ele><time>2026-04-19T09:51:39Z</time></trkpt><trkpt lat="45.07075427783861" lon="7.521863515211008"><ele>358.2</ele><time>2026-04-19T09:51:40Z</time></trkpt><trkpt lat="45.07082208914418" lon="7.521856975130518"><ele>357.4</ele><time>2026-04-19T09:51:42Z</time></trkpt><trkpt lat="45.0709020521501" lon="7.521836517103476"><ele>356.6</ele><time>2026-04-19T09:51:44Z</time></trkpt><trkpt lat="45.07098370352136" lon="7.5217926512803714"><ele>355.8</ele><time>2026-04-19T09:51:46Z</time></trkpt><trkpt lat="45.07107588860354" lon="7.521687044701833"><ele>355.0</ele><time>2026-04-19T09:51:48Z</time></trkpt><trkpt lat="45.07114850922587" lon="7.521531121081437"><ele>355.0</ele><time>2026-04-19T09:51:50Z</time></trkpt><trkpt lat="45.07118453023988" lon="7.5214425327538486"><ele>355.0</ele><time>2026-04-19T09:51:51Z</time></trkpt><trkpt lat="45.071219963433336" lon="7.5213462062328675"><ele>355.0</ele><time>2026-04-19T09:51:52Z</time></trkpt><trkpt lat="45.07126282133671" lon="7.521253539640097"><ele>355.0</ele><time>2026-04-19T09:51:53Z</time></trkpt><trkpt lat="45.07130789867979" lon="7.521174537116232"><ele>355.0</ele><time>2026-04-19T09:51:54Z</time></trkpt><trkpt lat="45.07133510964356" lon="7.521086884236634"><ele>355.0</ele><time>2026-04-19T09:51:55Z</time></trkpt><trkpt lat="45.07139300391495" lon="7.520940161627446"><ele>355.16666666666663</ele><time>2026-04-19T09:51:57Z</time></trkpt><trkpt lat="45.071425441285186" lon="7.520855835125503"><ele>355.3333333333333</ele><time>2026-04-19T09:51:58Z</time></trkpt><trkpt lat="45.0714586803795" lon="7.520759909024115"><ele>355.5</ele><time>2026-04-19T09:51:59Z</time></trkpt><trkpt lat="45.071494070551395" lon="7.520665987528155"><ele>355.6666666666667</ele><time>2026-04-19T09:52:00Z</time></trkpt><trkpt lat="45.07152856017198" lon="7.520566954248139"><ele>355.83333333333337</ele><time>2026-04-19T09:52:01Z</time></trkpt><trkpt lat="45.07156164846201" lon="7.520464945643384"><ele>356.0</ele><time>2026-04-19T09:52:02Z</time></trkpt><trkpt lat="45.07159727822053" lon="7.5203616190751195"><ele>356.33333333333337</ele><time>2026-04-19T09:52:03Z</time></trkpt><trkpt lat="45.07161345773037" lon="7.520242388324389"><ele>356.6666666666667</ele><time>2026-04-19T09:52:04Z</time></trkpt><trkpt lat="45.0716287990542" lon="7.5201247427121585"><ele>357.0</ele><time>2026-04-19T09:52:05Z</time></trkpt><trkpt lat="45.071637347059166" lon="7.520019963359771"><ele>357.3333333333333</ele><time>2026-04-19T09:52:06Z</time></trkpt><trkpt lat="45.07166826912623" lon="7.519936633146142"><ele>357.66666666666663</ele><time>2026-04-19T09:52:07Z</time></trkpt><trkpt lat="45.07172788378048" lon="7.519838281401883"><ele>358.0</ele><time>2026-04-19T09:52:09Z</time></trkpt><trkpt lat="45.07183190785741" lon="7.519845190965606"><ele>358.0</ele><time>2026-04-19T09:52:11Z</time></trkpt><trkpt lat="45.071954111464784" lon="7.51983396883975"><ele>358.0</ele><time>2026-04-19T09:52:13Z</time></trkpt><trkpt lat="45.07208319050459" lon="7.519829196502804"><ele>358.0</ele><time>2026-04-19T09:52:15Z</time></trkpt><trkpt lat="45.0721620732266" lon="7.519829616744123"><ele>358.0</ele><time>2026-04-19T09:52:16Z</time></trkpt><trkpt lat="45.07224101183177" lon="7.5198301852714104"><ele>358.0</ele><time>2026-04-19T09:52:17Z</time></trkpt><trkpt lat="45.07236712078854" lon="7.519815156505907"><ele>358.0</ele><time>2026-04-19T09:52:19Z</time></trkpt><trkpt lat="45.07243424518575" lon="7.519812533032969"><ele>358.0</ele><time>2026-04-19T09:52:20Z</time></trkpt><trkpt lat="45.07250241403551" lon="7.519814048639489"><ele>358.0</ele><time>2026-04-19T09:52:21Z</time></trkpt><trkpt lat="45.072577337662445" lon="7.5198113015085974"><ele>358.0</ele><time>2026-04-19T09:52:22Z</time></trkpt><trkpt lat="45.072656923512355" lon="7.5198112186675745"><ele>358.0</ele><time>2026-04-19T09:52:23Z</time></trkpt><trkpt lat="45.07273447408732" lon="7.519813829848129"><ele>358.0</ele><time>2026-04-19T09:52:24Z</time></trkpt><trkpt lat="45.07282082909024" lon="7.5198141651241555"><ele>357.79999999999995</ele><time>2026-04-19T09:52:25Z</time></trkpt><trkpt lat="45.072901757695746" lon="7.519816646084013"><ele>357.6</ele><time>2026-04-19T09:52:26Z</time></trkpt><trkpt lat="45.072971285182895" lon="7.519818609221877"><ele>357.4</ele><time>2026-04-19T09:52:27Z</time></trkpt><trkpt lat="45.0730858798579" lon="7.51982185929851"><ele>357.20000000000005</ele><time>2026-04-19T09:52:29Z</time></trkpt><trkpt lat="45.07322625851839" lon="7.519823298866944"><ele>357.0</ele><time>2026-04-19T09:52:31Z</time></trkpt><trkpt lat="45.073314917840335" lon="7.51981884382405"><ele>357.0</ele><time>2026-04-19T09:52:32Z</time></trkpt><trkpt lat="45.07342346922321" lon="7.51981067029191"><ele>357.0</ele><time>2026-04-19T09:52:33Z</time></trkpt><trkpt lat="45.073538911984635" lon="7.5198112425782355"><ele>357.0</ele><time>2026-04-19T09:52:34Z</time></trkpt><trkpt lat="45.07365401385809" lon="7.519812206872848"><ele>357.0</ele><time>2026-04-19T09:52:35Z</time></trkpt><trkpt lat="45.073771486737364" lon="7.51981128632322"><ele>357.0</ele><time>2026-04-19T09:52:36Z</time></trkpt><trkpt lat="45.07388833303224" lon="7.519810566004992"><ele>357.0</ele><time>2026-04-19T09:52:37Z</time></trkpt><trkpt lat="45.07399349964358" lon="7.519812363041353"><ele>357.0</ele><time>2026-04-19T09:52:38Z</time></trkpt><trkpt lat="45.074093389770496" lon="7.519812118410086"><ele>357.0</ele><time>2026-04-19T09:52:39Z</time></trkpt><trkpt lat="45.074195830659185" lon="7.519812790480324"><ele>357.0</ele><time>2026-04-19T09:52:40Z</time></trkpt><trkpt lat="45.07429625886111" lon="7.519806503309942"><ele>356.6</ele><time>2026-04-19T09:52:41Z</time></trkpt><trkpt lat="45.07439119103309" lon="7.519831744239395"><ele>356.20000000000005</ele><time>2026-04-19T09:52:42Z</time></trkpt><trkpt lat="45.074483573448255" lon="7.519807818268773"><ele>355.8</ele><time>2026-04-19T09:52:43Z</time></trkpt><trkpt lat="45.0745708245788" lon="7.519829561241131"><ele>355.4</ele><time>2026-04-19T09:52:44Z</time></trkpt><trkpt lat="45.07465589604815" lon="7.519828527408927"><ele>355.0</ele><time>2026-04-19T09:52:45Z</time></trkpt><trkpt lat="45.07475136097746" lon="7.519827367271482"><ele>355.0</ele><time>2026-04-19T09:52:46Z</time></trkpt><trkpt lat="45.07483950816426" lon="7.519826296062232"><ele>355.0</ele><time>2026-04-19T09:52:47Z</time></trkpt><trkpt lat="45.07492220435937" lon="7.51982529109556"><ele>355.0</ele><time>2026-04-19T09:52:48Z</time></trkpt><trkpt lat="45.075006202624785" lon="7.519802971220051"><ele>355.0</ele><time>2026-04-19T09:52:49Z</time></trkpt><trkpt lat="45.07508479886996" lon="7.519804070955746"><ele>355.0</ele><time>2026-04-19T09:52:50Z</time></trkpt><trkpt lat="45.075159786264656" lon="7.519799183461356"><ele>355.0</ele><time>2026-04-19T09:52:51Z</time></trkpt><trkpt lat="45.0752343674059" lon="7.519808181851259"><ele>354.66666666666663</ele><time>2026-04-19T09:52:52Z</time></trkpt><trkpt lat="45.075313734329384" lon="7.519801512980378"><ele>354.3333333333333</ele><time>2026-04-19T09:52:53Z</time></trkpt><trkpt lat="45.075395803706854" lon="7.519800596252671"><ele>354.0</ele><time>2026-04-19T09:52:54Z</time></trkpt><trkpt lat="45.075478345002104" lon="7.519819974256177"><ele>353.6666666666667</ele><time>2026-04-19T09:52:55Z</time></trkpt><trkpt lat="45.0755530086927" lon="7.519866502966244"><ele>353.33333333333337</ele><time>2026-04-19T09:52:56Z</time></trkpt><trkpt lat="45.07563105679393" lon="7.519928909242552"><ele>353.0</ele><time>2026-04-19T09:52:57Z</time></trkpt><trkpt lat="45.07571790136407" lon="7.51994089918575"><ele>352.79999999999995</ele><time>2026-04-19T09:52:58Z</time></trkpt><trkpt lat="45.07580331568119" lon="7.519864438993634"><ele>352.6</ele><time>2026-04-19T09:52:59Z</time></trkpt><trkpt lat="45.07584998431617" lon="7.519727149149992"><ele>352.4</ele><time>2026-04-19T09:53:00Z</time></trkpt><trkpt lat="45.07585886233084" lon="7.519574233053218"><ele>352.20000000000005</ele><time>2026-04-19T09:53:01Z</time></trkpt><trkpt lat="45.075886028038845" lon="7.519437935139575"><ele>352.0</ele><time>2026-04-19T09:53:02Z</time></trkpt><trkpt lat="45.07593380627443" lon="7.5193346695014665"><ele>352.0</ele><time>2026-04-19T09:53:03Z</time></trkpt><trkpt lat="45.07598301729914" lon="7.519246102339433"><ele>352.0</ele><time>2026-04-19T09:53:04Z</time></trkpt><trkpt lat="45.076028165687596" lon="7.519153717081874"><ele>352.0</ele><time>2026-04-19T09:53:05Z</time></trkpt><trkpt lat="45.07607316546037" lon="7.51905783578869"><ele>352.0</ele><time>2026-04-19T09:53:06Z</time></trkpt><trkpt lat="45.07611621670385" lon="7.518964861042446"><ele>352.0</ele><time>2026-04-19T09:53:07Z</time></trkpt><trkpt lat="45.076164865737915" lon="7.518855019822863"><ele>352.0</ele><time>2026-04-19T09:53:08Z</time></trkpt><trkpt lat="45.076227786493384" lon="7.5187384087524185"><ele>352.25</ele><time>2026-04-19T09:53:09Z</time></trkpt><trkpt lat="45.076271527552294" lon="7.5185777061170596"><ele>352.5</ele><time>2026-04-19T09:53:10Z</time></trkpt><trkpt lat="45.07633416821397" lon="7.518411331652531"><ele>352.75</ele><time>2026-04-19T09:53:11Z</time></trkpt><trkpt lat="45.076408530350975" lon="7.518229596776464"><ele>353.0</ele><time>2026-04-19T09:53:12Z</time></trkpt><trkpt lat="45.076490389526" lon="7.5180371736672775"><ele>353.6666666666667</ele><time>2026-04-19T09:53:13Z</time></trkpt><trkpt lat="45.07655883452149" lon="7.5178425066206955"><ele>354.3333333333333</ele><time>2026-04-19T09:53:14Z</time></trkpt><trkpt lat="45.07662946539802" lon="7.517645206123214"><ele>355.0</ele><time>2026-04-19T09:53:15Z</time></trkpt><trkpt lat="45.07670596736568" lon="7.517450359953913"><ele>355.0</ele><time>2026-04-19T09:53:16Z</time></trkpt><trkpt lat="45.0767785974744" lon="7.517254734055664"><ele>355.0</ele><time>2026-04-19T09:53:17Z</time></trkpt><trkpt lat="45.07685007296216" lon="7.51707885878007"><ele>355.0</ele><time>2026-04-19T09:53:18Z</time></trkpt><trkpt lat="45.07690716853775" lon="7.516911790246023"><ele>355.0</ele><time>2026-04-19T09:53:19Z</time></trkpt><trkpt lat="45.076961859006396" lon="7.516756368334755"><ele>355.0</ele><time>2026-04-19T09:53:20Z</time></trkpt><trkpt lat="45.07701745326856" lon="7.516607212705618"><ele>355.0</ele><time>2026-04-19T09:53:21Z</time></trkpt><trkpt lat="45.077072798721815" lon="7.51645318406995"><ele>355.0</ele><time>2026-04-19T09:53:22Z</time></trkpt><trkpt lat="45.077128174713394" lon="7.516295877193931"><ele>355.0</ele><time>2026-04-19T09:53:23Z</time></trkpt><trkpt lat="45.077182967515085" lon="7.516151175849005"><ele>354.6</ele><time>2026-04-19T09:53:24Z</time></trkpt><trkpt lat="45.077231196395694" lon="7.516025276001399"><ele>354.2</ele><time>2026-04-19T09:53:25Z</time></trkpt><trkpt lat="45.077276196722885" lon="7.515910110748518"><ele>353.79999999999995</ele><time>2026-04-19T09:53:26Z</time></trkpt><trkpt lat="45.07732033008604" lon="7.515817011342328"><ele>353.4</ele><time>2026-04-19T09:53:27Z</time></trkpt><trkpt lat="45.07739201123788" lon="7.51576456322797"><ele>353.0</ele><time>2026-04-19T09:53:30Z</time></trkpt><trkpt lat="45.07749255432926" lon="7.515729833110271"><ele>353.0</ele><time>2026-04-19T09:53:32Z</time></trkpt><trkpt lat="45.077554438627246" lon="7.515655573589392"><ele>353.0</ele><time>2026-04-19T09:53:33Z</time></trkpt><trkpt lat="45.07761191948194" lon="7.515562384192676"><ele>353.0</ele><time>2026-04-19T09:53:34Z</time></trkpt><trkpt lat="45.077592547016664" lon="7.515397014547495"><ele>353.0</ele><time>2026-04-19T09:53:35Z</time></trkpt><trkpt lat="45.077606906185544" lon="7.515228957010367"><ele>353.0</ele><time>2026-04-19T09:53:36Z</time></trkpt><trkpt lat="45.07764543946064" lon="7.515054898682245"><ele>353.0</ele><time>2026-04-19T09:53:37Z</time></trkpt><trkpt lat="45.077689491952995" lon="7.51489484480808"><ele>353.0</ele><time>2026-04-19T09:53:38Z</time></trkpt><trkpt lat="45.07773907608037" lon="7.5147632124640324"><ele>353.0</ele><time>2026-04-19T09:53:39Z</time></trkpt><trkpt lat="45.07778840807411" lon="7.514647991441733"><ele>353.0</ele><time>2026-04-19T09:53:40Z</time></trkpt><trkpt lat="45.07783191990057" lon="7.514540464215779"><ele>353.0</ele><time>2026-04-19T09:53:41Z</time></trkpt><trkpt lat="45.07788142425623" lon="7.5144503194438"><ele>353.0</ele><time>2026-04-19T09:53:42Z</time></trkpt><trkpt lat="45.077935503132146" lon="7.51438813135167"><ele>353.0</ele><time>2026-04-19T09:53:43Z</time></trkpt><trkpt lat="45.07799451750676" lon="7.514338821473115"><ele>353.0</ele><time>2026-04-19T09:53:44Z</time></trkpt><trkpt lat="45.07804539788064" lon="7.514281979776195"><ele>353.0</ele><time>2026-04-19T09:53:45Z</time></trkpt><trkpt lat="45.078060315894916" lon="7.514101182206413"><ele>353.0</ele><time>2026-04-19T09:53:47Z</time></trkpt><trkpt lat="45.07804862012491" lon="7.513999072697652"><ele>353.0</ele><time>2026-04-19T09:53:48Z</time></trkpt><trkpt lat="45.078057858091896" lon="7.513895190216886"><ele>353.0</ele><time>2026-04-19T09:53:49Z</time></trkpt><trkpt lat="45.07808585132419" lon="7.513788723708629"><ele>353.0</ele><time>2026-04-19T09:53:50Z</time></trkpt><trkpt lat="45.07812256051399" lon="7.513665443180601"><ele>353.0</ele><time>2026-04-19T09:53:51Z</time></trkpt><trkpt lat="45.078171959780995" lon="7.513517641846729"><ele>353.0</ele><time>2026-04-19T09:53:52Z</time></trkpt><trkpt lat="45.07822981745193" lon="7.513358850976802"><ele>353.0</ele><time>2026-04-19T09:53:53Z</time></trkpt><trkpt lat="45.07829659756496" lon="7.513182354903253"><ele>353.0</ele><time>2026-04-19T09:53:54Z</time></trkpt><trkpt lat="45.078364161620435" lon="7.513008553257301"><ele>353.0</ele><time>2026-04-19T09:53:55Z</time></trkpt><trkpt lat="45.07842059159121" lon="7.5128610321287015"><ele>353.0</ele><time>2026-04-19T09:53:56Z</time></trkpt><trkpt lat="45.07847326500421" lon="7.5127253040072"><ele>353.0</ele><time>2026-04-19T09:53:57Z</time></trkpt><trkpt lat="45.07851806597694" lon="7.5126050165730245"><ele>353.0</ele><time>2026-04-19T09:53:58Z</time></trkpt><trkpt lat="45.0785549278968" lon="7.512504917038792"><ele>353.0</ele><time>2026-04-19T09:53:59Z</time></trkpt><trkpt lat="45.07859184579429" lon="7.512425741815621"><ele>353.0</ele><time>2026-04-19T09:54:01Z</time></trkpt><trkpt lat="45.078661178084054" lon="7.512324376969462"><ele>353.0</ele><time>2026-04-19T09:54:04Z</time></trkpt><trkpt lat="45.078717974122775" lon="7.512206911260074"><ele>353.0</ele><time>2026-04-19T09:54:06Z</time></trkpt><trkpt lat="45.07875016462705" lon="7.5120092893449195"><ele>353.0</ele><time>2026-04-19T09:54:08Z</time></trkpt><trkpt lat="45.07878340838698" lon="7.511891647428387"><ele>353.0</ele><time>2026-04-19T09:54:09Z</time></trkpt><trkpt lat="45.07882897858246" lon="7.511771460880406"><ele>353.0</ele><time>2026-04-19T09:54:10Z</time></trkpt><trkpt lat="45.078878858576985" lon="7.511624144208476"><ele>353.0</ele><time>2026-04-19T09:54:11Z</time></trkpt><trkpt lat="45.078943332852326" lon="7.511443282550512"><ele>353.0</ele><time>2026-04-19T09:54:12Z</time></trkpt><trkpt lat="45.07901976744126" lon="7.5112336522936545"><ele>353.0</ele><time>2026-04-19T09:54:13Z</time></trkpt><trkpt lat="45.07909840689729" lon="7.511029092833073"><ele>353.0</ele><time>2026-04-19T09:54:14Z</time></trkpt><trkpt lat="45.07917649889285" lon="7.51083368007619"><ele>353.0</ele><time>2026-04-19T09:54:15Z</time></trkpt><trkpt lat="45.079246361860335" lon="7.510653328507693"><ele>353.0</ele><time>2026-04-19T09:54:16Z</time></trkpt><trkpt lat="45.07930435873271" lon="7.510498437171135"><ele>353.0</ele><time>2026-04-19T09:54:17Z</time></trkpt><trkpt lat="45.07936379096257" lon="7.510347206689006"><ele>353.0</ele><time>2026-04-19T09:54:18Z</time></trkpt><trkpt lat="45.0794175967286" lon="7.5102032204038265"><ele>353.0</ele><time>2026-04-19T09:54:19Z</time></trkpt><trkpt lat="45.079466337142335" lon="7.5100640596242085"><ele>353.2</ele><time>2026-04-19T09:54:20Z</time></trkpt><trkpt lat="45.07951625987035" lon="7.509933097058749"><ele>353.4</ele><time>2026-04-19T09:54:21Z</time></trkpt><trkpt lat="45.079564739981805" lon="7.509800194393115"><ele>353.59999999999997</ele><time>2026-04-19T09:54:22Z</time></trkpt><trkpt lat="45.07961447732789" lon="7.50966214074516"><ele>353.79999999999995</ele><time>2026-04-19T09:54:23Z</time></trkpt><trkpt lat="45.079665272904364" lon="7.50952876470043"><ele>354.0</ele><time>2026-04-19T09:54:24Z</time></trkpt><trkpt lat="45.07971232330452" lon="7.509401941759404"><ele>354.2</ele><time>2026-04-19T09:54:25Z</time></trkpt><trkpt lat="45.079761604040954" lon="7.509271305333232"><ele>354.4</ele><time>2026-04-19T09:54:26Z</time></trkpt><trkpt lat="45.079805126851255" lon="7.5091538252928025"><ele>354.6</ele><time>2026-04-19T09:54:27Z</time></trkpt><trkpt lat="45.07984762419932" lon="7.509040072121942"><ele>354.8</ele><time>2026-04-19T09:54:28Z</time></trkpt><trkpt lat="45.079886262532874" lon="7.508929884154791"><ele>355.0</ele><time>2026-04-19T09:54:29Z</time></trkpt><trkpt lat="45.07992140603162" lon="7.508837404946453"><ele>355.0</ele><time>2026-04-19T09:54:30Z</time></trkpt><trkpt lat="45.079954774876185" lon="7.508745705585926"><ele>355.0</ele><time>2026-04-19T09:54:31Z</time></trkpt><trkpt lat="45.079987395493006" lon="7.50866252692739"><ele>355.0</ele><time>2026-04-19T09:54:32Z</time></trkpt><trkpt lat="45.080021656303174" lon="7.50857939955446"><ele>355.0</ele><time>2026-04-19T09:54:33Z</time></trkpt><trkpt lat="45.08005324556723" lon="7.508500008010971"><ele>355.0</ele><time>2026-04-19T09:54:34Z</time></trkpt><trkpt lat="45.08011397881552" lon="7.508353558233162"><ele>355.0</ele><time>2026-04-19T09:54:36Z</time></trkpt><trkpt lat="45.08015982502831" lon="7.508272267228303"><ele>355.16666666666663</ele><time>2026-04-19T09:54:37Z</time></trkpt><trkpt lat="45.08020193361678" lon="7.508187003400527"><ele>355.3333333333333</ele><time>2026-04-19T09:54:38Z</time></trkpt><trkpt lat="45.080230075528306" lon="7.5080785080998576"><ele>355.5</ele><time>2026-04-19T09:54:39Z</time></trkpt><trkpt lat="45.08026792560706" lon="7.507968116057359"><ele>355.6666666666667</ele><time>2026-04-19T09:54:40Z</time></trkpt><trkpt lat="45.08031735970487" lon="7.507849123210118"><ele>355.83333333333337</ele><time>2026-04-19T09:54:41Z</time></trkpt><trkpt lat="45.080370345425" lon="7.507713676009878"><ele>356.0</ele><time>2026-04-19T09:54:42Z</time></trkpt><trkpt lat="45.080423965970134" lon="7.507559800271426"><ele>356.0</ele><time>2026-04-19T09:54:43Z</time></trkpt><trkpt lat="45.08048334023813" lon="7.5073990252271585"><ele>356.0</ele><time>2026-04-19T09:54:44Z</time></trkpt><trkpt lat="45.08054608923999" lon="7.507229874779295"><ele>356.0</ele><time>2026-04-19T09:54:45Z</time></trkpt><trkpt lat="45.080608511295516" lon="7.507055852730706"><ele>356.0</ele><time>2026-04-19T09:54:46Z</time></trkpt><trkpt lat="45.080673059418665" lon="7.506882805264629"><ele>355.75</ele><time>2026-04-19T09:54:47Z</time></trkpt><trkpt lat="45.0807363963844" lon="7.506728192040626"><ele>355.5</ele><time>2026-04-19T09:54:48Z</time></trkpt><trkpt lat="45.08078706823243" lon="7.506583627021258"><ele>355.25</ele><time>2026-04-19T09:54:49Z</time></trkpt><trkpt lat="45.080841068729214" lon="7.506440441055777"><ele>355.0</ele><time>2026-04-19T09:54:50Z</time></trkpt><trkpt lat="45.08089540549112" lon="7.506288733596951"><ele>356.0</ele><time>2026-04-19T09:54:51Z</time></trkpt><trkpt lat="45.08094898394951" lon="7.506140690617511"><ele>357.0</ele><time>2026-04-19T09:54:52Z</time></trkpt><trkpt lat="45.081006445648306" lon="7.505998612019139"><ele>358.0</ele><time>2026-04-19T09:54:53Z</time></trkpt><trkpt lat="45.081063399645856" lon="7.505872619628085"><ele>359.0</ele><time>2026-04-19T09:54:54Z</time></trkpt><trkpt lat="45.08111800001397" lon="7.50575843904746"><ele>360.0</ele><time>2026-04-19T09:54:55Z</time></trkpt><trkpt lat="45.08117238816291" lon="7.505660237935272"><ele>360.0</ele><time>2026-04-19T09:54:56Z</time></trkpt><trkpt lat="45.08122940429872" lon="7.505580671437713"><ele>360.0</ele><time>2026-04-19T09:54:57Z</time></trkpt><trkpt lat="45.08128742348919" lon="7.505522078068632"><ele>360.0</ele><time>2026-04-19T09:54:58Z</time></trkpt><trkpt lat="45.08134009976701" lon="7.505430462947689"><ele>360.0</ele><time>2026-04-19T09:54:59Z</time></trkpt><trkpt lat="45.08136815892772" lon="7.505282117728573"><ele>360.0</ele><time>2026-04-19T09:55:00Z</time></trkpt><trkpt lat="45.081368740016686" lon="7.5050974538933195"><ele>360.0</ele><time>2026-04-19T09:55:01Z</time></trkpt><trkpt lat="45.08140864544445" lon="7.5048986860535"><ele>360.0</ele><time>2026-04-19T09:55:02Z</time></trkpt><trkpt lat="45.08147622842733" lon="7.504707002077564"><ele>360.0</ele><time>2026-04-19T09:55:03Z</time></trkpt><trkpt lat="45.08154495873778" lon="7.5045097908286795"><ele>359.6666666666667</ele><time>2026-04-19T09:55:04Z</time></trkpt><trkpt lat="45.08162538244073" lon="7.504313928589262"><ele>359.33333333333337</ele><time>2026-04-19T09:55:05Z</time></trkpt><trkpt lat="45.08168990840467" lon="7.5041013362056885"><ele>359.0</ele><time>2026-04-19T09:55:06Z</time></trkpt><trkpt lat="45.081770843588416" lon="7.503876722171365"><ele>359.33333333333337</ele><time>2026-04-19T09:55:07Z</time></trkpt><trkpt lat="45.081864498270356" lon="7.50364331649315"><ele>359.6666666666667</ele><time>2026-04-19T09:55:08Z</time></trkpt><trkpt lat="45.081957421780864" lon="7.5034147965140345"><ele>360.0</ele><time>2026-04-19T09:55:09Z</time></trkpt><trkpt lat="45.08203821914967" lon="7.5032035680310925"><ele>360.0</ele><time>2026-04-19T09:55:10Z</time></trkpt><trkpt lat="45.08211987904045" lon="7.502999723579614"><ele>360.0</ele><time>2026-04-19T09:55:11Z</time></trkpt><trkpt lat="45.08220412146581" lon="7.502799582467456"><ele>360.0</ele><time>2026-04-19T09:55:12Z</time></trkpt><trkpt lat="45.08227971052335" lon="7.502604052365879"><ele>360.25</ele><time>2026-04-19T09:55:13Z</time></trkpt><trkpt lat="45.082345961667485" lon="7.5024206163111"><ele>360.5</ele><time>2026-04-19T09:55:14Z</time></trkpt><trkpt lat="45.0824098918992" lon="7.502247723563476"><ele>360.75</ele><time>2026-04-19T09:55:15Z</time></trkpt><trkpt lat="45.082472328271535" lon="7.5020850911192545"><ele>361.0</ele><time>2026-04-19T09:55:16Z</time></trkpt><trkpt lat="45.08252769270681" lon="7.501945298446873"><ele>360.6</ele><time>2026-04-19T09:55:17Z</time></trkpt><trkpt lat="45.082568277922135" lon="7.501839099308641"><ele>360.20000000000005</ele><time>2026-04-19T09:55:18Z</time></trkpt><trkpt lat="45.08263426713972" lon="7.501704890835603"><ele>359.79999999999995</ele><time>2026-04-19T09:55:20Z</time></trkpt><trkpt lat="45.08271704182865" lon="7.501605672522916"><ele>359.4</ele><time>2026-04-19T09:55:22Z</time></trkpt><trkpt lat="45.08277526482451" lon="7.501453954695999"><ele>359.0</ele><time>2026-04-19T09:55:24Z</time></trkpt><trkpt lat="45.08279311342516" lon="7.501332368525357"><ele>359.0</ele><time>2026-04-19T09:55:25Z</time></trkpt><trkpt lat="45.0828133492403" lon="7.50117967931823"><ele>359.0</ele><time>2026-04-19T09:55:26Z</time></trkpt><trkpt lat="45.08286726950626" lon="7.501020753542843"><ele>359.0</ele><time>2026-04-19T09:55:27Z</time></trkpt><trkpt lat="45.08293442290902" lon="7.500852259222821"><ele>359.0</ele><time>2026-04-19T09:55:28Z</time></trkpt><trkpt lat="45.083008285572184" lon="7.500673583047916"><ele>359.0</ele><time>2026-04-19T09:55:29Z</time></trkpt><trkpt lat="45.08307184775766" lon="7.500509835474684"><ele>359.0</ele><time>2026-04-19T09:55:30Z</time></trkpt><trkpt lat="45.08312967340164" lon="7.500358547782845"><ele>359.0</ele><time>2026-04-19T09:55:31Z</time></trkpt><trkpt lat="45.083184818812356" lon="7.500217371016791"><ele>359.0</ele><time>2026-04-19T09:55:32Z</time></trkpt><trkpt lat="45.08323965122803" lon="7.50008988129472"><ele>359.0</ele><time>2026-04-19T09:55:33Z</time></trkpt><trkpt lat="45.08328904040136" lon="7.499968881298432"><ele>359.0</ele><time>2026-04-19T09:55:34Z</time></trkpt><trkpt lat="45.08332886256127" lon="7.499854012623533"><ele>359.0</ele><time>2026-04-19T09:55:35Z</time></trkpt><trkpt lat="45.08336518463554" lon="7.499748549839389"><ele>359.0</ele><time>2026-04-19T09:55:36Z</time></trkpt><trkpt lat="45.08339245271965" lon="7.499664275030551"><ele>359.0</ele><time>2026-04-19T09:55:37Z</time></trkpt><trkpt lat="45.083427093804474" lon="7.499559583822958"><ele>359.0</ele><time>2026-04-19T09:55:39Z</time></trkpt><trkpt lat="45.08348402875287" lon="7.499440181006932"><ele>359.0</ele><time>2026-04-19T09:55:47Z</time></trkpt><trkpt lat="45.083523193028135" lon="7.499332986605167"><ele>359.0</ele><time>2026-04-19T09:55:48Z</time></trkpt><trkpt lat="45.0835768449529" lon="7.49920032202181"><ele>359.0</ele><time>2026-04-19T09:55:49Z</time></trkpt><trkpt lat="45.0836345071847" lon="7.49905050737722"><ele>359.0</ele><time>2026-04-19T09:55:50Z</time></trkpt><trkpt lat="45.083695000281985" lon="7.498884190816201"><ele>359.0</ele><time>2026-04-19T09:55:51Z</time></trkpt><trkpt lat="45.08376329688417" lon="7.498696859017571"><ele>361.0</ele><time>2026-04-19T09:55:52Z</time></trkpt><trkpt lat="45.08384000730598" lon="7.498486721690934"><ele>363.0</ele><time>2026-04-19T09:55:53Z</time></trkpt><trkpt lat="45.08392553481176" lon="7.498246169131829"><ele>365.0</ele><time>2026-04-19T09:55:54Z</time></trkpt><trkpt lat="45.08402034119211" lon="7.497982696466566"><ele>361.5</ele><time>2026-04-19T09:55:55Z</time></trkpt><trkpt lat="45.08412485062787" lon="7.497692468556712"><ele>358.0</ele><time>2026-04-19T09:55:56Z</time></trkpt><trkpt lat="45.08422694844385" lon="7.497362410822617"><ele>359.0</ele><time>2026-04-19T09:55:57Z</time></trkpt><trkpt lat="45.084322558063484" lon="7.497017816917682"><ele>360.0</ele><time>2026-04-19T09:55:58Z</time></trkpt><trkpt lat="45.08439096152586" lon="7.496621443086794"><ele>358.5</ele><time>2026-04-19T09:55:59Z</time></trkpt><trkpt lat="45.084420355841246" lon="7.496199689374711"><ele>357.0</ele><time>2026-04-19T09:56:00Z</time></trkpt><trkpt lat="45.08443307450253" lon="7.4958017739365985"><ele>354.5</ele><time>2026-04-19T09:56:01Z</time></trkpt><trkpt lat="45.08443334716389" lon="7.495391165691526"><ele>352.0</ele><time>2026-04-19T09:56:02Z</time></trkpt><trkpt lat="45.084390662288925" lon="7.494973079802844"><ele>349.0</ele><time>2026-04-19T09:56:03Z</time></trkpt><trkpt lat="45.08431270769772" lon="7.494556397355589"><ele>346.0</ele><time>2026-04-19T09:56:04Z</time></trkpt><trkpt lat="45.08423263856092" lon="7.4941816307744356"><ele>346.0</ele><time>2026-04-19T09:56:05Z</time></trkpt><trkpt lat="45.08419293496304" lon="7.493809431767226"><ele>346.0</ele><time>2026-04-19T09:56:06Z</time></trkpt><trkpt lat="45.08420520003612" lon="7.4934280791872325"><ele>343.5</ele><time>2026-04-19T09:56:07Z</time></trkpt><trkpt lat="45.08427657401681" lon="7.493041729581089"><ele>341.0</ele><time>2026-04-19T09:56:08Z</time></trkpt><trkpt lat="45.08440413200898" lon="7.492653913814684"><ele>340.5</ele><time>2026-04-19T09:56:09Z</time></trkpt><trkpt lat="45.08458278891555" lon="7.492276585929336"><ele>340.0</ele><time>2026-04-19T09:56:10Z</time></trkpt><trkpt lat="45.08473574306237" lon="7.491854704012976"><ele>340.0</ele><time>2026-04-19T09:56:11Z</time></trkpt><trkpt lat="45.0848708790742" lon="7.491430809612754"><ele>340.0</ele><time>2026-04-19T09:56:12Z</time></trkpt><trkpt lat="45.084974671856784" lon="7.490968620943835"><ele>339.5</ele><time>2026-04-19T09:56:13Z</time></trkpt><trkpt lat="45.08507696066676" lon="7.490636611463744"><ele>339.0</ele><time>2026-04-19T09:56:14Z</time></trkpt><trkpt lat="45.08509104213354" lon="7.490217447429449"><ele>339.0</ele><time>2026-04-19T09:56:15Z</time></trkpt><trkpt lat="45.0850730242802" lon="7.489810041782009"><ele>339.0</ele><time>2026-04-19T09:56:16Z</time></trkpt><trkpt lat="45.08503415083626" lon="7.489427836193255"><ele>339.0</ele><time>2026-04-19T09:56:17Z</time></trkpt><trkpt lat="45.085009619682204" lon="7.489081471633285"><ele>339.0</ele><time>2026-04-19T09:56:18Z</time></trkpt><trkpt lat="45.08499870182293" lon="7.488753724404118"><ele>338.6666666666667</ele><time>2026-04-19T09:56:19Z</time></trkpt><trkpt lat="45.08499278639303" lon="7.488454899306658"><ele>338.33333333333337</ele><time>2026-04-19T09:56:20Z</time></trkpt><trkpt lat="45.084980580878174" lon="7.488166559758757"><ele>338.0</ele><time>2026-04-19T09:56:21Z</time></trkpt><trkpt lat="45.08497142708813" lon="7.487885689579629"><ele>337.33333333333337</ele><time>2026-04-19T09:56:22Z</time></trkpt><trkpt lat="45.08496159972955" lon="7.487595394498749"><ele>336.6666666666667</ele><time>2026-04-19T09:56:23Z</time></trkpt><trkpt lat="45.08495460075231" lon="7.4872902427507135"><ele>336.0</ele><time>2026-04-19T09:56:24Z</time></trkpt><trkpt lat="45.084945489349494" lon="7.486958290367408"><ele>336.0</ele><time>2026-04-19T09:56:25Z</time></trkpt><trkpt lat="45.08493284554194" lon="7.486578993427315"><ele>336.0</ele><time>2026-04-19T09:56:26Z</time></trkpt><trkpt lat="45.08492697446011" lon="7.486158616916501"><ele>335.5</ele><time>2026-04-19T09:56:27Z</time></trkpt><trkpt lat="45.08492312042192" lon="7.485750049998036"><ele>335.0</ele><time>2026-04-19T09:56:27.999Z</time></trkpt><trkpt lat="45.0849099311189" lon="7.485379255369268"><ele>335.0</ele><time>2026-04-19T09:56:28.999Z</time></trkpt><trkpt lat="45.08490588917347" lon="7.485048002316458"><ele>335.0</ele><time>2026-04-19T09:56:29.999Z</time></trkpt><trkpt lat="45.084895602157395" lon="7.484728839532296"><ele>334.6666666666667</ele><time>2026-04-19T09:56:30.999Z</time></trkpt><trkpt lat="45.08488675292005" lon="7.484443612273007"><ele>334.3333333333333</ele><time>2026-04-19T09:56:31.999Z</time></trkpt><trkpt lat="45.084872614757764" lon="7.484170646069827"><ele>334.0</ele><time>2026-04-19T09:56:32.999Z</time></trkpt><trkpt lat="45.08486063433028" lon="7.483916630826546"><ele>333.25</ele><time>2026-04-19T09:56:33.999Z</time></trkpt><trkpt lat="45.084854048927255" lon="7.483692495223549"><ele>332.5</ele><time>2026-04-19T09:56:34.999Z</time></trkpt><trkpt lat="45.08486276241471" lon="7.483496286298175"><ele>331.75</ele><time>2026-04-19T09:56:35.999Z</time></trkpt><trkpt lat="45.084859867566884" lon="7.4832938020869815"><ele>331.0</ele><time>2026-04-19T09:56:36.999Z</time></trkpt><trkpt lat="45.084858977582876" lon="7.48310134785326"><ele>330.75</ele><time>2026-04-19T09:56:37.999Z</time></trkpt><trkpt lat="45.084854683897305" lon="7.482915880199609"><ele>330.5</ele><time>2026-04-19T09:56:38.999Z</time></trkpt><trkpt lat="45.08485290113795" lon="7.482729380287933"><ele>330.25</ele><time>2026-04-19T09:56:39.999Z</time></trkpt><trkpt lat="45.08486130196875" lon="7.482540408083391"><ele>330.0</ele><time>2026-04-19T09:56:40.999Z</time></trkpt><trkpt lat="45.08488640861646" lon="7.482366436101538"><ele>330.0</ele><time>2026-04-19T09:56:41.999Z</time></trkpt><trkpt lat="45.084930307533256" lon="7.4822144647075435"><ele>330.0</ele><time>2026-04-19T09:56:42.999Z</time></trkpt><trkpt lat="45.084981408006776" lon="7.482075093761344"><ele>330.0</ele><time>2026-04-19T09:56:43.999Z</time></trkpt><trkpt lat="45.08501734366362" lon="7.4819255253374655"><ele>330.0</ele><time>2026-04-19T09:56:44.999Z</time></trkpt><trkpt lat="45.08502123210898" lon="7.481759192584644"><ele>330.0</ele><time>2026-04-19T09:56:45.999Z</time></trkpt><trkpt lat="45.08496701106188" lon="7.4815908001009985"><ele>330.0</ele><time>2026-04-19T09:56:46.999Z</time></trkpt><trkpt lat="45.08488792791647" lon="7.481424918920304"><ele>330.0</ele><time>2026-04-19T09:56:47.999Z</time></trkpt><trkpt lat="45.08482760202915" lon="7.481214227751024"><ele>330.0</ele><time>2026-04-19T09:56:48.999Z</time></trkpt><trkpt lat="45.08479930510497" lon="7.480954129250297"><ele>331.0</ele><time>2026-04-19T09:56:49.999Z</time></trkpt><trkpt lat="45.084790581350674" lon="7.480664907878595"><ele>332.0</ele><time>2026-04-19T09:56:50.999Z</time></trkpt><trkpt lat="45.08479009877333" lon="7.480366438704128"><ele>333.0</ele><time>2026-04-19T09:56:51.999Z</time></trkpt><trkpt lat="45.08478527229169" lon="7.480054646299246"><ele>333.0</ele><time>2026-04-19T09:56:52.999Z</time></trkpt><trkpt lat="45.084775283579965" lon="7.479747637308468"><ele>333.0</ele><time>2026-04-19T09:56:53.999Z</time></trkpt><trkpt lat="45.08476555424764" lon="7.4794345163766005"><ele>333.0</ele><time>2026-04-19T09:56:54.999Z</time></trkpt><trkpt lat="45.08475690202543" lon="7.479124251867509"><ele>333.0</ele><time>2026-04-19T09:56:55.999Z</time></trkpt><trkpt lat="45.084751882577535" lon="7.478812534250533"><ele>333.0</ele><time>2026-04-19T09:56:56.999Z</time></trkpt><trkpt lat="45.08474155081934" lon="7.478507530107364"><ele>333.0</ele><time>2026-04-19T09:56:57.999Z</time></trkpt><trkpt lat="45.08473083197382" lon="7.478200334766627"><ele>332.6666666666667</ele><time>2026-04-19T09:56:58.999Z</time></trkpt><trkpt lat="45.084720170630675" lon="7.477892083248619"><ele>332.33333333333337</ele><time>2026-04-19T09:57:00Z</time></trkpt><trkpt lat="45.084715233454396" lon="7.477586388019526"><ele>332.0</ele><time>2026-04-19T09:57:01Z</time></trkpt><trkpt lat="45.08470770988154" lon="7.477277009227254"><ele>332.33333333333337</ele><time>2026-04-19T09:57:02Z</time></trkpt><trkpt lat="45.08469691892766" lon="7.476973041954783"><ele>332.6666666666667</ele><time>2026-04-19T09:57:03Z</time></trkpt><trkpt lat="45.08468729053485" lon="7.476668260936701"><ele>333.0</ele><time>2026-04-19T09:57:04Z</time></trkpt><trkpt lat="45.08467929184163" lon="7.476363956768161"><ele>332.3333333333333</ele><time>2026-04-19T09:57:05Z</time></trkpt><trkpt lat="45.084670409082534" lon="7.476057203297976"><ele>331.66666666666663</ele><time>2026-04-19T09:57:06Z</time></trkpt><trkpt lat="45.084662156052715" lon="7.475751045286798"><ele>331.0</ele><time>2026-04-19T09:57:07Z</time></trkpt><trkpt lat="45.08465235154454" lon="7.475444139914955"><ele>331.0</ele><time>2026-04-19T09:57:08Z</time></trkpt><trkpt lat="45.08464421357222" lon="7.475135614236819"><ele>331.0</ele><time>2026-04-19T09:57:09Z</time></trkpt><trkpt lat="45.084636610484836" lon="7.474829190016803"><ele>331.0</ele><time>2026-04-19T09:57:10Z</time></trkpt><trkpt lat="45.08462952340529" lon="7.474520538194458"><ele>331.0</ele><time>2026-04-19T09:57:11Z</time></trkpt><trkpt lat="45.08462130759574" lon="7.474214202439092"><ele>331.0</ele><time>2026-04-19T09:57:12Z</time></trkpt><trkpt lat="45.084614772241096" lon="7.473908361601722"><ele>331.0</ele><time>2026-04-19T09:57:13Z</time></trkpt><trkpt lat="45.08460927461949" lon="7.473599631443684"><ele>331.0</ele><time>2026-04-19T09:57:14Z</time></trkpt><trkpt lat="45.08459915877139" lon="7.4732914041063205"><ele>331.0</ele><time>2026-04-19T09:57:15Z</time></trkpt><trkpt lat="45.08459199759069" lon="7.472987461654787"><ele>331.0</ele><time>2026-04-19T09:57:16Z</time></trkpt><trkpt lat="45.084582980402885" lon="7.472680924724724"><ele>331.0</ele><time>2026-04-19T09:57:17Z</time></trkpt><trkpt lat="45.084573589104444" lon="7.472373005336616"><ele>331.0</ele><time>2026-04-19T09:57:18Z</time></trkpt><trkpt lat="45.084565913473085" lon="7.472065524562648"><ele>331.0</ele><time>2026-04-19T09:57:19Z</time></trkpt><trkpt lat="45.08455763921239" lon="7.4717599293238175"><ele>330.66666666666663</ele><time>2026-04-19T09:57:20Z</time></trkpt><trkpt lat="45.08455006460193" lon="7.471453780988386"><ele>330.3333333333333</ele><time>2026-04-19T09:57:21Z</time></trkpt><trkpt lat="45.08454048337944" lon="7.471146725450644"><ele>330.0</ele><time>2026-04-19T09:57:22Z</time></trkpt><trkpt lat="45.08453111773739" lon="7.470841971019865"><ele>329.6666666666667</ele><time>2026-04-19T09:57:23Z</time></trkpt><trkpt lat="45.08452200401422" lon="7.47053159062815"><ele>329.33333333333337</ele><time>2026-04-19T09:57:24Z</time></trkpt><trkpt lat="45.084514477365836" lon="7.470225481162926"><ele>329.0</ele><time>2026-04-19T09:57:25Z</time></trkpt><trkpt lat="45.08450537458438" lon="7.469915524858588"><ele>328.6666666666667</ele><time>2026-04-19T09:57:26Z</time></trkpt><trkpt lat="45.084497051795175" lon="7.469617349566566"><ele>328.3333333333333</ele><time>2026-04-19T09:57:27Z</time></trkpt><trkpt lat="45.0844929321467" lon="7.469303465437576"><ele>328.0</ele><time>2026-04-19T09:57:28Z</time></trkpt><trkpt lat="45.08448387764835" lon="7.468998491098059"><ele>329.3333333333333</ele><time>2026-04-19T09:57:29Z</time></trkpt><trkpt lat="45.08447384065433" lon="7.468694151015279"><ele>330.6666666666667</ele><time>2026-04-19T09:57:30Z</time></trkpt><trkpt lat="45.08446414372516" lon="7.468388704930977"><ele>332.0</ele><time>2026-04-19T09:57:31Z</time></trkpt><trkpt lat="45.08445413898736" lon="7.468080837485235"><ele>332.0</ele><time>2026-04-19T09:57:32Z</time></trkpt><trkpt lat="45.08444310546621" lon="7.467775039013184"><ele>332.0</ele><time>2026-04-19T09:57:33Z</time></trkpt><trkpt lat="45.08443568377755" lon="7.46746885719228"><ele>332.0</ele><time>2026-04-19T09:57:34Z</time></trkpt><trkpt lat="45.084426262275734" lon="7.46715965430958"><ele>332.0</ele><time>2026-04-19T09:57:35Z</time></trkpt><trkpt lat="45.084418731553676" lon="7.466852782503212"><ele>332.0</ele><time>2026-04-19T09:57:36Z</time></trkpt><trkpt lat="45.08440964209229" lon="7.4665484748740285"><ele>332.0</ele><time>2026-04-19T09:57:37Z</time></trkpt><trkpt lat="45.08439916157268" lon="7.466238558287707"><ele>332.0</ele><time>2026-04-19T09:57:38Z</time></trkpt><trkpt lat="45.084389759556146" lon="7.465931378343707"><ele>332.0</ele><time>2026-04-19T09:57:39Z</time></trkpt><trkpt lat="45.08437932918997" lon="7.465623433704005"><ele>332.0</ele><time>2026-04-19T09:57:40Z</time></trkpt><trkpt lat="45.08437433562019" lon="7.465321003830247"><ele>332.0</ele><time>2026-04-19T09:57:41Z</time></trkpt><trkpt lat="45.0843677701988" lon="7.465015982855172"><ele>332.0</ele><time>2026-04-19T09:57:42Z</time></trkpt><trkpt lat="45.084361998207406" lon="7.464708127902635"><ele>332.0</ele><time>2026-04-19T09:57:43Z</time></trkpt><trkpt lat="45.0843533204416" lon="7.4644116051334795"><ele>332.0</ele><time>2026-04-19T09:57:44Z</time></trkpt><trkpt lat="45.084347321080365" lon="7.464132474185421"><ele>332.0</ele><time>2026-04-19T09:57:45Z</time></trkpt><trkpt lat="45.08434877142739" lon="7.463870375012848"><ele>332.0</ele><time>2026-04-19T09:57:46Z</time></trkpt><trkpt lat="45.08433849305234" lon="7.463626281357685"><ele>331.5</ele><time>2026-04-19T09:57:47Z</time></trkpt><trkpt lat="45.08434190633273" lon="7.463407778431713"><ele>331.0</ele><time>2026-04-19T09:57:48Z</time></trkpt><trkpt lat="45.0843500681971" lon="7.463188813039113"><ele>330.5</ele><time>2026-04-19T09:57:49Z</time></trkpt><trkpt lat="45.08438886489179" lon="7.463000349731912"><ele>330.0</ele><time>2026-04-19T09:57:50Z</time></trkpt><trkpt lat="45.08443937573249" lon="7.462837032096108"><ele>329.75</ele><time>2026-04-19T09:57:51Z</time></trkpt><trkpt lat="45.084491310438665" lon="7.462681149142456"><ele>329.5</ele><time>2026-04-19T09:57:52Z</time></trkpt><trkpt lat="45.08449127461597" lon="7.462507449131978"><ele>329.25</ele><time>2026-04-19T09:57:53Z</time></trkpt><trkpt lat="45.084428299303276" lon="7.46231439146735"><ele>329.0</ele><time>2026-04-19T09:57:54Z</time></trkpt><trkpt lat="45.084340627385934" lon="7.462118511376757"><ele>328.6666666666667</ele><time>2026-04-19T09:57:55Z</time></trkpt><trkpt lat="45.084269673399376" lon="7.461901264937819"><ele>328.3333333333333</ele><time>2026-04-19T09:57:56Z</time></trkpt><trkpt lat="45.08425718508983" lon="7.461661303001359"><ele>328.0</ele><time>2026-04-19T09:57:57Z</time></trkpt><trkpt lat="45.08425610356773" lon="7.4614199950179945"><ele>327.66666666666663</ele><time>2026-04-19T09:57:58Z</time></trkpt><trkpt lat="45.08425053848387" lon="7.461152116911966"><ele>327.3333333333333</ele><time>2026-04-19T09:57:59Z</time></trkpt><trkpt lat="45.08424426396313" lon="7.4608614959953385"><ele>327.0</ele><time>2026-04-19T09:58:00Z</time></trkpt><trkpt lat="45.0842378962915" lon="7.460548734347947"><ele>327.0</ele><time>2026-04-19T09:58:01Z</time></trkpt><trkpt lat="45.084232984594244" lon="7.460214253701854"><ele>327.0</ele><time>2026-04-19T09:58:02Z</time></trkpt><trkpt lat="45.084232109454824" lon="7.459859567583824"><ele>327.0</ele><time>2026-04-19T09:58:03Z</time></trkpt><trkpt lat="45.08422444774242" lon="7.459460301971081"><ele>327.0</ele><time>2026-04-19T09:58:04Z</time></trkpt><trkpt lat="45.084210348363875" lon="7.459008492119467"><ele>327.5</ele><time>2026-04-19T09:58:05Z</time></trkpt><trkpt lat="45.08419355675561" lon="7.458515583357011"><ele>328.0</ele><time>2026-04-19T09:58:06Z</time></trkpt><trkpt lat="45.08417739666352" lon="7.457982630230033"><ele>328.5</ele><time>2026-04-19T09:58:07Z</time></trkpt><trkpt lat="45.08415970710397" lon="7.457419328752479"><ele>329.0</ele><time>2026-04-19T09:58:08Z</time></trkpt><trkpt lat="45.08414353731076" lon="7.45682773947473"><ele>331.5</ele><time>2026-04-19T09:58:09Z</time></trkpt><trkpt lat="45.08412514679159" lon="7.456225241289303"><ele>334.0</ele><time>2026-04-19T09:58:10Z</time></trkpt><trkpt lat="45.08411603349963" lon="7.455634584536632"><ele>334.0</ele><time>2026-04-19T09:58:11Z</time></trkpt><trkpt lat="45.08409841338358" lon="7.455105098345717"><ele>334.0</ele><time>2026-04-19T09:58:12Z</time></trkpt><trkpt lat="45.08408092888031" lon="7.454579798486006"><ele>333.0</ele><time>2026-04-19T09:58:13Z</time></trkpt><trkpt lat="45.08406644899764" lon="7.454049157994992"><ele>332.0</ele><time>2026-04-19T09:58:14Z</time></trkpt><trkpt lat="45.08405324848972" lon="7.453521958903771"><ele>332.0</ele><time>2026-04-19T09:58:15Z</time></trkpt><trkpt lat="45.08404067925055" lon="7.453005214251492"><ele>332.0</ele><time>2026-04-19T09:58:16Z</time></trkpt><trkpt lat="45.08403043158914" lon="7.452514323731103"><ele>333.0</ele><time>2026-04-19T09:58:17Z</time></trkpt><trkpt lat="45.08402493866204" lon="7.452046583294608"><ele>334.0</ele><time>2026-04-19T09:58:18Z</time></trkpt><trkpt lat="45.0840222410239" lon="7.451589565015173"><ele>334.0</ele><time>2026-04-19T09:58:19Z</time></trkpt><trkpt lat="45.08402135344099" lon="7.451155258200345"><ele>334.0</ele><time>2026-04-19T09:58:20Z</time></trkpt><trkpt lat="45.084025038550514" lon="7.4507608721643805"><ele>334.5</ele><time>2026-04-19T09:58:21Z</time></trkpt><trkpt lat="45.084029295791545" lon="7.45040151192405"><ele>335.0</ele><time>2026-04-19T09:58:22Z</time></trkpt><trkpt lat="45.08403510313254" lon="7.450068237472062"><ele>335.0</ele><time>2026-04-19T09:58:23Z</time></trkpt><trkpt lat="45.084039420988525" lon="7.44976345318747"><ele>335.0</ele><time>2026-04-19T09:58:24Z</time></trkpt><trkpt lat="45.084044799218475" lon="7.449494687420937"><ele>335.0</ele><time>2026-04-19T09:58:25Z</time></trkpt><trkpt lat="45.08405711914671" lon="7.449252986732274"><ele>335.25</ele><time>2026-04-19T09:58:26Z</time></trkpt><trkpt lat="45.084070051915425" lon="7.44904142134218"><ele>335.5</ele><time>2026-04-19T09:58:27Z</time></trkpt><trkpt lat="45.08409531178614" lon="7.448849044146138"><ele>335.75</ele><time>2026-04-19T09:58:28Z</time></trkpt><trkpt lat="45.08412849355672" lon="7.448651180716112"><ele>336.0</ele><time>2026-04-19T09:58:29Z</time></trkpt><trkpt lat="45.08413138151927" lon="7.448447362092087"><ele>335.3333333333333</ele><time>2026-04-19T09:58:30Z</time></trkpt><trkpt lat="45.084247915197174" lon="7.448396395197729"><ele>334.66666666666663</ele><time>2026-04-19T09:58:31Z</time></trkpt><trkpt lat="45.08429723766112" lon="7.448254102799436"><ele>334.0</ele><time>2026-04-19T09:58:31.999Z</time></trkpt><trkpt lat="45.083940111767134" lon="7.447621698734224"><ele>334.0</ele><time>2026-04-19T09:58:32.999Z</time></trkpt><trkpt lat="45.08393748882715" lon="7.4472570461094705"><ele>334.0</ele><time>2026-04-19T09:58:33.999Z</time></trkpt><trkpt lat="45.08391263793188" lon="7.446874672235054"><ele>334.0</ele><time>2026-04-19T09:58:34.999Z</time></trkpt><trkpt lat="45.08387467971482" lon="7.446476099415386"><ele>334.0</ele><time>2026-04-19T09:58:35.999Z</time></trkpt><trkpt lat="45.08383596631764" lon="7.4460519254858175"><ele>334.0</ele><time>2026-04-19T09:58:36.999Z</time></trkpt><trkpt lat="45.08379754318488" lon="7.445612107404806"><ele>334.0</ele><time>2026-04-19T09:58:37.999Z</time></trkpt><trkpt lat="45.083767410950806" lon="7.445151632206016"><ele>333.5</ele><time>2026-04-19T09:58:38.999Z</time></trkpt><trkpt lat="45.08375373492006" lon="7.444680705523481"><ele>333.0</ele><time>2026-04-19T09:58:39.999Z</time></trkpt><trkpt lat="45.08374798695034" lon="7.444211566670325"><ele>333.5</ele><time>2026-04-19T09:58:40.999Z</time></trkpt><trkpt lat="45.083733982082656" lon="7.443729254781718"><ele>334.0</ele><time>2026-04-19T09:58:41.999Z</time></trkpt><trkpt lat="45.083722306376025" lon="7.443240984893391"><ele>334.5</ele><time>2026-04-19T09:58:42.999Z</time></trkpt><trkpt lat="45.08371167715721" lon="7.442754601871646"><ele>335.0</ele><time>2026-04-19T09:58:43.999Z</time></trkpt><trkpt lat="45.08369939874291" lon="7.442258758183612"><ele>335.0</ele><time>2026-04-19T09:58:44.999Z</time></trkpt><trkpt lat="45.08368833614685" lon="7.441762120291385"><ele>335.0</ele><time>2026-04-19T09:58:45.999Z</time></trkpt><trkpt lat="45.083677013701106" lon="7.44126335497527"><ele>335.0</ele><time>2026-04-19T09:58:46.999Z</time></trkpt><trkpt lat="45.083666957737144" lon="7.440784230405778"><ele>335.0</ele><time>2026-04-19T09:58:47.999Z</time></trkpt><trkpt lat="45.083657381861926" lon="7.440341138568164"><ele>335.5</ele><time>2026-04-19T09:58:48.999Z</time></trkpt><trkpt lat="45.08364849566166" lon="7.4399222727239875"><ele>336.0</ele><time>2026-04-19T09:58:49.999Z</time></trkpt><trkpt lat="45.08363934697292" lon="7.439525804104307"><ele>336.0</ele><time>2026-04-19T09:58:50.999Z</time></trkpt><trkpt lat="45.08362918452921" lon="7.439129955310714"><ele>336.0</ele><time>2026-04-19T09:58:51.999Z</time></trkpt><trkpt lat="45.08361961613723" lon="7.438749897768877"><ele>336.0</ele><time>2026-04-19T09:58:52.999Z</time></trkpt><trkpt lat="45.08361100639918" lon="7.438382561822662"><ele>336.0</ele><time>2026-04-19T09:58:53.999Z</time></trkpt><trkpt lat="45.08360268260299" lon="7.438011854622744"><ele>336.0</ele><time>2026-04-19T09:58:54.999Z</time></trkpt><trkpt lat="45.08359661582385" lon="7.43766066443778"><ele>336.0</ele><time>2026-04-19T09:58:55.999Z</time></trkpt><trkpt lat="45.08358784037325" lon="7.437340956360135"><ele>336.3333333333333</ele><time>2026-04-19T09:58:56.999Z</time></trkpt><trkpt lat="45.08358176436223" lon="7.437042245781424"><ele>336.66666666666663</ele><time>2026-04-19T09:58:57.999Z</time></trkpt><trkpt lat="45.08357531090391" lon="7.436751320748456"><ele>337.0</ele><time>2026-04-19T09:58:58.999Z</time></trkpt><trkpt lat="45.08356851932939" lon="7.436487868297027"><ele>336.75</ele><time>2026-04-19T09:58:59.999Z</time></trkpt><trkpt lat="45.08356219941751" lon="7.436244831927094"><ele>336.5</ele><time>2026-04-19T09:59:00.999Z</time></trkpt><trkpt lat="45.08355362139237" lon="7.436051166351307"><ele>336.25</ele><time>2026-04-19T09:59:01.999Z</time></trkpt><trkpt lat="45.0835457349235" lon="7.4358755465309505"><ele>336.0</ele><time>2026-04-19T09:59:02.999Z</time></trkpt><trkpt lat="45.08353464624958" lon="7.435694710072858"><ele>336.0</ele><time>2026-04-19T09:59:03.999Z</time></trkpt><trkpt lat="45.08352035512294" lon="7.43551112550692"><ele>336.0</ele><time>2026-04-19T09:59:04.999Z</time></trkpt><trkpt lat="45.08351533325293" lon="7.435332369164923"><ele>336.0</ele><time>2026-04-19T09:59:06Z</time></trkpt><trkpt lat="45.08350809484378" lon="7.435144539526627"><ele>336.0</ele><time>2026-04-19T09:59:07Z</time></trkpt><trkpt lat="45.08350325452187" lon="7.434950623753325"><ele>336.75</ele><time>2026-04-19T09:59:08Z</time></trkpt><trkpt lat="45.08350094273126" lon="7.434768746548009"><ele>337.5</ele><time>2026-04-19T09:59:09Z</time></trkpt><trkpt lat="45.083505889609135" lon="7.43458666413004"><ele>338.25</ele><time>2026-04-19T09:59:10Z</time></trkpt><trkpt lat="45.08352044786655" lon="7.434404905758509"><ele>339.0</ele><time>2026-04-19T09:59:11Z</time></trkpt><trkpt lat="45.08347631978188" lon="7.434261897505974"><ele>339.0</ele><time>2026-04-19T09:59:12Z</time></trkpt><trkpt lat="45.08348112613148" lon="7.434100855694971"><ele>339.0</ele><time>2026-04-19T09:59:13Z</time></trkpt><trkpt lat="45.083483189911036" lon="7.433936512524299"><ele>339.0</ele><time>2026-04-19T09:59:14Z</time></trkpt><trkpt lat="45.08347810651043" lon="7.433775777724886"><ele>339.0</ele><time>2026-04-19T09:59:15Z</time></trkpt><trkpt lat="45.08347332366568" lon="7.433612159092971"><ele>339.0</ele><time>2026-04-19T09:59:16Z</time></trkpt><trkpt lat="45.083467927902646" lon="7.433443178516202"><ele>339.0</ele><time>2026-04-19T09:59:17Z</time></trkpt><trkpt lat="45.083460134712496" lon="7.433274554196311"><ele>339.0</ele><time>2026-04-19T09:59:18Z</time></trkpt><trkpt lat="45.083453583056354" lon="7.433106221950824"><ele>339.0</ele><time>2026-04-19T09:59:19Z</time></trkpt><trkpt lat="45.08345202488792" lon="7.432935882392333"><ele>339.0</ele><time>2026-04-19T09:59:20Z</time></trkpt><trkpt lat="45.083450599203374" lon="7.432764803737134"><ele>339.0</ele><time>2026-04-19T09:59:21Z</time></trkpt><trkpt lat="45.08344502147436" lon="7.432592797623079"><ele>339.0</ele><time>2026-04-19T09:59:22Z</time></trkpt><trkpt lat="45.08343937117487" lon="7.432420813637059"><ele>339.0</ele><time>2026-04-19T09:59:23Z</time></trkpt><trkpt lat="45.08343505898548" lon="7.432245093760938"><ele>339.25</ele><time>2026-04-19T09:59:24Z</time></trkpt><trkpt lat="45.08343352479513" lon="7.432070183760175"><ele>339.5</ele><time>2026-04-19T09:59:25Z</time></trkpt><trkpt lat="45.083424885771606" lon="7.431887873266936"><ele>339.75</ele><time>2026-04-19T09:59:26Z</time></trkpt><trkpt lat="45.08341709418788" lon="7.431706668333788"><ele>340.0</ele><time>2026-04-19T09:59:27Z</time></trkpt><trkpt lat="45.08341622475536" lon="7.431526668225432"><ele>340.0</ele><time>2026-04-19T09:59:28Z</time></trkpt><trkpt lat="45.083397142114585" lon="7.431334445409694"><ele>340.0</ele><time>2026-04-19T09:59:29Z</time></trkpt><trkpt lat="45.08339771755536" lon="7.431144344136743"><ele>340.0</ele><time>2026-04-19T09:59:30Z</time></trkpt><trkpt lat="45.08339539862335" lon="7.430962646793742"><ele>340.0</ele><time>2026-04-19T09:59:31Z</time></trkpt><trkpt lat="45.08339325411353" lon="7.430776045830126"><ele>339.75</ele><time>2026-04-19T09:59:32Z</time></trkpt><trkpt lat="45.08338803697958" lon="7.430584302174191"><ele>339.5</ele><time>2026-04-19T09:59:33Z</time></trkpt><trkpt lat="45.083379893469406" lon="7.430397319846683"><ele>339.25</ele><time>2026-04-19T09:59:34Z</time></trkpt><trkpt lat="45.083371240150704" lon="7.430202509447548"><ele>339.0</ele><time>2026-04-19T09:59:35Z</time></trkpt><trkpt lat="45.08337091459901" lon="7.430010773577229"><ele>339.0</ele><time>2026-04-19T09:59:36Z</time></trkpt><trkpt lat="45.083366566614664" lon="7.429819085946482"><ele>339.0</ele><time>2026-04-19T09:59:37Z</time></trkpt><trkpt lat="45.08336753096871" lon="7.429621072957009"><ele>339.0</ele><time>2026-04-19T09:59:38Z</time></trkpt><trkpt lat="45.08336426621755" lon="7.42942514609976"><ele>339.0</ele><time>2026-04-19T09:59:39Z</time></trkpt><trkpt lat="45.08335775743568" lon="7.429225792776655"><ele>339.0</ele><time>2026-04-19T09:59:40Z</time></trkpt><trkpt lat="45.08335068626751" lon="7.429024162100449"><ele>339.0</ele><time>2026-04-19T09:59:41Z</time></trkpt><trkpt lat="45.08336020218931" lon="7.42882969681016"><ele>339.0</ele><time>2026-04-19T09:59:42Z</time></trkpt><trkpt lat="45.08335472410917" lon="7.428633581491594"><ele>339.0</ele><time>2026-04-19T09:59:43Z</time></trkpt><trkpt lat="45.08334933737275" lon="7.4284397026731215"><ele>339.0</ele><time>2026-04-19T09:59:44Z</time></trkpt><trkpt lat="45.0833439515589" lon="7.428241299878552"><ele>339.0</ele><time>2026-04-19T09:59:45Z</time></trkpt><trkpt lat="45.08333865090539" lon="7.42804603428229"><ele>339.0</ele><time>2026-04-19T09:59:46Z</time></trkpt><trkpt lat="45.083333553704634" lon="7.427858263613543"><ele>339.0</ele><time>2026-04-19T09:59:47Z</time></trkpt><trkpt lat="45.08332815667368" lon="7.427659447434275"><ele>339.25</ele><time>2026-04-19T09:59:48Z</time></trkpt><trkpt lat="45.08331075363304" lon="7.427466599529183"><ele>339.5</ele><time>2026-04-19T09:59:49Z</time></trkpt><trkpt lat="45.08331109887064" lon="7.427274625298198"><ele>339.75</ele><time>2026-04-19T09:59:50Z</time></trkpt><trkpt lat="45.083301956763954" lon="7.427086523271882"><ele>340.0</ele><time>2026-04-19T09:59:51Z</time></trkpt><trkpt lat="45.0833066821517" lon="7.426874992071982"><ele>340.25</ele><time>2026-04-19T09:59:52Z</time></trkpt><trkpt lat="45.08328451882197" lon="7.4266702687359425"><ele>340.5</ele><time>2026-04-19T09:59:53Z</time></trkpt><trkpt lat="45.083280054861255" lon="7.426461709961578"><ele>340.75</ele><time>2026-04-19T09:59:54Z</time></trkpt><trkpt lat="45.08327334327792" lon="7.426258554331583"><ele>341.0</ele><time>2026-04-19T09:59:55Z</time></trkpt><trkpt lat="45.08326749162222" lon="7.426053794527951"><ele>341.0</ele><time>2026-04-19T09:59:56Z</time></trkpt><trkpt lat="45.08326331040334" lon="7.425846574155211"><ele>341.0</ele><time>2026-04-19T09:59:57Z</time></trkpt><trkpt lat="45.08325254142633" lon="7.42564169747058"><ele>341.0</ele><time>2026-04-19T09:59:58Z</time></trkpt><trkpt lat="45.08326695873778" lon="7.425436731078451"><ele>341.0</ele><time>2026-04-19T09:59:59Z</time></trkpt><trkpt lat="45.083261601657725" lon="7.425230901545306"><ele>341.0</ele><time>2026-04-19T10:00:00Z</time></trkpt><trkpt lat="45.08323954484126" lon="7.42502306097687"><ele>341.0</ele><time>2026-04-19T10:00:01Z</time></trkpt><trkpt lat="45.08323561300903" lon="7.424818146597853"><ele>341.0</ele><time>2026-04-19T10:00:02Z</time></trkpt><trkpt lat="45.083232950195665" lon="7.424613951181147"><ele>341.0</ele><time>2026-04-19T10:00:03Z</time></trkpt><trkpt lat="45.08322609843805" lon="7.424405393991964"><ele>340.75</ele><time>2026-04-19T10:00:04Z</time></trkpt><trkpt lat="45.08321845929113" lon="7.424193884626916"><ele>340.5</ele><time>2026-04-19T10:00:05Z</time></trkpt><trkpt lat="45.083213021621944" lon="7.423983152625901"><ele>340.25</ele><time>2026-04-19T10:00:06Z</time></trkpt><trkpt lat="45.0832104326695" lon="7.423770831497727"><ele>340.0</ele><time>2026-04-19T10:00:07Z</time></trkpt><trkpt lat="45.083208123681196" lon="7.423559240423645"><ele>339.66666666666663</ele><time>2026-04-19T10:00:08Z</time></trkpt><trkpt lat="45.083200660461976" lon="7.423351335651783"><ele>339.3333333333333</ele><time>2026-04-19T10:00:09Z</time></trkpt><trkpt lat="45.083192013282364" lon="7.423135980336294"><ele>339.0</ele><time>2026-04-19T10:00:10Z</time></trkpt><trkpt lat="45.08318743865466" lon="7.422921986343088"><ele>339.0</ele><time>2026-04-19T10:00:11Z</time></trkpt><trkpt lat="45.08318440377367" lon="7.422709223976267"><ele>339.0</ele><time>2026-04-19T10:00:12Z</time></trkpt><trkpt lat="45.08317663733376" lon="7.42249363016886"><ele>339.0</ele><time>2026-04-19T10:00:13Z</time></trkpt><trkpt lat="45.083170278092076" lon="7.422278371318215"><ele>338.6666666666667</ele><time>2026-04-19T10:00:14Z</time></trkpt><trkpt lat="45.08316404724937" lon="7.422061249959531"><ele>338.33333333333337</ele><time>2026-04-19T10:00:15Z</time></trkpt><trkpt lat="45.08315715745181" lon="7.421848774046128"><ele>338.0</ele><time>2026-04-19T10:00:16Z</time></trkpt><trkpt lat="45.08315290940784" lon="7.421636604340863"><ele>338.0</ele><time>2026-04-19T10:00:17Z</time></trkpt><trkpt lat="45.0831484610758" lon="7.421423384353616"><ele>338.0</ele><time>2026-04-19T10:00:18Z</time></trkpt><trkpt lat="45.08313961180668" lon="7.421216689092199"><ele>338.0</ele><time>2026-04-19T10:00:19Z</time></trkpt><trkpt lat="45.08313862632826" lon="7.421008369105921"><ele>338.0</ele><time>2026-04-19T10:00:20Z</time></trkpt><trkpt lat="45.08313451326068" lon="7.420814176246533"><ele>338.0</ele><time>2026-04-19T10:00:21Z</time></trkpt><trkpt lat="45.08313071532361" lon="7.420628853605103"><ele>338.0</ele><time>2026-04-19T10:00:22Z</time></trkpt><trkpt lat="45.083125337126766" lon="7.420464376583229"><ele>338.0</ele><time>2026-04-19T10:00:23Z</time></trkpt><trkpt lat="45.083123775259004" lon="7.420297933682093"><ele>338.0</ele><time>2026-04-19T10:00:23.999Z</time></trkpt><trkpt lat="45.08312860641222" lon="7.420146522970454"><ele>337.79999999999995</ele><time>2026-04-19T10:00:24.999Z</time></trkpt><trkpt lat="45.083138799221715" lon="7.4200070070321"><ele>337.6</ele><time>2026-04-19T10:00:25.999Z</time></trkpt><trkpt lat="45.08316384707725" lon="7.419879158137201"><ele>337.4</ele><time>2026-04-19T10:00:26.999Z</time></trkpt><trkpt lat="45.08320810710202" lon="7.419743939723728"><ele>337.20000000000005</ele><time>2026-04-19T10:00:27.999Z</time></trkpt><trkpt lat="45.08329907748511" lon="7.419609035571895"><ele>337.0</ele><time>2026-04-19T10:00:28.999Z</time></trkpt><trkpt lat="45.083364983625934" lon="7.419453272218742"><ele>337.66666666666663</ele><time>2026-04-19T10:00:29.999Z</time></trkpt><trkpt lat="45.083363381905485" lon="7.419249345048212"><ele>338.3333333333333</ele><time>2026-04-19T10:00:30.999Z</time></trkpt><trkpt lat="45.08329904919643" lon="7.419053838333049"><ele>339.0</ele><time>2026-04-19T10:00:31.999Z</time></trkpt><trkpt lat="45.08318795879652" lon="7.418904368545054"><ele>339.6666666666667</ele><time>2026-04-19T10:00:32.999Z</time></trkpt><trkpt lat="45.0830865651413" lon="7.418758514656549"><ele>340.33333333333337</ele><time>2026-04-19T10:00:33.999Z</time></trkpt><trkpt lat="45.08304580811466" lon="7.418541337520333"><ele>341.0</ele><time>2026-04-19T10:00:34.999Z</time></trkpt><trkpt lat="45.08306109950151" lon="7.418236896387438"><ele>341.0</ele><time>2026-04-19T10:00:35.999Z</time></trkpt><trkpt lat="45.08305090305606" lon="7.417907518538148"><ele>341.0</ele><time>2026-04-19T10:00:36.999Z</time></trkpt><trkpt lat="45.0830738611523" lon="7.417576685631455"><ele>341.0</ele><time>2026-04-19T10:00:37.999Z</time></trkpt><trkpt lat="45.08311551073413" lon="7.417284420573605"><ele>341.0</ele><time>2026-04-19T10:00:38.999Z</time></trkpt><trkpt lat="45.08317549148642" lon="7.417008495459999"><ele>341.0</ele><time>2026-04-19T10:00:39.999Z</time></trkpt><trkpt lat="45.08325980458356" lon="7.416719174232442"><ele>340.6666666666667</ele><time>2026-04-19T10:00:40.999Z</time></trkpt><trkpt lat="45.083371990738335" lon="7.416448140624835"><ele>340.3333333333333</ele><time>2026-04-19T10:00:41.999Z</time></trkpt><trkpt lat="45.083467070976965" lon="7.416194189367832"><ele>340.0</ele><time>2026-04-19T10:00:42.999Z</time></trkpt><trkpt lat="45.0835546593852" lon="7.415960248420947"><ele>340.0</ele><time>2026-04-19T10:00:43.999Z</time></trkpt><trkpt lat="45.08363609696422" lon="7.415743727795992"><ele>340.0</ele><time>2026-04-19T10:00:44.999Z</time></trkpt><trkpt lat="45.08371715006638" lon="7.415526767249919"><ele>340.0</ele><time>2026-04-19T10:00:45.999Z</time></trkpt><trkpt lat="45.08378879229008" lon="7.415271987543687"><ele>340.0</ele><time>2026-04-19T10:00:46.999Z</time></trkpt><trkpt lat="45.08388372345313" lon="7.415016655548871"><ele>340.0</ele><time>2026-04-19T10:00:47.999Z</time></trkpt><trkpt lat="45.08397370961047" lon="7.414766635926186"><ele>340.0</ele><time>2026-04-19T10:00:48.999Z</time></trkpt><trkpt lat="45.084057832741905" lon="7.414539726058762"><ele>340.66666666666663</ele><time>2026-04-19T10:00:49.999Z</time></trkpt><trkpt lat="45.08413881158903" lon="7.4143315163550545"><ele>341.3333333333333</ele><time>2026-04-19T10:00:50.999Z</time></trkpt><trkpt lat="45.08421820138862" lon="7.414119923891459"><ele>342.0</ele><time>2026-04-19T10:00:51.999Z</time></trkpt><trkpt lat="45.0842939661822" lon="7.413916482984481"><ele>341.75</ele><time>2026-04-19T10:00:52.999Z</time></trkpt><trkpt lat="45.084361646092965" lon="7.413735090485979"><ele>341.5</ele><time>2026-04-19T10:00:53.999Z</time></trkpt><trkpt lat="45.084422794468786" lon="7.413579646281563"><ele>341.25</ele><time>2026-04-19T10:00:54.999Z</time></trkpt><trkpt lat="45.084471954922606" lon="7.413445950759677"><ele>341.0</ele><time>2026-04-19T10:00:55.999Z</time></trkpt><trkpt lat="45.084513512031926" lon="7.413340924780941"><ele>341.0</ele><time>2026-04-19T10:00:56.999Z</time></trkpt><trkpt lat="45.08455247716878" lon="7.413260698018842"><ele>341.0</ele><time>2026-04-19T10:00:57.999Z</time></trkpt><trkpt lat="45.08461326519248" lon="7.413127838064211"><ele>341.0</ele><time>2026-04-19T10:00:59.999Z</time></trkpt><trkpt lat="45.08467292186678" lon="7.413037569100376"><ele>341.0</ele><time>2026-04-19T10:01:01.999Z</time></trkpt><trkpt lat="45.08472786706631" lon="7.412986470221915"><ele>341.0</ele><time>2026-04-19T10:01:03.999Z</time></trkpt><trkpt lat="45.084824268915426" lon="7.412928775843987"><ele>341.0</ele><time>2026-04-19T10:01:05.999Z</time></trkpt><trkpt lat="45.08493900207621" lon="7.4128858591764075"><ele>340.85714285714283</ele><time>2026-04-19T10:01:07.999Z</time></trkpt><trkpt lat="45.085000017771094" lon="7.41285510937702"><ele>340.7142857142857</ele><time>2026-04-19T10:01:08.999Z</time></trkpt><trkpt lat="45.08506052075828" lon="7.412815413311477"><ele>340.57142857142856</ele><time>2026-04-19T10:01:09.999Z</time></trkpt><trkpt lat="45.085116636662825" lon="7.412753619120727"><ele>340.42857142857144</ele><time>2026-04-19T10:01:11Z</time></trkpt><trkpt lat="45.08516520096415" lon="7.412682096774906"><ele>340.2857142857143</ele><time>2026-04-19T10:01:12Z</time></trkpt><trkpt lat="45.08520274938966" lon="7.412592767976043"><ele>340.14285714285717</ele><time>2026-04-19T10:01:13Z</time></trkpt><trkpt lat="45.085232205529" lon="7.4124944994336674"><ele>340.0</ele><time>2026-04-19T10:01:14Z</time></trkpt><trkpt lat="45.085249890596934" lon="7.412388537210615"><ele>340.0</ele><time>2026-04-19T10:01:15Z</time></trkpt><trkpt lat="45.085252592178556" lon="7.412280081493634"><ele>340.0</ele><time>2026-04-19T10:01:16Z</time></trkpt><trkpt lat="45.08523699314086" lon="7.4121668815954775"><ele>340.0</ele><time>2026-04-19T10:01:17Z</time></trkpt><trkpt lat="45.08520993849665" lon="7.412032106954054"><ele>340.0</ele><time>2026-04-19T10:01:18Z</time></trkpt><trkpt lat="45.085178322426835" lon="7.4118794433618245"><ele>340.0</ele><time>2026-04-19T10:01:19Z</time></trkpt><trkpt lat="45.08516927046968" lon="7.411702402668933"><ele>340.0</ele><time>2026-04-19T10:01:20Z</time></trkpt><trkpt lat="45.08519968021228" lon="7.411502928646272"><ele>340.0</ele><time>2026-04-19T10:01:21Z</time></trkpt><trkpt lat="45.085259216369636" lon="7.41127784282553"><ele>340.0</ele><time>2026-04-19T10:01:22Z</time></trkpt><trkpt lat="45.085333020981125" lon="7.4110393027997885"><ele>339.66666666666663</ele><time>2026-04-19T10:01:23Z</time></trkpt><trkpt lat="45.08540984303258" lon="7.410791142849251"><ele>339.3333333333333</ele><time>2026-04-19T10:01:24Z</time></trkpt><trkpt lat="45.08548237785729" lon="7.410528724105415"><ele>339.0</ele><time>2026-04-19T10:01:25Z</time></trkpt><trkpt lat="45.08555540470248" lon="7.410262008631394"><ele>338.6666666666667</ele><time>2026-04-19T10:01:26Z</time></trkpt><trkpt lat="45.08562314730679" lon="7.41000310414447"><ele>338.33333333333337</ele><time>2026-04-19T10:01:27Z</time></trkpt><trkpt lat="45.08567901874337" lon="7.4097440518296604"><ele>338.0</ele><time>2026-04-19T10:01:28Z</time></trkpt><trkpt lat="45.08572721349441" lon="7.409503358943916"><ele>338.33333333333337</ele><time>2026-04-19T10:01:29Z</time></trkpt><trkpt lat="45.08577406845881" lon="7.409282178217603"><ele>338.6666666666667</ele><time>2026-04-19T10:01:30Z</time></trkpt><trkpt lat="45.08581303332433" lon="7.409069024896211"><ele>339.0</ele><time>2026-04-19T10:01:31Z</time></trkpt><trkpt lat="45.08585062463728" lon="7.408842242422574"><ele>339.5</ele><time>2026-04-19T10:01:32Z</time></trkpt><trkpt lat="45.08589625495692" lon="7.408623671702879"><ele>340.0</ele><time>2026-04-19T10:01:33Z</time></trkpt><trkpt lat="45.0859336312745" lon="7.408445351215686"><ele>340.5</ele><time>2026-04-19T10:01:34Z</time></trkpt><trkpt lat="45.085962647484294" lon="7.4083205005679265"><ele>341.0</ele><time>2026-04-19T10:01:35Z</time></trkpt><trkpt lat="45.08598911899991" lon="7.40821843509887"><ele>341.0</ele><time>2026-04-19T10:01:36Z</time></trkpt><trkpt lat="45.086025332582395" lon="7.408130789309754"><ele>341.0</ele><time>2026-04-19T10:01:40Z</time></trkpt><trkpt lat="45.08608430758555" lon="7.408041377634394"><ele>341.0</ele><time>2026-04-19T10:01:42Z</time></trkpt><trkpt lat="45.086165275385355" lon="7.407983304410314"><ele>341.0</ele><time>2026-04-19T10:01:43Z</time></trkpt><trkpt lat="45.08623013235805" lon="7.407914294104239"><ele>341.0</ele><time>2026-04-19T10:01:44Z</time></trkpt><trkpt lat="45.08625068286632" lon="7.407813069571819"><ele>341.0</ele><time>2026-04-19T10:01:45Z</time></trkpt><trkpt lat="45.08625070437425" lon="7.40769770540283"><ele>341.0</ele><time>2026-04-19T10:01:46Z</time></trkpt><trkpt lat="45.08623015615908" lon="7.407587039606052"><ele>341.0</ele><time>2026-04-19T10:01:47Z</time></trkpt><trkpt lat="45.08619784472322" lon="7.407475480417033"><ele>341.0</ele><time>2026-04-19T10:01:48Z</time></trkpt><trkpt lat="45.08618295055921" lon="7.407350582332751"><ele>341.0</ele><time>2026-04-19T10:01:49Z</time></trkpt><trkpt lat="45.086194543415054" lon="7.407206811569763"><ele>341.0</ele><time>2026-04-19T10:01:50Z</time></trkpt><trkpt lat="45.086229930367494" lon="7.407054889866566"><ele>341.0</ele><time>2026-04-19T10:01:51Z</time></trkpt><trkpt lat="45.08627935378778" lon="7.406891876990986"><ele>341.0</ele><time>2026-04-19T10:01:52Z</time></trkpt><trkpt lat="45.08632725530971" lon="7.406712181538837"><ele>341.0</ele><time>2026-04-19T10:01:53Z</time></trkpt><trkpt lat="45.08637484752382" lon="7.406507463642794"><ele>341.0</ele><time>2026-04-19T10:01:54Z</time></trkpt><trkpt lat="45.0864281336532" lon="7.406302996116825"><ele>341.0</ele><time>2026-04-19T10:01:55Z</time></trkpt><trkpt lat="45.08648332977596" lon="7.406097817897285"><ele>341.0</ele><time>2026-04-19T10:01:56Z</time></trkpt><trkpt lat="45.08654551478116" lon="7.405883707344758"><ele>341.0</ele><time>2026-04-19T10:01:57Z</time></trkpt><trkpt lat="45.08661154030402" lon="7.405687915994565"><ele>341.0</ele><time>2026-04-19T10:01:58Z</time></trkpt><trkpt lat="45.08667763132594" lon="7.405516053597232"><ele>341.0</ele><time>2026-04-19T10:01:59Z</time></trkpt><trkpt lat="45.08673842637678" lon="7.40535240974969"><ele>341.0</ele><time>2026-04-19T10:02:00Z</time></trkpt><trkpt lat="45.086792385207076" lon="7.405197180736313"><ele>341.0</ele><time>2026-04-19T10:02:01Z</time></trkpt><trkpt lat="45.08684155095238" lon="7.405053019055512"><ele>341.0</ele><time>2026-04-19T10:02:02Z</time></trkpt><trkpt lat="45.08689432712216" lon="7.404913967567805"><ele>341.0</ele><time>2026-04-19T10:02:03Z</time></trkpt><trkpt lat="45.08694816011221" lon="7.404758859734136"><ele>341.0</ele><time>2026-04-19T10:02:04Z</time></trkpt><trkpt lat="45.08700891005002" lon="7.404595207667916"><ele>341.0</ele><time>2026-04-19T10:02:05Z</time></trkpt><trkpt lat="45.08707186639001" lon="7.404423654105277"><ele>341.0</ele><time>2026-04-19T10:02:06Z</time></trkpt><trkpt lat="45.087130567987806" lon="7.404249859718593"><ele>341.0</ele><time>2026-04-19T10:02:07Z</time></trkpt><trkpt lat="45.08719016262089" lon="7.4040761802364425"><ele>341.0</ele><time>2026-04-19T10:02:07.999Z</time></trkpt><trkpt lat="45.08725380687541" lon="7.40389722076108"><ele>341.0</ele><time>2026-04-19T10:02:08.999Z</time></trkpt><trkpt lat="45.08731728965541" lon="7.403718391630406"><ele>341.0</ele><time>2026-04-19T10:02:09.999Z</time></trkpt><trkpt lat="45.087378973725244" lon="7.403537153479148"><ele>341.0</ele><time>2026-04-19T10:02:10.999Z</time></trkpt><trkpt lat="45.08744177864592" lon="7.403358474983226"><ele>341.0</ele><time>2026-04-19T10:02:11.999Z</time></trkpt><trkpt lat="45.08750671941852" lon="7.403173536548142"><ele>341.0</ele><time>2026-04-19T10:02:12.999Z</time></trkpt><trkpt lat="45.0875595970651" lon="7.403020712549942"><ele>341.0</ele><time>2026-04-19T10:02:13.999Z</time></trkpt><trkpt lat="45.0876123053842" lon="7.402873737945494"><ele>341.0</ele><time>2026-04-19T10:02:14.999Z</time></trkpt><trkpt lat="45.087657140752206" lon="7.402734763921493"><ele>341.0</ele><time>2026-04-19T10:02:15.999Z</time></trkpt><trkpt lat="45.08769553361409" lon="7.402626365974994"><ele>341.0</ele><time>2026-04-19T10:02:16.999Z</time></trkpt><trkpt lat="45.087724619846696" lon="7.402535076711684"><ele>341.0</ele><time>2026-04-19T10:02:17.999Z</time></trkpt><trkpt lat="45.08779375409968" lon="7.402392859693159"><ele>341.0</ele><time>2026-04-19T10:02:19.999Z</time></trkpt><trkpt lat="45.087853258863845" lon="7.402283046574104"><ele>341.0</ele><time>2026-04-19T10:02:21.999Z</time></trkpt><trkpt lat="45.087924688639006" lon="7.402134540357713"><ele>341.0</ele><time>2026-04-19T10:02:23.999Z</time></trkpt><trkpt lat="45.08793757633692" lon="7.402016007361981"><ele>341.0</ele><time>2026-04-19T10:02:24.999Z</time></trkpt><trkpt lat="45.087944498138214" lon="7.401857532989688"><ele>341.0</ele><time>2026-04-19T10:02:25.999Z</time></trkpt><trkpt lat="45.08800924762925" lon="7.401682608304206"><ele>341.33333333333337</ele><time>2026-04-19T10:02:26.999Z</time></trkpt><trkpt lat="45.088093013130674" lon="7.401470115143197"><ele>341.6666666666667</ele><time>2026-04-19T10:02:27.999Z</time></trkpt><trkpt lat="45.08816026696283" lon="7.401244361332471"><ele>342.0</ele><time>2026-04-19T10:02:28.999Z</time></trkpt><trkpt lat="45.088227281506" lon="7.400999218377314"><ele>342.3333333333333</ele><time>2026-04-19T10:02:29.999Z</time></trkpt><trkpt lat="45.08830856798798" lon="7.40073222857056"><ele>342.66666666666663</ele><time>2026-04-19T10:02:30.999Z</time></trkpt><trkpt lat="45.08839473159333" lon="7.400444448900043"><ele>343.0</ele><time>2026-04-19T10:02:31.999Z</time></trkpt><trkpt lat="45.08847291570268" lon="7.400128892573919"><ele>343.5</ele><time>2026-04-19T10:02:32.999Z</time></trkpt><trkpt lat="45.08853310987231" lon="7.399778677444448"><ele>344.0</ele><time>2026-04-19T10:02:33.999Z</time></trkpt><trkpt lat="45.0885773636911" lon="7.399399970714445"><ele>344.0</ele><time>2026-04-19T10:02:34.999Z</time></trkpt><trkpt lat="45.08859315055261" lon="7.3989975824325604"><ele>344.0</ele><time>2026-04-19T10:02:35.999Z</time></trkpt><trkpt lat="45.088606373672455" lon="7.398597433938253"><ele>344.5</ele><time>2026-04-19T10:02:36.999Z</time></trkpt><trkpt lat="45.08861638195551" lon="7.398187419397235"><ele>345.0</ele><time>2026-04-19T10:02:37.999Z</time></trkpt><trkpt lat="45.08861575384082" lon="7.397744788321584"><ele>345.0</ele><time>2026-04-19T10:02:38.999Z</time></trkpt><trkpt lat="45.08862395489231" lon="7.39728623173664"><ele>345.0</ele><time>2026-04-19T10:02:39.999Z</time></trkpt><trkpt lat="45.08863649034752" lon="7.396808332478804"><ele>344.0</ele><time>2026-04-19T10:02:40.999Z</time></trkpt><trkpt lat="45.088652801384384" lon="7.396309640393051"><ele>343.0</ele><time>2026-04-19T10:02:41.999Z</time></trkpt><trkpt lat="45.088667892268724" lon="7.395806328260252"><ele>344.0</ele><time>2026-04-19T10:02:42.999Z</time></trkpt><trkpt lat="45.0886797399614" lon="7.395319332575532"><ele>345.0</ele><time>2026-04-19T10:02:43.999Z</time></trkpt><trkpt lat="45.088694459934366" lon="7.394885710521134"><ele>345.0</ele><time>2026-04-19T10:02:44.999Z</time></trkpt><trkpt lat="45.08870762815342" lon="7.394516483831455"><ele>345.0</ele><time>2026-04-19T10:02:45.999Z</time></trkpt><trkpt lat="45.088715714979315" lon="7.394194256991426"><ele>345.0</ele><time>2026-04-19T10:02:46.999Z</time></trkpt><trkpt lat="45.08871153764766" lon="7.3939128777492"><ele>345.0</ele><time>2026-04-19T10:02:47.999Z</time></trkpt><trkpt lat="45.088692318804085" lon="7.393670224932348"><ele>345.0</ele><time>2026-04-19T10:02:48.999Z</time></trkpt><trkpt lat="45.08867160073636" lon="7.39348038633128"><ele>345.0</ele><time>2026-04-19T10:02:49.999Z</time></trkpt><trkpt lat="45.088662302230745" lon="7.393293520038234"><ele>345.0</ele><time>2026-04-19T10:02:50.999Z</time></trkpt><trkpt lat="45.08869958155064" lon="7.393091586531469"><ele>345.0</ele><time>2026-04-19T10:02:51.999Z</time></trkpt><trkpt lat="45.08872005611174" lon="7.39289742227651"><ele>345.0</ele><time>2026-04-19T10:02:52.999Z</time></trkpt><trkpt lat="45.08865319896006" lon="7.392730271011254"><ele>345.0</ele><time>2026-04-19T10:02:53.999Z</time></trkpt><trkpt lat="45.088604339991925" lon="7.392544204431012"><ele>345.0</ele><time>2026-04-19T10:02:54.999Z</time></trkpt><trkpt lat="45.08868151851068" lon="7.392321415511575"><ele>345.0</ele><time>2026-04-19T10:02:55.999Z</time></trkpt><trkpt lat="45.08879196277815" lon="7.392068209509723"><ele>345.0</ele><time>2026-04-19T10:02:56.999Z</time></trkpt><trkpt lat="45.08892304142245" lon="7.391732139997487"><ele>345.0</ele><time>2026-04-19T10:02:57.999Z</time></trkpt><trkpt lat="45.08909731886034" lon="7.391334245634976"><ele>345.0</ele><time>2026-04-19T10:02:58.999Z</time></trkpt><trkpt lat="45.08926338437752" lon="7.3908959933073906"><ele>345.0</ele><time>2026-04-19T10:02:59.999Z</time></trkpt><trkpt lat="45.089457586191585" lon="7.390423386352375"><ele>345.0</ele><time>2026-04-19T10:03:00.999Z</time></trkpt><trkpt lat="45.08967187362014" lon="7.389921435584544"><ele>345.0</ele><time>2026-04-19T10:03:01.999Z</time></trkpt><trkpt lat="45.08988850462512" lon="7.389403646005277"><ele>345.0</ele><time>2026-04-19T10:03:02.999Z</time></trkpt><trkpt lat="45.09010174206448" lon="7.388885967565793"><ele>345.0</ele><time>2026-04-19T10:03:03.999Z</time></trkpt><trkpt lat="45.090296545570084" lon="7.388410700410906"><ele>345.5</ele><time>2026-04-19T10:03:04.999Z</time></trkpt><trkpt lat="45.0904724615128" lon="7.387988775935969"><ele>346.0</ele><time>2026-04-19T10:03:05.999Z</time></trkpt><trkpt lat="45.090627983335935" lon="7.3876200893537085"><ele>346.0</ele><time>2026-04-19T10:03:06.999Z</time></trkpt><trkpt lat="45.09077112606245" lon="7.387262939789328"><ele>346.0</ele><time>2026-04-19T10:03:07.999Z</time></trkpt><trkpt lat="45.090895389739835" lon="7.386929140604515"><ele>346.5</ele><time>2026-04-19T10:03:08.999Z</time></trkpt><trkpt lat="45.09099877607171" lon="7.386629703268772"><ele>347.0</ele><time>2026-04-19T10:03:09.999Z</time></trkpt><trkpt lat="45.091088500271375" lon="7.386337428796085"><ele>347.0</ele><time>2026-04-19T10:03:10.999Z</time></trkpt><trkpt lat="45.091190057286596" lon="7.386073079083446"><ele>347.0</ele><time>2026-04-19T10:03:11.999Z</time></trkpt><trkpt lat="45.09127500567707" lon="7.3858019083237"><ele>347.0</ele><time>2026-04-19T10:03:12.999Z</time></trkpt><trkpt lat="45.09102910842486" lon="7.385307163095873"><ele>346.0</ele><time>2026-04-19T10:03:13.999Z</time></trkpt><trkpt lat="45.09092599380535" lon="7.38496455609852"><ele>345.0</ele><time>2026-04-19T10:03:14.999Z</time></trkpt><trkpt lat="45.09089268813736" lon="7.384640898845008"><ele>344.5</ele><time>2026-04-19T10:03:15.999Z</time></trkpt><trkpt lat="45.0909025502228" lon="7.384298958138197"><ele>344.0</ele><time>2026-04-19T10:03:17Z</time></trkpt><trkpt lat="45.09098247161175" lon="7.3839313259560715"><ele>344.5</ele><time>2026-04-19T10:03:18Z</time></trkpt><trkpt lat="45.091120355394345" lon="7.383529639244714"><ele>345.0</ele><time>2026-04-19T10:03:19Z</time></trkpt><trkpt lat="45.0912757721765" lon="7.3831022551349985"><ele>345.5</ele><time>2026-04-19T10:03:20Z</time></trkpt><trkpt lat="45.09140902467251" lon="7.382662086044484"><ele>346.0</ele><time>2026-04-19T10:03:21Z</time></trkpt><trkpt lat="45.09152022788277" lon="7.38227508847066"><ele>346.5</ele><time>2026-04-19T10:03:22Z</time></trkpt><trkpt lat="45.09162306755913" lon="7.381942718466498"><ele>347.0</ele><time>2026-04-19T10:03:23Z</time></trkpt><trkpt lat="45.0917183078448" lon="7.3816281504015135"><ele>348.0</ele><time>2026-04-19T10:03:24Z</time></trkpt><trkpt lat="45.09180887266812" lon="7.381323008712361"><ele>349.0</ele><time>2026-04-19T10:03:25Z</time></trkpt><trkpt lat="45.09190109071406" lon="7.38101608555884"><ele>349.0</ele><time>2026-04-19T10:03:26Z</time></trkpt><trkpt lat="45.091995130569224" lon="7.380695586983464"><ele>349.0</ele><time>2026-04-19T10:03:27Z</time></trkpt><trkpt lat="45.09208069303086" lon="7.380362639529472"><ele>348.5</ele><time>2026-04-19T10:03:28Z</time></trkpt><trkpt lat="45.092179171137865" lon="7.380031053088636"><ele>348.0</ele><time>2026-04-19T10:03:29Z</time></trkpt><trkpt lat="45.09227452053834" lon="7.37972244366744"><ele>348.0</ele><time>2026-04-19T10:03:30Z</time></trkpt><trkpt lat="45.092361503183305" lon="7.379435792453544"><ele>348.0</ele><time>2026-04-19T10:03:31Z</time></trkpt><trkpt lat="45.09244177223278" lon="7.379160125619467"><ele>348.0</ele><time>2026-04-19T10:03:32Z</time></trkpt><trkpt lat="45.09252552822189" lon="7.378880203848694"><ele>349.5</ele><time>2026-04-19T10:03:33Z</time></trkpt><trkpt lat="45.09261431867887" lon="7.37858822643913"><ele>351.0</ele><time>2026-04-19T10:03:34Z</time></trkpt><trkpt lat="45.09270295919663" lon="7.378290985762141"><ele>350.5</ele><time>2026-04-19T10:03:35Z</time></trkpt><trkpt lat="45.092791586278864" lon="7.377999114909282"><ele>350.0</ele><time>2026-04-19T10:03:36Z</time></trkpt><trkpt lat="45.09288250450375" lon="7.3777021486121885"><ele>350.0</ele><time>2026-04-19T10:03:37Z</time></trkpt><trkpt lat="45.09297083496106" lon="7.377403937716412"><ele>350.0</ele><time>2026-04-19T10:03:38Z</time></trkpt><trkpt lat="45.09305598838749" lon="7.3771111042427515"><ele>350.5</ele><time>2026-04-19T10:03:39Z</time></trkpt><trkpt lat="45.09314393266093" lon="7.376814609979529"><ele>351.0</ele><time>2026-04-19T10:03:40Z</time></trkpt><trkpt lat="45.09323590638109" lon="7.376513383590696"><ele>351.5</ele><time>2026-04-19T10:03:41Z</time></trkpt><trkpt lat="45.09333031576839" lon="7.376205335942448"><ele>352.0</ele><time>2026-04-19T10:03:42Z</time></trkpt><trkpt lat="45.093419749749174" lon="7.375896170086069"><ele>352.0</ele><time>2026-04-19T10:03:43Z</time></trkpt><trkpt lat="45.09350972781266" lon="7.375589303656305"><ele>352.0</ele><time>2026-04-19T10:03:44Z</time></trkpt><trkpt lat="45.09360027775451" lon="7.375290235532107"><ele>351.5</ele><time>2026-04-19T10:03:45Z</time></trkpt><trkpt lat="45.09369078815835" lon="7.37499090969628"><ele>351.0</ele><time>2026-04-19T10:03:46Z</time></trkpt><trkpt lat="45.093781973366376" lon="7.374688714928416"><ele>350.5</ele><time>2026-04-19T10:03:47Z</time></trkpt><trkpt lat="45.0938739571851" lon="7.374379726230235"><ele>350.0</ele><time>2026-04-19T10:03:48Z</time></trkpt><trkpt lat="45.09396571544176" lon="7.374070430808528"><ele>349.5</ele><time>2026-04-19T10:03:49Z</time></trkpt><trkpt lat="45.09405687048403" lon="7.373767076727424"><ele>349.0</ele><time>2026-04-19T10:03:50Z</time></trkpt><trkpt lat="45.09414503658298" lon="7.373469196267856"><ele>350.0</ele><time>2026-04-19T10:03:51Z</time></trkpt><trkpt lat="45.09422904641057" lon="7.373174891172864"><ele>351.0</ele><time>2026-04-19T10:03:52Z</time></trkpt><trkpt lat="45.094309247154264" lon="7.372895850024349"><ele>352.0</ele><time>2026-04-19T10:03:53Z</time></trkpt><trkpt lat="45.09438806146871" lon="7.372635436744474"><ele>352.0</ele><time>2026-04-19T10:03:54Z</time></trkpt><trkpt lat="45.09446475667021" lon="7.372385159104202"><ele>352.0</ele><time>2026-04-19T10:03:55Z</time></trkpt><trkpt lat="45.0945430234048" lon="7.37212972300964"><ele>352.0</ele><time>2026-04-19T10:03:56Z</time></trkpt><trkpt lat="45.094620455281614" lon="7.3718693171518135"><ele>352.0</ele><time>2026-04-19T10:03:57Z</time></trkpt><trkpt lat="45.094699443688825" lon="7.371610358281713"><ele>352.0</ele><time>2026-04-19T10:03:58Z</time></trkpt><trkpt lat="45.09477552379411" lon="7.371361676684509"><ele>352.0</ele><time>2026-04-19T10:03:59Z</time></trkpt><trkpt lat="45.0948449049092" lon="7.371142690133005"><ele>352.0</ele><time>2026-04-19T10:04:00Z</time></trkpt><trkpt lat="45.09490674957713" lon="7.370950800630462"><ele>352.0</ele><time>2026-04-19T10:04:01Z</time></trkpt><trkpt lat="45.09495901000543" lon="7.370785643537076"><ele>352.0</ele><time>2026-04-19T10:04:02Z</time></trkpt><trkpt lat="45.09499858258077" lon="7.370651052184269"><ele>352.0</ele><time>2026-04-19T10:04:03Z</time></trkpt><trkpt lat="45.09502950915162" lon="7.370548578295519"><ele>352.40000000000003</ele><time>2026-04-19T10:04:04Z</time></trkpt><trkpt lat="45.09506855706871" lon="7.370419760017441"><ele>352.8</ele><time>2026-04-19T10:04:06Z</time></trkpt><trkpt lat="45.09506800278284" lon="7.37032346302759"><ele>353.2</ele><time>2026-04-19T10:04:33.999Z</time></trkpt><trkpt lat="45.09511121580749" lon="7.370242948805288"><ele>353.6</ele><time>2026-04-19T10:04:34.999Z</time></trkpt><trkpt lat="45.095162625670014" lon="7.370069326240723"><ele>354.0</ele><time>2026-04-19T10:04:35.999Z</time></trkpt><trkpt lat="45.09523428221723" lon="7.369859797780022"><ele>354.3333333333333</ele><time>2026-04-19T10:04:36.999Z</time></trkpt><trkpt lat="45.095303547659014" lon="7.369624069912701"><ele>354.66666666666663</ele><time>2026-04-19T10:04:37.999Z</time></trkpt><trkpt lat="45.09537433857331" lon="7.369334867597022"><ele>355.0</ele><time>2026-04-19T10:04:38.999Z</time></trkpt><trkpt lat="45.09547813934916" lon="7.369006422379598"><ele>354.5</ele><time>2026-04-19T10:04:39.999Z</time></trkpt><trkpt lat="45.095579081567706" lon="7.368685406653822"><ele>354.0</ele><time>2026-04-19T10:04:40.999Z</time></trkpt><trkpt lat="45.09568330094826" lon="7.368407149739181"><ele>354.0</ele><time>2026-04-19T10:04:41.999Z</time></trkpt><trkpt lat="45.09579816093151" lon="7.368180567617964"><ele>354.0</ele><time>2026-04-19T10:04:42.999Z</time></trkpt><trkpt lat="45.09593041733061" lon="7.367968302291088"><ele>354.0</ele><time>2026-04-19T10:04:43.999Z</time></trkpt><trkpt lat="45.09607987006046" lon="7.367775301494782"><ele>354.0</ele><time>2026-04-19T10:04:44.999Z</time></trkpt><trkpt lat="45.09624888529771" lon="7.367608615262916"><ele>354.0</ele><time>2026-04-19T10:04:45.999Z</time></trkpt><trkpt lat="45.09641648911776" lon="7.367448683956918"><ele>354.0</ele><time>2026-04-19T10:04:46.999Z</time></trkpt><trkpt lat="45.09658482435913" lon="7.367299586866452"><ele>354.0</ele><time>2026-04-19T10:04:47.999Z</time></trkpt><trkpt lat="45.09675204402368" lon="7.367157358632093"><ele>354.0</ele><time>2026-04-19T10:04:48.999Z</time></trkpt><trkpt lat="45.09690744374542" lon="7.3670271360816075"><ele>354.0</ele><time>2026-04-19T10:04:49.999Z</time></trkpt><trkpt lat="45.09705181083095" lon="7.3669028587462035"><ele>354.0</ele><time>2026-04-19T10:04:50.999Z</time></trkpt><trkpt lat="45.097192681564806" lon="7.366781630082973"><ele>354.0</ele><time>2026-04-19T10:04:51.999Z</time></trkpt><trkpt lat="45.09733772283303" lon="7.366661914574995"><ele>354.0</ele><time>2026-04-19T10:04:52.999Z</time></trkpt><trkpt lat="45.09748799452113" lon="7.366542137277686"><ele>353.6666666666667</ele><time>2026-04-19T10:04:53.999Z</time></trkpt><trkpt lat="45.09762889552038" lon="7.366429707975478"><ele>353.33333333333337</ele><time>2026-04-19T10:04:54.999Z</time></trkpt><trkpt lat="45.09776103041455" lon="7.366322096549704"><ele>353.0</ele><time>2026-04-19T10:04:55.999Z</time></trkpt><trkpt lat="45.09789242702052" lon="7.366215188078292"><ele>353.0</ele><time>2026-04-19T10:04:56.999Z</time></trkpt><trkpt lat="45.09802336378913" lon="7.366103086587641"><ele>353.0</ele><time>2026-04-19T10:04:57.999Z</time></trkpt><trkpt lat="45.09814302858296" lon="7.365995296964753"><ele>353.0</ele><time>2026-04-19T10:04:58.999Z</time></trkpt><trkpt lat="45.09826124086999" lon="7.365900673952633"><ele>353.0</ele><time>2026-04-19T10:04:59.999Z</time></trkpt><trkpt lat="45.098386546013934" lon="7.365801186109654"><ele>353.0</ele><time>2026-04-19T10:05:00.999Z</time></trkpt><trkpt lat="45.09852036092966" lon="7.36569022835766"><ele>353.0</ele><time>2026-04-19T10:05:01.999Z</time></trkpt><trkpt lat="45.09865943459254" lon="7.365569320801062"><ele>353.0</ele><time>2026-04-19T10:05:02.999Z</time></trkpt><trkpt lat="45.09879469342178" lon="7.365422443733795"><ele>353.0</ele><time>2026-04-19T10:05:03.999Z</time></trkpt><trkpt lat="45.098924594267544" lon="7.365253344327279"><ele>353.0</ele><time>2026-04-19T10:05:04.999Z</time></trkpt><trkpt lat="45.099046226697176" lon="7.365074707282803"><ele>353.0</ele><time>2026-04-19T10:05:05.999Z</time></trkpt><trkpt lat="45.099156910964496" lon="7.364880372043486"><ele>353.6666666666667</ele><time>2026-04-19T10:05:06.999Z</time></trkpt><trkpt lat="45.09925588202303" lon="7.364669716135858"><ele>354.3333333333333</ele><time>2026-04-19T10:05:07.999Z</time></trkpt><trkpt lat="45.09934244652557" lon="7.364444083767112"><ele>355.0</ele><time>2026-04-19T10:05:08.999Z</time></trkpt><trkpt lat="45.09941367437117" lon="7.3642067273195195"><ele>355.0</ele><time>2026-04-19T10:05:09.999Z</time></trkpt><trkpt lat="45.09948069482444" lon="7.3639649828102955"><ele>355.0</ele><time>2026-04-19T10:05:10.999Z</time></trkpt><trkpt lat="45.099551272960156" lon="7.36372562234756"><ele>355.0</ele><time>2026-04-19T10:05:11.999Z</time></trkpt><trkpt lat="45.09962265482495" lon="7.363483743542545"><ele>355.0</ele><time>2026-04-19T10:05:12.999Z</time></trkpt><trkpt lat="45.099688936978666" lon="7.363246359272403"><ele>355.0</ele><time>2026-04-19T10:05:13.999Z</time></trkpt><trkpt lat="45.09976602620817" lon="7.363008237507727"><ele>355.0</ele><time>2026-04-19T10:05:14.999Z</time></trkpt><trkpt lat="45.09985385501944" lon="7.362747633406247"><ele>355.3333333333333</ele><time>2026-04-19T10:05:15.999Z</time></trkpt><trkpt lat="45.0999377939504" lon="7.362463594596349"><ele>355.6666666666667</ele><time>2026-04-19T10:05:16.999Z</time></trkpt><trkpt lat="45.10002233572642" lon="7.3621713298896205"><ele>356.0</ele><time>2026-04-19T10:05:17.999Z</time></trkpt><trkpt lat="45.100120713341234" lon="7.361857341615692"><ele>356.0</ele><time>2026-04-19T10:05:18.999Z</time></trkpt><trkpt lat="45.10022186527134" lon="7.361546736137621"><ele>356.0</ele><time>2026-04-19T10:05:19.999Z</time></trkpt><trkpt lat="45.100307435252425" lon="7.3612647338272925"><ele>356.0</ele><time>2026-04-19T10:05:20.999Z</time></trkpt><trkpt lat="45.100386625252426" lon="7.361014181858445"><ele>356.0</ele><time>2026-04-19T10:05:21.999Z</time></trkpt><trkpt lat="45.1004632363107" lon="7.360788029535002"><ele>356.0</ele><time>2026-04-19T10:05:23Z</time></trkpt><trkpt lat="45.100542377094435" lon="7.360584259970665"><ele>356.33333333333337</ele><time>2026-04-19T10:05:24Z</time></trkpt><trkpt lat="45.100626434368266" lon="7.3603958667662726"><ele>356.6666666666667</ele><time>2026-04-19T10:05:25Z</time></trkpt><trkpt lat="45.10072949667357" lon="7.360211788652304"><ele>357.0</ele><time>2026-04-19T10:05:26Z</time></trkpt><trkpt lat="45.100851281132186" lon="7.360019697032725"><ele>357.0</ele><time>2026-04-19T10:05:27Z</time></trkpt><trkpt lat="45.100984138914995" lon="7.359827575476161"><ele>357.0</ele><time>2026-04-19T10:05:28Z</time></trkpt><trkpt lat="45.10111423206264" lon="7.359637132885056"><ele>357.0</ele><time>2026-04-19T10:05:29Z</time></trkpt><trkpt lat="45.101240656274165" lon="7.359457086172091"><ele>357.3333333333333</ele><time>2026-04-19T10:05:30Z</time></trkpt><trkpt lat="45.10135877330733" lon="7.359287463475082"><ele>357.66666666666663</ele><time>2026-04-19T10:05:31Z</time></trkpt><trkpt lat="45.10148035544851" lon="7.3591090658328016"><ele>358.0</ele><time>2026-04-19T10:05:32Z</time></trkpt><trkpt lat="45.101601608699674" lon="7.358930444132033"><ele>357.66666666666663</ele><time>2026-04-19T10:05:33Z</time></trkpt><trkpt lat="45.10172174192445" lon="7.358743689648907"><ele>357.3333333333333</ele><time>2026-04-19T10:05:34Z</time></trkpt><trkpt lat="45.1018271842665" lon="7.358538489752267"><ele>357.0</ele><time>2026-04-19T10:05:35Z</time></trkpt><trkpt lat="45.101911512795745" lon="7.358308389821926"><ele>357.0</ele><time>2026-04-19T10:05:36Z</time></trkpt><trkpt lat="45.10197811175572" lon="7.358059032241115"><ele>357.0</ele><time>2026-04-19T10:05:37Z</time></trkpt><trkpt lat="45.10206012529311" lon="7.357807764497355"><ele>357.0</ele><time>2026-04-19T10:05:38Z</time></trkpt><trkpt lat="45.1021388029376" lon="7.357536678434335"><ele>357.0</ele><time>2026-04-19T10:05:39Z</time></trkpt><trkpt lat="45.10222016713532" lon="7.35725416775375"><ele>357.0</ele><time>2026-04-19T10:05:40Z</time></trkpt><trkpt lat="45.10228684892749" lon="7.356965481108248"><ele>357.0</ele><time>2026-04-19T10:05:41Z</time></trkpt><trkpt lat="45.10237218474703" lon="7.356688075690216"><ele>357.0</ele><time>2026-04-19T10:05:42Z</time></trkpt><trkpt lat="45.10245128798577" lon="7.3564092644793435"><ele>357.0</ele><time>2026-04-19T10:05:43Z</time></trkpt><trkpt lat="45.102531608683016" lon="7.3561283196129805"><ele>357.0</ele><time>2026-04-19T10:05:44Z</time></trkpt><trkpt lat="45.10261227193369" lon="7.355845247556508"><ele>357.3333333333333</ele><time>2026-04-19T10:05:45Z</time></trkpt><trkpt lat="45.102693985143695" lon="7.355560763458263"><ele>357.66666666666663</ele><time>2026-04-19T10:05:46Z</time></trkpt><trkpt lat="45.102777796259424" lon="7.355275785746036"><ele>358.0</ele><time>2026-04-19T10:05:47Z</time></trkpt><trkpt lat="45.102862319917435" lon="7.354979067108812"><ele>358.0</ele><time>2026-04-19T10:05:48Z</time></trkpt><trkpt lat="45.10294830007188" lon="7.354662880101372"><ele>358.0</ele><time>2026-04-19T10:05:49Z</time></trkpt><trkpt lat="45.103057984451205" lon="7.354325900140971"><ele>358.0</ele><time>2026-04-19T10:05:50Z</time></trkpt><trkpt lat="45.10316870521746" lon="7.353943037116417"><ele>358.0</ele><time>2026-04-19T10:05:51Z</time></trkpt><trkpt lat="45.103277450874344" lon="7.353567003849555"><ele>358.0</ele><time>2026-04-19T10:05:52Z</time></trkpt><trkpt lat="45.10337507401931" lon="7.35319222514125"><ele>358.0</ele><time>2026-04-19T10:05:53Z</time></trkpt><trkpt lat="45.103483912643114" lon="7.3528266652910785"><ele>358.0</ele><time>2026-04-19T10:05:54Z</time></trkpt><trkpt lat="45.10359027363671" lon="7.3524592106982976"><ele>358.0</ele><time>2026-04-19T10:05:55Z</time></trkpt><trkpt lat="45.10369427107397" lon="7.352092259158262"><ele>358.0</ele><time>2026-04-19T10:05:56Z</time></trkpt><trkpt lat="45.10379711416146" lon="7.351724792170912"><ele>358.0</ele><time>2026-04-19T10:05:57Z</time></trkpt><trkpt lat="45.10389729160238" lon="7.3513696746772474"><ele>358.5</ele><time>2026-04-19T10:05:58Z</time></trkpt><trkpt lat="45.10399258521106" lon="7.351045437205838"><ele>359.0</ele><time>2026-04-19T10:05:59Z</time></trkpt><trkpt lat="45.10407837094666" lon="7.350747766024139"><ele>360.0</ele><time>2026-04-19T10:06:00Z</time></trkpt><trkpt lat="45.10415009847937" lon="7.350504441083117"><ele>361.0</ele><time>2026-04-19T10:06:01Z</time></trkpt><trkpt lat="45.10421420694544" lon="7.350309907967874"><ele>362.0</ele><time>2026-04-19T10:06:02Z</time></trkpt><trkpt lat="45.10428037900361" lon="7.350143768580121"><ele>362.0</ele><time>2026-04-19T10:06:03Z</time></trkpt><trkpt lat="45.10436624941872" lon="7.350039711808315"><ele>362.0</ele><time>2026-04-19T10:06:04Z</time></trkpt><trkpt lat="45.10445267860638" lon="7.349964204135894"><ele>362.0</ele><time>2026-04-19T10:06:05Z</time></trkpt><trkpt lat="45.1044680586523" lon="7.349807070537392"><ele>362.0</ele><time>2026-04-19T10:06:06Z</time></trkpt><trkpt lat="45.10444262071229" lon="7.349610618142111"><ele>362.0</ele><time>2026-04-19T10:06:06.999Z</time></trkpt><trkpt lat="45.10440829110844" lon="7.349387512931109"><ele>362.0</ele><time>2026-04-19T10:06:07.999Z</time></trkpt><trkpt lat="45.10443852938922" lon="7.349134667677509"><ele>362.0</ele><time>2026-04-19T10:06:08.999Z</time></trkpt><trkpt lat="45.104492470379434" lon="7.348862608442953"><ele>361.5</ele><time>2026-04-19T10:06:09.999Z</time></trkpt><trkpt lat="45.104496978695565" lon="7.348554849495043"><ele>361.0</ele><time>2026-04-19T10:06:10.999Z</time></trkpt><trkpt lat="45.10453123044456" lon="7.3482164872831754"><ele>361.5</ele><time>2026-04-19T10:06:11.999Z</time></trkpt><trkpt lat="45.10455197969532" lon="7.347853996631554"><ele>362.0</ele><time>2026-04-19T10:06:12.999Z</time></trkpt><trkpt lat="45.10456530727514" lon="7.347477191420526"><ele>362.5</ele><time>2026-04-19T10:06:13.999Z</time></trkpt><trkpt lat="45.104591303894004" lon="7.347081460173809"><ele>363.0</ele><time>2026-04-19T10:06:14.999Z</time></trkpt><trkpt lat="45.10462052224313" lon="7.346660565298709"><ele>362.0</ele><time>2026-04-19T10:06:15.999Z</time></trkpt><trkpt lat="45.10463564140562" lon="7.346239227357297"><ele>361.0</ele><time>2026-04-19T10:06:16.999Z</time></trkpt><trkpt lat="45.10465110596063" lon="7.345807838274812"><ele>361.5</ele><time>2026-04-19T10:06:17.999Z</time></trkpt><trkpt lat="45.10467836693609" lon="7.345358838115234"><ele>362.0</ele><time>2026-04-19T10:06:18.999Z</time></trkpt><trkpt lat="45.10470255953882" lon="7.344916497139805"><ele>361.5</ele><time>2026-04-19T10:06:19.999Z</time></trkpt><trkpt lat="45.10472319214773" lon="7.344507642702218"><ele>361.0</ele><time>2026-04-19T10:06:20.999Z</time></trkpt><trkpt lat="45.10474633098622" lon="7.344117207186251"><ele>361.0</ele><time>2026-04-19T10:06:21.999Z</time></trkpt><trkpt lat="45.10476703068394" lon="7.343747659762626"><ele>361.0</ele><time>2026-04-19T10:06:22.999Z</time></trkpt><trkpt lat="45.104785091202" lon="7.343400252597112"><ele>361.0</ele><time>2026-04-19T10:06:23.999Z</time></trkpt><trkpt lat="45.104802292970504" lon="7.343054043151171"><ele>361.0</ele><time>2026-04-19T10:06:24.999Z</time></trkpt><trkpt lat="45.10482061044685" lon="7.342701455269267"><ele>362.0</ele><time>2026-04-19T10:06:25.999Z</time></trkpt><trkpt lat="45.10483943430025" lon="7.342348585332304"><ele>363.0</ele><time>2026-04-19T10:06:26.999Z</time></trkpt><trkpt lat="45.10485692847935" lon="7.341990321477441"><ele>365.5</ele><time>2026-04-19T10:06:27.999Z</time></trkpt><trkpt lat="45.104892955173824" lon="7.341620681796882"><ele>368.0</ele><time>2026-04-19T10:06:28.999Z</time></trkpt><trkpt lat="45.1049035048032" lon="7.3412362994845415"><ele>365.0</ele><time>2026-04-19T10:06:29.999Z</time></trkpt><trkpt lat="45.10493283564258" lon="7.340847389295219"><ele>362.0</ele><time>2026-04-19T10:06:30.999Z</time></trkpt><trkpt lat="45.10495552257679" lon="7.340447272977307"><ele>362.0</ele><time>2026-04-19T10:06:31.999Z</time></trkpt><trkpt lat="45.10497504845038" lon="7.34004062889858"><ele>362.0</ele><time>2026-04-19T10:06:32.999Z</time></trkpt><trkpt lat="45.104995014095685" lon="7.339633295564035"><ele>362.0</ele><time>2026-04-19T10:06:33.999Z</time></trkpt><trkpt lat="45.10501686321705" lon="7.339228389767424"><ele>362.0</ele><time>2026-04-19T10:06:34.999Z</time></trkpt><trkpt lat="45.10503819313231" lon="7.338832931332736"><ele>361.5</ele><time>2026-04-19T10:06:35.999Z</time></trkpt><trkpt lat="45.10505929714315" lon="7.338446970982813"><ele>361.0</ele><time>2026-04-19T10:06:36.999Z</time></trkpt><trkpt lat="45.10508014546393" lon="7.3380668509680635"><ele>361.5</ele><time>2026-04-19T10:06:37.999Z</time></trkpt><trkpt lat="45.10510002531383" lon="7.337695356866678"><ele>362.0</ele><time>2026-04-19T10:06:38.999Z</time></trkpt><trkpt lat="45.10511980128605" lon="7.337331856991571"><ele>363.0</ele><time>2026-04-19T10:06:39.999Z</time></trkpt><trkpt lat="45.10513768482099" lon="7.336984568631147"><ele>364.0</ele><time>2026-04-19T10:06:40.999Z</time></trkpt><trkpt lat="45.105156373960206" lon="7.336643734048997"><ele>363.5</ele><time>2026-04-19T10:06:41.999Z</time></trkpt><trkpt lat="45.10517349818" lon="7.336296160326256"><ele>363.0</ele><time>2026-04-19T10:06:42.999Z</time></trkpt><trkpt lat="45.10518917622458" lon="7.33594703698534"><ele>363.0</ele><time>2026-04-19T10:06:43.999Z</time></trkpt><trkpt lat="45.105208784627514" lon="7.3356069556111825"><ele>363.0</ele><time>2026-04-19T10:06:44.999Z</time></trkpt><trkpt lat="45.10522902690188" lon="7.335275217607853"><ele>363.0</ele><time>2026-04-19T10:06:45.999Z</time></trkpt><trkpt lat="45.10524660217122" lon="7.334947003404331"><ele>363.0</ele><time>2026-04-19T10:06:46.999Z</time></trkpt><trkpt lat="45.10526452958506" lon="7.334627897812673"><ele>363.0</ele><time>2026-04-19T10:06:47.999Z</time></trkpt><trkpt lat="45.10528262779414" lon="7.33433017039178"><ele>363.0</ele><time>2026-04-19T10:06:48.999Z</time></trkpt><trkpt lat="45.10530157305705" lon="7.3340447578315215"><ele>363.0</ele><time>2026-04-19T10:06:49.999Z</time></trkpt><trkpt lat="45.105316718399145" lon="7.333771058492224"><ele>363.0</ele><time>2026-04-19T10:06:50.999Z</time></trkpt><trkpt lat="45.105328551537305" lon="7.3335101151704"><ele>363.0</ele><time>2026-04-19T10:06:51.999Z</time></trkpt><trkpt lat="45.1053423945953" lon="7.333265178201817"><ele>363.0</ele><time>2026-04-19T10:06:52.999Z</time></trkpt><trkpt lat="45.10535343718809" lon="7.333024274499833"><ele>363.0</ele><time>2026-04-19T10:06:53.999Z</time></trkpt><trkpt lat="45.10536263978422" lon="7.332779182130181"><ele>363.0</ele><time>2026-04-19T10:06:54.999Z</time></trkpt><trkpt lat="45.105375264764874" lon="7.332533421582907"><ele>363.0</ele><time>2026-04-19T10:06:55.999Z</time></trkpt><trkpt lat="45.10539001548191" lon="7.33229067410643"><ele>363.3333333333333</ele><time>2026-04-19T10:06:56.999Z</time></trkpt><trkpt lat="45.10540289503283" lon="7.3320379306490535"><ele>363.66666666666663</ele><time>2026-04-19T10:06:57.999Z</time></trkpt><trkpt lat="45.10541257838377" lon="7.331778217535334"><ele>364.0</ele><time>2026-04-19T10:06:58.999Z</time></trkpt><trkpt lat="45.105417811946346" lon="7.3315113594717864"><ele>364.0</ele><time>2026-04-19T10:06:59.999Z</time></trkpt><trkpt lat="45.10543558083068" lon="7.33125371750663"><ele>364.0</ele><time>2026-04-19T10:07:00.999Z</time></trkpt><trkpt lat="45.10544791574314" lon="7.330977290646043"><ele>364.0</ele><time>2026-04-19T10:07:01.999Z</time></trkpt><trkpt lat="45.10546722931689" lon="7.33070550472295"><ele>364.66666666666663</ele><time>2026-04-19T10:07:02.999Z</time></trkpt><trkpt lat="45.105482480735645" lon="7.3304301194197246"><ele>365.3333333333333</ele><time>2026-04-19T10:07:03.999Z</time></trkpt><trkpt lat="45.10549469016349" lon="7.330157499660523"><ele>366.0</ele><time>2026-04-19T10:07:04.999Z</time></trkpt><trkpt lat="45.10550657694414" lon="7.329886975427454"><ele>366.0</ele><time>2026-04-19T10:07:05.999Z</time></trkpt><trkpt lat="45.10551748954818" lon="7.329617946830356"><ele>366.0</ele><time>2026-04-19T10:07:06.999Z</time></trkpt><trkpt lat="45.10552681617757" lon="7.329353167786162"><ele>366.0</ele><time>2026-04-19T10:07:07.999Z</time></trkpt><trkpt lat="45.10554176938596" lon="7.329086964965753"><ele>365.6666666666667</ele><time>2026-04-19T10:07:08.999Z</time></trkpt><trkpt lat="45.10555502955739" lon="7.3288108058110035"><ele>365.33333333333337</ele><time>2026-04-19T10:07:09.999Z</time></trkpt><trkpt lat="45.105571553434636" lon="7.328540765744633"><ele>365.0</ele><time>2026-04-19T10:07:10.999Z</time></trkpt><trkpt lat="45.1055859915593" lon="7.328264574146838"><ele>365.33333333333337</ele><time>2026-04-19T10:07:11.999Z</time></trkpt><trkpt lat="45.105599941794495" lon="7.32798218600655"><ele>365.6666666666667</ele><time>2026-04-19T10:07:12.999Z</time></trkpt><trkpt lat="45.105616455152074" lon="7.327703062233767"><ele>366.0</ele><time>2026-04-19T10:07:13.999Z</time></trkpt><trkpt lat="45.10563271351845" lon="7.327425457876605"><ele>366.3333333333333</ele><time>2026-04-19T10:07:14.999Z</time></trkpt><trkpt lat="45.10564485721285" lon="7.327171752447057"><ele>366.66666666666663</ele><time>2026-04-19T10:07:15.999Z</time></trkpt><trkpt lat="45.10565936614253" lon="7.326931471211807"><ele>367.0</ele><time>2026-04-19T10:07:16.999Z</time></trkpt><trkpt lat="45.10567256588289" lon="7.32669297850668"><ele>367.0</ele><time>2026-04-19T10:07:17.999Z</time></trkpt><trkpt lat="45.10568632700262" lon="7.326453381028229"><ele>367.0</ele><time>2026-04-19T10:07:18.999Z</time></trkpt><trkpt lat="45.10569922545423" lon="7.326216134385422"><ele>367.0</ele><time>2026-04-19T10:07:19.999Z</time></trkpt><trkpt lat="45.105712531780085" lon="7.325986981011499"><ele>367.0</ele><time>2026-04-19T10:07:20.999Z</time></trkpt><trkpt lat="45.10572450379961" lon="7.325767029954301"><ele>367.0</ele><time>2026-04-19T10:07:21.999Z</time></trkpt><trkpt lat="45.10573326321784" lon="7.325556079078898"><ele>367.0</ele><time>2026-04-19T10:07:22.999Z</time></trkpt><trkpt lat="45.10574505599966" lon="7.325360988162389"><ele>367.0</ele><time>2026-04-19T10:07:23.999Z</time></trkpt><trkpt lat="45.1057602251784" lon="7.325145049720166"><ele>367.0</ele><time>2026-04-19T10:07:24.999Z</time></trkpt><trkpt lat="45.10576762027368" lon="7.324914482123689"><ele>367.0</ele><time>2026-04-19T10:07:25.999Z</time></trkpt><trkpt lat="45.105777291802454" lon="7.32465997292218"><ele>367.0</ele><time>2026-04-19T10:07:26.999Z</time></trkpt><trkpt lat="45.10579028629235" lon="7.324389344948372"><ele>367.0</ele><time>2026-04-19T10:07:28Z</time></trkpt><trkpt lat="45.105805289240855" lon="7.324105892522347"><ele>367.0</ele><time>2026-04-19T10:07:29Z</time></trkpt><trkpt lat="45.1058240426926" lon="7.32382508353299"><ele>367.0</ele><time>2026-04-19T10:07:30Z</time></trkpt><trkpt lat="45.105842391685194" lon="7.323557706637425"><ele>367.3333333333333</ele><time>2026-04-19T10:07:31Z</time></trkpt><trkpt lat="45.10585992184" lon="7.323305623774275"><ele>367.6666666666667</ele><time>2026-04-19T10:07:32Z</time></trkpt><trkpt lat="45.105875949400755" lon="7.323044929527642"><ele>368.0</ele><time>2026-04-19T10:07:33Z</time></trkpt><trkpt lat="45.105889738759224" lon="7.322781451402821"><ele>368.0</ele><time>2026-04-19T10:07:34Z</time></trkpt><trkpt lat="45.10590396823696" lon="7.3225285190680305"><ele>368.0</ele><time>2026-04-19T10:07:35Z</time></trkpt><trkpt lat="45.105917146623995" lon="7.322280496827139"><ele>368.0</ele><time>2026-04-19T10:07:36Z</time></trkpt><trkpt lat="45.10593201396307" lon="7.322027171563686"><ele>368.0</ele><time>2026-04-19T10:07:37Z</time></trkpt><trkpt lat="45.10594579793113" lon="7.321770918549012"><ele>368.0</ele><time>2026-04-19T10:07:38Z</time></trkpt><trkpt lat="45.105957966423084" lon="7.3215157135937625"><ele>368.0</ele><time>2026-04-19T10:07:39Z</time></trkpt><trkpt lat="45.105969745239996" lon="7.321262540933328"><ele>368.33333333333337</ele><time>2026-04-19T10:07:40Z</time></trkpt><trkpt lat="45.10598279095662" lon="7.321012507687595"><ele>368.6666666666667</ele><time>2026-04-19T10:07:41Z</time></trkpt><trkpt lat="45.105994851066455" lon="7.3207777845308675"><ele>369.0</ele><time>2026-04-19T10:07:42Z</time></trkpt><trkpt lat="45.10600807529165" lon="7.320545450688809"><ele>369.0</ele><time>2026-04-19T10:07:43Z</time></trkpt><trkpt lat="45.106019123994095" lon="7.320307132965349"><ele>369.0</ele><time>2026-04-19T10:07:44Z</time></trkpt><trkpt lat="45.10602797400161" lon="7.320070745090451"><ele>369.0</ele><time>2026-04-19T10:07:45Z</time></trkpt><trkpt lat="45.10604137902152" lon="7.319835358190445"><ele>369.0</ele><time>2026-04-19T10:07:46Z</time></trkpt><trkpt lat="45.106054184250446" lon="7.319605019437182"><ele>369.0</ele><time>2026-04-19T10:07:47Z</time></trkpt><trkpt lat="45.10606885092444" lon="7.319363700018745"><ele>369.0</ele><time>2026-04-19T10:07:48Z</time></trkpt><trkpt lat="45.10607998729854" lon="7.319121804879641"><ele>369.0</ele><time>2026-04-19T10:07:49Z</time></trkpt><trkpt lat="45.106090016108695" lon="7.318878156810176"><ele>369.0</ele><time>2026-04-19T10:07:50Z</time></trkpt><trkpt lat="45.10610118740311" lon="7.318626779232232"><ele>369.0</ele><time>2026-04-19T10:07:51Z</time></trkpt><trkpt lat="45.10611466597529" lon="7.318374881546194"><ele>369.0</ele><time>2026-04-19T10:07:52Z</time></trkpt><trkpt lat="45.1061278648714" lon="7.318122132691312"><ele>369.0</ele><time>2026-04-19T10:07:53Z</time></trkpt><trkpt lat="45.106140057204115" lon="7.317865869678029"><ele>369.0</ele><time>2026-04-19T10:07:54Z</time></trkpt><trkpt lat="45.10615270542783" lon="7.317612743240741"><ele>369.0</ele><time>2026-04-19T10:07:55Z</time></trkpt><trkpt lat="45.10616572394601" lon="7.317354847715341"><ele>369.0</ele><time>2026-04-19T10:07:55.999Z</time></trkpt><trkpt lat="45.10617808786854" lon="7.317099771753498"><ele>369.0</ele><time>2026-04-19T10:07:56.999Z</time></trkpt><trkpt lat="45.106191241097676" lon="7.316848635595637"><ele>369.0</ele><time>2026-04-19T10:07:57.999Z</time></trkpt><trkpt lat="45.1062053944585" lon="7.316604668207617"><ele>369.0</ele><time>2026-04-19T10:07:58.999Z</time></trkpt><trkpt lat="45.1062166328728" lon="7.316361140083183"><ele>369.0</ele><time>2026-04-19T10:07:59.999Z</time></trkpt><trkpt lat="45.106226966020444" lon="7.316117959052236"><ele>369.0</ele><time>2026-04-19T10:08:00.999Z</time></trkpt><trkpt lat="45.10624005032715" lon="7.315892040342004"><ele>369.0</ele><time>2026-04-19T10:08:01.999Z</time></trkpt><trkpt lat="45.10625266563653" lon="7.3156698712768895"><ele>369.0</ele><time>2026-04-19T10:08:02.999Z</time></trkpt><trkpt lat="45.106264547422" lon="7.315460385859432"><ele>369.0</ele><time>2026-04-19T10:08:03.999Z</time></trkpt><trkpt lat="45.10627799811706" lon="7.315264610242075"><ele>369.0</ele><time>2026-04-19T10:08:04.999Z</time></trkpt><trkpt lat="45.106286753892554" lon="7.315075733117217"><ele>369.0</ele><time>2026-04-19T10:08:05.999Z</time></trkpt><trkpt lat="45.10629431101479" lon="7.314900052584518"><ele>369.0</ele><time>2026-04-19T10:08:06.999Z</time></trkpt><trkpt lat="45.10630045906268" lon="7.314721159698751"><ele>369.0</ele><time>2026-04-19T10:08:07.999Z</time></trkpt><trkpt lat="45.10630694797091" lon="7.314542554949622"><ele>369.0</ele><time>2026-04-19T10:08:08.999Z</time></trkpt><trkpt lat="45.106316562130786" lon="7.31437043817262"><ele>369.0</ele><time>2026-04-19T10:08:09.999Z</time></trkpt><trkpt lat="45.10632608952026" lon="7.314199302157892"><ele>369.0</ele><time>2026-04-19T10:08:10.999Z</time></trkpt><trkpt lat="45.106335664864844" lon="7.314031427934492"><ele>368.75</ele><time>2026-04-19T10:08:11.999Z</time></trkpt><trkpt lat="45.1063451513776" lon="7.313863146078244"><ele>368.5</ele><time>2026-04-19T10:08:12.999Z</time></trkpt><trkpt lat="45.10635426407281" lon="7.31369009444168"><ele>368.25</ele><time>2026-04-19T10:08:13.999Z</time></trkpt><trkpt lat="45.10636062691644" lon="7.313510128937533"><ele>368.0</ele><time>2026-04-19T10:08:14.999Z</time></trkpt><trkpt lat="45.106369815998214" lon="7.313330534560335"><ele>368.0</ele><time>2026-04-19T10:08:15.999Z</time></trkpt><trkpt lat="45.10638027947065" lon="7.313145225944769"><ele>368.0</ele><time>2026-04-19T10:08:16.999Z</time></trkpt><trkpt lat="45.106390464405614" lon="7.312959837601208"><ele>368.0</ele><time>2026-04-19T10:08:17.999Z</time></trkpt><trkpt lat="45.10640199909221" lon="7.312784446130967"><ele>368.0</ele><time>2026-04-19T10:08:18.999Z</time></trkpt><trkpt lat="45.10641227100453" lon="7.312617044547593"><ele>368.59999999999997</ele><time>2026-04-19T10:08:19.999Z</time></trkpt><trkpt lat="45.1064220499926" lon="7.312462320320879"><ele>369.2</ele><time>2026-04-19T10:08:20.999Z</time></trkpt><trkpt lat="45.10642823072449" lon="7.31231067421927"><ele>369.8</ele><time>2026-04-19T10:08:21.999Z</time></trkpt><trkpt lat="45.106434277585315" lon="7.3121675524219025"><ele>370.4</ele><time>2026-04-19T10:08:22.999Z</time></trkpt><trkpt lat="45.10644134545601" lon="7.312036059234502"><ele>371.0</ele><time>2026-04-19T10:08:23.999Z</time></trkpt><trkpt lat="45.10644578863354" lon="7.311932057602186"><ele>371.20000000000005</ele><time>2026-04-19T10:08:24.999Z</time></trkpt><trkpt lat="45.1064634718089" lon="7.311768635728481"><ele>371.40000000000003</ele><time>2026-04-19T10:08:26.999Z</time></trkpt><trkpt lat="45.10651609682941" lon="7.311620765827577"><ele>371.6</ele><time>2026-04-19T10:08:28.999Z</time></trkpt><trkpt lat="45.10656675495717" lon="7.311543542414627"><ele>371.8</ele><time>2026-04-19T10:08:29.999Z</time></trkpt><trkpt lat="45.106613620011935" lon="7.311450870422672"><ele>372.0</ele><time>2026-04-19T10:08:30.999Z</time></trkpt><trkpt lat="45.106634401864454" lon="7.311344147653199"><ele>371.6666666666667</ele><time>2026-04-19T10:08:31.999Z</time></trkpt><trkpt lat="45.10661226218044" lon="7.311235072607247"><ele>371.3333333333333</ele><time>2026-04-19T10:08:32.999Z</time></trkpt><trkpt lat="45.10657573500319" lon="7.311131535552312"><ele>371.0</ele><time>2026-04-19T10:08:33.999Z</time></trkpt><trkpt lat="45.106542165335725" lon="7.311031895331765"><ele>370.66666666666663</ele><time>2026-04-19T10:08:34.999Z</time></trkpt><trkpt lat="45.10649714133577" lon="7.310941880645409"><ele>370.3333333333333</ele><time>2026-04-19T10:08:35.999Z</time></trkpt><trkpt lat="45.10651374388815" lon="7.310776903220689"><ele>370.0</ele><time>2026-04-19T10:08:36.999Z</time></trkpt><trkpt lat="45.10651742589375" lon="7.310643256969595"><ele>370.25</ele><time>2026-04-19T10:08:37.999Z</time></trkpt><trkpt lat="45.10652263751779" lon="7.310505746459684"><ele>370.5</ele><time>2026-04-19T10:08:38.999Z</time></trkpt><trkpt lat="45.106526906431085" lon="7.310354325846624"><ele>370.75</ele><time>2026-04-19T10:08:39.999Z</time></trkpt><trkpt lat="45.10653190794527" lon="7.310188587285571"><ele>371.0</ele><time>2026-04-19T10:08:40.999Z</time></trkpt><trkpt lat="45.106540708458226" lon="7.310001739887802"><ele>371.0</ele><time>2026-04-19T10:08:41.999Z</time></trkpt><trkpt lat="45.10655252143341" lon="7.3098112368885255"><ele>371.0</ele><time>2026-04-19T10:08:42.999Z</time></trkpt><trkpt lat="45.1065638849169" lon="7.309624504823001"><ele>371.0</ele><time>2026-04-19T10:08:43.999Z</time></trkpt><trkpt lat="45.106571571639854" lon="7.3094293738003575"><ele>371.0</ele><time>2026-04-19T10:08:44.999Z</time></trkpt><trkpt lat="45.106582039045016" lon="7.309214987207031"><ele>370.6666666666667</ele><time>2026-04-19T10:08:45.999Z</time></trkpt><trkpt lat="45.10659129161119" lon="7.3089718080692165"><ele>370.3333333333333</ele><time>2026-04-19T10:08:46.999Z</time></trkpt><trkpt lat="45.1066206819569" lon="7.308712194335421"><ele>370.0</ele><time>2026-04-19T10:08:47.999Z</time></trkpt><trkpt lat="45.10663541349467" lon="7.308434373976361"><ele>370.0</ele><time>2026-04-19T10:08:48.999Z</time></trkpt><trkpt lat="45.1066515820884" lon="7.308129452373073"><ele>370.0</ele><time>2026-04-19T10:08:49.999Z</time></trkpt><trkpt lat="45.10666928376358" lon="7.307795618634316"><ele>370.0</ele><time>2026-04-19T10:08:50.999Z</time></trkpt><trkpt lat="45.10667541233612" lon="7.30745901400147"><ele>370.0</ele><time>2026-04-19T10:08:51.999Z</time></trkpt><trkpt lat="45.106706369413736" lon="7.307130241388551"><ele>370.0</ele><time>2026-04-19T10:08:52.999Z</time></trkpt><trkpt lat="45.1067250095883" lon="7.306787930044394"><ele>370.0</ele><time>2026-04-19T10:08:53.999Z</time></trkpt><trkpt lat="45.106739518931015" lon="7.306447009930323"><ele>370.5</ele><time>2026-04-19T10:08:54.999Z</time></trkpt><trkpt lat="45.10675555840501" lon="7.306113159209223"><ele>371.0</ele><time>2026-04-19T10:08:55.999Z</time></trkpt><trkpt lat="45.10677226680647" lon="7.30578147643519"><ele>372.5</ele><time>2026-04-19T10:08:56.999Z</time></trkpt><trkpt lat="45.10678794773251" lon="7.305438428012468"><ele>374.0</ele><time>2026-04-19T10:08:57.999Z</time></trkpt><trkpt lat="45.10680384765759" lon="7.305090967954925"><ele>374.5</ele><time>2026-04-19T10:08:58.999Z</time></trkpt><trkpt lat="45.1068221416929" lon="7.304738192316521"><ele>375.0</ele><time>2026-04-19T10:08:59.999Z</time></trkpt><trkpt lat="45.10683854553625" lon="7.304391292380528"><ele>375.0</ele><time>2026-04-19T10:09:00.999Z</time></trkpt><trkpt lat="45.10685749821793" lon="7.304046588704383"><ele>375.0</ele><time>2026-04-19T10:09:01.999Z</time></trkpt><trkpt lat="45.106873794148406" lon="7.303686808093439"><ele>374.5</ele><time>2026-04-19T10:09:02.999Z</time></trkpt><trkpt lat="45.10689171560836" lon="7.3033296591082815"><ele>374.0</ele><time>2026-04-19T10:09:03.999Z</time></trkpt><trkpt lat="45.10690792741856" lon="7.302970220424349"><ele>373.5</ele><time>2026-04-19T10:09:04.999Z</time></trkpt><trkpt lat="45.106923837911154" lon="7.302611612094489"><ele>373.0</ele><time>2026-04-19T10:09:05.999Z</time></trkpt><trkpt lat="45.106942228299175" lon="7.302253127938883"><ele>373.0</ele><time>2026-04-19T10:09:06.999Z</time></trkpt><trkpt lat="45.106959549688234" lon="7.301894618109346"><ele>373.0</ele><time>2026-04-19T10:09:07.999Z</time></trkpt><trkpt lat="45.10697485503774" lon="7.301530487130998"><ele>373.0</ele><time>2026-04-19T10:09:08.999Z</time></trkpt><trkpt lat="45.106993407083365" lon="7.301161834081074"><ele>373.0</ele><time>2026-04-19T10:09:09.999Z</time></trkpt><trkpt lat="45.10701373685655" lon="7.300790887162492"><ele>373.5</ele><time>2026-04-19T10:09:10.999Z</time></trkpt><trkpt lat="45.10703131108377" lon="7.300417131838838"><ele>374.0</ele><time>2026-04-19T10:09:11.999Z</time></trkpt><trkpt lat="45.1070453091451" lon="7.300044099482395"><ele>373.5</ele><time>2026-04-19T10:09:12.999Z</time></trkpt><trkpt lat="45.10705960080629" lon="7.299673640310991"><ele>373.0</ele><time>2026-04-19T10:09:13.999Z</time></trkpt><trkpt lat="45.10707760634976" lon="7.299306652125321"><ele>373.0</ele><time>2026-04-19T10:09:14.999Z</time></trkpt><trkpt lat="45.10709523992752" lon="7.298938382614316"><ele>373.0</ele><time>2026-04-19T10:09:15.999Z</time></trkpt><trkpt lat="45.107110775569915" lon="7.2985760930407455"><ele>372.5</ele><time>2026-04-19T10:09:16.999Z</time></trkpt><trkpt lat="45.10712623396054" lon="7.298217086681042"><ele>372.0</ele><time>2026-04-19T10:09:17.999Z</time></trkpt><trkpt lat="45.10713850428325" lon="7.297864651542585"><ele>372.5</ele><time>2026-04-19T10:09:18.999Z</time></trkpt><trkpt lat="45.107153356689615" lon="7.2975168889832664"><ele>373.0</ele><time>2026-04-19T10:09:19.999Z</time></trkpt><trkpt lat="45.10716630765517" lon="7.297157643936866"><ele>373.0</ele><time>2026-04-19T10:09:20.999Z</time></trkpt><trkpt lat="45.1072002033812" lon="7.296792745189054"><ele>373.0</ele><time>2026-04-19T10:09:21.999Z</time></trkpt><trkpt lat="45.10721760765516" lon="7.296427234782157"><ele>373.0</ele><time>2026-04-19T10:09:22.999Z</time></trkpt><trkpt lat="45.107220244416936" lon="7.296055604374175"><ele>373.0</ele><time>2026-04-19T10:09:23.999Z</time></trkpt><trkpt lat="45.107242710553116" lon="7.29568239597239"><ele>373.0</ele><time>2026-04-19T10:09:24.999Z</time></trkpt><trkpt lat="45.10726285455903" lon="7.29530688617923"><ele>373.0</ele><time>2026-04-19T10:09:25.999Z</time></trkpt><trkpt lat="45.107278789068346" lon="7.294930627594547"><ele>373.0</ele><time>2026-04-19T10:09:26.999Z</time></trkpt><trkpt lat="45.10729554589524" lon="7.294557351833958"><ele>373.0</ele><time>2026-04-19T10:09:27.999Z</time></trkpt><trkpt lat="45.107311229110934" lon="7.294182197147037"><ele>373.5</ele><time>2026-04-19T10:09:28.999Z</time></trkpt><trkpt lat="45.107325756281604" lon="7.293806632009482"><ele>374.0</ele><time>2026-04-19T10:09:29.999Z</time></trkpt><trkpt lat="45.10734133474037" lon="7.293433533517233"><ele>374.0</ele><time>2026-04-19T10:09:30.999Z</time></trkpt><trkpt lat="45.10736119713758" lon="7.2930864098287715"><ele>374.0</ele><time>2026-04-19T10:09:31.999Z</time></trkpt><trkpt lat="45.10737486377976" lon="7.292748786154928"><ele>374.0</ele><time>2026-04-19T10:09:32.999Z</time></trkpt><trkpt lat="45.10739236638194" lon="7.292433610617628"><ele>374.0</ele><time>2026-04-19T10:09:33.999Z</time></trkpt><trkpt lat="45.10740746727776" lon="7.292132845911512"><ele>374.0</ele><time>2026-04-19T10:09:34.999Z</time></trkpt><trkpt lat="45.107418828644064" lon="7.291843565684743"><ele>374.0</ele><time>2026-04-19T10:09:35.999Z</time></trkpt><trkpt lat="45.10742655708219" lon="7.291571278925928"><ele>374.0</ele><time>2026-04-19T10:09:36.999Z</time></trkpt><trkpt lat="45.10743757719791" lon="7.291308636957951"><ele>374.0</ele><time>2026-04-19T10:09:37.999Z</time></trkpt><trkpt lat="45.107448671541086" lon="7.2910574569641105"><ele>374.0</ele><time>2026-04-19T10:09:38.999Z</time></trkpt><trkpt lat="45.10746319637826" lon="7.2908213356017475"><ele>374.0</ele><time>2026-04-19T10:09:39.999Z</time></trkpt><trkpt lat="45.10747170888245" lon="7.290591616460053"><ele>374.0</ele><time>2026-04-19T10:09:40.999Z</time></trkpt><trkpt lat="45.10747632649418" lon="7.290381871174391"><ele>374.75</ele><time>2026-04-19T10:09:41.999Z</time></trkpt><trkpt lat="45.10748594086442" lon="7.290175642377357"><ele>375.5</ele><time>2026-04-19T10:09:42.999Z</time></trkpt><trkpt lat="45.1074957720806" lon="7.289980062360773"><ele>376.25</ele><time>2026-04-19T10:09:43.999Z</time></trkpt><trkpt lat="45.107505934225806" lon="7.289804518835674"><ele>377.0</ele><time>2026-04-19T10:09:44.999Z</time></trkpt><trkpt lat="45.10750413647678" lon="7.289656353124222"><ele>377.0</ele><time>2026-04-19T10:09:45.999Z</time></trkpt><trkpt lat="45.107530496448355" lon="7.2895351162687065"><ele>377.0</ele><time>2026-04-19T10:09:46.999Z</time></trkpt><trkpt lat="45.107567456780544" lon="7.289430940368097"><ele>377.0</ele><time>2026-04-19T10:09:47.999Z</time></trkpt><trkpt lat="45.10766269913259" lon="7.289259880493204"><ele>377.0</ele><time>2026-04-19T10:09:49Z</time></trkpt><trkpt lat="45.10766605120904" lon="7.28912409470667"><ele>377.0</ele><time>2026-04-19T10:09:50Z</time></trkpt><trkpt lat="45.10763405416782" lon="7.288958495438418"><ele>377.0</ele><time>2026-04-19T10:09:51Z</time></trkpt><trkpt lat="45.10757699581855" lon="7.28880107128152"><ele>377.0</ele><time>2026-04-19T10:09:52Z</time></trkpt><trkpt lat="45.107559111000775" lon="7.288612670003103"><ele>377.0</ele><time>2026-04-19T10:09:53Z</time></trkpt><trkpt lat="45.10756742392771" lon="7.288404918108721"><ele>377.0</ele><time>2026-04-19T10:09:54Z</time></trkpt><trkpt lat="45.10757537173274" lon="7.288174547828186"><ele>377.6666666666667</ele><time>2026-04-19T10:09:55Z</time></trkpt><trkpt lat="45.10758335457278" lon="7.287923684799468"><ele>378.3333333333333</ele><time>2026-04-19T10:09:56Z</time></trkpt><trkpt lat="45.107595881832566" lon="7.28767025317685"><ele>379.0</ele><time>2026-04-19T10:09:57Z</time></trkpt><trkpt lat="45.107603135079614" lon="7.287409574613677"><ele>378.3333333333333</ele><time>2026-04-19T10:09:58Z</time></trkpt><trkpt lat="45.10760892076994" lon="7.287144009999119"><ele>377.6666666666667</ele><time>2026-04-19T10:09:59Z</time></trkpt><trkpt lat="45.107625840886925" lon="7.286866589504195"><ele>377.0</ele><time>2026-04-19T10:10:00Z</time></trkpt><trkpt lat="45.107640000303576" lon="7.28658787603057"><ele>376.6666666666667</ele><time>2026-04-19T10:10:01Z</time></trkpt><trkpt lat="45.10765985988619" lon="7.286306903119215"><ele>376.3333333333333</ele><time>2026-04-19T10:10:02Z</time></trkpt><trkpt lat="45.10767414799328" lon="7.286036808460088"><ele>376.0</ele><time>2026-04-19T10:10:03Z</time></trkpt><trkpt lat="45.10768249832115" lon="7.285785620991558"><ele>376.0</ele><time>2026-04-19T10:10:04Z</time></trkpt><trkpt lat="45.10769133080383" lon="7.285557788923168"><ele>376.0</ele><time>2026-04-19T10:10:05Z</time></trkpt><trkpt lat="45.10769918057161" lon="7.285334385402682"><ele>376.0</ele><time>2026-04-19T10:10:06Z</time></trkpt><trkpt lat="45.1077097956539" lon="7.285106831758824"><ele>376.0</ele><time>2026-04-19T10:10:07Z</time></trkpt><trkpt lat="45.10772011914425" lon="7.2848812529188995"><ele>376.0</ele><time>2026-04-19T10:10:07.999Z</time></trkpt><trkpt lat="45.10773016129524" lon="7.2846618423141605"><ele>376.0</ele><time>2026-04-19T10:10:08.999Z</time></trkpt><trkpt lat="45.107744173370946" lon="7.2844401525132225"><ele>376.3333333333333</ele><time>2026-04-19T10:10:09.999Z</time></trkpt><trkpt lat="45.10775443230847" lon="7.284214990087344"><ele>376.6666666666667</ele><time>2026-04-19T10:10:10.999Z</time></trkpt><trkpt lat="45.10776237439331" lon="7.2839865116719364"><ele>377.0</ele><time>2026-04-19T10:10:11.999Z</time></trkpt><trkpt lat="45.1077666602986" lon="7.283770790049752"><ele>377.20000000000005</ele><time>2026-04-19T10:10:12.999Z</time></trkpt><trkpt lat="45.107781248889246" lon="7.2835842892343825"><ele>377.4</ele><time>2026-04-19T10:10:13.999Z</time></trkpt><trkpt lat="45.107794534475865" lon="7.283428343414257"><ele>377.6</ele><time>2026-04-19T10:10:14.999Z</time></trkpt><trkpt lat="45.10780041226643" lon="7.283292178786206"><ele>377.79999999999995</ele><time>2026-04-19T10:10:15.999Z</time></trkpt><trkpt lat="45.10780587037321" lon="7.283174982611737"><ele>378.0</ele><time>2026-04-19T10:10:16.999Z</time></trkpt><trkpt lat="45.10780750811223" lon="7.282998394495272"><ele>378.2</ele><time>2026-04-19T10:10:18.999Z</time></trkpt><trkpt lat="45.107813229339285" lon="7.282862736153988"><ele>378.4</ele><time>2026-04-19T10:10:20.999Z</time></trkpt><trkpt lat="45.10781362671771" lon="7.282717223858282"><ele>378.59999999999997</ele><time>2026-04-19T10:11:36.999Z</time></trkpt><trkpt lat="45.10781925551231" lon="7.282592321950214"><ele>378.79999999999995</ele><time>2026-04-19T10:11:37.999Z</time></trkpt><trkpt lat="45.10782895702974" lon="7.282438765033388"><ele>379.0</ele><time>2026-04-19T10:11:39Z</time></trkpt><trkpt lat="45.107834250329425" lon="7.282281542062398"><ele>379.5</ele><time>2026-04-19T10:11:40Z</time></trkpt><trkpt lat="45.107842512421044" lon="7.282107430572337"><ele>380.0</ele><time>2026-04-19T10:11:41Z</time></trkpt><trkpt lat="45.10785608951687" lon="7.281914776027809"><ele>380.5</ele><time>2026-04-19T10:11:42Z</time></trkpt><trkpt lat="45.10786497015187" lon="7.281708611209944"><ele>381.0</ele><time>2026-04-19T10:11:43Z</time></trkpt><trkpt lat="45.10787071514718" lon="7.28149196339963"><ele>381.0</ele><time>2026-04-19T10:11:44Z</time></trkpt><trkpt lat="45.10788145312352" lon="7.281276668555414"><ele>381.0</ele><time>2026-04-19T10:11:45Z</time></trkpt><trkpt lat="45.1078920298252" lon="7.28104779566112"><ele>381.0</ele><time>2026-04-19T10:11:46Z</time></trkpt><trkpt lat="45.1079000045062" lon="7.280813733697987"><ele>381.0</ele><time>2026-04-19T10:11:47Z</time></trkpt><trkpt lat="45.10790920838147" lon="7.280570807794111"><ele>381.0</ele><time>2026-04-19T10:11:48Z</time></trkpt><trkpt lat="45.107920791144664" lon="7.2803205501924175"><ele>381.0</ele><time>2026-04-19T10:11:49Z</time></trkpt><trkpt lat="45.10792993114036" lon="7.280072355461972"><ele>381.0</ele><time>2026-04-19T10:11:50Z</time></trkpt><trkpt lat="45.10794360253146" lon="7.279814445834894"><ele>381.0</ele><time>2026-04-19T10:11:51Z</time></trkpt><trkpt lat="45.107956964662876" lon="7.279548897046727"><ele>381.0</ele><time>2026-04-19T10:11:52Z</time></trkpt><trkpt lat="45.107974436000575" lon="7.279284612398505"><ele>381.0</ele><time>2026-04-19T10:11:53Z</time></trkpt><trkpt lat="45.10799974340126" lon="7.279040477379266"><ele>381.0</ele><time>2026-04-19T10:11:54Z</time></trkpt><trkpt lat="45.10803221112701" lon="7.278808954250394"><ele>381.0</ele><time>2026-04-19T10:11:55Z</time></trkpt><trkpt lat="45.10807370732278" lon="7.278583837027169"><ele>381.0</ele><time>2026-04-19T10:11:56Z</time></trkpt><trkpt lat="45.108125126041145" lon="7.278344851680927"><ele>381.0</ele><time>2026-04-19T10:11:57Z</time></trkpt><trkpt lat="45.10818771099594" lon="7.278120334041298"><ele>381.0</ele><time>2026-04-19T10:11:58Z</time></trkpt><trkpt lat="45.10825039361362" lon="7.277887545430714"><ele>381.3333333333333</ele><time>2026-04-19T10:11:59Z</time></trkpt><trkpt lat="45.10830756911391" lon="7.277660145485383"><ele>381.66666666666663</ele><time>2026-04-19T10:12:00Z</time></trkpt><trkpt lat="45.10836246618053" lon="7.277446147603891"><ele>382.0</ele><time>2026-04-19T10:12:01Z</time></trkpt><trkpt lat="45.10840939379367" lon="7.277257686586689"><ele>382.25</ele><time>2026-04-19T10:12:02Z</time></trkpt><trkpt lat="45.10845180088829" lon="7.277075936900721"><ele>382.5</ele><time>2026-04-19T10:12:03Z</time></trkpt><trkpt lat="45.10849276508796" lon="7.276906843952559"><ele>382.75</ele><time>2026-04-19T10:12:04Z</time></trkpt><trkpt lat="45.10851643592375" lon="7.276743692570317"><ele>383.0</ele><time>2026-04-19T10:12:05Z</time></trkpt><trkpt lat="45.10853172874443" lon="7.276587025977728"><ele>383.0</ele><time>2026-04-19T10:12:06Z</time></trkpt><trkpt lat="45.108547172070196" lon="7.2764417026018124"><ele>383.0</ele><time>2026-04-19T10:12:07Z</time></trkpt><trkpt lat="45.10855790897162" lon="7.276328074366892"><ele>383.0</ele><time>2026-04-19T10:12:08Z</time></trkpt><trkpt lat="45.10856383378467" lon="7.276232285819595"><ele>383.0</ele><time>2026-04-19T10:12:09Z</time></trkpt><trkpt lat="45.108577600788664" lon="7.276033877724689"><ele>383.0</ele><time>2026-04-19T10:12:11Z</time></trkpt><trkpt lat="45.10858431244054" lon="7.275884862048579"><ele>383.5</ele><time>2026-04-19T10:12:12Z</time></trkpt><trkpt lat="45.108592205334595" lon="7.275709815605569"><ele>384.0</ele><time>2026-04-19T10:12:13Z</time></trkpt><trkpt lat="45.108605087162495" lon="7.275508981451804"><ele>384.5</ele><time>2026-04-19T10:12:14Z</time></trkpt><trkpt lat="45.108619150662186" lon="7.2752903992355265"><ele>385.0</ele><time>2026-04-19T10:12:15Z</time></trkpt><trkpt lat="45.1086276337787" lon="7.275068023060759"><ele>385.0</ele><time>2026-04-19T10:12:16Z</time></trkpt><trkpt lat="45.108636466522704" lon="7.27483665462672"><ele>385.0</ele><time>2026-04-19T10:12:17Z</time></trkpt><trkpt lat="45.10864719974545" lon="7.274595037853033"><ele>385.0</ele><time>2026-04-19T10:12:18Z</time></trkpt><trkpt lat="45.10866063547676" lon="7.274344293396666"><ele>384.6666666666667</ele><time>2026-04-19T10:12:19Z</time></trkpt><trkpt lat="45.108665232598355" lon="7.274082220966263"><ele>384.33333333333337</ele><time>2026-04-19T10:12:20Z</time></trkpt><trkpt lat="45.10866010949178" lon="7.273818368451328"><ele>384.0</ele><time>2026-04-19T10:12:21Z</time></trkpt><trkpt lat="45.108641011710596" lon="7.273549715288192"><ele>383.6666666666667</ele><time>2026-04-19T10:12:22Z</time></trkpt><trkpt lat="45.108614169557924" lon="7.273268972668752"><ele>383.33333333333337</ele><time>2026-04-19T10:12:23Z</time></trkpt><trkpt lat="45.10858099431758" lon="7.2729860700511635"><ele>383.0</ele><time>2026-04-19T10:12:24Z</time></trkpt><trkpt lat="45.10853981102525" lon="7.272695170288856"><ele>383.0</ele><time>2026-04-19T10:12:25Z</time></trkpt><trkpt lat="45.10849876486262" lon="7.2723963470666435"><ele>383.0</ele><time>2026-04-19T10:12:26Z</time></trkpt><trkpt lat="45.10845508195995" lon="7.272092162437297"><ele>383.0</ele><time>2026-04-19T10:12:27Z</time></trkpt><trkpt lat="45.10841931505178" lon="7.271751507003353"><ele>383.0</ele><time>2026-04-19T10:12:28Z</time></trkpt><trkpt lat="45.10836430398349" lon="7.271459631794192"><ele>383.0</ele><time>2026-04-19T10:12:29Z</time></trkpt><trkpt lat="45.108320801793454" lon="7.271138152224377"><ele>383.0</ele><time>2026-04-19T10:12:30Z</time></trkpt><trkpt lat="45.108285945527115" lon="7.270818091832698"><ele>383.5</ele><time>2026-04-19T10:12:31Z</time></trkpt><trkpt lat="45.10823908123104" lon="7.270476563772821"><ele>384.0</ele><time>2026-04-19T10:12:32Z</time></trkpt><trkpt lat="45.10819790170437" lon="7.270144511887636"><ele>384.0</ele><time>2026-04-19T10:12:33Z</time></trkpt><trkpt lat="45.1081543914654" lon="7.269813991250342"><ele>384.0</ele><time>2026-04-19T10:12:34Z</time></trkpt><trkpt lat="45.10810954554378" lon="7.269483167030056"><ele>384.0</ele><time>2026-04-19T10:12:35Z</time></trkpt><trkpt lat="45.108063568355035" lon="7.2691501826270875"><ele>384.0</ele><time>2026-04-19T10:12:36Z</time></trkpt><trkpt lat="45.10801460921811" lon="7.268818514056545"><ele>383.5</ele><time>2026-04-19T10:12:37Z</time></trkpt><trkpt lat="45.10796487978764" lon="7.268481204895025"><ele>383.0</ele><time>2026-04-19T10:12:38Z</time></trkpt><trkpt lat="45.10791680387375" lon="7.268144162253067"><ele>382.5</ele><time>2026-04-19T10:12:39Z</time></trkpt><trkpt lat="45.107866408368" lon="7.267806064820295"><ele>382.0</ele><time>2026-04-19T10:12:40Z</time></trkpt><trkpt lat="45.10782265211255" lon="7.2674727342367715"><ele>382.5</ele><time>2026-04-19T10:12:41Z</time></trkpt><trkpt lat="45.10777746848832" lon="7.267142526311718"><ele>383.0</ele><time>2026-04-19T10:12:42Z</time></trkpt><trkpt lat="45.10773365658341" lon="7.266828798915491"><ele>383.0</ele><time>2026-04-19T10:12:43Z</time></trkpt><trkpt lat="45.10769276676908" lon="7.266528184815092"><ele>383.0</ele><time>2026-04-19T10:12:44Z</time></trkpt><trkpt lat="45.1076557292673" lon="7.266244558296213"><ele>383.0</ele><time>2026-04-19T10:12:45Z</time></trkpt><trkpt lat="45.10763157139194" lon="7.2659641387741845"><ele>382.6666666666667</ele><time>2026-04-19T10:12:46Z</time></trkpt><trkpt lat="45.10759042392406" lon="7.265664364440437"><ele>382.3333333333333</ele><time>2026-04-19T10:12:47Z</time></trkpt><trkpt lat="45.10754825486224" lon="7.265357147525163"><ele>382.0</ele><time>2026-04-19T10:12:48Z</time></trkpt><trkpt lat="45.107504196583136" lon="7.265036166880016"><ele>383.0</ele><time>2026-04-19T10:12:49Z</time></trkpt><trkpt lat="45.10745151853069" lon="7.26472971385384"><ele>384.0</ele><time>2026-04-19T10:12:50Z</time></trkpt><trkpt lat="45.107413691935406" lon="7.264447359584204"><ele>385.0</ele><time>2026-04-19T10:12:51Z</time></trkpt><trkpt lat="45.10737844349407" lon="7.264188809900186"><ele>385.6666666666667</ele><time>2026-04-19T10:12:51.999Z</time></trkpt><trkpt lat="45.10734310379508" lon="7.26394306189898"><ele>386.33333333333337</ele><time>2026-04-19T10:12:52.999Z</time></trkpt><trkpt lat="45.1073172603533" lon="7.263712721134153"><ele>387.0</ele><time>2026-04-19T10:12:53.999Z</time></trkpt><trkpt lat="45.10729456892604" lon="7.263509075231744"><ele>387.0</ele><time>2026-04-19T10:12:54.999Z</time></trkpt><trkpt lat="45.10728359332968" lon="7.2633323436636825"><ele>387.0</ele><time>2026-04-19T10:12:55.999Z</time></trkpt><trkpt lat="45.10727454392839" lon="7.263177876636044"><ele>387.0</ele><time>2026-04-19T10:12:56.999Z</time></trkpt><trkpt lat="45.107284725673395" lon="7.263027657631847"><ele>387.0</ele><time>2026-04-19T10:12:57.999Z</time></trkpt><trkpt lat="45.10730185145816" lon="7.2628855412545725"><ele>387.0</ele><time>2026-04-19T10:12:58.999Z</time></trkpt><trkpt lat="45.107290186473705" lon="7.262692886084497"><ele>386.33333333333337</ele><time>2026-04-19T10:12:59.999Z</time></trkpt><trkpt lat="45.10738913137665" lon="7.26245950545215"><ele>385.6666666666667</ele><time>2026-04-19T10:13:00.999Z</time></trkpt><trkpt lat="45.107447827382046" lon="7.262221344892219"><ele>385.0</ele><time>2026-04-19T10:13:01.999Z</time></trkpt><trkpt lat="45.107535481305526" lon="7.261976232898498"><ele>385.0</ele><time>2026-04-19T10:13:02.999Z</time></trkpt><trkpt lat="45.107618780545245" lon="7.2617135786871145"><ele>385.0</ele><time>2026-04-19T10:13:03.999Z</time></trkpt><trkpt lat="45.10770995625917" lon="7.2614386673701485"><ele>385.0</ele><time>2026-04-19T10:13:04.999Z</time></trkpt><trkpt lat="45.1078115821487" lon="7.261150912599628"><ele>385.33333333333337</ele><time>2026-04-19T10:13:05.999Z</time></trkpt><trkpt lat="45.107910315303066" lon="7.260854934648403"><ele>385.66666666666663</ele><time>2026-04-19T10:13:06.999Z</time></trkpt><trkpt lat="45.10800190051952" lon="7.260584014401485"><ele>386.0</ele><time>2026-04-19T10:13:07.999Z</time></trkpt><trkpt lat="45.108083659521895" lon="7.260341654940494"><ele>386.0</ele><time>2026-04-19T10:13:08.999Z</time></trkpt><trkpt lat="45.10816047181081" lon="7.260114797927472"><ele>386.0</ele><time>2026-04-19T10:13:09.999Z</time></trkpt><trkpt lat="45.108243018001026" lon="7.259863763795251"><ele>386.0</ele><time>2026-04-19T10:13:10.999Z</time></trkpt><trkpt lat="45.10833262235551" lon="7.259582283207261"><ele>386.0</ele><time>2026-04-19T10:13:11.999Z</time></trkpt><trkpt lat="45.108430464915735" lon="7.259292888664547"><ele>386.0</ele><time>2026-04-19T10:13:12.999Z</time></trkpt><trkpt lat="45.10853261262591" lon="7.2590085272798355"><ele>386.5</ele><time>2026-04-19T10:13:13.999Z</time></trkpt><trkpt lat="45.108640248604125" lon="7.258721366201022"><ele>387.0</ele><time>2026-04-19T10:13:14.999Z</time></trkpt><trkpt lat="45.10874427262331" lon="7.258419695275683"><ele>386.0</ele><time>2026-04-19T10:13:15.999Z</time></trkpt><trkpt lat="45.10885209843749" lon="7.258114719225617"><ele>385.0</ele><time>2026-04-19T10:13:16.999Z</time></trkpt><trkpt lat="45.10895791636474" lon="7.257801265570633"><ele>385.0</ele><time>2026-04-19T10:13:17.999Z</time></trkpt><trkpt lat="45.10906871645122" lon="7.257480149929459"><ele>385.0</ele><time>2026-04-19T10:13:18.999Z</time></trkpt><trkpt lat="45.109174208615634" lon="7.2571608361918925"><ele>386.0</ele><time>2026-04-19T10:13:19.999Z</time></trkpt><trkpt lat="45.10927908361197" lon="7.256840643559097"><ele>387.0</ele><time>2026-04-19T10:13:20.999Z</time></trkpt><trkpt lat="45.10938551258588" lon="7.256517761384199"><ele>387.0</ele><time>2026-04-19T10:13:21.999Z</time></trkpt><trkpt lat="45.10949345060076" lon="7.256199281902123"><ele>387.0</ele><time>2026-04-19T10:13:22.999Z</time></trkpt><trkpt lat="45.10960810146559" lon="7.2558799528198445"><ele>386.5</ele><time>2026-04-19T10:13:23.999Z</time></trkpt><trkpt lat="45.109718655898384" lon="7.255560565609735"><ele>386.0</ele><time>2026-04-19T10:13:24.999Z</time></trkpt><trkpt lat="45.10982678278807" lon="7.255228400130413"><ele>386.0</ele><time>2026-04-19T10:13:25.999Z</time></trkpt><trkpt lat="45.10993926441795" lon="7.254896565422868"><ele>386.0</ele><time>2026-04-19T10:13:26.999Z</time></trkpt><trkpt lat="45.11005378593772" lon="7.254569045882506"><ele>386.0</ele><time>2026-04-19T10:13:27.999Z</time></trkpt><trkpt lat="45.11016620289868" lon="7.254237923304309"><ele>386.0</ele><time>2026-04-19T10:13:28.999Z</time></trkpt><trkpt lat="45.11027796178607" lon="7.253902520415914"><ele>386.0</ele><time>2026-04-19T10:13:29.999Z</time></trkpt><trkpt lat="45.11039078792681" lon="7.253566582553841"><ele>386.0</ele><time>2026-04-19T10:13:30.999Z</time></trkpt><trkpt lat="45.110506198216065" lon="7.253229679883205"><ele>386.0</ele><time>2026-04-19T10:13:31.999Z</time></trkpt><trkpt lat="45.11062116075252" lon="7.252889687609855"><ele>386.0</ele><time>2026-04-19T10:13:32.999Z</time></trkpt><trkpt lat="45.11073853399629" lon="7.252545460636718"><ele>386.5</ele><time>2026-04-19T10:13:33.999Z</time></trkpt><trkpt lat="45.110856967755915" lon="7.252200807456832"><ele>387.0</ele><time>2026-04-19T10:13:34.999Z</time></trkpt><trkpt lat="45.11097496276942" lon="7.2518577104465525"><ele>387.0</ele><time>2026-04-19T10:13:35.999Z</time></trkpt><trkpt lat="45.111093281003086" lon="7.251511761606304"><ele>387.0</ele><time>2026-04-19T10:13:36.999Z</time></trkpt><trkpt lat="45.11121181790704" lon="7.2511635267623085"><ele>387.0</ele><time>2026-04-19T10:13:37.999Z</time></trkpt><trkpt lat="45.11133044460742" lon="7.25081550829727"><ele>387.0</ele><time>2026-04-19T10:13:38.999Z</time></trkpt><trkpt lat="45.1114474305399" lon="7.250467837387952"><ele>387.5</ele><time>2026-04-19T10:13:39.999Z</time></trkpt><trkpt lat="45.11156562314634" lon="7.250116753873196"><ele>388.0</ele><time>2026-04-19T10:13:40.999Z</time></trkpt><trkpt lat="45.11168611197042" lon="7.249771576198366"><ele>388.5</ele><time>2026-04-19T10:13:41.999Z</time></trkpt><trkpt lat="45.111795927812224" lon="7.249438896839168"><ele>389.0</ele><time>2026-04-19T10:13:42.999Z</time></trkpt><trkpt lat="45.111907584791034" lon="7.249118753102644"><ele>388.5</ele><time>2026-04-19T10:13:43.999Z</time></trkpt><trkpt lat="45.11200953377834" lon="7.248825369661313"><ele>388.0</ele><time>2026-04-19T10:13:45Z</time></trkpt><trkpt lat="45.11210337235108" lon="7.248541509562677"><ele>388.0</ele><time>2026-04-19T10:13:46Z</time></trkpt><trkpt lat="45.11219319718592" lon="7.248264930120185"><ele>388.0</ele><time>2026-04-19T10:13:47Z</time></trkpt><trkpt lat="45.11228602308004" lon="7.247987945677945"><ele>388.0</ele><time>2026-04-19T10:13:48Z</time></trkpt><trkpt lat="45.112383178577616" lon="7.247706580134622"><ele>388.6666666666667</ele><time>2026-04-19T10:13:49Z</time></trkpt><trkpt lat="45.11248036192995" lon="7.247421549644939"><ele>389.33333333333337</ele><time>2026-04-19T10:13:50Z</time></trkpt><trkpt lat="45.11257813640134" lon="7.247136072261548"><ele>390.0</ele><time>2026-04-19T10:13:51Z</time></trkpt><trkpt lat="45.112674726852944" lon="7.246851751241117"><ele>390.0</ele><time>2026-04-19T10:13:52Z</time></trkpt><trkpt lat="45.11277091298265" lon="7.246570352867587"><ele>390.0</ele><time>2026-04-19T10:13:53Z</time></trkpt><trkpt lat="45.112858551768035" lon="7.2463117721579176"><ele>390.0</ele><time>2026-04-19T10:13:54Z</time></trkpt><trkpt lat="45.11294962920605" lon="7.246061776435855"><ele>390.0</ele><time>2026-04-19T10:13:55Z</time></trkpt><trkpt lat="45.11303009378208" lon="7.245815076634218"><ele>390.0</ele><time>2026-04-19T10:13:56Z</time></trkpt><trkpt lat="45.11311563059406" lon="7.245558761714045"><ele>390.0</ele><time>2026-04-19T10:13:57Z</time></trkpt><trkpt lat="45.11320443232185" lon="7.245298133847497"><ele>390.33333333333337</ele><time>2026-04-19T10:13:58Z</time></trkpt><trkpt lat="45.11329874773857" lon="7.245024095577237"><ele>390.6666666666667</ele><time>2026-04-19T10:13:59Z</time></trkpt><trkpt lat="45.113398593232645" lon="7.24473964167298"><ele>391.0</ele><time>2026-04-19T10:14:00Z</time></trkpt><trkpt lat="45.11349206794695" lon="7.244446820719205"><ele>391.0</ele><time>2026-04-19T10:14:01Z</time></trkpt><trkpt lat="45.113595042075715" lon="7.244145765978376"><ele>391.0</ele><time>2026-04-19T10:14:02Z</time></trkpt><trkpt lat="45.113700593522736" lon="7.243841086094522"><ele>390.5</ele><time>2026-04-19T10:14:03Z</time></trkpt><trkpt lat="45.11380601366205" lon="7.243535847143928"><ele>390.0</ele><time>2026-04-19T10:14:04Z</time></trkpt><trkpt lat="45.11390932209654" lon="7.24323486104579"><ele>390.33333333333337</ele><time>2026-04-19T10:14:05Z</time></trkpt><trkpt lat="45.11400721650166" lon="7.242943874122007"><ele>390.6666666666667</ele><time>2026-04-19T10:14:06Z</time></trkpt><trkpt lat="45.11410207946951" lon="7.242662886230818"><ele>391.0</ele><time>2026-04-19T10:14:07Z</time></trkpt><trkpt lat="45.11419712758683" lon="7.242382293401631"><ele>391.33333333333337</ele><time>2026-04-19T10:14:08Z</time></trkpt><trkpt lat="45.11428575667631" lon="7.242113527137599"><ele>391.66666666666663</ele><time>2026-04-19T10:14:09Z</time></trkpt><trkpt lat="45.114373787122055" lon="7.24185128830204"><ele>392.0</ele><time>2026-04-19T10:14:10Z</time></trkpt><trkpt lat="45.11446555484028" lon="7.241573263784442"><ele>393.5</ele><time>2026-04-19T10:14:11Z</time></trkpt><trkpt lat="45.11456619733425" lon="7.241277485773174"><ele>395.0</ele><time>2026-04-19T10:14:12Z</time></trkpt><trkpt lat="45.11467399423555" lon="7.2409786396065465"><ele>395.0</ele><time>2026-04-19T10:14:13Z</time></trkpt><trkpt lat="45.114841479229334" lon="7.240689519346018"><ele>395.0</ele><time>2026-04-19T10:14:14Z</time></trkpt><trkpt lat="45.11499162858673" lon="7.240384488864907"><ele>394.5</ele><time>2026-04-19T10:14:15Z</time></trkpt><trkpt lat="45.115145800692495" lon="7.240066773926112"><ele>394.0</ele><time>2026-04-19T10:14:16Z</time></trkpt><trkpt lat="45.115308001619226" lon="7.239795978949199"><ele>395.0</ele><time>2026-04-19T10:14:17Z</time></trkpt><trkpt lat="45.1154645991486" lon="7.239540041349649"><ele>396.0</ele><time>2026-04-19T10:14:18Z</time></trkpt><trkpt lat="45.115616731295724" lon="7.239310125178677"><ele>395.66666666666663</ele><time>2026-04-19T10:14:19Z</time></trkpt><trkpt lat="45.11576304248582" lon="7.2391060985851405"><ele>395.3333333333333</ele><time>2026-04-19T10:14:20Z</time></trkpt><trkpt lat="45.11589053991949" lon="7.238928362153923"><ele>395.0</ele><time>2026-04-19T10:14:21Z</time></trkpt><trkpt lat="45.116005198016765" lon="7.238771678001796"><ele>395.0</ele><time>2026-04-19T10:14:22Z</time></trkpt><trkpt lat="45.11610216310584" lon="7.238651625585448"><ele>395.0</ele><time>2026-04-19T10:14:23Z</time></trkpt><trkpt lat="45.116199019266624" lon="7.238576782145488"><ele>395.0</ele><time>2026-04-19T10:14:24Z</time></trkpt><trkpt lat="45.116309383622905" lon="7.238574089254096"><ele>395.0</ele><time>2026-04-19T10:14:25Z</time></trkpt><trkpt lat="45.11642229297388" lon="7.238555288943885"><ele>395.0</ele><time>2026-04-19T10:14:26Z</time></trkpt><trkpt lat="45.11650344465235" lon="7.238449576780829"><ele>395.0</ele><time>2026-04-19T10:14:27Z</time></trkpt><trkpt lat="45.116542050944304" lon="7.238289579747323"><ele>395.0</ele><time>2026-04-19T10:14:28Z</time></trkpt><trkpt lat="45.11653359219707" lon="7.238110479343454"><ele>395.0</ele><time>2026-04-19T10:14:29Z</time></trkpt><trkpt lat="45.11649883609578" lon="7.237930242751525"><ele>395.0</ele><time>2026-04-19T10:14:30Z</time></trkpt><trkpt lat="45.116425772469974" lon="7.237848768231012"><ele>395.0</ele><time>2026-04-19T10:14:31Z</time></trkpt><trkpt lat="45.11664061104851" lon="7.237591031400744"><ele>395.0</ele><time>2026-04-19T10:14:32Z</time></trkpt><trkpt lat="45.116766585574034" lon="7.237389014361121"><ele>395.3333333333333</ele><time>2026-04-19T10:14:33Z</time></trkpt><trkpt lat="45.116912861852285" lon="7.237177588096917"><ele>395.66666666666663</ele><time>2026-04-19T10:14:34Z</time></trkpt><trkpt lat="45.11703865706643" lon="7.236954988668464"><ele>396.0</ele><time>2026-04-19T10:14:35Z</time></trkpt><trkpt lat="45.117171405815185" lon="7.236723954371812"><ele>396.0</ele><time>2026-04-19T10:14:36Z</time></trkpt><trkpt lat="45.117318057915135" lon="7.236492366162221"><ele>396.0</ele><time>2026-04-19T10:14:37Z</time></trkpt><trkpt lat="45.11746574062179" lon="7.236251534838999"><ele>396.0</ele><time>2026-04-19T10:14:38Z</time></trkpt><trkpt lat="45.11761794388484" lon="7.2360001758542145"><ele>396.5</ele><time>2026-04-19T10:14:39Z</time></trkpt><trkpt lat="45.11778043023196" lon="7.235748217670575"><ele>397.0</ele><time>2026-04-19T10:14:40Z</time></trkpt><trkpt lat="45.11794720702997" lon="7.23550246019388"><ele>398.0</ele><time>2026-04-19T10:14:41Z</time></trkpt><trkpt lat="45.118111300840084" lon="7.235244045071548"><ele>399.0</ele><time>2026-04-19T10:14:42Z</time></trkpt><trkpt lat="45.118271467403844" lon="7.2349834067807155"><ele>398.5</ele><time>2026-04-19T10:14:43Z</time></trkpt><trkpt lat="45.118423113963345" lon="7.234720716401197"><ele>398.0</ele><time>2026-04-19T10:14:44Z</time></trkpt><trkpt lat="45.11855859751296" lon="7.2344361033456"><ele>398.0</ele><time>2026-04-19T10:14:45Z</time></trkpt><trkpt lat="45.118672500144015" lon="7.234110415486133"><ele>398.0</ele><time>2026-04-19T10:14:46Z</time></trkpt><trkpt lat="45.11877302883142" lon="7.233760306515395"><ele>399.5</ele><time>2026-04-19T10:14:47Z</time></trkpt><trkpt lat="45.118877702199924" lon="7.233412314701654"><ele>401.0</ele><time>2026-04-19T10:14:48Z</time></trkpt><trkpt lat="45.11898763599468" lon="7.233083129376071"><ele>401.0</ele><time>2026-04-19T10:14:49Z</time></trkpt><trkpt lat="45.11908309483505" lon="7.232790098961285"><ele>401.0</ele><time>2026-04-19T10:14:50Z</time></trkpt><trkpt lat="45.11915797991713" lon="7.232538008971371"><ele>401.0</ele><time>2026-04-19T10:14:51Z</time></trkpt><trkpt lat="45.119219323374566" lon="7.232306607134987"><ele>401.5</ele><time>2026-04-19T10:14:52Z</time></trkpt><trkpt lat="45.119272286793056" lon="7.232078202260288"><ele>402.0</ele><time>2026-04-19T10:14:53Z</time></trkpt><trkpt lat="45.11931239163266" lon="7.231890740857886"><ele>402.5</ele><time>2026-04-19T10:14:54Z</time></trkpt><trkpt lat="45.11936434020125" lon="7.231723813060165"><ele>403.0</ele><time>2026-04-19T10:14:55Z</time></trkpt><trkpt lat="45.119439981637456" lon="7.231591716392947"><ele>403.0</ele><time>2026-04-19T10:14:56Z</time></trkpt><trkpt lat="45.119483910056026" lon="7.231441073920626"><ele>403.0</ele><time>2026-04-19T10:14:56.999Z</time></trkpt><trkpt lat="45.11946091385119" lon="7.231238310875319"><ele>403.0</ele><time>2026-04-19T10:14:57.999Z</time></trkpt><trkpt lat="45.119391501468336" lon="7.2309939272282495"><ele>403.0</ele><time>2026-04-19T10:14:58.999Z</time></trkpt><trkpt lat="45.11937574827548" lon="7.230704195329707"><ele>402.5</ele><time>2026-04-19T10:14:59.999Z</time></trkpt><trkpt lat="45.11939038538439" lon="7.23035802299638"><ele>402.0</ele><time>2026-04-19T10:15:00.999Z</time></trkpt><trkpt lat="45.11939324518956" lon="7.229978689767282"><ele>402.5</ele><time>2026-04-19T10:15:01.999Z</time></trkpt><trkpt lat="45.119415226751414" lon="7.2295660179764765"><ele>403.0</ele><time>2026-04-19T10:15:02.999Z</time></trkpt><trkpt lat="45.11943299280066" lon="7.229126420687052"><ele>404.0</ele><time>2026-04-19T10:15:03.999Z</time></trkpt><trkpt lat="45.11945048060486" lon="7.228674350785509"><ele>405.0</ele><time>2026-04-19T10:15:04.999Z</time></trkpt><trkpt lat="45.1194707363095" lon="7.2282058249212895"><ele>405.0</ele><time>2026-04-19T10:15:05.999Z</time></trkpt><trkpt lat="45.11949412755445" lon="7.227744641397414"><ele>405.0</ele><time>2026-04-19T10:15:06.999Z</time></trkpt><trkpt lat="45.119514274169184" lon="7.2272936491183115"><ele>405.5</ele><time>2026-04-19T10:15:07.999Z</time></trkpt><trkpt lat="45.11950408544587" lon="7.226870234778057"><ele>406.0</ele><time>2026-04-19T10:15:08.999Z</time></trkpt><trkpt lat="45.119490316816695" lon="7.2264258941860415"><ele>406.0</ele><time>2026-04-19T10:15:09.999Z</time></trkpt><trkpt lat="45.11946142316785" lon="7.225986753608571"><ele>406.0</ele><time>2026-04-19T10:15:10.999Z</time></trkpt><trkpt lat="45.11945323289385" lon="7.225546429266191"><ele>406.0</ele><time>2026-04-19T10:15:11.999Z</time></trkpt><trkpt lat="45.11941185131153" lon="7.225101081826427"><ele>406.0</ele><time>2026-04-19T10:15:12.999Z</time></trkpt><trkpt lat="45.11938223609363" lon="7.224650981672002"><ele>405.5</ele><time>2026-04-19T10:15:13.999Z</time></trkpt><trkpt lat="45.11935615211477" lon="7.224197202324528"><ele>405.0</ele><time>2026-04-19T10:15:14.999Z</time></trkpt><trkpt lat="45.11933536086317" lon="7.223745009496586"><ele>406.0</ele><time>2026-04-19T10:15:15.999Z</time></trkpt><trkpt lat="45.119322023415386" lon="7.223290487399323"><ele>407.0</ele><time>2026-04-19T10:15:16.999Z</time></trkpt><trkpt lat="45.11931618640422" lon="7.222846128701897"><ele>407.0</ele><time>2026-04-19T10:15:17.999Z</time></trkpt><trkpt lat="45.11931417087606" lon="7.222435914216688"><ele>407.0</ele><time>2026-04-19T10:15:18.999Z</time></trkpt><trkpt lat="45.11931537544366" lon="7.222047570691621"><ele>407.0</ele><time>2026-04-19T10:15:19.999Z</time></trkpt><trkpt lat="45.11931868903444" lon="7.221658343960513"><ele>407.0</ele><time>2026-04-19T10:15:20.999Z</time></trkpt><trkpt lat="45.11931677073478" lon="7.221265847444614"><ele>407.0</ele><time>2026-04-19T10:15:21.999Z</time></trkpt><trkpt lat="45.119319848704244" lon="7.220856828938042"><ele>407.0</ele><time>2026-04-19T10:15:22.999Z</time></trkpt><trkpt lat="45.11927173839639" lon="7.220440621149648"><ele>407.0</ele><time>2026-04-19T10:15:23.999Z</time></trkpt><trkpt lat="45.11923371633613" lon="7.2200242763924285"><ele>407.0</ele><time>2026-04-19T10:15:24.999Z</time></trkpt><trkpt lat="45.11918928971648" lon="7.219613372154605"><ele>407.0</ele><time>2026-04-19T10:15:25.999Z</time></trkpt><trkpt lat="45.11914311610832" lon="7.219239143096314"><ele>407.0</ele><time>2026-04-19T10:15:26.999Z</time></trkpt><trkpt lat="45.119105765770335" lon="7.218880805477737"><ele>407.0</ele><time>2026-04-19T10:15:27.999Z</time></trkpt><trkpt lat="45.11906313724799" lon="7.218530150977577"><ele>407.0</ele><time>2026-04-19T10:15:28.999Z</time></trkpt><trkpt lat="45.119020193885326" lon="7.218175932070245"><ele>406.5</ele><time>2026-04-19T10:15:29.999Z</time></trkpt><trkpt lat="45.118979272857366" lon="7.2178224258273715"><ele>406.0</ele><time>2026-04-19T10:15:30.999Z</time></trkpt><trkpt lat="45.118937327065275" lon="7.217458723900957"><ele>404.0</ele><time>2026-04-19T10:15:31.999Z</time></trkpt><trkpt lat="45.118893292631235" lon="7.217090334599954"><ele>402.0</ele><time>2026-04-19T10:15:32.999Z</time></trkpt><trkpt lat="45.11885141133455" lon="7.216713088205623"><ele>402.0</ele><time>2026-04-19T10:15:33.999Z</time></trkpt><trkpt lat="45.11881739359201" lon="7.216354895916537"><ele>402.0</ele><time>2026-04-19T10:15:34.999Z</time></trkpt><trkpt lat="45.1187781856708" lon="7.216034141456769"><ele>402.0</ele><time>2026-04-19T10:15:35.999Z</time></trkpt><trkpt lat="45.11874211412741" lon="7.215736075521617"><ele>402.0</ele><time>2026-04-19T10:15:36.999Z</time></trkpt><trkpt lat="45.118716666649625" lon="7.215446128302957"><ele>402.0</ele><time>2026-04-19T10:15:37.999Z</time></trkpt><trkpt lat="45.11869874920214" lon="7.2151675582762085"><ele>402.0</ele><time>2026-04-19T10:15:38.999Z</time></trkpt><trkpt lat="45.11870111943341" lon="7.214898365138455"><ele>402.0</ele><time>2026-04-19T10:15:39.999Z</time></trkpt><trkpt lat="45.118713813917225" lon="7.214644135472364"><ele>402.0</ele><time>2026-04-19T10:15:40.999Z</time></trkpt><trkpt lat="45.118729701065284" lon="7.214400170813919"><ele>402.5</ele><time>2026-04-19T10:15:41.999Z</time></trkpt><trkpt lat="45.118749387286705" lon="7.214168884207439"><ele>403.0</ele><time>2026-04-19T10:15:42.999Z</time></trkpt><trkpt lat="45.11876414149428" lon="7.213980496928476"><ele>403.5</ele><time>2026-04-19T10:15:43.999Z</time></trkpt><trkpt lat="45.11877378649169" lon="7.2138213629912515"><ele>404.0</ele><time>2026-04-19T10:15:44.999Z</time></trkpt><trkpt lat="45.11878198779284" lon="7.213668649650416"><ele>405.3333333333333</ele><time>2026-04-19T10:15:45.999Z</time></trkpt><trkpt lat="45.11878881366911" lon="7.213480918373655"><ele>406.66666666666663</ele><time>2026-04-19T10:15:46.999Z</time></trkpt><trkpt lat="45.11879789294234" lon="7.213164609020969"><ele>408.0</ele><time>2026-04-19T10:15:47.999Z</time></trkpt><trkpt lat="45.11886293913547" lon="7.212830408553646"><ele>410.5</ele><time>2026-04-19T10:15:48.999Z</time></trkpt><trkpt lat="45.11890827211319" lon="7.212493684741324"><ele>413.0</ele><time>2026-04-19T10:15:49.999Z</time></trkpt><trkpt lat="45.118948950756774" lon="7.212138988134734"><ele>418.5</ele><time>2026-04-19T10:15:51Z</time></trkpt><trkpt lat="45.11902123214237" lon="7.21178178342664"><ele>424.0</ele><time>2026-04-19T10:15:52Z</time></trkpt><trkpt lat="45.119063698747006" lon="7.211425911566827"><ele>416.5</ele><time>2026-04-19T10:15:53Z</time></trkpt><trkpt lat="45.11914054993263" lon="7.211091670216604"><ele>409.0</ele><time>2026-04-19T10:15:54Z</time></trkpt><trkpt lat="45.119207384772245" lon="7.210768498908554"><ele>414.5</ele><time>2026-04-19T10:15:55Z</time></trkpt><trkpt lat="45.119313622881556" lon="7.210437438454805"><ele>420.0</ele><time>2026-04-19T10:15:56Z</time></trkpt><trkpt lat="45.119448880552724" lon="7.210097927815199"><ele>427.5</ele><time>2026-04-19T10:15:57Z</time></trkpt><trkpt lat="45.11959624271503" lon="7.2097564349818715"><ele>435.0</ele><time>2026-04-19T10:15:58Z</time></trkpt><trkpt lat="45.11973815200786" lon="7.209399758032531"><ele>435.0</ele><time>2026-04-19T10:15:59Z</time></trkpt><trkpt lat="45.11987488500989" lon="7.209035839562468"><ele>435.0</ele><time>2026-04-19T10:16:00Z</time></trkpt><trkpt lat="45.119976229112375" lon="7.208638013529319"><ele>425.5</ele><time>2026-04-19T10:16:01Z</time></trkpt><trkpt lat="45.12005910831827" lon="7.208216547110302"><ele>416.0</ele><time>2026-04-19T10:16:02Z</time></trkpt><trkpt lat="45.12012837801326" lon="7.2077944216118635"><ele>416.0</ele><time>2026-04-19T10:16:03Z</time></trkpt><trkpt lat="45.12022883437082" lon="7.207398117751085"><ele>416.0</ele><time>2026-04-19T10:16:04Z</time></trkpt><trkpt lat="45.12030040955343" lon="7.206974269257856"><ele>415.5</ele><time>2026-04-19T10:16:05Z</time></trkpt><trkpt lat="45.120388485602795" lon="7.206543264335667"><ele>415.0</ele><time>2026-04-19T10:16:06Z</time></trkpt><trkpt lat="45.12046326094965" lon="7.206115081861413"><ele>415.0</ele><time>2026-04-19T10:16:07Z</time></trkpt><trkpt lat="45.120537925600225" lon="7.2056921719550155"><ele>415.0</ele><time>2026-04-19T10:16:08Z</time></trkpt><trkpt lat="45.1206132994864" lon="7.205265244850661"><ele>413.5</ele><time>2026-04-19T10:16:09Z</time></trkpt><trkpt lat="45.120690352675304" lon="7.204828805969932"><ele>412.0</ele><time>2026-04-19T10:16:10Z</time></trkpt><trkpt lat="45.120764106541785" lon="7.204389732151801"><ele>414.5</ele><time>2026-04-19T10:16:11Z</time></trkpt><trkpt lat="45.12084184308073" lon="7.203948012439452"><ele>417.0</ele><time>2026-04-19T10:16:12Z</time></trkpt><trkpt lat="45.12092004093536" lon="7.203500649291797"><ele>420.5</ele><time>2026-04-19T10:16:13Z</time></trkpt><trkpt lat="45.12099938645531" lon="7.203045250422458"><ele>424.0</ele><time>2026-04-19T10:16:14Z</time></trkpt><trkpt lat="45.12108182520341" lon="7.202587641301198"><ele>428.0</ele><time>2026-04-19T10:16:15Z</time></trkpt><trkpt lat="45.1211624036577" lon="7.202123793722245"><ele>432.0</ele><time>2026-04-19T10:16:16Z</time></trkpt><trkpt lat="45.12124270612153" lon="7.2016591269940875"><ele>434.5</ele><time>2026-04-19T10:16:17Z</time></trkpt><trkpt lat="45.121323376253265" lon="7.201195608423726"><ele>437.0</ele><time>2026-04-19T10:16:18Z</time></trkpt><trkpt lat="45.12138463974896" lon="7.2007408589248065"><ele>438.5</ele><time>2026-04-19T10:16:19Z</time></trkpt><trkpt lat="45.12146110264291" lon="7.200341081262367"><ele>440.0</ele><time>2026-04-19T10:16:20Z</time></trkpt><trkpt lat="45.12152301830756" lon="7.1999909379856915"><ele>429.5</ele><time>2026-04-19T10:16:21Z</time></trkpt><trkpt lat="45.12156745076418" lon="7.199664235568951"><ele>419.0</ele><time>2026-04-19T10:16:22Z</time></trkpt><trkpt lat="45.121579117126274" lon="7.199308517013146"><ele>426.0</ele><time>2026-04-19T10:16:23Z</time></trkpt><trkpt lat="45.12153447677441" lon="7.198931389092274"><ele>433.0</ele><time>2026-04-19T10:16:24Z</time></trkpt><trkpt lat="45.12147381813967" lon="7.198535213324335"><ele>429.5</ele><time>2026-04-19T10:16:25Z</time></trkpt><trkpt lat="45.12143191060267" lon="7.198129000640909"><ele>426.0</ele><time>2026-04-19T10:16:26Z</time></trkpt><trkpt lat="45.12140192907451" lon="7.197742811917968"><ele>426.0</ele><time>2026-04-19T10:16:27Z</time></trkpt><trkpt lat="45.12137806128442" lon="7.197392212518207"><ele>426.0</ele><time>2026-04-19T10:16:28Z</time></trkpt><trkpt lat="45.121373858994694" lon="7.197062114770424"><ele>426.0</ele><time>2026-04-19T10:16:29Z</time></trkpt><trkpt lat="45.12141520073197" lon="7.196751648522219"><ele>426.0</ele><time>2026-04-19T10:16:30Z</time></trkpt><trkpt lat="45.12148496153527" lon="7.196439014825019"><ele>423.0</ele><time>2026-04-19T10:16:31Z</time></trkpt><trkpt lat="45.12159755650031" lon="7.19613470560557"><ele>420.0</ele><time>2026-04-19T10:16:32Z</time></trkpt><trkpt lat="45.12172797716056" lon="7.195809066863267"><ele>422.5</ele><time>2026-04-19T10:16:33Z</time></trkpt><trkpt lat="45.12186291096285" lon="7.195466289088958"><ele>425.0</ele><time>2026-04-19T10:16:34Z</time></trkpt><trkpt lat="45.12202306089765" lon="7.195150396577658"><ele>425.0</ele><time>2026-04-19T10:16:35Z</time></trkpt><trkpt lat="45.12218371084976" lon="7.194851744251935"><ele>425.0</ele><time>2026-04-19T10:16:36Z</time></trkpt><trkpt lat="45.12233483070232" lon="7.194594568421669"><ele>425.0</ele><time>2026-04-19T10:16:37Z</time></trkpt><trkpt lat="45.12247685708465" lon="7.194364131001444"><ele>425.0</ele><time>2026-04-19T10:16:38Z</time></trkpt><trkpt lat="45.12260622383552" lon="7.194147688852475"><ele>425.0</ele><time>2026-04-19T10:16:39Z</time></trkpt><trkpt lat="45.12273318723494" lon="7.193939028475814"><ele>427.0</ele><time>2026-04-19T10:16:40Z</time></trkpt><trkpt lat="45.12285167143207" lon="7.193740924111665"><ele>429.0</ele><time>2026-04-19T10:16:41Z</time></trkpt><trkpt lat="45.12294845602487" lon="7.1935424415041105"><ele>431.0</ele><time>2026-04-19T10:16:42Z</time></trkpt><trkpt lat="45.123029498848666" lon="7.193345599960982"><ele>432.3333333333333</ele><time>2026-04-19T10:16:43Z</time></trkpt><trkpt lat="45.12310198862734" lon="7.19315778362565"><ele>433.66666666666663</ele><time>2026-04-19T10:16:44Z</time></trkpt><trkpt lat="45.123180174917906" lon="7.192961301422146"><ele>435.0</ele><time>2026-04-19T10:16:45Z</time></trkpt><trkpt lat="45.12325348969894" lon="7.192766917335691"><ele>433.33333333333337</ele><time>2026-04-19T10:16:46Z</time></trkpt><trkpt lat="45.123325522784434" lon="7.192570943417077"><ele>431.6666666666667</ele><time>2026-04-19T10:16:47Z</time></trkpt><trkpt lat="45.12339846401475" lon="7.192374484545328"><ele>430.0</ele><time>2026-04-19T10:16:48Z</time></trkpt><trkpt lat="45.123476531488656" lon="7.192172537419672"><ele>430.0</ele><time>2026-04-19T10:16:49Z</time></trkpt><trkpt lat="45.123550697517224" lon="7.19197323810124"><ele>430.0</ele><time>2026-04-19T10:16:50Z</time></trkpt><trkpt lat="45.123619918038344" lon="7.191790211228619"><ele>430.0</ele><time>2026-04-19T10:16:51Z</time></trkpt><trkpt lat="45.12368839914774" lon="7.191608036391137"><ele>431.33333333333337</ele><time>2026-04-19T10:16:52Z</time></trkpt><trkpt lat="45.12376114480715" lon="7.191418248188603"><ele>432.66666666666663</ele><time>2026-04-19T10:16:53Z</time></trkpt><trkpt lat="45.1238345279289" lon="7.191216393631591"><ele>434.0</ele><time>2026-04-19T10:16:54Z</time></trkpt><trkpt lat="45.12390667838776" lon="7.19101096960909"><ele>434.0</ele><time>2026-04-19T10:16:55Z</time></trkpt><trkpt lat="45.12398094827898" lon="7.190802678288593"><ele>434.0</ele><time>2026-04-19T10:16:56Z</time></trkpt><trkpt lat="45.124052223094886" lon="7.190578028574392"><ele>434.0</ele><time>2026-04-19T10:16:57Z</time></trkpt><trkpt lat="45.12412134645316" lon="7.1903185618841"><ele>434.3333333333333</ele><time>2026-04-19T10:16:58Z</time></trkpt><trkpt lat="45.124191348843304" lon="7.190048437018926"><ele>434.66666666666663</ele><time>2026-04-19T10:16:59Z</time></trkpt><trkpt lat="45.1242546441835" lon="7.189778026091308"><ele>435.0</ele><time>2026-04-19T10:16:59.999Z</time></trkpt><trkpt lat="45.12430603096301" lon="7.1895029782424755"><ele>435.0</ele><time>2026-04-19T10:17:00.999Z</time></trkpt><trkpt lat="45.12435460513937" lon="7.189239735563794"><ele>435.0</ele><time>2026-04-19T10:17:01.999Z</time></trkpt><trkpt lat="45.124403088016145" lon="7.188969169338463"><ele>435.0</ele><time>2026-04-19T10:17:02.999Z</time></trkpt><trkpt lat="45.124442627412314" lon="7.1886879773392325"><ele>434.33333333333337</ele><time>2026-04-19T10:17:03.999Z</time></trkpt><trkpt lat="45.12446330909443" lon="7.188399192710207"><ele>433.6666666666667</ele><time>2026-04-19T10:17:04.999Z</time></trkpt><trkpt lat="45.124457406521735" lon="7.188065171472706"><ele>433.0</ele><time>2026-04-19T10:17:05.999Z</time></trkpt><trkpt lat="45.12445465714765" lon="7.1876780197910675"><ele>431.0</ele><time>2026-04-19T10:17:06.999Z</time></trkpt><trkpt lat="45.124477087621614" lon="7.187237217069966"><ele>429.0</ele><time>2026-04-19T10:17:07.999Z</time></trkpt><trkpt lat="45.12449518262489" lon="7.186756053806536"><ele>430.5</ele><time>2026-04-19T10:17:08.999Z</time></trkpt><trkpt lat="45.124490717166324" lon="7.186254019716953"><ele>432.0</ele><time>2026-04-19T10:17:09.999Z</time></trkpt><trkpt lat="45.12448986397972" lon="7.185804595415039"><ele>435.5</ele><time>2026-04-19T10:17:10.999Z</time></trkpt><trkpt lat="45.12449468993944" lon="7.185452804123268"><ele>439.0</ele><time>2026-04-19T10:17:11.999Z</time></trkpt><trkpt lat="45.124512276896404" lon="7.185140851419838"><ele>443.0</ele><time>2026-04-19T10:17:12.999Z</time></trkpt><trkpt lat="45.12458077269331" lon="7.184833353529601"><ele>447.0</ele><time>2026-04-19T10:17:13.999Z</time></trkpt><trkpt lat="45.12470789246934" lon="7.18452978794384"><ele>447.0</ele><time>2026-04-19T10:17:14.999Z</time></trkpt><trkpt lat="45.12486616020275" lon="7.184262950597701"><ele>447.0</ele><time>2026-04-19T10:17:15.999Z</time></trkpt><trkpt lat="45.125065734379234" lon="7.184051039170733"><ele>447.0</ele><time>2026-04-19T10:17:16.999Z</time></trkpt><trkpt lat="45.12529773241695" lon="7.183833437756256"><ele>447.0</ele><time>2026-04-19T10:17:17.999Z</time></trkpt><trkpt lat="45.125514404730296" lon="7.1836010915062944"><ele>447.0</ele><time>2026-04-19T10:17:18.999Z</time></trkpt><trkpt lat="45.12570583429667" lon="7.183388171283276"><ele>447.0</ele><time>2026-04-19T10:17:19.999Z</time></trkpt><trkpt lat="45.125884607431686" lon="7.183194512459096"><ele>446.0</ele><time>2026-04-19T10:17:20.999Z</time></trkpt><trkpt lat="45.12604814333282" lon="7.183016649507448"><ele>445.0</ele><time>2026-04-19T10:17:21.999Z</time></trkpt><trkpt lat="45.12620128067526" lon="7.182849912949948"><ele>444.0</ele><time>2026-04-19T10:17:22.999Z</time></trkpt><trkpt lat="45.1263396936118" lon="7.182690826359961"><ele>444.0</ele><time>2026-04-19T10:17:23.999Z</time></trkpt><trkpt lat="45.126460564276485" lon="7.182525670567543"><ele>444.0</ele><time>2026-04-19T10:17:24.999Z</time></trkpt><trkpt lat="45.12656030450851" lon="7.182315241175376"><ele>444.0</ele><time>2026-04-19T10:17:25.999Z</time></trkpt><trkpt lat="45.126631791062" lon="7.18203186358067"><ele>441.5</ele><time>2026-04-19T10:17:26.999Z</time></trkpt><trkpt lat="45.126688563292504" lon="7.181704505230433"><ele>439.0</ele><time>2026-04-19T10:17:27.999Z</time></trkpt><trkpt lat="45.12674522842521" lon="7.181369357656737"><ele>439.0</ele><time>2026-04-19T10:17:28.999Z</time></trkpt><trkpt lat="45.1268035546293" lon="7.181020945566027"><ele>439.0</ele><time>2026-04-19T10:17:29.999Z</time></trkpt><trkpt lat="45.126864919525474" lon="7.1806639562666685"><ele>439.0</ele><time>2026-04-19T10:17:30.999Z</time></trkpt><trkpt lat="45.12691504934519" lon="7.180292501430588"><ele>439.0</ele><time>2026-04-19T10:17:31.999Z</time></trkpt><trkpt lat="45.12694823172839" lon="7.179906646559474"><ele>438.0</ele><time>2026-04-19T10:17:32.999Z</time></trkpt><trkpt lat="45.12696665273454" lon="7.179510898816173"><ele>437.0</ele><time>2026-04-19T10:17:33.999Z</time></trkpt><trkpt lat="45.12697723268385" lon="7.179121502372368"><ele>437.5</ele><time>2026-04-19T10:17:34.999Z</time></trkpt><trkpt lat="45.12698497800562" lon="7.178755266573729"><ele>438.0</ele><time>2026-04-19T10:17:35.999Z</time></trkpt><trkpt lat="45.12699481105994" lon="7.178421108492649"><ele>436.33333333333337</ele><time>2026-04-19T10:17:36.999Z</time></trkpt><trkpt lat="45.127003530164366" lon="7.178117743508411"><ele>434.6666666666667</ele><time>2026-04-19T10:17:37.999Z</time></trkpt><trkpt lat="45.127015302460755" lon="7.17782770953816"><ele>433.0</ele><time>2026-04-19T10:17:38.999Z</time></trkpt><trkpt lat="45.12703448332292" lon="7.177549431827298"><ele>432.33333333333337</ele><time>2026-04-19T10:17:39.999Z</time></trkpt><trkpt lat="45.127087909309104" lon="7.177262294898138"><ele>431.66666666666663</ele><time>2026-04-19T10:17:40.999Z</time></trkpt><trkpt lat="45.12719170213277" lon="7.176978916025191"><ele>431.0</ele><time>2026-04-19T10:17:41.999Z</time></trkpt><trkpt lat="45.12730680605116" lon="7.176690754127462"><ele>429.0</ele><time>2026-04-19T10:17:42.999Z</time></trkpt><trkpt lat="45.12745055845578" lon="7.176426593554625"><ele>427.0</ele><time>2026-04-19T10:17:43.999Z</time></trkpt><trkpt lat="45.127621164974784" lon="7.176185368665661"><ele>427.0</ele><time>2026-04-19T10:17:44.999Z</time></trkpt><trkpt lat="45.127807494254085" lon="7.175945937847565"><ele>427.0</ele><time>2026-04-19T10:17:45.999Z</time></trkpt><trkpt lat="45.127989859883144" lon="7.175684944409966"><ele>427.0</ele><time>2026-04-19T10:17:46.999Z</time></trkpt><trkpt lat="45.12818636658498" lon="7.175436100559369"><ele>427.0</ele><time>2026-04-19T10:17:47.999Z</time></trkpt><trkpt lat="45.12837057506206" lon="7.175188802719241"><ele>427.0</ele><time>2026-04-19T10:17:48.999Z</time></trkpt><trkpt lat="45.12855017319201" lon="7.174953718098075"><ele>427.0</ele><time>2026-04-19T10:17:49.999Z</time></trkpt><trkpt lat="45.1287349386402" lon="7.174718786186814"><ele>427.0</ele><time>2026-04-19T10:17:50.999Z</time></trkpt><trkpt lat="45.128920071039936" lon="7.17447450985896"><ele>427.0</ele><time>2026-04-19T10:17:51.999Z</time></trkpt><trkpt lat="45.129104194645805" lon="7.174235824116741"><ele>428.5</ele><time>2026-04-19T10:17:52.999Z</time></trkpt><trkpt lat="45.129291059194635" lon="7.173999159311168"><ele>430.0</ele><time>2026-04-19T10:17:53.999Z</time></trkpt><trkpt lat="45.129476998236555" lon="7.173761538927106"><ele>430.0</ele><time>2026-04-19T10:17:54.999Z</time></trkpt><trkpt lat="45.1296603008036" lon="7.173525188737992"><ele>430.0</ele><time>2026-04-19T10:17:55.999Z</time></trkpt><trkpt lat="45.129827849924204" lon="7.17331221116311"><ele>429.33333333333337</ele><time>2026-04-19T10:17:57Z</time></trkpt><trkpt lat="45.12998055947226" lon="7.173104819068798"><ele>428.66666666666663</ele><time>2026-04-19T10:17:58Z</time></trkpt><trkpt lat="45.1301364743315" lon="7.172865759763638"><ele>428.0</ele><time>2026-04-19T10:17:59Z</time></trkpt><trkpt lat="45.13026329913165" lon="7.1725858217310146"><ele>429.5</ele><time>2026-04-19T10:18:00Z</time></trkpt><trkpt lat="45.13037311717043" lon="7.172276233585294"><ele>431.0</ele><time>2026-04-19T10:18:01Z</time></trkpt><trkpt lat="45.130450634424925" lon="7.171931015794931"><ele>431.0</ele><time>2026-04-19T10:18:02Z</time></trkpt><trkpt lat="45.130498798271645" lon="7.171569796928265"><ele>431.0</ele><time>2026-04-19T10:18:03Z</time></trkpt><trkpt lat="45.13055728078265" lon="7.171190588573073"><ele>431.5</ele><time>2026-04-19T10:18:04Z</time></trkpt><trkpt lat="45.13059030549702" lon="7.170809971900711"><ele>432.0</ele><time>2026-04-19T10:18:05Z</time></trkpt><trkpt lat="45.130643548713785" lon="7.170432351006838"><ele>433.0</ele><time>2026-04-19T10:18:06Z</time></trkpt><trkpt lat="45.130694179655215" lon="7.170049521456705"><ele>434.0</ele><time>2026-04-19T10:18:07Z</time></trkpt><trkpt lat="45.13074298194729" lon="7.169690120342237"><ele>431.5</ele><time>2026-04-19T10:18:08Z</time></trkpt><trkpt lat="45.130790342291775" lon="7.169354276621939"><ele>429.0</ele><time>2026-04-19T10:18:09Z</time></trkpt><trkpt lat="45.1308325510247" lon="7.1690324498177835"><ele>429.0</ele><time>2026-04-19T10:18:10Z</time></trkpt><trkpt lat="45.13087351850307" lon="7.168730132652655"><ele>429.0</ele><time>2026-04-19T10:18:11Z</time></trkpt><trkpt lat="45.13093063326707" lon="7.168457188493909"><ele>429.0</ele><time>2026-04-19T10:18:12Z</time></trkpt><trkpt lat="45.13094960101639" lon="7.168195714918211"><ele>429.0</ele><time>2026-04-19T10:18:13Z</time></trkpt><trkpt lat="45.13098272366743" lon="7.167961999418504"><ele>429.0</ele><time>2026-04-19T10:18:14Z</time></trkpt><trkpt lat="45.13101244326664" lon="7.167748372389226"><ele>429.0</ele><time>2026-04-19T10:18:15Z</time></trkpt><trkpt lat="45.13103844411804" lon="7.167548903730439"><ele>429.5</ele><time>2026-04-19T10:18:16Z</time></trkpt><trkpt lat="45.131063376813266" lon="7.167359642305856"><ele>430.0</ele><time>2026-04-19T10:18:17Z</time></trkpt><trkpt lat="45.13108667752179" lon="7.1671743096387335"><ele>430.5</ele><time>2026-04-19T10:18:18Z</time></trkpt><trkpt lat="45.13111027811347" lon="7.166988514629856"><ele>431.0</ele><time>2026-04-19T10:18:19Z</time></trkpt><trkpt lat="45.1311365599469" lon="7.166798908583834"><ele>431.0</ele><time>2026-04-19T10:18:20Z</time></trkpt><trkpt lat="45.13116526422005" lon="7.166602315357416"><ele>431.0</ele><time>2026-04-19T10:18:21Z</time></trkpt><trkpt lat="45.13119364535331" lon="7.166406555158266"><ele>431.0</ele><time>2026-04-19T10:18:22Z</time></trkpt><trkpt lat="45.13121740806845" lon="7.166216251083884"><ele>431.0</ele><time>2026-04-19T10:18:23Z</time></trkpt><trkpt lat="45.13124158438354" lon="7.166018824855943"><ele>431.3333333333333</ele><time>2026-04-19T10:18:24Z</time></trkpt><trkpt lat="45.13127204498968" lon="7.165817771206434"><ele>431.66666666666663</ele><time>2026-04-19T10:18:25Z</time></trkpt><trkpt lat="45.13131231561776" lon="7.16561397711906"><ele>432.0</ele><time>2026-04-19T10:18:26Z</time></trkpt><trkpt lat="45.1313714490672" lon="7.165395617794283"><ele>432.66666666666663</ele><time>2026-04-19T10:18:27Z</time></trkpt><trkpt lat="45.1314426378452" lon="7.165170111312435"><ele>433.3333333333333</ele><time>2026-04-19T10:18:28Z</time></trkpt><trkpt lat="45.1315307972589" lon="7.16494120909368"><ele>434.0</ele><time>2026-04-19T10:18:29Z</time></trkpt><trkpt lat="45.1316243362593" lon="7.1647040873777055"><ele>432.0</ele><time>2026-04-19T10:18:30Z</time></trkpt><trkpt lat="45.13172226108302" lon="7.164434179296174"><ele>430.0</ele><time>2026-04-19T10:18:31Z</time></trkpt><trkpt lat="45.131846700189136" lon="7.164142975637668"><ele>431.5</ele><time>2026-04-19T10:18:32Z</time></trkpt><trkpt lat="45.13196273956708" lon="7.163843857740514"><ele>433.0</ele><time>2026-04-19T10:18:33Z</time></trkpt><trkpt lat="45.13207272999035" lon="7.163526413152579"><ele>433.0</ele><time>2026-04-19T10:18:34Z</time></trkpt><trkpt lat="45.1321997311645" lon="7.163221077913268"><ele>433.0</ele><time>2026-04-19T10:18:35Z</time></trkpt><trkpt lat="45.13230888745957" lon="7.162933056452715"><ele>433.0</ele><time>2026-04-19T10:18:36Z</time></trkpt><trkpt lat="45.132408426281195" lon="7.162659482306585"><ele>433.0</ele><time>2026-04-19T10:18:37Z</time></trkpt><trkpt lat="45.13251285892496" lon="7.162386121735838"><ele>433.0</ele><time>2026-04-19T10:18:38Z</time></trkpt><trkpt lat="45.13261701377677" lon="7.162108795000511"><ele>432.33333333333337</ele><time>2026-04-19T10:18:39Z</time></trkpt><trkpt lat="45.132716823608256" lon="7.161836711653212"><ele>431.66666666666663</ele><time>2026-04-19T10:18:40Z</time></trkpt><trkpt lat="45.13281145492957" lon="7.161581919494851"><ele>431.0</ele><time>2026-04-19T10:18:41Z</time></trkpt><trkpt lat="45.132899953314066" lon="7.16134737349752"><ele>431.0</ele><time>2026-04-19T10:18:42Z</time></trkpt><trkpt lat="45.13297360676169" lon="7.161120043705966"><ele>431.0</ele><time>2026-04-19T10:18:43Z</time></trkpt><trkpt lat="45.133037739358166" lon="7.160903798209336"><ele>431.0</ele><time>2026-04-19T10:18:44Z</time></trkpt><trkpt lat="45.13311489791595" lon="7.160693269814193"><ele>432.0</ele><time>2026-04-19T10:18:45Z</time></trkpt><trkpt lat="45.13317840505587" lon="7.1604648420001045"><ele>433.0</ele><time>2026-04-19T10:18:46Z</time></trkpt><trkpt lat="45.1332230088157" lon="7.1602133571573"><ele>434.0</ele><time>2026-04-19T10:18:47Z</time></trkpt><trkpt lat="45.133289155524686" lon="7.159945511959578"><ele>435.0</ele><time>2026-04-19T10:18:48Z</time></trkpt><trkpt lat="45.133377173423966" lon="7.159648119569881"><ele>436.0</ele><time>2026-04-19T10:18:49Z</time></trkpt><trkpt lat="45.133455885692015" lon="7.159324393926463"><ele>435.5</ele><time>2026-04-19T10:18:49.999Z</time></trkpt><trkpt lat="45.13353590105719" lon="7.158995308920275"><ele>435.0</ele><time>2026-04-19T10:18:50.999Z</time></trkpt><trkpt lat="45.133618441123346" lon="7.1586562892927725"><ele>435.0</ele><time>2026-04-19T10:18:51.999Z</time></trkpt><trkpt lat="45.13369150345109" lon="7.158315085414694"><ele>435.0</ele><time>2026-04-19T10:18:52.999Z</time></trkpt><trkpt lat="45.133776974204544" lon="7.158013609248741"><ele>436.0</ele><time>2026-04-19T10:18:53.999Z</time></trkpt><trkpt lat="45.1338746015659" lon="7.157720773952858"><ele>437.0</ele><time>2026-04-19T10:18:54.999Z</time></trkpt><trkpt lat="45.13398015998944" lon="7.157424413774999"><ele>437.0</ele><time>2026-04-19T10:18:55.999Z</time></trkpt><trkpt lat="45.13409785981937" lon="7.1571241413969116"><ele>437.0</ele><time>2026-04-19T10:18:56.999Z</time></trkpt><trkpt lat="45.13421803013904" lon="7.156823643438108"><ele>437.5</ele><time>2026-04-19T10:18:57.999Z</time></trkpt><trkpt lat="45.13433812959639" lon="7.156516231655397"><ele>438.0</ele><time>2026-04-19T10:18:58.999Z</time></trkpt><trkpt lat="45.13445522011007" lon="7.156210282748452"><ele>438.0</ele><time>2026-04-19T10:18:59.999Z</time></trkpt><trkpt lat="45.134572822581674" lon="7.155911975537"><ele>438.0</ele><time>2026-04-19T10:19:00.999Z</time></trkpt><trkpt lat="45.134687032675515" lon="7.155624145638755"><ele>438.0</ele><time>2026-04-19T10:19:01.999Z</time></trkpt><trkpt lat="45.13479276885912" lon="7.155352821679789"><ele>438.0</ele><time>2026-04-19T10:19:02.999Z</time></trkpt><trkpt lat="45.13489543739811" lon="7.155084745068098"><ele>438.0</ele><time>2026-04-19T10:19:03.999Z</time></trkpt><trkpt lat="45.13499686882671" lon="7.1548283524268745"><ele>438.0</ele><time>2026-04-19T10:19:04.999Z</time></trkpt><trkpt lat="45.13509728866174" lon="7.154571259795351"><ele>438.0</ele><time>2026-04-19T10:19:05.999Z</time></trkpt><trkpt lat="45.13519656322089" lon="7.154310714623401"><ele>438.0</ele><time>2026-04-19T10:19:06.999Z</time></trkpt><trkpt lat="45.13528199577496" lon="7.154038032552861"><ele>438.0</ele><time>2026-04-19T10:19:07.999Z</time></trkpt><trkpt lat="45.13529458247334" lon="7.153724229980005"><ele>438.0</ele><time>2026-04-19T10:19:08.999Z</time></trkpt><trkpt lat="45.13532175996263" lon="7.153454118214575"><ele>438.0</ele><time>2026-04-19T10:19:09.999Z</time></trkpt><trkpt lat="45.1353366499103" lon="7.153217893870026"><ele>438.25</ele><time>2026-04-19T10:19:10.999Z</time></trkpt><trkpt lat="45.13535216415496" lon="7.1530083824029775"><ele>438.5</ele><time>2026-04-19T10:19:11.999Z</time></trkpt><trkpt lat="45.13537179297183" lon="7.152824759372115"><ele>438.75</ele><time>2026-04-19T10:19:12.999Z</time></trkpt><trkpt lat="45.1354092969503" lon="7.152666800923916"><ele>439.0</ele><time>2026-04-19T10:19:13.999Z</time></trkpt><trkpt lat="45.135454324751386" lon="7.152510287718221"><ele>439.25</ele><time>2026-04-19T10:19:14.999Z</time></trkpt><trkpt lat="45.1354494761109" lon="7.152327297210487"><ele>439.5</ele><time>2026-04-19T10:19:15.999Z</time></trkpt><trkpt lat="45.1354079611766" lon="7.152127515615795"><ele>439.75</ele><time>2026-04-19T10:19:16.999Z</time></trkpt><trkpt lat="45.13540864642017" lon="7.151895723502121"><ele>440.0</ele><time>2026-04-19T10:19:17.999Z</time></trkpt><trkpt lat="45.135424866425375" lon="7.151657273310852"><ele>441.0</ele><time>2026-04-19T10:19:18.999Z</time></trkpt><trkpt lat="45.13543320030939" lon="7.151393377548842"><ele>442.0</ele><time>2026-04-19T10:19:19.999Z</time></trkpt><trkpt lat="45.13544234596273" lon="7.151126417798183"><ele>443.0</ele><time>2026-04-19T10:19:20.999Z</time></trkpt><trkpt lat="45.13545496476635" lon="7.150845711873437"><ele>443.0</ele><time>2026-04-19T10:19:21.999Z</time></trkpt><trkpt lat="45.13547043990995" lon="7.150557502580105"><ele>443.0</ele><time>2026-04-19T10:19:22.999Z</time></trkpt><trkpt lat="45.135486666898466" lon="7.150243729559068"><ele>443.0</ele><time>2026-04-19T10:19:23.999Z</time></trkpt><trkpt lat="45.13549932166911" lon="7.14990342453091"><ele>443.5</ele><time>2026-04-19T10:19:24.999Z</time></trkpt><trkpt lat="45.13551038668806" lon="7.149562707321035"><ele>444.0</ele><time>2026-04-19T10:19:25.999Z</time></trkpt><trkpt lat="45.135529924609145" lon="7.14921607156434"><ele>444.5</ele><time>2026-04-19T10:19:26.999Z</time></trkpt><trkpt lat="45.13555643052224" lon="7.148883072970911"><ele>445.0</ele><time>2026-04-19T10:19:27.999Z</time></trkpt><trkpt lat="45.135575929886926" lon="7.148575655722914"><ele>445.0</ele><time>2026-04-19T10:19:28.999Z</time></trkpt><trkpt lat="45.13559305783947" lon="7.148285473280994"><ele>445.0</ele><time>2026-04-19T10:19:29.999Z</time></trkpt><trkpt lat="45.135610956462244" lon="7.148014921504452"><ele>445.0</ele><time>2026-04-19T10:19:30.999Z</time></trkpt><trkpt lat="45.135625881063504" lon="7.14775981109626"><ele>446.33333333333337</ele><time>2026-04-19T10:19:31.999Z</time></trkpt><trkpt lat="45.135639845770726" lon="7.1475240882638325"><ele>447.66666666666663</ele><time>2026-04-19T10:19:32.999Z</time></trkpt><trkpt lat="45.13564913635764" lon="7.1473061473849695"><ele>449.0</ele><time>2026-04-19T10:19:33.999Z</time></trkpt><trkpt lat="45.13565374957037" lon="7.147104332952948"><ele>449.25</ele><time>2026-04-19T10:19:34.999Z</time></trkpt><trkpt lat="45.1356498020738" lon="7.146916452988289"><ele>449.5</ele><time>2026-04-19T10:19:35.999Z</time></trkpt><trkpt lat="45.1356427701539" lon="7.146741180668943"><ele>449.75</ele><time>2026-04-19T10:19:36.999Z</time></trkpt><trkpt lat="45.13564947465295" lon="7.146581499793928"><ele>450.0</ele><time>2026-04-19T10:19:37.999Z</time></trkpt><trkpt lat="45.13566882105334" lon="7.146433456844083"><ele>450.6</ele><time>2026-04-19T10:19:38.999Z</time></trkpt><trkpt lat="45.135683389023036" lon="7.146293868700339"><ele>451.2</ele><time>2026-04-19T10:19:39.999Z</time></trkpt><trkpt lat="45.13568701001123" lon="7.146168837235187"><ele>451.79999999999995</ele><time>2026-04-19T10:19:40.999Z</time></trkpt><trkpt lat="45.13568706616538" lon="7.1460427900562555"><ele>452.4</ele><time>2026-04-19T10:19:41.999Z</time></trkpt><trkpt lat="45.13568575002176" lon="7.14589807899327"><ele>453.0</ele><time>2026-04-19T10:19:42.999Z</time></trkpt><trkpt lat="45.13569346140704" lon="7.145743570176724"><ele>453.0</ele><time>2026-04-19T10:19:43.999Z</time></trkpt><trkpt lat="45.13571493435903" lon="7.14557881000508"><ele>453.0</ele><time>2026-04-19T10:19:44.999Z</time></trkpt><trkpt lat="45.135734744055505" lon="7.145399699574748"><ele>453.0</ele><time>2026-04-19T10:19:45.999Z</time></trkpt><trkpt lat="45.13574407940032" lon="7.145196416422166"><ele>453.0</ele><time>2026-04-19T10:19:46.999Z</time></trkpt><trkpt lat="45.13575234692872" lon="7.144960602425741"><ele>452.0</ele><time>2026-04-19T10:19:47.999Z</time></trkpt><trkpt lat="45.13576153581021" lon="7.144705824068669"><ele>451.0</ele><time>2026-04-19T10:19:48.999Z</time></trkpt><trkpt lat="45.135771940239394" lon="7.144443121108613"><ele>450.0</ele><time>2026-04-19T10:19:49.999Z</time></trkpt><trkpt lat="45.13578790645526" lon="7.1441608287842175"><ele>450.0</ele><time>2026-04-19T10:19:50.999Z</time></trkpt><trkpt lat="45.135801997183165" lon="7.1438658350535675"><ele>450.0</ele><time>2026-04-19T10:19:51.999Z</time></trkpt><trkpt lat="45.13580274510172" lon="7.143560136522961"><ele>450.0</ele><time>2026-04-19T10:19:52.999Z</time></trkpt><trkpt lat="45.135782037628616" lon="7.143253408409277"><ele>451.0</ele><time>2026-04-19T10:19:53.999Z</time></trkpt><trkpt lat="45.13574822495097" lon="7.1429355171541875"><ele>452.0</ele><time>2026-04-19T10:19:54.999Z</time></trkpt><trkpt lat="45.13571099986954" lon="7.142613759923571"><ele>452.0</ele><time>2026-04-19T10:19:55.999Z</time></trkpt><trkpt lat="45.13566934923408" lon="7.142285103819106"><ele>452.0</ele><time>2026-04-19T10:19:56.999Z</time></trkpt><trkpt lat="45.13562866257966" lon="7.141951765412603"><ele>452.0</ele><time>2026-04-19T10:19:57.999Z</time></trkpt><trkpt lat="45.135584620229224" lon="7.141617422136387"><ele>452.0</ele><time>2026-04-19T10:19:58.999Z</time></trkpt><trkpt lat="45.135541243170636" lon="7.141281856994288"><ele>452.5</ele><time>2026-04-19T10:19:59.999Z</time></trkpt><trkpt lat="45.13549762679836" lon="7.1409439859676676"><ele>453.0</ele><time>2026-04-19T10:20:00.999Z</time></trkpt><trkpt lat="45.13545110386778" lon="7.140609524582585"><ele>453.0</ele><time>2026-04-19T10:20:01.999Z</time></trkpt><trkpt lat="45.13539867189457" lon="7.140278537436501"><ele>453.0</ele><time>2026-04-19T10:20:03Z</time></trkpt><trkpt lat="45.13533442450692" lon="7.139950175004893"><ele>453.0</ele><time>2026-04-19T10:20:04Z</time></trkpt><trkpt lat="45.135259901671525" lon="7.139631179428779"><ele>453.0</ele><time>2026-04-19T10:20:05Z</time></trkpt><trkpt lat="45.13518289876184" lon="7.139325312278808"><ele>452.0</ele><time>2026-04-19T10:20:06Z</time></trkpt><trkpt lat="45.13510349471479" lon="7.139021631548375"><ele>451.0</ele><time>2026-04-19T10:20:07Z</time></trkpt><trkpt lat="45.13502329075376" lon="7.138721397466673"><ele>451.0</ele><time>2026-04-19T10:20:08Z</time></trkpt><trkpt lat="45.13493952208221" lon="7.138434862405431"><ele>451.0</ele><time>2026-04-19T10:20:09Z</time></trkpt><trkpt lat="45.13485251809911" lon="7.138144610145791"><ele>451.0</ele><time>2026-04-19T10:20:10Z</time></trkpt><trkpt lat="45.134763033166344" lon="7.137837771673365"><ele>452.0</ele><time>2026-04-19T10:20:11Z</time></trkpt><trkpt lat="45.13467540303356" lon="7.137518440149126"><ele>453.0</ele><time>2026-04-19T10:20:12Z</time></trkpt><trkpt lat="45.13458372846426" lon="7.13719184874514"><ele>453.0</ele><time>2026-04-19T10:20:13Z</time></trkpt><trkpt lat="45.13448415788211" lon="7.136856861853249"><ele>453.0</ele><time>2026-04-19T10:20:14Z</time></trkpt><trkpt lat="45.13438179281301" lon="7.136516008204596"><ele>451.5</ele><time>2026-04-19T10:20:15Z</time></trkpt><trkpt lat="45.13427296009245" lon="7.136169361257766"><ele>450.0</ele><time>2026-04-19T10:20:16Z</time></trkpt><trkpt lat="45.13415907334634" lon="7.135818175056357"><ele>451.0</ele><time>2026-04-19T10:20:17Z</time></trkpt><trkpt lat="45.13404400294262" lon="7.135464440960505"><ele>452.0</ele><time>2026-04-19T10:20:18Z</time></trkpt><trkpt lat="45.133931819243706" lon="7.135102550425987"><ele>451.5</ele><time>2026-04-19T10:20:19Z</time></trkpt><trkpt lat="45.133817754427504" lon="7.134736800966313"><ele>451.0</ele><time>2026-04-19T10:20:20Z</time></trkpt><trkpt lat="45.13371031926439" lon="7.134393565464609"><ele>451.0</ele><time>2026-04-19T10:20:21Z</time></trkpt><trkpt lat="45.133628668816165" lon="7.134065392848429"><ele>451.0</ele><time>2026-04-19T10:20:22Z</time></trkpt><trkpt lat="45.13353632602482" lon="7.133751205619879"><ele>451.0</ele><time>2026-04-19T10:20:23Z</time></trkpt><trkpt lat="45.13343585056673" lon="7.133429733490169"><ele>451.0</ele><time>2026-04-19T10:20:24Z</time></trkpt><trkpt lat="45.13337783834441" lon="7.133087462642544"><ele>449.0</ele><time>2026-04-19T10:20:25Z</time></trkpt><trkpt lat="45.133328765555376" lon="7.132722442411598"><ele>447.0</ele><time>2026-04-19T10:20:26Z</time></trkpt><trkpt lat="45.13329293671648" lon="7.132343366143453"><ele>445.5</ele><time>2026-04-19T10:20:27Z</time></trkpt><trkpt lat="45.1332908619303" lon="7.131946897189296"><ele>444.0</ele><time>2026-04-19T10:20:28Z</time></trkpt><trkpt lat="45.1332633565558" lon="7.131541962816532"><ele>444.0</ele><time>2026-04-19T10:20:29Z</time></trkpt><trkpt lat="45.13325452606568" lon="7.131130117239748"><ele>444.0</ele><time>2026-04-19T10:20:30Z</time></trkpt><trkpt lat="45.13324218597281" lon="7.130718633284618"><ele>444.5</ele><time>2026-04-19T10:20:31Z</time></trkpt><trkpt lat="45.13322407456187" lon="7.130301641384387"><ele>445.0</ele><time>2026-04-19T10:20:32Z</time></trkpt><trkpt lat="45.133227769312185" lon="7.12988003287587"><ele>449.0</ele><time>2026-04-19T10:20:33Z</time></trkpt><trkpt lat="45.133200703235325" lon="7.129466091053914"><ele>453.0</ele><time>2026-04-19T10:20:34Z</time></trkpt><trkpt lat="45.13318794590265" lon="7.129053685138088"><ele>455.0</ele><time>2026-04-19T10:20:35Z</time></trkpt><trkpt lat="45.13317813288415" lon="7.128668060658239"><ele>457.0</ele><time>2026-04-19T10:20:36Z</time></trkpt><trkpt lat="45.133158105316774" lon="7.128279513232798"><ele>455.5</ele><time>2026-04-19T10:20:37Z</time></trkpt><trkpt lat="45.13311114675847" lon="7.127881809000058"><ele>454.0</ele><time>2026-04-19T10:20:38Z</time></trkpt><trkpt lat="45.13302632899215" lon="7.127466149283941"><ele>452.0</ele><time>2026-04-19T10:20:38.999Z</time></trkpt><trkpt lat="45.13289966717565" lon="7.127051361495769"><ele>450.0</ele><time>2026-04-19T10:20:39.999Z</time></trkpt><trkpt lat="45.13275852761781" lon="7.126649658095184"><ele>448.5</ele><time>2026-04-19T10:20:40.999Z</time></trkpt><trkpt lat="45.13260287309509" lon="7.126271762798809"><ele>447.0</ele><time>2026-04-19T10:20:41.999Z</time></trkpt><trkpt lat="45.13245203777927" lon="7.125922119661929"><ele>447.5</ele><time>2026-04-19T10:20:42.999Z</time></trkpt><trkpt lat="45.132276729525145" lon="7.125573274058658"><ele>448.0</ele><time>2026-04-19T10:20:43.999Z</time></trkpt><trkpt lat="45.13206737892475" lon="7.125294454964665"><ele>448.0</ele><time>2026-04-19T10:20:44.999Z</time></trkpt><trkpt lat="45.131882752877544" lon="7.125053396308857"><ele>448.0</ele><time>2026-04-19T10:20:45.999Z</time></trkpt><trkpt lat="45.131746507649176" lon="7.124798627714898"><ele>446.5</ele><time>2026-04-19T10:20:46.999Z</time></trkpt><trkpt lat="45.131635114996755" lon="7.124520799057339"><ele>445.0</ele><time>2026-04-19T10:20:47.999Z</time></trkpt><trkpt lat="45.13155957906964" lon="7.124187310428351"><ele>446.0</ele><time>2026-04-19T10:20:48.999Z</time></trkpt><trkpt lat="45.1315252833229" lon="7.1238179760717335"><ele>447.0</ele><time>2026-04-19T10:20:49.999Z</time></trkpt><trkpt lat="45.131541247115905" lon="7.123452255691019"><ele>446.0</ele><time>2026-04-19T10:20:50.999Z</time></trkpt><trkpt lat="45.131597795294276" lon="7.123073550657194"><ele>445.0</ele><time>2026-04-19T10:20:51.999Z</time></trkpt><trkpt lat="45.13164745743069" lon="7.1226695926881725"><ele>446.0</ele><time>2026-04-19T10:20:52.999Z</time></trkpt><trkpt lat="45.13171540329317" lon="7.122274201132113"><ele>447.0</ele><time>2026-04-19T10:20:53.999Z</time></trkpt><trkpt lat="45.13177917192926" lon="7.121878313955963"><ele>447.5</ele><time>2026-04-19T10:20:54.999Z</time></trkpt><trkpt lat="45.13184407330643" lon="7.12147683403571"><ele>448.0</ele><time>2026-04-19T10:20:55.999Z</time></trkpt><trkpt lat="45.131915942592045" lon="7.121070202536888"><ele>448.0</ele><time>2026-04-19T10:20:56.999Z</time></trkpt><trkpt lat="45.131943449285785" lon="7.120644124080627"><ele>448.0</ele><time>2026-04-19T10:20:57.999Z</time></trkpt><trkpt lat="45.131963480937216" lon="7.1202066836024365"><ele>448.0</ele><time>2026-04-19T10:20:58.999Z</time></trkpt><trkpt lat="45.13196036986511" lon="7.119767877384801"><ele>448.0</ele><time>2026-04-19T10:20:59.999Z</time></trkpt><trkpt lat="45.13198253869051" lon="7.119339955149073"><ele>448.5</ele><time>2026-04-19T10:21:00.999Z</time></trkpt><trkpt lat="45.131988918352015" lon="7.118943868313149"><ele>449.0</ele><time>2026-04-19T10:21:01.999Z</time></trkpt><trkpt lat="45.13198117404165" lon="7.1185723998488015"><ele>449.5</ele><time>2026-04-19T10:21:02.999Z</time></trkpt><trkpt lat="45.131998592276126" lon="7.118225450106836"><ele>450.0</ele><time>2026-04-19T10:21:03.999Z</time></trkpt><trkpt lat="45.13204113987771" lon="7.117873910587005"><ele>450.0</ele><time>2026-04-19T10:21:04.999Z</time></trkpt><trkpt lat="45.132134996119085" lon="7.11753019845607"><ele>450.0</ele><time>2026-04-19T10:21:05.999Z</time></trkpt><trkpt lat="45.132264033313625" lon="7.117177274539627"><ele>450.5</ele><time>2026-04-19T10:21:06.999Z</time></trkpt><trkpt lat="45.13239752871587" lon="7.1168034174742125"><ele>451.0</ele><time>2026-04-19T10:21:07.999Z</time></trkpt><trkpt lat="45.13251645309068" lon="7.116429426100132"><ele>451.0</ele><time>2026-04-19T10:21:08.999Z</time></trkpt><trkpt lat="45.13261926821911" lon="7.116049388843942"><ele>451.0</ele><time>2026-04-19T10:21:09.999Z</time></trkpt><trkpt lat="45.13267468206969" lon="7.115673732802825"><ele>452.0</ele><time>2026-04-19T10:21:10.999Z</time></trkpt><trkpt lat="45.13268006601646" lon="7.115255368887297"><ele>453.0</ele><time>2026-04-19T10:21:11.999Z</time></trkpt><trkpt lat="45.13263983152901" lon="7.114815791831146"><ele>454.0</ele><time>2026-04-19T10:21:12.999Z</time></trkpt><trkpt lat="45.13257445886411" lon="7.114375380016104"><ele>455.0</ele><time>2026-04-19T10:21:13.999Z</time></trkpt><trkpt lat="45.13250854204157" lon="7.113956645289585"><ele>455.5</ele><time>2026-04-19T10:21:14.999Z</time></trkpt><trkpt lat="45.13245776222114" lon="7.11357592081064"><ele>456.0</ele><time>2026-04-19T10:21:15.999Z</time></trkpt><trkpt lat="45.13241862677027" lon="7.11322167018283"><ele>458.5</ele><time>2026-04-19T10:21:16.999Z</time></trkpt><trkpt lat="45.13237449288348" lon="7.112861995416799"><ele>461.0</ele><time>2026-04-19T10:21:17.999Z</time></trkpt><trkpt lat="45.1323288655311" lon="7.1124955368600835"><ele>460.5</ele><time>2026-04-19T10:21:18.999Z</time></trkpt><trkpt lat="45.13227710666291" lon="7.1121185038701675"><ele>460.0</ele><time>2026-04-19T10:21:19.999Z</time></trkpt><trkpt lat="45.132226862555804" lon="7.111737749720458"><ele>460.0</ele><time>2026-04-19T10:21:20.999Z</time></trkpt><trkpt lat="45.13218070177234" lon="7.111358862339529"><ele>460.0</ele><time>2026-04-19T10:21:21.999Z</time></trkpt><trkpt lat="45.132139807502604" lon="7.110987692738064"><ele>459.5</ele><time>2026-04-19T10:21:22.999Z</time></trkpt><trkpt lat="45.132096873724386" lon="7.11063600488469"><ele>459.0</ele><time>2026-04-19T10:21:23.999Z</time></trkpt><trkpt lat="45.13205395442357" lon="7.110308151183417"><ele>459.0</ele><time>2026-04-19T10:21:24.999Z</time></trkpt><trkpt lat="45.1320107724633" lon="7.109995287771837"><ele>459.0</ele><time>2026-04-19T10:21:25.999Z</time></trkpt><trkpt lat="45.131972640659924" lon="7.109690642646283"><ele>459.0</ele><time>2026-04-19T10:21:26.999Z</time></trkpt><trkpt lat="45.13193603314669" lon="7.109397406914884"><ele>459.0</ele><time>2026-04-19T10:21:27.999Z</time></trkpt><trkpt lat="45.131900982366304" lon="7.109114529090356"><ele>459.0</ele><time>2026-04-19T10:21:28.999Z</time></trkpt><trkpt lat="45.13186817815129" lon="7.108839920525746"><ele>459.0</ele><time>2026-04-19T10:21:29.999Z</time></trkpt><trkpt lat="45.131838594706785" lon="7.108566624307727"><ele>458.33333333333337</ele><time>2026-04-19T10:21:30.999Z</time></trkpt><trkpt lat="45.13183121234298" lon="7.108280179420118"><ele>457.6666666666667</ele><time>2026-04-19T10:21:31.999Z</time></trkpt><trkpt lat="45.13185383508463" lon="7.107987850101125"><ele>457.0</ele><time>2026-04-19T10:21:32.999Z</time></trkpt><trkpt lat="45.131896209265975" lon="7.1076838395408535"><ele>455.5</ele><time>2026-04-19T10:21:33.999Z</time></trkpt><trkpt lat="45.131951668168476" lon="7.107375193496656"><ele>454.0</ele><time>2026-04-19T10:21:34.999Z</time></trkpt><trkpt lat="45.132008261264886" lon="7.1070568193835"><ele>454.0</ele><time>2026-04-19T10:21:35.999Z</time></trkpt><trkpt lat="45.132058449563914" lon="7.106726813724021"><ele>454.0</ele><time>2026-04-19T10:21:36.999Z</time></trkpt><trkpt lat="45.13210569121632" lon="7.106383246527381"><ele>454.5</ele><time>2026-04-19T10:21:37.999Z</time></trkpt><trkpt lat="45.13215812484536" lon="7.106034095021244"><ele>455.0</ele><time>2026-04-19T10:21:38.999Z</time></trkpt><trkpt lat="45.13220891856269" lon="7.105673037116091"><ele>455.5</ele><time>2026-04-19T10:21:39.999Z</time></trkpt><trkpt lat="45.13224126201421" lon="7.1053022553366665"><ele>456.0</ele><time>2026-04-19T10:21:40.999Z</time></trkpt><trkpt lat="45.132254365095385" lon="7.104915346756602"><ele>457.0</ele><time>2026-04-19T10:21:41.999Z</time></trkpt><trkpt lat="45.1322383882623" lon="7.10451640204506"><ele>458.0</ele><time>2026-04-19T10:21:42.999Z</time></trkpt><trkpt lat="45.132226092603375" lon="7.104103686246124"><ele>459.0</ele><time>2026-04-19T10:21:43.999Z</time></trkpt><trkpt lat="45.13220512023529" lon="7.103694654087364"><ele>460.0</ele><time>2026-04-19T10:21:44.999Z</time></trkpt><trkpt lat="45.13218483133589" lon="7.103276325963463"><ele>460.0</ele><time>2026-04-19T10:21:45.999Z</time></trkpt><trkpt lat="45.132179943512845" lon="7.102858491846787"><ele>460.0</ele><time>2026-04-19T10:21:46.999Z</time></trkpt><trkpt lat="45.1321911998582" lon="7.1024336554329155"><ele>461.0</ele><time>2026-04-19T10:21:47.999Z</time></trkpt><trkpt lat="45.13222513111036" lon="7.102009312457282"><ele>462.0</ele><time>2026-04-19T10:21:48.999Z</time></trkpt><trkpt lat="45.132283750419404" lon="7.1015807375761115"><ele>462.0</ele><time>2026-04-19T10:21:49.999Z</time></trkpt><trkpt lat="45.132360859010525" lon="7.101158134889528"><ele>462.0</ele><time>2026-04-19T10:21:50.999Z</time></trkpt><trkpt lat="45.13245679656919" lon="7.100736171348931"><ele>462.0</ele><time>2026-04-19T10:21:51.999Z</time></trkpt><trkpt lat="45.13257006954752" lon="7.100323611518387"><ele>462.0</ele><time>2026-04-19T10:21:52.999Z</time></trkpt><trkpt lat="45.132692247525426" lon="7.0999103707995666"><ele>463.0</ele><time>2026-04-19T10:21:53.999Z</time></trkpt><trkpt lat="45.1328071733948" lon="7.0994887081753015"><ele>464.0</ele><time>2026-04-19T10:21:54.999Z</time></trkpt><trkpt lat="45.132893267243496" lon="7.0990451709252085"><ele>464.5</ele><time>2026-04-19T10:21:55.999Z</time></trkpt><trkpt lat="45.13295116741442" lon="7.098606652491336"><ele>465.0</ele><time>2026-04-19T10:21:56.999Z</time></trkpt><trkpt lat="45.13300929940407" lon="7.098189405375697"><ele>466.0</ele><time>2026-04-19T10:21:57.999Z</time></trkpt><trkpt lat="45.13306991828468" lon="7.097799667865722"><ele>467.0</ele><time>2026-04-19T10:21:58.999Z</time></trkpt><trkpt lat="45.13312656430913" lon="7.097432360992449"><ele>467.0</ele><time>2026-04-19T10:21:59.999Z</time></trkpt><trkpt lat="45.13319890981116" lon="7.097069038349371"><ele>467.0</ele><time>2026-04-19T10:22:00.999Z</time></trkpt><trkpt lat="45.13330515429446" lon="7.0967050636965245"><ele>467.5</ele><time>2026-04-19T10:22:01.999Z</time></trkpt><trkpt lat="45.133441870055165" lon="7.096345166732912"><ele>468.0</ele><time>2026-04-19T10:22:02.999Z</time></trkpt><trkpt lat="45.133588649338506" lon="7.0959910125444825"><ele>469.0</ele><time>2026-04-19T10:22:03.999Z</time></trkpt><trkpt lat="45.133729578804406" lon="7.095628674589818"><ele>470.0</ele><time>2026-04-19T10:22:04.999Z</time></trkpt><trkpt lat="45.133862969554244" lon="7.095264831303169"><ele>470.0</ele><time>2026-04-19T10:22:05.999Z</time></trkpt><trkpt lat="45.133992853738896" lon="7.094896838121309"><ele>470.0</ele><time>2026-04-19T10:22:06.999Z</time></trkpt><trkpt lat="45.134108297145346" lon="7.094522711851363"><ele>470.0</ele><time>2026-04-19T10:22:08Z</time></trkpt><trkpt lat="45.13420619906953" lon="7.094137636518313"><ele>470.0</ele><time>2026-04-19T10:22:09Z</time></trkpt><trkpt lat="45.13428603970873" lon="7.093733483241655"><ele>469.5</ele><time>2026-04-19T10:22:10Z</time></trkpt><trkpt lat="45.13434710620749" lon="7.093319346382776"><ele>469.0</ele><time>2026-04-19T10:22:11Z</time></trkpt><trkpt lat="45.134387831247594" lon="7.0929051254328686"><ele>469.0</ele><time>2026-04-19T10:22:12Z</time></trkpt><trkpt lat="45.13443584623887" lon="7.092518705088982"><ele>469.0</ele><time>2026-04-19T10:22:13Z</time></trkpt><trkpt lat="45.134465622390024" lon="7.092156133421011"><ele>469.0</ele><time>2026-04-19T10:22:14Z</time></trkpt><trkpt lat="45.13449391040322" lon="7.091809689568925"><ele>469.0</ele><time>2026-04-19T10:22:15Z</time></trkpt><trkpt lat="45.13452171825259" lon="7.091463576610209"><ele>469.5</ele><time>2026-04-19T10:22:16Z</time></trkpt><trkpt lat="45.134533659117444" lon="7.091131890600244"><ele>470.0</ele><time>2026-04-19T10:22:17Z</time></trkpt><trkpt lat="45.13456228077404" lon="7.090812486103007"><ele>471.5</ele><time>2026-04-19T10:22:18Z</time></trkpt><trkpt lat="45.13458923516042" lon="7.090491062063869"><ele>473.0</ele><time>2026-04-19T10:22:19Z</time></trkpt><trkpt lat="45.13461512654092" lon="7.0901712984566965"><ele>472.66666666666663</ele><time>2026-04-19T10:22:20Z</time></trkpt><trkpt lat="45.134638186556586" lon="7.089878003903251"><ele>472.33333333333337</ele><time>2026-04-19T10:22:21Z</time></trkpt><trkpt lat="45.13465901310068" lon="7.08960803923589"><ele>472.0</ele><time>2026-04-19T10:22:22Z</time></trkpt><trkpt lat="45.134679140845044" lon="7.089347847016984"><ele>473.0</ele><time>2026-04-19T10:22:23Z</time></trkpt><trkpt lat="45.134700438505355" lon="7.08907995326419"><ele>474.0</ele><time>2026-04-19T10:22:24Z</time></trkpt><trkpt lat="45.134722606973796" lon="7.088805486943483"><ele>475.0</ele><time>2026-04-19T10:22:25Z</time></trkpt><trkpt lat="45.13474465934201" lon="7.088548693233688"><ele>475.0</ele><time>2026-04-19T10:22:26Z</time></trkpt><trkpt lat="45.13476617262096" lon="7.088300776221627"><ele>475.0</ele><time>2026-04-19T10:22:27Z</time></trkpt><trkpt lat="45.13478562786726" lon="7.088064796883448"><ele>475.0</ele><time>2026-04-19T10:22:27.999Z</time></trkpt><trkpt lat="45.13481003877134" lon="7.087818895504789"><ele>475.0</ele><time>2026-04-19T10:22:28.999Z</time></trkpt><trkpt lat="45.13483636506835" lon="7.087566214386711"><ele>475.0</ele><time>2026-04-19T10:22:29.999Z</time></trkpt><trkpt lat="45.134862183048824" lon="7.087306111109184"><ele>475.0</ele><time>2026-04-19T10:22:30.999Z</time></trkpt><trkpt lat="45.13488730489407" lon="7.087045435979093"><ele>475.0</ele><time>2026-04-19T10:22:31.999Z</time></trkpt><trkpt lat="45.13488655936161" lon="7.086875146311171"><ele>475.0</ele><time>2026-04-19T10:22:32.999Z</time></trkpt><trkpt lat="45.13490405509727" lon="7.086647508221406"><ele>475.0</ele><time>2026-04-19T10:22:33.999Z</time></trkpt><trkpt lat="45.134921982566986" lon="7.086419395311888"><ele>475.0</ele><time>2026-04-19T10:22:34.999Z</time></trkpt><trkpt lat="45.13494212037696" lon="7.086191775351977"><ele>475.0</ele><time>2026-04-19T10:22:35.999Z</time></trkpt><trkpt lat="45.134957963339495" lon="7.085971731747811"><ele>475.0</ele><time>2026-04-19T10:22:36.999Z</time></trkpt><trkpt lat="45.13496164042751" lon="7.085772908172929"><ele>475.0</ele><time>2026-04-19T10:22:37.999Z</time></trkpt><trkpt lat="45.134984761592655" lon="7.08554981628002"><ele>475.0</ele><time>2026-04-19T10:22:38.999Z</time></trkpt><trkpt lat="45.13499598052183" lon="7.085356886998727"><ele>475.0</ele><time>2026-04-19T10:22:39.999Z</time></trkpt><trkpt lat="45.13499643306594" lon="7.085167110259914"><ele>475.0</ele><time>2026-04-19T10:22:40.999Z</time></trkpt><trkpt lat="45.13500240800409" lon="7.084995675440235"><ele>475.0</ele><time>2026-04-19T10:22:41.999Z</time></trkpt><trkpt lat="45.13500294177681" lon="7.084830286590552"><ele>475.1666666666667</ele><time>2026-04-19T10:22:42.999Z</time></trkpt><trkpt lat="45.13500210191222" lon="7.0846852770403625"><ele>475.33333333333337</ele><time>2026-04-19T10:22:43.999Z</time></trkpt><trkpt lat="45.13499278733793" lon="7.084568144824915"><ele>475.5</ele><time>2026-04-19T10:22:44.999Z</time></trkpt><trkpt lat="45.1349741275947" lon="7.084419385974852"><ele>475.66666666666663</ele><time>2026-04-19T10:22:46.999Z</time></trkpt><trkpt lat="45.13497148602212" lon="7.084321130263121"><ele>475.8333333333333</ele><time>2026-04-19T10:22:49.999Z</time></trkpt><trkpt lat="45.134959902796744" lon="7.084220579544064"><ele>476.0</ele><time>2026-04-19T10:23:36.999Z</time></trkpt><trkpt lat="45.134944223134774" lon="7.0840865993972795"><ele>476.0</ele><time>2026-04-19T10:23:37.999Z</time></trkpt><trkpt lat="45.13493418555465" lon="7.083921720602216"><ele>476.0</ele><time>2026-04-19T10:23:38.999Z</time></trkpt><trkpt lat="45.13491274845105" lon="7.083744774423911"><ele>476.0</ele><time>2026-04-19T10:23:39.999Z</time></trkpt><trkpt lat="45.13488377642676" lon="7.083533670762221"><ele>476.0</ele><time>2026-04-19T10:23:40.999Z</time></trkpt><trkpt lat="45.13484598358718" lon="7.083303113033495"><ele>477.0</ele><time>2026-04-19T10:23:41.999Z</time></trkpt><trkpt lat="45.13479888532244" lon="7.0830656951749145"><ele>478.0</ele><time>2026-04-19T10:23:42.999Z</time></trkpt><trkpt lat="45.13474085514994" lon="7.082832041121643"><ele>479.0</ele><time>2026-04-19T10:23:43.999Z</time></trkpt><trkpt lat="45.13467555398714" lon="7.082582394279188"><ele>478.66666666666663</ele><time>2026-04-19T10:23:44.999Z</time></trkpt><trkpt lat="45.134603382042606" lon="7.082325780152232"><ele>478.33333333333337</ele><time>2026-04-19T10:23:45.999Z</time></trkpt><trkpt lat="45.134526513267616" lon="7.082064415003987"><ele>478.0</ele><time>2026-04-19T10:23:46.999Z</time></trkpt><trkpt lat="45.13444815704912" lon="7.081784050313265"><ele>477.0</ele><time>2026-04-19T10:23:47.999Z</time></trkpt><trkpt lat="45.13436808346134" lon="7.08150322886421"><ele>476.0</ele><time>2026-04-19T10:23:48.999Z</time></trkpt><trkpt lat="45.13428500007074" lon="7.081223495278378"><ele>475.0</ele><time>2026-04-19T10:23:49.999Z</time></trkpt><trkpt lat="45.13420149770116" lon="7.080938806598619"><ele>475.0</ele><time>2026-04-19T10:23:50.999Z</time></trkpt><trkpt lat="45.13412190890398" lon="7.080670888515051"><ele>475.0</ele><time>2026-04-19T10:23:51.999Z</time></trkpt><trkpt lat="45.13404701256103" lon="7.080392888941617"><ele>475.0</ele><time>2026-04-19T10:23:52.999Z</time></trkpt><trkpt lat="45.13397246334256" lon="7.080115244086854"><ele>475.33333333333337</ele><time>2026-04-19T10:23:53.999Z</time></trkpt><trkpt lat="45.133895907632414" lon="7.079830698322076"><ele>475.66666666666663</ele><time>2026-04-19T10:23:54.999Z</time></trkpt><trkpt lat="45.13382805299768" lon="7.079540492160434"><ele>476.0</ele><time>2026-04-19T10:23:55.999Z</time></trkpt><trkpt lat="45.13376124320061" lon="7.07924155719268"><ele>475.5</ele><time>2026-04-19T10:23:56.999Z</time></trkpt><trkpt lat="45.13369270923512" lon="7.078936895928926"><ele>475.0</ele><time>2026-04-19T10:23:57.999Z</time></trkpt><trkpt lat="45.133627214785136" lon="7.078628523152936"><ele>475.0</ele><time>2026-04-19T10:23:58.999Z</time></trkpt><trkpt lat="45.133563881036984" lon="7.078317141975185"><ele>475.0</ele><time>2026-04-19T10:23:59.999Z</time></trkpt><trkpt lat="45.13349842002488" lon="7.0779954166732715"><ele>474.5</ele><time>2026-04-19T10:24:00.999Z</time></trkpt><trkpt lat="45.13343020723429" lon="7.077671637320673"><ele>474.0</ele><time>2026-04-19T10:24:01.999Z</time></trkpt><trkpt lat="45.1333624345136" lon="7.077344385205699"><ele>473.5</ele><time>2026-04-19T10:24:02.999Z</time></trkpt><trkpt lat="45.133295359665205" lon="7.077025467134186"><ele>473.0</ele><time>2026-04-19T10:24:03.999Z</time></trkpt><trkpt lat="45.1332259660525" lon="7.076704059769388"><ele>473.0</ele><time>2026-04-19T10:24:04.999Z</time></trkpt><trkpt lat="45.13315485826497" lon="7.076377360788995"><ele>473.0</ele><time>2026-04-19T10:24:05.999Z</time></trkpt><trkpt lat="45.133084398508196" lon="7.076054712338013"><ele>474.5</ele><time>2026-04-19T10:24:06.999Z</time></trkpt><trkpt lat="45.133015455794734" lon="7.075720392921186"><ele>476.0</ele><time>2026-04-19T10:24:07.999Z</time></trkpt><trkpt lat="45.13295441549529" lon="7.075397672263353"><ele>476.0</ele><time>2026-04-19T10:24:08.999Z</time></trkpt><trkpt lat="45.13290583831018" lon="7.075086903201203"><ele>476.0</ele><time>2026-04-19T10:24:09.999Z</time></trkpt><trkpt lat="45.13286874792689" lon="7.07477194013905"><ele>476.0</ele><time>2026-04-19T10:24:10.999Z</time></trkpt><trkpt lat="45.1328393900674" lon="7.074452320795442"><ele>476.0</ele><time>2026-04-19T10:24:11.999Z</time></trkpt><trkpt lat="45.13282113062448" lon="7.0741182794376005"><ele>476.0</ele><time>2026-04-19T10:24:12.999Z</time></trkpt><trkpt lat="45.132817024619854" lon="7.073790773156391"><ele>476.0</ele><time>2026-04-19T10:24:14Z</time></trkpt><trkpt lat="45.13280991779791" lon="7.073458282781288"><ele>476.0</ele><time>2026-04-19T10:24:15Z</time></trkpt><trkpt lat="45.132810550831394" lon="7.073111051028199"><ele>476.0</ele><time>2026-04-19T10:24:16Z</time></trkpt><trkpt lat="45.13281195485533" lon="7.072757177731781"><ele>476.5</ele><time>2026-04-19T10:24:17Z</time></trkpt><trkpt lat="45.13281241223434" lon="7.072404130077821"><ele>477.0</ele><time>2026-04-19T10:24:18Z</time></trkpt><trkpt lat="45.13280961886448" lon="7.072045994546034"><ele>477.0</ele><time>2026-04-19T10:24:19Z</time></trkpt><trkpt lat="45.1328044707273" lon="7.071680804657729"><ele>477.0</ele><time>2026-04-19T10:24:20Z</time></trkpt><trkpt lat="45.13279736393505" lon="7.071321590233614"><ele>477.5</ele><time>2026-04-19T10:24:21Z</time></trkpt><trkpt lat="45.13279761888743" lon="7.07097336469063"><ele>478.0</ele><time>2026-04-19T10:24:22Z</time></trkpt><trkpt lat="45.132801969011766" lon="7.070623785611222"><ele>478.0</ele><time>2026-04-19T10:24:23Z</time></trkpt><trkpt lat="45.132800546381844" lon="7.07027257788238"><ele>478.0</ele><time>2026-04-19T10:24:24Z</time></trkpt><trkpt lat="45.132802305257954" lon="7.069924250987745"><ele>478.5</ele><time>2026-04-19T10:24:25Z</time></trkpt><trkpt lat="45.13280416345407" lon="7.069581405695477"><ele>479.0</ele><time>2026-04-19T10:24:26Z</time></trkpt><trkpt lat="45.13280226613035" lon="7.06923912895365"><ele>479.5</ele><time>2026-04-19T10:24:27Z</time></trkpt><trkpt lat="45.13280404603353" lon="7.068898284338301"><ele>480.0</ele><time>2026-04-19T10:24:28Z</time></trkpt><trkpt lat="45.13280175861807" lon="7.068570338746447"><ele>481.0</ele><time>2026-04-19T10:24:29Z</time></trkpt><trkpt lat="45.13280083095984" lon="7.068260525187617"><ele>482.0</ele><time>2026-04-19T10:24:30Z</time></trkpt><trkpt lat="45.13280190905448" lon="7.067961734427392"><ele>483.0</ele><time>2026-04-19T10:24:31Z</time></trkpt><trkpt lat="45.13279944090261" lon="7.067666073403009"><ele>484.0</ele><time>2026-04-19T10:24:32Z</time></trkpt><trkpt lat="45.13280174839531" lon="7.067355352879912"><ele>485.0</ele><time>2026-04-19T10:24:33Z</time></trkpt><trkpt lat="45.132803592838094" lon="7.067035747968437"><ele>486.0</ele><time>2026-04-19T10:24:34Z</time></trkpt><trkpt lat="45.13280437640721" lon="7.06671716882039"><ele>486.5</ele><time>2026-04-19T10:24:35Z</time></trkpt><trkpt lat="45.132802984486155" lon="7.066392189148514"><ele>487.0</ele><time>2026-04-19T10:24:36Z</time></trkpt><trkpt lat="45.13280230788887" lon="7.066074531843795"><ele>486.33333333333337</ele><time>2026-04-19T10:24:37Z</time></trkpt><trkpt lat="45.13280133970525" lon="7.065776356592704"><ele>485.66666666666663</ele><time>2026-04-19T10:24:38Z</time></trkpt><trkpt lat="45.13279735819857" lon="7.065498648347933"><ele>485.0</ele><time>2026-04-19T10:24:39Z</time></trkpt><trkpt lat="45.13279755095389" lon="7.0652405019896305"><ele>485.0</ele><time>2026-04-19T10:24:40Z</time></trkpt><trkpt lat="45.132795385604666" lon="7.06498508539472"><ele>485.0</ele><time>2026-04-19T10:24:41Z</time></trkpt><trkpt lat="45.13280796121219" lon="7.064709180086679"><ele>485.0</ele><time>2026-04-19T10:24:42Z</time></trkpt><trkpt lat="45.13284754774979" lon="7.064429470165767"><ele>485.0</ele><time>2026-04-19T10:24:43Z</time></trkpt><trkpt lat="45.132913317803364" lon="7.064145819995465"><ele>485.0</ele><time>2026-04-19T10:24:44Z</time></trkpt><trkpt lat="45.133002908828445" lon="7.063865568145945"><ele>485.0</ele><time>2026-04-19T10:24:45Z</time></trkpt><trkpt lat="45.13310719264568" lon="7.063586304710903"><ele>485.5</ele><time>2026-04-19T10:24:46Z</time></trkpt><trkpt lat="45.133216365271615" lon="7.063308319694748"><ele>486.0</ele><time>2026-04-19T10:24:47Z</time></trkpt><trkpt lat="45.133318323236054" lon="7.063023636829943"><ele>485.33333333333337</ele><time>2026-04-19T10:24:48Z</time></trkpt><trkpt lat="45.133415811799814" lon="7.062736369287495"><ele>484.6666666666667</ele><time>2026-04-19T10:24:49Z</time></trkpt><trkpt lat="45.133513270611886" lon="7.0624522646019745"><ele>484.0</ele><time>2026-04-19T10:24:49.999Z</time></trkpt><trkpt lat="45.13361384599313" lon="7.062171438947253"><ele>484.0</ele><time>2026-04-19T10:24:50.999Z</time></trkpt><trkpt lat="45.1337091723395" lon="7.061902260177348"><ele>484.0</ele><time>2026-04-19T10:24:51.999Z</time></trkpt><trkpt lat="45.13379811281071" lon="7.061647427099271"><ele>484.0</ele><time>2026-04-19T10:24:52.999Z</time></trkpt><trkpt lat="45.13388485620342" lon="7.061411461145937"><ele>483.6666666666667</ele><time>2026-04-19T10:24:53.999Z</time></trkpt><trkpt lat="45.133964769459446" lon="7.061188895847123"><ele>483.33333333333337</ele><time>2026-04-19T10:24:54.999Z</time></trkpt><trkpt lat="45.13404304684452" lon="7.060974586851979"><ele>483.0</ele><time>2026-04-19T10:24:55.999Z</time></trkpt><trkpt lat="45.13412101348261" lon="7.060762881524893"><ele>484.33333333333337</ele><time>2026-04-19T10:24:56.999Z</time></trkpt><trkpt lat="45.13419636762558" lon="7.060540330737218"><ele>485.6666666666667</ele><time>2026-04-19T10:24:57.999Z</time></trkpt><trkpt lat="45.134274744162724" lon="7.060343786841468"><ele>487.0</ele><time>2026-04-19T10:24:58.999Z</time></trkpt><trkpt lat="45.13434613448322" lon="7.060165515237504"><ele>487.0</ele><time>2026-04-19T10:24:59.999Z</time></trkpt><trkpt lat="45.13441582626842" lon="7.060030655541954"><ele>487.00000000000006</ele><time>2026-04-19T10:25:00.999Z</time></trkpt><trkpt lat="45.13450002136561" lon="7.059941433090249"><ele>487.00000000000006</ele><time>2026-04-19T10:25:01.999Z</time></trkpt><trkpt lat="45.13459765407312" lon="7.059903273561189"><ele>487.0</ele><time>2026-04-19T10:25:02.999Z</time></trkpt><trkpt lat="45.13470244366363" lon="7.059911430051474"><ele>487.0</ele><time>2026-04-19T10:25:03.999Z</time></trkpt><trkpt lat="45.13480204871962" lon="7.05995747876612"><ele>486.75</ele><time>2026-04-19T10:25:04.999Z</time></trkpt><trkpt lat="45.134905176154874" lon="7.060032825534547"><ele>486.5</ele><time>2026-04-19T10:25:05.999Z</time></trkpt><trkpt lat="45.135019796584906" lon="7.060114795898724"><ele>486.25</ele><time>2026-04-19T10:25:06.999Z</time></trkpt><trkpt lat="45.13513968431087" lon="7.0601832933239015"><ele>486.0</ele><time>2026-04-19T10:25:07.999Z</time></trkpt><trkpt lat="45.13526755318449" lon="7.060254511564307"><ele>486.0</ele><time>2026-04-19T10:25:08.999Z</time></trkpt><trkpt lat="45.13539430665054" lon="7.060331411689641"><ele>486.0</ele><time>2026-04-19T10:25:09.999Z</time></trkpt><trkpt lat="45.13552896542472" lon="7.060404272849411"><ele>486.0</ele><time>2026-04-19T10:25:10.999Z</time></trkpt><trkpt lat="45.135671604725744" lon="7.0604784053080225"><ele>486.0</ele><time>2026-04-19T10:25:11.999Z</time></trkpt><trkpt lat="45.13580999842113" lon="7.060563345560799"><ele>486.75</ele><time>2026-04-19T10:25:12.999Z</time></trkpt><trkpt lat="45.135951107116604" lon="7.060652499835597"><ele>487.5</ele><time>2026-04-19T10:25:13.999Z</time></trkpt><trkpt lat="45.136084624506154" lon="7.0607311783289965"><ele>488.25</ele><time>2026-04-19T10:25:14.999Z</time></trkpt><trkpt lat="45.13621387197928" lon="7.060808317816597"><ele>489.0</ele><time>2026-04-19T10:25:15.999Z</time></trkpt><trkpt lat="45.13633807705908" lon="7.060875629615859"><ele>489.0</ele><time>2026-04-19T10:25:16.999Z</time></trkpt><trkpt lat="45.136449256277075" lon="7.060944234575113"><ele>489.0</ele><time>2026-04-19T10:25:17.999Z</time></trkpt><trkpt lat="45.136551719811" lon="7.061009824688375"><ele>489.0</ele><time>2026-04-19T10:25:18.999Z</time></trkpt><trkpt lat="45.13664642211357" lon="7.061068520627368"><ele>489.0</ele><time>2026-04-19T10:25:19.999Z</time></trkpt><trkpt lat="45.13673791155345" lon="7.061120291339312"><ele>489.0</ele><time>2026-04-19T10:25:20.999Z</time></trkpt><trkpt lat="45.136809842419744" lon="7.061175021284723"><ele>489.1666666666667</ele><time>2026-04-19T10:25:21.999Z</time></trkpt><trkpt lat="45.136862914529544" lon="7.061243825868689"><ele>489.33333333333337</ele><time>2026-04-19T10:25:23.999Z</time></trkpt><trkpt lat="45.13692251672474" lon="7.061356836264577"><ele>489.5</ele><time>2026-04-19T10:25:25.999Z</time></trkpt><trkpt lat="45.13697672425177" lon="7.0614036504729265"><ele>489.6666666666667</ele><time>2026-04-19T10:25:26.999Z</time></trkpt><trkpt lat="45.13704622854776" lon="7.061377897687904"><ele>489.83333333333337</ele><time>2026-04-19T10:25:27.999Z</time></trkpt><trkpt lat="45.13710274511669" lon="7.061304410651324"><ele>490.0</ele><time>2026-04-19T10:25:28.999Z</time></trkpt><trkpt lat="45.13712805795713" lon="7.061204708193764"><ele>490.0</ele><time>2026-04-19T10:25:29.999Z</time></trkpt><trkpt lat="45.13711210603965" lon="7.06109066520927"><ele>490.0</ele><time>2026-04-19T10:25:30.999Z</time></trkpt><trkpt lat="45.13708124046492" lon="7.060972147245419"><ele>490.0</ele><time>2026-04-19T10:25:31.999Z</time></trkpt><trkpt lat="45.137076184012436" lon="7.060849806670447"><ele>490.0</ele><time>2026-04-19T10:25:32.999Z</time></trkpt><trkpt lat="45.137090272327185" lon="7.060712961960907"><ele>490.0</ele><time>2026-04-19T10:25:33.999Z</time></trkpt><trkpt lat="45.1371159259353" lon="7.0605691388422365"><ele>490.25</ele><time>2026-04-19T10:25:34.999Z</time></trkpt><trkpt lat="45.137132381257075" lon="7.060413067293292"><ele>490.5</ele><time>2026-04-19T10:25:35.999Z</time></trkpt><trkpt lat="45.13714848980725" lon="7.060253799561211"><ele>490.75</ele><time>2026-04-19T10:25:36.999Z</time></trkpt><trkpt lat="45.13716689241624" lon="7.060080642267225"><ele>491.0</ele><time>2026-04-19T10:25:37.999Z</time></trkpt><trkpt lat="45.1371912440362" lon="7.059889388376113"><ele>490.5</ele><time>2026-04-19T10:25:38.999Z</time></trkpt><trkpt lat="45.13721417690493" lon="7.059693699618069"><ele>490.0</ele><time>2026-04-19T10:25:39.999Z</time></trkpt><trkpt lat="45.13723901016647" lon="7.059491088355376"><ele>489.5</ele><time>2026-04-19T10:25:40.999Z</time></trkpt><trkpt lat="45.137258721622295" lon="7.059288952091573"><ele>489.0</ele><time>2026-04-19T10:25:41.999Z</time></trkpt><trkpt lat="45.137283631594535" lon="7.0590984940648065"><ele>488.5</ele><time>2026-04-19T10:25:42.999Z</time></trkpt><trkpt lat="45.13730711431609" lon="7.058902294165195"><ele>488.0</ele><time>2026-04-19T10:25:43.999Z</time></trkpt><trkpt lat="45.137332896003954" lon="7.058700810653136"><ele>487.5</ele><time>2026-04-19T10:25:44.999Z</time></trkpt><trkpt lat="45.137358154817925" lon="7.058496761774019"><ele>487.0</ele><time>2026-04-19T10:25:45.999Z</time></trkpt><trkpt lat="45.137382887904884" lon="7.058288660105"><ele>488.0</ele><time>2026-04-19T10:25:46.999Z</time></trkpt><trkpt lat="45.13740555678855" lon="7.058079981538057"><ele>489.0</ele><time>2026-04-19T10:25:47.999Z</time></trkpt><trkpt lat="45.137430554644105" lon="7.057872566064546"><ele>490.0</ele><time>2026-04-19T10:25:48.999Z</time></trkpt><trkpt lat="45.13745411185913" lon="7.057663994386169"><ele>491.0</ele><time>2026-04-19T10:25:49.999Z</time></trkpt><trkpt lat="45.13747915633194" lon="7.057457935057673"><ele>491.0</ele><time>2026-04-19T10:25:50.999Z</time></trkpt><trkpt lat="45.137505895578464" lon="7.057252689101909"><ele>491.0</ele><time>2026-04-19T10:25:51.999Z</time></trkpt><trkpt lat="45.13753161858547" lon="7.057044765432613"><ele>491.0</ele><time>2026-04-19T10:25:52.999Z</time></trkpt><trkpt lat="45.13755560604734" lon="7.05683207891026"><ele>491.0</ele><time>2026-04-19T10:25:53.999Z</time></trkpt><trkpt lat="45.137579285804165" lon="7.056618875276116"><ele>491.0</ele><time>2026-04-19T10:25:54.999Z</time></trkpt><trkpt lat="45.13760557097623" lon="7.056404132676989"><ele>491.0</ele><time>2026-04-19T10:25:55.999Z</time></trkpt><trkpt lat="45.13763287351967" lon="7.05618430250162"><ele>491.0</ele><time>2026-04-19T10:25:56.999Z</time></trkpt><trkpt lat="45.1376617297246" lon="7.055958170179381"><ele>491.0</ele><time>2026-04-19T10:25:57.999Z</time></trkpt><trkpt lat="45.13768941434644" lon="7.05572766927956"><ele>491.0</ele><time>2026-04-19T10:25:58.999Z</time></trkpt><trkpt lat="45.137715667741624" lon="7.055497179727437"><ele>491.0</ele><time>2026-04-19T10:25:59.999Z</time></trkpt><trkpt lat="45.137741250329064" lon="7.055269047026298"><ele>491.0</ele><time>2026-04-19T10:26:00.999Z</time></trkpt><trkpt lat="45.13776640494944" lon="7.0550448466133115"><ele>491.0</ele><time>2026-04-19T10:26:01.999Z</time></trkpt><trkpt lat="45.13779278499978" lon="7.054823265631495"><ele>491.0</ele><time>2026-04-19T10:26:02.999Z</time></trkpt><trkpt lat="45.137820517953884" lon="7.054601555638119"><ele>491.66666666666663</ele><time>2026-04-19T10:26:03.999Z</time></trkpt><trkpt lat="45.137847822825876" lon="7.0543720499516835"><ele>492.33333333333337</ele><time>2026-04-19T10:26:04.999Z</time></trkpt><trkpt lat="45.13787425800901" lon="7.054145519401087"><ele>493.0</ele><time>2026-04-19T10:26:05.999Z</time></trkpt><trkpt lat="45.137899338812" lon="7.053925454660382"><ele>493.0</ele><time>2026-04-19T10:26:06.999Z</time></trkpt><trkpt lat="45.13792209927925" lon="7.053710070833588"><ele>493.0</ele><time>2026-04-19T10:26:07.999Z</time></trkpt><trkpt lat="45.1379611297012" lon="7.053512419032872"><ele>493.0</ele><time>2026-04-19T10:26:08.999Z</time></trkpt><trkpt lat="45.13796830110244" lon="7.053313892117731"><ele>493.0</ele><time>2026-04-19T10:26:09.999Z</time></trkpt><trkpt lat="45.13799274348382" lon="7.053122081549227"><ele>493.5</ele><time>2026-04-19T10:26:10.999Z</time></trkpt><trkpt lat="45.13801777978185" lon="7.052929909796301"><ele>494.0</ele><time>2026-04-19T10:26:11.999Z</time></trkpt><trkpt lat="45.13803709353773" lon="7.052743346062518"><ele>494.5</ele><time>2026-04-19T10:26:12.999Z</time></trkpt><trkpt lat="45.13805622783073" lon="7.052569317370987"><ele>495.0</ele><time>2026-04-19T10:26:13.999Z</time></trkpt><trkpt lat="45.13807586298732" lon="7.052404391487305"><ele>495.0</ele><time>2026-04-19T10:26:14.999Z</time></trkpt><trkpt lat="45.138095109992214" lon="7.052237216718726"><ele>495.0</ele><time>2026-04-19T10:26:15.999Z</time></trkpt><trkpt lat="45.1381150308528" lon="7.052079170277695"><ele>495.0</ele><time>2026-04-19T10:26:16.999Z</time></trkpt><trkpt lat="45.138153626792906" lon="7.051935144242779"><ele>495.0</ele><time>2026-04-19T10:26:17.999Z</time></trkpt><trkpt lat="45.1381641395035" lon="7.051793949785697"><ele>495.0</ele><time>2026-04-19T10:26:18.999Z</time></trkpt><trkpt lat="45.138197835307274" lon="7.051669819458128"><ele>495.5</ele><time>2026-04-19T10:26:20Z</time></trkpt><trkpt lat="45.13822614153881" lon="7.051544775557794"><ele>496.0</ele><time>2026-04-19T10:26:21Z</time></trkpt><trkpt lat="45.138240831010904" lon="7.051415688474275"><ele>496.5</ele><time>2026-04-19T10:26:22Z</time></trkpt><trkpt lat="45.13824359080721" lon="7.051286978795885"><ele>497.0</ele><time>2026-04-19T10:26:23Z</time></trkpt><trkpt lat="45.13825351885591" lon="7.051159623304394"><ele>497.5</ele><time>2026-04-19T10:26:24Z</time></trkpt><trkpt lat="45.138265975096175" lon="7.051046354833655"><ele>498.0</ele><time>2026-04-19T10:26:25Z</time></trkpt><trkpt lat="45.13827477580406" lon="7.050945381914597"><ele>498.59999999999997</ele><time>2026-04-19T10:26:26Z</time></trkpt><trkpt lat="45.13829312100579" lon="7.050777397423575"><ele>499.19999999999993</ele><time>2026-04-19T10:26:28Z</time></trkpt><trkpt lat="45.13831471792539" lon="7.050603655560801"><ele>499.8</ele><time>2026-04-19T10:26:30Z</time></trkpt><trkpt lat="45.138323375682894" lon="7.050509485464278"><ele>500.4</ele><time>2026-04-19T10:26:31Z</time></trkpt><trkpt lat="45.1383432716676" lon="7.050347866643695"><ele>501.0</ele><time>2026-04-19T10:26:33Z</time></trkpt><trkpt lat="45.13836505085459" lon="7.050174469026439"><ele>501.0</ele><time>2026-04-19T10:26:35Z</time></trkpt><trkpt lat="45.1383727964122" lon="7.050081522221893"><ele>501.0</ele><time>2026-04-19T10:26:36Z</time></trkpt><trkpt lat="45.138396015550406" lon="7.049987009908613"><ele>501.0</ele><time>2026-04-19T10:26:37Z</time></trkpt><trkpt lat="45.13840784870763" lon="7.049888756461747"><ele>501.0</ele><time>2026-04-19T10:26:38Z</time></trkpt><trkpt lat="45.138419604547124" lon="7.049791122616106"><ele>501.0</ele><time>2026-04-19T10:26:39Z</time></trkpt><trkpt lat="45.138431218375494" lon="7.049697083354417"><ele>501.0</ele><time>2026-04-19T10:26:40Z</time></trkpt><trkpt lat="45.13843124960676" lon="7.049603488828265"><ele>501.0</ele><time>2026-04-19T10:26:41Z</time></trkpt><trkpt lat="45.13845280544044" lon="7.0495104733253084"><ele>501.5</ele><time>2026-04-19T10:26:42Z</time></trkpt><trkpt lat="45.13847514984321" lon="7.049407716815198"><ele>502.0</ele><time>2026-04-19T10:26:43Z</time></trkpt><trkpt lat="45.138491515646514" lon="7.049298398018253"><ele>502.5</ele><time>2026-04-19T10:26:44Z</time></trkpt><trkpt lat="45.13851133727724" lon="7.049183184142322"><ele>503.0</ele><time>2026-04-19T10:26:45Z</time></trkpt><trkpt lat="45.13853165004782" lon="7.049062366662219"><ele>503.5</ele><time>2026-04-19T10:26:46Z</time></trkpt><trkpt lat="45.13854993714753" lon="7.048938891182942"><ele>504.0</ele><time>2026-04-19T10:26:47Z</time></trkpt><trkpt lat="45.13856706085485" lon="7.048808014259853"><ele>504.0</ele><time>2026-04-19T10:26:48Z</time></trkpt><trkpt lat="45.138590453117295" lon="7.048686046384526"><ele>504.0</ele><time>2026-04-19T10:26:49Z</time></trkpt><trkpt lat="45.13860746077365" lon="7.048583198229073"><ele>504.0</ele><time>2026-04-19T10:26:50Z</time></trkpt><trkpt lat="45.13861971567674" lon="7.048486981825374"><ele>504.0</ele><time>2026-04-19T10:26:51Z</time></trkpt><trkpt lat="45.13863155614677" lon="7.0483577433957585"><ele>504.0</ele><time>2026-04-19T10:26:52Z</time></trkpt><trkpt lat="45.138669068228864" lon="7.048214410628409"><ele>504.0</ele><time>2026-04-19T10:26:53Z</time></trkpt><trkpt lat="45.13869713604222" lon="7.048047391695881"><ele>504.0</ele><time>2026-04-19T10:26:54Z</time></trkpt><trkpt lat="45.138728166296794" lon="7.0478558625868875"><ele>504.0</ele><time>2026-04-19T10:26:55Z</time></trkpt><trkpt lat="45.13874271368294" lon="7.047664954038515"><ele>504.0</ele><time>2026-04-19T10:26:56Z</time></trkpt><trkpt lat="45.13877175005106" lon="7.047468232753165"><ele>504.0</ele><time>2026-04-19T10:26:57Z</time></trkpt><trkpt lat="45.13882135521429" lon="7.047267606399583"><ele>504.0</ele><time>2026-04-19T10:26:58Z</time></trkpt><trkpt lat="45.138858449436206" lon="7.047052387805175"><ele>504.0</ele><time>2026-04-19T10:26:59Z</time></trkpt><trkpt lat="45.138897692248484" lon="7.046824703594356"><ele>504.0</ele><time>2026-04-19T10:27:00Z</time></trkpt><trkpt lat="45.13893786331634" lon="7.046581079342245"><ele>504.33333333333337</ele><time>2026-04-19T10:27:01Z</time></trkpt><trkpt lat="45.1389791556819" lon="7.046325916920379"><ele>504.6666666666667</ele><time>2026-04-19T10:27:02Z</time></trkpt><trkpt lat="45.13901059758906" lon="7.046044837515864"><ele>505.0</ele><time>2026-04-19T10:27:03Z</time></trkpt><trkpt lat="45.139058621173675" lon="7.045754941954252"><ele>507.0</ele><time>2026-04-19T10:27:03.999Z</time></trkpt><trkpt lat="45.13910531876456" lon="7.04545451972436"><ele>509.0</ele><time>2026-04-19T10:27:04.999Z</time></trkpt><trkpt lat="45.13915396228725" lon="7.045182338089782"><ele>511.0</ele><time>2026-04-19T10:27:05.999Z</time></trkpt><trkpt lat="45.13919294494682" lon="7.0449232533025645"><ele>511.0</ele><time>2026-04-19T10:27:06.999Z</time></trkpt><trkpt lat="45.13924956825693" lon="7.044656390666916"><ele>511.0</ele><time>2026-04-19T10:27:07.999Z</time></trkpt><trkpt lat="45.13929402155101" lon="7.044383493079294"><ele>511.0</ele><time>2026-04-19T10:27:08.999Z</time></trkpt><trkpt lat="45.139341442942346" lon="7.044107380406171"><ele>510.33333333333337</ele><time>2026-04-19T10:27:09.999Z</time></trkpt><trkpt lat="45.13940514860708" lon="7.043845089069469"><ele>509.66666666666663</ele><time>2026-04-19T10:27:10.999Z</time></trkpt><trkpt lat="45.13949500773767" lon="7.0436070240756505"><ele>509.0</ele><time>2026-04-19T10:27:11.999Z</time></trkpt><trkpt lat="45.13960077505215" lon="7.043370695843142"><ele>509.66666666666663</ele><time>2026-04-19T10:27:12.999Z</time></trkpt><trkpt lat="45.13972406051843" lon="7.043150691297418"><ele>510.33333333333337</ele><time>2026-04-19T10:27:13.999Z</time></trkpt><trkpt lat="45.13985824325419" lon="7.0429456854571235"><ele>511.0</ele><time>2026-04-19T10:27:14.999Z</time></trkpt><trkpt lat="45.14002957299664" lon="7.042782789529583"><ele>517.0</ele><time>2026-04-19T10:27:15.999Z</time></trkpt><trkpt lat="45.14022250547039" lon="7.0426380883498885"><ele>523.0</ele><time>2026-04-19T10:27:16.999Z</time></trkpt><trkpt lat="45.140424160438926" lon="7.042504987441767"><ele>529.0</ele><time>2026-04-19T10:27:17.999Z</time></trkpt><trkpt lat="45.14063795787969" lon="7.04236964164576"><ele>530.0</ele><time>2026-04-19T10:27:18.999Z</time></trkpt><trkpt lat="45.14085591154195" lon="7.042235530666705"><ele>531.0</ele><time>2026-04-19T10:27:19.999Z</time></trkpt><trkpt lat="45.14107506877383" lon="7.042103111495657"><ele>531.0</ele><time>2026-04-19T10:27:20.999Z</time></trkpt><trkpt lat="45.14127428739534" lon="7.041979900797702"><ele>531.0</ele><time>2026-04-19T10:27:21.999Z</time></trkpt><trkpt lat="45.14144092057311" lon="7.041865927666257"><ele>531.0</ele><time>2026-04-19T10:27:22.999Z</time></trkpt><trkpt lat="45.141580776410684" lon="7.041703797278574"><ele>535.6666666666666</ele><time>2026-04-19T10:27:23.999Z</time></trkpt><trkpt lat="45.14167186493569" lon="7.0414774880573905"><ele>540.3333333333333</ele><time>2026-04-19T10:27:24.999Z</time></trkpt><trkpt lat="45.14170378862364" lon="7.041197815281092"><ele>545.0</ele><time>2026-04-19T10:27:25.999Z</time></trkpt><trkpt lat="45.141731055810574" lon="7.040878322003898"><ele>546.0</ele><time>2026-04-19T10:27:26.999Z</time></trkpt><trkpt lat="45.14174702852265" lon="7.040570641623793"><ele>547.0</ele><time>2026-04-19T10:27:27.999Z</time></trkpt><trkpt lat="45.141764588815754" lon="7.04027080748299"><ele>548.0</ele><time>2026-04-19T10:27:28.999Z</time></trkpt><trkpt lat="45.14179464812755" lon="7.039989243692026"><ele>546.0</ele><time>2026-04-19T10:27:29.999Z</time></trkpt><trkpt lat="45.14185039776575" lon="7.039698547974529"><ele>544.0</ele><time>2026-04-19T10:27:30.999Z</time></trkpt><trkpt lat="45.14192214463976" lon="7.039387447571714"><ele>542.0</ele><time>2026-04-19T10:27:31.999Z</time></trkpt><trkpt lat="45.141996713775406" lon="7.03908257421974"><ele>541.0</ele><time>2026-04-19T10:27:32.999Z</time></trkpt><trkpt lat="45.14206407200044" lon="7.038811994253041"><ele>540.0</ele><time>2026-04-19T10:27:33.999Z</time></trkpt><trkpt lat="45.14210982802" lon="7.038560802155916"><ele>539.0</ele><time>2026-04-19T10:27:34.999Z</time></trkpt><trkpt lat="45.14217076093064" lon="7.0383430481818925"><ele>541.0</ele><time>2026-04-19T10:27:35.999Z</time></trkpt><trkpt lat="45.142240290292634" lon="7.0381757545566455"><ele>543.0</ele><time>2026-04-19T10:27:36.999Z</time></trkpt><trkpt lat="45.142345721044244" lon="7.0380625671505"><ele>545.0</ele><time>2026-04-19T10:27:37.999Z</time></trkpt><trkpt lat="45.14247398575247" lon="7.038013727043377"><ele>547.0</ele><time>2026-04-19T10:27:38.999Z</time></trkpt><trkpt lat="45.14260722834365" lon="7.037976789211005"><ele>552.75</ele><time>2026-04-19T10:27:39.999Z</time></trkpt><trkpt lat="45.142715258226275" lon="7.037928426248564"><ele>558.5</ele><time>2026-04-19T10:27:40.999Z</time></trkpt><trkpt lat="45.14282663091417" lon="7.037895173178832"><ele>564.25</ele><time>2026-04-19T10:27:41.999Z</time></trkpt><trkpt lat="45.14294609263796" lon="7.037865765153104"><ele>570.0</ele><time>2026-04-19T10:27:42.999Z</time></trkpt><trkpt lat="45.143068776443705" lon="7.037827007569228"><ele>570.0</ele><time>2026-04-19T10:27:43.999Z</time></trkpt><trkpt lat="45.14319314496956" lon="7.0378037208223505"><ele>570.0</ele><time>2026-04-19T10:27:44.999Z</time></trkpt><trkpt lat="45.14333551148568" lon="7.037723838598292"><ele>570.0</ele><time>2026-04-19T10:27:45.999Z</time></trkpt><trkpt lat="45.14344686712031" lon="7.037680972989922"><ele>570.0</ele><time>2026-04-19T10:27:46.999Z</time></trkpt><trkpt lat="45.14356152628937" lon="7.037616047354254"><ele>569.0</ele><time>2026-04-19T10:27:47.999Z</time></trkpt><trkpt lat="45.14365897647082" lon="7.037497039691907"><ele>568.0</ele><time>2026-04-19T10:27:48.999Z</time></trkpt><trkpt lat="45.14372731519912" lon="7.037336649863795"><ele>567.0</ele><time>2026-04-19T10:27:49.999Z</time></trkpt><trkpt lat="45.14375687296162" lon="7.037157896541012"><ele>566.0</ele><time>2026-04-19T10:27:50.999Z</time></trkpt><trkpt lat="45.14377073678776" lon="7.036964435015861"><ele>571.6666666666666</ele><time>2026-04-19T10:27:51.999Z</time></trkpt><trkpt lat="45.14374558500437" lon="7.036755722491782"><ele>577.3333333333334</ele><time>2026-04-19T10:27:52.999Z</time></trkpt><trkpt lat="45.143693710460916" lon="7.036546665335698"><ele>583.0</ele><time>2026-04-19T10:27:53.999Z</time></trkpt><trkpt lat="45.1436797236949" lon="7.036321894980596"><ele>588.6666666666667</ele><time>2026-04-19T10:27:54.999Z</time></trkpt><trkpt lat="45.143658351408405" lon="7.036092765801235"><ele>594.3333333333334</ele><time>2026-04-19T10:27:55.999Z</time></trkpt><trkpt lat="45.14366122118041" lon="7.035838456506875"><ele>600.0</ele><time>2026-04-19T10:27:56.999Z</time></trkpt><trkpt lat="45.143687977231735" lon="7.035568854777336"><ele>605.5</ele><time>2026-04-19T10:27:57.999Z</time></trkpt><trkpt lat="45.143726783693786" lon="7.035246167633858"><ele>611.0</ele><time>2026-04-19T10:27:58.999Z</time></trkpt><trkpt lat="45.143775665871054" lon="7.03490472573913"><ele>619.5</ele><time>2026-04-19T10:27:59.999Z</time></trkpt><trkpt lat="45.1438421322781" lon="7.034585484251481"><ele>628.0</ele><time>2026-04-19T10:28:00.999Z</time></trkpt><trkpt lat="45.14397589487602" lon="7.034307419864213"><ele>616.0</ele><time>2026-04-19T10:28:01.999Z</time></trkpt><trkpt lat="45.144143302996" lon="7.034014000799637"><ele>604.0</ele><time>2026-04-19T10:28:02.999Z</time></trkpt><trkpt lat="45.14428572222712" lon="7.033723043652709"><ele>604.0</ele><time>2026-04-19T10:28:03.999Z</time></trkpt><trkpt lat="45.14441981020792" lon="7.0333761484389825"><ele>604.0</ele><time>2026-04-19T10:28:04.999Z</time></trkpt><trkpt lat="45.14451590368732" lon="7.032992188123362"><ele>609.0</ele><time>2026-04-19T10:28:05.999Z</time></trkpt><trkpt lat="45.14455721045591" lon="7.032571359943271"><ele>614.0</ele><time>2026-04-19T10:28:06.999Z</time></trkpt><trkpt lat="45.14455636350512" lon="7.032122811374055"><ele>617.0</ele><time>2026-04-19T10:28:07.999Z</time></trkpt><trkpt lat="45.14455250292664" lon="7.031711272194119"><ele>620.0</ele><time>2026-04-19T10:28:08.999Z</time></trkpt><trkpt lat="45.1445178418365" lon="7.031344225595129"><ele>621.5</ele><time>2026-04-19T10:28:09.999Z</time></trkpt><trkpt lat="45.144436926165184" lon="7.030960321237145"><ele>623.0</ele><time>2026-04-19T10:28:10.999Z</time></trkpt><trkpt lat="45.14431742770485" lon="7.030640985940427"><ele>625.0</ele><time>2026-04-19T10:28:11.999Z</time></trkpt><trkpt lat="45.1442761910521" lon="7.030386354174762"><ele>627.0</ele><time>2026-04-19T10:28:12.999Z</time></trkpt><trkpt lat="45.14429923512009" lon="7.030165457357007"><ele>629.0</ele><time>2026-04-19T10:28:13.999Z</time></trkpt><trkpt lat="45.14437065454484" lon="7.029880645500958"><ele>632.0</ele><time>2026-04-19T10:28:14.999Z</time></trkpt><trkpt lat="45.14440139771182" lon="7.029527362606918"><ele>635.0</ele><time>2026-04-19T10:28:15.999Z</time></trkpt><trkpt lat="45.144437650953755" lon="7.029131289619535"><ele>640.0</ele><time>2026-04-19T10:28:16.999Z</time></trkpt><trkpt lat="45.14445129109085" lon="7.02868074009764"><ele>645.0</ele><time>2026-04-19T10:28:17.999Z</time></trkpt><trkpt lat="45.14446724605112" lon="7.028230871220504"><ele>647.0</ele><time>2026-04-19T10:28:18.999Z</time></trkpt><trkpt lat="45.144457368036804" lon="7.027836904924959"><ele>649.0</ele><time>2026-04-19T10:28:19.999Z</time></trkpt><trkpt lat="45.14439413683151" lon="7.027391443022128"><ele>649.0</ele><time>2026-04-19T10:28:20.999Z</time></trkpt><trkpt lat="45.14435499583732" lon="7.0269197488551605"><ele>649.0</ele><time>2026-04-19T10:28:21.999Z</time></trkpt><trkpt lat="45.144324508183665" lon="7.026448441571202"><ele>649.5</ele><time>2026-04-19T10:28:22.999Z</time></trkpt><trkpt lat="45.14429673467208" lon="7.025974719970018"><ele>650.0</ele><time>2026-04-19T10:28:23.999Z</time></trkpt><trkpt lat="45.14427119621323" lon="7.025574964243611"><ele>650.6666666666666</ele><time>2026-04-19T10:28:24.999Z</time></trkpt><trkpt lat="45.14422300964775" lon="7.02525721003373"><ele>651.3333333333334</ele><time>2026-04-19T10:28:26Z</time></trkpt><trkpt lat="45.144181193552576" lon="7.024979243569436"><ele>652.0</ele><time>2026-04-19T10:28:27Z</time></trkpt><trkpt lat="45.144130254893454" lon="7.024718908436685"><ele>653.6666666666667</ele><time>2026-04-19T10:28:28Z</time></trkpt><trkpt lat="45.144138511034136" lon="7.024450555780822"><ele>655.3333333333334</ele><time>2026-04-19T10:28:29Z</time></trkpt><trkpt lat="45.14415187473255" lon="7.0241732229840625"><ele>657.0</ele><time>2026-04-19T10:28:30Z</time></trkpt><trkpt lat="45.14417512031159" lon="7.023801441040998"><ele>660.5</ele><time>2026-04-19T10:28:31Z</time></trkpt><trkpt lat="45.14419760416973" lon="7.023412126352001"><ele>664.0</ele><time>2026-04-19T10:28:32Z</time></trkpt><trkpt lat="45.14421753157174" lon="7.023083644206124"><ele>667.0</ele><time>2026-04-19T10:28:33Z</time></trkpt><trkpt lat="45.144241943634235" lon="7.022842908050856"><ele>670.0</ele><time>2026-04-19T10:28:34Z</time></trkpt><trkpt lat="45.144283143802156" lon="7.022675763055456"><ele>673.0</ele><time>2026-04-19T10:28:35Z</time></trkpt><trkpt lat="45.144368912506025" lon="7.022550890011305"><ele>676.0</ele><time>2026-04-19T10:28:36Z</time></trkpt><trkpt lat="45.14449779633003" lon="7.0224698591794485"><ele>677.0</ele><time>2026-04-19T10:28:37Z</time></trkpt><trkpt lat="45.1446061301725" lon="7.022380169233579"><ele>678.0</ele><time>2026-04-19T10:28:38Z</time></trkpt><trkpt lat="45.14468438050649" lon="7.0222664205641205"><ele>679.0</ele><time>2026-04-19T10:28:39Z</time></trkpt><trkpt lat="45.14472742201274" lon="7.022048757488782"><ele>680.0</ele><time>2026-04-19T10:28:40Z</time></trkpt><trkpt lat="45.144691283600636" lon="7.021779147299896"><ele>681.5</ele><time>2026-04-19T10:28:41Z</time></trkpt><trkpt lat="45.14461679555588" lon="7.02140960031233"><ele>683.0</ele><time>2026-04-19T10:28:42Z</time></trkpt><trkpt lat="45.14447702656421" lon="7.021117717378223"><ele>683.0</ele><time>2026-04-19T10:28:43Z</time></trkpt><trkpt lat="45.14432887757713" lon="7.020850745202951"><ele>683.0</ele><time>2026-04-19T10:28:44Z</time></trkpt><trkpt lat="45.14423251948132" lon="7.020636684956523"><ele>683.0</ele><time>2026-04-19T10:28:45Z</time></trkpt><trkpt lat="45.14414986873258" lon="7.020571325067963"><ele>683.75</ele><time>2026-04-19T10:28:46Z</time></trkpt><trkpt lat="45.14418974859769" lon="7.020453736724214"><ele>684.5</ele><time>2026-04-19T10:28:47Z</time></trkpt><trkpt lat="45.144298381028975" lon="7.020373862068497"><ele>685.25</ele><time>2026-04-19T10:28:48Z</time></trkpt><trkpt lat="45.14441985915707" lon="7.02037050959868"><ele>686.0</ele><time>2026-04-19T10:28:49Z</time></trkpt><trkpt lat="45.1445546630966" lon="7.020405955698946"><ele>686.0</ele><time>2026-04-19T10:28:50Z</time></trkpt><trkpt lat="45.14465627878611" lon="7.0203052335663205"><ele>686.0</ele><time>2026-04-19T10:28:51Z</time></trkpt><trkpt lat="45.144689273152494" lon="7.020099468896434"><ele>686.0</ele><time>2026-04-19T10:28:52Z</time></trkpt><trkpt lat="45.14466230521052" lon="7.019857837062222"><ele>686.0</ele><time>2026-04-19T10:28:53Z</time></trkpt><trkpt lat="45.14456536018826" lon="7.0195005597624185"><ele>687.5</ele><time>2026-04-19T10:28:54Z</time></trkpt><trkpt lat="45.14448437965488" lon="7.019176073703499"><ele>689.0</ele><time>2026-04-19T10:28:55Z</time></trkpt><trkpt lat="45.14444068999537" lon="7.018838314291173"><ele>691.3333333333333</ele><time>2026-04-19T10:28:55.999Z</time></trkpt><trkpt lat="45.14443313625649" lon="7.018518697917158"><ele>693.6666666666666</ele><time>2026-04-19T10:28:56.999Z</time></trkpt><trkpt lat="45.144434705458416" lon="7.018253729642425"><ele>696.0</ele><time>2026-04-19T10:28:57.999Z</time></trkpt><trkpt lat="45.14453188125173" lon="7.018104860036671"><ele>696.0</ele><time>2026-04-19T10:28:59.999Z</time></trkpt><trkpt lat="45.144650795875386" lon="7.01808888507517"><ele>696.0</ele><time>2026-04-19T10:29:00.999Z</time></trkpt><trkpt lat="45.14474894486999" lon="7.018183097100178"><ele>696.0</ele><time>2026-04-19T10:29:01.999Z</time></trkpt><trkpt lat="45.144807384148386" lon="7.01837077141501"><ele>696.0</ele><time>2026-04-19T10:29:02.999Z</time></trkpt><trkpt lat="45.14483835962144" lon="7.01856811814742"><ele>696.6666666666666</ele><time>2026-04-19T10:29:03.999Z</time></trkpt><trkpt lat="45.144935754633664" lon="7.0186934379928605"><ele>697.3333333333333</ele><time>2026-04-19T10:29:04.999Z</time></trkpt><trkpt lat="45.14508659574343" lon="7.018716356756792"><ele>698.0</ele><time>2026-04-19T10:29:05.999Z</time></trkpt><trkpt lat="45.145281457737426" lon="7.018680151955254"><ele>698.0</ele><time>2026-04-19T10:29:06.999Z</time></trkpt><trkpt lat="45.145455596494585" lon="7.018634151418577"><ele>698.0</ele><time>2026-04-19T10:29:07.999Z</time></trkpt><trkpt lat="45.14556810008397" lon="7.018578020671972"><ele>698.0</ele><time>2026-04-19T10:29:08.999Z</time></trkpt><trkpt lat="45.14562410255929" lon="7.0184508258436535"><ele>698.0</ele><time>2026-04-19T10:29:09.999Z</time></trkpt><trkpt lat="45.145632687241424" lon="7.018238999352935"><ele>702.3333333333333</ele><time>2026-04-19T10:29:10.999Z</time></trkpt><trkpt lat="45.14558087949295" lon="7.017972809505562"><ele>706.6666666666666</ele><time>2026-04-19T10:29:11.999Z</time></trkpt><trkpt lat="45.14550875281947" lon="7.017652171255854"><ele>711.0</ele><time>2026-04-19T10:29:12.999Z</time></trkpt><trkpt lat="45.145472207991254" lon="7.017297158786098"><ele>717.0</ele><time>2026-04-19T10:29:13.999Z</time></trkpt><trkpt lat="45.14549181902886" lon="7.016925362598258"><ele>723.0</ele><time>2026-04-19T10:29:14.999Z</time></trkpt><trkpt lat="45.145568432662245" lon="7.0165745079576025"><ele>720.0</ele><time>2026-04-19T10:29:15.999Z</time></trkpt><trkpt lat="45.14567392365344" lon="7.016232608411418"><ele>717.0</ele><time>2026-04-19T10:29:16.999Z</time></trkpt><trkpt lat="45.14574010184457" lon="7.015839760878438"><ele>721.5</ele><time>2026-04-19T10:29:17.999Z</time></trkpt><trkpt lat="45.14575003401848" lon="7.015399963335993"><ele>726.0</ele><time>2026-04-19T10:29:18.999Z</time></trkpt><trkpt lat="45.145738440764205" lon="7.014965362634249"><ele>735.5</ele><time>2026-04-19T10:29:19.999Z</time></trkpt><trkpt lat="45.14574501121582" lon="7.014540890877433"><ele>745.0</ele><time>2026-04-19T10:29:20.999Z</time></trkpt><trkpt lat="45.1457946818085" lon="7.014119483926986"><ele>751.0</ele><time>2026-04-19T10:29:21.999Z</time></trkpt><trkpt lat="45.14584419354488" lon="7.01379479880378"><ele>757.0</ele><time>2026-04-19T10:29:22.999Z</time></trkpt><trkpt lat="45.145877341317174" lon="7.013598728586579"><ele>763.0</ele><time>2026-04-19T10:29:23.999Z</time></trkpt><trkpt lat="45.145925349319256" lon="7.0134681152729215"><ele>763.0</ele><time>2026-04-19T10:29:24.999Z</time></trkpt><trkpt lat="45.146022026548195" lon="7.013364985957033"><ele>763.0</ele><time>2026-04-19T10:29:25.999Z</time></trkpt><trkpt lat="45.146167212369456" lon="7.01334977729543"><ele>763.0</ele><time>2026-04-19T10:29:26.999Z</time></trkpt><trkpt lat="45.146344518145845" lon="7.013399813439433"><ele>763.0</ele><time>2026-04-19T10:29:27.999Z</time></trkpt><trkpt lat="45.14653917056297" lon="7.0134269329604795"><ele>765.3333333333334</ele><time>2026-04-19T10:29:28.999Z</time></trkpt><trkpt lat="45.14672179343419" lon="7.0133447866047085"><ele>767.6666666666667</ele><time>2026-04-19T10:29:29.999Z</time></trkpt><trkpt lat="45.146888154084714" lon="7.013305486776639"><ele>770.0</ele><time>2026-04-19T10:29:30.999Z</time></trkpt><trkpt lat="45.147045227575056" lon="7.013410768241028"><ele>763.3333333333334</ele><time>2026-04-19T10:29:31.999Z</time></trkpt><trkpt lat="45.147204050774846" lon="7.0135733570350025"><ele>756.6666666666667</ele><time>2026-04-19T10:29:32.999Z</time></trkpt><trkpt lat="45.14737168032516" lon="7.013664273547279"><ele>750.0</ele><time>2026-04-19T10:29:33.999Z</time></trkpt><trkpt lat="45.14750281738361" lon="7.013661284625474"><ele>749.0</ele><time>2026-04-19T10:29:34.999Z</time></trkpt><trkpt lat="45.14759019972162" lon="7.013593501826899"><ele>748.0</ele><time>2026-04-19T10:29:35.999Z</time></trkpt><trkpt lat="45.14763045766521" lon="7.013446082900921"><ele>747.0</ele><time>2026-04-19T10:29:36.999Z</time></trkpt><trkpt lat="45.14758495380592" lon="7.013295500842789"><ele>746.0</ele><time>2026-04-19T10:29:37.999Z</time></trkpt><trkpt lat="45.14747889894482" lon="7.013244511766688"><ele>745.0</ele><time>2026-04-19T10:29:38.999Z</time></trkpt><trkpt lat="45.147372092000225" lon="7.013295144750286"><ele>746.0</ele><time>2026-04-19T10:29:39.999Z</time></trkpt><trkpt lat="45.14727939674335" lon="7.013341781359603"><ele>747.0</ele><time>2026-04-19T10:29:40.999Z</time></trkpt><trkpt lat="45.147168517885156" lon="7.01330228634582"><ele>748.0</ele><time>2026-04-19T10:29:41.999Z</time></trkpt><trkpt lat="45.14713740873152" lon="7.013196268026296"><ele>749.0</ele><time>2026-04-19T10:29:42.999Z</time></trkpt><trkpt lat="45.14713785136593" lon="7.013004247714256"><ele>750.0</ele><time>2026-04-19T10:29:43.999Z</time></trkpt><trkpt lat="45.14715428619967" lon="7.01279530345531"><ele>755.0</ele><time>2026-04-19T10:29:44.999Z</time></trkpt><trkpt lat="45.14713611875407" lon="7.012633119213158"><ele>760.0</ele><time>2026-04-19T10:29:45.999Z</time></trkpt><trkpt lat="45.14705968523382" lon="7.012565500734259"><ele>765.0</ele><time>2026-04-19T10:29:46.999Z</time></trkpt><trkpt lat="45.14693429176403" lon="7.012596303337741"><ele>770.0</ele><time>2026-04-19T10:29:47.999Z</time></trkpt><trkpt lat="45.14681308659605" lon="7.012716279988807"><ele>770.0</ele><time>2026-04-19T10:29:48.999Z</time></trkpt><trkpt lat="45.14669706513172" lon="7.01290356903534"><ele>770.0</ele><time>2026-04-19T10:29:49.999Z</time></trkpt><trkpt lat="45.146560004983485" lon="7.012962360970952"><ele>770.0</ele><time>2026-04-19T10:29:50.999Z</time></trkpt><trkpt lat="45.14643165142707" lon="7.012920441357452"><ele>773.0</ele><time>2026-04-19T10:29:51.999Z</time></trkpt><trkpt lat="45.14635995320811" lon="7.01275189845399"><ele>776.0</ele><time>2026-04-19T10:29:52.999Z</time></trkpt><trkpt lat="45.14630695158021" lon="7.012582337705892"><ele>779.0</ele><time>2026-04-19T10:29:53.999Z</time></trkpt><trkpt lat="45.146196417478926" lon="7.012409091899115"><ele>782.0</ele><time>2026-04-19T10:29:54.999Z</time></trkpt><trkpt lat="45.146067065552465" lon="7.012277381371894"><ele>790.0</ele><time>2026-04-19T10:29:55.999Z</time></trkpt><trkpt lat="45.145874702925155" lon="7.012243902248323"><ele>798.0</ele><time>2026-04-19T10:29:56.999Z</time></trkpt><trkpt lat="45.14566712884326" lon="7.012271097249565"><ele>806.0</ele><time>2026-04-19T10:29:57.999Z</time></trkpt><trkpt lat="45.14550331240083" lon="7.012349928839393"><ele>806.6666666666667</ele><time>2026-04-19T10:29:58.999Z</time></trkpt><trkpt lat="45.145394982019525" lon="7.012501555756633"><ele>807.3333333333333</ele><time>2026-04-19T10:29:59.999Z</time></trkpt><trkpt lat="45.145315738712185" lon="7.012767311657096"><ele>808.0</ele><time>2026-04-19T10:30:00.999Z</time></trkpt><trkpt lat="45.14521176779131" lon="7.013073884322615"><ele>808.0</ele><time>2026-04-19T10:30:01.999Z</time></trkpt><trkpt lat="45.14509762573635" lon="7.013309131951702"><ele>808.0</ele><time>2026-04-19T10:30:02.999Z</time></trkpt><trkpt lat="45.14496246457231" lon="7.013463287819003"><ele>808.0</ele><time>2026-04-19T10:30:03.999Z</time></trkpt><trkpt lat="45.144773781157745" lon="7.013553940588184"><ele>809.5</ele><time>2026-04-19T10:30:04.999Z</time></trkpt><trkpt lat="45.1446454406087" lon="7.013563646146514"><ele>811.0</ele><time>2026-04-19T10:30:05.999Z</time></trkpt><trkpt lat="45.14452507694798" lon="7.013500426599501"><ele>812.5</ele><time>2026-04-19T10:30:06.999Z</time></trkpt><trkpt lat="45.14442389057939" lon="7.013360948323332"><ele>814.0</ele><time>2026-04-19T10:30:07.999Z</time></trkpt><trkpt lat="45.14428283117086" lon="7.013150792900783"><ele>814.0</ele><time>2026-04-19T10:30:08.999Z</time></trkpt><trkpt lat="45.144113126397585" lon="7.012919150703298"><ele>814.0</ele><time>2026-04-19T10:30:09.999Z</time></trkpt><trkpt lat="45.143942806646486" lon="7.012734535140735"><ele>812.0</ele><time>2026-04-19T10:30:10.999Z</time></trkpt><trkpt lat="45.143769763818895" lon="7.0126573119385816"><ele>810.0</ele><time>2026-04-19T10:30:11.999Z</time></trkpt><trkpt lat="45.14363830987562" lon="7.012590752167886"><ele>808.0</ele><time>2026-04-19T10:30:12.999Z</time></trkpt><trkpt lat="45.14354850470271" lon="7.012516280475624"><ele>806.0</ele><time>2026-04-19T10:30:13.999Z</time></trkpt><trkpt lat="45.14350431696527" lon="7.012374799107202"><ele>806.0</ele><time>2026-04-19T10:30:14.999Z</time></trkpt><trkpt lat="45.143434243326766" lon="7.012191923206326"><ele>806.0</ele><time>2026-04-19T10:30:15.999Z</time></trkpt><trkpt lat="45.14345239807637" lon="7.0119348109203505"><ele>806.0</ele><time>2026-04-19T10:30:16.999Z</time></trkpt><trkpt lat="45.14349878126919" lon="7.01167658083442"><ele>810.0</ele><time>2026-04-19T10:30:17.999Z</time></trkpt><trkpt lat="45.143507742653824" lon="7.011422399229899"><ele>814.0</ele><time>2026-04-19T10:30:18.999Z</time></trkpt><trkpt lat="45.14344407297245" lon="7.011162085728873"><ele>818.0</ele><time>2026-04-19T10:30:19.999Z</time></trkpt><trkpt lat="45.14330749582555" lon="7.010890195225278"><ele>814.5</ele><time>2026-04-19T10:30:20.999Z</time></trkpt><trkpt lat="45.143185519425806" lon="7.0105674909836"><ele>811.0</ele><time>2026-04-19T10:30:21.999Z</time></trkpt><trkpt lat="45.143055799622346" lon="7.0102235797634345"><ele>817.5</ele><time>2026-04-19T10:30:22.999Z</time></trkpt><trkpt lat="45.142933474492544" lon="7.0098513388205985"><ele>824.0</ele><time>2026-04-19T10:30:23.999Z</time></trkpt><trkpt lat="45.14281509689793" lon="7.009458653130996"><ele>833.5</ele><time>2026-04-19T10:30:24.999Z</time></trkpt><trkpt lat="45.14269506053853" lon="7.0091296017744416"><ele>843.0</ele><time>2026-04-19T10:30:25.999Z</time></trkpt><trkpt lat="45.14256906854663" lon="7.008870948684884"><ele>843.0</ele><time>2026-04-19T10:30:26.999Z</time></trkpt><trkpt lat="45.1424218032192" lon="7.008720552208872"><ele>843.0</ele><time>2026-04-19T10:30:27.999Z</time></trkpt><trkpt lat="45.14229324627637" lon="7.008601021059889"><ele>843.0</ele><time>2026-04-19T10:30:28.999Z</time></trkpt><trkpt lat="45.142210706662105" lon="7.008428731891626"><ele>837.5</ele><time>2026-04-19T10:30:29.999Z</time></trkpt><trkpt lat="45.14214866446886" lon="7.008162025250611"><ele>832.0</ele><time>2026-04-19T10:30:30.999Z</time></trkpt><trkpt lat="45.14207624733012" lon="7.007782426664368"><ele>839.0</ele><time>2026-04-19T10:30:32Z</time></trkpt><trkpt lat="45.14199631578309" lon="7.007369476661302"><ele>846.0</ele><time>2026-04-19T10:30:33Z</time></trkpt><trkpt lat="45.14192037393249" lon="7.006977138731956"><ele>854.0</ele><time>2026-04-19T10:30:34Z</time></trkpt><trkpt lat="45.14183983455636" lon="7.006590056013183"><ele>862.0</ele><time>2026-04-19T10:30:35Z</time></trkpt><trkpt lat="45.1417725902217" lon="7.006281122466875"><ele>862.0</ele><time>2026-04-19T10:30:36Z</time></trkpt><trkpt lat="45.14170331938824" lon="7.00605027678624"><ele>862.0</ele><time>2026-04-19T10:30:37Z</time></trkpt><trkpt lat="45.14157263034218" lon="7.0058720089038236"><ele>862.0</ele><time>2026-04-19T10:30:38Z</time></trkpt><trkpt lat="45.14139179151885" lon="7.00578855145333"><ele>865.0</ele><time>2026-04-19T10:30:39Z</time></trkpt><trkpt lat="45.141207234361495" lon="7.005805492239746"><ele>868.0</ele><time>2026-04-19T10:30:40Z</time></trkpt><trkpt lat="45.14108361981967" lon="7.005801169304315"><ele>871.0</ele><time>2026-04-19T10:30:41Z</time></trkpt><trkpt lat="45.14100659899667" lon="7.0057830014435325"><ele>874.0</ele><time>2026-04-19T10:30:42Z</time></trkpt><trkpt lat="45.140969176546136" lon="7.005667797627525"><ele>874.0</ele><time>2026-04-19T10:30:44Z</time></trkpt><trkpt lat="45.14105242649226" lon="7.0055840542661585"><ele>874.0</ele><time>2026-04-19T10:30:45Z</time></trkpt><trkpt lat="45.141173790349534" lon="7.005577723320267"><ele>874.0</ele><time>2026-04-19T10:30:46Z</time></trkpt><trkpt lat="45.14133199361106" lon="7.005552645658915"><ele>874.0</ele><time>2026-04-19T10:30:47Z</time></trkpt><trkpt lat="45.14149754068075" lon="7.0055205071555955"><ele>877.0</ele><time>2026-04-19T10:30:48Z</time></trkpt><trkpt lat="45.14166560554397" lon="7.005452407181328"><ele>880.0</ele><time>2026-04-19T10:30:49Z</time></trkpt><trkpt lat="45.14184549405934" lon="7.005482494843782"><ele>883.0</ele><time>2026-04-19T10:30:50Z</time></trkpt><trkpt lat="45.14196222750153" lon="7.0056636830535055"><ele>876.0</ele><time>2026-04-19T10:30:51Z</time></trkpt><trkpt lat="45.14207111323685" lon="7.005902653905626"><ele>869.0</ele><time>2026-04-19T10:30:52Z</time></trkpt><trkpt lat="45.14219489788216" lon="7.006201914142985"><ele>862.0</ele><time>2026-04-19T10:30:53Z</time></trkpt><trkpt lat="45.14231225955393" lon="7.006473700987768"><ele>866.3333333333333</ele><time>2026-04-19T10:30:54Z</time></trkpt><trkpt lat="45.142434823697364" lon="7.006677040922704"><ele>870.6666666666667</ele><time>2026-04-19T10:30:55Z</time></trkpt><trkpt lat="45.142612901099874" lon="7.006820512724869"><ele>875.0</ele><time>2026-04-19T10:30:56Z</time></trkpt><trkpt lat="45.14284191823056" lon="7.006879326354977"><ele>875.0</ele><time>2026-04-19T10:30:57Z</time></trkpt><trkpt lat="45.14312716612098" lon="7.006854876210766"><ele>875.0</ele><time>2026-04-19T10:30:58Z</time></trkpt><trkpt lat="45.14343524223721" lon="7.006823736196122"><ele>878.6666666666667</ele><time>2026-04-19T10:30:59Z</time></trkpt><trkpt lat="45.143675171673195" lon="7.006758012339133"><ele>882.3333333333333</ele><time>2026-04-19T10:31:00Z</time></trkpt><trkpt lat="45.14384531050661" lon="7.006658562405819"><ele>886.0</ele><time>2026-04-19T10:31:01Z</time></trkpt><trkpt lat="45.14397842417353" lon="7.006665318308208"><ele>889.0</ele><time>2026-04-19T10:31:02Z</time></trkpt><trkpt lat="45.14410580707947" lon="7.006771593715385"><ele>892.0</ele><time>2026-04-19T10:31:03Z</time></trkpt><trkpt lat="45.1442684608072" lon="7.006949050870021"><ele>895.0</ele><time>2026-04-19T10:31:04Z</time></trkpt><trkpt lat="45.14437122806952" lon="7.007110822306787"><ele>895.0</ele><time>2026-04-19T10:31:05Z</time></trkpt><trkpt lat="45.144431449983415" lon="7.0071524377600785"><ele>895.0</ele><time>2026-04-19T10:31:06Z</time></trkpt><trkpt lat="45.14450114907" lon="7.007086644404216"><ele>895.0</ele><time>2026-04-19T10:31:07Z</time></trkpt><trkpt lat="45.14455630352381" lon="7.006956051931505"><ele>895.0</ele><time>2026-04-19T10:31:08Z</time></trkpt><trkpt lat="45.144469934371386" lon="7.006776725281425"><ele>895.0</ele><time>2026-04-19T10:31:09Z</time></trkpt><trkpt lat="45.14430903634522" lon="7.006618666019946"><ele>899.3333333333333</ele><time>2026-04-19T10:31:10Z</time></trkpt><trkpt lat="45.144180020347996" lon="7.006442026314986"><ele>903.6666666666667</ele><time>2026-04-19T10:31:11Z</time></trkpt><trkpt lat="45.1440242349943" lon="7.006259413198314"><ele>908.0</ele><time>2026-04-19T10:31:12Z</time></trkpt><trkpt lat="45.143819815119365" lon="7.006130249488741"><ele>908.0</ele><time>2026-04-19T10:31:13Z</time></trkpt><trkpt lat="45.143587803369066" lon="7.005966456765349"><ele>908.0</ele><time>2026-04-19T10:31:14Z</time></trkpt><trkpt lat="45.1433242401209" lon="7.005796928217889"><ele>907.6666666666667</ele><time>2026-04-19T10:31:15Z</time></trkpt><trkpt lat="45.143115812853985" lon="7.005641426513577"><ele>907.3333333333333</ele><time>2026-04-19T10:31:16Z</time></trkpt><trkpt lat="45.14295426971933" lon="7.005460525086049"><ele>907.0</ele><time>2026-04-19T10:31:17Z</time></trkpt><trkpt lat="45.14287370196601" lon="7.005303373651243"><ele>907.0</ele><time>2026-04-19T10:31:18Z</time></trkpt><trkpt lat="45.14279059318361" lon="7.005030498349582"><ele>907.0</ele><time>2026-04-19T10:31:19Z</time></trkpt><trkpt lat="45.1427183967757" lon="7.0046880138286225"><ele>913.0</ele><time>2026-04-19T10:31:20Z</time></trkpt><trkpt lat="45.14263976022808" lon="7.004322781123985"><ele>919.0</ele><time>2026-04-19T10:31:21Z</time></trkpt><trkpt lat="45.142567855969624" lon="7.0040033969465725"><ele>921.0</ele><time>2026-04-19T10:31:22Z</time></trkpt><trkpt lat="45.14246317771083" lon="7.003733807954782"><ele>923.0</ele><time>2026-04-19T10:31:23Z</time></trkpt><trkpt lat="45.14218532061951" lon="7.003464336908929"><ele>930.5</ele><time>2026-04-19T10:31:24Z</time></trkpt><trkpt lat="45.141971936017875" lon="7.003164845688229"><ele>938.0</ele><time>2026-04-19T10:31:25Z</time></trkpt><trkpt lat="45.14177566532215" lon="7.00291436648966"><ele>938.0</ele><time>2026-04-19T10:31:26Z</time></trkpt><trkpt lat="45.14164838419482" lon="7.002751724179011"><ele>938.0</ele><time>2026-04-19T10:31:27Z</time></trkpt><trkpt lat="45.14157620643971" lon="7.002650161697956"><ele>938.0</ele><time>2026-04-19T10:31:28Z</time></trkpt><trkpt lat="45.1415368129257" lon="7.002577392798226"><ele>938.0</ele><time>2026-04-19T10:31:29Z</time></trkpt><trkpt lat="45.14162281038628" lon="7.002468407875295"><ele>938.0</ele><time>2026-04-19T10:31:31Z</time></trkpt><trkpt lat="45.141731463516315" lon="7.002559678384646"><ele>938.0</ele><time>2026-04-19T10:31:32Z</time></trkpt><trkpt lat="45.141838966266526" lon="7.002703176190285"><ele>938.0</ele><time>2026-04-19T10:31:33Z</time></trkpt><trkpt lat="45.141980788285395" lon="7.002839044294911"><ele>938.0</ele><time>2026-04-19T10:31:33.999Z</time></trkpt><trkpt lat="45.14216784827117" lon="7.0029988079076455"><ele>938.0</ele><time>2026-04-19T10:31:34.999Z</time></trkpt><trkpt lat="45.14236774937163" lon="7.003151360784951"><ele>938.0</ele><time>2026-04-19T10:31:35.999Z</time></trkpt><trkpt lat="45.14258671431168" lon="7.00320497817158"><ele>938.0</ele><time>2026-04-19T10:31:36.999Z</time></trkpt><trkpt lat="45.1428303814493" lon="7.00319010130768"><ele>947.0</ele><time>2026-04-19T10:31:37.999Z</time></trkpt><trkpt lat="45.14307067459974" lon="7.003256399593196"><ele>956.0</ele><time>2026-04-19T10:31:38.999Z</time></trkpt><trkpt lat="45.14333684625865" lon="7.003418332262936"><ele>956.0</ele><time>2026-04-19T10:31:39.999Z</time></trkpt><trkpt lat="45.143585217805786" lon="7.003607818294485"><ele>956.0</ele><time>2026-04-19T10:31:40.999Z</time></trkpt><trkpt lat="45.143786630759195" lon="7.003731691731841"><ele>956.0</ele><time>2026-04-19T10:31:41.999Z</time></trkpt><trkpt lat="45.14399301723025" lon="7.003781091694925"><ele>956.0</ele><time>2026-04-19T10:31:42.999Z</time></trkpt><trkpt lat="45.14422775404044" lon="7.003763621851441"><ele>956.0</ele><time>2026-04-19T10:31:43.999Z</time></trkpt><trkpt lat="45.14447901365255" lon="7.003656493693742"><ele>961.5</ele><time>2026-04-19T10:31:44.999Z</time></trkpt><trkpt lat="45.144721710124976" lon="7.00345855697906"><ele>967.0</ele><time>2026-04-19T10:31:45.999Z</time></trkpt><trkpt lat="45.14495894402909" lon="7.003194119155039"><ele>977.5</ele><time>2026-04-19T10:31:46.999Z</time></trkpt><trkpt lat="45.14515335484368" lon="7.002972350480822"><ele>988.0</ele><time>2026-04-19T10:31:47.999Z</time></trkpt><trkpt lat="45.145344126175445" lon="7.00280662552733"><ele>988.0</ele><time>2026-04-19T10:31:48.999Z</time></trkpt><trkpt lat="45.14558522527114" lon="7.0026866209400955"><ele>988.0</ele><time>2026-04-19T10:31:49.999Z</time></trkpt><trkpt lat="45.14584646244577" lon="7.002603289662443"><ele>1002.0</ele><time>2026-04-19T10:31:50.999Z</time></trkpt><trkpt lat="45.146086008647345" lon="7.002448856856932"><ele>1016.0</ele><time>2026-04-19T10:31:51.999Z</time></trkpt><trkpt lat="45.14629590444886" lon="7.00221346519258"><ele>1008.0</ele><time>2026-04-19T10:31:52.999Z</time></trkpt><trkpt lat="45.14660795217715" lon="7.001928945410718"><ele>1000.0</ele><time>2026-04-19T10:31:53.999Z</time></trkpt><trkpt lat="45.14692819096649" lon="7.001675688728144"><ele>1010.5</ele><time>2026-04-19T10:31:54.999Z</time></trkpt><trkpt lat="45.14725531138089" lon="7.001394304471891"><ele>1021.0</ele><time>2026-04-19T10:31:55.999Z</time></trkpt><trkpt lat="45.147551878113994" lon="7.001182776046077"><ele>1021.0</ele><time>2026-04-19T10:31:56.999Z</time></trkpt><trkpt lat="45.147776401342135" lon="7.001024398908253"><ele>1021.0</ele><time>2026-04-19T10:31:57.999Z</time></trkpt><trkpt lat="45.14798388396198" lon="7.000946715545901"><ele>1015.0</ele><time>2026-04-19T10:31:58.999Z</time></trkpt><trkpt lat="45.148232561807305" lon="7.000907301624745"><ele>1009.0</ele><time>2026-04-19T10:31:59.999Z</time></trkpt><trkpt lat="45.148480125170074" lon="7.0008461171806005"><ele>1018.6666666666666</ele><time>2026-04-19T10:32:00.999Z</time></trkpt><trkpt lat="45.1486629038511" lon="7.000792787061234"><ele>1028.3333333333333</ele><time>2026-04-19T10:32:01.999Z</time></trkpt><trkpt lat="45.14885201415746" lon="7.000603108426675"><ele>1038.0</ele><time>2026-04-19T10:32:02.999Z</time></trkpt><trkpt lat="45.149020196083114" lon="7.000313109741484"><ele>1033.6666666666667</ele><time>2026-04-19T10:32:03.999Z</time></trkpt><trkpt lat="45.14918189748302" lon="7.000141633682781"><ele>1029.3333333333335</ele><time>2026-04-19T10:32:04.999Z</time></trkpt><trkpt lat="45.14935694880931" lon="7.000092487929562"><ele>1025.0</ele><time>2026-04-19T10:32:05.999Z</time></trkpt><trkpt lat="45.14956930414322" lon="7.000061744048541"><ele>1025.0</ele><time>2026-04-19T10:32:06.999Z</time></trkpt><trkpt lat="45.149777590778136" lon="7.000005030283198"><ele>1025.0</ele><time>2026-04-19T10:32:07.999Z</time></trkpt><trkpt lat="45.15001272771485" lon="6.999806411169846"><ele>1021.0</ele><time>2026-04-19T10:32:08.999Z</time></trkpt><trkpt lat="45.1502572793844" lon="6.999522870258859"><ele>1017.0</ele><time>2026-04-19T10:32:09.999Z</time></trkpt><trkpt lat="45.150528496552255" lon="6.999378513316978"><ele>1013.0</ele><time>2026-04-19T10:32:10.999Z</time></trkpt><trkpt lat="45.15080622121634" lon="6.99932007836163"><ele>1009.0</ele><time>2026-04-19T10:32:11.999Z</time></trkpt><trkpt lat="45.15104828422626" lon="6.999240414364603"><ele>1024.5</ele><time>2026-04-19T10:32:12.999Z</time></trkpt><trkpt lat="45.15127544520821" lon="6.999132602325689"><ele>1040.0</ele><time>2026-04-19T10:32:13.999Z</time></trkpt><trkpt lat="45.15153859246053" lon="6.998901562396368"><ele>1033.0</ele><time>2026-04-19T10:32:14.999Z</time></trkpt><trkpt lat="45.151833049153495" lon="6.998698335137004"><ele>1026.0</ele><time>2026-04-19T10:32:15.999Z</time></trkpt><trkpt lat="45.1519913411496" lon="6.998433311196558"><ele>1036.6666666666667</ele><time>2026-04-19T10:32:16.999Z</time></trkpt><trkpt lat="45.15211511247828" lon="6.998288537109347"><ele>1047.3333333333335</ele><time>2026-04-19T10:32:17.999Z</time></trkpt><trkpt lat="45.15220520581292" lon="6.998077244352661"><ele>1058.0</ele><time>2026-04-19T10:32:18.999Z</time></trkpt><trkpt lat="45.15226610536993" lon="6.997740652580349"><ele>1050.5</ele><time>2026-04-19T10:32:19.999Z</time></trkpt><trkpt lat="45.152300631804984" lon="6.99742172271569"><ele>1043.0</ele><time>2026-04-19T10:32:20.999Z</time></trkpt><trkpt lat="45.152461520018946" lon="6.997142527372249"><ele>1043.0</ele><time>2026-04-19T10:32:21.999Z</time></trkpt><trkpt lat="45.15270017685758" lon="6.996855467965987"><ele>1043.0</ele><time>2026-04-19T10:32:22.999Z</time></trkpt><trkpt lat="45.15290316737688" lon="6.996515328278052"><ele>1037.0</ele><time>2026-04-19T10:32:23.999Z</time></trkpt><trkpt lat="45.15311122358584" lon="6.99616149739637"><ele>1031.0</ele><time>2026-04-19T10:32:24.999Z</time></trkpt><trkpt lat="45.153341766763155" lon="6.9958881268934086"><ele>1048.0</ele><time>2026-04-19T10:32:25.999Z</time></trkpt><trkpt lat="45.15354126771532" lon="6.995559380422067"><ele>1065.0</ele><time>2026-04-19T10:32:26.999Z</time></trkpt><trkpt lat="45.15369632795507" lon="6.995157761072809"><ele>1071.3333333333333</ele><time>2026-04-19T10:32:27.999Z</time></trkpt><trkpt lat="45.153738748650795" lon="6.994893348855154"><ele>1077.6666666666665</ele><time>2026-04-19T10:32:28.999Z</time></trkpt><trkpt lat="45.15374585803262" lon="6.994619290467988"><ele>1084.0</ele><time>2026-04-19T10:32:29.999Z</time></trkpt><trkpt lat="45.15374744293276" lon="6.994349539318237"><ele>1091.3333333333333</ele><time>2026-04-19T10:32:30.999Z</time></trkpt><trkpt lat="45.15384063610254" lon="6.994099867798678"><ele>1098.6666666666667</ele><time>2026-04-19T10:32:31.999Z</time></trkpt><trkpt lat="45.15401294409662" lon="6.9939187647221654"><ele>1106.0</ele><time>2026-04-19T10:32:32.999Z</time></trkpt><trkpt lat="45.15410887515765" lon="6.993639491178418"><ele>1098.6666666666667</ele><time>2026-04-19T10:32:33.999Z</time></trkpt><trkpt lat="45.154190831208076" lon="6.993399935578085"><ele>1091.3333333333333</ele><time>2026-04-19T10:32:34.999Z</time></trkpt><trkpt lat="45.15429147832543" lon="6.993186525036095"><ele>1084.0</ele><time>2026-04-19T10:32:35.999Z</time></trkpt><trkpt lat="45.15442262743846" lon="6.993213673769122"><ele>1084.0</ele><time>2026-04-19T10:32:36.999Z</time></trkpt><trkpt lat="45.15464261756315" lon="6.993320969405121"><ele>1084.0</ele><time>2026-04-19T10:32:38Z</time></trkpt><trkpt lat="45.154838645437614" lon="6.993418366920527"><ele>1084.0</ele><time>2026-04-19T10:32:39Z</time></trkpt><trkpt lat="45.154991650557506" lon="6.993590313180321"><ele>1070.5</ele><time>2026-04-19T10:32:40Z</time></trkpt><trkpt lat="45.15513415344937" lon="6.993845673206317"><ele>1057.0</ele><time>2026-04-19T10:32:41Z</time></trkpt><trkpt lat="45.15533546947017" lon="6.994120011788876"><ele>1053.0</ele><time>2026-04-19T10:32:42Z</time></trkpt><trkpt lat="45.15556870682705" lon="6.994263728103544"><ele>1049.0</ele><time>2026-04-19T10:32:43Z</time></trkpt><trkpt lat="45.15580894450393" lon="6.994313281971447"><ele>1049.0</ele><time>2026-04-19T10:32:44Z</time></trkpt><trkpt lat="45.15601329776187" lon="6.9943070375369825"><ele>1049.0</ele><time>2026-04-19T10:32:45Z</time></trkpt><trkpt lat="45.15614115293602" lon="6.9944154058813215"><ele>1049.0</ele><time>2026-04-19T10:32:46Z</time></trkpt><trkpt lat="45.15624734157338" lon="6.994674923019557"><ele>1049.0</ele><time>2026-04-19T10:32:47Z</time></trkpt><trkpt lat="45.15637643461287" lon="6.994990001289203"><ele>1049.0</ele><time>2026-04-19T10:32:48Z</time></trkpt><trkpt lat="45.156575209084664" lon="6.995193790502989"><ele>1050.0</ele><time>2026-04-19T10:32:49Z</time></trkpt><trkpt lat="45.15683577509209" lon="6.995462130153456"><ele>1051.0</ele><time>2026-04-19T10:32:50Z</time></trkpt><trkpt lat="45.157026571921705" lon="6.9956967309043465"><ele>1051.0</ele><time>2026-04-19T10:32:51Z</time></trkpt><trkpt lat="45.15712749092532" lon="6.995814130632387"><ele>1051.0</ele><time>2026-04-19T10:32:52Z</time></trkpt><trkpt lat="45.15730883021632" lon="6.995928550686446"><ele>1051.0</ele><time>2026-04-19T10:32:53Z</time></trkpt><trkpt lat="45.157514365471606" lon="6.995924864031746"><ele>1047.5</ele><time>2026-04-19T10:32:54Z</time></trkpt><trkpt lat="45.15772067006223" lon="6.9958971835863855"><ele>1044.0</ele><time>2026-04-19T10:32:55Z</time></trkpt><trkpt lat="45.15798651490047" lon="6.995973751041543"><ele>1056.5</ele><time>2026-04-19T10:32:56Z</time></trkpt><trkpt lat="45.15825808945348" lon="6.996210034815491"><ele>1069.0</ele><time>2026-04-19T10:32:57Z</time></trkpt><trkpt lat="45.15852237335098" lon="6.996371331703641"><ele>1069.0</ele><time>2026-04-19T10:32:58Z</time></trkpt><trkpt lat="45.158712026500325" lon="6.996487813511845"><ele>1069.0</ele><time>2026-04-19T10:32:59Z</time></trkpt><trkpt lat="45.15888531215359" lon="6.996504142627921"><ele>1069.0</ele><time>2026-04-19T10:33:00Z</time></trkpt><trkpt lat="45.15905583503262" lon="6.996469391210017"><ele>1063.5</ele><time>2026-04-19T10:33:01Z</time></trkpt><trkpt lat="45.15921461550096" lon="6.996510913448772"><ele>1058.0</ele><time>2026-04-19T10:33:02Z</time></trkpt><trkpt lat="45.159314588123856" lon="6.996701149074843"><ele>1052.5</ele><time>2026-04-19T10:33:03Z</time></trkpt><trkpt lat="45.15934898662279" lon="6.996861468573989"><ele>1047.0</ele><time>2026-04-19T10:33:04Z</time></trkpt><trkpt lat="45.15946989886624" lon="6.996980111938592"><ele>1047.0</ele><time>2026-04-19T10:33:05Z</time></trkpt><trkpt lat="45.159581896471884" lon="6.997016639979417"><ele>1047.0</ele><time>2026-04-19T10:33:06Z</time></trkpt><trkpt lat="45.15967687326768" lon="6.997026649881996"><ele>1047.0</ele><time>2026-04-19T10:33:07Z</time></trkpt><trkpt lat="45.159781981004784" lon="6.997011999462414"><ele>1047.0</ele><time>2026-04-19T10:33:08Z</time></trkpt><trkpt lat="45.15986110629678" lon="6.996978900573034"><ele>1047.0</ele><time>2026-04-19T10:33:09Z</time></trkpt><trkpt lat="45.15992563179912" lon="6.996949736824037"><ele>1051.4</ele><time>2026-04-19T10:33:10Z</time></trkpt><trkpt lat="45.15999223608157" lon="6.99687769894934"><ele>1055.8000000000002</ele><time>2026-04-19T10:34:41.999Z</time></trkpt><trkpt lat="45.16006805123687" lon="6.996822104367736"><ele>1060.2</ele><time>2026-04-19T10:34:42.999Z</time></trkpt><trkpt lat="45.16017198206135" lon="6.996786872063492"><ele>1064.6000000000001</ele><time>2026-04-19T10:34:44Z</time></trkpt><trkpt lat="45.160280653227034" lon="6.996776263896945"><ele>1069.0</ele><time>2026-04-19T10:34:45Z</time></trkpt><trkpt lat="45.16040625293774" lon="6.996818272625037"><ele>1069.0</ele><time>2026-04-19T10:34:46Z</time></trkpt><trkpt lat="45.1605176886698" lon="6.996946866363261"><ele>1069.0</ele><time>2026-04-19T10:34:47Z</time></trkpt><trkpt lat="45.16063921275128" lon="6.997087283314715"><ele>1069.0</ele><time>2026-04-19T10:34:48Z</time></trkpt><trkpt lat="45.16077124857865" lon="6.997232429957631"><ele>1064.3333333333333</ele><time>2026-04-19T10:34:49Z</time></trkpt><trkpt lat="45.160907863707656" lon="6.997377131887073"><ele>1059.6666666666667</ele><time>2026-04-19T10:34:50Z</time></trkpt><trkpt lat="45.16104452672315" lon="6.997516747006582"><ele>1055.0</ele><time>2026-04-19T10:34:51Z</time></trkpt><trkpt lat="45.16124652703031" lon="6.99756307279754"><ele>1055.0</ele><time>2026-04-19T10:34:52Z</time></trkpt><trkpt lat="45.16147500143122" lon="6.997548970474673"><ele>1055.0</ele><time>2026-04-19T10:34:53Z</time></trkpt><trkpt lat="45.16169244288237" lon="6.997527694715604"><ele>1055.0</ele><time>2026-04-19T10:34:54Z</time></trkpt><trkpt lat="45.16191123456847" lon="6.997658058775402"><ele>1066.0</ele><time>2026-04-19T10:34:55Z</time></trkpt><trkpt lat="45.16214595067903" lon="6.997829197758037"><ele>1077.0</ele><time>2026-04-19T10:34:56Z</time></trkpt><trkpt lat="45.16239396207169" lon="6.998052930859116"><ele>1082.5</ele><time>2026-04-19T10:34:57Z</time></trkpt><trkpt lat="45.162701829353914" lon="6.998208532732239"><ele>1088.0</ele><time>2026-04-19T10:34:58Z</time></trkpt><trkpt lat="45.16302951209579" lon="6.9983047518227455"><ele>1085.0</ele><time>2026-04-19T10:34:59Z</time></trkpt><trkpt lat="45.16336114522367" lon="6.998459155621956"><ele>1082.0</ele><time>2026-04-19T10:35:00Z</time></trkpt><trkpt lat="45.163691642959314" lon="6.998700031273046"><ele>1082.0</ele><time>2026-04-19T10:35:01Z</time></trkpt><trkpt lat="45.1639976725614" lon="6.998970570046419"><ele>1082.0</ele><time>2026-04-19T10:35:02Z</time></trkpt><trkpt lat="45.1642302413536" lon="6.999161605720832"><ele>1079.0</ele><time>2026-04-19T10:35:03Z</time></trkpt><trkpt lat="45.1644227640365" lon="6.999323744121027"><ele>1076.0</ele><time>2026-04-19T10:35:04Z</time></trkpt><trkpt lat="45.16458960935763" lon="6.999426194092133"><ele>1073.0</ele><time>2026-04-19T10:35:05Z</time></trkpt><trkpt lat="45.16479623203381" lon="6.999470816181827"><ele>1077.5</ele><time>2026-04-19T10:35:06Z</time></trkpt><trkpt lat="45.16503861114274" lon="6.999441649589159"><ele>1082.0</ele><time>2026-04-19T10:35:07Z</time></trkpt><trkpt lat="45.165282914174576" lon="6.999467442908564"><ele>1082.0</ele><time>2026-04-19T10:35:08Z</time></trkpt><trkpt lat="45.1654989998215" lon="6.999528144643124"><ele>1082.0</ele><time>2026-04-19T10:35:09Z</time></trkpt><trkpt lat="45.1656770009235" lon="6.999451761947677"><ele>1082.0</ele><time>2026-04-19T10:35:10Z</time></trkpt><trkpt lat="45.165822852614845" lon="6.999280221168043"><ele>1081.3333333333335</ele><time>2026-04-19T10:35:11Z</time></trkpt><trkpt lat="45.16598327445372" lon="6.999264133620797"><ele>1080.6666666666667</ele><time>2026-04-19T10:35:12Z</time></trkpt><trkpt lat="45.16615428649796" lon="6.999368929659098"><ele>1080.0</ele><time>2026-04-19T10:35:13Z</time></trkpt><trkpt lat="45.166369920054954" lon="6.999546028007042"><ele>1090.5</ele><time>2026-04-19T10:35:14Z</time></trkpt><trkpt lat="45.16659173819355" lon="6.999800018206257"><ele>1101.0</ele><time>2026-04-19T10:35:15Z</time></trkpt><trkpt lat="45.16684643125248" lon="7.000053329815526"><ele>1101.0</ele><time>2026-04-19T10:35:16Z</time></trkpt><trkpt lat="45.16707560270311" lon="7.000274735105191"><ele>1101.0</ele><time>2026-04-19T10:35:17Z</time></trkpt><trkpt lat="45.16729645470343" lon="7.000440552577884"><ele>1124.0</ele><time>2026-04-19T10:35:18Z</time></trkpt><trkpt lat="45.167577732033" lon="7.000557388086249"><ele>1147.0</ele><time>2026-04-19T10:35:19Z</time></trkpt><trkpt lat="45.167922117927176" lon="7.0006688705490046"><ele>1136.5</ele><time>2026-04-19T10:35:20Z</time></trkpt><trkpt lat="45.16827310958534" lon="7.000842334651863"><ele>1126.0</ele><time>2026-04-19T10:35:21Z</time></trkpt><trkpt lat="45.168650738546226" lon="7.001004986176772"><ele>1146.0</ele><time>2026-04-19T10:35:22Z</time></trkpt><trkpt lat="45.16903557107366" lon="7.001155423618576"><ele>1166.0</ele><time>2026-04-19T10:35:23Z</time></trkpt><trkpt lat="45.169387843690046" lon="7.001293765534662"><ele>1166.0</ele><time>2026-04-19T10:35:23.999Z</time></trkpt><trkpt lat="45.16967854793933" lon="7.001406192151756"><ele>1166.0</ele><time>2026-04-19T10:35:24.999Z</time></trkpt><trkpt lat="45.169927728224266" lon="7.001510122491726"><ele>1154.5</ele><time>2026-04-19T10:35:25.999Z</time></trkpt><trkpt lat="45.1701466015394" lon="7.0016262279019985"><ele>1143.0</ele><time>2026-04-19T10:35:26.999Z</time></trkpt><trkpt lat="45.17034957514089" lon="7.001791135286705"><ele>1143.0</ele><time>2026-04-19T10:35:27.999Z</time></trkpt><trkpt lat="45.17050614619208" lon="7.002035487867557"><ele>1143.0</ele><time>2026-04-19T10:35:28.999Z</time></trkpt><trkpt lat="45.17064165988249" lon="7.002235648850275"><ele>1143.0</ele><time>2026-04-19T10:35:29.999Z</time></trkpt><trkpt lat="45.17075476988547" lon="7.002400698010528"><ele>1140.0</ele><time>2026-04-19T10:35:30.999Z</time></trkpt><trkpt lat="45.17095474093475" lon="7.002504652156045"><ele>1137.0</ele><time>2026-04-19T10:35:31.999Z</time></trkpt><trkpt lat="45.17122175361106" lon="7.002597403661223"><ele>1137.0</ele><time>2026-04-19T10:35:32.999Z</time></trkpt><trkpt lat="45.171520394407395" lon="7.002705438945169"><ele>1137.0</ele><time>2026-04-19T10:35:33.999Z</time></trkpt><trkpt lat="45.17182939090979" lon="7.002865304955847"><ele>1153.5</ele><time>2026-04-19T10:35:34.999Z</time></trkpt><trkpt lat="45.172163739148225" lon="7.003011006504214"><ele>1170.0</ele><time>2026-04-19T10:35:35.999Z</time></trkpt><trkpt lat="45.17248121326907" lon="7.003178893759376"><ele>1175.0</ele><time>2026-04-19T10:35:36.999Z</time></trkpt><trkpt lat="45.17273809861409" lon="7.003302672985356"><ele>1180.0</ele><time>2026-04-19T10:35:37.999Z</time></trkpt><trkpt lat="45.17291320820937" lon="7.003397678949319"><ele>1182.3333333333333</ele><time>2026-04-19T10:35:38.999Z</time></trkpt><trkpt lat="45.17307024321069" lon="7.003425491399715"><ele>1184.6666666666667</ele><time>2026-04-19T10:35:39.999Z</time></trkpt><trkpt lat="45.17323742303567" lon="7.003392484651187"><ele>1187.0</ele><time>2026-04-19T10:35:40.999Z</time></trkpt><trkpt lat="45.173419578448865" lon="7.003221225280825"><ele>1187.0</ele><time>2026-04-19T10:35:41.999Z</time></trkpt><trkpt lat="45.17359464048717" lon="7.002963539629616"><ele>1187.0</ele><time>2026-04-19T10:35:42.999Z</time></trkpt><trkpt lat="45.17376804379965" lon="7.002639731815292"><ele>1189.0</ele><time>2026-04-19T10:35:43.999Z</time></trkpt><trkpt lat="45.17397459172046" lon="7.002300959708579"><ele>1191.0</ele><time>2026-04-19T10:35:44.999Z</time></trkpt><trkpt lat="45.1741773312395" lon="7.0019611922504295"><ele>1198.5</ele><time>2026-04-19T10:35:45.999Z</time></trkpt><trkpt lat="45.174325849168696" lon="7.001591981484456"><ele>1206.0</ele><time>2026-04-19T10:35:46.999Z</time></trkpt><trkpt lat="45.17439872798854" lon="7.001246307993225"><ele>1206.0</ele><time>2026-04-19T10:35:47.999Z</time></trkpt><trkpt lat="45.17448518431739" lon="7.001004201791413"><ele>1206.0</ele><time>2026-04-19T10:35:48.999Z</time></trkpt><trkpt lat="45.174632633498504" lon="7.000830482412847"><ele>1206.0</ele><time>2026-04-19T10:35:49.999Z</time></trkpt><trkpt lat="45.17484554681086" lon="7.000669376051499"><ele>1207.0</ele><time>2026-04-19T10:35:50.999Z</time></trkpt><trkpt lat="45.17499398072921" lon="7.0005727210773685"><ele>1208.0</ele><time>2026-04-19T10:35:51.999Z</time></trkpt><trkpt lat="45.1750783231332" lon="7.000491744213744"><ele>1209.0</ele><time>2026-04-19T10:35:52.999Z</time></trkpt><trkpt lat="45.175103603723" lon="7.000392071928991"><ele>1210.0</ele><time>2026-04-19T10:35:53.999Z</time></trkpt><trkpt lat="45.175067462328144" lon="7.000257163635511"><ele>1211.0</ele><time>2026-04-19T10:35:54.999Z</time></trkpt><trkpt lat="45.174963019966256" lon="7.00016490084317"><ele>1218.0</ele><time>2026-04-19T10:35:55.999Z</time></trkpt><trkpt lat="45.17483390856505" lon="7.000187993533372"><ele>1225.0</ele><time>2026-04-19T10:35:56.999Z</time></trkpt><trkpt lat="45.17469396891261" lon="7.00029924913683"><ele>1232.0</ele><time>2026-04-19T10:35:57.999Z</time></trkpt><trkpt lat="45.174528622079585" lon="7.000443278079462"><ele>1232.0</ele><time>2026-04-19T10:35:58.999Z</time></trkpt><trkpt lat="45.17436213808497" lon="7.000644373979439"><ele>1232.0</ele><time>2026-04-19T10:35:59.999Z</time></trkpt><trkpt lat="45.17417418497744" lon="7.000914477932726"><ele>1228.0</ele><time>2026-04-19T10:36:00.999Z</time></trkpt><trkpt lat="45.17395788842639" lon="7.00110732514551"><ele>1224.0</ele><time>2026-04-19T10:36:01.999Z</time></trkpt><trkpt lat="45.17372487485156" lon="7.001218966102728"><ele>1224.0</ele><time>2026-04-19T10:36:02.999Z</time></trkpt><trkpt lat="45.17347998667436" lon="7.001325103829039"><ele>1224.0</ele><time>2026-04-19T10:36:03.999Z</time></trkpt><trkpt lat="45.17328149325681" lon="7.001384914696914"><ele>1225.6666666666667</ele><time>2026-04-19T10:36:04.999Z</time></trkpt><trkpt lat="45.17311739752317" lon="7.001355627020959"><ele>1227.3333333333335</ele><time>2026-04-19T10:36:05.999Z</time></trkpt><trkpt lat="45.17290521782319" lon="7.001254408397609"><ele>1229.0</ele><time>2026-04-19T10:36:06.999Z</time></trkpt><trkpt lat="45.17260944663526" lon="7.001127791901716"><ele>1234.0</ele><time>2026-04-19T10:36:07.999Z</time></trkpt><trkpt lat="45.172295248816795" lon="7.001043463585495"><ele>1239.0</ele><time>2026-04-19T10:36:08.999Z</time></trkpt><trkpt lat="45.17201483203459" lon="7.0010126956817835"><ele>1239.0</ele><time>2026-04-19T10:36:09.999Z</time></trkpt><trkpt lat="45.17177465828234" lon="7.001005274136161"><ele>1239.0</ele><time>2026-04-19T10:36:10.999Z</time></trkpt><trkpt lat="45.17162410499383" lon="7.001112332007874"><ele>1239.0</ele><time>2026-04-19T10:36:11.999Z</time></trkpt><trkpt lat="45.17155405392164" lon="7.001107833262903"><ele>1239.0</ele><time>2026-04-19T10:36:12.999Z</time></trkpt><trkpt lat="45.17161050626668" lon="7.0009795738028116"><ele>1239.0</ele><time>2026-04-19T10:36:14.999Z</time></trkpt><trkpt lat="45.171724242405006" lon="7.000883800028587"><ele>1239.0</ele><time>2026-04-19T10:36:15.999Z</time></trkpt><trkpt lat="45.17186596792594" lon="7.000858808530681"><ele>1239.0</ele><time>2026-04-19T10:36:16.999Z</time></trkpt><trkpt lat="45.172023654142635" lon="7.00078782905617"><ele>1246.5</ele><time>2026-04-19T10:36:17.999Z</time></trkpt><trkpt lat="45.17227194193307" lon="7.000676844670688"><ele>1254.0</ele><time>2026-04-19T10:36:18.999Z</time></trkpt><trkpt lat="45.17254591477337" lon="7.000544591597397"><ele>1254.0</ele><time>2026-04-19T10:36:19.999Z</time></trkpt><trkpt lat="45.17290758790861" lon="7.000383436270137"><ele>1254.0</ele><time>2026-04-19T10:36:20.999Z</time></trkpt><trkpt lat="45.17324029243921" lon="7.000213766184374"><ele>1251.0</ele><time>2026-04-19T10:36:21.999Z</time></trkpt><trkpt lat="45.173531596845194" lon="7.000060138426628"><ele>1248.0</ele><time>2026-04-19T10:36:22.999Z</time></trkpt><trkpt lat="45.173805727539325" lon="6.999865509677873"><ele>1248.0</ele><time>2026-04-19T10:36:23.999Z</time></trkpt><trkpt lat="45.17401449506827" lon="6.9996537969817565"><ele>1248.0</ele><time>2026-04-19T10:36:24.999Z</time></trkpt><trkpt lat="45.17410162016362" lon="6.999440243551798"><ele>1248.0</ele><time>2026-04-19T10:36:25.999Z</time></trkpt><trkpt lat="45.17421794261889" lon="6.999105627656555"><ele>1252.0</ele><time>2026-04-19T10:36:26.999Z</time></trkpt><trkpt lat="45.17441099272876" lon="6.998866938961627"><ele>1256.0</ele><time>2026-04-19T10:36:27.999Z</time></trkpt><trkpt lat="45.17463927961464" lon="6.998581028066047"><ele>1258.0</ele><time>2026-04-19T10:36:28.999Z</time></trkpt><trkpt lat="45.17490134586994" lon="6.998276823262518"><ele>1260.0</ele><time>2026-04-19T10:36:29.999Z</time></trkpt><trkpt lat="45.17513621738794" lon="6.997990465815399"><ele>1260.0</ele><time>2026-04-19T10:36:30.999Z</time></trkpt><trkpt lat="45.17533048545437" lon="6.997788962765871"><ele>1260.0</ele><time>2026-04-19T10:36:31.999Z</time></trkpt><trkpt lat="45.175491259867" lon="6.997730624438382"><ele>1260.0</ele><time>2026-04-19T10:36:32.999Z</time></trkpt><trkpt lat="45.17564780652448" lon="6.997790055379551"><ele>1257.0</ele><time>2026-04-19T10:36:33.999Z</time></trkpt><trkpt lat="45.175791113294146" lon="6.9978293856611815"><ele>1254.0</ele><time>2026-04-19T10:36:34.999Z</time></trkpt><trkpt lat="45.175915793432615" lon="6.997726987674199"><ele>1251.0</ele><time>2026-04-19T10:36:35.999Z</time></trkpt><trkpt lat="45.17606772185284" lon="6.997499085186503"><ele>1263.0</ele><time>2026-04-19T10:36:36.999Z</time></trkpt><trkpt lat="45.17619500349747" lon="6.9972271619826625"><ele>1275.0</ele><time>2026-04-19T10:36:37.999Z</time></trkpt><trkpt lat="45.17635477606529" lon="6.996984655529785"><ele>1271.0</ele><time>2026-04-19T10:36:38.999Z</time></trkpt><trkpt lat="45.176522492831964" lon="6.996809693111922"><ele>1267.0</ele><time>2026-04-19T10:36:39.999Z</time></trkpt><trkpt lat="45.176747502856834" lon="6.996677919373785"><ele>1277.0</ele><time>2026-04-19T10:36:40.999Z</time></trkpt><trkpt lat="45.1770124400072" lon="6.996540237635518"><ele>1287.0</ele><time>2026-04-19T10:36:41.999Z</time></trkpt><trkpt lat="45.17727246883088" lon="6.9963976505297945"><ele>1285.5</ele><time>2026-04-19T10:36:42.999Z</time></trkpt><trkpt lat="45.177571328011105" lon="6.996277854703677"><ele>1284.0</ele><time>2026-04-19T10:36:43.999Z</time></trkpt><trkpt lat="45.177880331984845" lon="6.9961460810663265"><ele>1278.5</ele><time>2026-04-19T10:36:44.999Z</time></trkpt><trkpt lat="45.1782019224828" lon="6.995961354632806"><ele>1273.0</ele><time>2026-04-19T10:36:45.999Z</time></trkpt><trkpt lat="45.17847619092594" lon="6.995729219309489"><ele>1290.0</ele><time>2026-04-19T10:36:46.999Z</time></trkpt><trkpt lat="45.17870780056041" lon="6.9954809786346335"><ele>1307.0</ele><time>2026-04-19T10:36:47.999Z</time></trkpt><trkpt lat="45.17884644092021" lon="6.9953319891240335"><ele>1307.0</ele><time>2026-04-19T10:36:48.999Z</time></trkpt><trkpt lat="45.17898656241159" lon="6.995269339638251"><ele>1307.0</ele><time>2026-04-19T10:36:50Z</time></trkpt><trkpt lat="45.17914343572931" lon="6.995294395839418"><ele>1307.0</ele><time>2026-04-19T10:36:51Z</time></trkpt><trkpt lat="45.17934043673791" lon="6.995348689062034"><ele>1303.6666666666667</ele><time>2026-04-19T10:36:52Z</time></trkpt><trkpt lat="45.17951771607528" lon="6.995473289807022"><ele>1300.3333333333333</ele><time>2026-04-19T10:36:53Z</time></trkpt><trkpt lat="45.17968755153964" lon="6.995686105456123"><ele>1297.0</ele><time>2026-04-19T10:36:54Z</time></trkpt><trkpt lat="45.17991114564115" lon="6.995856518642221"><ele>1289.5</ele><time>2026-04-19T10:36:55Z</time></trkpt><trkpt lat="45.180167429061676" lon="6.995901859613755"><ele>1282.0</ele><time>2026-04-19T10:36:56Z</time></trkpt><trkpt lat="45.18038099425373" lon="6.995883942493803"><ele>1290.3333333333333</ele><time>2026-04-19T10:36:57Z</time></trkpt><trkpt lat="45.18055270955754" lon="6.9958356232493095"><ele>1298.6666666666667</ele><time>2026-04-19T10:36:58Z</time></trkpt><trkpt lat="45.18074226683348" lon="6.995723337201102"><ele>1307.0</ele><time>2026-04-19T10:36:59Z</time></trkpt><trkpt lat="45.18087556582066" lon="6.995422011699849"><ele>1307.0</ele><time>2026-04-19T10:37:00Z</time></trkpt><trkpt lat="45.18103809618244" lon="6.995053192845757"><ele>1307.0</ele><time>2026-04-19T10:37:01Z</time></trkpt><trkpt lat="45.18121126820131" lon="6.99463193415331"><ele>1314.0</ele><time>2026-04-19T10:37:02Z</time></trkpt><trkpt lat="45.18138808590488" lon="6.994169552216679"><ele>1321.0</ele><time>2026-04-19T10:37:03Z</time></trkpt><trkpt lat="45.18152006535432" lon="6.993688957434269"><ele>1330.0</ele><time>2026-04-19T10:37:04Z</time></trkpt><trkpt lat="45.18161692945301" lon="6.993187149532149"><ele>1339.0</ele><time>2026-04-19T10:37:05Z</time></trkpt><trkpt lat="45.18172268087714" lon="6.992697494042896"><ele>1347.0</ele><time>2026-04-19T10:37:06Z</time></trkpt><trkpt lat="45.18183030832381" lon="6.992257384830292"><ele>1355.0</ele><time>2026-04-19T10:37:07Z</time></trkpt><trkpt lat="45.18201086652138" lon="6.991835006092192"><ele>1345.5</ele><time>2026-04-19T10:37:08Z</time></trkpt><trkpt lat="45.18221672186532" lon="6.991384771112469"><ele>1336.0</ele><time>2026-04-19T10:37:09Z</time></trkpt><trkpt lat="45.18242253735903" lon="6.990902513650669"><ele>1349.5</ele><time>2026-04-19T10:37:10Z</time></trkpt><trkpt lat="45.18264414326667" lon="6.990407362125853"><ele>1363.0</ele><time>2026-04-19T10:37:11Z</time></trkpt><trkpt lat="45.18285837163097" lon="6.989932220225999"><ele>1375.5</ele><time>2026-04-19T10:37:12Z</time></trkpt><trkpt lat="45.18302909901599" lon="6.98957511687263"><ele>1388.0</ele><time>2026-04-19T10:37:13Z</time></trkpt><trkpt lat="45.18316183828562" lon="6.989288871587278"><ele>1379.6666666666667</ele><time>2026-04-19T10:37:14Z</time></trkpt><trkpt lat="45.18324360162655" lon="6.989069224131554"><ele>1371.3333333333333</ele><time>2026-04-19T10:37:15Z</time></trkpt><trkpt lat="45.18328692281768" lon="6.988855194473645"><ele>1363.0</ele><time>2026-04-19T10:37:16Z</time></trkpt><trkpt lat="45.18327326852033" lon="6.98863131587982"><ele>1363.0</ele><time>2026-04-19T10:37:17Z</time></trkpt><trkpt lat="45.18319576633678" lon="6.988410907101367"><ele>1363.0</ele><time>2026-04-19T10:37:18Z</time></trkpt><trkpt lat="45.18308259575405" lon="6.988191834078298"><ele>1363.0</ele><time>2026-04-19T10:37:19Z</time></trkpt><trkpt lat="45.183054642791575" lon="6.98794808550825"><ele>1365.4</ele><time>2026-04-19T10:37:20Z</time></trkpt><trkpt lat="45.18308310111191" lon="6.987779470588739"><ele>1367.8000000000002</ele><time>2026-04-19T10:37:21Z</time></trkpt><trkpt lat="45.18314309707121" lon="6.9876554758830505"><ele>1370.2</ele><time>2026-04-19T10:37:22Z</time></trkpt><trkpt lat="45.18323703311932" lon="6.987608497120907"><ele>1372.6</ele><time>2026-04-19T10:37:23Z</time></trkpt><trkpt lat="45.183355181599296" lon="6.987631852965344"><ele>1375.0</ele><time>2026-04-19T10:37:24Z</time></trkpt><trkpt lat="45.18352670712338" lon="6.987659331236793"><ele>1375.0</ele><time>2026-04-19T10:37:25Z</time></trkpt><trkpt lat="45.18368328264099" lon="6.987649512066214"><ele>1375.0</ele><time>2026-04-19T10:37:26Z</time></trkpt><trkpt lat="45.18384097125654" lon="6.9875272748554265"><ele>1375.0</ele><time>2026-04-19T10:37:27Z</time></trkpt><trkpt lat="45.183962156202256" lon="6.987283620589037"><ele>1376.0</ele><time>2026-04-19T10:37:28Z</time></trkpt><trkpt lat="45.18408330232286" lon="6.98697962370383"><ele>1377.0</ele><time>2026-04-19T10:37:29Z</time></trkpt><trkpt lat="45.184240027813395" lon="6.986605498148702"><ele>1387.5</ele><time>2026-04-19T10:37:30Z</time></trkpt><trkpt lat="45.18441957917795" lon="6.9862193639619035"><ele>1398.0</ele><time>2026-04-19T10:37:31Z</time></trkpt><trkpt lat="45.18456937015981" lon="6.985909629631417"><ele>1407.5</ele><time>2026-04-19T10:37:32Z</time></trkpt><trkpt lat="45.18468039274747" lon="6.985643442021611"><ele>1417.0</ele><time>2026-04-19T10:37:33Z</time></trkpt><trkpt lat="45.18473863358594" lon="6.985310227641814"><ele>1420.0</ele><time>2026-04-19T10:37:34Z</time></trkpt><trkpt lat="45.18475159641461" lon="6.984887603008753"><ele>1423.0</ele><time>2026-04-19T10:37:35Z</time></trkpt><trkpt lat="45.184760494027486" lon="6.984532006217129"><ele>1417.6666666666665</ele><time>2026-04-19T10:37:35.999Z</time></trkpt><trkpt lat="45.184846149696895" lon="6.984323012401879"><ele>1412.3333333333333</ele><time>2026-04-19T10:37:36.999Z</time></trkpt><trkpt lat="45.18496392664472" lon="6.984025052987856"><ele>1407.0</ele><time>2026-04-19T10:37:37.999Z</time></trkpt><trkpt lat="45.185029527089185" lon="6.983668924131496"><ele>1411.5</ele><time>2026-04-19T10:37:38.999Z</time></trkpt><trkpt lat="45.185081999146256" lon="6.983321598177146"><ele>1416.0</ele><time>2026-04-19T10:37:39.999Z</time></trkpt><trkpt lat="45.18512375841741" lon="6.983001854786891"><ele>1426.0</ele><time>2026-04-19T10:37:40.999Z</time></trkpt><trkpt lat="45.185078368568654" lon="6.982360581090817"><ele>1426.0</ele><time>2026-04-19T10:37:41.999Z</time></trkpt><trkpt lat="45.1851791803362" lon="6.981933230938026"><ele>1426.0</ele><time>2026-04-19T10:37:42.999Z</time></trkpt><trkpt lat="45.18529270354095" lon="6.98146938070136"><ele>1431.0</ele><time>2026-04-19T10:37:43.999Z</time></trkpt><trkpt lat="45.18538462795291" lon="6.98105837553958"><ele>1436.0</ele><time>2026-04-19T10:37:44.999Z</time></trkpt><trkpt lat="45.18546285761544" lon="6.980920360334464"><ele>1441.0</ele><time>2026-04-19T10:37:45.999Z</time></trkpt><trkpt lat="45.185588225821064" lon="6.980787442761837"><ele>1435.5</ele><time>2026-04-19T10:37:46.999Z</time></trkpt><trkpt lat="45.185738879549454" lon="6.980635343383713"><ele>1430.0</ele><time>2026-04-19T10:37:47.999Z</time></trkpt><trkpt lat="45.1859726783007" lon="6.980450567578419"><ele>1430.0</ele><time>2026-04-19T10:37:48.999Z</time></trkpt><trkpt lat="45.18616152259623" lon="6.980249099145113"><ele>1430.0</ele><time>2026-04-19T10:37:49.999Z</time></trkpt><trkpt lat="45.18631904662644" lon="6.979991444416174"><ele>1429.5</ele><time>2026-04-19T10:37:50.999Z</time></trkpt><trkpt lat="45.18639895130809" lon="6.979654748493379"><ele>1429.0</ele><time>2026-04-19T10:37:51.999Z</time></trkpt><trkpt lat="45.1865151397601" lon="6.97923555320776"><ele>1436.0</ele><time>2026-04-19T10:37:52.999Z</time></trkpt><trkpt lat="45.18665311225356" lon="6.978794970178974"><ele>1443.0</ele><time>2026-04-19T10:37:53.999Z</time></trkpt><trkpt lat="45.186788794181496" lon="6.978432134710042"><ele>1447.0</ele><time>2026-04-19T10:37:54.999Z</time></trkpt><trkpt lat="45.186893193089894" lon="6.978141285009222"><ele>1451.0</ele><time>2026-04-19T10:37:55.999Z</time></trkpt><trkpt lat="45.18696539453174" lon="6.977966750874504"><ele>1455.0</ele><time>2026-04-19T10:37:56.999Z</time></trkpt><trkpt lat="45.187047366416074" lon="6.977861716212774"><ele>1455.0</ele><time>2026-04-19T10:37:57.999Z</time></trkpt><trkpt lat="45.18715058332339" lon="6.977872929922967"><ele>1455.0</ele><time>2026-04-19T10:37:58.999Z</time></trkpt><trkpt lat="45.18730103293739" lon="6.977906573629662"><ele>1455.0</ele><time>2026-04-19T10:37:59.999Z</time></trkpt><trkpt lat="45.18736914705143" lon="6.977845919563543"><ele>1455.0</ele><time>2026-04-19T10:38:00.999Z</time></trkpt><trkpt lat="45.18766189965707" lon="6.978474265441995"><ele>1455.0</ele><time>2026-04-19T10:38:02.999Z</time></trkpt><trkpt lat="45.18781484513805" lon="6.978664761189594"><ele>1455.0</ele><time>2026-04-19T10:38:03.999Z</time></trkpt><trkpt lat="45.1880308928722" lon="6.978755470787704"><ele>1455.0</ele><time>2026-04-19T10:38:04.999Z</time></trkpt><trkpt lat="45.188293326330644" lon="6.978833396908435"><ele>1455.0</ele><time>2026-04-19T10:38:05.999Z</time></trkpt><trkpt lat="45.18849675196392" lon="6.978951339308381"><ele>1455.0</ele><time>2026-04-19T10:38:06.999Z</time></trkpt><trkpt lat="45.18862211997749" lon="6.9789975779748294"><ele>1455.0</ele><time>2026-04-19T10:38:07.999Z</time></trkpt><trkpt lat="45.18870244985311" lon="6.978991508991794"><ele>1455.0</ele><time>2026-04-19T10:38:08.999Z</time></trkpt><trkpt lat="45.18879221863443" lon="6.97890499837138"><ele>1455.0</ele><time>2026-04-19T10:38:09.999Z</time></trkpt><trkpt lat="45.188879627349905" lon="6.978715349684461"><ele>1455.0</ele><time>2026-04-19T10:38:10.999Z</time></trkpt><trkpt lat="45.18895655970147" lon="6.978389860812"><ele>1455.0</ele><time>2026-04-19T10:38:11.999Z</time></trkpt><trkpt lat="45.18898391917967" lon="6.978137693858264"><ele>1460.0</ele><time>2026-04-19T10:38:12.999Z</time></trkpt><trkpt lat="45.188927605884196" lon="6.977972882629621"><ele>1465.0</ele><time>2026-04-19T10:38:13.999Z</time></trkpt><trkpt lat="45.18883553719344" lon="6.977774978938972"><ele>1470.0</ele><time>2026-04-19T10:38:14.999Z</time></trkpt><trkpt lat="45.188831677276056" lon="6.977620581717804"><ele>1475.0</ele><time>2026-04-19T10:38:15.999Z</time></trkpt><trkpt lat="45.188877189780335" lon="6.97751939852833"><ele>1475.0</ele><time>2026-04-19T10:38:16.999Z</time></trkpt><trkpt lat="45.188989840384615" lon="6.977501998652202"><ele>1475.0</ele><time>2026-04-19T10:38:17.999Z</time></trkpt><trkpt lat="45.189116649956844" lon="6.9775790641203015"><ele>1475.0</ele><time>2026-04-19T10:38:18.999Z</time></trkpt><trkpt lat="45.18928324966903" lon="6.977714990165882"><ele>1475.0</ele><time>2026-04-19T10:38:19.999Z</time></trkpt><trkpt lat="45.189430595182735" lon="6.977892172501256"><ele>1475.0</ele><time>2026-04-19T10:38:20.999Z</time></trkpt><trkpt lat="45.18963817544491" lon="6.978152771446157"><ele>1475.0</ele><time>2026-04-19T10:38:21.999Z</time></trkpt><trkpt lat="45.1898649604705" lon="6.9784049936390025"><ele>1476.5</ele><time>2026-04-19T10:38:22.999Z</time></trkpt><trkpt lat="45.19003334549064" lon="6.978656227427949"><ele>1478.0</ele><time>2026-04-19T10:38:23.999Z</time></trkpt><trkpt lat="45.19014349371872" lon="6.978953956597713"><ele>1478.0</ele><time>2026-04-19T10:38:24.999Z</time></trkpt><trkpt lat="45.1902038866067" lon="6.97930330583211"><ele>1478.0</ele><time>2026-04-19T10:38:25.999Z</time></trkpt><trkpt lat="45.190259615412685" lon="6.979716681831632"><ele>1477.0</ele><time>2026-04-19T10:38:26.999Z</time></trkpt><trkpt lat="45.19028783755665" lon="6.980144393742274"><ele>1476.0</ele><time>2026-04-19T10:38:27.999Z</time></trkpt><trkpt lat="45.19024529474606" lon="6.980512428879161"><ele>1471.5</ele><time>2026-04-19T10:38:28.999Z</time></trkpt><trkpt lat="45.19022037424919" lon="6.980871867182972"><ele>1467.0</ele><time>2026-04-19T10:38:29.999Z</time></trkpt><trkpt lat="45.19030468919263" lon="6.981226178773673"><ele>1467.0</ele><time>2026-04-19T10:38:30.999Z</time></trkpt><trkpt lat="45.19045118929514" lon="6.981572416375581"><ele>1467.0</ele><time>2026-04-19T10:38:31.999Z</time></trkpt><trkpt lat="45.19062119351589" lon="6.9820235291381625"><ele>1482.5</ele><time>2026-04-19T10:38:32.999Z</time></trkpt><trkpt lat="45.19078003315603" lon="6.982518670834664"><ele>1498.0</ele><time>2026-04-19T10:38:33.999Z</time></trkpt><trkpt lat="45.190912889249184" lon="6.982961010005197"><ele>1492.5</ele><time>2026-04-19T10:38:34.999Z</time></trkpt><trkpt lat="45.19100505466262" lon="6.983394044261309"><ele>1487.0</ele><time>2026-04-19T10:38:35.999Z</time></trkpt><trkpt lat="45.19104512484198" lon="6.983714676866665"><ele>1487.0</ele><time>2026-04-19T10:38:36.999Z</time></trkpt><trkpt lat="45.19112376811919" lon="6.9839670373456615"><ele>1487.0</ele><time>2026-04-19T10:38:37.999Z</time></trkpt><trkpt lat="45.19128254645489" lon="6.984194489256981"><ele>1487.0</ele><time>2026-04-19T10:38:38.999Z</time></trkpt><trkpt lat="45.19151117956523" lon="6.9844255489610285"><ele>1500.5</ele><time>2026-04-19T10:38:39.999Z</time></trkpt><trkpt lat="45.19165601141049" lon="6.98467646549075"><ele>1514.0</ele><time>2026-04-19T10:38:40.999Z</time></trkpt><trkpt lat="45.19178699143684" lon="6.984947676392708"><ele>1511.0</ele><time>2026-04-19T10:38:41.999Z</time></trkpt><trkpt lat="45.19198924569479" lon="6.985138303852906"><ele>1508.0</ele><time>2026-04-19T10:38:42.999Z</time></trkpt><trkpt lat="45.19216799102386" lon="6.985377092559618"><ele>1513.6666666666667</ele><time>2026-04-19T10:38:43.999Z</time></trkpt><trkpt lat="45.19234356395239" lon="6.985593837105138"><ele>1519.3333333333333</ele><time>2026-04-19T10:38:44.999Z</time></trkpt><trkpt lat="45.19251670847505" lon="6.9856627894751115"><ele>1525.0</ele><time>2026-04-19T10:38:45.999Z</time></trkpt><trkpt lat="45.19273567368317" lon="6.985640758542358"><ele>1525.0</ele><time>2026-04-19T10:38:46.999Z</time></trkpt><trkpt lat="45.19293314815628" lon="6.985536437704416"><ele>1525.0</ele><time>2026-04-19T10:38:47.999Z</time></trkpt><trkpt lat="45.19311534301321" lon="6.985348953089054"><ele>1525.0</ele><time>2026-04-19T10:38:48.999Z</time></trkpt><trkpt lat="45.19330800085113" lon="6.985217635693881"><ele>1527.0</ele><time>2026-04-19T10:38:49.999Z</time></trkpt><trkpt lat="45.19352622947319" lon="6.985289146737677"><ele>1529.0</ele><time>2026-04-19T10:38:50.999Z</time></trkpt><trkpt lat="45.1937810824276" lon="6.985352101080112"><ele>1529.0</ele><time>2026-04-19T10:38:51.999Z</time></trkpt><trkpt lat="45.19400416077777" lon="6.985345299074418"><ele>1529.0</ele><time>2026-04-19T10:38:52.999Z</time></trkpt><trkpt lat="45.19413909921154" lon="6.985213915074358"><ele>1529.0</ele><time>2026-04-19T10:38:53.999Z</time></trkpt><trkpt lat="45.194279722123056" lon="6.984989431739388"><ele>1535.0</ele><time>2026-04-19T10:38:54.999Z</time></trkpt><trkpt lat="45.19444335275947" lon="6.98486925167077"><ele>1541.0</ele><time>2026-04-19T10:38:56Z</time></trkpt><trkpt lat="45.194579895964104" lon="6.984910463925311"><ele>1547.0</ele><time>2026-04-19T10:38:57Z</time></trkpt><trkpt lat="45.19476934222108" lon="6.984981204513848"><ele>1548.0</ele><time>2026-04-19T10:38:58Z</time></trkpt><trkpt lat="45.19496458730512" lon="6.985023743020085"><ele>1549.0</ele><time>2026-04-19T10:38:59Z</time></trkpt><trkpt lat="45.195149206751296" lon="6.9849326166515695"><ele>1550.0</ele><time>2026-04-19T10:39:00Z</time></trkpt><trkpt lat="45.19537259017077" lon="6.984765307212884"><ele>1550.0</ele><time>2026-04-19T10:39:01Z</time></trkpt><trkpt lat="45.195612582593725" lon="6.984592124911505"><ele>1550.0</ele><time>2026-04-19T10:39:02Z</time></trkpt><trkpt lat="45.19579846434842" lon="6.984392038598802"><ele>1557.0</ele><time>2026-04-19T10:39:03Z</time></trkpt><trkpt lat="45.19594181867645" lon="6.984120179832503"><ele>1564.0</ele><time>2026-04-19T10:39:04Z</time></trkpt><trkpt lat="45.19613452743736" lon="6.983935020134719"><ele>1564.0</ele><time>2026-04-19T10:39:05Z</time></trkpt><trkpt lat="45.19636034082229" lon="6.983907002085723"><ele>1564.0</ele><time>2026-04-19T10:39:06Z</time></trkpt><trkpt lat="45.19654483763098" lon="6.983892888650606"><ele>1564.0</ele><time>2026-04-19T10:39:07Z</time></trkpt><trkpt lat="45.19667872844776" lon="6.98377570318618"><ele>1562.5</ele><time>2026-04-19T10:39:08Z</time></trkpt><trkpt lat="45.19681834764095" lon="6.983496792698759"><ele>1561.0</ele><time>2026-04-19T10:39:09Z</time></trkpt><trkpt lat="45.1969184571506" lon="6.9831845835142445"><ele>1568.5</ele><time>2026-04-19T10:39:10Z</time></trkpt><trkpt lat="45.197081992159845" lon="6.982795576958313"><ele>1576.0</ele><time>2026-04-19T10:39:11Z</time></trkpt><trkpt lat="45.197176960091284" lon="6.982498876458559"><ele>1581.3333333333335</ele><time>2026-04-19T10:39:12Z</time></trkpt><trkpt lat="45.19715564382929" lon="6.982290393092757"><ele>1586.6666666666665</ele><time>2026-04-19T10:39:13Z</time></trkpt><trkpt lat="45.19708245747242" lon="6.981987538989709"><ele>1592.0</ele><time>2026-04-19T10:39:14Z</time></trkpt><trkpt lat="45.1970077791652" lon="6.981706814990558"><ele>1599.5</ele><time>2026-04-19T10:39:15Z</time></trkpt><trkpt lat="45.19701505143984" lon="6.981371143450986"><ele>1607.0</ele><time>2026-04-19T10:39:16Z</time></trkpt><trkpt lat="45.19703671662229" lon="6.980993068259787"><ele>1613.0</ele><time>2026-04-19T10:39:17Z</time></trkpt><trkpt lat="45.19709663048892" lon="6.980615902263141"><ele>1619.0</ele><time>2026-04-19T10:39:18Z</time></trkpt><trkpt lat="45.19720615045399" lon="6.980347532390147"><ele>1619.0</ele><time>2026-04-19T10:39:19Z</time></trkpt><trkpt lat="45.197331912561204" lon="6.98017579176781"><ele>1619.0</ele><time>2026-04-19T10:39:20Z</time></trkpt><trkpt lat="45.197485233132404" lon="6.980072316732379"><ele>1619.0</ele><time>2026-04-19T10:39:21Z</time></trkpt><trkpt lat="45.197689548769006" lon="6.9799976158984345"><ele>1613.3333333333333</ele><time>2026-04-19T10:39:22Z</time></trkpt><trkpt lat="45.1979285614831" lon="6.979944118822445"><ele>1607.6666666666665</ele><time>2026-04-19T10:39:23Z</time></trkpt><trkpt lat="45.19810756023399" lon="6.979814776480438"><ele>1602.0</ele><time>2026-04-19T10:39:24Z</time></trkpt><trkpt lat="45.198218913812795" lon="6.979573035867473"><ele>1604.5</ele><time>2026-04-19T10:39:25Z</time></trkpt><trkpt lat="45.19829054302659" lon="6.979264260197737"><ele>1607.0</ele><time>2026-04-19T10:39:26Z</time></trkpt><trkpt lat="45.198368199171746" lon="6.978843634335857"><ele>1607.0</ele><time>2026-04-19T10:39:27Z</time></trkpt><trkpt lat="45.198421510868826" lon="6.978497224790623"><ele>1607.0</ele><time>2026-04-19T10:39:28Z</time></trkpt><trkpt lat="45.19853425221193" lon="6.978243649991025"><ele>1605.6666666666665</ele><time>2026-04-19T10:39:29Z</time></trkpt><trkpt lat="45.19862457664078" lon="6.978166951879137"><ele>1604.3333333333335</ele><time>2026-04-19T10:39:30Z</time></trkpt><trkpt lat="45.19885546520982" lon="6.9779591406689585"><ele>1603.0</ele><time>2026-04-19T10:39:31Z</time></trkpt><trkpt lat="45.19903219611036" lon="6.977804170780072"><ele>1611.0</ele><time>2026-04-19T10:39:32Z</time></trkpt><trkpt lat="45.19920432108465" lon="6.977516264464323"><ele>1619.0</ele><time>2026-04-19T10:39:33Z</time></trkpt><trkpt lat="45.19934397745221" lon="6.977157524828809"><ele>1619.0</ele><time>2026-04-19T10:39:34Z</time></trkpt><trkpt lat="45.19942889435214" lon="6.976757060266436"><ele>1619.0</ele><time>2026-04-19T10:39:35Z</time></trkpt><trkpt lat="45.19952438268889" lon="6.976299126909328"><ele>1628.0</ele><time>2026-04-19T10:39:36Z</time></trkpt><trkpt lat="45.19963130711626" lon="6.975864211547051"><ele>1637.0</ele><time>2026-04-19T10:39:36.999Z</time></trkpt><trkpt lat="45.19971676271674" lon="6.975512068597189"><ele>1644.0</ele><time>2026-04-19T10:39:37.999Z</time></trkpt><trkpt lat="45.19979214764156" lon="6.975158888169132"><ele>1651.0</ele><time>2026-04-19T10:39:38.999Z</time></trkpt><trkpt lat="45.19979738257898" lon="6.974837168211888"><ele>1656.3333333333335</ele><time>2026-04-19T10:39:39.999Z</time></trkpt><trkpt lat="45.19975635595698" lon="6.974508614334911"><ele>1661.6666666666665</ele><time>2026-04-19T10:39:40.999Z</time></trkpt><trkpt lat="45.199769927098" lon="6.974205112504658"><ele>1667.0</ele><time>2026-04-19T10:39:41.999Z</time></trkpt><trkpt lat="45.199825539862196" lon="6.97394923028771"><ele>1657.0</ele><time>2026-04-19T10:39:42.999Z</time></trkpt><trkpt lat="45.199901712315715" lon="6.97358803881381"><ele>1647.0</ele><time>2026-04-19T10:39:43.999Z</time></trkpt><trkpt lat="45.19999919259807" lon="6.9732558132202636"><ele>1647.0</ele><time>2026-04-19T10:39:44.999Z</time></trkpt><trkpt lat="45.20009781503266" lon="6.972884242706274"><ele>1647.0</ele><time>2026-04-19T10:39:45.999Z</time></trkpt><trkpt lat="45.20019523294151" lon="6.972547448046501"><ele>1654.5</ele><time>2026-04-19T10:39:46.999Z</time></trkpt><trkpt lat="45.20027888957216" lon="6.9722399171735745"><ele>1662.0</ele><time>2026-04-19T10:39:47.999Z</time></trkpt><trkpt lat="45.20035813191853" lon="6.971930712009669"><ele>1662.0</ele><time>2026-04-19T10:39:48.999Z</time></trkpt><trkpt lat="45.200436252391" lon="6.971701458256547"><ele>1662.0</ele><time>2026-04-19T10:39:49.999Z</time></trkpt><trkpt lat="45.20054760351739" lon="6.971524365716335"><ele>1662.0</ele><time>2026-04-19T10:39:50.999Z</time></trkpt><trkpt lat="45.20067244442439" lon="6.971358923112877"><ele>1656.0</ele><time>2026-04-19T10:39:51.999Z</time></trkpt><trkpt lat="45.20081222433233" lon="6.971174944904709"><ele>1650.0</ele><time>2026-04-19T10:39:52.999Z</time></trkpt><trkpt lat="45.20095832271067" lon="6.970982650489433"><ele>1644.0</ele><time>2026-04-19T10:39:53.999Z</time></trkpt><trkpt lat="45.20110607943737" lon="6.970788173263689"><ele>1642.0</ele><time>2026-04-19T10:39:54.999Z</time></trkpt><trkpt lat="45.201244918774236" lon="6.9705838791959875"><ele>1640.0</ele><time>2026-04-19T10:39:55.999Z</time></trkpt><trkpt lat="45.20139616175862" lon="6.9703923663663145"><ele>1638.0</ele><time>2026-04-19T10:39:56.999Z</time></trkpt><trkpt lat="45.20153800209525" lon="6.970205400745004"><ele>1638.0</ele><time>2026-04-19T10:39:57.999Z</time></trkpt><trkpt lat="45.201664165819146" lon="6.970040441388996"><ele>1638.0</ele><time>2026-04-19T10:39:58.999Z</time></trkpt><trkpt lat="45.20177852691953" lon="6.9698959193419565"><ele>1638.0</ele><time>2026-04-19T10:39:59.999Z</time></trkpt><trkpt lat="45.20189465137475" lon="6.969752178604969"><ele>1649.3333333333335</ele><time>2026-04-19T10:40:00.999Z</time></trkpt><trkpt lat="45.20201852486714" lon="6.96962111609983"><ele>1660.6666666666667</ele><time>2026-04-19T10:40:01.999Z</time></trkpt><trkpt lat="45.20213661308063" lon="6.969474354067652"><ele>1672.0</ele><time>2026-04-19T10:40:02.999Z</time></trkpt><trkpt lat="45.2022389618847" lon="6.969287536564496"><ele>1670.3333333333335</ele><time>2026-04-19T10:40:03.999Z</time></trkpt><trkpt lat="45.20232027010815" lon="6.969066948701174"><ele>1668.6666666666665</ele><time>2026-04-19T10:40:04.999Z</time></trkpt><trkpt lat="45.20238891228576" lon="6.968823125362029"><ele>1667.0</ele><time>2026-04-19T10:40:05.999Z</time></trkpt><trkpt lat="45.2024638455756" lon="6.968582353584668"><ele>1667.0</ele><time>2026-04-19T10:40:06.999Z</time></trkpt><trkpt lat="45.20254740942994" lon="6.968372256885281"><ele>1667.0</ele><time>2026-04-19T10:40:07.999Z</time></trkpt><trkpt lat="45.20265409850205" lon="6.968215835178971"><ele>1667.0</ele><time>2026-04-19T10:40:08.999Z</time></trkpt><trkpt lat="45.20278192155199" lon="6.968110364024044"><ele>1668.6666666666665</ele><time>2026-04-19T10:40:09.999Z</time></trkpt><trkpt lat="45.202930181555196" lon="6.968013079336371"><ele>1670.3333333333335</ele><time>2026-04-19T10:40:10.999Z</time></trkpt><trkpt lat="45.20308789437306" lon="6.967913216104306"><ele>1672.0</ele><time>2026-04-19T10:40:12Z</time></trkpt><trkpt lat="45.20324511347108" lon="6.9678153361155895"><ele>1672.0</ele><time>2026-04-19T10:40:13Z</time></trkpt><trkpt lat="45.20339963733903" lon="6.967706981257387"><ele>1672.0</ele><time>2026-04-19T10:40:14Z</time></trkpt><trkpt lat="45.20356365387549" lon="6.967593381082117"><ele>1672.0</ele><time>2026-04-19T10:40:15Z</time></trkpt><trkpt lat="45.203733770096505" lon="6.967459310193235"><ele>1673.3333333333335</ele><time>2026-04-19T10:40:16Z</time></trkpt><trkpt lat="45.20386993042441" lon="6.967276774179545"><ele>1674.6666666666665</ele><time>2026-04-19T10:40:17Z</time></trkpt><trkpt lat="45.203962475019495" lon="6.967025234277608"><ele>1676.0</ele><time>2026-04-19T10:40:18Z</time></trkpt><trkpt lat="45.204018220046606" lon="6.966725691827144"><ele>1683.5</ele><time>2026-04-19T10:40:19Z</time></trkpt><trkpt lat="45.204092135951" lon="6.966419985116504"><ele>1691.0</ele><time>2026-04-19T10:40:20Z</time></trkpt><trkpt lat="45.2041525307531" lon="6.966096132821881"><ele>1699.5</ele><time>2026-04-19T10:40:21Z</time></trkpt><trkpt lat="45.2042345979172" lon="6.965773912224139"><ele>1708.0</ele><time>2026-04-19T10:40:22Z</time></trkpt><trkpt lat="45.20431342718642" lon="6.96544475132282"><ele>1708.0</ele><time>2026-04-19T10:40:23Z</time></trkpt><trkpt lat="45.2043936973504" lon="6.965117755138183"><ele>1708.0</ele><time>2026-04-19T10:40:24Z</time></trkpt><trkpt lat="45.20448006295127" lon="6.9647918952318895"><ele>1716.5</ele><time>2026-04-19T10:40:25Z</time></trkpt><trkpt lat="45.204572166402826" lon="6.964473541147436"><ele>1725.0</ele><time>2026-04-19T10:40:26Z</time></trkpt><trkpt lat="45.20466674175777" lon="6.964174839208269"><ele>1730.6666666666665</ele><time>2026-04-19T10:40:27Z</time></trkpt><trkpt lat="45.20476311743571" lon="6.963910871641733"><ele>1736.3333333333333</ele><time>2026-04-19T10:40:28Z</time></trkpt><trkpt lat="45.204858667243556" lon="6.963677731101849"><ele>1742.0</ele><time>2026-04-19T10:40:29Z</time></trkpt><trkpt lat="45.20495831911313" lon="6.963486397995116"><ele>1734.0</ele><time>2026-04-19T10:40:30Z</time></trkpt><trkpt lat="45.20507091374968" lon="6.963311785931606"><ele>1726.0</ele><time>2026-04-19T10:40:31Z</time></trkpt><trkpt lat="45.2051871898647" lon="6.963156275496888"><ele>1718.0</ele><time>2026-04-19T10:40:32Z</time></trkpt><trkpt lat="45.20531319015617" lon="6.963032035207448"><ele>1718.0</ele><time>2026-04-19T10:40:33Z</time></trkpt><trkpt lat="45.205438028946716" lon="6.962937825496504"><ele>1718.0</ele><time>2026-04-19T10:40:34Z</time></trkpt><trkpt lat="45.205551549075246" lon="6.962862305878952"><ele>1718.0</ele><time>2026-04-19T10:40:35Z</time></trkpt><trkpt lat="45.20564467172501" lon="6.962793704204044"><ele>1718.0</ele><time>2026-04-19T10:40:36Z</time></trkpt><trkpt lat="45.20572520486048" lon="6.962725340599585"><ele>1713.4999999999998</ele><time>2026-04-19T10:40:37Z</time></trkpt><trkpt lat="45.20579715953238" lon="6.962668350686102"><ele>1709.0</ele><time>2026-04-19T10:40:38Z</time></trkpt><trkpt lat="45.205855914566335" lon="6.962623699440974"><ele>1704.5</ele><time>2026-04-19T10:40:39Z</time></trkpt><trkpt lat="45.20593277341675" lon="6.962572398825777"><ele>1700.0</ele><time>2026-04-19T10:40:41Z</time></trkpt><trkpt lat="45.20583921456055" lon="6.962577773782325"><ele>1695.4999999999998</ele><time>2026-04-19T10:55:15Z</time></trkpt><trkpt lat="45.20574239078627" lon="6.962680495787023"><ele>1691.0</ele><time>2026-04-19T10:55:16Z</time></trkpt><trkpt lat="45.205671656769546" lon="6.962738793635472"><ele>1696.4</ele><time>2026-04-19T10:55:17Z</time></trkpt><trkpt lat="45.20559716997032" lon="6.962797863440616"><ele>1701.8</ele><time>2026-04-19T10:55:18Z</time></trkpt><trkpt lat="45.205508585245326" lon="6.962845240775959"><ele>1707.2000000000003</ele><time>2026-04-19T10:55:19Z</time></trkpt><trkpt lat="45.2054156433868" lon="6.962923672872616"><ele>1712.6000000000001</ele><time>2026-04-19T10:55:20Z</time></trkpt><trkpt lat="45.20531923790753" lon="6.963013137894657"><ele>1718.0</ele><time>2026-04-19T10:55:21Z</time></trkpt><trkpt lat="45.20523861171938" lon="6.963119092258531"><ele>1718.0</ele><time>2026-04-19T10:55:22Z</time></trkpt><trkpt lat="45.20515617916583" lon="6.963207373614021"><ele>1718.0000000000002</ele><time>2026-04-19T10:55:23Z</time></trkpt><trkpt lat="45.20507341181606" lon="6.963306329253991"><ele>1718.0000000000002</ele><time>2026-04-19T10:55:24Z</time></trkpt><trkpt lat="45.20499501974611" lon="6.963415139892594"><ele>1718.0</ele><time>2026-04-19T10:55:25Z</time></trkpt><trkpt lat="45.20492774569593" lon="6.9635431686811256"><ele>1718.0</ele><time>2026-04-19T10:55:26Z</time></trkpt><trkpt lat="45.20484494979736" lon="6.963667219890921"><ele>1719.75</ele><time>2026-04-19T10:55:27Z</time></trkpt><trkpt lat="45.20479046140924" lon="6.963826699693772"><ele>1721.5</ele><time>2026-04-19T10:55:28Z</time></trkpt><trkpt lat="45.20472985334527" lon="6.963981535663467"><ele>1723.25</ele><time>2026-04-19T10:55:29Z</time></trkpt><trkpt lat="45.20467109111868" lon="6.9641450206257405"><ele>1725.0</ele><time>2026-04-19T10:55:30Z</time></trkpt><trkpt lat="45.2046165945805" lon="6.964328222552184"><ele>1725.0</ele><time>2026-04-19T10:55:31Z</time></trkpt><trkpt lat="45.204545583931846" lon="6.9645163926388225"><ele>1725.0</ele><time>2026-04-19T10:55:32Z</time></trkpt><trkpt lat="45.204488639984916" lon="6.964722937599363"><ele>1725.0</ele><time>2026-04-19T10:55:33Z</time></trkpt><trkpt lat="45.20443123680658" lon="6.964939357325317"><ele>1719.3333333333335</ele><time>2026-04-19T10:55:34Z</time></trkpt><trkpt lat="45.20437330922721" lon="6.965161910841893"><ele>1713.6666666666667</ele><time>2026-04-19T10:55:35Z</time></trkpt><trkpt lat="45.20431712701211" lon="6.965377191466947"><ele>1708.0</ele><time>2026-04-19T10:55:36Z</time></trkpt><trkpt lat="45.20425732003802" lon="6.965606128564905"><ele>1708.0</ele><time>2026-04-19T10:55:37Z</time></trkpt><trkpt lat="45.20419825826761" lon="6.965842690831461"><ele>1708.0</ele><time>2026-04-19T10:55:38Z</time></trkpt><trkpt lat="45.20414131784565" lon="6.96607556683579"><ele>1708.0</ele><time>2026-04-19T10:55:39Z</time></trkpt><trkpt lat="45.20408317395" lon="6.966313364662316"><ele>1702.6666666666667</ele><time>2026-04-19T10:55:40Z</time></trkpt><trkpt lat="45.20402591487262" lon="6.966552570077337"><ele>1697.3333333333335</ele><time>2026-04-19T10:55:41Z</time></trkpt><trkpt lat="45.20397045415479" lon="6.966788648267852"><ele>1692.0</ele><time>2026-04-19T10:55:42Z</time></trkpt><trkpt lat="45.20391603284435" lon="6.967011813287234"><ele>1692.0</ele><time>2026-04-19T10:55:43Z</time></trkpt><trkpt lat="45.20386395151878" lon="6.967224283375021"><ele>1692.0</ele><time>2026-04-19T10:55:44Z</time></trkpt><trkpt lat="45.203751106354545" lon="6.967374018991968"><ele>1692.0</ele><time>2026-04-19T10:55:45Z</time></trkpt><trkpt lat="45.20361655795066" lon="6.967489727956137"><ele>1690.3333333333335</ele><time>2026-04-19T10:55:46Z</time></trkpt><trkpt lat="45.203460029393256" lon="6.967609178935933"><ele>1688.6666666666667</ele><time>2026-04-19T10:55:47Z</time></trkpt><trkpt lat="45.2032891787643" lon="6.9677241868903"><ele>1687.0</ele><time>2026-04-19T10:55:48Z</time></trkpt><trkpt lat="45.20312113272173" lon="6.967859995873352"><ele>1687.0</ele><time>2026-04-19T10:55:49Z</time></trkpt><trkpt lat="45.20294455418002" lon="6.96797336228187"><ele>1687.0</ele><time>2026-04-19T10:55:50Z</time></trkpt><trkpt lat="45.20276703718855" lon="6.968070423058044"><ele>1687.0</ele><time>2026-04-19T10:55:51Z</time></trkpt><trkpt lat="45.202612580908564" lon="6.968209578263592"><ele>1680.3333333333335</ele><time>2026-04-19T10:55:52Z</time></trkpt><trkpt lat="45.20251169996843" lon="6.968419751445686"><ele>1673.6666666666665</ele><time>2026-04-19T10:55:53Z</time></trkpt><trkpt lat="45.20242539079379" lon="6.968621349105494"><ele>1667.0</ele><time>2026-04-19T10:55:54Z</time></trkpt><trkpt lat="45.20236033040788" lon="6.968817890465758"><ele>1668.25</ele><time>2026-04-19T10:55:55Z</time></trkpt><trkpt lat="45.20229692903709" lon="6.968998900298155"><ele>1669.5</ele><time>2026-04-19T10:55:56Z</time></trkpt><trkpt lat="45.20222825440788" lon="6.96917146094996"><ele>1670.75</ele><time>2026-04-19T10:55:57Z</time></trkpt><trkpt lat="45.20215693018806" lon="6.969335169056659"><ele>1672.0</ele><time>2026-04-19T10:55:58Z</time></trkpt><trkpt lat="45.20202414574827" lon="6.969600309622784"><ele>1672.0</ele><time>2026-04-19T10:55:59Z</time></trkpt><trkpt lat="45.20188022667749" lon="6.969731036261734"><ele>1672.0</ele><time>2026-04-19T10:56:00Z</time></trkpt><trkpt lat="45.20173529953285" lon="6.969897881746333"><ele>1672.0</ele><time>2026-04-19T10:56:01Z</time></trkpt><trkpt lat="45.201591069892906" lon="6.970085521996499"><ele>1675.3333333333335</ele><time>2026-04-19T10:56:02Z</time></trkpt><trkpt lat="45.20145044904449" lon="6.970300201764839"><ele>1678.6666666666665</ele><time>2026-04-19T10:56:03Z</time></trkpt><trkpt lat="45.20127991938633" lon="6.970495057961683"><ele>1682.0</ele><time>2026-04-19T10:56:04Z</time></trkpt><trkpt lat="45.20112129058864" lon="6.970703844816975"><ele>1669.3333333333333</ele><time>2026-04-19T10:56:05Z</time></trkpt><trkpt lat="45.20096503839433" lon="6.97090950362596"><ele>1656.6666666666665</ele><time>2026-04-19T10:56:06Z</time></trkpt><trkpt lat="45.20082655375204" lon="6.971123166149735"><ele>1644.0</ele><time>2026-04-19T10:56:07Z</time></trkpt><trkpt lat="45.200671470384336" lon="6.971295897437478"><ele>1650.0</ele><time>2026-04-19T10:56:08Z</time></trkpt><trkpt lat="45.20052826457913" lon="6.971485542083628"><ele>1656.0</ele><time>2026-04-19T10:56:09Z</time></trkpt><trkpt lat="45.200407521679026" lon="6.97168941404733"><ele>1662.0</ele><time>2026-04-19T10:56:10Z</time></trkpt><trkpt lat="45.20030297357171" lon="6.971906099684184"><ele>1662.0</ele><time>2026-04-19T10:56:11Z</time></trkpt><trkpt lat="45.200229006278256" lon="6.972169899600128"><ele>1662.0</ele><time>2026-04-19T10:56:12Z</time></trkpt><trkpt lat="45.200178019031235" lon="6.97244940119974"><ele>1662.0</ele><time>2026-04-19T10:56:13Z</time></trkpt><trkpt lat="45.20011295636383" lon="6.972727500603896"><ele>1657.0</ele><time>2026-04-19T10:56:14Z</time></trkpt><trkpt lat="45.20003947507279" lon="6.972997247541745"><ele>1652.0</ele><time>2026-04-19T10:56:15Z</time></trkpt><trkpt lat="45.19997036848983" lon="6.973271389517462"><ele>1647.0</ele><time>2026-04-19T10:56:16Z</time></trkpt><trkpt lat="45.19990059917281" lon="6.973546562783621"><ele>1642.3333333333335</ele><time>2026-04-19T10:56:17Z</time></trkpt><trkpt lat="45.199835719802586" lon="6.973817349083575"><ele>1637.6666666666667</ele><time>2026-04-19T10:56:18Z</time></trkpt><trkpt lat="45.199768127817286" lon="6.974074649844319"><ele>1633.0</ele><time>2026-04-19T10:56:19Z</time></trkpt><trkpt lat="45.19971205839349" lon="6.974330602596301"><ele>1639.0</ele><time>2026-04-19T10:56:20Z</time></trkpt><trkpt lat="45.1996977279852" lon="6.974587737405678"><ele>1645.0</ele><time>2026-04-19T10:56:21Z</time></trkpt><trkpt lat="45.19971494386505" lon="6.974843032857673"><ele>1651.0</ele><time>2026-04-19T10:56:22Z</time></trkpt><trkpt lat="45.19973590248864" lon="6.97509089277893"><ele>1651.0</ele><time>2026-04-19T10:56:23Z</time></trkpt><trkpt lat="45.199700332843044" lon="6.975339170719796"><ele>1651.0</ele><time>2026-04-19T10:56:24Z</time></trkpt><trkpt lat="45.199640387440645" lon="6.975598449544689"><ele>1651.0</ele><time>2026-04-19T10:56:25Z</time></trkpt><trkpt lat="45.199570618719655" lon="6.975873749164723"><ele>1646.3333333333335</ele><time>2026-04-19T10:56:26Z</time></trkpt><trkpt lat="45.19949680776055" lon="6.976158425183109"><ele>1641.6666666666665</ele><time>2026-04-19T10:56:27Z</time></trkpt><trkpt lat="45.19943512861412" lon="6.976455813874705"><ele>1637.0</ele><time>2026-04-19T10:56:28Z</time></trkpt><trkpt lat="45.19936465063263" lon="6.97672957951632"><ele>1631.0</ele><time>2026-04-19T10:56:29Z</time></trkpt><trkpt lat="45.199295428532" lon="6.977000795813871"><ele>1625.0</ele><time>2026-04-19T10:56:30Z</time></trkpt><trkpt lat="45.199207261964624" lon="6.977252019138675"><ele>1619.0</ele><time>2026-04-19T10:56:31Z</time></trkpt><trkpt lat="45.199119134012" lon="6.977490004878388"><ele>1619.3333333333333</ele><time>2026-04-19T10:56:32Z</time></trkpt><trkpt lat="45.199002934592414" lon="6.9777026577074786"><ele>1619.6666666666665</ele><time>2026-04-19T10:56:33Z</time></trkpt><trkpt lat="45.19885973267038" lon="6.977896621132974"><ele>1620.0</ele><time>2026-04-19T10:56:34Z</time></trkpt><trkpt lat="45.19869626366824" lon="6.978057030408967"><ele>1620.0</ele><time>2026-04-19T10:56:35Z</time></trkpt><trkpt lat="45.19853392395422" lon="6.978199146945253"><ele>1620.0</ele><time>2026-04-19T10:56:36Z</time></trkpt><trkpt lat="45.19841748621674" lon="6.978371805350149"><ele>1620.0</ele><time>2026-04-19T10:56:37Z</time></trkpt><trkpt lat="45.198346161396664" lon="6.978583545784557"><ele>1615.6666666666665</ele><time>2026-04-19T10:56:38Z</time></trkpt><trkpt lat="45.1983193491719" lon="6.978831504489261"><ele>1611.3333333333333</ele><time>2026-04-19T10:56:39Z</time></trkpt><trkpt lat="45.19827428517429" lon="6.97908000919784"><ele>1607.0</ele><time>2026-04-19T10:56:40Z</time></trkpt><trkpt lat="45.19821762827779" lon="6.979320756335208"><ele>1605.3333333333333</ele><time>2026-04-19T10:56:41Z</time></trkpt><trkpt lat="45.198147665839" lon="6.979542711913982"><ele>1603.6666666666665</ele><time>2026-04-19T10:56:42Z</time></trkpt><trkpt lat="45.19805718275319" lon="6.9797240931434725"><ele>1602.0</ele><time>2026-04-19T10:56:43Z</time></trkpt><trkpt lat="45.197941037735134" lon="6.979852560621124"><ele>1602.0</ele><time>2026-04-19T10:56:44Z</time></trkpt><trkpt lat="45.197792725058726" lon="6.97992810704587"><ele>1602.0</ele><time>2026-04-19T10:56:45Z</time></trkpt><trkpt lat="45.197614635467616" lon="6.979982377962835"><ele>1602.0</ele><time>2026-04-19T10:56:46Z</time></trkpt><trkpt lat="45.19744023030563" lon="6.980067996581823"><ele>1607.6666666666665</ele><time>2026-04-19T10:56:47Z</time></trkpt><trkpt lat="45.1972726802691" lon="6.980169897063989"><ele>1613.3333333333333</ele><time>2026-04-19T10:56:48Z</time></trkpt><trkpt lat="45.19713997250315" lon="6.980353377205834"><ele>1619.0</ele><time>2026-04-19T10:56:49Z</time></trkpt><trkpt lat="45.19704678472566" lon="6.980604888077125"><ele>1615.0</ele><time>2026-04-19T10:56:50Z</time></trkpt><trkpt lat="45.19699741339175" lon="6.98089143583424"><ele>1611.0</ele><time>2026-04-19T10:56:51Z</time></trkpt><trkpt lat="45.1969817722817" lon="6.98119928756764"><ele>1607.0</ele><time>2026-04-19T10:56:52Z</time></trkpt><trkpt lat="45.19697994451607" lon="6.98150561169605"><ele>1602.0</ele><time>2026-04-19T10:56:53Z</time></trkpt><trkpt lat="45.1969923645005" lon="6.981819383952439"><ele>1597.0</ele><time>2026-04-19T10:56:54Z</time></trkpt><trkpt lat="45.197013289174706" lon="6.9820561151688345"><ele>1592.0</ele><time>2026-04-19T10:56:55Z</time></trkpt><trkpt lat="45.19707634409429" lon="6.9822973932707955"><ele>1586.6666666666665</ele><time>2026-04-19T10:56:56Z</time></trkpt><trkpt lat="45.19708763775403" lon="6.982526078204915"><ele>1581.3333333333335</ele><time>2026-04-19T10:56:57Z</time></trkpt><trkpt lat="45.19704405520555" lon="6.9827443800989535"><ele>1576.0</ele><time>2026-04-19T10:56:58Z</time></trkpt><trkpt lat="45.196952212130086" lon="6.982963484352802"><ele>1576.0</ele><time>2026-04-19T10:56:59Z</time></trkpt><trkpt lat="45.19684647470089" lon="6.983206803983497"><ele>1576.0</ele><time>2026-04-19T10:57:00Z</time></trkpt><trkpt lat="45.19673839429667" lon="6.9834668741271"><ele>1576.0</ele><time>2026-04-19T10:57:01Z</time></trkpt><trkpt lat="45.19663831464883" lon="6.983686094878849"><ele>1572.0</ele><time>2026-04-19T10:57:02Z</time></trkpt><trkpt lat="45.19653011992122" lon="6.983838154554571"><ele>1568.0</ele><time>2026-04-19T10:57:03Z</time></trkpt><trkpt lat="45.19639794927008" lon="6.983899155519527"><ele>1564.0</ele><time>2026-04-19T10:57:04Z</time></trkpt><trkpt lat="45.19623380169434" lon="6.98393206753017"><ele>1564.0</ele><time>2026-04-19T10:57:05Z</time></trkpt><trkpt lat="45.196052169010905" lon="6.984016593494343"><ele>1564.0</ele><time>2026-04-19T10:57:06Z</time></trkpt><trkpt lat="45.19587723554854" lon="6.984135446705808"><ele>1564.0</ele><time>2026-04-19T10:57:07Z</time></trkpt><trkpt lat="45.19573778133022" lon="6.984353411425725"><ele>1559.3333333333335</ele><time>2026-04-19T10:57:08Z</time></trkpt><trkpt lat="45.19558288301642" lon="6.984545888776036"><ele>1554.6666666666665</ele><time>2026-04-19T10:57:09Z</time></trkpt><trkpt lat="45.19539854029795" lon="6.984682576334764"><ele>1550.0</ele><time>2026-04-19T10:57:10Z</time></trkpt><trkpt lat="45.19519076266555" lon="6.984814369025948"><ele>1550.0</ele><time>2026-04-19T10:57:11Z</time></trkpt><trkpt lat="45.19500317756747" lon="6.984919308827322"><ele>1550.0</ele><time>2026-04-19T10:57:12Z</time></trkpt><trkpt lat="45.194826648876806" lon="6.984964672006547"><ele>1550.0</ele><time>2026-04-19T10:57:13Z</time></trkpt><trkpt lat="45.19465942611515" lon="6.984913923442975"><ele>1549.0</ele><time>2026-04-19T10:57:14Z</time></trkpt><trkpt lat="45.19448752213536" lon="6.984889333902599"><ele>1548.0</ele><time>2026-04-19T10:57:15Z</time></trkpt><trkpt lat="45.19432083383267" lon="6.984871025144081"><ele>1547.0</ele><time>2026-04-19T10:57:16Z</time></trkpt><trkpt lat="45.19415822511637" lon="6.984966738739183"><ele>1543.0</ele><time>2026-04-19T10:57:17Z</time></trkpt><trkpt lat="45.194027892868895" lon="6.985148304278839"><ele>1539.0</ele><time>2026-04-19T10:57:18Z</time></trkpt><trkpt lat="45.19389709339212" lon="6.985295896259032"><ele>1535.0</ele><time>2026-04-19T10:57:19Z</time></trkpt><trkpt lat="45.19376958699977" lon="6.985307762093315"><ele>1533.0</ele><time>2026-04-19T10:57:20Z</time></trkpt><trkpt lat="45.19359056567779" lon="6.985288667201483"><ele>1531.0</ele><time>2026-04-19T10:57:21Z</time></trkpt><trkpt lat="45.19338931145714" lon="6.985262131811847"><ele>1529.0</ele><time>2026-04-19T10:57:22Z</time></trkpt><trkpt lat="45.19319167470132" lon="6.985279930709597"><ele>1527.6666666666667</ele><time>2026-04-19T10:57:23Z</time></trkpt><trkpt lat="45.19302427813614" lon="6.985327269350859"><ele>1526.3333333333333</ele><time>2026-04-19T10:57:24Z</time></trkpt><trkpt lat="45.192868699295545" lon="6.985461554113428"><ele>1525.0</ele><time>2026-04-19T10:57:25Z</time></trkpt><trkpt lat="45.192716806540936" lon="6.98555416685602"><ele>1525.0</ele><time>2026-04-19T10:57:26Z</time></trkpt><trkpt lat="45.19255886772087" lon="6.98555695492653"><ele>1525.0</ele><time>2026-04-19T10:57:27Z</time></trkpt><trkpt lat="45.19237922689988" lon="6.985516912872087"><ele>1525.0</ele><time>2026-04-19T10:57:28Z</time></trkpt><trkpt lat="45.19223391576085" lon="6.985419046377198"><ele>1521.3333333333333</ele><time>2026-04-19T10:57:29Z</time></trkpt><trkpt lat="45.19211981809868" lon="6.985257108495184"><ele>1517.6666666666667</ele><time>2026-04-19T10:57:30Z</time></trkpt><trkpt lat="45.19198358105275" lon="6.985055108100707"><ele>1514.0</ele><time>2026-04-19T10:57:31Z</time></trkpt><trkpt lat="45.19181883452672" lon="6.98489267573373"><ele>1514.0</ele><time>2026-04-19T10:57:32Z</time></trkpt><trkpt lat="45.191672557422464" lon="6.984708687389372"><ele>1514.0</ele><time>2026-04-19T10:57:33Z</time></trkpt><trkpt lat="45.19158195388536" lon="6.984484445242829"><ele>1514.0</ele><time>2026-04-19T10:57:34Z</time></trkpt><trkpt lat="45.19146624320421" lon="6.984277714784889"><ele>1505.0</ele><time>2026-04-19T10:57:35Z</time></trkpt><trkpt lat="45.19132217907804" lon="6.984115819196306"><ele>1496.0</ele><time>2026-04-19T10:57:36Z</time></trkpt><trkpt lat="45.19118927192207" lon="6.983938821887751"><ele>1487.0</ele><time>2026-04-19T10:57:37Z</time></trkpt><trkpt lat="45.191090628902586" lon="6.98374021221987"><ele>1487.0</ele><time>2026-04-19T10:57:38Z</time></trkpt><trkpt lat="45.19102139149228" lon="6.983493462386748"><ele>1487.0</ele><time>2026-04-19T10:57:39Z</time></trkpt><trkpt lat="45.19097744598386" lon="6.983227293367442"><ele>1487.0</ele><time>2026-04-19T10:57:40Z</time></trkpt><trkpt lat="45.19091764310571" lon="6.98296577883246"><ele>1490.6666666666667</ele><time>2026-04-19T10:57:41Z</time></trkpt><trkpt lat="45.190863115698384" lon="6.982718328043826"><ele>1494.3333333333333</ele><time>2026-04-19T10:57:42Z</time></trkpt><trkpt lat="45.190787324126696" lon="6.982489619343403"><ele>1498.0</ele><time>2026-04-19T10:57:43Z</time></trkpt><trkpt lat="45.190700051578254" lon="6.9822434904104185"><ele>1487.6666666666665</ele><time>2026-04-19T10:57:44Z</time></trkpt><trkpt lat="45.1906249832329" lon="6.981955724905272"><ele>1477.3333333333333</ele><time>2026-04-19T10:57:45Z</time></trkpt><trkpt lat="45.190528933468556" lon="6.981654784647454"><ele>1467.0</ele><time>2026-04-19T10:57:46Z</time></trkpt><trkpt lat="45.19042890187421" lon="6.981343575521096"><ele>1467.0</ele><time>2026-04-19T10:57:47Z</time></trkpt><trkpt lat="45.19033447001889" lon="6.981049787332578"><ele>1467.0</ele><time>2026-04-19T10:57:48Z</time></trkpt><trkpt lat="45.19026588295839" lon="6.980776997988747"><ele>1467.0</ele><time>2026-04-19T10:57:49Z</time></trkpt><trkpt lat="45.19025852420187" lon="6.980502715569484"><ele>1470.0</ele><time>2026-04-19T10:57:50Z</time></trkpt><trkpt lat="45.19027434987085" lon="6.980196925484861"><ele>1473.0</ele><time>2026-04-19T10:57:51Z</time></trkpt><trkpt lat="45.19028017838329" lon="6.97988140470282"><ele>1476.0</ele><time>2026-04-19T10:57:52Z</time></trkpt><trkpt lat="45.19026291283941" lon="6.979555999220571"><ele>1477.0</ele><time>2026-04-19T10:57:53Z</time></trkpt><trkpt lat="45.19019294896064" lon="6.979226665641919"><ele>1478.0</ele><time>2026-04-19T10:57:54Z</time></trkpt><trkpt lat="45.19011528797215" lon="6.978924985844063"><ele>1478.0</ele><time>2026-04-19T10:57:55Z</time></trkpt><trkpt lat="45.19003397211621" lon="6.978667286124744"><ele>1478.0</ele><time>2026-04-19T10:57:56Z</time></trkpt><trkpt lat="45.189908530138446" lon="6.978428551941249"><ele>1478.0</ele><time>2026-04-19T10:57:57Z</time></trkpt><trkpt lat="45.18973539352078" lon="6.978204966714497"><ele>1476.5</ele><time>2026-04-19T10:57:58Z</time></trkpt><trkpt lat="45.18954106182139" lon="6.977989060954769"><ele>1475.0</ele><time>2026-04-19T10:57:59Z</time></trkpt><trkpt lat="45.18937532949373" lon="6.9777956083134525"><ele>1475.0</ele><time>2026-04-19T10:58:00Z</time></trkpt><trkpt lat="45.18923875638857" lon="6.977642228764715"><ele>1475.0</ele><time>2026-04-19T10:58:01Z</time></trkpt><trkpt lat="45.18910435017648" lon="6.977544550569728"><ele>1475.0</ele><time>2026-04-19T10:58:02Z</time></trkpt><trkpt lat="45.188978200982206" lon="6.977505321974495"><ele>1475.0</ele><time>2026-04-19T10:58:03Z</time></trkpt><trkpt lat="45.188878298854995" lon="6.977518812041647"><ele>1475.0</ele><time>2026-04-19T10:58:04Z</time></trkpt><trkpt lat="45.188803645106326" lon="6.977599807039621"><ele>1475.0</ele><time>2026-04-19T10:58:05Z</time></trkpt><trkpt lat="45.18876633729928" lon="6.977740675946902"><ele>1475.0</ele><time>2026-04-19T10:58:06Z</time></trkpt><trkpt lat="45.18879305628422" lon="6.97793684877011"><ele>1475.0</ele><time>2026-04-19T10:58:07Z</time></trkpt><trkpt lat="45.18885975377987" lon="6.9781373052288505"><ele>1475.0</ele><time>2026-04-19T10:58:08Z</time></trkpt><trkpt lat="45.18890553508358" lon="6.978306630907801"><ele>1475.0</ele><time>2026-04-19T10:58:09Z</time></trkpt><trkpt lat="45.18889864785768" lon="6.978461378686979"><ele>1475.0</ele><time>2026-04-19T10:58:10Z</time></trkpt><trkpt lat="45.18879289264187" lon="6.978600548115897"><ele>1475.0</ele><time>2026-04-19T10:58:11Z</time></trkpt><trkpt lat="45.18871131454859" lon="6.978778878279127"><ele>1470.0</ele><time>2026-04-19T10:58:12Z</time></trkpt><trkpt lat="45.18862959483527" lon="6.978895739445397"><ele>1465.0</ele><time>2026-04-19T10:58:13Z</time></trkpt><trkpt lat="45.1885314321689" lon="6.978947729032332"><ele>1460.0</ele><time>2026-04-19T10:58:14Z</time></trkpt><trkpt lat="45.18841443599028" lon="6.978830784313833"><ele>1455.0</ele><time>2026-04-19T10:58:15Z</time></trkpt><trkpt lat="45.18826683003761" lon="6.9787754277621845"><ele>1450.0</ele><time>2026-04-19T10:58:16Z</time></trkpt><trkpt lat="45.18811893997804" lon="6.978704736602486"><ele>1445.0</ele><time>2026-04-19T10:58:17Z</time></trkpt><trkpt lat="45.18796934196742" lon="6.978651263385453"><ele>1440.0</ele><time>2026-04-19T10:58:18Z</time></trkpt><trkpt lat="45.18783320531115" lon="6.9785832153691745"><ele>1440.0</ele><time>2026-04-19T10:58:19Z</time></trkpt><trkpt lat="45.18769157415166" lon="6.978480119062393"><ele>1440.0</ele><time>2026-04-19T10:58:20Z</time></trkpt><trkpt lat="45.18759962643" lon="6.978310136049557"><ele>1440.0</ele><time>2026-04-19T10:58:21Z</time></trkpt><trkpt lat="45.18749370468966" lon="6.978177959078424"><ele>1443.0</ele><time>2026-04-19T10:58:22Z</time></trkpt><trkpt lat="45.18742568547382" lon="6.978049532022571"><ele>1446.0</ele><time>2026-04-19T10:58:23Z</time></trkpt><trkpt lat="45.187358985224485" lon="6.977946812124599"><ele>1449.0</ele><time>2026-04-19T10:58:24Z</time></trkpt><trkpt lat="45.18729710921957" lon="6.9778743130183605"><ele>1452.0</ele><time>2026-04-19T10:58:25Z</time></trkpt><trkpt lat="45.1872181566262" lon="6.977833291574248"><ele>1455.0</ele><time>2026-04-19T10:58:26Z</time></trkpt><trkpt lat="45.187132131932266" lon="6.977835868048208"><ele>1455.0</ele><time>2026-04-19T10:58:27Z</time></trkpt><trkpt lat="45.187053005466105" lon="6.977871305731715"><ele>1455.0</ele><time>2026-04-19T10:58:28Z</time></trkpt><trkpt lat="45.18698272333843" lon="6.977927037030774"><ele>1455.0</ele><time>2026-04-19T10:58:29Z</time></trkpt><trkpt lat="45.186919861446874" lon="6.9780108251891475"><ele>1455.0</ele><time>2026-04-19T10:58:30Z</time></trkpt><trkpt lat="45.18687465966767" lon="6.978168563052673"><ele>1455.0</ele><time>2026-04-19T10:58:31Z</time></trkpt><trkpt lat="45.1867976749782" lon="6.978336112300486"><ele>1458.0</ele><time>2026-04-19T10:58:32Z</time></trkpt><trkpt lat="45.18671392278993" lon="6.978555169729167"><ele>1461.0</ele><time>2026-04-19T10:58:33Z</time></trkpt><trkpt lat="45.186619466294786" lon="6.978806117826754"><ele>1464.0</ele><time>2026-04-19T10:58:34Z</time></trkpt><trkpt lat="45.18651113239413" lon="6.979114782971655"><ele>1457.0</ele><time>2026-04-19T10:58:35Z</time></trkpt><trkpt lat="45.186407216749714" lon="6.9794535668041515"><ele>1450.0</ele><time>2026-04-19T10:58:36Z</time></trkpt><trkpt lat="45.18631465220648" lon="6.979760067840809"><ele>1443.3333333333333</ele><time>2026-04-19T10:58:37Z</time></trkpt><trkpt lat="45.186227716535065" lon="6.980020191642122"><ele>1436.6666666666667</ele><time>2026-04-19T10:58:38Z</time></trkpt><trkpt lat="45.1861152831087" lon="6.9802448933991315"><ele>1430.0</ele><time>2026-04-19T10:58:39Z</time></trkpt><trkpt lat="45.18592950616148" lon="6.9804203410877115"><ele>1430.0</ele><time>2026-04-19T10:58:40Z</time></trkpt><trkpt lat="45.1857215682408" lon="6.980610361083465"><ele>1430.0</ele><time>2026-04-19T10:58:41Z</time></trkpt><trkpt lat="45.18552811228081" lon="6.980789564000356"><ele>1433.6666666666667</ele><time>2026-04-19T10:58:42Z</time></trkpt><trkpt lat="45.18539872757639" lon="6.980986687784597"><ele>1437.3333333333333</ele><time>2026-04-19T10:58:43Z</time></trkpt><trkpt lat="45.18530580738559" lon="6.981235742244625"><ele>1441.0</ele><time>2026-04-19T10:58:44Z</time></trkpt><trkpt lat="45.185232912932605" lon="6.981590507140637"><ele>1433.5</ele><time>2026-04-19T10:58:45Z</time></trkpt><trkpt lat="45.185142860664875" lon="6.9819916977258485"><ele>1426.0</ele><time>2026-04-19T10:58:46Z</time></trkpt><trkpt lat="45.18506179357552" lon="6.982401955578111"><ele>1421.0</ele><time>2026-04-19T10:58:47Z</time></trkpt><trkpt lat="45.185020538348496" lon="6.98279398804345"><ele>1416.0</ele><time>2026-04-19T10:58:48Z</time></trkpt><trkpt lat="45.18502585772832" lon="6.983174343571427"><ele>1413.0</ele><time>2026-04-19T10:58:49Z</time></trkpt><trkpt lat="45.18500698371135" lon="6.983512468067302"><ele>1410.0</ele><time>2026-04-19T10:58:50Z</time></trkpt><trkpt lat="45.184982654187436" lon="6.983800700029019"><ele>1407.0</ele><time>2026-04-19T10:58:51Z</time></trkpt><trkpt lat="45.18491806106891" lon="6.984087885410904"><ele>1412.3333333333333</ele><time>2026-04-19T10:58:52Z</time></trkpt><trkpt lat="45.184793618401024" lon="6.9843666632320796"><ele>1417.6666666666665</ele><time>2026-04-19T10:58:53Z</time></trkpt><trkpt lat="45.18469531479833" lon="6.984638229368829"><ele>1423.0</ele><time>2026-04-19T10:58:54Z</time></trkpt><trkpt lat="45.184659901519176" lon="6.984962540199425"><ele>1421.0</ele><time>2026-04-19T10:58:55Z</time></trkpt><trkpt lat="45.18467125858832" lon="6.985282918505991"><ele>1419.0</ele><time>2026-04-19T10:58:56Z</time></trkpt><trkpt lat="45.18463641540927" lon="6.9855684605003265"><ele>1417.0</ele><time>2026-04-19T10:58:57Z</time></trkpt><trkpt lat="45.184552260370864" lon="6.985834934590594"><ele>1407.5</ele><time>2026-04-19T10:58:58Z</time></trkpt><trkpt lat="45.18443044299635" lon="6.98611733451822"><ele>1398.0</ele><time>2026-04-19T10:58:59Z</time></trkpt><trkpt lat="45.18427867611715" lon="6.986435844137503"><ele>1399.0</ele><time>2026-04-19T10:59:00Z</time></trkpt><trkpt lat="45.18412016889903" lon="6.9867850119611115"><ele>1400.0</ele><time>2026-04-19T10:59:01Z</time></trkpt><trkpt lat="45.183971667068015" lon="6.987071149020353"><ele>1400.0</ele><time>2026-04-19T10:59:02Z</time></trkpt><trkpt lat="45.18387315187064" lon="6.987310799944516"><ele>1400.0</ele><time>2026-04-19T10:59:03Z</time></trkpt><trkpt lat="45.18377739707652" lon="6.987492070657664"><ele>1400.0</ele><time>2026-04-19T10:59:04Z</time></trkpt><trkpt lat="45.1836656949375" lon="6.9876229632595575"><ele>1405.0</ele><time>2026-04-19T10:59:05Z</time></trkpt><trkpt lat="45.1835235198419" lon="6.987641209337527"><ele>1410.0</ele><time>2026-04-19T10:59:06Z</time></trkpt><trkpt lat="45.18337611784188" lon="6.987599195501278"><ele>1415.0</ele><time>2026-04-19T10:59:07Z</time></trkpt><trkpt lat="45.183228602430525" lon="6.98759614350982"><ele>1420.0</ele><time>2026-04-19T10:59:08Z</time></trkpt><trkpt lat="45.18312382723418" lon="6.987626048722166"><ele>1420.0</ele><time>2026-04-19T10:59:09Z</time></trkpt><trkpt lat="45.18304104436533" lon="6.987776313467578"><ele>1420.0</ele><time>2026-04-19T10:59:10Z</time></trkpt><trkpt lat="45.18301553517008" lon="6.9880330357397"><ele>1420.0</ele><time>2026-04-19T10:59:11Z</time></trkpt><trkpt lat="45.18304411436718" lon="6.988288982769593"><ele>1417.0</ele><time>2026-04-19T10:59:12Z</time></trkpt><trkpt lat="45.18313132003744" lon="6.988560562681514"><ele>1414.0</ele><time>2026-04-19T10:59:13Z</time></trkpt><trkpt lat="45.18320331659708" lon="6.9887751042207"><ele>1411.0</ele><time>2026-04-19T10:59:14Z</time></trkpt><trkpt lat="45.18320385721313" lon="6.988971640630564"><ele>1411.0</ele><time>2026-04-19T10:59:15Z</time></trkpt><trkpt lat="45.18316102554327" lon="6.989157236647571"><ele>1411.0</ele><time>2026-04-19T10:59:16Z</time></trkpt><trkpt lat="45.18308550334257" lon="6.98936497891715"><ele>1411.0</ele><time>2026-04-19T10:59:17Z</time></trkpt><trkpt lat="45.18298950992375" lon="6.989595025199931"><ele>1399.5</ele><time>2026-04-19T10:59:18Z</time></trkpt><trkpt lat="45.18287754631802" lon="6.989866348477378"><ele>1388.0</ele><time>2026-04-19T10:59:19Z</time></trkpt><trkpt lat="45.182738833395334" lon="6.990152822534891"><ele>1375.5</ele><time>2026-04-19T10:59:20Z</time></trkpt><trkpt lat="45.182602135709466" lon="6.990477030834448"><ele>1363.0</ele><time>2026-04-19T10:59:21Z</time></trkpt><trkpt lat="45.18245177096433" lon="6.990821391977862"><ele>1369.5</ele><time>2026-04-19T10:59:22Z</time></trkpt><trkpt lat="45.18228877090709" lon="6.991172705860225"><ele>1376.0</ele><time>2026-04-19T10:59:23Z</time></trkpt><trkpt lat="45.18211956069855" lon="6.99153707252421"><ele>1365.5</ele><time>2026-04-19T10:59:24Z</time></trkpt><trkpt lat="45.18196112162539" lon="6.991880905782408"><ele>1355.0</ele><time>2026-04-19T10:59:25Z</time></trkpt><trkpt lat="45.18182207481063" lon="6.992206398160102"><ele>1347.0</ele><time>2026-04-19T10:59:26Z</time></trkpt><trkpt lat="45.18170346840165" lon="6.992576353279012"><ele>1339.0</ele><time>2026-04-19T10:59:27Z</time></trkpt><trkpt lat="45.18160162093244" lon="6.992978819070394"><ele>1346.0</ele><time>2026-04-19T10:59:28Z</time></trkpt><trkpt lat="45.18151298227899" lon="6.993376109643512"><ele>1353.0</ele><time>2026-04-19T10:59:29Z</time></trkpt><trkpt lat="45.181435501983586" lon="6.993741665174095"><ele>1353.0</ele><time>2026-04-19T10:59:30Z</time></trkpt><trkpt lat="45.18133708977941" lon="6.994075137174653"><ele>1353.0</ele><time>2026-04-19T10:59:31Z</time></trkpt><trkpt lat="45.181234069138384" lon="6.994394159637583"><ele>1341.5</ele><time>2026-04-19T10:59:32Z</time></trkpt><trkpt lat="45.1810975495736" lon="6.994724063018759"><ele>1330.0</ele><time>2026-04-19T10:59:33Z</time></trkpt><trkpt lat="45.180955001009075" lon="6.995051464754203"><ele>1319.0</ele><time>2026-04-19T10:59:34Z</time></trkpt><trkpt lat="45.18079771656603" lon="6.995352519305137"><ele>1308.0</ele><time>2026-04-19T10:59:35Z</time></trkpt><trkpt lat="45.18066919651745" lon="6.995571435647208"><ele>1308.0</ele><time>2026-04-19T10:59:36Z</time></trkpt><trkpt lat="45.18056739561255" lon="6.995708336010226"><ele>1308.0</ele><time>2026-04-19T10:59:37Z</time></trkpt><trkpt lat="45.1804553969009" lon="6.995774144412786"><ele>1308.0</ele><time>2026-04-19T10:59:38Z</time></trkpt><trkpt lat="45.18028380792079" lon="6.99580651431385"><ele>1308.0</ele><time>2026-04-19T10:59:39Z</time></trkpt><trkpt lat="45.18006360649152" lon="6.995773974531579"><ele>1304.3333333333333</ele><time>2026-04-19T10:59:40Z</time></trkpt><trkpt lat="45.17983450188623" lon="6.995714800596465"><ele>1300.6666666666665</ele><time>2026-04-19T10:59:41Z</time></trkpt><trkpt lat="45.17967067716478" lon="6.995614974574148"><ele>1297.0</ele><time>2026-04-19T10:59:42Z</time></trkpt><trkpt lat="45.17950767244711" lon="6.995449749904614"><ele>1297.0</ele><time>2026-04-19T10:59:43Z</time></trkpt><trkpt lat="45.17932679284778" lon="6.995327378626592"><ele>1297.0</ele><time>2026-04-19T10:59:44Z</time></trkpt><trkpt lat="45.17913356030311" lon="6.995258461315632"><ele>1297.0</ele><time>2026-04-19T10:59:45Z</time></trkpt><trkpt lat="45.17890817372617" lon="6.995285991579233"><ele>1302.0</ele><time>2026-04-19T10:59:46Z</time></trkpt><trkpt lat="45.178699787315644" lon="6.995378757994336"><ele>1307.0</ele><time>2026-04-19T10:59:47Z</time></trkpt><trkpt lat="45.17849825805722" lon="6.995562931558255"><ele>1307.0</ele><time>2026-04-19T10:59:48Z</time></trkpt><trkpt lat="45.17828912068917" lon="6.995812589249147"><ele>1307.0</ele><time>2026-04-19T10:59:49Z</time></trkpt><trkpt lat="45.1780771979075" lon="6.995967610543338"><ele>1295.5</ele><time>2026-04-19T10:59:50Z</time></trkpt><trkpt lat="45.17780049779189" lon="6.996128255546911"><ele>1284.0</ele><time>2026-04-19T10:59:51Z</time></trkpt><trkpt lat="45.17752819224303" lon="6.996251006560713"><ele>1285.5</ele><time>2026-04-19T10:59:52Z</time></trkpt><trkpt lat="45.17723640789634" lon="6.996396849688679"><ele>1287.0</ele><time>2026-04-19T10:59:53Z</time></trkpt><trkpt lat="45.17696724744895" lon="6.9965443973702035"><ele>1281.0</ele><time>2026-04-19T10:59:54Z</time></trkpt><trkpt lat="45.17672005645529" lon="6.996726613392241"><ele>1275.0</ele><time>2026-04-19T10:59:55Z</time></trkpt><trkpt lat="45.17650893504657" lon="6.9968584450424745"><ele>1275.0</ele><time>2026-04-19T10:59:56Z</time></trkpt><trkpt lat="45.176321169112924" lon="6.996954717448852"><ele>1275.0</ele><time>2026-04-19T10:59:57Z</time></trkpt><trkpt lat="45.17617726575741" lon="6.997117233882914"><ele>1275.0</ele><time>2026-04-19T10:59:58Z</time></trkpt><trkpt lat="45.176024060716344" lon="6.997380208738511"><ele>1271.25</ele><time>2026-04-19T10:59:59Z</time></trkpt><trkpt lat="45.175897822994415" lon="6.997603110791448"><ele>1267.5</ele><time>2026-04-19T11:00:00Z</time></trkpt><trkpt lat="45.17580916376623" lon="6.997729266355684"><ele>1263.75</ele><time>2026-04-19T11:00:01Z</time></trkpt><trkpt lat="45.17570167850219" lon="6.9978115568045185"><ele>1260.0</ele><time>2026-04-19T11:00:02Z</time></trkpt><trkpt lat="45.175557493930434" lon="6.99778019394791"><ele>1260.0</ele><time>2026-04-19T11:00:03Z</time></trkpt><trkpt lat="45.175373137113894" lon="6.99778635690228"><ele>1260.0</ele><time>2026-04-19T11:00:04Z</time></trkpt><trkpt lat="45.17517366860147" lon="6.99783112404932"><ele>1260.0</ele><time>2026-04-19T11:00:05Z</time></trkpt><trkpt lat="45.17499765756249" lon="6.998049314726876"><ele>1258.0</ele><time>2026-04-19T11:00:06Z</time></trkpt><trkpt lat="45.174814757861164" lon="6.998333188963377"><ele>1256.0</ele><time>2026-04-19T11:00:07Z</time></trkpt><trkpt lat="45.174606528397916" lon="6.998594271935358"><ele>1256.0</ele><time>2026-04-19T11:00:08Z</time></trkpt><trkpt lat="45.17438799926495" lon="6.998835670547018"><ele>1256.0</ele><time>2026-04-19T11:00:09Z</time></trkpt><trkpt lat="45.17419684515812" lon="6.999092577534175"><ele>1253.3333333333335</ele><time>2026-04-19T11:00:10Z</time></trkpt><trkpt lat="45.17405636331222" lon="6.999337916795624"><ele>1250.6666666666667</ele><time>2026-04-19T11:00:11Z</time></trkpt><trkpt lat="45.173964057801186" lon="6.999589506127183"><ele>1248.0</ele><time>2026-04-19T11:00:12Z</time></trkpt><trkpt lat="45.17382176662938" lon="6.999749568873298"><ele>1248.0</ele><time>2026-04-19T11:00:13Z</time></trkpt><trkpt lat="45.173648466970015" lon="6.99990359755096"><ele>1248.0</ele><time>2026-04-19T11:00:14Z</time></trkpt><trkpt lat="45.17339758612297" lon="7.000072953353967"><ele>1251.0</ele><time>2026-04-19T11:00:15Z</time></trkpt><trkpt lat="45.17310493895175" lon="7.000226496261785"><ele>1254.0</ele><time>2026-04-19T11:00:16Z</time></trkpt><trkpt lat="45.17279867494766" lon="7.000372437795439"><ele>1254.0</ele><time>2026-04-19T11:00:17Z</time></trkpt><trkpt lat="45.17247199936862" lon="7.0005281060061355"><ele>1254.0</ele><time>2026-04-19T11:00:18Z</time></trkpt><trkpt lat="45.172171490240096" lon="7.000668964994668"><ele>1257.3333333333333</ele><time>2026-04-19T11:00:19Z</time></trkpt><trkpt lat="45.1719241451953" lon="7.000784366304505"><ele>1260.6666666666665</ele><time>2026-04-19T11:00:20Z</time></trkpt><trkpt lat="45.17174277009969" lon="7.000856314546991"><ele>1264.0</ele><time>2026-04-19T11:00:21Z</time></trkpt><trkpt lat="45.17162371634617" lon="7.000926459448015"><ele>1259.0</ele><time>2026-04-19T11:00:22Z</time></trkpt><trkpt lat="45.17156013545132" lon="7.000963956602087"><ele>1254.0</ele><time>2026-04-19T11:00:23Z</time></trkpt><trkpt lat="45.171546423535524" lon="7.001061560108789"><ele>1249.0</ele><time>2026-04-19T11:00:24Z</time></trkpt><trkpt lat="45.17156597397625" lon="7.001219175035335"><ele>1244.0</ele><time>2026-04-19T11:00:25Z</time></trkpt><trkpt lat="45.17167211283127" lon="7.001260709558824"><ele>1239.0</ele><time>2026-04-19T11:00:26Z</time></trkpt><trkpt lat="45.171832945575844" lon="7.00120741998202"><ele>1239.0</ele><time>2026-04-19T11:00:27Z</time></trkpt><trkpt lat="45.172002534322615" lon="7.001124302940293"><ele>1239.0</ele><time>2026-04-19T11:00:28Z</time></trkpt><trkpt lat="45.172197709037384" lon="7.0010986456276845"><ele>1239.0</ele><time>2026-04-19T11:00:29Z</time></trkpt><trkpt lat="45.17241835827729" lon="7.0011047238118005"><ele>1234.0</ele><time>2026-04-19T11:00:30Z</time></trkpt><trkpt lat="45.17267925784196" lon="7.0011914823608015"><ele>1229.0</ele><time>2026-04-19T11:00:31Z</time></trkpt><trkpt lat="45.17292550333429" lon="7.001328097215926"><ele>1229.0</ele><time>2026-04-19T11:00:32Z</time></trkpt><trkpt lat="45.17314891300359" lon="7.001425966643638"><ele>1229.0</ele><time>2026-04-19T11:00:33Z</time></trkpt><trkpt lat="45.173365291647315" lon="7.001477181451502"><ele>1226.5</ele><time>2026-04-19T11:00:34Z</time></trkpt><trkpt lat="45.17354990494737" lon="7.001416165046369"><ele>1224.0</ele><time>2026-04-19T11:00:35Z</time></trkpt><trkpt lat="45.173809028711084" lon="7.0012643076782135"><ele>1215.0</ele><time>2026-04-19T11:00:36Z</time></trkpt><trkpt lat="45.17405339795302" lon="7.001129422557516"><ele>1206.0</ele><time>2026-04-19T11:00:37Z</time></trkpt><trkpt lat="45.17426049379633" lon="7.0009141122603165"><ele>1219.0</ele><time>2026-04-19T11:00:38Z</time></trkpt><trkpt lat="45.17444778081564" lon="7.000627031146185"><ele>1232.0</ele><time>2026-04-19T11:00:39Z</time></trkpt><trkpt lat="45.174635297783624" lon="7.000387671547713"><ele>1232.0</ele><time>2026-04-19T11:00:40Z</time></trkpt><trkpt lat="45.174790831069274" lon="7.00027417399157"><ele>1232.0</ele><time>2026-04-19T11:00:41Z</time></trkpt><trkpt lat="45.17496881879353" lon="7.0001760605277585"><ele>1232.0</ele><time>2026-04-19T11:00:42Z</time></trkpt><trkpt lat="45.17503054483435" lon="7.000141922909066"><ele>1232.0</ele><time>2026-04-19T11:00:43Z</time></trkpt><trkpt lat="45.17515954652778" lon="7.000070510059495"><ele>1225.0</ele><time>2026-04-19T11:00:44Z</time></trkpt><trkpt lat="45.175103655454016" lon="7.000387066040651"><ele>1218.0</ele><time>2026-04-19T11:00:45Z</time></trkpt><trkpt lat="45.17505834667549" lon="7.000538198041795"><ele>1211.0</ele><time>2026-04-19T11:00:46Z</time></trkpt><trkpt lat="45.17492019897574" lon="7.000568662924999"><ele>1209.3333333333335</ele><time>2026-04-19T11:00:47Z</time></trkpt><trkpt lat="45.17478313986944" lon="7.0006845390493435"><ele>1207.6666666666667</ele><time>2026-04-19T11:00:48Z</time></trkpt><trkpt lat="45.17459992624886" lon="7.0008520311375495"><ele>1206.0</ele><time>2026-04-19T11:00:49Z</time></trkpt><trkpt lat="45.17444854720574" lon="7.001089801424972"><ele>1206.0</ele><time>2026-04-19T11:00:50Z</time></trkpt><trkpt lat="45.174336149543265" lon="7.001371122475322"><ele>1206.0</ele><time>2026-04-19T11:00:51Z</time></trkpt><trkpt lat="45.17424289362903" lon="7.001732252856718"><ele>1206.5</ele><time>2026-04-19T11:00:52Z</time></trkpt><trkpt lat="45.17410893547057" lon="7.002018641770113"><ele>1207.0</ele><time>2026-04-19T11:00:53Z</time></trkpt><trkpt lat="45.17393022681564" lon="7.002306424508385"><ele>1197.0</ele><time>2026-04-19T11:00:54Z</time></trkpt><trkpt lat="45.17373379773257" lon="7.002614449011121"><ele>1187.0</ele><time>2026-04-19T11:00:55Z</time></trkpt><trkpt lat="45.1735682708404" lon="7.002879869396852"><ele>1187.0</ele><time>2026-04-19T11:00:56Z</time></trkpt><trkpt lat="45.173411482243964" lon="7.003114499687747"><ele>1187.0</ele><time>2026-04-19T11:00:57Z</time></trkpt><trkpt lat="45.17328088802301" lon="7.00326601939006"><ele>1187.0</ele><time>2026-04-19T11:00:58Z</time></trkpt><trkpt lat="45.17314487571006" lon="7.003324030595456"><ele>1184.6666666666667</ele><time>2026-04-19T11:00:59Z</time></trkpt><trkpt lat="45.17299738430106" lon="7.003339881921385"><ele>1182.3333333333333</ele><time>2026-04-19T11:01:00Z</time></trkpt><trkpt lat="45.17280434498004" lon="7.003269725620834"><ele>1180.0</ele><time>2026-04-19T11:01:01Z</time></trkpt><trkpt lat="45.17255158686879" lon="7.003149867503362"><ele>1175.0</ele><time>2026-04-19T11:01:02Z</time></trkpt><trkpt lat="45.17230564847138" lon="7.0030406648194345"><ele>1170.0</ele><time>2026-04-19T11:01:03Z</time></trkpt><trkpt lat="45.17196436879769" lon="7.002891536296023"><ele>1170.0</ele><time>2026-04-19T11:01:04Z</time></trkpt><trkpt lat="45.17163668121079" lon="7.0027195287688375"><ele>1170.0</ele><time>2026-04-19T11:01:05Z</time></trkpt><trkpt lat="45.171322701719305" lon="7.002577002220979"><ele>1182.5</ele><time>2026-04-19T11:01:06Z</time></trkpt><trkpt lat="45.171047089906615" lon="7.002451892148545"><ele>1195.0</ele><time>2026-04-19T11:01:07Z</time></trkpt><trkpt lat="45.17084217512494" lon="7.002356680571668"><ele>1195.0</ele><time>2026-04-19T11:01:08Z</time></trkpt><trkpt lat="45.17069501499555" lon="7.002256000466585"><ele>1195.0</ele><time>2026-04-19T11:01:09Z</time></trkpt><trkpt lat="45.17057492276347" lon="7.002079074698882"><ele>1195.0</ele><time>2026-04-19T11:01:10Z</time></trkpt><trkpt lat="45.170440009275026" lon="7.0018525146922626"><ele>1211.0</ele><time>2026-04-19T11:01:11Z</time></trkpt><trkpt lat="45.17022301969721" lon="7.001615763798965"><ele>1227.0</ele><time>2026-04-19T11:01:12Z</time></trkpt><trkpt lat="45.17001588185968" lon="7.001445910659958"><ele>1196.5</ele><time>2026-04-19T11:01:13Z</time></trkpt><trkpt lat="45.169702262509105" lon="7.001306152268472"><ele>1166.0</ele><time>2026-04-19T11:01:14Z</time></trkpt><trkpt lat="45.16931369024427" lon="7.001173774800569"><ele>1146.0</ele><time>2026-04-19T11:01:15Z</time></trkpt><trkpt lat="45.16888882346161" lon="7.001017481150447"><ele>1126.0</ele><time>2026-04-19T11:01:16Z</time></trkpt><trkpt lat="45.1685314969649" lon="7.000866772816901"><ele>1136.5</ele><time>2026-04-19T11:01:17Z</time></trkpt><trkpt lat="45.168209654181304" lon="7.000746006294894"><ele>1147.0</ele><time>2026-04-19T11:01:18Z</time></trkpt><trkpt lat="45.1679081723141" lon="7.000610160533785"><ele>1147.0</ele><time>2026-04-19T11:01:19Z</time></trkpt><trkpt lat="45.16762510110886" lon="7.000487432169622"><ele>1147.0</ele><time>2026-04-19T11:01:20Z</time></trkpt><trkpt lat="45.167397755584304" lon="7.000409491240418"><ele>1124.0</ele><time>2026-04-19T11:01:21Z</time></trkpt><trkpt lat="45.167147731438845" lon="7.000271932675617"><ele>1101.0</ele><time>2026-04-19T11:01:22Z</time></trkpt><trkpt lat="45.166960995328274" lon="7.000078410744773"><ele>1101.0</ele><time>2026-04-19T11:01:23Z</time></trkpt><trkpt lat="45.16675134820939" lon="6.999874460782919"><ele>1101.0</ele><time>2026-04-19T11:01:24Z</time></trkpt><trkpt lat="45.166532219113144" lon="6.9996612849155175"><ele>1090.5</ele><time>2026-04-19T11:01:25Z</time></trkpt><trkpt lat="45.16628427287582" lon="6.999435110667637"><ele>1080.0</ele><time>2026-04-19T11:01:26Z</time></trkpt><trkpt lat="45.16608414538534" lon="6.99924187487314"><ele>1080.0</ele><time>2026-04-19T11:01:27Z</time></trkpt><trkpt lat="45.16591783069256" lon="6.999163265266203"><ele>1080.0</ele><time>2026-04-19T11:01:28Z</time></trkpt><trkpt lat="45.16578109651649" lon="6.999224752498935"><ele>1080.0</ele><time>2026-04-19T11:01:29Z</time></trkpt><trkpt lat="45.16559930160494" lon="6.999344992774225"><ele>1080.6666666666667</ele><time>2026-04-19T11:01:30Z</time></trkpt><trkpt lat="45.1654456749496" lon="6.999463755288222"><ele>1081.3333333333335</ele><time>2026-04-19T11:01:31Z</time></trkpt><trkpt lat="45.16529751127741" lon="6.999443756026142"><ele>1082.0</ele><time>2026-04-19T11:01:32Z</time></trkpt><trkpt lat="45.16513622731497" lon="6.99941095699143"><ele>1082.0</ele><time>2026-04-19T11:01:33Z</time></trkpt><trkpt lat="45.16489591675673" lon="6.999352325397372"><ele>1082.0</ele><time>2026-04-19T11:01:34Z</time></trkpt><trkpt lat="45.16462757857633" lon="6.999379015582189"><ele>1079.0</ele><time>2026-04-19T11:01:35Z</time></trkpt><trkpt lat="45.1644902492599" lon="6.999308021433439"><ele>1076.0</ele><time>2026-04-19T11:01:36Z</time></trkpt><trkpt lat="45.16435505890282" lon="6.999197325104426"><ele>1073.0</ele><time>2026-04-19T11:01:37Z</time></trkpt><trkpt lat="45.16410314877255" lon="6.998996739571232"><ele>1077.5</ele><time>2026-04-19T11:01:38Z</time></trkpt><trkpt lat="45.163824071661516" lon="6.998785140700689"><ele>1082.0</ele><time>2026-04-19T11:01:39Z</time></trkpt><trkpt lat="45.16354299207622" lon="6.998567523346698"><ele>1082.0</ele><time>2026-04-19T11:01:40Z</time></trkpt><trkpt lat="45.16331659203864" lon="6.99839176328741"><ele>1082.0</ele><time>2026-04-19T11:01:41Z</time></trkpt><trkpt lat="45.16309068848357" lon="6.998251144740655"><ele>1084.0</ele><time>2026-04-19T11:01:42Z</time></trkpt><trkpt lat="45.1628743057433" lon="6.998184480744025"><ele>1086.0</ele><time>2026-04-19T11:01:43Z</time></trkpt><trkpt lat="45.1626786179657" lon="6.998106302144936"><ele>1088.0</ele><time>2026-04-19T11:01:44Z</time></trkpt><trkpt lat="45.1624962857188" lon="6.998036582941015"><ele>1084.3333333333335</ele><time>2026-04-19T11:01:45Z</time></trkpt><trkpt lat="45.162334720911765" lon="6.997970516042881"><ele>1080.6666666666667</ele><time>2026-04-19T11:01:46Z</time></trkpt><trkpt lat="45.162179294276925" lon="6.99783943706722"><ele>1077.0</ele><time>2026-04-19T11:01:47Z</time></trkpt><trkpt lat="45.16205146556016" lon="6.997735664501862"><ele>1077.0</ele><time>2026-04-19T11:01:48Z</time></trkpt><trkpt lat="45.16194580097482" lon="6.997642555053423"><ele>1077.0</ele><time>2026-04-19T11:01:49Z</time></trkpt><trkpt lat="45.16185040972564" lon="6.9975784844516635"><ele>1077.0</ele><time>2026-04-19T11:01:50Z</time></trkpt><trkpt lat="45.1617255942174" lon="6.997517540402779"><ele>1077.0</ele><time>2026-04-19T11:01:52Z</time></trkpt><trkpt lat="45.16165975561337" lon="6.997486680535533"><ele>1077.0</ele><time>2026-04-19T11:01:54Z</time></trkpt><trkpt lat="45.16153729602452" lon="6.997470726419066"><ele>1079.5</ele><time>2026-04-19T11:02:10Z</time></trkpt><trkpt lat="45.16140939075511" lon="6.997469895686338"><ele>1082.0</ele><time>2026-04-19T11:02:11Z</time></trkpt><trkpt lat="45.1612681329572" lon="6.997470003692272"><ele>1084.5</ele><time>2026-04-19T11:02:12Z</time></trkpt><trkpt lat="45.16113359916277" lon="6.997453785180859"><ele>1087.0</ele><time>2026-04-19T11:02:13Z</time></trkpt><trkpt lat="45.16099903601358" lon="6.997394458847872"><ele>1087.0</ele><time>2026-04-19T11:02:14Z</time></trkpt><trkpt lat="45.16086578388852" lon="6.997275566172585"><ele>1087.0</ele><time>2026-04-19T11:02:15Z</time></trkpt><trkpt lat="45.16072316955739" lon="6.997121060953664"><ele>1087.0</ele><time>2026-04-19T11:02:16Z</time></trkpt><trkpt lat="45.16056113420046" lon="6.996939590068347"><ele>1081.0</ele><time>2026-04-19T11:02:17Z</time></trkpt><trkpt lat="45.16040782105196" lon="6.996787391273072"><ele>1075.0</ele><time>2026-04-19T11:02:18Z</time></trkpt><trkpt lat="45.16024339542341" lon="6.996732135463748"><ele>1069.0</ele><time>2026-04-19T11:02:19Z</time></trkpt><trkpt lat="45.1600680593073" lon="6.996751614833974"><ele>1069.0</ele><time>2026-04-19T11:02:20Z</time></trkpt><trkpt lat="45.15990870200677" lon="6.996886324701461"><ele>1069.0</ele><time>2026-04-19T11:02:21Z</time></trkpt><trkpt lat="45.159748758190986" lon="6.996947069665829"><ele>1069.0</ele><time>2026-04-19T11:02:22Z</time></trkpt><trkpt lat="45.15955421291721" lon="6.996953419697967"><ele>1061.6666666666665</ele><time>2026-04-19T11:02:23Z</time></trkpt><trkpt lat="45.159396865709276" lon="6.996884515991885"><ele>1054.3333333333333</ele><time>2026-04-19T11:02:24Z</time></trkpt><trkpt lat="45.15929217583701" lon="6.9967748952550055"><ele>1047.0</ele><time>2026-04-19T11:02:25Z</time></trkpt><trkpt lat="45.15919979496422" lon="6.9965894861093005"><ele>1054.3333333333333</ele><time>2026-04-19T11:02:26Z</time></trkpt><trkpt lat="45.15905720124622" lon="6.996426812149803"><ele>1061.6666666666665</ele><time>2026-04-19T11:02:27Z</time></trkpt><trkpt lat="45.15890192220104" lon="6.996345124713431"><ele>1069.0</ele><time>2026-04-19T11:02:28Z</time></trkpt><trkpt lat="45.158713940482684" lon="6.996363144470054"><ele>1069.0</ele><time>2026-04-19T11:02:29Z</time></trkpt><trkpt lat="45.158528672858665" lon="6.996325727024527"><ele>1069.0</ele><time>2026-04-19T11:02:30Z</time></trkpt><trkpt lat="45.15831220776581" lon="6.996202323891167"><ele>1069.0</ele><time>2026-04-19T11:02:31Z</time></trkpt><trkpt lat="45.15805409596946" lon="6.996055475408469"><ele>1078.5</ele><time>2026-04-19T11:02:32Z</time></trkpt><trkpt lat="45.15779772900586" lon="6.995909426319766"><ele>1088.0</ele><time>2026-04-19T11:02:33Z</time></trkpt><trkpt lat="45.15756495615467" lon="6.99582342694424"><ele>1075.6666666666667</ele><time>2026-04-19T11:02:34Z</time></trkpt><trkpt lat="45.15735405308461" lon="6.99580140607174"><ele>1063.3333333333333</ele><time>2026-04-19T11:02:35Z</time></trkpt><trkpt lat="45.15717358907666" lon="6.995779478699062"><ele>1051.0</ele><time>2026-04-19T11:02:36Z</time></trkpt><trkpt lat="45.157058170361246" lon="6.995666990121867"><ele>1051.0</ele><time>2026-04-19T11:02:37Z</time></trkpt><trkpt lat="45.1569021609219" lon="6.995485600565987"><ele>1051.0</ele><time>2026-04-19T11:02:38Z</time></trkpt><trkpt lat="45.156695794216" lon="6.99524327166521"><ele>1050.0</ele><time>2026-04-19T11:02:39Z</time></trkpt><trkpt lat="45.1565059250263" lon="6.9950216932988765"><ele>1049.0</ele><time>2026-04-19T11:02:40Z</time></trkpt><trkpt lat="45.15634796773044" lon="6.994831106566993"><ele>1049.0</ele><time>2026-04-19T11:02:41Z</time></trkpt><trkpt lat="45.15621969455966" lon="6.994633101267092"><ele>1049.0</ele><time>2026-04-19T11:02:42Z</time></trkpt><trkpt lat="45.156106554002335" lon="6.994419747658685"><ele>1049.0</ele><time>2026-04-19T11:02:43Z</time></trkpt><trkpt lat="45.15598324313826" lon="6.994268311731538"><ele>1051.6666666666667</ele><time>2026-04-19T11:02:44Z</time></trkpt><trkpt lat="45.155833018773706" lon="6.994133238478371"><ele>1054.3333333333333</ele><time>2026-04-19T11:02:45Z</time></trkpt><trkpt lat="45.15568378668414" lon="6.994050740298427"><ele>1057.0</ele><time>2026-04-19T11:02:46Z</time></trkpt><trkpt lat="45.15539090020238" lon="6.994038371948889"><ele>1057.0</ele><time>2026-04-19T11:02:47Z</time></trkpt><trkpt lat="45.15521682264429" lon="6.99388865170945"><ele>1057.0</ele><time>2026-04-19T11:02:48Z</time></trkpt><trkpt lat="45.1550516053367" lon="6.9936650668226985"><ele>1057.0</ele><time>2026-04-19T11:02:49Z</time></trkpt><trkpt lat="45.154876234824265" lon="6.993441449719401"><ele>1066.0</ele><time>2026-04-19T11:02:50Z</time></trkpt><trkpt lat="45.154701130874535" lon="6.9932674092177525"><ele>1075.0</ele><time>2026-04-19T11:02:51Z</time></trkpt><trkpt lat="45.15452643634892" lon="6.993240896071035"><ele>1084.0</ele><time>2026-04-19T11:02:52Z</time></trkpt><trkpt lat="45.15435918221726" lon="6.993277097706549"><ele>1091.3333333333333</ele><time>2026-04-19T11:02:53Z</time></trkpt><trkpt lat="45.15421129668416" lon="6.993390699388342"><ele>1098.6666666666667</ele><time>2026-04-19T11:02:54Z</time></trkpt><trkpt lat="45.15406678158273" lon="6.993606399954725"><ele>1106.0</ele><time>2026-04-19T11:02:55Z</time></trkpt><trkpt lat="45.153969424737156" lon="6.993889552888032"><ele>1095.0</ele><time>2026-04-19T11:02:56Z</time></trkpt><trkpt lat="45.1538127017006" lon="6.9942139796753064"><ele>1084.0</ele><time>2026-04-19T11:02:57Z</time></trkpt><trkpt lat="45.15367004261442" lon="6.994504160688284"><ele>1084.0</ele><time>2026-04-19T11:02:58Z</time></trkpt><trkpt lat="45.15360953913566" lon="6.994749293226111"><ele>1084.0</ele><time>2026-04-19T11:02:59Z</time></trkpt><trkpt lat="45.153606908354334" lon="6.995101533412565"><ele>1084.0</ele><time>2026-04-19T11:03:00Z</time></trkpt><trkpt lat="45.153524716354944" lon="6.995383007096586"><ele>1074.5</ele><time>2026-04-19T11:03:01Z</time></trkpt><trkpt lat="45.15340588229654" lon="6.995667852039473"><ele>1065.0</ele><time>2026-04-19T11:03:02Z</time></trkpt><trkpt lat="45.15322442228263" lon="6.996001473110665"><ele>1070.0</ele><time>2026-04-19T11:03:03Z</time></trkpt><trkpt lat="45.15297475447829" lon="6.9963373144822585"><ele>1075.0</ele><time>2026-04-19T11:03:04Z</time></trkpt><trkpt lat="45.152765096853486" lon="6.996726550288701"><ele>1081.5</ele><time>2026-04-19T11:03:05Z</time></trkpt><trkpt lat="45.15255727260338" lon="6.997049792377156"><ele>1088.0</ele><time>2026-04-19T11:03:06Z</time></trkpt><trkpt lat="45.15233879654366" lon="6.997351688199721"><ele>1073.0</ele><time>2026-04-19T11:03:07Z</time></trkpt><trkpt lat="45.15217261533583" lon="6.997656466156904"><ele>1058.0</ele><time>2026-04-19T11:03:08Z</time></trkpt><trkpt lat="45.15212108187576" lon="6.997902499984305"><ele>1058.0</ele><time>2026-04-19T11:03:09Z</time></trkpt><trkpt lat="45.15207398924516" lon="6.998197465694796"><ele>1058.0</ele><time>2026-04-19T11:03:10Z</time></trkpt><trkpt lat="45.151949596358286" lon="6.9983963898545865"><ele>1058.0</ele><time>2026-04-19T11:03:11Z</time></trkpt><trkpt lat="45.151808288360904" lon="6.998512404866172"><ele>1049.0</ele><time>2026-04-19T11:03:12Z</time></trkpt><trkpt lat="45.15162229680949" lon="6.998679835030366"><ele>1040.0</ele><time>2026-04-19T11:03:13Z</time></trkpt><trkpt lat="45.15132923211199" lon="6.998942201025349"><ele>1040.0</ele><time>2026-04-19T11:03:14Z</time></trkpt><trkpt lat="45.15109317940604" lon="6.999143196059019"><ele>1040.0</ele><time>2026-04-19T11:03:15Z</time></trkpt><trkpt lat="45.150892218524255" lon="6.999255945555614"><ele>1032.3333333333335</ele><time>2026-04-19T11:03:16Z</time></trkpt><trkpt lat="45.150720505554304" lon="6.9992889809747725"><ele>1024.6666666666667</ele><time>2026-04-19T11:03:17Z</time></trkpt><trkpt lat="45.150497968082036" lon="6.999340822431846"><ele>1017.0</ele><time>2026-04-19T11:03:18Z</time></trkpt><trkpt lat="45.15024755795175" lon="6.999477206649474"><ele>1017.0</ele><time>2026-04-19T11:03:19Z</time></trkpt><trkpt lat="45.149981952457914" lon="6.9996637703470315"><ele>1017.0</ele><time>2026-04-19T11:03:20Z</time></trkpt><trkpt lat="45.149760848459614" lon="6.999896777094346"><ele>1019.6666666666667</ele><time>2026-04-19T11:03:21Z</time></trkpt><trkpt lat="45.14957777200414" lon="7.000011782153364"><ele>1022.3333333333334</ele><time>2026-04-19T11:03:22Z</time></trkpt><trkpt lat="45.14937994541772" lon="7.000054196722822"><ele>1025.0</ele><time>2026-04-19T11:03:23Z</time></trkpt><trkpt lat="45.149177135275096" lon="7.00010930787981"><ele>1029.3333333333335</ele><time>2026-04-19T11:03:24Z</time></trkpt><trkpt lat="45.148982521802864" lon="7.000178832093234"><ele>1033.6666666666667</ele><time>2026-04-19T11:03:25Z</time></trkpt><trkpt lat="45.14879434141167" lon="7.000342605713159"><ele>1038.0</ele><time>2026-04-19T11:03:26Z</time></trkpt><trkpt lat="45.14862937902723" lon="7.000700806708867"><ele>1038.0</ele><time>2026-04-19T11:03:27Z</time></trkpt><trkpt lat="45.14843460132233" lon="7.000821131370852"><ele>1038.0</ele><time>2026-04-19T11:03:28Z</time></trkpt><trkpt lat="45.14828539010125" lon="7.000851673404983"><ele>1038.0</ele><time>2026-04-19T11:03:29Z</time></trkpt><trkpt lat="45.14802117989107" lon="7.000892408867785"><ele>1029.5</ele><time>2026-04-19T11:03:30Z</time></trkpt><trkpt lat="45.14776735246809" lon="7.000986223273453"><ele>1021.0</ele><time>2026-04-19T11:03:31Z</time></trkpt><trkpt lat="45.14747427025553" lon="7.0011653890016134"><ele>1027.5</ele><time>2026-04-19T11:03:32Z</time></trkpt><trkpt lat="45.14717803130903" lon="7.001423340803888"><ele>1034.0</ele><time>2026-04-19T11:03:33Z</time></trkpt><trkpt lat="45.14682598535073" lon="7.001718174831752"><ele>1025.0</ele><time>2026-04-19T11:03:34Z</time></trkpt><trkpt lat="45.146504219099825" lon="7.001969030524086"><ele>1016.0</ele><time>2026-04-19T11:03:35Z</time></trkpt><trkpt lat="45.14622531261467" lon="7.002202798920106"><ele>1016.0</ele><time>2026-04-19T11:03:36Z</time></trkpt><trkpt lat="45.146040568913165" lon="7.002429627461139"><ele>1016.0</ele><time>2026-04-19T11:03:37Z</time></trkpt><trkpt lat="45.1458822023092" lon="7.002589483855597"><ele>1016.0</ele><time>2026-04-19T11:03:38Z</time></trkpt><trkpt lat="45.14565830129084" lon="7.002682617396656"><ele>1002.0</ele><time>2026-04-19T11:03:39Z</time></trkpt><trkpt lat="45.14536617180385" lon="7.0027652825081725"><ele>988.0</ele><time>2026-04-19T11:03:40Z</time></trkpt><trkpt lat="45.14511365511097" lon="7.002942407358454"><ele>988.0</ele><time>2026-04-19T11:03:41Z</time></trkpt><trkpt lat="45.14487956891189" lon="7.0032299259663935"><ele>988.0</ele><time>2026-04-19T11:03:42Z</time></trkpt><trkpt lat="45.14466230719978" lon="7.003454628036765"><ele>977.5</ele><time>2026-04-19T11:03:43Z</time></trkpt><trkpt lat="45.14443908034453" lon="7.003617304473052"><ele>967.0</ele><time>2026-04-19T11:03:44Z</time></trkpt><trkpt lat="45.144215063982905" lon="7.0037138708170605"><ele>963.3333333333333</ele><time>2026-04-19T11:03:45Z</time></trkpt><trkpt lat="45.144014606597224" lon="7.003721080523557"><ele>959.6666666666667</ele><time>2026-04-19T11:03:46Z</time></trkpt><trkpt lat="45.14381087580569" lon="7.003657280311355"><ele>956.0</ele><time>2026-04-19T11:03:47Z</time></trkpt><trkpt lat="45.14357386989544" lon="7.003525758805072"><ele>956.0</ele><time>2026-04-19T11:03:48Z</time></trkpt><trkpt lat="45.14327224924034" lon="7.003333981026276"><ele>956.0</ele><time>2026-04-19T11:03:49Z</time></trkpt><trkpt lat="45.142972521486286" lon="7.003185851408919"><ele>959.0</ele><time>2026-04-19T11:03:50Z</time></trkpt><trkpt lat="45.142688850968604" lon="7.003103597569646"><ele>962.0</ele><time>2026-04-19T11:03:51Z</time></trkpt><trkpt lat="45.14243657358616" lon="7.003118567952123"><ele>954.0</ele><time>2026-04-19T11:03:52Z</time></trkpt><trkpt lat="45.14227854071293" lon="7.00301439693118"><ele>946.0</ele><time>2026-04-19T11:03:53Z</time></trkpt><trkpt lat="45.14207226216575" lon="7.002831171684233"><ele>938.0</ele><time>2026-04-19T11:03:54Z</time></trkpt><trkpt lat="45.14185098137938" lon="7.002626082522188"><ele>938.0</ele><time>2026-04-19T11:03:55Z</time></trkpt><trkpt lat="45.1416899616137" lon="7.002498894656719"><ele>938.0</ele><time>2026-04-19T11:03:56Z</time></trkpt><trkpt lat="45.14161539405822" lon="7.002433507218061"><ele>938.0</ele><time>2026-04-19T11:03:57Z</time></trkpt><trkpt lat="45.141496129681116" lon="7.002467768656487"><ele>938.0</ele><time>2026-04-19T11:03:59Z</time></trkpt><trkpt lat="45.14149452289851" lon="7.0026559818375045"><ele>938.0</ele><time>2026-04-19T11:04:00Z</time></trkpt><trkpt lat="45.141579937016594" lon="7.002801441970443"><ele>938.0</ele><time>2026-04-19T11:04:01Z</time></trkpt><trkpt lat="45.14173368996285" lon="7.002950365914625"><ele>938.0</ele><time>2026-04-19T11:04:02Z</time></trkpt><trkpt lat="45.14190682158498" lon="7.003144796302357"><ele>930.5</ele><time>2026-04-19T11:04:03Z</time></trkpt><trkpt lat="45.14209469554588" lon="7.0033898665828715"><ele>923.0</ele><time>2026-04-19T11:04:04Z</time></trkpt><trkpt lat="45.14229896184572" lon="7.0036593284700865"><ele>921.6666666666667</ele><time>2026-04-19T11:04:05Z</time></trkpt><trkpt lat="45.14247232194713" lon="7.003895030760091"><ele>920.3333333333333</ele><time>2026-04-19T11:04:06Z</time></trkpt><trkpt lat="45.14257587583291" lon="7.004145351747528"><ele>919.0</ele><time>2026-04-19T11:04:07Z</time></trkpt><trkpt lat="45.1426414967655" lon="7.004473236299259"><ele>919.0</ele><time>2026-04-19T11:04:08Z</time></trkpt><trkpt lat="45.142716750857105" lon="7.00486679910616"><ele>919.0</ele><time>2026-04-19T11:04:09Z</time></trkpt><trkpt lat="45.142780704408054" lon="7.005186390668401"><ele>915.3333333333333</ele><time>2026-04-19T11:04:10Z</time></trkpt><trkpt lat="45.14287471326473" lon="7.005427118060845"><ele>911.6666666666667</ele><time>2026-04-19T11:04:11Z</time></trkpt><trkpt lat="45.1430145996828" lon="7.005676062025713"><ele>908.0</ele><time>2026-04-19T11:04:12Z</time></trkpt><trkpt lat="45.14324593355224" lon="7.005887569923372"><ele>908.0</ele><time>2026-04-19T11:04:13Z</time></trkpt><trkpt lat="45.143533137543656" lon="7.006022256713295"><ele>908.0</ele><time>2026-04-19T11:04:14Z</time></trkpt><trkpt lat="45.14381180028933" lon="7.006159288232961"><ele>908.0</ele><time>2026-04-19T11:04:15Z</time></trkpt><trkpt lat="45.14403995872673" lon="7.006314361053842"><ele>908.0</ele><time>2026-04-19T11:04:16Z</time></trkpt><trkpt lat="45.14421092851334" lon="7.006530973340326"><ele>904.75</ele><time>2026-04-19T11:04:17Z</time></trkpt><trkpt lat="45.144344302552845" lon="7.006722195360818"><ele>901.5</ele><time>2026-04-19T11:04:18Z</time></trkpt><trkpt lat="45.144451758667564" lon="7.006846230187904"><ele>898.25</ele><time>2026-04-19T11:04:19Z</time></trkpt><trkpt lat="45.144509648874845" lon="7.0069361723321135"><ele>895.0</ele><time>2026-04-19T11:04:20Z</time></trkpt><trkpt lat="45.14445172040224" lon="7.007092405091414"><ele>895.0</ele><time>2026-04-19T11:04:22Z</time></trkpt><trkpt lat="45.14435797611809" lon="7.007087848557809"><ele>895.0</ele><time>2026-04-19T11:04:23Z</time></trkpt><trkpt lat="45.144299750144626" lon="7.006952581756755"><ele>895.0</ele><time>2026-04-19T11:04:24Z</time></trkpt><trkpt lat="45.14419199262338" lon="7.006830510714427"><ele>895.0</ele><time>2026-04-19T11:04:25Z</time></trkpt><trkpt lat="45.14406659632603" lon="7.006700597599229"><ele>892.0</ele><time>2026-04-19T11:04:26Z</time></trkpt><trkpt lat="45.143913854850496" lon="7.006615900539769"><ele>889.0</ele><time>2026-04-19T11:04:27Z</time></trkpt><trkpt lat="45.14372801483501" lon="7.006635210449532"><ele>886.0</ele><time>2026-04-19T11:04:28Z</time></trkpt><trkpt lat="45.14352910528676" lon="7.006753357726873"><ele>886.0</ele><time>2026-04-19T11:04:29Z</time></trkpt><trkpt lat="45.14331136863084" lon="7.006779793541026"><ele>886.0</ele><time>2026-04-19T11:04:30Z</time></trkpt><trkpt lat="45.14306816141793" lon="7.006779462130068"><ele>887.6666666666666</ele><time>2026-04-19T11:04:31Z</time></trkpt><trkpt lat="45.14281785318663" lon="7.00676934990532"><ele>889.3333333333333</ele><time>2026-04-19T11:04:32Z</time></trkpt><trkpt lat="45.14264064300595" lon="7.0067277820448925"><ele>891.0</ele><time>2026-04-19T11:04:33Z</time></trkpt><trkpt lat="45.14251489292638" lon="7.006655665097646"><ele>891.0</ele><time>2026-04-19T11:04:34Z</time></trkpt><trkpt lat="45.14239533296361" lon="7.0065121443807"><ele>891.0</ele><time>2026-04-19T11:04:35Z</time></trkpt><trkpt lat="45.14226053892832" lon="7.0062298937525345"><ele>891.0</ele><time>2026-04-19T11:04:36Z</time></trkpt><trkpt lat="45.14210410586912" lon="7.005918101735464"><ele>888.3333333333333</ele><time>2026-04-19T11:04:37Z</time></trkpt><trkpt lat="45.14196833718115" lon="7.0056424179776755"><ele>885.6666666666666</ele><time>2026-04-19T11:04:38Z</time></trkpt><trkpt lat="45.141861448742596" lon="7.005484240876153"><ele>883.0</ele><time>2026-04-19T11:04:39Z</time></trkpt><trkpt lat="45.14171563071865" lon="7.005390993374299"><ele>880.0</ele><time>2026-04-19T11:04:40Z</time></trkpt><trkpt lat="45.14150691953801" lon="7.00542963601508"><ele>877.0</ele><time>2026-04-19T11:04:41Z</time></trkpt><trkpt lat="45.141284896464505" lon="7.005518728046282"><ele>874.0</ele><time>2026-04-19T11:04:42Z</time></trkpt><trkpt lat="45.141117937498194" lon="7.005533720447056"><ele>874.0</ele><time>2026-04-19T11:04:43Z</time></trkpt><trkpt lat="45.14101132764651" lon="7.0055641467974565"><ele>874.0000000000001</ele><time>2026-04-19T11:04:44Z</time></trkpt><trkpt lat="45.1409448670222" lon="7.005589450346809"><ele>874.0000000000001</ele><time>2026-04-19T11:04:45Z</time></trkpt><trkpt lat="45.14090484699071" lon="7.005670420748988"><ele>874.0</ele><time>2026-04-19T11:04:46Z</time></trkpt><trkpt lat="45.14095964859629" lon="7.005828224060403"><ele>874.0</ele><time>2026-04-19T11:04:47Z</time></trkpt><trkpt lat="45.14107586838654" lon="7.005928944281473"><ele>870.0</ele><time>2026-04-19T11:04:48Z</time></trkpt><trkpt lat="45.14122989562914" lon="7.005907992090805"><ele>866.0</ele><time>2026-04-19T11:04:49Z</time></trkpt><trkpt lat="45.14139044255244" lon="7.00590258878877"><ele>862.0</ele><time>2026-04-19T11:04:50Z</time></trkpt><trkpt lat="45.14156609774556" lon="7.005955723150395"><ele>862.0</ele><time>2026-04-19T11:04:51Z</time></trkpt><trkpt lat="45.14170725006455" lon="7.006109721368063"><ele>862.0</ele><time>2026-04-19T11:04:52Z</time></trkpt><trkpt lat="45.14176632356177" lon="7.006384719443401"><ele>862.0</ele><time>2026-04-19T11:04:53Z</time></trkpt><trkpt lat="45.14185064160767" lon="7.0067170355736605"><ele>854.0</ele><time>2026-04-19T11:04:54Z</time></trkpt><trkpt lat="45.14190124847329" lon="7.007128709356722"><ele>846.0</ele><time>2026-04-19T11:04:55Z</time></trkpt><trkpt lat="45.141972195781186" lon="7.007567350807867"><ele>839.0</ele><time>2026-04-19T11:04:56Z</time></trkpt><trkpt lat="45.14205387436342" lon="7.007943558699398"><ele>832.0</ele><time>2026-04-19T11:04:57Z</time></trkpt><trkpt lat="45.14212171353919" lon="7.008235598810539"><ele>835.6666666666666</ele><time>2026-04-19T11:04:58Z</time></trkpt><trkpt lat="45.142184971535876" lon="7.0084794973432505"><ele>839.3333333333333</ele><time>2026-04-19T11:04:59Z</time></trkpt><trkpt lat="45.14228837524999" lon="7.008711553899429"><ele>843.0</ele><time>2026-04-19T11:05:00Z</time></trkpt><trkpt lat="45.14247034535791" lon="7.008887532675542"><ele>843.0</ele><time>2026-04-19T11:05:01Z</time></trkpt><trkpt lat="45.142636947585025" lon="7.00906025619404"><ele>843.0</ele><time>2026-04-19T11:05:02Z</time></trkpt><trkpt lat="45.14273860711574" lon="7.009327425257015"><ele>843.0</ele><time>2026-04-19T11:05:03Z</time></trkpt><trkpt lat="45.14285668434147" lon="7.009666315843921"><ele>827.0</ele><time>2026-04-19T11:05:04Z</time></trkpt><trkpt lat="45.14295012823583" lon="7.010029037330862"><ele>811.0</ele><time>2026-04-19T11:05:05Z</time></trkpt><trkpt lat="45.143059977976826" lon="7.010333119207223"><ele>811.0</ele><time>2026-04-19T11:05:06Z</time></trkpt><trkpt lat="45.14316283861349" lon="7.0106367708725275"><ele>811.0</ele><time>2026-04-19T11:05:07Z</time></trkpt><trkpt lat="45.143272743566044" lon="7.01092860015884"><ele>809.3333333333333</ele><time>2026-04-19T11:05:08Z</time></trkpt><trkpt lat="45.1433770962107" lon="7.011172539062314"><ele>807.6666666666667</ele><time>2026-04-19T11:05:09Z</time></trkpt><trkpt lat="45.14345755990737" lon="7.011414897589143"><ele>806.0</ele><time>2026-04-19T11:05:10Z</time></trkpt><trkpt lat="45.143497340219106" lon="7.011669382520194"><ele>806.0</ele><time>2026-04-19T11:05:11Z</time></trkpt><trkpt lat="45.143458916141064" lon="7.011917350851361"><ele>806.0</ele><time>2026-04-19T11:05:12Z</time></trkpt><trkpt lat="45.14343308562748" lon="7.012163157688341"><ele>806.0</ele><time>2026-04-19T11:05:13Z</time></trkpt><trkpt lat="45.14340350313573" lon="7.012365906169461"><ele>804.3333333333334</ele><time>2026-04-19T11:05:14Z</time></trkpt><trkpt lat="45.143493339312336" lon="7.0125488625994015"><ele>802.6666666666667</ele><time>2026-04-19T11:05:15Z</time></trkpt><trkpt lat="45.14362377658949" lon="7.012708642266711"><ele>801.0</ele><time>2026-04-19T11:05:16Z</time></trkpt><trkpt lat="45.143814241812215" lon="7.012782792185522"><ele>801.0</ele><time>2026-04-19T11:05:17Z</time></trkpt><trkpt lat="45.1440125631988" lon="7.012848646223302"><ele>801.0</ele><time>2026-04-19T11:05:18Z</time></trkpt><trkpt lat="45.14418626031385" lon="7.013064676344186"><ele>801.0</ele><time>2026-04-19T11:05:19Z</time></trkpt><trkpt lat="45.144329469568596" lon="7.013270445860409"><ele>798.0</ele><time>2026-04-19T11:05:20Z</time></trkpt><trkpt lat="45.14443383724978" lon="7.013479744279229"><ele>795.0</ele><time>2026-04-19T11:05:21Z</time></trkpt><trkpt lat="45.14454988322775" lon="7.013609014906"><ele>792.0</ele><time>2026-04-19T11:05:22Z</time></trkpt><trkpt lat="45.14470072316405" lon="7.0136567700861585"><ele>791.3333333333333</ele><time>2026-04-19T11:05:23Z</time></trkpt><trkpt lat="45.14488333667824" lon="7.013604130742081"><ele>790.6666666666666</ele><time>2026-04-19T11:05:24Z</time></trkpt><trkpt lat="45.145064332070575" lon="7.013455500027896"><ele>790.0</ele><time>2026-04-19T11:05:25Z</time></trkpt><trkpt lat="45.145206404012555" lon="7.013225879235207"><ele>796.0</ele><time>2026-04-19T11:05:26Z</time></trkpt><trkpt lat="45.14530568786533" lon="7.012951342066483"><ele>802.0</ele><time>2026-04-19T11:05:27Z</time></trkpt><trkpt lat="45.145367475261345" lon="7.012686174919702"><ele>808.0</ele><time>2026-04-19T11:05:28Z</time></trkpt><trkpt lat="45.14547360801278" lon="7.012494223888435"><ele>807.3333333333333</ele><time>2026-04-19T11:05:29Z</time></trkpt><trkpt lat="45.14558329051962" lon="7.012337742828973"><ele>806.6666666666667</ele><time>2026-04-19T11:05:30Z</time></trkpt><trkpt lat="45.14573429865909" lon="7.01231051593963"><ele>806.0</ele><time>2026-04-19T11:05:31Z</time></trkpt><trkpt lat="45.14590119521925" lon="7.012300172149053"><ele>806.0</ele><time>2026-04-19T11:05:32Z</time></trkpt><trkpt lat="45.14607842896292" lon="7.0123427384380905"><ele>806.0</ele><time>2026-04-19T11:05:33Z</time></trkpt><trkpt lat="45.146212781511565" lon="7.0124289570626175"><ele>806.0</ele><time>2026-04-19T11:05:34Z</time></trkpt><trkpt lat="45.14629160959363" lon="7.012618131096777"><ele>800.0</ele><time>2026-04-19T11:05:35Z</time></trkpt><trkpt lat="45.146373316596645" lon="7.012832807656927"><ele>794.0</ele><time>2026-04-19T11:05:36Z</time></trkpt><trkpt lat="45.14645523194362" lon="7.013000812668791"><ele>788.0</ele><time>2026-04-19T11:05:37Z</time></trkpt><trkpt lat="45.146576514422556" lon="7.013012988905415"><ele>782.0</ele><time>2026-04-19T11:05:38Z</time></trkpt><trkpt lat="45.14674659209476" lon="7.012941090949065"><ele>779.0</ele><time>2026-04-19T11:05:39Z</time></trkpt><trkpt lat="45.14690445178676" lon="7.012785106716848"><ele>776.0</ele><time>2026-04-19T11:05:40Z</time></trkpt><trkpt lat="45.146999617856395" lon="7.012652151860304"><ele>773.0</ele><time>2026-04-19T11:05:41Z</time></trkpt><trkpt lat="45.1470620178776" lon="7.012615701596557"><ele>770.0</ele><time>2026-04-19T11:05:42Z</time></trkpt><trkpt lat="45.14712828014183" lon="7.012682590766579"><ele>770.0</ele><time>2026-04-19T11:05:43Z</time></trkpt><trkpt lat="45.147170763807665" lon="7.012835934235436"><ele>770.0</ele><time>2026-04-19T11:05:44Z</time></trkpt><trkpt lat="45.147152173887385" lon="7.013030997968981"><ele>770.0</ele><time>2026-04-19T11:05:45Z</time></trkpt><trkpt lat="45.14713820013988" lon="7.013238387555181"><ele>770.0</ele><time>2026-04-19T11:05:46Z</time></trkpt><trkpt lat="45.14719846339763" lon="7.01338176522096"><ele>768.5</ele><time>2026-04-19T11:05:47Z</time></trkpt><trkpt lat="45.14731275375282" lon="7.013440094857316"><ele>767.0</ele><time>2026-04-19T11:05:48Z</time></trkpt><trkpt lat="45.14742897539513" lon="7.01339218568414"><ele>765.5</ele><time>2026-04-19T11:05:49Z</time></trkpt><trkpt lat="45.1475170214981" lon="7.013318208260131"><ele>764.0</ele><time>2026-04-19T11:05:50Z</time></trkpt><trkpt lat="45.147599502650145" lon="7.01349860685452"><ele>760.5</ele><time>2026-04-19T11:05:53Z</time></trkpt><trkpt lat="45.147531856075226" lon="7.013573933554682"><ele>757.0</ele><time>2026-04-19T11:05:54Z</time></trkpt><trkpt lat="45.1474347337412" lon="7.013609601782151"><ele>753.5</ele><time>2026-04-19T11:05:55Z</time></trkpt><trkpt lat="45.14730294547649" lon="7.013575148099651"><ele>750.0</ele><time>2026-04-19T11:05:56Z</time></trkpt><trkpt lat="45.147146685809105" lon="7.013501456979602"><ele>750.0</ele><time>2026-04-19T11:05:57Z</time></trkpt><trkpt lat="45.147024611196976" lon="7.013384654068295"><ele>750.0</ele><time>2026-04-19T11:05:58Z</time></trkpt><trkpt lat="45.14689027261893" lon="7.013295751797942"><ele>750.0</ele><time>2026-04-19T11:05:59Z</time></trkpt><trkpt lat="45.146728661875606" lon="7.013249609097972"><ele>750.0</ele><time>2026-04-19T11:06:00Z</time></trkpt><trkpt lat="45.14654488522615" lon="7.013332105845685"><ele>750.0</ele><time>2026-04-19T11:06:01Z</time></trkpt><trkpt lat="45.146311910678634" lon="7.013387920281541"><ele>750.0</ele><time>2026-04-19T11:06:02Z</time></trkpt><trkpt lat="45.1461283396261" lon="7.01334215348075"><ele>753.25</ele><time>2026-04-19T11:06:03Z</time></trkpt><trkpt lat="45.145985719826335" lon="7.013343321943713"><ele>756.5</ele><time>2026-04-19T11:06:04Z</time></trkpt><trkpt lat="45.14589286670597" lon="7.013449528540958"><ele>759.75</ele><time>2026-04-19T11:06:05Z</time></trkpt><trkpt lat="45.14581011551758" lon="7.013629867735119"><ele>763.0</ele><time>2026-04-19T11:06:06Z</time></trkpt><trkpt lat="45.145776734614515" lon="7.0139563633365976"><ele>754.0</ele><time>2026-04-19T11:06:07Z</time></trkpt><trkpt lat="45.14576831092676" lon="7.014358238503261"><ele>745.0</ele><time>2026-04-19T11:06:08Z</time></trkpt><trkpt lat="45.145734444247225" lon="7.014747455308325"><ele>735.5</ele><time>2026-04-19T11:06:09Z</time></trkpt><trkpt lat="45.14571930079322" lon="7.01521950309657"><ele>726.0</ele><time>2026-04-19T11:06:10Z</time></trkpt><trkpt lat="45.14572236618441" lon="7.015715871928838"><ele>731.5</ele><time>2026-04-19T11:06:11Z</time></trkpt><trkpt lat="45.14568893484112" lon="7.016049405414726"><ele>737.0</ele><time>2026-04-19T11:06:12Z</time></trkpt><trkpt lat="45.14562206434918" lon="7.016404785452387"><ele>730.0</ele><time>2026-04-19T11:06:13Z</time></trkpt><trkpt lat="45.14552383576953" lon="7.016782166534807"><ele>723.0</ele><time>2026-04-19T11:06:14Z</time></trkpt><trkpt lat="45.14546596315372" lon="7.017179542541521"><ele>717.0</ele><time>2026-04-19T11:06:15Z</time></trkpt><trkpt lat="45.14546310749399" lon="7.017551267895811"><ele>711.0</ele><time>2026-04-19T11:06:16Z</time></trkpt><trkpt lat="45.145522818472024" lon="7.017939821047911"><ele>711.0</ele><time>2026-04-19T11:06:17Z</time></trkpt><trkpt lat="45.1455947918536" lon="7.018285105570354"><ele>711.0</ele><time>2026-04-19T11:06:18Z</time></trkpt><trkpt lat="45.145580254912176" lon="7.018464567548693"><ele>711.0</ele><time>2026-04-19T11:06:19Z</time></trkpt><trkpt lat="45.14556408673478" lon="7.018557874389575"><ele>711.0</ele><time>2026-04-19T11:06:20Z</time></trkpt><trkpt lat="45.14549994443437" lon="7.018566996793134"><ele>706.6666666666666</ele><time>2026-04-19T11:06:21Z</time></trkpt><trkpt lat="45.1453707807867" lon="7.018568411783079"><ele>702.3333333333333</ele><time>2026-04-19T11:06:22Z</time></trkpt><trkpt lat="45.1452424863239" lon="7.018582890925654"><ele>698.0</ele><time>2026-04-19T11:06:23Z</time></trkpt><trkpt lat="45.145039367043495" lon="7.018609179572039"><ele>698.0</ele><time>2026-04-19T11:06:24Z</time></trkpt><trkpt lat="45.14489785530303" lon="7.018580413765601"><ele>698.0</ele><time>2026-04-19T11:06:25Z</time></trkpt><trkpt lat="45.14481667157902" lon="7.018432479140835"><ele>698.0</ele><time>2026-04-19T11:06:26Z</time></trkpt><trkpt lat="45.14478038727482" lon="7.018229559984377"><ele>698.0</ele><time>2026-04-19T11:06:27Z</time></trkpt><trkpt lat="45.14472620161554" lon="7.018087404964345"><ele>697.5</ele><time>2026-04-19T11:06:28Z</time></trkpt><trkpt lat="45.14461869743675" lon="7.018023238159736"><ele>697.0</ele><time>2026-04-19T11:06:29Z</time></trkpt><trkpt lat="45.144502102956864" lon="7.018077206765374"><ele>696.5</ele><time>2026-04-19T11:06:30Z</time></trkpt><trkpt lat="45.14440832504031" lon="7.018230371022799"><ele>696.0</ele><time>2026-04-19T11:06:31Z</time></trkpt><trkpt lat="45.144389553511246" lon="7.0184638578706355"><ele>696.0</ele><time>2026-04-19T11:06:32Z</time></trkpt><trkpt lat="45.14443716012126" lon="7.018714596579373"><ele>696.0</ele><time>2026-04-19T11:06:33Z</time></trkpt><trkpt lat="45.144432979125476" lon="7.019075020783953"><ele>696.0</ele><time>2026-04-19T11:06:34Z</time></trkpt><trkpt lat="45.14449289944184" lon="7.019432047390621"><ele>693.6666666666666</ele><time>2026-04-19T11:06:35Z</time></trkpt><trkpt lat="45.14457674357256" lon="7.019768215539123"><ele>691.3333333333333</ele><time>2026-04-19T11:06:36Z</time></trkpt><trkpt lat="45.144626993743614" lon="7.020034930867687"><ele>689.0</ele><time>2026-04-19T11:06:37Z</time></trkpt><trkpt lat="45.144619930248375" lon="7.02017610777383"><ele>688.4000000000001</ele><time>2026-04-19T11:06:38Z</time></trkpt><trkpt lat="45.14457994000735" lon="7.020274793827694"><ele>687.8</ele><time>2026-04-19T11:06:39Z</time></trkpt><trkpt lat="45.14447481301184" lon="7.020394976948851"><ele>687.2</ele><time>2026-04-19T11:06:40Z</time></trkpt><trkpt lat="45.14435388446902" lon="7.02034916394422"><ele>686.5999999999999</ele><time>2026-04-19T11:06:41Z</time></trkpt><trkpt lat="45.14424737754991" lon="7.020378791892626"><ele>686.0</ele><time>2026-04-19T11:06:42Z</time></trkpt><trkpt lat="45.14415825837067" lon="7.0204478809848005"><ele>686.0</ele><time>2026-04-19T11:06:43Z</time></trkpt><trkpt lat="45.14413300376214" lon="7.020612510038758"><ele>686.0</ele><time>2026-04-19T11:06:44Z</time></trkpt><trkpt lat="45.14417131443535" lon="7.020812458295236"><ele>686.0</ele><time>2026-04-19T11:06:45Z</time></trkpt><trkpt lat="45.144331844093436" lon="7.0210955944556765"><ele>685.0</ele><time>2026-04-19T11:06:46Z</time></trkpt><trkpt lat="45.14448709723818" lon="7.021298698533394"><ele>684.0</ele><time>2026-04-19T11:06:47Z</time></trkpt><trkpt lat="45.14456825191721" lon="7.021498214696936"><ele>683.0</ele><time>2026-04-19T11:06:48Z</time></trkpt><trkpt lat="45.144616342423014" lon="7.021736991216633"><ele>682.0</ele><time>2026-04-19T11:06:49Z</time></trkpt><trkpt lat="45.14464156261619" lon="7.0220382212512025"><ele>681.0</ele><time>2026-04-19T11:06:50Z</time></trkpt><trkpt lat="45.14463121954389" lon="7.0222333806994826"><ele>680.0</ele><time>2026-04-19T11:06:51Z</time></trkpt><trkpt lat="45.14456789589004" lon="7.022396859377111"><ele>680.0</ele><time>2026-04-19T11:06:52Z</time></trkpt><trkpt lat="45.144460119806745" lon="7.022445527332689"><ele>680.0</ele><time>2026-04-19T11:06:53Z</time></trkpt><trkpt lat="45.14434290406425" lon="7.02252838050495"><ele>680.0</ele><time>2026-04-19T11:06:54Z</time></trkpt><trkpt lat="45.14422229823286" lon="7.0227146242038305"><ele>680.0</ele><time>2026-04-19T11:06:55Z</time></trkpt><trkpt lat="45.14416498415168" lon="7.023017577140511"><ele>672.0</ele><time>2026-04-19T11:06:56Z</time></trkpt><trkpt lat="45.14415683013598" lon="7.023428816334627"><ele>664.0</ele><time>2026-04-19T11:06:57Z</time></trkpt><trkpt lat="45.14415498509836" lon="7.023814941252648"><ele>660.5</ele><time>2026-04-19T11:06:58Z</time></trkpt><trkpt lat="45.14411892253917" lon="7.024294756082932"><ele>657.0</ele><time>2026-04-19T11:06:59Z</time></trkpt><trkpt lat="45.14410245054558" lon="7.024722549409861"><ele>654.5</ele><time>2026-04-19T11:07:00Z</time></trkpt><trkpt lat="45.1441545543026" lon="7.025173884749085"><ele>652.0</ele><time>2026-04-19T11:07:01Z</time></trkpt><trkpt lat="45.14425023172528" lon="7.025681672829663"><ele>651.0</ele><time>2026-04-19T11:07:02Z</time></trkpt><trkpt lat="45.14428979185945" lon="7.026189251431715"><ele>650.0</ele><time>2026-04-19T11:07:03Z</time></trkpt><trkpt lat="45.14432386377845" lon="7.026798239299908"><ele>649.5</ele><time>2026-04-19T11:07:04Z</time></trkpt><trkpt lat="45.14437212469782" lon="7.027343919191006"><ele>649.0</ele><time>2026-04-19T11:07:05Z</time></trkpt><trkpt lat="45.14440463995297" lon="7.027807071511577"><ele>650.5</ele><time>2026-04-19T11:07:06Z</time></trkpt><trkpt lat="45.14443004039088" lon="7.028280125226808"><ele>652.0</ele><time>2026-04-19T11:07:07Z</time></trkpt><trkpt lat="45.14441679590551" lon="7.02870720087287"><ele>643.5</ele><time>2026-04-19T11:07:08Z</time></trkpt><trkpt lat="45.14439392288009" lon="7.029165061983566"><ele>635.0</ele><time>2026-04-19T11:07:09Z</time></trkpt><trkpt lat="45.14437161595467" lon="7.029576716527262"><ele>635.0</ele><time>2026-04-19T11:07:10Z</time></trkpt><trkpt lat="45.14434356147363" lon="7.029831148438797"><ele>635.0</ele><time>2026-04-19T11:07:11Z</time></trkpt><trkpt lat="45.1442673651409" lon="7.0301513766946755"><ele>635.0</ele><time>2026-04-19T11:07:12Z</time></trkpt><trkpt lat="45.14425215802037" lon="7.030470026193056"><ele>632.0</ele><time>2026-04-19T11:07:13Z</time></trkpt><trkpt lat="45.144290114993645" lon="7.030800001172011"><ele>629.0</ele><time>2026-04-19T11:07:14Z</time></trkpt><trkpt lat="45.144362920352016" lon="7.031180622225171"><ele>626.0</ele><time>2026-04-19T11:07:15Z</time></trkpt><trkpt lat="45.144467914855035" lon="7.031534302206539"><ele>623.0</ele><time>2026-04-19T11:07:16Z</time></trkpt><trkpt lat="45.14449379931381" lon="7.031887421197437"><ele>621.5</ele><time>2026-04-19T11:07:17Z</time></trkpt><trkpt lat="45.144494560593884" lon="7.03228138547675"><ele>620.0</ele><time>2026-04-19T11:07:18Z</time></trkpt><trkpt lat="45.14447062320959" lon="7.032721775315916"><ele>617.0</ele><time>2026-04-19T11:07:19Z</time></trkpt><trkpt lat="45.14442654900217" lon="7.03308533950398"><ele>614.0</ele><time>2026-04-19T11:07:20Z</time></trkpt><trkpt lat="45.14436806716685" lon="7.0333567439542755"><ele>609.0</ele><time>2026-04-19T11:07:21Z</time></trkpt><trkpt lat="45.14426643136572" lon="7.033662288734828"><ele>604.0</ele><time>2026-04-19T11:07:22Z</time></trkpt><trkpt lat="45.14414802610695" lon="7.033938993194985"><ele>612.0</ele><time>2026-04-19T11:07:23Z</time></trkpt><trkpt lat="45.14401263951374" lon="7.034191225459517"><ele>620.0</ele><time>2026-04-19T11:07:24Z</time></trkpt><trkpt lat="45.14388199514805" lon="7.034429011436528"><ele>628.0</ele><time>2026-04-19T11:07:25Z</time></trkpt><trkpt lat="45.14377988471157" lon="7.034698995343738"><ele>619.5</ele><time>2026-04-19T11:07:26Z</time></trkpt><trkpt lat="45.143717208834325" lon="7.035069999429556"><ele>611.0</ele><time>2026-04-19T11:07:27Z</time></trkpt><trkpt lat="45.14366786679485" lon="7.035444861546049"><ele>605.5</ele><time>2026-04-19T11:07:28Z</time></trkpt><trkpt lat="45.143643869633436" lon="7.03582810372642"><ele>600.0</ele><time>2026-04-19T11:07:29Z</time></trkpt><trkpt lat="45.14361862497053" lon="7.036179005487575"><ele>600.0</ele><time>2026-04-19T11:07:30Z</time></trkpt><trkpt lat="45.14364584255074" lon="7.0365561414034445"><ele>600.0</ele><time>2026-04-19T11:07:31Z</time></trkpt><trkpt lat="45.14372091125265" lon="7.036820599566283"><ele>594.3333333333334</ele><time>2026-04-19T11:07:32Z</time></trkpt><trkpt lat="45.14374756815095" lon="7.037068914242045"><ele>588.6666666666667</ele><time>2026-04-19T11:07:33Z</time></trkpt><trkpt lat="45.14373877725915" lon="7.0372950800756655"><ele>583.0</ele><time>2026-04-19T11:07:34Z</time></trkpt><trkpt lat="45.143650526243896" lon="7.037474326102823"><ele>578.6666666666667</ele><time>2026-04-19T11:07:35Z</time></trkpt><trkpt lat="45.14352799566053" lon="7.037601027444972"><ele>574.3333333333334</ele><time>2026-04-19T11:07:36Z</time></trkpt><trkpt lat="45.1433693751676" lon="7.037665696484832"><ele>570.0</ele><time>2026-04-19T11:07:37Z</time></trkpt><trkpt lat="45.143195809973044" lon="7.037727611652184"><ele>570.0</ele><time>2026-04-19T11:07:38Z</time></trkpt><trkpt lat="45.143036984957455" lon="7.037781432309592"><ele>570.0</ele><time>2026-04-19T11:07:39Z</time></trkpt><trkpt lat="45.1428894029785" lon="7.037831443136346"><ele>570.0</ele><time>2026-04-19T11:07:40Z</time></trkpt><trkpt lat="45.14276105976247" lon="7.0378910544256925"><ele>570.0</ele><time>2026-04-19T11:07:41Z</time></trkpt><trkpt lat="45.142643254917715" lon="7.037932713537553"><ele>570.0</ele><time>2026-04-19T11:07:42Z</time></trkpt><trkpt lat="45.142531698497905" lon="7.03797470574295"><ele>570.0</ele><time>2026-04-19T11:07:43Z</time></trkpt><trkpt lat="45.142423886091734" lon="7.038003288920844"><ele>570.0</ele><time>2026-04-19T11:07:44Z</time></trkpt><trkpt lat="45.142318714870015" lon="7.038042771642717"><ele>564.25</ele><time>2026-04-19T11:07:45Z</time></trkpt><trkpt lat="45.14223019373721" lon="7.038107754721641"><ele>558.5</ele><time>2026-04-19T11:07:46Z</time></trkpt><trkpt lat="45.14216934918808" lon="7.038243260303308"><ele>552.75</ele><time>2026-04-19T11:07:47Z</time></trkpt><trkpt lat="45.14212685898955" lon="7.038404934881104"><ele>547.0</ele><time>2026-04-19T11:07:48Z</time></trkpt><trkpt lat="45.14208595393714" lon="7.038577587857485"><ele>545.75</ele><time>2026-04-19T11:07:49Z</time></trkpt><trkpt lat="45.142044425737254" lon="7.038759551796587"><ele>544.5</ele><time>2026-04-19T11:07:50Z</time></trkpt><trkpt lat="45.141992849849984" lon="7.0389526195313765"><ele>543.25</ele><time>2026-04-19T11:07:51Z</time></trkpt><trkpt lat="45.1419377599425" lon="7.039149977346522"><ele>542.0</ele><time>2026-04-19T11:07:52Z</time></trkpt><trkpt lat="45.14188730982111" lon="7.039354451983067"><ele>542.0</ele><time>2026-04-19T11:07:53Z</time></trkpt><trkpt lat="45.14184030129884" lon="7.039568071598752"><ele>542.0</ele><time>2026-04-19T11:07:54Z</time></trkpt><trkpt lat="45.141797033532704" lon="7.039786527931848"><ele>542.0</ele><time>2026-04-19T11:07:55Z</time></trkpt><trkpt lat="45.141751874011064" lon="7.040012833998517"><ele>544.0</ele><time>2026-04-19T11:07:56Z</time></trkpt><trkpt lat="45.1417255166654" lon="7.040245337945185"><ele>546.0</ele><time>2026-04-19T11:07:57Z</time></trkpt><trkpt lat="45.14171459294142" lon="7.040484362963378"><ele>548.0</ele><time>2026-04-19T11:07:58Z</time></trkpt><trkpt lat="45.14171000826568" lon="7.040705328266389"><ele>547.25</ele><time>2026-04-19T11:07:59Z</time></trkpt><trkpt lat="45.141705136400304" lon="7.040919171133746"><ele>546.5</ele><time>2026-04-19T11:08:00Z</time></trkpt><trkpt lat="45.14169724939318" lon="7.041125005904396"><ele>545.75</ele><time>2026-04-19T11:08:01Z</time></trkpt><trkpt lat="45.14168452184358" lon="7.0413272876847515"><ele>545.0</ele><time>2026-04-19T11:08:02Z</time></trkpt><trkpt lat="45.14163093857102" lon="7.041511199235626"><ele>546.25</ele><time>2026-04-19T11:08:03Z</time></trkpt><trkpt lat="45.14157704297272" lon="7.041693909633824"><ele>547.5</ele><time>2026-04-19T11:08:04Z</time></trkpt><trkpt lat="45.1414484213736" lon="7.041807257000003"><ele>548.75</ele><time>2026-04-19T11:08:05Z</time></trkpt><trkpt lat="45.14130862781583" lon="7.0419099213440886"><ele>550.0</ele><time>2026-04-19T11:08:06Z</time></trkpt><trkpt lat="45.1411683295168" lon="7.042027457921121"><ele>545.25</ele><time>2026-04-19T11:08:07Z</time></trkpt><trkpt lat="45.14103106138229" lon="7.042103560131433"><ele>540.5</ele><time>2026-04-19T11:08:08Z</time></trkpt><trkpt lat="45.14089658004654" lon="7.042179880294866"><ele>535.75</ele><time>2026-04-19T11:08:09Z</time></trkpt><trkpt lat="45.14076972780332" lon="7.042255973907895"><ele>531.0</ele><time>2026-04-19T11:08:10Z</time></trkpt><trkpt lat="45.14064726021902" lon="7.042331023027288"><ele>531.0</ele><time>2026-04-19T11:08:11Z</time></trkpt><trkpt lat="45.140533618859465" lon="7.04240775920292"><ele>531.0</ele><time>2026-04-19T11:08:12Z</time></trkpt><trkpt lat="45.14041872520011" lon="7.0424858188003725"><ele>531.0</ele><time>2026-04-19T11:08:13Z</time></trkpt><trkpt lat="45.14030258050822" lon="7.042559740506338"><ele>531.0</ele><time>2026-04-19T11:08:14Z</time></trkpt><trkpt lat="45.14019505959084" lon="7.042629208110973"><ele>530.6</ele><time>2026-04-19T11:08:15Z</time></trkpt><trkpt lat="45.14008937928661" lon="7.042698127899436"><ele>530.2</ele><time>2026-04-19T11:08:16Z</time></trkpt><trkpt lat="45.13999234365402" lon="7.042766884402449"><ele>529.8</ele><time>2026-04-19T11:08:17Z</time></trkpt><trkpt lat="45.139917071050604" lon="7.042828800312963"><ele>529.4</ele><time>2026-04-19T11:08:18Z</time></trkpt><trkpt lat="45.13982981824179" lon="7.0428607116926525"><ele>529.0</ele><time>2026-04-19T11:08:20Z</time></trkpt><trkpt lat="45.139771454501954" lon="7.042909017600835"><ele>525.4</ele><time>2026-04-19T11:08:22Z</time></trkpt><trkpt lat="45.13975108724694" lon="7.043017549749558"><ele>521.8</ele><time>2026-04-19T11:09:23Z</time></trkpt><trkpt lat="45.13971812483417" lon="7.043116370908547"><ele>518.2</ele><time>2026-04-19T11:09:24Z</time></trkpt><trkpt lat="45.13963936390928" lon="7.043217336622151"><ele>514.6</ele><time>2026-04-19T11:09:25Z</time></trkpt><trkpt lat="45.13957529773245" lon="7.043358513050472"><ele>511.0</ele><time>2026-04-19T11:09:26Z</time></trkpt><trkpt lat="45.13950992250614" lon="7.0434977177020155"><ele>510.5</ele><time>2026-04-19T11:09:27Z</time></trkpt><trkpt lat="45.13944997296933" lon="7.0436425800597995"><ele>510.0</ele><time>2026-04-19T11:09:28Z</time></trkpt><trkpt lat="45.13939103375283" lon="7.043802753271792"><ele>509.5</ele><time>2026-04-19T11:09:29Z</time></trkpt><trkpt lat="45.13933485947508" lon="7.043963219743996"><ele>509.0</ele><time>2026-04-19T11:09:30Z</time></trkpt><trkpt lat="45.13929628235403" lon="7.04412259189589"><ele>509.5</ele><time>2026-04-19T11:09:31Z</time></trkpt><trkpt lat="45.1392675415221" lon="7.044277251907195"><ele>510.0</ele><time>2026-04-19T11:09:32Z</time></trkpt><trkpt lat="45.13924151814695" lon="7.044426955694196"><ele>510.5</ele><time>2026-04-19T11:09:33Z</time></trkpt><trkpt lat="45.13922159333251" lon="7.044588771275602"><ele>511.0</ele><time>2026-04-19T11:09:34Z</time></trkpt><trkpt lat="45.13919531096962" lon="7.04475924531456"><ele>511.0</ele><time>2026-04-19T11:09:35Z</time></trkpt><trkpt lat="45.139162559832336" lon="7.044930264209631"><ele>511.0</ele><time>2026-04-19T11:09:36Z</time></trkpt><trkpt lat="45.13913513186927" lon="7.045104209819417"><ele>511.0</ele><time>2026-04-19T11:09:37Z</time></trkpt><trkpt lat="45.139110524618225" lon="7.04526884740526"><ele>511.0</ele><time>2026-04-19T11:09:38Z</time></trkpt><trkpt lat="45.13908694455936" lon="7.0454352865973044"><ele>512.0</ele><time>2026-04-19T11:09:39Z</time></trkpt><trkpt lat="45.13906143719276" lon="7.04560147676844"><ele>513.0</ele><time>2026-04-19T11:09:40Z</time></trkpt><trkpt lat="45.13903404153764" lon="7.0457793503685755"><ele>514.0</ele><time>2026-04-19T11:09:41Z</time></trkpt><trkpt lat="45.13900523088138" lon="7.045953997004686"><ele>515.0</ele><time>2026-04-19T11:09:42Z</time></trkpt><trkpt lat="45.13897244499436" lon="7.04613220886242"><ele>512.5</ele><time>2026-04-19T11:09:43Z</time></trkpt><trkpt lat="45.13894345286217" lon="7.046304911924919"><ele>510.0</ele><time>2026-04-19T11:09:44Z</time></trkpt><trkpt lat="45.13891752285639" lon="7.046475301587266"><ele>507.5</ele><time>2026-04-19T11:09:45Z</time></trkpt><trkpt lat="45.13889396996774" lon="7.046648103622953"><ele>505.0</ele><time>2026-04-19T11:09:46Z</time></trkpt><trkpt lat="45.13886235086779" lon="7.046818233114328"><ele>504.75</ele><time>2026-04-19T11:09:47Z</time></trkpt><trkpt lat="45.138838161402894" lon="7.046988021570742"><ele>504.5</ele><time>2026-04-19T11:09:48Z</time></trkpt><trkpt lat="45.138811751875345" lon="7.047162896789629"><ele>504.25</ele><time>2026-04-19T11:09:49Z</time></trkpt><trkpt lat="45.13878842754428" lon="7.0473325505591475"><ele>504.0</ele><time>2026-04-19T11:09:50Z</time></trkpt><trkpt lat="45.138762011544124" lon="7.0474923401234415"><ele>503.75</ele><time>2026-04-19T11:09:51Z</time></trkpt><trkpt lat="45.138731210937536" lon="7.047657949077796"><ele>503.5</ele><time>2026-04-19T11:09:52Z</time></trkpt><trkpt lat="45.13870617814751" lon="7.047824156221841"><ele>503.25</ele><time>2026-04-19T11:09:53Z</time></trkpt><trkpt lat="45.13867995044492" lon="7.047980287652678"><ele>503.0</ele><time>2026-04-19T11:09:54Z</time></trkpt><trkpt lat="45.138654867316305" lon="7.0481208068811005"><ele>502.99999999999994</ele><time>2026-04-19T11:09:55Z</time></trkpt><trkpt lat="45.138637301753725" lon="7.0482494644586255"><ele>503.0</ele><time>2026-04-19T11:09:56Z</time></trkpt><trkpt lat="45.13861847705254" lon="7.0483467579422125"><ele>503.0</ele><time>2026-04-19T11:09:57Z</time></trkpt><trkpt lat="45.13851589983596" lon="7.048413809829859"><ele>503.0</ele><time>2026-04-19T11:09:59Z</time></trkpt><trkpt lat="45.13845492959892" lon="7.048356073938166"><ele>502.99999999999994</ele><time>2026-04-19T11:10:00Z</time></trkpt><trkpt lat="45.13837537035008" lon="7.048340639483542"><ele>503.0</ele><time>2026-04-19T11:10:01Z</time></trkpt><trkpt lat="45.1382886575962" lon="7.048320209055105"><ele>502.8333333333333</ele><time>2026-04-19T11:10:02Z</time></trkpt><trkpt lat="45.13821349809336" lon="7.048292787513009"><ele>502.66666666666663</ele><time>2026-04-19T11:10:03Z</time></trkpt><trkpt lat="45.13812763097097" lon="7.048261357761563"><ele>502.5</ele><time>2026-04-19T11:10:04Z</time></trkpt><trkpt lat="45.13803763783433" lon="7.048228785919794"><ele>502.33333333333337</ele><time>2026-04-19T11:10:05Z</time></trkpt><trkpt lat="45.13794535948597" lon="7.04819450792397"><ele>502.1666666666667</ele><time>2026-04-19T11:10:06Z</time></trkpt><trkpt lat="45.13785448201286" lon="7.04816927107412"><ele>502.0</ele><time>2026-04-19T11:10:07Z</time></trkpt><trkpt lat="45.13776201674964" lon="7.04814249409901"><ele>502.0</ele><time>2026-04-19T11:10:08Z</time></trkpt><trkpt lat="45.13767367317825" lon="7.04811761254693"><ele>502.00000000000006</ele><time>2026-04-19T11:10:09Z</time></trkpt><trkpt lat="45.13758641037618" lon="7.048084162677913"><ele>502.00000000000006</ele><time>2026-04-19T11:10:10Z</time></trkpt><trkpt lat="45.13749135386915" lon="7.048055792086093"><ele>502.0</ele><time>2026-04-19T11:10:11Z</time></trkpt><trkpt lat="45.137402616191075" lon="7.048003230921037"><ele>502.0</ele><time>2026-04-19T11:10:12Z</time></trkpt><trkpt lat="45.13731535072627" lon="7.047982794982593"><ele>501.6666666666667</ele><time>2026-04-19T11:10:13Z</time></trkpt><trkpt lat="45.13722350515704" lon="7.047980375454628"><ele>501.33333333333337</ele><time>2026-04-19T11:10:14Z</time></trkpt><trkpt lat="45.13714478633597" lon="7.047981580816367"><ele>501.0</ele><time>2026-04-19T11:10:15Z</time></trkpt><trkpt lat="45.13707557380705" lon="7.047988366559201"><ele>500.66666666666663</ele><time>2026-04-19T11:10:16Z</time></trkpt><trkpt lat="45.13699903025858" lon="7.0479701368537055"><ele>500.3333333333333</ele><time>2026-04-19T11:10:17Z</time></trkpt><trkpt lat="45.13693364681084" lon="7.047912141340177"><ele>500.0</ele><time>2026-04-19T11:10:18Z</time></trkpt><trkpt lat="45.13685687976416" lon="7.047862918392259"><ele>500.0</ele><time>2026-04-19T11:10:19Z</time></trkpt><trkpt lat="45.13676892743782" lon="7.0478358693438095"><ele>500.0</ele><time>2026-04-19T11:10:20Z</time></trkpt><trkpt lat="45.136677275538446" lon="7.047796675301905"><ele>500.0</ele><time>2026-04-19T11:10:21Z</time></trkpt><trkpt lat="45.13658884912124" lon="7.047739951165691"><ele>500.0</ele><time>2026-04-19T11:10:22Z</time></trkpt><trkpt lat="45.136481793913596" lon="7.047749379674414"><ele>500.0</ele><time>2026-04-19T11:10:23Z</time></trkpt><trkpt lat="45.13637666773616" lon="7.047766736937865"><ele>501.0</ele><time>2026-04-19T11:10:24Z</time></trkpt><trkpt lat="45.13627280388302" lon="7.047735243977108"><ele>502.0</ele><time>2026-04-19T11:10:25Z</time></trkpt><trkpt lat="45.13616131574598" lon="7.0477343409754765"><ele>503.0</ele><time>2026-04-19T11:10:26Z</time></trkpt><trkpt lat="45.136043327786524" lon="7.047675167145327"><ele>504.0</ele><time>2026-04-19T11:10:27Z</time></trkpt><trkpt lat="45.13592888977452" lon="7.047600091039329"><ele>504.0</ele><time>2026-04-19T11:10:28Z</time></trkpt><trkpt lat="45.13579679405697" lon="7.047567365588968"><ele>504.0</ele><time>2026-04-19T11:10:29Z</time></trkpt><trkpt lat="45.13570094244315" lon="7.047364688385037"><ele>504.0</ele><time>2026-04-19T11:10:30Z</time></trkpt><trkpt lat="45.13558527741912" lon="7.0472515341107815"><ele>504.0</ele><time>2026-04-19T11:10:31Z</time></trkpt><trkpt lat="45.13546380793002" lon="7.047112489742945"><ele>507.0</ele><time>2026-04-19T11:10:32Z</time></trkpt><trkpt lat="45.135565357387264" lon="7.047625053443694"><ele>510.0</ele><time>2026-04-19T11:10:33Z</time></trkpt><trkpt lat="45.13547866703282" lon="7.047652331950528"><ele>510.0</ele><time>2026-04-19T11:10:34Z</time></trkpt><trkpt lat="45.1353920742552" lon="7.047702131822632"><ele>510.0</ele><time>2026-04-19T11:10:35Z</time></trkpt><trkpt lat="45.13530870384887" lon="7.047745513404218"><ele>510.0</ele><time>2026-04-19T11:10:36Z</time></trkpt><trkpt lat="45.135238836144644" lon="7.047725168969702"><ele>510.0</ele><time>2026-04-19T11:10:37Z</time></trkpt><trkpt lat="45.13519540091231" lon="7.0476538910554805"><ele>510.0</ele><time>2026-04-19T11:10:38Z</time></trkpt><trkpt lat="45.13510839273663" lon="7.047595644520827"><ele>510.0</ele><time>2026-04-19T11:10:39Z</time></trkpt><trkpt lat="45.135014688758574" lon="7.047532915490357"><ele>510.0</ele><time>2026-04-19T11:10:40Z</time></trkpt><trkpt lat="45.1349227203442" lon="7.047475563983039"><ele>510.0</ele><time>2026-04-19T11:10:41Z</time></trkpt><trkpt lat="45.1348235140233" lon="7.047448259594204"><ele>510.0</ele><time>2026-04-19T11:10:42Z</time></trkpt><trkpt lat="45.13472345724077" lon="7.047410894610494"><ele>510.0</ele><time>2026-04-19T11:10:43Z</time></trkpt><trkpt lat="45.134617700295784" lon="7.047414556401837"><ele>510.0</ele><time>2026-04-19T11:10:44Z</time></trkpt><trkpt lat="45.134503162207245" lon="7.047426642393527"><ele>510.25</ele><time>2026-04-19T11:10:45Z</time></trkpt><trkpt lat="45.13440732615286" lon="7.047352885559063"><ele>510.5</ele><time>2026-04-19T11:10:46Z</time></trkpt><trkpt lat="45.134302337322225" lon="7.0472930780620855"><ele>510.75</ele><time>2026-04-19T11:10:47Z</time></trkpt><trkpt lat="45.13419650587371" lon="7.047228830410256"><ele>511.0</ele><time>2026-04-19T11:10:48Z</time></trkpt><trkpt lat="45.134088268159275" lon="7.0471631226464755"><ele>511.75</ele><time>2026-04-19T11:10:49Z</time></trkpt><trkpt lat="45.133976610203625" lon="7.047092254861192"><ele>512.5</ele><time>2026-04-19T11:10:50Z</time></trkpt><trkpt lat="45.133865713660356" lon="7.047035155506989"><ele>513.25</ele><time>2026-04-19T11:10:51Z</time></trkpt><trkpt lat="45.13373007384411" lon="7.047025491766332"><ele>514.0</ele><time>2026-04-19T11:10:52Z</time></trkpt><trkpt lat="45.133574010817" lon="7.047030002103072"><ele>514.0</ele><time>2026-04-19T11:10:53Z</time></trkpt><trkpt lat="45.133412312149716" lon="7.047018733626109"><ele>514.0</ele><time>2026-04-19T11:10:54Z</time></trkpt><trkpt lat="45.133270382340655" lon="7.04695721900908"><ele>514.0</ele><time>2026-04-19T11:10:55Z</time></trkpt><trkpt lat="45.133159470634105" lon="7.046931335852021"><ele>514.0</ele><time>2026-04-19T11:10:56Z</time></trkpt><trkpt lat="45.13306685346724" lon="7.046842806415423"><ele>515.75</ele><time>2026-04-19T11:10:57Z</time></trkpt><trkpt lat="45.13299981133428" lon="7.0467236213701385"><ele>517.5</ele><time>2026-04-19T11:10:58Z</time></trkpt><trkpt lat="45.13290230052721" lon="7.046589701413284"><ele>519.25</ele><time>2026-04-19T11:10:59Z</time></trkpt><trkpt lat="45.13278001837164" lon="7.0464491611199636"><ele>521.0</ele><time>2026-04-19T11:11:00Z</time></trkpt><trkpt lat="45.13265337201408" lon="7.046277483560487"><ele>521.6666666666666</ele><time>2026-04-19T11:11:01Z</time></trkpt><trkpt lat="45.13252423276605" lon="7.046129755948126"><ele>522.3333333333334</ele><time>2026-04-19T11:11:02Z</time></trkpt><trkpt lat="45.132400023886255" lon="7.045987260307635"><ele>523.0</ele><time>2026-04-19T11:11:03Z</time></trkpt><trkpt lat="45.132274609064936" lon="7.045848771323997"><ele>525.0</ele><time>2026-04-19T11:11:04Z</time></trkpt><trkpt lat="45.1321515045653" lon="7.045681041911407"><ele>527.0</ele><time>2026-04-19T11:11:05Z</time></trkpt><trkpt lat="45.13201750805197" lon="7.045522586889253"><ele>529.0</ele><time>2026-04-19T11:11:06Z</time></trkpt><trkpt lat="45.13189231215351" lon="7.045347389038088"><ele>529.0</ele><time>2026-04-19T11:11:07Z</time></trkpt><trkpt lat="45.13177626600056" lon="7.045160648707066"><ele>529.0</ele><time>2026-04-19T11:11:08Z</time></trkpt><trkpt lat="45.13165515608191" lon="7.044984337831011"><ele>529.0</ele><time>2026-04-19T11:11:09Z</time></trkpt><trkpt lat="45.1315531062233" lon="7.044782784060072"><ele>532.3333333333334</ele><time>2026-04-19T11:11:10Z</time></trkpt><trkpt lat="45.13146106629166" lon="7.044554883053628"><ele>535.6666666666666</ele><time>2026-04-19T11:11:11Z</time></trkpt><trkpt lat="45.13135102641354" lon="7.044320369332824"><ele>539.0</ele><time>2026-04-19T11:11:12Z</time></trkpt><trkpt lat="45.13126566065022" lon="7.0440919481086395"><ele>540.6666666666666</ele><time>2026-04-19T11:11:13Z</time></trkpt><trkpt lat="45.1312259195434" lon="7.0438531204914945"><ele>542.3333333333334</ele><time>2026-04-19T11:11:14Z</time></trkpt><trkpt lat="45.13122978554089" lon="7.043584571918862"><ele>544.0</ele><time>2026-04-19T11:11:15Z</time></trkpt><trkpt lat="45.13125801181419" lon="7.043315783579058"><ele>545.0</ele><time>2026-04-19T11:11:16Z</time></trkpt><trkpt lat="45.13126764998513" lon="7.043070950669863"><ele>546.0</ele><time>2026-04-19T11:11:17Z</time></trkpt><trkpt lat="45.13119266134229" lon="7.0428718586802255"><ele>547.0</ele><time>2026-04-19T11:11:18Z</time></trkpt><trkpt lat="45.13103623831745" lon="7.042708506658188"><ele>547.0</ele><time>2026-04-19T11:11:19Z</time></trkpt><trkpt lat="45.130832420623086" lon="7.042632165625914"><ele>547.0</ele><time>2026-04-19T11:11:20Z</time></trkpt><trkpt lat="45.130623838964354" lon="7.042609610736432"><ele>547.0</ele><time>2026-04-19T11:11:21Z</time></trkpt><trkpt lat="45.1304525504649" lon="7.042548747346071"><ele>548.25</ele><time>2026-04-19T11:11:22Z</time></trkpt><trkpt lat="45.130325847237785" lon="7.042509225787723"><ele>549.5</ele><time>2026-04-19T11:11:23Z</time></trkpt><trkpt lat="45.13022883355343" lon="7.042419069174261"><ele>550.75</ele><time>2026-04-19T11:11:24Z</time></trkpt><trkpt lat="45.130186986677245" lon="7.042270157266852"><ele>552.0</ele><time>2026-04-19T11:11:25Z</time></trkpt><trkpt lat="45.13020660986373" lon="7.042074659390778"><ele>553.6666666666666</ele><time>2026-04-19T11:11:26Z</time></trkpt><trkpt lat="45.13029398640834" lon="7.041918062355524"><ele>555.3333333333333</ele><time>2026-04-19T11:11:27Z</time></trkpt><trkpt lat="45.130430237900825" lon="7.04186168363363"><ele>557.0</ele><time>2026-04-19T11:11:28Z</time></trkpt><trkpt lat="45.130596444461084" lon="7.0419030490713945"><ele>558.0</ele><time>2026-04-19T11:11:29Z</time></trkpt><trkpt lat="45.130786018524596" lon="7.0420071650238185"><ele>559.0</ele><time>2026-04-19T11:11:30Z</time></trkpt><trkpt lat="45.131010264473076" lon="7.04210316512873"><ele>560.0</ele><time>2026-04-19T11:11:31Z</time></trkpt><trkpt lat="45.131254567221376" lon="7.042179369133299"><ele>560.0</ele><time>2026-04-19T11:11:32Z</time></trkpt><trkpt lat="45.13151756733897" lon="7.042262417289112"><ele>560.0</ele><time>2026-04-19T11:11:33Z</time></trkpt><trkpt lat="45.13176691456374" lon="7.042303662674907"><ele>563.6666666666666</ele><time>2026-04-19T11:11:34Z</time></trkpt><trkpt lat="45.131973425908136" lon="7.042264564237791"><ele>567.3333333333334</ele><time>2026-04-19T11:11:35Z</time></trkpt><trkpt lat="45.132144929412426" lon="7.0422409345645445"><ele>571.0</ele><time>2026-04-19T11:11:36Z</time></trkpt><trkpt lat="45.13229083939395" lon="7.042312944781995"><ele>566.6666666666667</ele><time>2026-04-19T11:11:37Z</time></trkpt><trkpt lat="45.13240802625468" lon="7.042490348234102"><ele>562.3333333333334</ele><time>2026-04-19T11:11:38Z</time></trkpt><trkpt lat="45.13245123906757" lon="7.0427552664944475"><ele>558.0</ele><time>2026-04-19T11:11:39Z</time></trkpt><trkpt lat="45.13248300153688" lon="7.043071347132832"><ele>555.3333333333334</ele><time>2026-04-19T11:11:40Z</time></trkpt><trkpt lat="45.13250092500356" lon="7.043377516999044"><ele>552.6666666666667</ele><time>2026-04-19T11:11:41Z</time></trkpt><trkpt lat="45.132556072021785" lon="7.043613755391575"><ele>550.0</ele><time>2026-04-19T11:11:42Z</time></trkpt><trkpt lat="45.132649763103274" lon="7.043744314204105"><ele>550.0</ele><time>2026-04-19T11:11:43Z</time></trkpt><trkpt lat="45.13276596500108" lon="7.043807441862924"><ele>550.0</ele><time>2026-04-19T11:11:44Z</time></trkpt><trkpt lat="45.13291847880308" lon="7.043779770212236"><ele>550.0</ele><time>2026-04-19T11:11:45Z</time></trkpt><trkpt lat="45.13303353408771" lon="7.043633335395235"><ele>550.0</ele><time>2026-04-19T11:11:46Z</time></trkpt><trkpt lat="45.1330788480684" lon="7.043404871022334"><ele>552.6666666666667</ele><time>2026-04-19T11:11:47Z</time></trkpt><trkpt lat="45.13305271985872" lon="7.04313123603372"><ele>555.3333333333334</ele><time>2026-04-19T11:11:48Z</time></trkpt><trkpt lat="45.13295286231116" lon="7.042843585397866"><ele>558.0</ele><time>2026-04-19T11:11:49Z</time></trkpt><trkpt lat="45.13282766858085" lon="7.0425257683994795"><ele>561.6666666666666</ele><time>2026-04-19T11:11:50Z</time></trkpt><trkpt lat="45.13278076954852" lon="7.042207762799942"><ele>565.3333333333333</ele><time>2026-04-19T11:11:51Z</time></trkpt><trkpt lat="45.1327810787219" lon="7.041929642871941"><ele>569.0</ele><time>2026-04-19T11:11:52Z</time></trkpt><trkpt lat="45.13283521640307" lon="7.041638800143552"><ele>572.0</ele><time>2026-04-19T11:11:53Z</time></trkpt><trkpt lat="45.13294986400638" lon="7.041365129287476"><ele>575.0</ele><time>2026-04-19T11:11:54Z</time></trkpt><trkpt lat="45.133083857275714" lon="7.041171832400802"><ele>578.0</ele><time>2026-04-19T11:11:55Z</time></trkpt><trkpt lat="45.13321266869174" lon="7.041018376360173"><ele>577.0</ele><time>2026-04-19T11:11:56Z</time></trkpt><trkpt lat="45.13332536216523" lon="7.040856376957144"><ele>576.0</ele><time>2026-04-19T11:11:57Z</time></trkpt><trkpt lat="45.133406398541055" lon="7.04064895188518"><ele>575.0</ele><time>2026-04-19T11:11:58Z</time></trkpt><trkpt lat="45.1334241222784" lon="7.040370299234344"><ele>580.0</ele><time>2026-04-19T11:11:59Z</time></trkpt><trkpt lat="45.13334829567901" lon="7.040080075514624"><ele>585.0</ele><time>2026-04-19T11:12:00Z</time></trkpt><trkpt lat="45.133209842098516" lon="7.039837124704205"><ele>590.0</ele><time>2026-04-19T11:12:01Z</time></trkpt><trkpt lat="45.13300151136305" lon="7.039645037279186"><ele>600.0</ele><time>2026-04-19T11:12:02Z</time></trkpt><trkpt lat="45.13275132048304" lon="7.039470346037223"><ele>610.0</ele><time>2026-04-19T11:12:03Z</time></trkpt><trkpt lat="45.13254718616095" lon="7.039387280203526"><ele>609.3333333333334</ele><time>2026-04-19T11:12:04Z</time></trkpt><trkpt lat="45.13237871388323" lon="7.039434367938467"><ele>608.6666666666666</ele><time>2026-04-19T11:12:05Z</time></trkpt><trkpt lat="45.13222626405305" lon="7.039595819127531"><ele>608.0</ele><time>2026-04-19T11:12:06Z</time></trkpt><trkpt lat="45.132123488220294" lon="7.0398137446004"><ele>606.6666666666666</ele><time>2026-04-19T11:12:07Z</time></trkpt><trkpt lat="45.13204015998276" lon="7.040094586217528"><ele>605.3333333333334</ele><time>2026-04-19T11:12:08Z</time></trkpt><trkpt lat="45.131901319626536" lon="7.040263112385814"><ele>604.0</ele><time>2026-04-19T11:12:09Z</time></trkpt><trkpt lat="45.13171117509511" lon="7.040371030912301"><ele>600.0</ele><time>2026-04-19T11:12:10Z</time></trkpt><trkpt lat="45.13152750028952" lon="7.040463781426079"><ele>596.0</ele><time>2026-04-19T11:12:11Z</time></trkpt><trkpt lat="45.13137702800963" lon="7.040486009875221"><ele>592.0</ele><time>2026-04-19T11:12:12Z</time></trkpt><trkpt lat="45.131241539796946" lon="7.040413775017122"><ele>592.0</ele><time>2026-04-19T11:12:13Z</time></trkpt><trkpt lat="45.131106215081324" lon="7.040302334460309"><ele>592.0</ele><time>2026-04-19T11:12:14Z</time></trkpt><trkpt lat="45.13102929063323" lon="7.04007411707378"><ele>592.0</ele><time>2026-04-19T11:12:15Z</time></trkpt><trkpt lat="45.131001699276396" lon="7.039849926335394"><ele>593.3333333333334</ele><time>2026-04-19T11:12:16Z</time></trkpt><trkpt lat="45.13104369603077" lon="7.039600857284726"><ele>594.6666666666666</ele><time>2026-04-19T11:12:17Z</time></trkpt><trkpt lat="45.13116640567705" lon="7.0393981737098015"><ele>596.0</ele><time>2026-04-19T11:12:18Z</time></trkpt><trkpt lat="45.13133449529522" lon="7.03923020665099"><ele>597.0</ele><time>2026-04-19T11:12:19Z</time></trkpt><trkpt lat="45.13150466688406" lon="7.039032965259304"><ele>598.0</ele><time>2026-04-19T11:12:20Z</time></trkpt><trkpt lat="45.13164603017404" lon="7.038821192104881"><ele>599.0</ele><time>2026-04-19T11:12:21Z</time></trkpt><trkpt lat="45.13172625655256" lon="7.038498328933111"><ele>609.5</ele><time>2026-04-19T11:12:22Z</time></trkpt><trkpt lat="45.131731605005996" lon="7.03814641549288"><ele>620.0</ele><time>2026-04-19T11:12:23Z</time></trkpt><trkpt lat="45.13167653464341" lon="7.037768234175709"><ele>614.0</ele><time>2026-04-19T11:12:24Z</time></trkpt><trkpt lat="45.13160157729919" lon="7.037352466584547"><ele>608.0</ele><time>2026-04-19T11:12:25Z</time></trkpt><trkpt lat="45.13154079553263" lon="7.036889480769283"><ele>612.5</ele><time>2026-04-19T11:12:26Z</time></trkpt><trkpt lat="45.13148122264682" lon="7.03642049372959"><ele>617.0</ele><time>2026-04-19T11:12:27Z</time></trkpt><trkpt lat="45.13142045854493" lon="7.035917037993837"><ele>623.5</ele><time>2026-04-19T11:12:28Z</time></trkpt><trkpt lat="45.13135551391335" lon="7.035404872448887"><ele>630.0</ele><time>2026-04-19T11:12:29Z</time></trkpt><trkpt lat="45.13127820461126" lon="7.0348939877441135"><ele>634.5</ele><time>2026-04-19T11:12:30Z</time></trkpt><trkpt lat="45.13115682991597" lon="7.034408847486889"><ele>639.0</ele><time>2026-04-19T11:12:31Z</time></trkpt><trkpt lat="45.130979353150266" lon="7.033955986608859"><ele>645.5</ele><time>2026-04-19T11:12:32Z</time></trkpt><trkpt lat="45.1307766321694" lon="7.033567328651474"><ele>652.0</ele><time>2026-04-19T11:12:33Z</time></trkpt><trkpt lat="45.13058351382233" lon="7.033199291318775"><ele>652.0</ele><time>2026-04-19T11:12:34Z</time></trkpt><trkpt lat="45.13041119089614" lon="7.032855069379382"><ele>652.0</ele><time>2026-04-19T11:12:35Z</time></trkpt><trkpt lat="45.13026019969842" lon="7.032539658332493"><ele>658.5</ele><time>2026-04-19T11:12:36Z</time></trkpt><trkpt lat="45.13012145937042" lon="7.032254162368467"><ele>665.0</ele><time>2026-04-19T11:12:37Z</time></trkpt><trkpt lat="45.129996836543974" lon="7.032010542305098"><ele>665.0</ele><time>2026-04-19T11:12:38Z</time></trkpt><trkpt lat="45.12990374004197" lon="7.031838350900078"><ele>665.0</ele><time>2026-04-19T11:12:39Z</time></trkpt><trkpt lat="45.129827315812385" lon="7.031689716213506"><ele>665.0</ele><time>2026-04-19T11:12:40Z</time></trkpt><trkpt lat="45.129734996598344" lon="7.031549263469641"><ele>665.0</ele><time>2026-04-19T11:12:41Z</time></trkpt><trkpt lat="45.1296315257692" lon="7.03138933243009"><ele>669.6666666666666</ele><time>2026-04-19T11:12:42Z</time></trkpt><trkpt lat="45.12950822066586" lon="7.0312164664575025"><ele>674.3333333333334</ele><time>2026-04-19T11:12:43Z</time></trkpt><trkpt lat="45.12937552045206" lon="7.031015792353592"><ele>679.0</ele><time>2026-04-19T11:12:44Z</time></trkpt><trkpt lat="45.12924046324288" lon="7.030767668781529"><ele>680.5</ele><time>2026-04-19T11:12:45Z</time></trkpt><trkpt lat="45.129132779798354" lon="7.030459508965276"><ele>682.0</ele><time>2026-04-19T11:12:46Z</time></trkpt><trkpt lat="45.1290895608476" lon="7.030121085807011"><ele>685.5</ele><time>2026-04-19T11:12:47Z</time></trkpt><trkpt lat="45.12912371619773" lon="7.029794479503286"><ele>689.0</ele><time>2026-04-19T11:12:48Z</time></trkpt><trkpt lat="45.12924270860877" lon="7.0294968978059575"><ele>689.0</ele><time>2026-04-19T11:12:49Z</time></trkpt><trkpt lat="45.129410031499546" lon="7.0292125102906065"><ele>689.0</ele><time>2026-04-19T11:12:50Z</time></trkpt><trkpt lat="45.129568041194396" lon="7.0289189693102765"><ele>690.5</ele><time>2026-04-19T11:12:51Z</time></trkpt><trkpt lat="45.129655331502406" lon="7.028594208007754"><ele>692.0</ele><time>2026-04-19T11:12:52Z</time></trkpt><trkpt lat="45.129669775604796" lon="7.028224780828581"><ele>693.5</ele><time>2026-04-19T11:12:53Z</time></trkpt><trkpt lat="45.12964693503577" lon="7.027823623722928"><ele>695.0</ele><time>2026-04-19T11:12:54Z</time></trkpt><trkpt lat="45.129654294504526" lon="7.027410974817378"><ele>695.0</ele><time>2026-04-19T11:12:55Z</time></trkpt><trkpt lat="45.12967112690104" lon="7.027007446797343"><ele>695.0</ele><time>2026-04-19T11:12:56Z</time></trkpt><trkpt lat="45.129664906018235" lon="7.026603904005582"><ele>696.0</ele><time>2026-04-19T11:12:57Z</time></trkpt><trkpt lat="45.12961612604352" lon="7.026200452588056"><ele>697.0</ele><time>2026-04-19T11:12:58Z</time></trkpt><trkpt lat="45.12951368567485" lon="7.025817764722306"><ele>697.5</ele><time>2026-04-19T11:12:59Z</time></trkpt><trkpt lat="45.129359415210644" lon="7.025472041950852"><ele>698.0</ele><time>2026-04-19T11:13:00Z</time></trkpt><trkpt lat="45.12917905993369" lon="7.025165862085724"><ele>704.0</ele><time>2026-04-19T11:13:01Z</time></trkpt><trkpt lat="45.12899467571033" lon="7.024916805633601"><ele>710.0</ele><time>2026-04-19T11:13:02Z</time></trkpt><trkpt lat="45.12876747106936" lon="7.02470283292845"><ele>710.0</ele><time>2026-04-19T11:13:03Z</time></trkpt><trkpt lat="45.12849330152608" lon="7.024517080265464"><ele>710.0</ele><time>2026-04-19T11:13:04Z</time></trkpt><trkpt lat="45.128208159630674" lon="7.024289459014439"><ele>715.5</ele><time>2026-04-19T11:13:05Z</time></trkpt><trkpt lat="45.12791594926973" lon="7.024021646909405"><ele>721.0</ele><time>2026-04-19T11:13:06Z</time></trkpt><trkpt lat="45.1276143136359" lon="7.0237572478651975"><ele>723.5</ele><time>2026-04-19T11:13:07Z</time></trkpt><trkpt lat="45.12730218049267" lon="7.02349523768327"><ele>726.0</ele><time>2026-04-19T11:13:08Z</time></trkpt><trkpt lat="45.12699112920396" lon="7.023227084413478"><ele>726.0</ele><time>2026-04-19T11:13:09Z</time></trkpt><trkpt lat="45.12668506378556" lon="7.022968580868889"><ele>726.0</ele><time>2026-04-19T11:13:10Z</time></trkpt><trkpt lat="45.126419714317215" lon="7.022747969050606"><ele>734.0</ele><time>2026-04-19T11:13:11Z</time></trkpt><trkpt lat="45.126175183815384" lon="7.022541133230626"><ele>742.0</ele><time>2026-04-19T11:13:12Z</time></trkpt><trkpt lat="45.1259640423307" lon="7.022332003461622"><ele>742.0</ele><time>2026-04-19T11:13:13Z</time></trkpt><trkpt lat="45.125787916791666" lon="7.022100854649714"><ele>742.0</ele><time>2026-04-19T11:13:14Z</time></trkpt><trkpt lat="45.1256661217947" lon="7.021830861752945"><ele>757.3333333333334</ele><time>2026-04-19T11:13:15Z</time></trkpt><trkpt lat="45.12560511949234" lon="7.02153656106709"><ele>772.6666666666667</ele><time>2026-04-19T11:13:16Z</time></trkpt><trkpt lat="45.12559468072496" lon="7.021248925677697"><ele>788.0</ele><time>2026-04-19T11:13:17Z</time></trkpt><trkpt lat="45.12561988535049" lon="7.020960398001292"><ele>783.6666666666667</ele><time>2026-04-19T11:13:18Z</time></trkpt><trkpt lat="45.12568867518607" lon="7.0206819986072935"><ele>779.3333333333333</ele><time>2026-04-19T11:13:19Z</time></trkpt><trkpt lat="45.12580072279966" lon="7.020430232519597"><ele>775.0</ele><time>2026-04-19T11:13:20Z</time></trkpt><trkpt lat="45.12595387624826" lon="7.020196533721778"><ele>768.6666666666666</ele><time>2026-04-19T11:13:21Z</time></trkpt><trkpt lat="45.12607757014406" lon="7.019985540823037"><ele>762.3333333333333</ele><time>2026-04-19T11:13:22Z</time></trkpt><trkpt lat="45.12616019500446" lon="7.019778417889486"><ele>756.0</ele><time>2026-04-19T11:13:23Z</time></trkpt><trkpt lat="45.126223567759496" lon="7.019577272818101"><ele>756.0</ele><time>2026-04-19T11:13:24Z</time></trkpt><trkpt lat="45.126278579269055" lon="7.019382536216327"><ele>756.0</ele><time>2026-04-19T11:13:25Z</time></trkpt><trkpt lat="45.126342026208334" lon="7.019184695908172"><ele>756.0</ele><time>2026-04-19T11:13:26Z</time></trkpt><trkpt lat="45.12640813124512" lon="7.018982660337426"><ele>758.6666666666666</ele><time>2026-04-19T11:13:27Z</time></trkpt><trkpt lat="45.12646436500216" lon="7.018772821259944"><ele>761.3333333333333</ele><time>2026-04-19T11:13:28Z</time></trkpt><trkpt lat="45.126509562586506" lon="7.018542361926903"><ele>764.0</ele><time>2026-04-19T11:13:29Z</time></trkpt><trkpt lat="45.12654299877614" lon="7.018317327170066"><ele>765.3333333333333</ele><time>2026-04-19T11:13:30Z</time></trkpt><trkpt lat="45.12656054876917" lon="7.018095757129954"><ele>766.6666666666666</ele><time>2026-04-19T11:13:31Z</time></trkpt><trkpt lat="45.12657822359496" lon="7.0178740151008485"><ele>768.0</ele><time>2026-04-19T11:13:32Z</time></trkpt><trkpt lat="45.126587257611966" lon="7.017647223282478"><ele>765.3333333333334</ele><time>2026-04-19T11:13:33Z</time></trkpt><trkpt lat="45.126607806315604" lon="7.017417169610785"><ele>762.6666666666667</ele><time>2026-04-19T11:13:34Z</time></trkpt><trkpt lat="45.12666726600386" lon="7.0171930736398895"><ele>760.0</ele><time>2026-04-19T11:13:35Z</time></trkpt><trkpt lat="45.12675120984744" lon="7.016975007021505"><ele>760.0</ele><time>2026-04-19T11:13:36Z</time></trkpt><trkpt lat="45.12683139899749" lon="7.016744100276313"><ele>760.0</ele><time>2026-04-19T11:13:37Z</time></trkpt><trkpt lat="45.12688712495802" lon="7.0164886938745665"><ele>760.0</ele><time>2026-04-19T11:13:38Z</time></trkpt><trkpt lat="45.12692922407132" lon="7.016206562527731"><ele>760.0</ele><time>2026-04-19T11:13:39Z</time></trkpt><trkpt lat="45.1269779978496" lon="7.01591131409008"><ele>760.0</ele><time>2026-04-19T11:13:40Z</time></trkpt><trkpt lat="45.127040484927605" lon="7.015619642318167"><ele>760.0</ele><time>2026-04-19T11:13:41Z</time></trkpt><trkpt lat="45.127111999150166" lon="7.015334493950121"><ele>759.6666666666667</ele><time>2026-04-19T11:13:42Z</time></trkpt><trkpt lat="45.12719026168792" lon="7.015059997182954"><ele>759.3333333333334</ele><time>2026-04-19T11:13:43Z</time></trkpt><trkpt lat="45.12726952271778" lon="7.014795821241651"><ele>759.0</ele><time>2026-04-19T11:13:44Z</time></trkpt><trkpt lat="45.127324718238235" lon="7.014518031417914"><ele>758.6666666666666</ele><time>2026-04-19T11:13:45Z</time></trkpt><trkpt lat="45.1273491121798" lon="7.01421043213527"><ele>758.3333333333333</ele><time>2026-04-19T11:13:46Z</time></trkpt><trkpt lat="45.12734201266101" lon="7.013892750188727"><ele>758.0</ele><time>2026-04-19T11:13:47Z</time></trkpt><trkpt lat="45.12731776865238" lon="7.0136091676604995"><ele>758.0</ele><time>2026-04-19T11:13:48Z</time></trkpt><trkpt lat="45.1272872337166" lon="7.013347224353274"><ele>758.0</ele><time>2026-04-19T11:13:49Z</time></trkpt><trkpt lat="45.127260159766145" lon="7.0130844260076595"><ele>758.0</ele><time>2026-04-19T11:13:50Z</time></trkpt><trkpt lat="45.127233521863246" lon="7.012816048064064"><ele>756.3333333333333</ele><time>2026-04-19T11:13:51Z</time></trkpt><trkpt lat="45.127204392822044" lon="7.012530673220211"><ele>754.6666666666666</ele><time>2026-04-19T11:13:52Z</time></trkpt><trkpt lat="45.12717433069347" lon="7.012224508082014"><ele>753.0</ele><time>2026-04-19T11:13:53Z</time></trkpt><trkpt lat="45.12714276252453" lon="7.0119165896074795"><ele>750.0</ele><time>2026-04-19T11:13:54Z</time></trkpt><trkpt lat="45.12710759307121" lon="7.011606622421713"><ele>747.0</ele><time>2026-04-19T11:13:55Z</time></trkpt><trkpt lat="45.12706204419749" lon="7.011288703270174"><ele>747.0</ele><time>2026-04-19T11:13:56Z</time></trkpt><trkpt lat="45.12701658691524" lon="7.01096369584329"><ele>747.0</ele><time>2026-04-19T11:13:57Z</time></trkpt><trkpt lat="45.126967841261994" lon="7.010631017153096"><ele>746.5</ele><time>2026-04-19T11:13:58Z</time></trkpt><trkpt lat="45.1269149786745" lon="7.010289331008649"><ele>746.0</ele><time>2026-04-19T11:13:59Z</time></trkpt><trkpt lat="45.12686339809666" lon="7.009940859671055"><ele>744.5</ele><time>2026-04-19T11:14:00Z</time></trkpt><trkpt lat="45.12680956554814" lon="7.009588042894037"><ele>743.0</ele><time>2026-04-19T11:14:01Z</time></trkpt><trkpt lat="45.126757150694225" lon="7.009228001477509"><ele>739.5</ele><time>2026-04-19T11:14:02Z</time></trkpt><trkpt lat="45.1266998888913" lon="7.008885436759176"><ele>736.0</ele><time>2026-04-19T11:14:03Z</time></trkpt><trkpt lat="45.126644559881115" lon="7.008541630628224"><ele>736.0</ele><time>2026-04-19T11:14:04Z</time></trkpt><trkpt lat="45.12659048363946" lon="7.008185465416955"><ele>736.0</ele><time>2026-04-19T11:14:05Z</time></trkpt><trkpt lat="45.12653875205317" lon="7.007828038930469"><ele>740.5</ele><time>2026-04-19T11:14:06Z</time></trkpt><trkpt lat="45.126486751997966" lon="7.007469789169569"><ele>745.0</ele><time>2026-04-19T11:14:07Z</time></trkpt><trkpt lat="45.12643357771247" lon="7.007108825873408"><ele>745.0</ele><time>2026-04-19T11:14:08Z</time></trkpt><trkpt lat="45.12637737268944" lon="7.006751103372663"><ele>745.0</ele><time>2026-04-19T11:14:09Z</time></trkpt><trkpt lat="45.126315191729084" lon="7.006399731490057"><ele>745.5</ele><time>2026-04-19T11:14:10Z</time></trkpt><trkpt lat="45.126240066303396" lon="7.006056110094318"><ele>746.0</ele><time>2026-04-19T11:14:11Z</time></trkpt><trkpt lat="45.12615371699192" lon="7.005719986523493"><ele>744.5</ele><time>2026-04-19T11:14:12Z</time></trkpt><trkpt lat="45.126059903733754" lon="7.005385086006008"><ele>743.0</ele><time>2026-04-19T11:14:13Z</time></trkpt><trkpt lat="45.125956671434956" lon="7.005064525726175"><ele>744.5</ele><time>2026-04-19T11:14:14Z</time></trkpt><trkpt lat="45.125838610840326" lon="7.00474967993067"><ele>746.0</ele><time>2026-04-19T11:14:15Z</time></trkpt><trkpt lat="45.125712909856205" lon="7.0044403022651185"><ele>745.0</ele><time>2026-04-19T11:14:16Z</time></trkpt><trkpt lat="45.125589940049224" lon="7.004132342115992"><ele>744.0</ele><time>2026-04-19T11:14:17Z</time></trkpt><trkpt lat="45.12546572529191" lon="7.003825675795537"><ele>744.0</ele><time>2026-04-19T11:14:18Z</time></trkpt><trkpt lat="45.12533871533977" lon="7.00352522695424"><ele>744.0</ele><time>2026-04-19T11:14:19Z</time></trkpt><trkpt lat="45.125198209696734" lon="7.003237891003558"><ele>743.0</ele><time>2026-04-19T11:14:20Z</time></trkpt><trkpt lat="45.12504677563414" lon="7.002963486203022"><ele>742.0</ele><time>2026-04-19T11:14:21Z</time></trkpt><trkpt lat="45.124894822255115" lon="7.002692714520474"><ele>744.5</ele><time>2026-04-19T11:14:22Z</time></trkpt><trkpt lat="45.12475601615916" lon="7.002422653169007"><ele>747.0</ele><time>2026-04-19T11:14:23Z</time></trkpt><trkpt lat="45.12467219810583" lon="7.002132949262958"><ele>747.0</ele><time>2026-04-19T11:14:24Z</time></trkpt><trkpt lat="45.124594141725694" lon="7.00184889042608"><ele>747.0</ele><time>2026-04-19T11:14:25Z</time></trkpt><trkpt lat="45.12458531555144" lon="7.001531376955233"><ele>747.0</ele><time>2026-04-19T11:14:26Z</time></trkpt><trkpt lat="45.1246057657424" lon="7.0012057214032835"><ele>746.0</ele><time>2026-04-19T11:14:27Z</time></trkpt><trkpt lat="45.12462315937562" lon="7.000863485471874"><ele>745.0</ele><time>2026-04-19T11:14:28Z</time></trkpt><trkpt lat="45.124668288897126" lon="7.0005152901381305"><ele>745.0</ele><time>2026-04-19T11:14:29Z</time></trkpt><trkpt lat="45.12471588054787" lon="7.000159783582439"><ele>745.0</ele><time>2026-04-19T11:14:30Z</time></trkpt><trkpt lat="45.12475078680147" lon="6.999809175969358"><ele>745.0</ele><time>2026-04-19T11:14:31Z</time></trkpt><trkpt lat="45.12478878706559" lon="6.999454222111363"><ele>745.0</ele><time>2026-04-19T11:14:32Z</time></trkpt><trkpt lat="45.12480411320929" lon="6.999099381055366"><ele>743.5</ele><time>2026-04-19T11:14:33Z</time></trkpt><trkpt lat="45.12478242559735" lon="6.9987454097411455"><ele>742.0</ele><time>2026-04-19T11:14:34Z</time></trkpt><trkpt lat="45.12465316312937" lon="6.998446010504785"><ele>742.0</ele><time>2026-04-19T11:14:35Z</time></trkpt><trkpt lat="45.12453842720219" lon="6.998133396250871"><ele>742.0</ele><time>2026-04-19T11:14:36Z</time></trkpt><trkpt lat="45.12444956046357" lon="6.997803804118134"><ele>740.5</ele><time>2026-04-19T11:14:37Z</time></trkpt><trkpt lat="45.12434767483664" lon="6.9974930562401845"><ele>739.0</ele><time>2026-04-19T11:14:38Z</time></trkpt><trkpt lat="45.124004058294965" lon="6.997335976576753"><ele>744.0</ele><time>2026-04-19T11:14:39Z</time></trkpt><trkpt lat="45.1237943630265" lon="6.997096124501828"><ele>749.0</ele><time>2026-04-19T11:14:40Z</time></trkpt><trkpt lat="45.123726655062356" lon="6.996753873803486"><ele>746.5</ele><time>2026-04-19T11:14:41Z</time></trkpt><trkpt lat="45.12358457211223" lon="6.996463549189994"><ele>744.0</ele><time>2026-04-19T11:14:42Z</time></trkpt><trkpt lat="45.12345837628816" lon="6.99617960001619"><ele>744.0</ele><time>2026-04-19T11:14:43Z</time></trkpt><trkpt lat="45.1233445789885" lon="6.995883750756148"><ele>744.0</ele><time>2026-04-19T11:14:44Z</time></trkpt><trkpt lat="45.12324423437266" lon="6.995570734737792"><ele>746.5</ele><time>2026-04-19T11:14:45Z</time></trkpt><trkpt lat="45.123153138758894" lon="6.995230404726294"><ele>749.0</ele><time>2026-04-19T11:14:46Z</time></trkpt><trkpt lat="45.12306768269344" lon="6.994887438683057"><ele>749.0</ele><time>2026-04-19T11:14:47Z</time></trkpt><trkpt lat="45.12298649574422" lon="6.9945521069132495"><ele>749.0</ele><time>2026-04-19T11:14:48Z</time></trkpt><trkpt lat="45.12290754239637" lon="6.994240044870448"><ele>746.0</ele><time>2026-04-19T11:14:49Z</time></trkpt><trkpt lat="45.122822773566774" lon="6.993931081534546"><ele>743.0</ele><time>2026-04-19T11:14:50Z</time></trkpt><trkpt lat="45.122736205416025" lon="6.993615283526307"><ele>742.0</ele><time>2026-04-19T11:14:51Z</time></trkpt><trkpt lat="45.122654077725414" lon="6.993291123677949"><ele>741.0</ele><time>2026-04-19T11:14:52Z</time></trkpt><trkpt lat="45.12256755349042" lon="6.992962905519679"><ele>741.0</ele><time>2026-04-19T11:14:53Z</time></trkpt><trkpt lat="45.12248939236457" lon="6.992652440877472"><ele>741.0</ele><time>2026-04-19T11:14:54Z</time></trkpt><trkpt lat="45.1224150172746" lon="6.992378209629322"><ele>741.0</ele><time>2026-04-19T11:14:55Z</time></trkpt><trkpt lat="45.12235132725156" lon="6.9921318169364985"><ele>744.6666666666666</ele><time>2026-04-19T11:14:56Z</time></trkpt><trkpt lat="45.12228831473758" lon="6.9919054688432265"><ele>748.3333333333333</ele><time>2026-04-19T11:14:57Z</time></trkpt><trkpt lat="45.12223183326632" lon="6.99169682449377"><ele>752.0</ele><time>2026-04-19T11:14:58Z</time></trkpt><trkpt lat="45.12217419797223" lon="6.991502335760023"><ele>752.0</ele><time>2026-04-19T11:14:59Z</time></trkpt><trkpt lat="45.122119418429" lon="6.99129184906396"><ele>752.0</ele><time>2026-04-19T11:15:00Z</time></trkpt><trkpt lat="45.12206638762445" lon="6.991085170879458"><ele>752.0</ele><time>2026-04-19T11:15:01Z</time></trkpt><trkpt lat="45.12201539969073" lon="6.990876382682011"><ele>751.25</ele><time>2026-04-19T11:15:02Z</time></trkpt><trkpt lat="45.12198950153706" lon="6.9906568556212525"><ele>750.5</ele><time>2026-04-19T11:15:03Z</time></trkpt><trkpt lat="45.12196666921823" lon="6.990453917811127"><ele>749.75</ele><time>2026-04-19T11:15:04Z</time></trkpt><trkpt lat="45.12194227488851" lon="6.990253762262352"><ele>749.0</ele><time>2026-04-19T11:15:05Z</time></trkpt><trkpt lat="45.121903947877975" lon="6.990053194881614"><ele>748.75</ele><time>2026-04-19T11:15:06Z</time></trkpt><trkpt lat="45.1218470400009" lon="6.989857932884904"><ele>748.5</ele><time>2026-04-19T11:15:07Z</time></trkpt><trkpt lat="45.12177595909379" lon="6.9896731670280055"><ele>748.25</ele><time>2026-04-19T11:15:08Z</time></trkpt><trkpt lat="45.12170794555009" lon="6.989491307486077"><ele>748.0</ele><time>2026-04-19T11:15:09Z</time></trkpt><trkpt lat="45.12164750719478" lon="6.989318989701536"><ele>747.0</ele><time>2026-04-19T11:15:10Z</time></trkpt><trkpt lat="45.121589492207626" lon="6.989150948871505"><ele>746.0</ele><time>2026-04-19T11:15:11Z</time></trkpt><trkpt lat="45.12152858812746" lon="6.9889826322737605"><ele>745.0</ele><time>2026-04-19T11:15:12Z</time></trkpt><trkpt lat="45.121469275262676" lon="6.988819447246948"><ele>744.0</ele><time>2026-04-19T11:15:13Z</time></trkpt><trkpt lat="45.12141158756859" lon="6.988659197860197"><ele>747.0</ele><time>2026-04-19T11:15:14Z</time></trkpt><trkpt lat="45.12135606700156" lon="6.988509306989359"><ele>750.0</ele><time>2026-04-19T11:15:15Z</time></trkpt><trkpt lat="45.12130697424565" lon="6.98836440718588"><ele>753.0</ele><time>2026-04-19T11:15:16Z</time></trkpt><trkpt lat="45.12125519707141" lon="6.988223331842819"><ele>756.0</ele><time>2026-04-19T11:15:17Z</time></trkpt><trkpt lat="45.12120565866553" lon="6.988087434074994"><ele>756.0</ele><time>2026-04-19T11:15:18Z</time></trkpt><trkpt lat="45.12115962129764" lon="6.987954289803646"><ele>756.0</ele><time>2026-04-19T11:15:19Z</time></trkpt><trkpt lat="45.12111271783726" lon="6.987823270687916"><ele>756.0</ele><time>2026-04-19T11:15:20Z</time></trkpt><trkpt lat="45.12106091070332" lon="6.987683496362204"><ele>756.0</ele><time>2026-04-19T11:15:21Z</time></trkpt><trkpt lat="45.12100915763786" lon="6.987541204178001"><ele>756.0</ele><time>2026-04-19T11:15:22Z</time></trkpt><trkpt lat="45.12095849759422" lon="6.987401372326942"><ele>755.5</ele><time>2026-04-19T11:15:23Z</time></trkpt><trkpt lat="45.12090560799697" lon="6.9872535984690645"><ele>755.0</ele><time>2026-04-19T11:15:24Z</time></trkpt><trkpt lat="45.12084918838515" lon="6.98710329411765"><ele>754.5</ele><time>2026-04-19T11:15:25Z</time></trkpt><trkpt lat="45.12079534610542" lon="6.986953650790666"><ele>754.0</ele><time>2026-04-19T11:15:26Z</time></trkpt><trkpt lat="45.12073610090081" lon="6.9868108218649825"><ele>755.0</ele><time>2026-04-19T11:15:27Z</time></trkpt><trkpt lat="45.12066432255841" lon="6.98669150878298"><ele>756.0</ele><time>2026-04-19T11:15:28Z</time></trkpt><trkpt lat="45.12058358907139" lon="6.9865878461834985"><ele>757.0</ele><time>2026-04-19T11:15:29Z</time></trkpt><trkpt lat="45.120497827392974" lon="6.986496034485647"><ele>758.0</ele><time>2026-04-19T11:15:30Z</time></trkpt><trkpt lat="45.12040769478447" lon="6.9864245950430135"><ele>759.0</ele><time>2026-04-19T11:15:31Z</time></trkpt><trkpt lat="45.12030969809715" lon="6.986372877106151"><ele>759.0</ele><time>2026-04-19T11:15:32Z</time></trkpt><trkpt lat="45.120204667650405" lon="6.986342405274791"><ele>759.0</ele><time>2026-04-19T11:15:33Z</time></trkpt><trkpt lat="45.12009836739285" lon="6.98630904615253"><ele>759.0</ele><time>2026-04-19T11:15:34Z</time></trkpt><trkpt lat="45.119987125540675" lon="6.986275837241855"><ele>759.0</ele><time>2026-04-19T11:15:35Z</time></trkpt><trkpt lat="45.11988262690718" lon="6.986237011399078"><ele>759.0</ele><time>2026-04-19T11:15:36Z</time></trkpt><trkpt lat="45.119783013180225" lon="6.986200966648155"><ele>760.2</ele><time>2026-04-19T11:15:37Z</time></trkpt><trkpt lat="45.119686187624325" lon="6.986152531104555"><ele>761.4000000000001</ele><time>2026-04-19T11:15:38Z</time></trkpt><trkpt lat="45.119597557815624" lon="6.986088445707363"><ele>762.6</ele><time>2026-04-19T11:15:39Z</time></trkpt><trkpt lat="45.11952805143101" lon="6.9860213720545765"><ele>763.8</ele><time>2026-04-19T11:15:40Z</time></trkpt><trkpt lat="45.119457715693535" lon="6.9859541056262495"><ele>765.0</ele><time>2026-04-19T11:15:41Z</time></trkpt><trkpt lat="45.11938983804415" lon="6.985888078462865"><ele>765.8</ele><time>2026-04-19T11:15:42Z</time></trkpt><trkpt lat="45.11932152797917" lon="6.985819908680007"><ele>766.6</ele><time>2026-04-19T11:15:43Z</time></trkpt><trkpt lat="45.119243826531054" lon="6.985735716567641"><ele>767.4000000000001</ele><time>2026-04-19T11:15:44Z</time></trkpt><trkpt lat="45.119167686738265" lon="6.98564184380384"><ele>768.2</ele><time>2026-04-19T11:15:45Z</time></trkpt><trkpt lat="45.11908098821149" lon="6.985531757219917"><ele>769.0</ele><time>2026-04-19T11:15:46Z</time></trkpt><trkpt lat="45.11899417963705" lon="6.985401257612412"><ele>769.0</ele><time>2026-04-19T11:15:47Z</time></trkpt><trkpt lat="45.11890513797946" lon="6.985265935240647"><ele>769.0</ele><time>2026-04-19T11:15:48Z</time></trkpt><trkpt lat="45.11881429299232" lon="6.985118508131525"><ele>769.0</ele><time>2026-04-19T11:15:49Z</time></trkpt><trkpt lat="45.118716975705034" lon="6.984967883910873"><ele>769.0</ele><time>2026-04-19T11:15:50Z</time></trkpt><trkpt lat="45.118626618385086" lon="6.9848173789146655"><ele>767.75</ele><time>2026-04-19T11:15:51Z</time></trkpt><trkpt lat="45.118532521282624" lon="6.984666125133239"><ele>766.5</ele><time>2026-04-19T11:15:52Z</time></trkpt><trkpt lat="45.11843688597915" lon="6.984512654452852"><ele>765.25</ele><time>2026-04-19T11:15:53Z</time></trkpt><trkpt lat="45.11834204585033" lon="6.984359161383374"><ele>764.0</ele><time>2026-04-19T11:15:54Z</time></trkpt><trkpt lat="45.118244186162755" lon="6.984201783233267"><ele>765.25</ele><time>2026-04-19T11:15:55Z</time></trkpt><trkpt lat="45.11814673068102" lon="6.984043768948531"><ele>766.5</ele><time>2026-04-19T11:15:56Z</time></trkpt><trkpt lat="45.11804719478453" lon="6.983890674756084"><ele>767.75</ele><time>2026-04-19T11:15:57Z</time></trkpt><trkpt lat="45.11794963776169" lon="6.983739362048416"><ele>769.0</ele><time>2026-04-19T11:15:58Z</time></trkpt><trkpt lat="45.117853391863754" lon="6.983586911957285"><ele>769.0</ele><time>2026-04-19T11:15:59Z</time></trkpt><trkpt lat="45.117757799694054" lon="6.983432834862182"><ele>769.0</ele><time>2026-04-19T11:16:00Z</time></trkpt><trkpt lat="45.11766255605899" lon="6.9832782136131835"><ele>769.0</ele><time>2026-04-19T11:16:01Z</time></trkpt><trkpt lat="45.11757480937483" lon="6.983119370081931"><ele>769.0</ele><time>2026-04-19T11:16:02Z</time></trkpt><trkpt lat="45.117491373409166" lon="6.982947072656645"><ele>767.75</ele><time>2026-04-19T11:16:03Z</time></trkpt><trkpt lat="45.117416367848236" lon="6.98277564706795"><ele>766.5</ele><time>2026-04-19T11:16:04Z</time></trkpt><trkpt lat="45.11735453673359" lon="6.982592864351589"><ele>765.25</ele><time>2026-04-19T11:16:05Z</time></trkpt><trkpt lat="45.11730540082008" lon="6.982398213200165"><ele>764.0</ele><time>2026-04-19T11:16:06Z</time></trkpt><trkpt lat="45.117263592104614" lon="6.9821891368204145"><ele>767.3333333333333</ele><time>2026-04-19T11:16:07Z</time></trkpt><trkpt lat="45.11723476117237" lon="6.981972505127254"><ele>770.6666666666666</ele><time>2026-04-19T11:16:08Z</time></trkpt><trkpt lat="45.11721900465987" lon="6.98174830700351"><ele>774.0</ele><time>2026-04-19T11:16:09Z</time></trkpt><trkpt lat="45.11720794257251" lon="6.9815120753346465"><ele>774.0</ele><time>2026-04-19T11:16:10Z</time></trkpt><trkpt lat="45.11720095629173" lon="6.981273852095433"><ele>774.0</ele><time>2026-04-19T11:16:11Z</time></trkpt><trkpt lat="45.11719207891777" lon="6.98102234467303"><ele>774.0</ele><time>2026-04-19T11:16:12Z</time></trkpt><trkpt lat="45.11718516292154" lon="6.980774724122763"><ele>772.3333333333333</ele><time>2026-04-19T11:16:13Z</time></trkpt><trkpt lat="45.11717639184138" lon="6.980529542357318"><ele>770.6666666666666</ele><time>2026-04-19T11:16:14Z</time></trkpt><trkpt lat="45.11716741487082" lon="6.98027236169965"><ele>769.0</ele><time>2026-04-19T11:16:15Z</time></trkpt><trkpt lat="45.11716054126289" lon="6.980027870025554"><ele>767.0</ele><time>2026-04-19T11:16:16Z</time></trkpt><trkpt lat="45.11715200412741" lon="6.979784652607011"><ele>765.0</ele><time>2026-04-19T11:16:17Z</time></trkpt><trkpt lat="45.117142423793204" lon="6.979556503544679"><ele>763.0</ele><time>2026-04-19T11:16:18Z</time></trkpt><trkpt lat="45.1171360928491" lon="6.979333946283063"><ele>763.3333333333334</ele><time>2026-04-19T11:16:19Z</time></trkpt><trkpt lat="45.11712929397914" lon="6.979106786279916"><ele>763.6666666666666</ele><time>2026-04-19T11:16:20Z</time></trkpt><trkpt lat="45.11712654816246" lon="6.978881164731475"><ele>764.0</ele><time>2026-04-19T11:16:21Z</time></trkpt><trkpt lat="45.1171246375918" lon="6.978663454419707"><ele>764.0</ele><time>2026-04-19T11:16:22Z</time></trkpt><trkpt lat="45.1171155251645" lon="6.978438923048813"><ele>764.0</ele><time>2026-04-19T11:16:23Z</time></trkpt><trkpt lat="45.1171126159418" lon="6.978216128480127"><ele>764.0</ele><time>2026-04-19T11:16:24Z</time></trkpt><trkpt lat="45.11710348908885" lon="6.977999545557463"><ele>765.0</ele><time>2026-04-19T11:16:25Z</time></trkpt><trkpt lat="45.117106740840036" lon="6.9777772089301076"><ele>766.0</ele><time>2026-04-19T11:16:26Z</time></trkpt><trkpt lat="45.117085434160145" lon="6.977563508992579"><ele>767.0</ele><time>2026-04-19T11:16:27Z</time></trkpt><trkpt lat="45.11705432611003" lon="6.977358036752066"><ele>767.25</ele><time>2026-04-19T11:16:28Z</time></trkpt><trkpt lat="45.11701039963364" lon="6.977175431013275"><ele>767.5</ele><time>2026-04-19T11:16:29Z</time></trkpt><trkpt lat="45.11696567330299" lon="6.977021744426082"><ele>767.75</ele><time>2026-04-19T11:16:30Z</time></trkpt><trkpt lat="45.11691793131343" lon="6.976880798967226"><ele>768.0</ele><time>2026-04-19T11:16:31Z</time></trkpt><trkpt lat="45.11686783985423" lon="6.9767605657361695"><ele>768.75</ele><time>2026-04-19T11:16:32Z</time></trkpt><trkpt lat="45.11680699986649" lon="6.976635381773679"><ele>769.5</ele><time>2026-04-19T11:16:33Z</time></trkpt><trkpt lat="45.11673802291272" lon="6.976508624980092"><ele>770.25</ele><time>2026-04-19T11:16:34Z</time></trkpt><trkpt lat="45.116663777450476" lon="6.976384533947835"><ele>771.0</ele><time>2026-04-19T11:16:35Z</time></trkpt><trkpt lat="45.11658278793371" lon="6.97626248771461"><ele>773.25</ele><time>2026-04-19T11:16:36Z</time></trkpt><trkpt lat="45.11649593585451" lon="6.97614439396051"><ele>775.5</ele><time>2026-04-19T11:16:37Z</time></trkpt><trkpt lat="45.11641851098733" lon="6.9760268148360165"><ele>777.75</ele><time>2026-04-19T11:16:38Z</time></trkpt><trkpt lat="45.11634724217047" lon="6.975915249012283"><ele>780.0</ele><time>2026-04-19T11:16:39Z</time></trkpt><trkpt lat="45.116272935167245" lon="6.975799316500107"><ele>780.0</ele><time>2026-04-19T11:16:40Z</time></trkpt><trkpt lat="45.11619679953635" lon="6.975679874589921"><ele>780.0</ele><time>2026-04-19T11:16:41Z</time></trkpt><trkpt lat="45.11612066531189" lon="6.975560972603957"><ele>780.0</ele><time>2026-04-19T11:16:42Z</time></trkpt><trkpt lat="45.116044447184606" lon="6.9754461484223516"><ele>780.0</ele><time>2026-04-19T11:16:43Z</time></trkpt><trkpt lat="45.11597239114189" lon="6.975332534590554"><ele>780.0</ele><time>2026-04-19T11:16:44Z</time></trkpt><trkpt lat="45.115896434328256" lon="6.975222321757129"><ele>780.0</ele><time>2026-04-19T11:16:45Z</time></trkpt><trkpt lat="45.11582738200319" lon="6.975121713353582"><ele>780.0</ele><time>2026-04-19T11:16:46Z</time></trkpt><trkpt lat="45.11576610355463" lon="6.97502398585502"><ele>780.0</ele><time>2026-04-19T11:16:47Z</time></trkpt><trkpt lat="45.11570244393715" lon="6.974923065655282"><ele>780.0</ele><time>2026-04-19T11:16:48Z</time></trkpt><trkpt lat="45.11563173714173" lon="6.974820009947048"><ele>780.0</ele><time>2026-04-19T11:16:49Z</time></trkpt><trkpt lat="45.11556406835851" lon="6.974718599202135"><ele>781.25</ele><time>2026-04-19T11:16:50Z</time></trkpt><trkpt lat="45.115481898963" lon="6.97460407858036"><ele>782.5</ele><time>2026-04-19T11:16:51Z</time></trkpt><trkpt lat="45.11539856142844" lon="6.974450025154299"><ele>783.75</ele><time>2026-04-19T11:16:52Z</time></trkpt><trkpt lat="45.11529623606562" lon="6.974295487505752"><ele>785.0</ele><time>2026-04-19T11:16:53Z</time></trkpt><trkpt lat="45.11518257613206" lon="6.974146024666309"><ele>788.0</ele><time>2026-04-19T11:16:54Z</time></trkpt><trkpt lat="45.11507589171533" lon="6.973970187706139"><ele>791.0</ele><time>2026-04-19T11:16:55Z</time></trkpt><trkpt lat="45.11495993462755" lon="6.973795621020993"><ele>794.0</ele><time>2026-04-19T11:16:56Z</time></trkpt><trkpt lat="45.114837823203615" lon="6.973615560978004"><ele>794.0</ele><time>2026-04-19T11:16:57Z</time></trkpt><trkpt lat="45.11471260636104" lon="6.973427480954101"><ele>794.0</ele><time>2026-04-19T11:16:58Z</time></trkpt><trkpt lat="45.114591016145425" lon="6.973238001733639"><ele>794.0</ele><time>2026-04-19T11:16:59Z</time></trkpt><trkpt lat="45.114476972715266" lon="6.97305974233188"><ele>791.6666666666667</ele><time>2026-04-19T11:17:00Z</time></trkpt><trkpt lat="45.11437045546199" lon="6.972893079552054"><ele>789.3333333333333</ele><time>2026-04-19T11:17:01Z</time></trkpt><trkpt lat="45.11426920254675" lon="6.972735542707505"><ele>787.0</ele><time>2026-04-19T11:17:02Z</time></trkpt><trkpt lat="45.11417196138279" lon="6.972583994773819"><ele>784.75</ele><time>2026-04-19T11:17:03Z</time></trkpt><trkpt lat="45.11408528428865" lon="6.972449391357298"><ele>782.5</ele><time>2026-04-19T11:17:04Z</time></trkpt><trkpt lat="45.114002217182886" lon="6.972315338074465"><ele>780.25</ele><time>2026-04-19T11:17:05Z</time></trkpt><trkpt lat="45.1139260215007" lon="6.97216284381769"><ele>778.0</ele><time>2026-04-19T11:17:06Z</time></trkpt><trkpt lat="45.113857747184205" lon="6.971988397207933"><ele>781.25</ele><time>2026-04-19T11:17:07Z</time></trkpt><trkpt lat="45.11380034060543" lon="6.97179695061787"><ele>784.5</ele><time>2026-04-19T11:17:08Z</time></trkpt><trkpt lat="45.11374571015176" lon="6.971586504142638"><ele>787.75</ele><time>2026-04-19T11:17:09Z</time></trkpt><trkpt lat="45.11368308708432" lon="6.971404343005955"><ele>791.0</ele><time>2026-04-19T11:17:10Z</time></trkpt><trkpt lat="45.11361681090064" lon="6.971217730770641"><ele>791.0</ele><time>2026-04-19T11:17:11Z</time></trkpt><trkpt lat="45.11354526203433" lon="6.9710480819490925"><ele>791.0</ele><time>2026-04-19T11:17:12Z</time></trkpt><trkpt lat="45.11347037915729" lon="6.970892018162487"><ele>791.0</ele><time>2026-04-19T11:17:13Z</time></trkpt><trkpt lat="45.11339564232707" lon="6.97074474016013"><ele>791.0</ele><time>2026-04-19T11:17:14Z</time></trkpt><trkpt lat="45.113316860010684" lon="6.970595540548565"><ele>795.5</ele><time>2026-04-19T11:17:15Z</time></trkpt><trkpt lat="45.113223905958876" lon="6.970449810686705"><ele>800.0</ele><time>2026-04-19T11:17:16Z</time></trkpt><trkpt lat="45.113120064184095" lon="6.970321778232788"><ele>804.5</ele><time>2026-04-19T11:17:17Z</time></trkpt><trkpt lat="45.113007603605006" lon="6.970221195418487"><ele>809.0</ele><time>2026-04-19T11:17:18Z</time></trkpt><trkpt lat="45.1128894109223" lon="6.970139547921826"><ele>809.0</ele><time>2026-04-19T11:17:19Z</time></trkpt><trkpt lat="45.11277086947675" lon="6.970060996224275"><ele>809.0</ele><time>2026-04-19T11:17:20Z</time></trkpt><trkpt lat="45.112656854358505" lon="6.969984843346094"><ele>809.0</ele><time>2026-04-19T11:17:21Z</time></trkpt><trkpt lat="45.112547388287105" lon="6.969908042084089"><ele>809.0</ele><time>2026-04-19T11:17:22Z</time></trkpt><trkpt lat="45.11243955471605" lon="6.969827525635096"><ele>811.5</ele><time>2026-04-19T11:17:23Z</time></trkpt><trkpt lat="45.112327474298766" lon="6.969744461972283"><ele>814.0</ele><time>2026-04-19T11:17:24Z</time></trkpt><trkpt lat="45.11221690450926" lon="6.969657341925654"><ele>816.5</ele><time>2026-04-19T11:17:25Z</time></trkpt><trkpt lat="45.1121091414378" lon="6.969564364476914"><ele>819.0</ele><time>2026-04-19T11:17:26Z</time></trkpt><trkpt lat="45.112021426085114" lon="6.969445755609015"><ele>819.0</ele><time>2026-04-19T11:17:27Z</time></trkpt><trkpt lat="45.111990270577444" lon="6.969286084675348"><ele>819.0</ele><time>2026-04-19T11:17:28Z</time></trkpt><trkpt lat="45.111931422690624" lon="6.9691366881592405"><ele>819.0</ele><time>2026-04-19T11:17:29Z</time></trkpt><trkpt lat="45.11189533740368" lon="6.968957168837321"><ele>819.0</ele><time>2026-04-19T11:17:30Z</time></trkpt><trkpt lat="45.11191069101354" lon="6.9687593711878"><ele>812.6666666666667</ele><time>2026-04-19T11:17:31Z</time></trkpt><trkpt lat="45.111918571035744" lon="6.968524417228357"><ele>806.3333333333334</ele><time>2026-04-19T11:17:32Z</time></trkpt><trkpt lat="45.11192787003741" lon="6.9682453981925"><ele>800.0</ele><time>2026-04-19T11:17:33Z</time></trkpt><trkpt lat="45.11193532788115" lon="6.96792207617467"><ele>800.0</ele><time>2026-04-19T11:17:34Z</time></trkpt><trkpt lat="45.1119262610798" lon="6.967621431378707"><ele>800.0</ele><time>2026-04-19T11:17:35Z</time></trkpt><trkpt lat="45.111918629049256" lon="6.9672970554505"><ele>800.0</ele><time>2026-04-19T11:17:36Z</time></trkpt><trkpt lat="45.111917371958455" lon="6.966923558245134"><ele>797.0</ele><time>2026-04-19T11:17:37Z</time></trkpt><trkpt lat="45.11190868695921" lon="6.966570470190161"><ele>794.0</ele><time>2026-04-19T11:17:38Z</time></trkpt><trkpt lat="45.111888422221405" lon="6.966282133047332"><ele>794.0</ele><time>2026-04-19T11:17:39Z</time></trkpt><trkpt lat="45.11182603840038" lon="6.966024246319456"><ele>794.0</ele><time>2026-04-19T11:17:40Z</time></trkpt><trkpt lat="45.11169232268642" lon="6.965778596258755"><ele>794.0</ele><time>2026-04-19T11:17:41Z</time></trkpt><trkpt lat="45.11148962677068" lon="6.965533977909715"><ele>794.0</ele><time>2026-04-19T11:17:42Z</time></trkpt><trkpt lat="45.111288006200596" lon="6.96521680963099"><ele>794.0</ele><time>2026-04-19T11:17:43Z</time></trkpt><trkpt lat="45.11107523125177" lon="6.964873579845199"><ele>794.0</ele><time>2026-04-19T11:17:44Z</time></trkpt><trkpt lat="45.110856183959136" lon="6.964496727894767"><ele>794.0</ele><time>2026-04-19T11:17:45Z</time></trkpt><trkpt lat="45.11062864407442" lon="6.964105265188287"><ele>802.0</ele><time>2026-04-19T11:17:46Z</time></trkpt><trkpt lat="45.11039368560178" lon="6.9637328243423395"><ele>810.0</ele><time>2026-04-19T11:17:47Z</time></trkpt><trkpt lat="45.11022380571993" lon="6.963427666526545"><ele>801.5</ele><time>2026-04-19T11:17:48Z</time></trkpt><trkpt lat="45.11009702915479" lon="6.963136118896805"><ele>793.0</ele><time>2026-04-19T11:17:49Z</time></trkpt><trkpt lat="45.109990064781506" lon="6.962803100683821"><ele>804.5</ele><time>2026-04-19T11:17:50Z</time></trkpt><trkpt lat="45.10986269405129" lon="6.962421751509505"><ele>816.0</ele><time>2026-04-19T11:17:51Z</time></trkpt><trkpt lat="45.10974310235823" lon="6.96202951563077"><ele>816.0</ele><time>2026-04-19T11:17:52Z</time></trkpt><trkpt lat="45.10958939384875" lon="6.961731856071325"><ele>816.0</ele><time>2026-04-19T11:17:53Z</time></trkpt><trkpt lat="45.10945125387009" lon="6.961386374652834"><ele>808.0</ele><time>2026-04-19T11:17:54Z</time></trkpt><trkpt lat="45.10929784459648" lon="6.96118352513514"><ele>800.0</ele><time>2026-04-19T11:17:55Z</time></trkpt><trkpt lat="45.109185068425646" lon="6.96079909208906"><ele>809.5</ele><time>2026-04-19T11:17:56Z</time></trkpt><trkpt lat="45.10903798621768" lon="6.9604188983899915"><ele>819.0</ele><time>2026-04-19T11:17:57Z</time></trkpt><trkpt lat="45.10886232553694" lon="6.960059040720697"><ele>812.0</ele><time>2026-04-19T11:17:58Z</time></trkpt><trkpt lat="45.10872683567837" lon="6.95976808676753"><ele>805.0</ele><time>2026-04-19T11:17:59Z</time></trkpt><trkpt lat="45.10867851590944" lon="6.959489185019598"><ele>798.0</ele><time>2026-04-19T11:18:00Z</time></trkpt><trkpt lat="45.10866803038917" lon="6.959208475213232"><ele>791.5</ele><time>2026-04-19T11:18:01Z</time></trkpt><trkpt lat="45.1086667674112" lon="6.958831975152127"><ele>785.0</ele><time>2026-04-19T11:18:02Z</time></trkpt><trkpt lat="45.108656294246884" lon="6.958421923061554"><ele>781.5</ele><time>2026-04-19T11:18:03Z</time></trkpt><trkpt lat="45.10864248346544" lon="6.958001111774949"><ele>778.0</ele><time>2026-04-19T11:18:04Z</time></trkpt><trkpt lat="45.108592839599375" lon="6.957601200979992"><ele>775.5</ele><time>2026-04-19T11:18:05Z</time></trkpt><trkpt lat="45.10852489246849" lon="6.957209511832945"><ele>773.0</ele><time>2026-04-19T11:18:06Z</time></trkpt><trkpt lat="45.10841496509455" lon="6.956838576465131"><ele>768.0</ele><time>2026-04-19T11:18:07Z</time></trkpt><trkpt lat="45.108289927935395" lon="6.956497739835187"><ele>763.0</ele><time>2026-04-19T11:18:08Z</time></trkpt><trkpt lat="45.108168332791394" lon="6.956192957734958"><ele>760.5</ele><time>2026-04-19T11:18:09Z</time></trkpt><trkpt lat="45.10805874720562" lon="6.955908139740647"><ele>758.0</ele><time>2026-04-19T11:18:10Z</time></trkpt><trkpt lat="45.107959183924386" lon="6.955609683547751"><ele>751.0</ele><time>2026-04-19T11:18:11Z</time></trkpt><trkpt lat="45.10786990686341" lon="6.955294273438429"><ele>744.0</ele><time>2026-04-19T11:18:12Z</time></trkpt><trkpt lat="45.10779287377596" lon="6.9549703954099265"><ele>741.0</ele><time>2026-04-19T11:18:13Z</time></trkpt><trkpt lat="45.107713464871715" lon="6.954650164096171"><ele>738.0</ele><time>2026-04-19T11:18:14Z</time></trkpt><trkpt lat="45.10763459111807" lon="6.9543218644781994"><ele>745.5</ele><time>2026-04-19T11:18:15Z</time></trkpt><trkpt lat="45.1075501292996" lon="6.9539958389997985"><ele>753.0</ele><time>2026-04-19T11:18:16Z</time></trkpt><trkpt lat="45.107470152792246" lon="6.953693410700707"><ele>746.5</ele><time>2026-04-19T11:18:17Z</time></trkpt><trkpt lat="45.10739711925297" lon="6.953387842002836"><ele>740.0</ele><time>2026-04-19T11:18:18Z</time></trkpt><trkpt lat="45.10731964568768" lon="6.953074918995444"><ele>740.0</ele><time>2026-04-19T11:18:19Z</time></trkpt><trkpt lat="45.107247093088816" lon="6.952740306959678"><ele>740.0</ele><time>2026-04-19T11:18:20Z</time></trkpt><trkpt lat="45.10717860069738" lon="6.95240202667973"><ele>745.5</ele><time>2026-04-19T11:18:21Z</time></trkpt><trkpt lat="45.10710002157342" lon="6.9520624210688915"><ele>751.0</ele><time>2026-04-19T11:18:22Z</time></trkpt><trkpt lat="45.107011351912234" lon="6.951725582549522"><ele>757.5</ele><time>2026-04-19T11:18:23Z</time></trkpt><trkpt lat="45.106888637513606" lon="6.951421272293758"><ele>764.0</ele><time>2026-04-19T11:18:24Z</time></trkpt><trkpt lat="45.10676948757948" lon="6.9511619608734305"><ele>764.0</ele><time>2026-04-19T11:18:25Z</time></trkpt><trkpt lat="45.10666320950434" lon="6.95089237327079"><ele>764.0</ele><time>2026-04-19T11:18:26Z</time></trkpt><trkpt lat="45.10659628302909" lon="6.950612166960251"><ele>764.0</ele><time>2026-04-19T11:18:27Z</time></trkpt><trkpt lat="45.106547380456156" lon="6.950324859907369"><ele>761.0</ele><time>2026-04-19T11:18:28Z</time></trkpt><trkpt lat="45.10652873008351" lon="6.9500397568290895"><ele>758.0</ele><time>2026-04-19T11:18:29Z</time></trkpt><trkpt lat="45.10648947614283" lon="6.949775583928052"><ele>755.0</ele><time>2026-04-19T11:18:30Z</time></trkpt><trkpt lat="45.10638816302275" lon="6.949527175342741"><ele>755.0</ele><time>2026-04-19T11:18:31Z</time></trkpt><trkpt lat="45.106250552900356" lon="6.94932949967727"><ele>755.0</ele><time>2026-04-19T11:18:32Z</time></trkpt><trkpt lat="45.106119437066944" lon="6.949205827849264"><ele>755.0</ele><time>2026-04-19T11:18:33Z</time></trkpt><trkpt lat="45.106047507813415" lon="6.949025403301376"><ele>760.6666666666666</ele><time>2026-04-19T11:18:34Z</time></trkpt><trkpt lat="45.105995102948356" lon="6.948755431679576"><ele>766.3333333333333</ele><time>2026-04-19T11:18:35Z</time></trkpt><trkpt lat="45.10593278991027" lon="6.948455085065752"><ele>772.0</ele><time>2026-04-19T11:18:36Z</time></trkpt><trkpt lat="45.10591177392795" lon="6.948181282758041"><ele>779.0</ele><time>2026-04-19T11:18:37Z</time></trkpt><trkpt lat="45.10593489888212" lon="6.94794334247643"><ele>786.0</ele><time>2026-04-19T11:18:38Z</time></trkpt><trkpt lat="45.10591748786986" lon="6.947696892324396"><ele>793.0</ele><time>2026-04-19T11:18:39Z</time></trkpt><trkpt lat="45.10579598690128" lon="6.947431453074779"><ele>779.0</ele><time>2026-04-19T11:18:40Z</time></trkpt><trkpt lat="45.10562885972409" lon="6.947145949607928"><ele>765.0</ele><time>2026-04-19T11:18:41Z</time></trkpt><trkpt lat="45.10547284292741" lon="6.946828661099692"><ele>778.0</ele><time>2026-04-19T11:18:42Z</time></trkpt><trkpt lat="45.10532869132146" lon="6.946515704255138"><ele>791.0</ele><time>2026-04-19T11:18:43Z</time></trkpt><trkpt lat="45.10516417449155" lon="6.946249558153303"><ele>791.0</ele><time>2026-04-19T11:18:44Z</time></trkpt><trkpt lat="45.10496215219217" lon="6.946073149153315"><ele>791.0</ele><time>2026-04-19T11:18:45Z</time></trkpt><trkpt lat="45.10475324203115" lon="6.945952844256072"><ele>789.0</ele><time>2026-04-19T11:18:46Z</time></trkpt><trkpt lat="45.10451341389221" lon="6.945833290318763"><ele>787.0</ele><time>2026-04-19T11:18:47Z</time></trkpt><trkpt lat="45.104303496227125" lon="6.945669027000407"><ele>787.0</ele><time>2026-04-19T11:18:48Z</time></trkpt><trkpt lat="45.10422071539966" lon="6.945452473866763"><ele>787.0</ele><time>2026-04-19T11:18:49Z</time></trkpt><trkpt lat="45.10414241710253" lon="6.945249322303577"><ele>787.0</ele><time>2026-04-19T11:18:50Z</time></trkpt><trkpt lat="45.104047182734654" lon="6.944971872226268"><ele>785.5</ele><time>2026-04-19T11:18:51Z</time></trkpt><trkpt lat="45.103923683566784" lon="6.944664668218602"><ele>784.0</ele><time>2026-04-19T11:18:52Z</time></trkpt><trkpt lat="45.1037392674786" lon="6.944440883538815"><ele>796.5</ele><time>2026-04-19T11:18:53Z</time></trkpt><trkpt lat="45.103557485770935" lon="6.944141418506717"><ele>809.0</ele><time>2026-04-19T11:18:54Z</time></trkpt><trkpt lat="45.1033939127228" lon="6.943901786682006"><ele>809.0</ele><time>2026-04-19T11:18:55Z</time></trkpt><trkpt lat="45.103265001161375" lon="6.943579077663264"><ele>809.0</ele><time>2026-04-19T11:18:56Z</time></trkpt><trkpt lat="45.103151203651215" lon="6.943215490179084"><ele>807.0</ele><time>2026-04-19T11:18:57Z</time></trkpt><trkpt lat="45.1030201498977" lon="6.942881179214955"><ele>805.0</ele><time>2026-04-19T11:18:58Z</time></trkpt><trkpt lat="45.10287635752018" lon="6.942649119618042"><ele>809.6666666666666</ele><time>2026-04-19T11:18:59Z</time></trkpt><trkpt lat="45.10274930080753" lon="6.942489951061414"><ele>814.3333333333333</ele><time>2026-04-19T11:19:00Z</time></trkpt><trkpt lat="45.102660064270225" lon="6.942309985994373"><ele>819.0</ele><time>2026-04-19T11:19:01Z</time></trkpt><trkpt lat="45.102600926906426" lon="6.942049681415121"><ele>825.0</ele><time>2026-04-19T11:19:02Z</time></trkpt><trkpt lat="45.1025879124419" lon="6.941710824966487"><ele>831.0</ele><time>2026-04-19T11:19:03Z</time></trkpt><trkpt lat="45.10259094826275" lon="6.941324757922373"><ele>831.0</ele><time>2026-04-19T11:19:04Z</time></trkpt><trkpt lat="45.10252360345816" lon="6.940923611310622"><ele>831.0</ele><time>2026-04-19T11:19:05Z</time></trkpt><trkpt lat="45.10243179664674" lon="6.94050568309957"><ele>833.5</ele><time>2026-04-19T11:19:06Z</time></trkpt><trkpt lat="45.10238011820651" lon="6.940063912150312"><ele>836.0</ele><time>2026-04-19T11:19:07Z</time></trkpt><trkpt lat="45.10230925225621" lon="6.939616153248642"><ele>836.0</ele><time>2026-04-19T11:19:08Z</time></trkpt><trkpt lat="45.102234369927785" lon="6.93924504615919"><ele>836.0</ele><time>2026-04-19T11:19:09Z</time></trkpt><trkpt lat="45.102136812409604" lon="6.938947324520015"><ele>839.0</ele><time>2026-04-19T11:19:10Z</time></trkpt><trkpt lat="45.101987639481145" lon="6.938663406308992"><ele>842.0</ele><time>2026-04-19T11:19:11Z</time></trkpt><trkpt lat="45.101860005481115" lon="6.938463783418694"><ele>845.0</ele><time>2026-04-19T11:19:12Z</time></trkpt><trkpt lat="45.10180732574152" lon="6.938242976754437"><ele>846.3333333333334</ele><time>2026-04-19T11:19:13Z</time></trkpt><trkpt lat="45.10181733179338" lon="6.937947623454627"><ele>847.6666666666667</ele><time>2026-04-19T11:19:14Z</time></trkpt><trkpt lat="45.10186997715527" lon="6.937615762061561"><ele>849.0</ele><time>2026-04-19T11:19:15Z</time></trkpt><trkpt lat="45.10192228731742" lon="6.937253668983268"><ele>850.5</ele><time>2026-04-19T11:19:16Z</time></trkpt><trkpt lat="45.10193167843137" lon="6.93686920507708"><ele>852.0</ele><time>2026-04-19T11:19:17Z</time></trkpt><trkpt lat="45.10189344546944" lon="6.936462402368015"><ele>854.0</ele><time>2026-04-19T11:19:18Z</time></trkpt><trkpt lat="45.101818186574086" lon="6.936076212174463"><ele>856.0</ele><time>2026-04-19T11:19:19Z</time></trkpt><trkpt lat="45.101713269670554" lon="6.935705113014449"><ele>857.0</ele><time>2026-04-19T11:19:20Z</time></trkpt><trkpt lat="45.101567227740055" lon="6.935337482242794"><ele>858.0</ele><time>2026-04-19T11:19:21Z</time></trkpt><trkpt lat="45.10137863164652" lon="6.9349743306467255"><ele>861.0</ele><time>2026-04-19T11:19:22Z</time></trkpt><trkpt lat="45.1011684637566" lon="6.934628077747538"><ele>864.0</ele><time>2026-04-19T11:19:23Z</time></trkpt><trkpt lat="45.10099072348548" lon="6.934331302180155"><ele>864.0</ele><time>2026-04-19T11:19:24Z</time></trkpt><trkpt lat="45.10088802924883" lon="6.93404742438794"><ele>864.0</ele><time>2026-04-19T11:19:25Z</time></trkpt><trkpt lat="45.100824212043044" lon="6.933768999796223"><ele>864.0</ele><time>2026-04-19T11:19:26Z</time></trkpt><trkpt lat="45.10076908678105" lon="6.933429372439612"><ele>862.0</ele><time>2026-04-19T11:19:27Z</time></trkpt><trkpt lat="45.10072751104082" lon="6.93307923945779"><ele>860.0</ele><time>2026-04-19T11:19:28Z</time></trkpt><trkpt lat="45.100655912629186" lon="6.932726908900291"><ele>864.0</ele><time>2026-04-19T11:19:29Z</time></trkpt><trkpt lat="45.100516646821205" lon="6.932461637315995"><ele>868.0</ele><time>2026-04-19T11:19:30Z</time></trkpt><trkpt lat="45.10031409876995" lon="6.932213656790898"><ele>868.0</ele><time>2026-04-19T11:19:31Z</time></trkpt><trkpt lat="45.10006734675049" lon="6.932026941721102"><ele>868.0</ele><time>2026-04-19T11:19:32Z</time></trkpt><trkpt lat="45.099812088894595" lon="6.93188459804178"><ele>867.5</ele><time>2026-04-19T11:19:33Z</time></trkpt><trkpt lat="45.099607079023365" lon="6.931662851063714"><ele>867.0</ele><time>2026-04-19T11:19:34Z</time></trkpt><trkpt lat="45.099410046852896" lon="6.9313687520584075"><ele>867.0</ele><time>2026-04-19T11:19:35Z</time></trkpt><trkpt lat="45.09921116526626" lon="6.931082838632652"><ele>867.0</ele><time>2026-04-19T11:19:36Z</time></trkpt><trkpt lat="45.09902746084711" lon="6.930779098318"><ele>868.0</ele><time>2026-04-19T11:19:37Z</time></trkpt><trkpt lat="45.098884255565686" lon="6.930410138515032"><ele>869.0</ele><time>2026-04-19T11:19:38Z</time></trkpt><trkpt lat="45.09871954976164" lon="6.930056626611882"><ele>875.0</ele><time>2026-04-19T11:19:39Z</time></trkpt><trkpt lat="45.09856813371656" lon="6.9296654722979"><ele>881.0</ele><time>2026-04-19T11:19:40Z</time></trkpt><trkpt lat="45.098416600872724" lon="6.929265014216357"><ele>881.0</ele><time>2026-04-19T11:19:41Z</time></trkpt><trkpt lat="45.09825757502365" lon="6.928842063704514"><ele>881.0</ele><time>2026-04-19T11:19:42Z</time></trkpt><trkpt lat="45.09809705247847" lon="6.928415915895305"><ele>882.5</ele><time>2026-04-19T11:19:43Z</time></trkpt><trkpt lat="45.09795173338964" lon="6.928030129516282"><ele>884.0</ele><time>2026-04-19T11:19:44Z</time></trkpt><trkpt lat="45.09782722200595" lon="6.927699601258189"><ele>887.3333333333334</ele><time>2026-04-19T11:19:45Z</time></trkpt><trkpt lat="45.09771677005282" lon="6.927406433910015"><ele>890.6666666666667</ele><time>2026-04-19T11:19:46Z</time></trkpt><trkpt lat="45.097600190695935" lon="6.927156913252245"><ele>894.0</ele><time>2026-04-19T11:19:47Z</time></trkpt><trkpt lat="45.09748315054187" lon="6.926920735978768"><ele>894.0</ele><time>2026-04-19T11:19:48Z</time></trkpt><trkpt lat="45.09734919898194" lon="6.926723650013584"><ele>894.0</ele><time>2026-04-19T11:19:49Z</time></trkpt><trkpt lat="45.09715049403372" lon="6.926629839474788"><ele>894.0</ele><time>2026-04-19T11:19:50Z</time></trkpt><trkpt lat="45.09689545779154" lon="6.926597729644825"><ele>894.0</ele><time>2026-04-19T11:19:51Z</time></trkpt><trkpt lat="45.09663841607323" lon="6.9265726230070275"><ele>894.0</ele><time>2026-04-19T11:19:52Z</time></trkpt><trkpt lat="45.09641927504886" lon="6.9264589862064545"><ele>885.0</ele><time>2026-04-19T11:19:53Z</time></trkpt><trkpt lat="45.09617813653848" lon="6.926294149576112"><ele>876.0</ele><time>2026-04-19T11:19:54Z</time></trkpt><trkpt lat="45.095899197284766" lon="6.926118929710125"><ele>878.0</ele><time>2026-04-19T11:19:55Z</time></trkpt><trkpt lat="45.09564930565366" lon="6.9258971273738315"><ele>880.0</ele><time>2026-04-19T11:19:56Z</time></trkpt><trkpt lat="45.09541201084525" lon="6.925665411080223"><ele>880.0</ele><time>2026-04-19T11:19:57Z</time></trkpt><trkpt lat="45.095198373424616" lon="6.925409074674976"><ele>880.0</ele><time>2026-04-19T11:19:58Z</time></trkpt><trkpt lat="45.09499486994923" lon="6.925125968782761"><ele>873.5</ele><time>2026-04-19T11:19:59Z</time></trkpt><trkpt lat="45.09479068574291" lon="6.924793927406187"><ele>867.0</ele><time>2026-04-19T11:20:00Z</time></trkpt><trkpt lat="45.09460788850141" lon="6.92443084574341"><ele>882.5</ele><time>2026-04-19T11:20:01Z</time></trkpt><trkpt lat="45.0944131361831" lon="6.9240478632732385"><ele>898.0</ele><time>2026-04-19T11:20:02Z</time></trkpt><trkpt lat="45.09422296828272" lon="6.923663474426831"><ele>884.5</ele><time>2026-04-19T11:20:03Z</time></trkpt><trkpt lat="45.09407709326061" lon="6.923326151714662"><ele>871.0</ele><time>2026-04-19T11:20:04Z</time></trkpt><trkpt lat="45.093978090048736" lon="6.922999636604419"><ele>871.0</ele><time>2026-04-19T11:20:05Z</time></trkpt><trkpt lat="45.093897861139574" lon="6.92261987382734"><ele>871.0</ele><time>2026-04-19T11:20:06Z</time></trkpt><trkpt lat="45.0938353044997" lon="6.92218070977899"><ele>885.5</ele><time>2026-04-19T11:20:07Z</time></trkpt><trkpt lat="45.093760687210256" lon="6.9217129127545585"><ele>900.0</ele><time>2026-04-19T11:20:08Z</time></trkpt><trkpt lat="45.093641422421044" lon="6.921250565173118"><ele>910.5</ele><time>2026-04-19T11:20:09Z</time></trkpt><trkpt lat="45.09349927565629" lon="6.920784345536024"><ele>921.0</ele><time>2026-04-19T11:20:10Z</time></trkpt><trkpt lat="45.09333710223795" lon="6.92031500680052"><ele>909.5</ele><time>2026-04-19T11:20:11Z</time></trkpt><trkpt lat="45.093144729812" lon="6.919862000896812"><ele>898.0</ele><time>2026-04-19T11:20:12Z</time></trkpt><trkpt lat="45.09291716043676" lon="6.919408237400856"><ele>892.5</ele><time>2026-04-19T11:20:13Z</time></trkpt><trkpt lat="45.09267317684447" lon="6.918951316219752"><ele>887.0</ele><time>2026-04-19T11:20:14Z</time></trkpt><trkpt lat="45.092370423249776" lon="6.918517025129367"><ele>901.0</ele><time>2026-04-19T11:20:15Z</time></trkpt><trkpt lat="45.09212518670471" lon="6.91804173894081"><ele>915.0</ele><time>2026-04-19T11:20:16Z</time></trkpt><trkpt lat="45.09185863707917" lon="6.9175952410521075"><ele>920.0</ele><time>2026-04-19T11:20:17Z</time></trkpt><trkpt lat="45.091602006744566" lon="6.917151866359473"><ele>925.0</ele><time>2026-04-19T11:20:18Z</time></trkpt><trkpt lat="45.091369203203634" lon="6.916669769697086"><ele>925.0</ele><time>2026-04-19T11:20:19Z</time></trkpt><trkpt lat="45.091132859183475" lon="6.916218274472917"><ele>925.0</ele><time>2026-04-19T11:20:20Z</time></trkpt><trkpt lat="45.09088071652572" lon="6.915873857151847"><ele>918.0</ele><time>2026-04-19T11:20:21Z</time></trkpt><trkpt lat="45.09061760048158" lon="6.915635107793527"><ele>911.0</ele><time>2026-04-19T11:20:22Z</time></trkpt><trkpt lat="45.090476539025225" lon="6.915333706299975"><ele>929.5</ele><time>2026-04-19T11:20:23Z</time></trkpt><trkpt lat="45.09030456013111" lon="6.915001164869297"><ele>948.0</ele><time>2026-04-19T11:20:24Z</time></trkpt><trkpt lat="45.09015378391355" lon="6.914577765102142"><ele>958.0</ele><time>2026-04-19T11:20:25Z</time></trkpt><trkpt lat="45.09005177335676" lon="6.9141261819685855"><ele>968.0</ele><time>2026-04-19T11:20:26Z</time></trkpt><trkpt lat="45.09004544956739" lon="6.913685759345271"><ele>960.0</ele><time>2026-04-19T11:20:27Z</time></trkpt><trkpt lat="45.09000433220239" lon="6.9132559444385375"><ele>952.0</ele><time>2026-04-19T11:20:28Z</time></trkpt><trkpt lat="45.08959717278179" lon="6.912867466008278"><ele>960.5</ele><time>2026-04-19T11:20:29Z</time></trkpt><trkpt lat="45.08950648153494" lon="6.912463691622147"><ele>969.0</ele><time>2026-04-19T11:20:30Z</time></trkpt><trkpt lat="45.08941284443601" lon="6.912149245630883"><ele>969.0</ele><time>2026-04-19T11:20:31Z</time></trkpt><trkpt lat="45.08925451926911" lon="6.911874182950551"><ele>969.0</ele><time>2026-04-19T11:20:32Z</time></trkpt><trkpt lat="45.08901333029553" lon="6.911600395537409"><ele>963.5</ele><time>2026-04-19T11:20:33Z</time></trkpt><trkpt lat="45.088790105889345" lon="6.911350341169977"><ele>958.0</ele><time>2026-04-19T11:20:34Z</time></trkpt><trkpt lat="45.08864431881177" lon="6.911144599529318"><ele>958.0</ele><time>2026-04-19T11:20:35Z</time></trkpt><trkpt lat="45.08856861766242" lon="6.91096222181971"><ele>958.0</ele><time>2026-04-19T11:20:36Z</time></trkpt><trkpt lat="45.088514814249486" lon="6.91071627519726"><ele>958.0</ele><time>2026-04-19T11:20:37Z</time></trkpt><trkpt lat="45.088520656865406" lon="6.910424992507601"><ele>970.5</ele><time>2026-04-19T11:20:38Z</time></trkpt><trkpt lat="45.08855486117088" lon="6.910092017761852"><ele>983.0</ele><time>2026-04-19T11:20:39Z</time></trkpt><trkpt lat="45.08858101429685" lon="6.909743209681064"><ele>986.5</ele><time>2026-04-19T11:20:40Z</time></trkpt><trkpt lat="45.08856067116966" lon="6.90938182555935"><ele>990.0</ele><time>2026-04-19T11:20:41Z</time></trkpt><trkpt lat="45.08849677490881" lon="6.909020734670371"><ele>993.5</ele><time>2026-04-19T11:20:42Z</time></trkpt><trkpt lat="45.08842972165169" lon="6.908614767034925"><ele>997.0</ele><time>2026-04-19T11:20:43Z</time></trkpt><trkpt lat="45.08838296460148" lon="6.9082913654900775"><ele>997.6666666666666</ele><time>2026-04-19T11:20:44Z</time></trkpt><trkpt lat="45.08833716069259" lon="6.908070669811733"><ele>998.3333333333333</ele><time>2026-04-19T11:20:45Z</time></trkpt><trkpt lat="45.08824344083992" lon="6.907890452673184"><ele>999.0</ele><time>2026-04-19T11:20:46Z</time></trkpt><trkpt lat="45.08808260493183" lon="6.907747147849448"><ele>999.0</ele><time>2026-04-19T11:20:47Z</time></trkpt><trkpt lat="45.08789427110337" lon="6.907682429094278"><ele>999.0</ele><time>2026-04-19T11:20:48Z</time></trkpt><trkpt lat="45.087722171589256" lon="6.907687176050481"><ele>999.0</ele><time>2026-04-19T11:20:49Z</time></trkpt><trkpt lat="45.08757291247596" lon="6.907781901943956"><ele>999.0</ele><time>2026-04-19T11:20:50Z</time></trkpt><trkpt lat="45.08745412177205" lon="6.907891259521365"><ele>999.0</ele><time>2026-04-19T11:20:51Z</time></trkpt><trkpt lat="45.087257144146086" lon="6.907942566212278"><ele>999.0</ele><time>2026-04-19T11:20:52Z</time></trkpt><trkpt lat="45.08700312088456" lon="6.907946740610319"><ele>1002.3333333333333</ele><time>2026-04-19T11:20:53Z</time></trkpt><trkpt lat="45.0867956449236" lon="6.907953982276214"><ele>1005.6666666666666</ele><time>2026-04-19T11:20:54Z</time></trkpt><trkpt lat="45.086630961520164" lon="6.907947809709244"><ele>1009.0</ele><time>2026-04-19T11:20:55Z</time></trkpt><trkpt lat="45.086482681077584" lon="6.907963246523642"><ele>1013.0</ele><time>2026-04-19T11:20:56.001Z</time></trkpt><trkpt lat="45.08635663389057" lon="6.907976040279095"><ele>1017.0</ele><time>2026-04-19T11:20:57Z</time></trkpt><trkpt lat="45.086221368121585" lon="6.907995092711615"><ele>1021.0</ele><time>2026-04-19T11:20:58Z</time></trkpt><trkpt lat="45.086118299269145" lon="6.908059121206263"><ele>1025.0</ele><time>2026-04-19T11:20:59Z</time></trkpt><trkpt lat="45.0860245925569" lon="6.908150039904518"><ele>1025.0</ele><time>2026-04-19T11:21:00Z</time></trkpt><trkpt lat="45.08591882413375" lon="6.908223580065415"><ele>1025.0</ele><time>2026-04-19T11:21:01Z</time></trkpt><trkpt lat="45.08582759951775" lon="6.908297259100714"><ele>1025.0</ele><time>2026-04-19T11:21:02Z</time></trkpt><trkpt lat="45.08572950989661" lon="6.908363835543704"><ele>1025.0</ele><time>2026-04-19T11:21:03Z</time></trkpt><trkpt lat="45.0856236122451" lon="6.908401339917009"><ele>1025.0</ele><time>2026-04-19T11:21:04Z</time></trkpt><trkpt lat="45.08551215010778" lon="6.908401562889271"><ele>1025.5</ele><time>2026-04-19T11:21:05Z</time></trkpt><trkpt lat="45.08540399244533" lon="6.908390504684416"><ele>1026.0</ele><time>2026-04-19T11:21:06Z</time></trkpt><trkpt lat="45.085274174188406" lon="6.908351137053753"><ele>1026.5</ele><time>2026-04-19T11:21:07Z</time></trkpt><trkpt lat="45.085120787433894" lon="6.9083403263553995"><ele>1027.0</ele><time>2026-04-19T11:21:08Z</time></trkpt><trkpt lat="45.084978713808155" lon="6.90831517657114"><ele>1024.5</ele><time>2026-04-19T11:21:09Z</time></trkpt><trkpt lat="45.08483171354287" lon="6.908284567496663"><ele>1022.0</ele><time>2026-04-19T11:21:10Z</time></trkpt><trkpt lat="45.084679319541806" lon="6.908260238808164"><ele>1019.5</ele><time>2026-04-19T11:21:11Z</time></trkpt><trkpt lat="45.08454924552121" lon="6.908241709995311"><ele>1017.0</ele><time>2026-04-19T11:21:12Z</time></trkpt><trkpt lat="45.08444208916505" lon="6.908220513284248"><ele>1017.0</ele><time>2026-04-19T11:21:13Z</time></trkpt><trkpt lat="45.08435883431845" lon="6.908191975695793"><ele>1017.0</ele><time>2026-04-19T11:21:14Z</time></trkpt><trkpt lat="45.08427395792585" lon="6.908140647228107"><ele>1017.0</ele><time>2026-04-19T11:21:15Z</time></trkpt><trkpt lat="45.08420277899975" lon="6.90806309447043"><ele>1017.0</ele><time>2026-04-19T11:21:16Z</time></trkpt><trkpt lat="45.08415069585546" lon="6.90796121593179"><ele>1017.0</ele><time>2026-04-19T11:21:17Z</time></trkpt><trkpt lat="45.08411449905453" lon="6.907851851130339"><ele>1017.0</ele><time>2026-04-19T11:21:18Z</time></trkpt><trkpt lat="45.08411295476103" lon="6.907731887022444"><ele>1017.0</ele><time>2026-04-19T11:21:19Z</time></trkpt><trkpt lat="45.08417226248575" lon="6.907624229614313"><ele>1017.0</ele><time>2026-04-19T11:21:20Z</time></trkpt><trkpt lat="45.084272070452364" lon="6.907577860408295"><ele>1017.0</ele><time>2026-04-19T11:21:21Z</time></trkpt><trkpt lat="45.084390986125555" lon="6.907597878801286"><ele>1017.0</ele><time>2026-04-19T11:21:22Z</time></trkpt><trkpt lat="45.08453232367572" lon="6.9076728234131615"><ele>1017.0</ele><time>2026-04-19T11:21:23Z</time></trkpt><trkpt lat="45.08470339318314" lon="6.907778436376465"><ele>1017.0</ele><time>2026-04-19T11:21:24Z</time></trkpt><trkpt lat="45.08488484185743" lon="6.907859899473685"><ele>1017.0</ele><time>2026-04-19T11:21:25Z</time></trkpt><trkpt lat="45.085089161196755" lon="6.907919539899323"><ele>1020.3333333333333</ele><time>2026-04-19T11:21:26Z</time></trkpt><trkpt lat="45.085297798626634" lon="6.90798679285165"><ele>1023.6666666666666</ele><time>2026-04-19T11:21:27Z</time></trkpt><trkpt lat="45.08545032086945" lon="6.908034011652348"><ele>1027.0</ele><time>2026-04-19T11:21:28Z</time></trkpt><trkpt lat="45.08554331226942" lon="6.9080394873508615"><ele>1027.0</ele><time>2026-04-19T11:21:29Z</time></trkpt><trkpt lat="45.08560558186682" lon="6.90799511770278"><ele>1027.0</ele><time>2026-04-19T11:21:30Z</time></trkpt><trkpt lat="45.08564422973478" lon="6.907867276122227"><ele>1027.0</ele><time>2026-04-19T11:21:31Z</time></trkpt><trkpt lat="45.08561237018487" lon="6.907711801283615"><ele>1027.0</ele><time>2026-04-19T11:21:32Z</time></trkpt><trkpt lat="45.08550765753114" lon="6.907600715376263"><ele>1027.0</ele><time>2026-04-19T11:21:33Z</time></trkpt><trkpt lat="45.08537620944187" lon="6.907621187641061"><ele>1027.0</ele><time>2026-04-19T11:21:34Z</time></trkpt><trkpt lat="45.08523896193259" lon="6.907673373936655"><ele>1027.0</ele><time>2026-04-19T11:21:35Z</time></trkpt><trkpt lat="45.085116633601764" lon="6.907615813889085"><ele>1027.0</ele><time>2026-04-19T11:21:36Z</time></trkpt><trkpt lat="45.08497568483986" lon="6.907490597222977"><ele>1027.0</ele><time>2026-04-19T11:21:37Z</time></trkpt><trkpt lat="45.08480973159366" lon="6.907338955021069"><ele>1032.6666666666665</ele><time>2026-04-19T11:21:38Z</time></trkpt><trkpt lat="45.08460745979025" lon="6.907222358721226"><ele>1038.3333333333333</ele><time>2026-04-19T11:21:39Z</time></trkpt><trkpt lat="45.084420952560855" lon="6.907054080012728"><ele>1044.0</ele><time>2026-04-19T11:21:40Z</time></trkpt><trkpt lat="45.08423906841155" lon="6.906848821490531"><ele>1040.0</ele><time>2026-04-19T11:21:41Z</time></trkpt><trkpt lat="45.08404367159701" lon="6.906627041006038"><ele>1036.0</ele><time>2026-04-19T11:21:42Z</time></trkpt><trkpt lat="45.08387706632172" lon="6.906430499457813"><ele>1036.0</ele><time>2026-04-19T11:21:43Z</time></trkpt><trkpt lat="45.08374669128518" lon="6.9062339366674745"><ele>1036.0</ele><time>2026-04-19T11:21:44Z</time></trkpt><trkpt lat="45.083623271332684" lon="6.905972703083971"><ele>1036.0</ele><time>2026-04-19T11:21:45Z</time></trkpt><trkpt lat="45.08350770047683" lon="6.9056398132635595"><ele>1044.5</ele><time>2026-04-19T11:21:46Z</time></trkpt><trkpt lat="45.083394822875924" lon="6.905276438444469"><ele>1053.0</ele><time>2026-04-19T11:21:47Z</time></trkpt><trkpt lat="45.08325195237559" lon="6.904921952685586"><ele>1053.0</ele><time>2026-04-19T11:21:48Z</time></trkpt><trkpt lat="45.08312362718566" lon="6.904604597228214"><ele>1053.0</ele><time>2026-04-19T11:21:49Z</time></trkpt><trkpt lat="45.08299865940958" lon="6.9043412484113675"><ele>1063.0</ele><time>2026-04-19T11:21:50Z</time></trkpt><trkpt lat="45.08286262095481" lon="6.904136377107219"><ele>1073.0</ele><time>2026-04-19T11:21:51Z</time></trkpt><trkpt lat="45.08268172467227" lon="6.903978952756623"><ele>1083.0</ele><time>2026-04-19T11:21:52Z</time></trkpt><trkpt lat="45.08250316423915" lon="6.903843657843169"><ele>1077.6666666666667</ele><time>2026-04-19T11:21:53Z</time></trkpt><trkpt lat="45.082356589218705" lon="6.903745218720589"><ele>1072.3333333333335</ele><time>2026-04-19T11:21:54Z</time></trkpt><trkpt lat="45.08220321947475" lon="6.903703935465733"><ele>1067.0</ele><time>2026-04-19T11:21:55Z</time></trkpt><trkpt lat="45.08201752833354" lon="6.903737280009441"><ele>1067.0</ele><time>2026-04-19T11:21:56Z</time></trkpt><trkpt lat="45.081835836941075" lon="6.903806187452698"><ele>1067.0</ele><time>2026-04-19T11:21:57Z</time></trkpt><trkpt lat="45.081684391079186" lon="6.903865038868784"><ele>1067.0</ele><time>2026-04-19T11:21:58Z</time></trkpt><trkpt lat="45.08158308015823" lon="6.90384760573092"><ele>1067.0</ele><time>2026-04-19T11:21:59Z</time></trkpt><trkpt lat="45.08147035625011" lon="6.903813168279488"><ele>1067.0</ele><time>2026-04-19T11:22:00Z</time></trkpt><trkpt lat="45.08135226817954" lon="6.903715271511605"><ele>1067.0</ele><time>2026-04-19T11:22:01Z</time></trkpt><trkpt lat="45.08125297073735" lon="6.903563254241512"><ele>1067.0</ele><time>2026-04-19T11:22:02Z</time></trkpt><trkpt lat="45.081129901184845" lon="6.903363353875092"><ele>1067.0</ele><time>2026-04-19T11:22:03Z</time></trkpt><trkpt lat="45.080996105231776" lon="6.903178196173393"><ele>1067.0</ele><time>2026-04-19T11:22:04Z</time></trkpt><trkpt lat="45.08085697819072" lon="6.902998722479377"><ele>1067.0</ele><time>2026-04-19T11:22:05Z</time></trkpt><trkpt lat="45.08063415824404" lon="6.902779519312669"><ele>1061.5</ele><time>2026-04-19T11:22:06Z</time></trkpt><trkpt lat="45.08036906379668" lon="6.902559871119299"><ele>1056.0</ele><time>2026-04-19T11:22:07Z</time></trkpt><trkpt lat="45.08015029466584" lon="6.90237599602499"><ele>1056.0</ele><time>2026-04-19T11:22:08Z</time></trkpt><trkpt lat="45.07999454602302" lon="6.902241319708049"><ele>1056.0</ele><time>2026-04-19T11:22:09Z</time></trkpt><trkpt lat="45.079883131986925" lon="6.90212672589383"><ele>1056.0</ele><time>2026-04-19T11:22:10Z</time></trkpt><trkpt lat="45.07978383776839" lon="6.90200035094672"><ele>1053.25</ele><time>2026-04-19T11:22:11Z</time></trkpt><trkpt lat="45.07970038429624" lon="6.901858287856772"><ele>1050.5</ele><time>2026-04-19T11:22:12Z</time></trkpt><trkpt lat="45.07963484397171" lon="6.901701915856552"><ele>1047.75</ele><time>2026-04-19T11:22:13Z</time></trkpt><trkpt lat="45.07959844859207" lon="6.901544995466667"><ele>1045.0</ele><time>2026-04-19T11:22:14Z</time></trkpt><trkpt lat="45.07956952167993" lon="6.901390274122332"><ele>1045.0</ele><time>2026-04-19T11:22:15Z</time></trkpt><trkpt lat="45.07954589952617" lon="6.901260695864663"><ele>1045.0</ele><time>2026-04-19T11:22:16Z</time></trkpt><trkpt lat="45.079524992637964" lon="6.9011440487454365"><ele>1045.0</ele><time>2026-04-19T11:22:17Z</time></trkpt><trkpt lat="45.07948172772824" lon="6.9010590712033"><ele>1045.0</ele><time>2026-04-19T11:22:18Z</time></trkpt><trkpt lat="45.07942263185814" lon="6.901017990717368"><ele>1045.0</ele><time>2026-04-19T11:22:19Z</time></trkpt><trkpt lat="45.0793506025468" lon="6.901009302663409"><ele>1045.0</ele><time>2026-04-19T11:22:20Z</time></trkpt><trkpt lat="45.079258743899345" lon="6.901031156455682"><ele>1045.0</ele><time>2026-04-19T11:22:21Z</time></trkpt><trkpt lat="45.079172583116375" lon="6.90112405811362"><ele>1045.0</ele><time>2026-04-19T11:22:22Z</time></trkpt><trkpt lat="45.0791282013868" lon="6.901284551461574"><ele>1045.0</ele><time>2026-04-19T11:22:23Z</time></trkpt><trkpt lat="45.07913382278434" lon="6.901472724844753"><ele>1045.0</ele><time>2026-04-19T11:22:24Z</time></trkpt><trkpt lat="45.07918244311413" lon="6.901656029158931"><ele>1041.3333333333333</ele><time>2026-04-19T11:22:25Z</time></trkpt><trkpt lat="45.079283041142766" lon="6.901850413391338"><ele>1037.6666666666667</ele><time>2026-04-19T11:22:26Z</time></trkpt><trkpt lat="45.07941829758456" lon="6.902089633204432"><ele>1034.0</ele><time>2026-04-19T11:22:27Z</time></trkpt><trkpt lat="45.079575828323954" lon="6.902367906857227"><ele>1030.5</ele><time>2026-04-19T11:22:28Z</time></trkpt><trkpt lat="45.07974011736198" lon="6.902655231975942"><ele>1027.0</ele><time>2026-04-19T11:22:29Z</time></trkpt><trkpt lat="45.07988197121755" lon="6.902918782756537"><ele>1028.6666666666665</ele><time>2026-04-19T11:22:30Z</time></trkpt><trkpt lat="45.080008625715685" lon="6.9031453883036304"><ele>1030.3333333333333</ele><time>2026-04-19T11:22:31Z</time></trkpt><trkpt lat="45.08012910881948" lon="6.903324691512598"><ele>1032.0</ele><time>2026-04-19T11:22:32Z</time></trkpt><trkpt lat="45.08019018348206" lon="6.903484775244983"><ele>1032.0</ele><time>2026-04-19T11:22:33Z</time></trkpt><trkpt lat="45.08023455876387" lon="6.903575907295154"><ele>1032.0</ele><time>2026-04-19T11:22:34Z</time></trkpt><trkpt lat="45.08021085078719" lon="6.903693049671375"><ele>1032.0</ele><time>2026-04-19T11:22:35Z</time></trkpt><trkpt lat="45.0801295515025" lon="6.90378431615518"><ele>1032.0</ele><time>2026-04-19T11:22:36Z</time></trkpt><trkpt lat="45.080006128891426" lon="6.903773404375346"><ele>1032.0</ele><time>2026-04-19T11:22:37Z</time></trkpt><trkpt lat="45.079878389632604" lon="6.903638766379334"><ele>1030.3333333333333</ele><time>2026-04-19T11:22:38Z</time></trkpt><trkpt lat="45.079754293304575" lon="6.903426125113996"><ele>1028.6666666666665</ele><time>2026-04-19T11:22:39Z</time></trkpt><trkpt lat="45.079620637470796" lon="6.903167805683422"><ele>1027.0</ele><time>2026-04-19T11:22:40Z</time></trkpt><trkpt lat="45.07945661063342" lon="6.902882623355262"><ele>1027.0</ele><time>2026-04-19T11:22:41Z</time></trkpt><trkpt lat="45.07926637373692" lon="6.9026192417239915"><ele>1027.0</ele><time>2026-04-19T11:22:42Z</time></trkpt><trkpt lat="45.07909038307678" lon="6.902456335040885"><ele>1021.3333333333333</ele><time>2026-04-19T11:22:43Z</time></trkpt><trkpt lat="45.078946094039374" lon="6.9023535895176"><ele>1015.6666666666667</ele><time>2026-04-19T11:22:44Z</time></trkpt><trkpt lat="45.07883766489351" lon="6.902206464177447"><ele>1010.0</ele><time>2026-04-19T11:22:45Z</time></trkpt><trkpt lat="45.07878151508581" lon="6.902025598235053"><ele>1010.0</ele><time>2026-04-19T11:22:46Z</time></trkpt><trkpt lat="45.07874922845956" lon="6.901847257296913"><ele>1010.0</ele><time>2026-04-19T11:22:47Z</time></trkpt><trkpt lat="45.07872930657812" lon="6.901663267691293"><ele>1010.0</ele><time>2026-04-19T11:22:48Z</time></trkpt><trkpt lat="45.07871079041892" lon="6.90149845178057"><ele>1010.0</ele><time>2026-04-19T11:22:49Z</time></trkpt><trkpt lat="45.07870092091132" lon="6.901331420764445"><ele>1010.5</ele><time>2026-04-19T11:22:50Z</time></trkpt><trkpt lat="45.078684127692405" lon="6.901152019812707"><ele>1011.0</ele><time>2026-04-19T11:22:51Z</time></trkpt><trkpt lat="45.07865733633199" lon="6.90097481436244"><ele>1011.5</ele><time>2026-04-19T11:22:52Z</time></trkpt><trkpt lat="45.078664809096765" lon="6.900791504641071"><ele>1012.0</ele><time>2026-04-19T11:22:53Z</time></trkpt><trkpt lat="45.078655540011205" lon="6.900623605578245"><ele>1011.75</ele><time>2026-04-19T11:22:54Z</time></trkpt><trkpt lat="45.078694741266126" lon="6.900449816613259"><ele>1011.5</ele><time>2026-04-19T11:22:55Z</time></trkpt><trkpt lat="45.078739572692335" lon="6.900275100620625"><ele>1011.25</ele><time>2026-04-19T11:22:56Z</time></trkpt><trkpt lat="45.07880245028661" lon="6.900102095597804"><ele>1011.0</ele><time>2026-04-19T11:22:57Z</time></trkpt><trkpt lat="45.07887622719725" lon="6.899934222639399"><ele>1011.0</ele><time>2026-04-19T11:22:58Z</time></trkpt><trkpt lat="45.078956288942585" lon="6.899771668128426"><ele>1011.0</ele><time>2026-04-19T11:22:59Z</time></trkpt><trkpt lat="45.07903387596994" lon="6.899616917811308"><ele>1011.0</ele><time>2026-04-19T11:23:00Z</time></trkpt><trkpt lat="45.07909326872098" lon="6.89946134629652"><ele>1011.0</ele><time>2026-04-19T11:23:01Z</time></trkpt><trkpt lat="45.079155972554915" lon="6.899322581365395"><ele>1015.25</ele><time>2026-04-19T11:23:02Z</time></trkpt><trkpt lat="45.07922486523334" lon="6.8991732600350115"><ele>1019.5</ele><time>2026-04-19T11:23:03Z</time></trkpt><trkpt lat="45.07929282299804" lon="6.899023017684015"><ele>1023.75</ele><time>2026-04-19T11:23:04Z</time></trkpt><trkpt lat="45.07935494222862" lon="6.898866788578524"><ele>1028.0</ele><time>2026-04-19T11:23:05Z</time></trkpt><trkpt lat="45.07940970858803" lon="6.8987106311160415"><ele>1028.0</ele><time>2026-04-19T11:23:06Z</time></trkpt><trkpt lat="45.0794649168206" lon="6.898554481413646"><ele>1028.0</ele><time>2026-04-19T11:23:07Z</time></trkpt><trkpt lat="45.079502569352854" lon="6.898388883949037"><ele>1028.0</ele><time>2026-04-19T11:23:08Z</time></trkpt><trkpt lat="45.07950922726669" lon="6.898210510360949"><ele>1028.0</ele><time>2026-04-19T11:23:09Z</time></trkpt><trkpt lat="45.079484028000394" lon="6.898037608318218"><ele>1027.25</ele><time>2026-04-19T11:23:10Z</time></trkpt><trkpt lat="45.07942972221636" lon="6.897891845050395"><ele>1026.5</ele><time>2026-04-19T11:23:11Z</time></trkpt><trkpt lat="45.07937217669448" lon="6.897763312847706"><ele>1025.75</ele><time>2026-04-19T11:23:12Z</time></trkpt><trkpt lat="45.079311869929036" lon="6.8976249774896115"><ele>1025.0</ele><time>2026-04-19T11:23:13Z</time></trkpt><trkpt lat="45.07926287244497" lon="6.897461677165857"><ele>1025.0</ele><time>2026-04-19T11:23:14Z</time></trkpt><trkpt lat="45.07923838586487" lon="6.897282924868369"><ele>1025.0</ele><time>2026-04-19T11:23:15Z</time></trkpt><trkpt lat="45.07922953811604" lon="6.897097599449201"><ele>1025.0</ele><time>2026-04-19T11:23:16Z</time></trkpt><trkpt lat="45.07922622280276" lon="6.896918854817023"><ele>1025.0</ele><time>2026-04-19T11:23:17Z</time></trkpt><trkpt lat="45.07921916919539" lon="6.896751367871644"><ele>1024.75</ele><time>2026-04-19T11:23:18Z</time></trkpt><trkpt lat="45.07920891288144" lon="6.896573791182714"><ele>1024.5</ele><time>2026-04-19T11:23:19Z</time></trkpt><trkpt lat="45.079209138240365" lon="6.896396031536521"><ele>1024.25</ele><time>2026-04-19T11:23:20Z</time></trkpt><trkpt lat="45.079227250914826" lon="6.896225840160827"><ele>1024.0</ele><time>2026-04-19T11:23:21Z</time></trkpt><trkpt lat="45.07925246455449" lon="6.896071635959256"><ele>1024.0</ele><time>2026-04-19T11:23:22Z</time></trkpt><trkpt lat="45.07928323176484" lon="6.8959300210639"><ele>1024.0</ele><time>2026-04-19T11:23:23Z</time></trkpt><trkpt lat="45.079306939798435" lon="6.895781533614308"><ele>1024.0</ele><time>2026-04-19T11:23:24Z</time></trkpt><trkpt lat="45.079332972565744" lon="6.89562738198173"><ele>1024.0</ele><time>2026-04-19T11:23:25Z</time></trkpt><trkpt lat="45.07934809422549" lon="6.8954625263684175"><ele>1024.0</ele><time>2026-04-19T11:23:26Z</time></trkpt><trkpt lat="45.07933819173765" lon="6.895281439226004"><ele>1025.75</ele><time>2026-04-19T11:23:27Z</time></trkpt><trkpt lat="45.07931302532862" lon="6.895095658676745"><ele>1027.5</ele><time>2026-04-19T11:23:28Z</time></trkpt><trkpt lat="45.0792599199818" lon="6.89491221079578"><ele>1029.25</ele><time>2026-04-19T11:23:29Z</time></trkpt><trkpt lat="45.07918020372793" lon="6.894729148919583"><ele>1031.0</ele><time>2026-04-19T11:23:30Z</time></trkpt><trkpt lat="45.079106450142476" lon="6.894555123417573"><ele>1026.75</ele><time>2026-04-19T11:23:31Z</time></trkpt><trkpt lat="45.079019612824766" lon="6.894402084931923"><ele>1022.5</ele><time>2026-04-19T11:23:32Z</time></trkpt><trkpt lat="45.07894898022873" lon="6.894251485314987"><ele>1018.25</ele><time>2026-04-19T11:23:33Z</time></trkpt><trkpt lat="45.078889425322856" lon="6.894086979804921"><ele>1014.0</ele><time>2026-04-19T11:23:34Z</time></trkpt><trkpt lat="45.078819247702235" lon="6.893932360648919"><ele>1014.0</ele><time>2026-04-19T11:23:35Z</time></trkpt><trkpt lat="45.07873610977717" lon="6.893777699993184"><ele>1014.0</ele><time>2026-04-19T11:23:36Z</time></trkpt><trkpt lat="45.07865880657616" lon="6.893613425072867"><ele>1014.0</ele><time>2026-04-19T11:23:37Z</time></trkpt><trkpt lat="45.07858335582818" lon="6.893441092046077"><ele>1014.0</ele><time>2026-04-19T11:23:38Z</time></trkpt><trkpt lat="45.07850045950914" lon="6.8932806379240805"><ele>1012.0</ele><time>2026-04-19T11:23:39Z</time></trkpt><trkpt lat="45.078421263009744" lon="6.8931219042763905"><ele>1010.0</ele><time>2026-04-19T11:23:40Z</time></trkpt><trkpt lat="45.07834609199884" lon="6.892971398892265"><ele>1008.0</ele><time>2026-04-19T11:23:41Z</time></trkpt><trkpt lat="45.07828401029704" lon="6.892830701165093"><ele>1006.0</ele><time>2026-04-19T11:23:42Z</time></trkpt><trkpt lat="45.078194693223494" lon="6.8926798715965685"><ele>1006.5</ele><time>2026-04-19T11:23:43Z</time></trkpt><trkpt lat="45.07812063129855" lon="6.8925340053188355"><ele>1007.0</ele><time>2026-04-19T11:23:44Z</time></trkpt><trkpt lat="45.0780513799189" lon="6.892393106577581"><ele>1007.5</ele><time>2026-04-19T11:23:45Z</time></trkpt><trkpt lat="45.077989868290786" lon="6.892219222279467"><ele>1008.0</ele><time>2026-04-19T11:23:46Z</time></trkpt><trkpt lat="45.077920429398844" lon="6.892039208358936"><ele>1008.0</ele><time>2026-04-19T11:23:47Z</time></trkpt><trkpt lat="45.07783292655553" lon="6.89187039594579"><ele>1008.0</ele><time>2026-04-19T11:23:48Z</time></trkpt><trkpt lat="45.077747425174785" lon="6.891724054230517"><ele>1008.0</ele><time>2026-04-19T11:23:49Z</time></trkpt><trkpt lat="45.07765888879291" lon="6.891576650404074"><ele>1008.0</ele><time>2026-04-19T11:23:50Z</time></trkpt><trkpt lat="45.07757560166239" lon="6.891437378541434"><ele>1007.25</ele><time>2026-04-19T11:23:51Z</time></trkpt><trkpt lat="45.07749518161149" lon="6.891307838504523"><ele>1006.5</ele><time>2026-04-19T11:23:52Z</time></trkpt><trkpt lat="45.0774059477986" lon="6.891178004919009"><ele>1005.75</ele><time>2026-04-19T11:23:53Z</time></trkpt><trkpt lat="45.07731621799194" lon="6.89103856962189"><ele>1005.0</ele><time>2026-04-19T11:23:54Z</time></trkpt><trkpt lat="45.07722867659476" lon="6.890878632380209"><ele>1005.0</ele><time>2026-04-19T11:23:55Z</time></trkpt><trkpt lat="45.07714515351998" lon="6.890714926433512"><ele>1005.0</ele><time>2026-04-19T11:23:56Z</time></trkpt><trkpt lat="45.07707575082848" lon="6.89053229294655"><ele>1005.0</ele><time>2026-04-19T11:23:57Z</time></trkpt><trkpt lat="45.0770215443284" lon="6.890351646800022"><ele>1005.0</ele><time>2026-04-19T11:23:58Z</time></trkpt><trkpt lat="45.07695979391519" lon="6.890187145618025"><ele>1005.6666666666667</ele><time>2026-04-19T11:23:59Z</time></trkpt><trkpt lat="45.07688089113861" lon="6.89000874536236"><ele>1006.3333333333334</ele><time>2026-04-19T11:24:00Z</time></trkpt><trkpt lat="45.076759116843455" lon="6.889777421658189"><ele>1007.0</ele><time>2026-04-19T11:24:01Z</time></trkpt><trkpt lat="45.07659413213897" lon="6.889511064660644"><ele>1008.5</ele><time>2026-04-19T11:24:02Z</time></trkpt><trkpt lat="45.07642345372326" lon="6.8892355154551765"><ele>1010.0</ele><time>2026-04-19T11:24:03Z</time></trkpt><trkpt lat="45.07625679612287" lon="6.888982345352784"><ele>1010.0</ele><time>2026-04-19T11:24:04Z</time></trkpt><trkpt lat="45.0760848598587" lon="6.888739092631416"><ele>1010.0</ele><time>2026-04-19T11:24:05Z</time></trkpt><trkpt lat="45.07593116528851" lon="6.888524674796746"><ele>1007.0</ele><time>2026-04-19T11:24:06Z</time></trkpt><trkpt lat="45.0758366427039" lon="6.888237219490238"><ele>1004.0</ele><time>2026-04-19T11:24:07Z</time></trkpt><trkpt lat="45.07568680784449" lon="6.887928571508906"><ele>1004.0</ele><time>2026-04-19T11:24:08Z</time></trkpt><trkpt lat="45.07553438334489" lon="6.887609078802888"><ele>1004.0</ele><time>2026-04-19T11:24:09Z</time></trkpt><trkpt lat="45.075331220847765" lon="6.88734166644321"><ele>1005.3333333333334</ele><time>2026-04-19T11:24:10Z</time></trkpt><trkpt lat="45.07512240440291" lon="6.887152648773805"><ele>1006.6666666666667</ele><time>2026-04-19T11:24:11Z</time></trkpt><trkpt lat="45.07497107228964" lon="6.886968812552196"><ele>1008.0</ele><time>2026-04-19T11:24:12Z</time></trkpt><trkpt lat="45.07485300446256" lon="6.886722782923357"><ele>1008.0</ele><time>2026-04-19T11:24:13Z</time></trkpt><trkpt lat="45.0747191594034" lon="6.886441081011727"><ele>1008.0</ele><time>2026-04-19T11:24:14Z</time></trkpt><trkpt lat="45.074568643870236" lon="6.886186774922305"><ele>1008.0</ele><time>2026-04-19T11:24:15Z</time></trkpt><trkpt lat="45.07442206185419" lon="6.885967565884527"><ele>1008.0</ele><time>2026-04-19T11:24:16Z</time></trkpt><trkpt lat="45.0742747256367" lon="6.885786745845801"><ele>1008.0</ele><time>2026-04-19T11:24:17Z</time></trkpt><trkpt lat="45.074147561906706" lon="6.885602880337994"><ele>1010.0</ele><time>2026-04-19T11:24:18Z</time></trkpt><trkpt lat="45.074010831756354" lon="6.885460800091254"><ele>1012.0</ele><time>2026-04-19T11:24:19Z</time></trkpt><trkpt lat="45.0738696617782" lon="6.885359457113092"><ele>1014.0</ele><time>2026-04-19T11:24:20Z</time></trkpt><trkpt lat="45.07373481723651" lon="6.8852663946447805"><ele>1014.0</ele><time>2026-04-19T11:24:21Z</time></trkpt><trkpt lat="45.07360975842128" lon="6.885187502643305"><ele>1014.0</ele><time>2026-04-19T11:24:22Z</time></trkpt><trkpt lat="45.07348966212606" lon="6.885123906798373"><ele>1014.0</ele><time>2026-04-19T11:24:23Z</time></trkpt><trkpt lat="45.07337736951437" lon="6.885091686126129"><ele>1014.0</ele><time>2026-04-19T11:24:24Z</time></trkpt><trkpt lat="45.0732707266321" lon="6.885059819885757"><ele>1015.4000000000001</ele><time>2026-04-19T11:24:25Z</time></trkpt><trkpt lat="45.073170547302475" lon="6.884999009100021"><ele>1016.8000000000001</ele><time>2026-04-19T11:24:26Z</time></trkpt><trkpt lat="45.07307092154324" lon="6.884959142762205"><ele>1018.1999999999999</ele><time>2026-04-19T11:24:27Z</time></trkpt><trkpt lat="45.07297002068026" lon="6.8849198129612645"><ele>1019.5999999999999</ele><time>2026-04-19T11:24:28Z</time></trkpt><trkpt lat="45.07287367412705" lon="6.884881881253243"><ele>1021.0</ele><time>2026-04-19T11:24:29Z</time></trkpt><trkpt lat="45.07277305112117" lon="6.8848422658757915"><ele>1021.0</ele><time>2026-04-19T11:24:30Z</time></trkpt><trkpt lat="45.07267002298191" lon="6.884801703625654"><ele>1020.9999999999999</ele><time>2026-04-19T11:24:31Z</time></trkpt><trkpt lat="45.072565130424074" lon="6.88476040723797"><ele>1020.9999999999999</ele><time>2026-04-19T11:24:32Z</time></trkpt><trkpt lat="45.07246422814694" lon="6.884720556931575"><ele>1021.0</ele><time>2026-04-19T11:24:33Z</time></trkpt><trkpt lat="45.07235198595778" lon="6.884675307537899"><ele>1021.0</ele><time>2026-04-19T11:24:34Z</time></trkpt><trkpt lat="45.0722257396575" lon="6.884624380517933"><ele>1019.5</ele><time>2026-04-19T11:24:35Z</time></trkpt><trkpt lat="45.07208970373762" lon="6.884570631818468"><ele>1018.0</ele><time>2026-04-19T11:24:36Z</time></trkpt><trkpt lat="45.071968983602794" lon="6.884523260873546"><ele>1016.5</ele><time>2026-04-19T11:24:37Z</time></trkpt><trkpt lat="45.07183929560835" lon="6.884496004711308"><ele>1015.0</ele><time>2026-04-19T11:24:38Z</time></trkpt><trkpt lat="45.07170634803084" lon="6.884424295725525"><ele>1014.75</ele><time>2026-04-19T11:24:39Z</time></trkpt><trkpt lat="45.071567304453765" lon="6.8843792879781125"><ele>1014.5</ele><time>2026-04-19T11:24:40Z</time></trkpt><trkpt lat="45.07143637889779" lon="6.884338936729384"><ele>1014.25</ele><time>2026-04-19T11:24:41Z</time></trkpt><trkpt lat="45.07131111285099" lon="6.884289083339897"><ele>1014.0</ele><time>2026-04-19T11:24:42Z</time></trkpt><trkpt lat="45.07118403866517" lon="6.884201562007962"><ele>1014.3333333333333</ele><time>2026-04-19T11:24:43Z</time></trkpt><trkpt lat="45.07104748769739" lon="6.884111872860208"><ele>1014.6666666666666</ele><time>2026-04-19T11:24:44Z</time></trkpt><trkpt lat="45.07089290936827" lon="6.883983059504453"><ele>1015.0</ele><time>2026-04-19T11:24:45Z</time></trkpt><trkpt lat="45.070739686531184" lon="6.883807749019826"><ele>1015.0</ele><time>2026-04-19T11:24:46Z</time></trkpt><trkpt lat="45.07060964101804" lon="6.883597652628624"><ele>1015.0</ele><time>2026-04-19T11:24:47Z</time></trkpt><trkpt lat="45.07048903023479" lon="6.883357784931282"><ele>1015.0</ele><time>2026-04-19T11:24:48Z</time></trkpt><trkpt lat="45.07038611421391" lon="6.8831295969042685"><ele>1018.0</ele><time>2026-04-19T11:24:49Z</time></trkpt><trkpt lat="45.070295139641566" lon="6.882931318551576"><ele>1021.0</ele><time>2026-04-19T11:24:50Z</time></trkpt><trkpt lat="45.07021357631483" lon="6.882754236797683"><ele>1024.0</ele><time>2026-04-19T11:24:51Z</time></trkpt><trkpt lat="45.07013757069203" lon="6.882589220889706"><ele>1023.25</ele><time>2026-04-19T11:24:52Z</time></trkpt><trkpt lat="45.07005685421464" lon="6.882414855650841"><ele>1022.5</ele><time>2026-04-19T11:24:53Z</time></trkpt><trkpt lat="45.069974367352245" lon="6.882241939724014"><ele>1021.75</ele><time>2026-04-19T11:24:54Z</time></trkpt><trkpt lat="45.069899376898825" lon="6.882073751529388"><ele>1021.0</ele><time>2026-04-19T11:24:55Z</time></trkpt><trkpt lat="45.06983853030054" lon="6.881904122452952"><ele>1022.75</ele><time>2026-04-19T11:24:56Z</time></trkpt><trkpt lat="45.069784580763226" lon="6.881722940845375"><ele>1024.5</ele><time>2026-04-19T11:24:57Z</time></trkpt><trkpt lat="45.06973723891091" lon="6.881545271517454"><ele>1026.25</ele><time>2026-04-19T11:24:58Z</time></trkpt><trkpt lat="45.06969289916262" lon="6.881378397281845"><ele>1028.0</ele><time>2026-04-19T11:24:59Z</time></trkpt><trkpt lat="45.06965291299073" lon="6.881221340730982"><ele>1028.0</ele><time>2026-04-19T11:25:00Z</time></trkpt><trkpt lat="45.06961517758564" lon="6.881068253211278"><ele>1028.0</ele><time>2026-04-19T11:25:01Z</time></trkpt><trkpt lat="45.06957556271333" lon="6.880910098803407"><ele>1028.0</ele><time>2026-04-19T11:25:02Z</time></trkpt><trkpt lat="45.06953435494812" lon="6.8807436068895855"><ele>1028.0</ele><time>2026-04-19T11:25:03Z</time></trkpt><trkpt lat="45.06949254167229" lon="6.880578402174871"><ele>1029.75</ele><time>2026-04-19T11:25:04Z</time></trkpt><trkpt lat="45.06945022415287" lon="6.880412326253572"><ele>1031.5</ele><time>2026-04-19T11:25:05Z</time></trkpt><trkpt lat="45.06940800819344" lon="6.880246649021539"><ele>1033.25</ele><time>2026-04-19T11:25:06Z</time></trkpt><trkpt lat="45.069365634667115" lon="6.880080352365226"><ele>1035.0</ele><time>2026-04-19T11:25:07Z</time></trkpt><trkpt lat="45.06930647508767" lon="6.879932058418902"><ele>1035.5</ele><time>2026-04-19T11:25:08Z</time></trkpt><trkpt lat="45.06926807532434" lon="6.879781046972808"><ele>1036.0</ele><time>2026-04-19T11:25:09Z</time></trkpt><trkpt lat="45.06922798530056" lon="6.879625540086205"><ele>1036.5</ele><time>2026-04-19T11:25:10Z</time></trkpt><trkpt lat="45.06918282348044" lon="6.879457627722826"><ele>1037.0</ele><time>2026-04-19T11:25:11Z</time></trkpt><trkpt lat="45.069140294195115" lon="6.879295869917257"><ele>1037.25</ele><time>2026-04-19T11:25:12Z</time></trkpt><trkpt lat="45.06911159803626" lon="6.879126509878169"><ele>1037.5</ele><time>2026-04-19T11:25:13Z</time></trkpt><trkpt lat="45.0690513986081" lon="6.878973669115146"><ele>1037.75</ele><time>2026-04-19T11:25:14Z</time></trkpt><trkpt lat="45.06899824799686" lon="6.878817486205138"><ele>1038.0</ele><time>2026-04-19T11:25:15Z</time></trkpt><trkpt lat="45.06892927260511" lon="6.878666002342326"><ele>1036.0</ele><time>2026-04-19T11:25:16Z</time></trkpt><trkpt lat="45.068849133607046" lon="6.87851692111079"><ele>1034.0</ele><time>2026-04-19T11:25:17Z</time></trkpt><trkpt lat="45.06875214820375" lon="6.878361299820467"><ele>1032.0</ele><time>2026-04-19T11:25:18Z</time></trkpt><trkpt lat="45.06864010654722" lon="6.878163588841254"><ele>1032.0</ele><time>2026-04-19T11:25:19Z</time></trkpt><trkpt lat="45.06847313818864" lon="6.877968641605809"><ele>1032.0</ele><time>2026-04-19T11:25:20Z</time></trkpt><trkpt lat="45.068282326711355" lon="6.877745413416934"><ele>1029.0</ele><time>2026-04-19T11:25:21Z</time></trkpt><trkpt lat="45.068073719947435" lon="6.87750475942239"><ele>1026.0</ele><time>2026-04-19T11:25:22Z</time></trkpt><trkpt lat="45.067857452195256" lon="6.877255481319343"><ele>1026.0</ele><time>2026-04-19T11:25:23Z</time></trkpt><trkpt lat="45.06761656044758" lon="6.876993642278362"><ele>1026.0</ele><time>2026-04-19T11:25:24Z</time></trkpt><trkpt lat="45.06736872073012" lon="6.876704349478702"><ele>1027.0</ele><time>2026-04-19T11:25:25Z</time></trkpt><trkpt lat="45.06711121338928" lon="6.876402495951244"><ele>1028.0</ele><time>2026-04-19T11:25:26Z</time></trkpt><trkpt lat="45.066862803934285" lon="6.8760603670479"><ele>1028.0</ele><time>2026-04-19T11:25:27Z</time></trkpt><trkpt lat="45.066589936988414" lon="6.875736421061937"><ele>1028.0</ele><time>2026-04-19T11:25:28Z</time></trkpt><trkpt lat="45.06631883995009" lon="6.8753914116218535"><ele>1027.5</ele><time>2026-04-19T11:25:29Z</time></trkpt><trkpt lat="45.06603648350607" lon="6.87504440222479"><ele>1027.0</ele><time>2026-04-19T11:25:30Z</time></trkpt><trkpt lat="45.06576601089455" lon="6.874707828074768"><ele>1026.5</ele><time>2026-04-19T11:25:31Z</time></trkpt><trkpt lat="45.065517967979595" lon="6.874399269989172"><ele>1026.0</ele><time>2026-04-19T11:25:32Z</time></trkpt><trkpt lat="45.06528626870597" lon="6.874094033392251"><ele>1026.0</ele><time>2026-04-19T11:25:33Z</time></trkpt><trkpt lat="45.06508043884448" lon="6.873738197433927"><ele>1026.0</ele><time>2026-04-19T11:25:34Z</time></trkpt><trkpt lat="45.064863092626894" lon="6.873364936234347"><ele>1026.0</ele><time>2026-04-19T11:25:35Z</time></trkpt><trkpt lat="45.06465203084101" lon="6.872994493698607"><ele>1026.0</ele><time>2026-04-19T11:25:36Z</time></trkpt><trkpt lat="45.06443938650548" lon="6.8726465079187955"><ele>1025.5</ele><time>2026-04-19T11:25:37Z</time></trkpt><trkpt lat="45.06426657257029" lon="6.872319540202071"><ele>1025.0</ele><time>2026-04-19T11:25:38Z</time></trkpt><trkpt lat="45.064132450247065" lon="6.871967986123122"><ele>1025.0</ele><time>2026-04-19T11:25:39Z</time></trkpt><trkpt lat="45.06398967735956" lon="6.871589504091339"><ele>1025.0</ele><time>2026-04-19T11:25:40Z</time></trkpt><trkpt lat="45.06385643416497" lon="6.8711879689643505"><ele>1025.0</ele><time>2026-04-19T11:25:41Z</time></trkpt><trkpt lat="45.063718998904804" lon="6.870807063136788"><ele>1025.0</ele><time>2026-04-19T11:25:42Z</time></trkpt><trkpt lat="45.06360286264002" lon="6.87046522459052"><ele>1025.0</ele><time>2026-04-19T11:25:43Z</time></trkpt><trkpt lat="45.06345790046134" lon="6.870155330747414"><ele>1025.0</ele><time>2026-04-19T11:25:44Z</time></trkpt><trkpt lat="45.063253072699865" lon="6.869862141100368"><ele>1025.0</ele><time>2026-04-19T11:25:45Z</time></trkpt><trkpt lat="45.06300692212875" lon="6.869588644808124"><ele>1025.0</ele><time>2026-04-19T11:25:46Z</time></trkpt><trkpt lat="45.06274379097769" lon="6.869325978187123"><ele>1025.0</ele><time>2026-04-19T11:25:47Z</time></trkpt><trkpt lat="45.0624760002314" lon="6.869073575865875"><ele>1025.0</ele><time>2026-04-19T11:25:48Z</time></trkpt><trkpt lat="45.062214190312964" lon="6.868808530918462"><ele>1025.0</ele><time>2026-04-19T11:25:49Z</time></trkpt><trkpt lat="45.061952400912375" lon="6.8685315161146905"><ele>1025.0</ele><time>2026-04-19T11:25:50Z</time></trkpt><trkpt lat="45.0616849101775" lon="6.868260095156777"><ele>1025.5</ele><time>2026-04-19T11:25:51Z</time></trkpt><trkpt lat="45.06141932056279" lon="6.867970006819302"><ele>1026.0</ele><time>2026-04-19T11:25:52Z</time></trkpt><trkpt lat="45.061122962841175" lon="6.8677421666515075"><ele>1025.5</ele><time>2026-04-19T11:25:53Z</time></trkpt><trkpt lat="45.06083320089253" lon="6.86750514311899"><ele>1025.0</ele><time>2026-04-19T11:25:54Z</time></trkpt><trkpt lat="45.060547809153945" lon="6.867268754167393"><ele>1026.0</ele><time>2026-04-19T11:25:55Z</time></trkpt><trkpt lat="45.06027069214314" lon="6.867028548323918"><ele>1027.0</ele><time>2026-04-19T11:25:56Z</time></trkpt><trkpt lat="45.06000253200975" lon="6.866775853440367"><ele>1027.0</ele><time>2026-04-19T11:25:57Z</time></trkpt><trkpt lat="45.05975954704757" lon="6.8665087607986655"><ele>1027.0</ele><time>2026-04-19T11:25:58Z</time></trkpt><trkpt lat="45.05954799472378" lon="6.866244717486087"><ele>1027.0</ele><time>2026-04-19T11:25:59Z</time></trkpt><trkpt lat="45.05935030395165" lon="6.865993978513175"><ele>1027.0</ele><time>2026-04-19T11:26:00Z</time></trkpt><trkpt lat="45.059154984304655" lon="6.865749423860444"><ele>1029.0</ele><time>2026-04-19T11:26:01Z</time></trkpt><trkpt lat="45.05895088258115" lon="6.865510195006232"><ele>1031.0</ele><time>2026-04-19T11:26:02Z</time></trkpt><trkpt lat="45.05875318954343" lon="6.8652541068503385"><ele>1031.0</ele><time>2026-04-19T11:26:03Z</time></trkpt><trkpt lat="45.058560769406945" lon="6.864967025379973"><ele>1031.0</ele><time>2026-04-19T11:26:04Z</time></trkpt><trkpt lat="45.058374078299195" lon="6.86465997081623"><ele>1031.0</ele><time>2026-04-19T11:26:05Z</time></trkpt><trkpt lat="45.0581850199372" lon="6.864349420625089"><ele>1031.0</ele><time>2026-04-19T11:26:06Z</time></trkpt><trkpt lat="45.0580034455225" lon="6.864027632384242"><ele>1031.5</ele><time>2026-04-19T11:26:07Z</time></trkpt><trkpt lat="45.05785019741522" lon="6.86367560184973"><ele>1032.0</ele><time>2026-04-19T11:26:08Z</time></trkpt><trkpt lat="45.057702576916" lon="6.863331136213444"><ele>1033.0</ele><time>2026-04-19T11:26:09Z</time></trkpt><trkpt lat="45.05751393152896" lon="6.863042244009188"><ele>1034.0</ele><time>2026-04-19T11:26:10Z</time></trkpt><trkpt lat="45.05732728530851" lon="6.86279052269919"><ele>1032.5</ele><time>2026-04-19T11:26:11Z</time></trkpt><trkpt lat="45.057162866644425" lon="6.862545201986668"><ele>1031.0</ele><time>2026-04-19T11:26:12Z</time></trkpt><trkpt lat="45.05700918635713" lon="6.862316119676227"><ele>1031.0</ele><time>2026-04-19T11:26:13Z</time></trkpt><trkpt lat="45.05686474878745" lon="6.862108001997123"><ele>1031.0</ele><time>2026-04-19T11:26:14Z</time></trkpt><trkpt lat="45.05672771838884" lon="6.861905739191077"><ele>1031.0</ele><time>2026-04-19T11:26:15Z</time></trkpt><trkpt lat="45.05658960224669" lon="6.8617009579243575"><ele>1031.3333333333335</ele><time>2026-04-19T11:26:16Z</time></trkpt><trkpt lat="45.05644993448368" lon="6.861496678772497"><ele>1031.6666666666667</ele><time>2026-04-19T11:26:17Z</time></trkpt><trkpt lat="45.05630813359476" lon="6.861292253236436"><ele>1032.0</ele><time>2026-04-19T11:26:18Z</time></trkpt><trkpt lat="45.0561700920701" lon="6.861087398200789"><ele>1033.0</ele><time>2026-04-19T11:26:19Z</time></trkpt><trkpt lat="45.05603956630896" lon="6.860881758556516"><ele>1034.0</ele><time>2026-04-19T11:26:20Z</time></trkpt><trkpt lat="45.05590886767646" lon="6.860666488445331"><ele>1035.0</ele><time>2026-04-19T11:26:21Z</time></trkpt><trkpt lat="45.05577828033705" lon="6.860444448974075"><ele>1035.0</ele><time>2026-04-19T11:26:22Z</time></trkpt><trkpt lat="45.05564899896271" lon="6.860206254617867"><ele>1035.0</ele><time>2026-04-19T11:26:23Z</time></trkpt><trkpt lat="45.05551873244706" lon="6.859933931645174"><ele>1035.0</ele><time>2026-04-19T11:26:24Z</time></trkpt><trkpt lat="45.055386871087734" lon="6.859657661369302"><ele>1035.5</ele><time>2026-04-19T11:26:25Z</time></trkpt><trkpt lat="45.05525008823885" lon="6.859384015907454"><ele>1036.0</ele><time>2026-04-19T11:26:26Z</time></trkpt><trkpt lat="45.05509599421649" lon="6.859086271406816"><ele>1035.5</ele><time>2026-04-19T11:26:27Z</time></trkpt><trkpt lat="45.054921286841726" lon="6.858740074119783"><ele>1035.0</ele><time>2026-04-19T11:26:28Z</time></trkpt><trkpt lat="45.05474513834355" lon="6.858362917226921"><ele>1037.0</ele><time>2026-04-19T11:26:29Z</time></trkpt><trkpt lat="45.05457840737202" lon="6.857976099156337"><ele>1039.0</ele><time>2026-04-19T11:26:30Z</time></trkpt><trkpt lat="45.054405878051405" lon="6.857589418150978"><ele>1037.5</ele><time>2026-04-19T11:26:31Z</time></trkpt><trkpt lat="45.05422848307464" lon="6.857239339365541"><ele>1036.0</ele><time>2026-04-19T11:26:32Z</time></trkpt><trkpt lat="45.05405735211735" lon="6.85690309318796"><ele>1038.5</ele><time>2026-04-19T11:26:33Z</time></trkpt><trkpt lat="45.053881017458345" lon="6.856590042749168"><ele>1041.0</ele><time>2026-04-19T11:26:34Z</time></trkpt><trkpt lat="45.05371326455328" lon="6.856296041849823"><ele>1041.0</ele><time>2026-04-19T11:26:35Z</time></trkpt><trkpt lat="45.053539652526645" lon="6.856028109648788"><ele>1041.0</ele><time>2026-04-19T11:26:36Z</time></trkpt><trkpt lat="45.0533671460246" lon="6.855796283510498"><ele>1040.3333333333333</ele><time>2026-04-19T11:26:37Z</time></trkpt><trkpt lat="45.05321512986338" lon="6.855597809683276"><ele>1039.6666666666665</ele><time>2026-04-19T11:26:38Z</time></trkpt><trkpt lat="45.05305043648512" lon="6.855439339524836"><ele>1039.0</ele><time>2026-04-19T11:26:39Z</time></trkpt><trkpt lat="45.052974089755644" lon="6.855088333744398"><ele>1041.0</ele><time>2026-04-19T11:26:40Z</time></trkpt><trkpt lat="45.05282348364526" lon="6.854960368673273"><ele>1043.0</ele><time>2026-04-19T11:26:41Z</time></trkpt><trkpt lat="45.05265033776569" lon="6.8548716371016845"><ele>1045.0</ele><time>2026-04-19T11:26:42Z</time></trkpt><trkpt lat="45.05247707098738" lon="6.854801479803098"><ele>1044.3333333333333</ele><time>2026-04-19T11:26:43Z</time></trkpt><trkpt lat="45.052312799478194" lon="6.854712237805213"><ele>1043.6666666666667</ele><time>2026-04-19T11:26:44Z</time></trkpt><trkpt lat="45.05214888706238" lon="6.854604322681511"><ele>1043.0</ele><time>2026-04-19T11:26:45Z</time></trkpt><trkpt lat="45.05197837411333" lon="6.854500346858554"><ele>1043.0</ele><time>2026-04-19T11:26:46Z</time></trkpt><trkpt lat="45.05180690547183" lon="6.854392054586186"><ele>1043.0</ele><time>2026-04-19T11:26:47Z</time></trkpt><trkpt lat="45.051622993670975" lon="6.854270501615185"><ele>1043.0</ele><time>2026-04-19T11:26:48Z</time></trkpt><trkpt lat="45.051435752470894" lon="6.8541368622170085"><ele>1042.6666666666667</ele><time>2026-04-19T11:26:49Z</time></trkpt><trkpt lat="45.051236485468316" lon="6.854012668602624"><ele>1042.3333333333333</ele><time>2026-04-19T11:26:50Z</time></trkpt><trkpt lat="45.05104046854623" lon="6.853860739829147"><ele>1042.0</ele><time>2026-04-19T11:26:51Z</time></trkpt><trkpt lat="45.050834086040915" lon="6.853691164895565"><ele>1043.0</ele><time>2026-04-19T11:26:52Z</time></trkpt><trkpt lat="45.05062320608883" lon="6.8535052716892215"><ele>1044.0</ele><time>2026-04-19T11:26:53Z</time></trkpt><trkpt lat="45.05041395917104" lon="6.8532972007376065"><ele>1044.0</ele><time>2026-04-19T11:26:54Z</time></trkpt><trkpt lat="45.05020437683666" lon="6.853092088873439"><ele>1044.0</ele><time>2026-04-19T11:26:55Z</time></trkpt><trkpt lat="45.049997058187415" lon="6.852878369425426"><ele>1044.0</ele><time>2026-04-19T11:26:56Z</time></trkpt><trkpt lat="45.0497809478945" lon="6.852664176614493"><ele>1044.0</ele><time>2026-04-19T11:26:57Z</time></trkpt><trkpt lat="45.04955586760263" lon="6.85244996291025"><ele>1044.0</ele><time>2026-04-19T11:26:58Z</time></trkpt><trkpt lat="45.04933455176323" lon="6.852241836404555"><ele>1044.0</ele><time>2026-04-19T11:26:59Z</time></trkpt><trkpt lat="45.04911235551146" lon="6.852028115706264"><ele>1045.0</ele><time>2026-04-19T11:27:00Z</time></trkpt><trkpt lat="45.048885522493315" lon="6.851811228336939"><ele>1046.0</ele><time>2026-04-19T11:27:01Z</time></trkpt><trkpt lat="45.04867339860477" lon="6.851568292995996"><ele>1046.0</ele><time>2026-04-19T11:27:02Z</time></trkpt><trkpt lat="45.04846148954668" lon="6.851327268312178"><ele>1046.0</ele><time>2026-04-19T11:27:03Z</time></trkpt><trkpt lat="45.04824948963769" lon="6.85107667184658"><ele>1046.5</ele><time>2026-04-19T11:27:04Z</time></trkpt><trkpt lat="45.04804128234414" lon="6.850830125997867"><ele>1047.0</ele><time>2026-04-19T11:27:05Z</time></trkpt><trkpt lat="45.04783817273186" lon="6.8505893700971425"><ele>1047.0</ele><time>2026-04-19T11:27:06Z</time></trkpt><trkpt lat="45.0476246623252" lon="6.850364537134322"><ele>1047.0</ele><time>2026-04-19T11:27:07Z</time></trkpt><trkpt lat="45.047430668783036" lon="6.8501007563250615"><ele>1047.5</ele><time>2026-04-19T11:27:08Z</time></trkpt><trkpt lat="45.04723051821457" lon="6.849857415506772"><ele>1048.0</ele><time>2026-04-19T11:27:09Z</time></trkpt><trkpt lat="45.047028398613755" lon="6.849615590660698"><ele>1048.0</ele><time>2026-04-19T11:27:10Z</time></trkpt><trkpt lat="45.04681623836194" lon="6.849391304158341"><ele>1048.0</ele><time>2026-04-19T11:27:11Z</time></trkpt><trkpt lat="45.04661826584339" lon="6.849147707664119"><ele>1049.0</ele><time>2026-04-19T11:27:12Z</time></trkpt><trkpt lat="45.04641724599665" lon="6.848906607975101"><ele>1050.0</ele><time>2026-04-19T11:27:13Z</time></trkpt><trkpt lat="45.046213566356386" lon="6.848670983850794"><ele>1050.0</ele><time>2026-04-19T11:27:14Z</time></trkpt><trkpt lat="45.04602409932061" lon="6.8484150758275195"><ele>1050.0</ele><time>2026-04-19T11:27:15Z</time></trkpt><trkpt lat="45.04582780736675" lon="6.8481773516940265"><ele>1049.5</ele><time>2026-04-19T11:27:16Z</time></trkpt><trkpt lat="45.0456344612729" lon="6.84794294023913"><ele>1049.0</ele><time>2026-04-19T11:27:17Z</time></trkpt><trkpt lat="45.045427352667666" lon="6.847721743106492"><ele>1049.0</ele><time>2026-04-19T11:27:18Z</time></trkpt><trkpt lat="45.045234043057214" lon="6.847485533478179"><ele>1049.0</ele><time>2026-04-19T11:27:19Z</time></trkpt><trkpt lat="45.045048404136146" lon="6.847248931807482"><ele>1049.5</ele><time>2026-04-19T11:27:20Z</time></trkpt><trkpt lat="45.044848811386736" lon="6.847024892094795"><ele>1050.0</ele><time>2026-04-19T11:27:21Z</time></trkpt><trkpt lat="45.04465534998918" lon="6.846795502577411"><ele>1050.5</ele><time>2026-04-19T11:27:22Z</time></trkpt><trkpt lat="45.04446982709592" lon="6.846565509987056"><ele>1051.0</ele><time>2026-04-19T11:27:23Z</time></trkpt><trkpt lat="45.04428229467936" lon="6.846334140182277"><ele>1051.0</ele><time>2026-04-19T11:27:24Z</time></trkpt><trkpt lat="45.044090965291275" lon="6.846107681192606"><ele>1051.0</ele><time>2026-04-19T11:27:25Z</time></trkpt><trkpt lat="45.04389998733941" lon="6.845884538560384"><ele>1052.0</ele><time>2026-04-19T11:27:26Z</time></trkpt><trkpt lat="45.043711248161316" lon="6.845661055473604"><ele>1053.0</ele><time>2026-04-19T11:27:27Z</time></trkpt><trkpt lat="45.04352222961231" lon="6.845436367666459"><ele>1053.0</ele><time>2026-04-19T11:27:28Z</time></trkpt><trkpt lat="45.04333695757609" lon="6.845212118786039"><ele>1053.0</ele><time>2026-04-19T11:27:29Z</time></trkpt><trkpt lat="45.04315382847936" lon="6.844997521141504"><ele>1053.3333333333333</ele><time>2026-04-19T11:27:30Z</time></trkpt><trkpt lat="45.04298536252427" lon="6.844798132367207"><ele>1053.6666666666665</ele><time>2026-04-19T11:27:31Z</time></trkpt><trkpt lat="45.042830630187375" lon="6.8446134243680365"><ele>1054.0</ele><time>2026-04-19T11:27:32Z</time></trkpt><trkpt lat="45.04268604004953" lon="6.844440873191611"><ele>1053.6666666666665</ele><time>2026-04-19T11:27:33Z</time></trkpt><trkpt lat="45.04254325543364" lon="6.8442719966950065"><ele>1053.3333333333333</ele><time>2026-04-19T11:27:34Z</time></trkpt><trkpt lat="45.04240096016836" lon="6.844098263579294"><ele>1053.0</ele><time>2026-04-19T11:27:35Z</time></trkpt><trkpt lat="45.0422630400983" lon="6.8439239911894925"><ele>1053.75</ele><time>2026-04-19T11:27:36Z</time></trkpt><trkpt lat="45.0421418894708" lon="6.843773345832325"><ele>1054.5</ele><time>2026-04-19T11:27:37Z</time></trkpt><trkpt lat="45.042031956288554" lon="6.843633374666472"><ele>1055.25</ele><time>2026-04-19T11:27:38Z</time></trkpt><trkpt lat="45.04193772664011" lon="6.843499908825675"><ele>1056.0</ele><time>2026-04-19T11:27:39Z</time></trkpt><trkpt lat="45.04185229066401" lon="6.843369218675422"><ele>1056.25</ele><time>2026-04-19T11:27:40Z</time></trkpt><trkpt lat="45.04178729210676" lon="6.84322108001596"><ele>1056.5</ele><time>2026-04-19T11:27:41Z</time></trkpt><trkpt lat="45.04174579509387" lon="6.843058943938634"><ele>1056.75</ele><time>2026-04-19T11:27:42Z</time></trkpt><trkpt lat="45.04165100448789" lon="6.842939749369159"><ele>1057.0</ele><time>2026-04-19T11:27:43Z</time></trkpt><trkpt lat="45.04150062748203" lon="6.842889116433265"><ele>1057.3333333333333</ele><time>2026-04-19T11:27:44Z</time></trkpt><trkpt lat="45.04135000196218" lon="6.842826244361385"><ele>1057.6666666666667</ele><time>2026-04-19T11:27:45Z</time></trkpt><trkpt lat="45.04122737862884" lon="6.842666676856305"><ele>1058.0</ele><time>2026-04-19T11:27:46Z</time></trkpt><trkpt lat="45.04107662440531" lon="6.842488275481842"><ele>1058.6666666666667</ele><time>2026-04-19T11:27:47Z</time></trkpt><trkpt lat="45.04090763378961" lon="6.842293695672204"><ele>1059.3333333333333</ele><time>2026-04-19T11:27:48Z</time></trkpt><trkpt lat="45.040723540345255" lon="6.842108196092361"><ele>1060.0</ele><time>2026-04-19T11:27:49Z</time></trkpt><trkpt lat="45.04055882844559" lon="6.841895918204669"><ele>1060.6666666666665</ele><time>2026-04-19T11:27:50Z</time></trkpt><trkpt lat="45.04039089734573" lon="6.841691659087398"><ele>1061.3333333333333</ele><time>2026-04-19T11:27:51Z</time></trkpt><trkpt lat="45.040212166452676" lon="6.841494109874112"><ele>1062.0</ele><time>2026-04-19T11:27:52Z</time></trkpt><trkpt lat="45.040027761335956" lon="6.841291913052717"><ele>1062.5</ele><time>2026-04-19T11:27:53Z</time></trkpt><trkpt lat="45.03983910130281" lon="6.841091790180054"><ele>1063.0</ele><time>2026-04-19T11:27:54Z</time></trkpt><trkpt lat="45.039643067222734" lon="6.840895754352389"><ele>1063.0</ele><time>2026-04-19T11:27:55Z</time></trkpt><trkpt lat="45.0394438490613" lon="6.840698401718561"><ele>1063.0</ele><time>2026-04-19T11:27:56Z</time></trkpt><trkpt lat="45.03924296253199" lon="6.840497804443221"><ele>1067.0</ele><time>2026-04-19T11:27:57Z</time></trkpt><trkpt lat="45.039049523233665" lon="6.8402986183151615"><ele>1071.0</ele><time>2026-04-19T11:27:58Z</time></trkpt><trkpt lat="45.03885080095305" lon="6.840099143722379"><ele>1071.0</ele><time>2026-04-19T11:27:59Z</time></trkpt><trkpt lat="45.03865103254896" lon="6.8399044726612415"><ele>1071.0</ele><time>2026-04-19T11:28:00Z</time></trkpt><trkpt lat="45.03846643486384" lon="6.839713579920759"><ele>1072.6666666666667</ele><time>2026-04-19T11:28:01Z</time></trkpt><trkpt lat="45.03829715827878" lon="6.839538304827213"><ele>1074.3333333333335</ele><time>2026-04-19T11:28:02Z</time></trkpt><trkpt lat="45.03813869569764" lon="6.839375956061769"><ele>1076.0</ele><time>2026-04-19T11:28:03Z</time></trkpt><trkpt lat="45.037991119690254" lon="6.839220587123134"><ele>1076.0</ele><time>2026-04-19T11:28:04Z</time></trkpt><trkpt lat="45.03785424892504" lon="6.839073353648205"><ele>1076.0</ele><time>2026-04-19T11:28:05Z</time></trkpt><trkpt lat="45.03770921744889" lon="6.8389321303167"><ele>1076.0</ele><time>2026-04-19T11:28:06Z</time></trkpt><trkpt lat="45.037560398898734" lon="6.83879614111445"><ele>1077.0</ele><time>2026-04-19T11:28:07Z</time></trkpt><trkpt lat="45.037415467495585" lon="6.838651933041709"><ele>1078.0</ele><time>2026-04-19T11:28:08Z</time></trkpt><trkpt lat="45.03727536527023" lon="6.838516590637563"><ele>1079.0</ele><time>2026-04-19T11:28:09Z</time></trkpt><trkpt lat="45.03713147392181" lon="6.838384017615494"><ele>1079.0</ele><time>2026-04-19T11:28:10Z</time></trkpt><trkpt lat="45.03698483376855" lon="6.838246821353466"><ele>1079.0</ele><time>2026-04-19T11:28:11Z</time></trkpt><trkpt lat="45.03684134651284" lon="6.838101765733025"><ele>1079.0</ele><time>2026-04-19T11:28:12Z</time></trkpt><trkpt lat="45.03669555982228" lon="6.837959892371618"><ele>1079.0</ele><time>2026-04-19T11:28:13Z</time></trkpt><trkpt lat="45.036548552505494" lon="6.837817013041824"><ele>1079.0</ele><time>2026-04-19T11:28:14Z</time></trkpt><trkpt lat="45.03640314550685" lon="6.837670813578098"><ele>1079.0</ele><time>2026-04-19T11:28:15Z</time></trkpt><trkpt lat="45.036255162367425" lon="6.837526481387442"><ele>1079.0</ele><time>2026-04-19T11:28:16Z</time></trkpt><trkpt lat="45.03610582337156" lon="6.837376316941494"><ele>1079.0</ele><time>2026-04-19T11:28:17Z</time></trkpt><trkpt lat="45.03595046424153" lon="6.837234184064052"><ele>1079.0</ele><time>2026-04-19T11:28:18Z</time></trkpt><trkpt lat="45.035804657798835" lon="6.837086603284139"><ele>1078.0</ele><time>2026-04-19T11:28:19Z</time></trkpt><trkpt lat="45.03567651066478" lon="6.836950124002137"><ele>1077.0</ele><time>2026-04-19T11:28:20Z</time></trkpt><trkpt lat="45.035565103218474" lon="6.836795628828697"><ele>1076.0</ele><time>2026-04-19T11:28:21Z</time></trkpt><trkpt lat="45.03545806530348" lon="6.836660811468387"><ele>1076.0</ele><time>2026-04-19T11:28:22Z</time></trkpt><trkpt lat="45.03535473116372" lon="6.836550385029335"><ele>1076.0</ele><time>2026-04-19T11:28:23Z</time></trkpt><trkpt lat="45.035271436475945" lon="6.836434119595415"><ele>1076.0</ele><time>2026-04-19T11:28:24Z</time></trkpt><trkpt lat="45.03519977080955" lon="6.836332302273667"><ele>1076.0</ele><time>2026-04-19T11:28:25Z</time></trkpt><trkpt lat="45.03513077527239" lon="6.836230256502143"><ele>1076.0</ele><time>2026-04-19T11:28:26Z</time></trkpt><trkpt lat="45.03506763677309" lon="6.83613961051131"><ele>1076.0</ele><time>2026-04-19T11:28:27Z</time></trkpt><trkpt lat="45.035012015467075" lon="6.83606040351595"><ele>1076.0</ele><time>2026-04-19T11:28:28Z</time></trkpt><trkpt lat="45.0349623416672" lon="6.835989511325863"><ele>1076.0</ele><time>2026-04-19T11:28:29Z</time></trkpt><trkpt lat="45.0349071106368" lon="6.835911098961521"><ele>1076.0</ele><time>2026-04-19T11:28:30Z</time></trkpt><trkpt lat="45.03485107712982" lon="6.835832242771738"><ele>1076.0</ele><time>2026-04-19T11:28:31Z</time></trkpt><trkpt lat="45.034805673033496" lon="6.835734398838648"><ele>1076.0</ele><time>2026-04-19T11:28:32Z</time></trkpt><trkpt lat="45.03475230994495" lon="6.835656341341973"><ele>1076.5</ele><time>2026-04-19T11:28:33Z</time></trkpt><trkpt lat="45.03470223243247" lon="6.835583577190522"><ele>1077.0</ele><time>2026-04-19T11:28:34Z</time></trkpt><trkpt lat="45.034636571556234" lon="6.8355217096510685"><ele>1077.5</ele><time>2026-04-19T11:28:35Z</time></trkpt><trkpt lat="45.03459349506011" lon="6.83542620533755"><ele>1078.0</ele><time>2026-04-19T11:28:36Z</time></trkpt><trkpt lat="45.03453908308737" lon="6.835347456773213"><ele>1078.5</ele><time>2026-04-19T11:28:37Z</time></trkpt><trkpt lat="45.034479258668945" lon="6.835261263545795"><ele>1079.0</ele><time>2026-04-19T11:28:38Z</time></trkpt><trkpt lat="45.03442608703938" lon="6.8351847945904725"><ele>1078.6000000000001</ele><time>2026-04-19T11:28:39Z</time></trkpt><trkpt lat="45.03438068850089" lon="6.8351195045479365"><ele>1078.2</ele><time>2026-04-19T11:28:40Z</time></trkpt><trkpt lat="45.03429400458938" lon="6.835021351352534"><ele>1077.8000000000002</ele><time>2026-04-19T11:28:42Z</time></trkpt><trkpt lat="45.03423385022861" lon="6.8349079244727"><ele>1077.4</ele><time>2026-04-19T11:28:44Z</time></trkpt><trkpt lat="45.03418073763197" lon="6.834831337438875"><ele>1077.0</ele><time>2026-04-19T11:28:47Z</time></trkpt><trkpt lat="45.03404265290583" lon="6.8348686812180235"><ele>1077.0</ele><time>2026-04-19T11:28:49Z</time></trkpt><trkpt lat="45.033996663356184" lon="6.834763143872059"><ele>1077.0</ele><time>2026-04-19T11:28:51Z</time></trkpt><trkpt lat="45.034018756134664" lon="6.834630002326358"><ele>1077.0</ele><time>2026-04-19T11:28:54Z</time></trkpt><trkpt lat="45.03382050397126" lon="6.83470120779063"><ele>1077.0</ele><time>2026-04-19T11:28:55Z</time></trkpt><trkpt lat="45.03402196335598" lon="6.834830421473318"><ele>1077.0</ele><time>2026-04-19T11:28:57Z</time></trkpt><trkpt lat="45.034065474774735" lon="6.834895340880859"><ele>1077.0</ele><time>2026-04-19T11:29:00Z</time></trkpt><trkpt lat="45.034117814902665" lon="6.834953126814596"><ele>1077.0</ele><time>2026-04-19T11:31:07Z</time></trkpt><trkpt lat="45.034177676932536" lon="6.83501131391817"><ele>1077.0</ele><time>2026-04-19T11:31:15Z</time></trkpt><trkpt lat="45.034236908506514" lon="6.835066132575196"><ele>1077.0</ele><time>2026-04-19T11:31:22Z</time></trkpt><trkpt lat="45.03428418960721" lon="6.8351347344025815"><ele>1077.0</ele><time>2026-04-19T11:31:28Z</time></trkpt><trkpt lat="45.03434349204386" lon="6.8351952374434095"><ele>1077.0</ele><time>2026-04-19T11:31:35Z</time></trkpt><trkpt lat="45.03438537310746" lon="6.835269350481396"><ele>1077.5</ele><time>2026-04-19T11:31:41Z</time></trkpt><trkpt lat="45.03434696199291" lon="6.835347094908508"><ele>1078.0</ele><time>2026-04-19T11:31:54Z</time></trkpt><trkpt lat="45.034416269997735" lon="6.835304212158718"><ele>1078.5</ele><time>2026-04-19T11:31:59Z</time></trkpt><trkpt lat="45.034366832758074" lon="6.8352207654721635"><ele>1079.0</ele><time>2026-04-19T11:33:06.011Z</time></trkpt><trkpt lat="45.03489477311273" lon="6.8327999337123595"><ele>1077.5</ele><time>2026-04-19T11:39:19.999Z</time></trkpt><trkpt lat="45.0348977300326" lon="6.832901050802671"><ele>1076.0</ele><time>2026-04-19T11:39:22.999Z</time></trkpt><trkpt lat="45.03446866278915" lon="6.834946168704378"><ele>1076.0</ele><time>2026-04-19T11:39:23.999Z</time></trkpt><trkpt lat="45.034398821754294" lon="6.835186502290139"><ele>1076.0</ele><time>2026-04-19T11:39:24.999Z</time></trkpt><trkpt lat="45.03433617285277" lon="6.835195753381732"><ele>1076.0</ele><time>2026-04-19T11:39:33Z</time></trkpt><trkpt lat="45.03429125633156" lon="6.835118679025645"><ele>1076.0</ele><time>2026-04-19T11:39:41Z</time></trkpt><trkpt lat="45.03424782777519" lon="6.8350461509938105"><ele>1076.0</ele><time>2026-04-19T11:39:48Z</time></trkpt><trkpt lat="45.03418730067942" lon="6.835002659984172"><ele>1076.0</ele><time>2026-04-19T11:39:55Z</time></trkpt><trkpt lat="45.034135549883665" lon="6.834941616461262"><ele>1076.0</ele><time>2026-04-19T11:40:02Z</time></trkpt><trkpt lat="45.0342164049095" lon="6.8349787499971235"><ele>1076.0</ele><time>2026-04-19T11:58:24Z</time></trkpt><trkpt lat="45.03430828219901" lon="6.835056126850281"><ele>1076.0</ele><time>2026-04-19T11:58:27Z</time></trkpt><trkpt lat="45.03437381489034" lon="6.835158444765008"><ele>1076.0</ele><time>2026-04-19T11:58:29Z</time></trkpt><trkpt lat="45.0344624067479" lon="6.835280336382511"><ele>1076.4285714285716</ele><time>2026-04-19T11:58:31Z</time></trkpt><trkpt lat="45.0345064645566" lon="6.835351754669437"><ele>1076.857142857143</ele><time>2026-04-19T11:58:32Z</time></trkpt><trkpt lat="45.03455289804294" lon="6.835416135816507"><ele>1077.2857142857142</ele><time>2026-04-19T11:58:33Z</time></trkpt><trkpt lat="45.03460359794273" lon="6.8354844673556885"><ele>1077.7142857142858</ele><time>2026-04-19T11:58:34Z</time></trkpt><trkpt lat="45.034656652695745" lon="6.835563588852442"><ele>1078.142857142857</ele><time>2026-04-19T11:58:35Z</time></trkpt><trkpt lat="45.034714139616014" lon="6.835647686432485"><ele>1078.5714285714287</ele><time>2026-04-19T11:58:36Z</time></trkpt><trkpt lat="45.034776463864" lon="6.835734037208776"><ele>1079.0</ele><time>2026-04-19T11:58:37Z</time></trkpt><trkpt lat="45.034838151699404" lon="6.835821442318184"><ele>1079.0</ele><time>2026-04-19T11:58:38Z</time></trkpt><trkpt lat="45.03490289876124" lon="6.835912451880783"><ele>1079.0</ele><time>2026-04-19T11:58:39Z</time></trkpt><trkpt lat="45.0349672050079" lon="6.836006860928754"><ele>1079.0</ele><time>2026-04-19T11:58:40Z</time></trkpt><trkpt lat="45.03503330891561" lon="6.836104743177062"><ele>1079.0</ele><time>2026-04-19T11:58:41Z</time></trkpt><trkpt lat="45.03509647023304" lon="6.8362007856646025"><ele>1079.0</ele><time>2026-04-19T11:58:42Z</time></trkpt><trkpt lat="45.03515393860354" lon="6.836295661605184"><ele>1078.5</ele><time>2026-04-19T11:58:43Z</time></trkpt><trkpt lat="45.035215145845115" lon="6.836388897118114"><ele>1078.0</ele><time>2026-04-19T11:58:44Z</time></trkpt><trkpt lat="45.03527161279075" lon="6.836475756097176"><ele>1077.5</ele><time>2026-04-19T11:58:45Z</time></trkpt><trkpt lat="45.03533045202056" lon="6.836564203514731"><ele>1077.0</ele><time>2026-04-19T11:58:46Z</time></trkpt><trkpt lat="45.03539360987863" lon="6.836648723533156"><ele>1076.5</ele><time>2026-04-19T11:58:47Z</time></trkpt><trkpt lat="45.03546150421691" lon="6.836730470151297"><ele>1076.0</ele><time>2026-04-19T11:58:48Z</time></trkpt><trkpt lat="45.03553588415397" lon="6.836817241189193"><ele>1076.6</ele><time>2026-04-19T11:58:49Z</time></trkpt><trkpt lat="45.035616169805" lon="6.836917988795862"><ele>1077.1999999999998</ele><time>2026-04-19T11:58:50Z</time></trkpt><trkpt lat="45.03569992496111" lon="6.837013471450048"><ele>1077.8000000000002</ele><time>2026-04-19T11:58:51Z</time></trkpt><trkpt lat="45.03579020184837" lon="6.837102522564698"><ele>1078.4</ele><time>2026-04-19T11:58:52Z</time></trkpt><trkpt lat="45.03588269361872" lon="6.837197411348835"><ele>1079.0</ele><time>2026-04-19T11:58:53Z</time></trkpt><trkpt lat="45.035980275216545" lon="6.837293182636089"><ele>1079.0</ele><time>2026-04-19T11:58:54Z</time></trkpt><trkpt lat="45.03608056606282" lon="6.837389693072696"><ele>1079.0</ele><time>2026-04-19T11:58:55Z</time></trkpt><trkpt lat="45.03618106769565" lon="6.837493018349622"><ele>1079.0</ele><time>2026-04-19T11:58:56Z</time></trkpt><trkpt lat="45.036288608143344" lon="6.837598910037693"><ele>1079.0</ele><time>2026-04-19T11:58:57Z</time></trkpt><trkpt lat="45.03639432781165" lon="6.837706490829301"><ele>1079.0</ele><time>2026-04-19T11:58:58Z</time></trkpt><trkpt lat="45.03650223164455" lon="6.837818009545519"><ele>1079.0</ele><time>2026-04-19T11:58:59Z</time></trkpt><trkpt lat="45.03662197143082" lon="6.837930352863706"><ele>1079.0</ele><time>2026-04-19T11:59:00Z</time></trkpt><trkpt lat="45.0367432955588" lon="6.83804952203375"><ele>1079.0</ele><time>2026-04-19T11:59:01Z</time></trkpt><trkpt lat="45.036865441477715" lon="6.838169546810783"><ele>1079.0</ele><time>2026-04-19T11:59:02Z</time></trkpt><trkpt lat="45.03699363539341" lon="6.838289620968397"><ele>1079.0</ele><time>2026-04-19T11:59:03Z</time></trkpt><trkpt lat="45.03712288696844" lon="6.838416147186766"><ele>1079.0</ele><time>2026-04-19T11:59:04Z</time></trkpt><trkpt lat="45.0372515241371" lon="6.838544326049855"><ele>1078.0</ele><time>2026-04-19T11:59:05Z</time></trkpt><trkpt lat="45.03738111802413" lon="6.838672186817029"><ele>1077.0</ele><time>2026-04-19T11:59:06Z</time></trkpt><trkpt lat="45.037512215389526" lon="6.838796700654217"><ele>1076.0</ele><time>2026-04-19T11:59:07Z</time></trkpt><trkpt lat="45.03764470378638" lon="6.838907813058583"><ele>1076.0</ele><time>2026-04-19T11:59:08Z</time></trkpt><trkpt lat="45.03776701304872" lon="6.839008746132802"><ele>1076.0</ele><time>2026-04-19T11:59:09Z</time></trkpt><trkpt lat="45.037889259134445" lon="6.839104107465001"><ele>1076.0</ele><time>2026-04-19T11:59:10Z</time></trkpt><trkpt lat="45.038041148387855" lon="6.839328648807353"><ele>1074.3333333333335</ele><time>2026-04-19T11:59:11Z</time></trkpt><trkpt lat="45.03818148268488" lon="6.839454131541633"><ele>1072.6666666666667</ele><time>2026-04-19T11:59:12Z</time></trkpt><trkpt lat="45.038314995522924" lon="6.8395953544556765"><ele>1071.0</ele><time>2026-04-19T11:59:13Z</time></trkpt><trkpt lat="45.038450065847016" lon="6.839735146647888"><ele>1071.0</ele><time>2026-04-19T11:59:14Z</time></trkpt><trkpt lat="45.03858691094447" lon="6.839872747151033"><ele>1071.0</ele><time>2026-04-19T11:59:15Z</time></trkpt><trkpt lat="45.03872568533338" lon="6.840010901095907"><ele>1071.0</ele><time>2026-04-19T11:59:16Z</time></trkpt><trkpt lat="45.03886492828846" lon="6.8401548370634115"><ele>1068.3333333333333</ele><time>2026-04-19T11:59:17Z</time></trkpt><trkpt lat="45.03900283839579" lon="6.840300068426793"><ele>1065.6666666666665</ele><time>2026-04-19T11:59:18Z</time></trkpt><trkpt lat="45.03914152394136" lon="6.840438800633875"><ele>1063.0</ele><time>2026-04-19T11:59:19Z</time></trkpt><trkpt lat="45.039281470756876" lon="6.840580621120682"><ele>1063.0</ele><time>2026-04-19T11:59:20Z</time></trkpt><trkpt lat="45.03942207958309" lon="6.840723907660962"><ele>1063.0</ele><time>2026-04-19T11:59:21Z</time></trkpt><trkpt lat="45.03956154225005" lon="6.840870386664624"><ele>1063.0</ele><time>2026-04-19T11:59:22Z</time></trkpt><trkpt lat="45.039698829266904" lon="6.841020343277512"><ele>1062.6666666666665</ele><time>2026-04-19T11:59:23Z</time></trkpt><trkpt lat="45.03983911848941" lon="6.841166293243339"><ele>1062.3333333333333</ele><time>2026-04-19T11:59:24Z</time></trkpt><trkpt lat="45.03997473059553" lon="6.84132063338182"><ele>1062.0</ele><time>2026-04-19T11:59:25Z</time></trkpt><trkpt lat="45.04011019295429" lon="6.841473578174467"><ele>1062.0</ele><time>2026-04-19T11:59:26Z</time></trkpt><trkpt lat="45.04024713765068" lon="6.841623431292937"><ele>1062.0</ele><time>2026-04-19T11:59:27Z</time></trkpt><trkpt lat="45.04038384537912" lon="6.8417716239682065"><ele>1062.0</ele><time>2026-04-19T11:59:28Z</time></trkpt><trkpt lat="45.040510104670396" lon="6.84191739323073"><ele>1061.5</ele><time>2026-04-19T11:59:29Z</time></trkpt><trkpt lat="45.040625871998316" lon="6.842055682068413"><ele>1061.0</ele><time>2026-04-19T11:59:30Z</time></trkpt><trkpt lat="45.04074125488303" lon="6.842178634399528"><ele>1060.5</ele><time>2026-04-19T11:59:31Z</time></trkpt><trkpt lat="45.04084832854955" lon="6.842305386029789"><ele>1060.0</ele><time>2026-04-19T11:59:32Z</time></trkpt><trkpt lat="45.04095126582771" lon="6.8424292955897315"><ele>1060.0</ele><time>2026-04-19T11:59:33Z</time></trkpt><trkpt lat="45.04105772137598" lon="6.8425414918767"><ele>1060.0</ele><time>2026-04-19T11:59:34Z</time></trkpt><trkpt lat="45.041157135060395" lon="6.842653208643357"><ele>1060.0</ele><time>2026-04-19T11:59:35Z</time></trkpt><trkpt lat="45.04124530840636" lon="6.842767943792107"><ele>1060.0</ele><time>2026-04-19T11:59:36Z</time></trkpt><trkpt lat="45.04132600900428" lon="6.842877633673435"><ele>1059.6</ele><time>2026-04-19T11:59:37Z</time></trkpt><trkpt lat="45.0413953309326" lon="6.842975062023587"><ele>1059.2</ele><time>2026-04-19T11:59:38Z</time></trkpt><trkpt lat="45.04145090903759" lon="6.843071560960686"><ele>1058.8</ele><time>2026-04-19T11:59:39Z</time></trkpt><trkpt lat="45.04148585957118" lon="6.843181381883191"><ele>1058.4</ele><time>2026-04-19T11:59:40Z</time></trkpt><trkpt lat="45.04151137264593" lon="6.843301351524708"><ele>1058.0</ele><time>2026-04-19T11:59:41Z</time></trkpt><trkpt lat="45.04157648221397" lon="6.843408497124454"><ele>1057.75</ele><time>2026-04-19T11:59:42Z</time></trkpt><trkpt lat="45.0416889658852" lon="6.843463508460632"><ele>1057.5</ele><time>2026-04-19T11:59:43Z</time></trkpt><trkpt lat="45.04181546130855" lon="6.843500007911937"><ele>1057.25</ele><time>2026-04-19T11:59:44Z</time></trkpt><trkpt lat="45.0419260113455" lon="6.843583708985544"><ele>1057.0</ele><time>2026-04-19T11:59:45Z</time></trkpt><trkpt lat="45.04202967890706" lon="6.843710102456197"><ele>1056.75</ele><time>2026-04-19T11:59:46Z</time></trkpt><trkpt lat="45.042139511270285" lon="6.843841649968594"><ele>1056.5</ele><time>2026-04-19T11:59:47Z</time></trkpt><trkpt lat="45.04225504595781" lon="6.8439671956867745"><ele>1056.25</ele><time>2026-04-19T11:59:48Z</time></trkpt><trkpt lat="45.04237219151321" lon="6.844094624914231"><ele>1056.0</ele><time>2026-04-19T11:59:49Z</time></trkpt><trkpt lat="45.04248865984628" lon="6.844233357251578"><ele>1055.5</ele><time>2026-04-19T11:59:50Z</time></trkpt><trkpt lat="45.04260083203759" lon="6.844372572202436"><ele>1055.0</ele><time>2026-04-19T11:59:51Z</time></trkpt><trkpt lat="45.04271010010207" lon="6.844504117394396"><ele>1054.5</ele><time>2026-04-19T11:59:52Z</time></trkpt><trkpt lat="45.04282056351727" lon="6.8446314900180045"><ele>1054.0</ele><time>2026-04-19T11:59:53Z</time></trkpt><trkpt lat="45.04292984065728" lon="6.844765586318197"><ele>1054.0</ele><time>2026-04-19T11:59:54Z</time></trkpt><trkpt lat="45.043039149988644" lon="6.844896766785541"><ele>1054.0</ele><time>2026-04-19T11:59:55Z</time></trkpt><trkpt lat="45.04315003618839" lon="6.845025676919323"><ele>1054.0</ele><time>2026-04-19T11:59:56Z</time></trkpt><trkpt lat="45.043258371373255" lon="6.8451608938523565"><ele>1054.0</ele><time>2026-04-19T11:59:57Z</time></trkpt><trkpt lat="45.043368232405655" lon="6.845296068367965"><ele>1053.75</ele><time>2026-04-19T11:59:58Z</time></trkpt><trkpt lat="45.043478817307566" lon="6.845426636094116"><ele>1053.5</ele><time>2026-04-19T11:59:59Z</time></trkpt><trkpt lat="45.04358995547153" lon="6.845560140551475"><ele>1053.25</ele><time>2026-04-19T12:00:00Z</time></trkpt><trkpt lat="45.04370356367502" lon="6.845695381607143"><ele>1053.0</ele><time>2026-04-19T12:00:01Z</time></trkpt><trkpt lat="45.04381846100383" lon="6.8458312577822795"><ele>1052.3333333333333</ele><time>2026-04-19T12:00:02Z</time></trkpt><trkpt lat="45.04393491338926" lon="6.845968252565134"><ele>1051.6666666666665</ele><time>2026-04-19T12:00:03Z</time></trkpt><trkpt lat="45.04404804211095" lon="6.84610944487288"><ele>1051.0</ele><time>2026-04-19T12:00:04Z</time></trkpt><trkpt lat="45.04416248281675" lon="6.846246906318659"><ele>1051.0</ele><time>2026-04-19T12:00:05Z</time></trkpt><trkpt lat="45.044278577884434" lon="6.846387148481955"><ele>1051.0</ele><time>2026-04-19T12:00:06Z</time></trkpt><trkpt lat="45.04439426310005" lon="6.846530225589461"><ele>1051.0</ele><time>2026-04-19T12:00:07Z</time></trkpt><trkpt lat="45.044510842407526" lon="6.84667127303445"><ele>1050.6666666666665</ele><time>2026-04-19T12:00:08Z</time></trkpt><trkpt lat="45.044629821740756" lon="6.846814659047972"><ele>1050.3333333333333</ele><time>2026-04-19T12:00:09Z</time></trkpt><trkpt lat="45.04475441902837" lon="6.846959622952454"><ele>1050.0</ele><time>2026-04-19T12:00:10Z</time></trkpt><trkpt lat="45.04487486442944" lon="6.847105792287597"><ele>1049.6666666666667</ele><time>2026-04-19T12:00:11Z</time></trkpt><trkpt lat="45.044993151893124" lon="6.847250807835239"><ele>1049.3333333333335</ele><time>2026-04-19T12:00:12Z</time></trkpt><trkpt lat="45.04510953581818" lon="6.847396077400736"><ele>1049.0</ele><time>2026-04-19T12:00:13Z</time></trkpt><trkpt lat="45.04522529922333" lon="6.847542426826205"><ele>1049.0</ele><time>2026-04-19T12:00:14Z</time></trkpt><trkpt lat="45.045351294347064" lon="6.847691991015817"><ele>1049.0</ele><time>2026-04-19T12:00:15Z</time></trkpt><trkpt lat="45.045479746071685" lon="6.847838628200263"><ele>1049.0</ele><time>2026-04-19T12:00:16Z</time></trkpt><trkpt lat="45.04560670294575" lon="6.848002636890942"><ele>1049.0</ele><time>2026-04-19T12:00:17Z</time></trkpt><trkpt lat="45.045737663939505" lon="6.84815509017802"><ele>1049.0</ele><time>2026-04-19T12:00:18Z</time></trkpt><trkpt lat="45.045871336912" lon="6.8483120537318865"><ele>1049.0</ele><time>2026-04-19T12:00:19Z</time></trkpt><trkpt lat="45.04600544040763" lon="6.84846812368324"><ele>1049.3333333333335</ele><time>2026-04-19T12:00:20Z</time></trkpt><trkpt lat="45.04613609036256" lon="6.848623456527014"><ele>1049.6666666666667</ele><time>2026-04-19T12:00:21Z</time></trkpt><trkpt lat="45.04627339307358" lon="6.848786388277561"><ele>1050.0</ele><time>2026-04-19T12:00:22Z</time></trkpt><trkpt lat="45.04640650435947" lon="6.848946769943547"><ele>1050.0</ele><time>2026-04-19T12:00:23Z</time></trkpt><trkpt lat="45.0465365087025" lon="6.849110770700975"><ele>1050.0</ele><time>2026-04-19T12:00:24Z</time></trkpt><trkpt lat="45.04667219338085" lon="6.849270337606864"><ele>1050.0</ele><time>2026-04-19T12:00:25Z</time></trkpt><trkpt lat="45.046806337167" lon="6.8494288817544975"><ele>1049.3333333333333</ele><time>2026-04-19T12:00:26Z</time></trkpt><trkpt lat="45.046937314767646" lon="6.849589830368133"><ele>1048.6666666666665</ele><time>2026-04-19T12:00:27Z</time></trkpt><trkpt lat="45.04707127498119" lon="6.8497498127622265"><ele>1048.0</ele><time>2026-04-19T12:00:28Z</time></trkpt><trkpt lat="45.04720386486838" lon="6.849909557672868"><ele>1048.0</ele><time>2026-04-19T12:00:29Z</time></trkpt><trkpt lat="45.047338905305615" lon="6.850070779044876"><ele>1048.0</ele><time>2026-04-19T12:00:30Z</time></trkpt><trkpt lat="45.04747565084045" lon="6.850232894449336"><ele>1048.0</ele><time>2026-04-19T12:00:31Z</time></trkpt><trkpt lat="45.04761129339702" lon="6.850393584524235"><ele>1047.6666666666665</ele><time>2026-04-19T12:00:32Z</time></trkpt><trkpt lat="45.04774702074723" lon="6.850556982479698"><ele>1047.3333333333333</ele><time>2026-04-19T12:00:33Z</time></trkpt><trkpt lat="45.04788987392828" lon="6.850721620925685"><ele>1047.0</ele><time>2026-04-19T12:00:34Z</time></trkpt><trkpt lat="45.04802636020759" lon="6.850884573356443"><ele>1047.0</ele><time>2026-04-19T12:00:35Z</time></trkpt><trkpt lat="45.048164433977966" lon="6.8510514242797464"><ele>1047.0</ele><time>2026-04-19T12:00:36Z</time></trkpt><trkpt lat="45.04830137436252" lon="6.851214831231251"><ele>1047.0</ele><time>2026-04-19T12:00:37Z</time></trkpt><trkpt lat="45.04843842545222" lon="6.851376088424739"><ele>1047.0</ele><time>2026-04-19T12:00:38Z</time></trkpt><trkpt lat="45.04857821607526" lon="6.851533515550835"><ele>1047.0</ele><time>2026-04-19T12:00:39Z</time></trkpt><trkpt lat="45.04872162446864" lon="6.851684986356474"><ele>1047.0</ele><time>2026-04-19T12:00:40Z</time></trkpt><trkpt lat="45.04886715595707" lon="6.851829526698825"><ele>1046.6666666666667</ele><time>2026-04-19T12:00:41Z</time></trkpt><trkpt lat="45.04901254672389" lon="6.851970068783148"><ele>1046.3333333333335</ele><time>2026-04-19T12:00:42Z</time></trkpt><trkpt lat="45.04915547331187" lon="6.852107477427692"><ele>1046.0</ele><time>2026-04-19T12:00:43Z</time></trkpt><trkpt lat="45.04929845358188" lon="6.852241441235052"><ele>1046.3333333333335</ele><time>2026-04-19T12:00:44Z</time></trkpt><trkpt lat="45.04944451711618" lon="6.852380188909106"><ele>1046.6666666666667</ele><time>2026-04-19T12:00:45Z</time></trkpt><trkpt lat="45.049583622418794" lon="6.852519481465199"><ele>1047.0</ele><time>2026-04-19T12:00:46Z</time></trkpt><trkpt lat="45.049717272512915" lon="6.852658766445031"><ele>1047.0</ele><time>2026-04-19T12:00:47Z</time></trkpt><trkpt lat="45.049861654737924" lon="6.852795881120272"><ele>1047.0</ele><time>2026-04-19T12:00:48Z</time></trkpt><trkpt lat="45.05000977390427" lon="6.852934642968895"><ele>1047.0</ele><time>2026-04-19T12:00:49Z</time></trkpt><trkpt lat="45.05015779509748" lon="6.853076158635518"><ele>1046.3333333333333</ele><time>2026-04-19T12:00:50Z</time></trkpt><trkpt lat="45.05029863777819" lon="6.853200367061519"><ele>1045.6666666666665</ele><time>2026-04-19T12:00:51Z</time></trkpt><trkpt lat="45.05045372274183" lon="6.853343553493155"><ele>1045.0</ele><time>2026-04-19T12:00:52Z</time></trkpt><trkpt lat="45.05059938727743" lon="6.853482483168807"><ele>1045.0</ele><time>2026-04-19T12:00:53Z</time></trkpt><trkpt lat="45.050750108950595" lon="6.853622711996645"><ele>1045.0</ele><time>2026-04-19T12:00:54Z</time></trkpt><trkpt lat="45.05090618303235" lon="6.8537667077859"><ele>1045.0</ele><time>2026-04-19T12:00:55Z</time></trkpt><trkpt lat="45.05106694806189" lon="6.853902571921182"><ele>1044.0</ele><time>2026-04-19T12:00:56Z</time></trkpt><trkpt lat="45.051236108503424" lon="6.854024060920448"><ele>1043.0</ele><time>2026-04-19T12:00:57Z</time></trkpt><trkpt lat="45.0514125232288" lon="6.854140805888111"><ele>1042.0</ele><time>2026-04-19T12:00:58Z</time></trkpt><trkpt lat="45.05158633316093" lon="6.8542573360984305"><ele>1042.3333333333333</ele><time>2026-04-19T12:00:59Z</time></trkpt><trkpt lat="45.0517634628621" lon="6.854376113847724"><ele>1042.6666666666667</ele><time>2026-04-19T12:01:00Z</time></trkpt><trkpt lat="45.051941725301" lon="6.854493101118863"><ele>1043.0</ele><time>2026-04-19T12:01:01Z</time></trkpt><trkpt lat="45.05210441333367" lon="6.854596067475713"><ele>1043.0</ele><time>2026-04-19T12:01:02Z</time></trkpt><trkpt lat="45.052259146904625" lon="6.854696276361544"><ele>1043.0</ele><time>2026-04-19T12:01:03Z</time></trkpt><trkpt lat="45.052403905934064" lon="6.854794008874995"><ele>1043.0</ele><time>2026-04-19T12:01:04Z</time></trkpt><trkpt lat="45.05253958648566" lon="6.854895529701086"><ele>1043.5</ele><time>2026-04-19T12:01:05Z</time></trkpt><trkpt lat="45.05265536861377" lon="6.855009679777324"><ele>1044.0</ele><time>2026-04-19T12:01:06Z</time></trkpt><trkpt lat="45.052752774765565" lon="6.855140879224833"><ele>1044.5</ele><time>2026-04-19T12:01:07Z</time></trkpt><trkpt lat="45.05283463008071" lon="6.855273101210609"><ele>1045.0</ele><time>2026-04-19T12:01:08Z</time></trkpt><trkpt lat="45.05291133220358" lon="6.8553814605774415"><ele>1045.3333333333333</ele><time>2026-04-19T12:01:09Z</time></trkpt><trkpt lat="45.05297806923402" lon="6.855447694512863"><ele>1045.6666666666665</ele><time>2026-04-19T12:01:10Z</time></trkpt><trkpt lat="45.053062387746" lon="6.85549700534955"><ele>1046.0</ele><time>2026-04-19T12:01:12Z</time></trkpt><trkpt lat="45.05312537248637" lon="6.855521134707672"><ele>1046.3333333333333</ele><time>2026-04-19T12:01:14Z</time></trkpt><trkpt lat="45.053215834824506" lon="6.8555513743346195"><ele>1046.6666666666667</ele><time>2026-04-19T12:01:16Z</time></trkpt><trkpt lat="45.05327780004135" lon="6.855576129647235"><ele>1047.0</ele><time>2026-04-19T12:01:17Z</time></trkpt><trkpt lat="45.053350552643124" lon="6.855642464775257"><ele>1047.0</ele><time>2026-04-19T12:01:18Z</time></trkpt><trkpt lat="45.053421483797855" lon="6.855741023970849"><ele>1047.0</ele><time>2026-04-19T12:01:19Z</time></trkpt><trkpt lat="45.05348361159093" lon="6.855844808132866"><ele>1047.0</ele><time>2026-04-19T12:01:20Z</time></trkpt><trkpt lat="45.05354877275658" lon="6.855951787997174"><ele>1047.0</ele><time>2026-04-19T12:01:21Z</time></trkpt><trkpt lat="45.053617545099826" lon="6.856061884575142"><ele>1047.0</ele><time>2026-04-19T12:01:22Z</time></trkpt><trkpt lat="45.0536897718302" lon="6.856180003594098"><ele>1045.5</ele><time>2026-04-19T12:01:23Z</time></trkpt><trkpt lat="45.05376342864833" lon="6.856307863858251"><ele>1044.0</ele><time>2026-04-19T12:01:24Z</time></trkpt><trkpt lat="45.05383752625292" lon="6.856445047912012"><ele>1042.5</ele><time>2026-04-19T12:01:25Z</time></trkpt><trkpt lat="45.053906758365535" lon="6.856591995095579"><ele>1041.0</ele><time>2026-04-19T12:01:26Z</time></trkpt><trkpt lat="45.05397731738369" lon="6.8567431028105"><ele>1041.5</ele><time>2026-04-19T12:01:27Z</time></trkpt><trkpt lat="45.05404911466238" lon="6.8568987499804175"><ele>1042.0</ele><time>2026-04-19T12:01:28Z</time></trkpt><trkpt lat="45.0541227231806" lon="6.8570537221682315"><ele>1042.5</ele><time>2026-04-19T12:01:29Z</time></trkpt><trkpt lat="45.05419969480433" lon="6.857213076487267"><ele>1043.0</ele><time>2026-04-19T12:01:30Z</time></trkpt><trkpt lat="45.054277078436954" lon="6.857373163511868"><ele>1043.0</ele><time>2026-04-19T12:01:31Z</time></trkpt><trkpt lat="45.05435696474275" lon="6.857535724376863"><ele>1043.0</ele><time>2026-04-19T12:01:32Z</time></trkpt><trkpt lat="45.05443722871666" lon="6.857700779169601"><ele>1043.0</ele><time>2026-04-19T12:01:33Z</time></trkpt><trkpt lat="45.0545144657632" lon="6.857869238471345"><ele>1043.0</ele><time>2026-04-19T12:01:34Z</time></trkpt><trkpt lat="45.05459842019697" lon="6.858037344349512"><ele>1042.0</ele><time>2026-04-19T12:01:35Z</time></trkpt><trkpt lat="45.054679309430455" lon="6.858210386709491"><ele>1041.0</ele><time>2026-04-19T12:01:36Z</time></trkpt><trkpt lat="45.05475944526753" lon="6.858384828890512"><ele>1040.0</ele><time>2026-04-19T12:01:37Z</time></trkpt><trkpt lat="45.05484247011422" lon="6.858566968645385"><ele>1039.0</ele><time>2026-04-19T12:01:38Z</time></trkpt><trkpt lat="45.054931545191096" lon="6.85875767007925"><ele>1039.6666666666665</ele><time>2026-04-19T12:01:39Z</time></trkpt><trkpt lat="45.055022216839255" lon="6.858944623265005"><ele>1040.3333333333333</ele><time>2026-04-19T12:01:40Z</time></trkpt><trkpt lat="45.055120713461434" lon="6.859144275166686"><ele>1041.0</ele><time>2026-04-19T12:01:41Z</time></trkpt><trkpt lat="45.05521879493261" lon="6.859352463959216"><ele>1039.3333333333333</ele><time>2026-04-19T12:01:42Z</time></trkpt><trkpt lat="45.05532554121436" lon="6.859565744986371"><ele>1037.6666666666665</ele><time>2026-04-19T12:01:43Z</time></trkpt><trkpt lat="45.05543043645406" lon="6.859783223448702"><ele>1036.0</ele><time>2026-04-19T12:01:44Z</time></trkpt><trkpt lat="45.05553200576954" lon="6.860003866226593"><ele>1035.6666666666665</ele><time>2026-04-19T12:01:45Z</time></trkpt><trkpt lat="45.055639901891304" lon="6.860234885914025"><ele>1035.3333333333333</ele><time>2026-04-19T12:01:46Z</time></trkpt><trkpt lat="45.055759068757176" lon="6.860469692971858"><ele>1035.0</ele><time>2026-04-19T12:01:47Z</time></trkpt><trkpt lat="45.05589470058471" lon="6.860703546473551"><ele>1035.0</ele><time>2026-04-19T12:01:48Z</time></trkpt><trkpt lat="45.05604018490617" lon="6.8609279489388575"><ele>1035.0</ele><time>2026-04-19T12:01:49Z</time></trkpt><trkpt lat="45.056192175369006" lon="6.861152632249245"><ele>1035.0</ele><time>2026-04-19T12:01:50Z</time></trkpt><trkpt lat="45.056337535500056" lon="6.861387189727198"><ele>1034.0</ele><time>2026-04-19T12:01:51Z</time></trkpt><trkpt lat="45.05647484051806" lon="6.861604391640236"><ele>1033.0</ele><time>2026-04-19T12:01:52Z</time></trkpt><trkpt lat="45.05661626121156" lon="6.8617982858872715"><ele>1032.0</ele><time>2026-04-19T12:01:53Z</time></trkpt><trkpt lat="45.05674818393225" lon="6.8619828056387595"><ele>1031.6666666666667</ele><time>2026-04-19T12:01:54Z</time></trkpt><trkpt lat="45.05687132291035" lon="6.862168505959487"><ele>1031.3333333333335</ele><time>2026-04-19T12:01:55Z</time></trkpt><trkpt lat="45.05699634370122" lon="6.862351704361389"><ele>1031.0</ele><time>2026-04-19T12:01:56Z</time></trkpt><trkpt lat="45.05712267697117" lon="6.862528898045185"><ele>1030.3333333333335</ele><time>2026-04-19T12:01:57Z</time></trkpt><trkpt lat="45.05724593053744" lon="6.862706766487203"><ele>1029.6666666666667</ele><time>2026-04-19T12:01:58Z</time></trkpt><trkpt lat="45.05736683234941" lon="6.86288678292267"><ele>1029.0</ele><time>2026-04-19T12:01:59Z</time></trkpt><trkpt lat="45.05748601917428" lon="6.863067392301853"><ele>1029.0</ele><time>2026-04-19T12:02:00Z</time></trkpt><trkpt lat="45.05759753114263" lon="6.8632372952544936"><ele>1029.0</ele><time>2026-04-19T12:02:01Z</time></trkpt><trkpt lat="45.057702936340995" lon="6.86340143865508"><ele>1029.0</ele><time>2026-04-19T12:02:02Z</time></trkpt><trkpt lat="45.057800846499184" lon="6.863576224664137"><ele>1030.0</ele><time>2026-04-19T12:02:03Z</time></trkpt><trkpt lat="45.05788100233307" lon="6.863775463248361"><ele>1031.0</ele><time>2026-04-19T12:02:04Z</time></trkpt><trkpt lat="45.05796056880652" lon="6.863987384486525"><ele>1032.0</ele><time>2026-04-19T12:02:05Z</time></trkpt><trkpt lat="45.05805972858862" lon="6.8641857073003445"><ele>1031.6666666666667</ele><time>2026-04-19T12:02:06Z</time></trkpt><trkpt lat="45.05818003056299" lon="6.864375835767798"><ele>1031.3333333333335</ele><time>2026-04-19T12:02:07Z</time></trkpt><trkpt lat="45.05829715429113" lon="6.864554937092072"><ele>1031.0</ele><time>2026-04-19T12:02:08Z</time></trkpt><trkpt lat="45.05840704295878" lon="6.864727905574829"><ele>1031.0</ele><time>2026-04-19T12:02:09Z</time></trkpt><trkpt lat="45.05851777673629" lon="6.864893119300685"><ele>1031.0</ele><time>2026-04-19T12:02:10Z</time></trkpt><trkpt lat="45.05862811298839" lon="6.865058959877558"><ele>1031.0</ele><time>2026-04-19T12:02:11Z</time></trkpt><trkpt lat="45.058740922885285" lon="6.865238509551613"><ele>1031.0</ele><time>2026-04-19T12:02:12Z</time></trkpt><trkpt lat="45.05886080459387" lon="6.865422856946375"><ele>1031.0</ele><time>2026-04-19T12:02:13Z</time></trkpt><trkpt lat="45.058990147353285" lon="6.865597108492649"><ele>1031.0</ele><time>2026-04-19T12:02:14Z</time></trkpt><trkpt lat="45.059125914508684" lon="6.865756888721892"><ele>1029.6666666666667</ele><time>2026-04-19T12:02:15Z</time></trkpt><trkpt lat="45.05925943323066" lon="6.865914351443063"><ele>1028.3333333333333</ele><time>2026-04-19T12:02:16Z</time></trkpt><trkpt lat="45.059387722716934" lon="6.866072339833795"><ele>1027.0</ele><time>2026-04-19T12:02:17Z</time></trkpt><trkpt lat="45.05951254730514" lon="6.86622516713899"><ele>1027.0</ele><time>2026-04-19T12:02:18Z</time></trkpt><trkpt lat="45.059640737397245" lon="6.866373521078856"><ele>1027.0</ele><time>2026-04-19T12:02:19Z</time></trkpt><trkpt lat="45.05977415331305" lon="6.866527967312903"><ele>1027.0</ele><time>2026-04-19T12:02:20Z</time></trkpt><trkpt lat="45.05991682240518" lon="6.866685890362244"><ele>1027.0</ele><time>2026-04-19T12:02:21Z</time></trkpt><trkpt lat="45.060075410455674" lon="6.866872910643798"><ele>1027.0</ele><time>2026-04-19T12:02:22Z</time></trkpt><trkpt lat="45.06027272083171" lon="6.8670621189309715"><ele>1027.0</ele><time>2026-04-19T12:02:23Z</time></trkpt><trkpt lat="45.06048732312045" lon="6.867244899672509"><ele>1027.0</ele><time>2026-04-19T12:02:24Z</time></trkpt><trkpt lat="45.060710168412335" lon="6.867434701144106"><ele>1027.0</ele><time>2026-04-19T12:02:25Z</time></trkpt><trkpt lat="45.06095179280089" lon="6.867615517282015"><ele>1026.5</ele><time>2026-04-19T12:02:26Z</time></trkpt><trkpt lat="45.06117646901908" lon="6.867826559782782"><ele>1026.0</ele><time>2026-04-19T12:02:27Z</time></trkpt><trkpt lat="45.06140954074459" lon="6.868034614202501"><ele>1025.5</ele><time>2026-04-19T12:02:28Z</time></trkpt><trkpt lat="45.06164188939637" lon="6.868254575650154"><ele>1025.0</ele><time>2026-04-19T12:02:29Z</time></trkpt><trkpt lat="45.061871455048234" lon="6.868483686571145"><ele>1025.0</ele><time>2026-04-19T12:02:30Z</time></trkpt><trkpt lat="45.06210221803581" lon="6.868719168261143"><ele>1025.0</ele><time>2026-04-19T12:02:31Z</time></trkpt><trkpt lat="45.06233497164742" lon="6.868954544365072"><ele>1025.0</ele><time>2026-04-19T12:02:32Z</time></trkpt><trkpt lat="45.06256843841046" lon="6.869190201616814"><ele>1025.0</ele><time>2026-04-19T12:02:33Z</time></trkpt><trkpt lat="45.06279448066348" lon="6.869424042630958"><ele>1025.0</ele><time>2026-04-19T12:02:34Z</time></trkpt><trkpt lat="45.06300544280979" lon="6.869639876582744"><ele>1025.0</ele><time>2026-04-19T12:02:35Z</time></trkpt><trkpt lat="45.06319909480045" lon="6.8698596616517715"><ele>1025.0</ele><time>2026-04-19T12:02:36Z</time></trkpt><trkpt lat="45.06337363408464" lon="6.870099539589963"><ele>1025.0</ele><time>2026-04-19T12:02:37Z</time></trkpt><trkpt lat="45.06352648635723" lon="6.870376132238248"><ele>1025.0</ele><time>2026-04-19T12:02:38Z</time></trkpt><trkpt lat="45.06365790901745" lon="6.87068245668371"><ele>1025.0</ele><time>2026-04-19T12:02:39Z</time></trkpt><trkpt lat="45.06376792617078" lon="6.871012286412422"><ele>1025.0</ele><time>2026-04-19T12:02:40Z</time></trkpt><trkpt lat="45.06387757941677" lon="6.871346146562769"><ele>1025.0</ele><time>2026-04-19T12:02:41Z</time></trkpt><trkpt lat="45.06399363416581" lon="6.871679466831045"><ele>1025.0</ele><time>2026-04-19T12:02:42Z</time></trkpt><trkpt lat="45.064118409784555" lon="6.872013096197833"><ele>1025.0</ele><time>2026-04-19T12:02:43Z</time></trkpt><trkpt lat="45.06425955592096" lon="6.872333924371781"><ele>1025.5</ele><time>2026-04-19T12:02:44Z</time></trkpt><trkpt lat="45.06442002747933" lon="6.872637705153207"><ele>1026.0</ele><time>2026-04-19T12:02:45Z</time></trkpt><trkpt lat="45.0645913309444" lon="6.872933354612935"><ele>1026.0</ele><time>2026-04-19T12:02:46Z</time></trkpt><trkpt lat="45.064761282680635" lon="6.873232562100136"><ele>1026.0</ele><time>2026-04-19T12:02:47Z</time></trkpt><trkpt lat="45.06492287963815" lon="6.873512558270038"><ele>1026.0</ele><time>2026-04-19T12:02:48Z</time></trkpt><trkpt lat="45.065079182306675" lon="6.87378472388051"><ele>1026.0</ele><time>2026-04-19T12:02:49Z</time></trkpt><trkpt lat="45.06523035957301" lon="6.874084549396343"><ele>1026.0</ele><time>2026-04-19T12:02:50Z</time></trkpt><trkpt lat="45.06539805931288" lon="6.874371168615222"><ele>1026.0</ele><time>2026-04-19T12:02:51Z</time></trkpt><trkpt lat="45.06564644571241" lon="6.874573978222898"><ele>1026.5</ele><time>2026-04-19T12:02:52Z</time></trkpt><trkpt lat="45.065849808099" lon="6.8748349604124135"><ele>1027.0</ele><time>2026-04-19T12:02:53Z</time></trkpt><trkpt lat="45.066054920122504" lon="6.8750896931025745"><ele>1027.5</ele><time>2026-04-19T12:02:54Z</time></trkpt><trkpt lat="45.066258019061344" lon="6.87534109858233"><ele>1028.0</ele><time>2026-04-19T12:02:55Z</time></trkpt><trkpt lat="45.06645880872949" lon="6.875593155930172"><ele>1028.0</ele><time>2026-04-19T12:02:56Z</time></trkpt><trkpt lat="45.066656296934404" lon="6.875848493357115"><ele>1028.0</ele><time>2026-04-19T12:02:57Z</time></trkpt><trkpt lat="45.066858214395715" lon="6.876094833671934"><ele>1028.0</ele><time>2026-04-19T12:02:58Z</time></trkpt><trkpt lat="45.067046965293436" lon="6.876356169744031"><ele>1028.0</ele><time>2026-04-19T12:02:59Z</time></trkpt><trkpt lat="45.067241223889084" lon="6.876598167189548"><ele>1027.0</ele><time>2026-04-19T12:03:00Z</time></trkpt><trkpt lat="45.06744439009003" lon="6.876827997544159"><ele>1026.0</ele><time>2026-04-19T12:03:01Z</time></trkpt><trkpt lat="45.067645105228316" lon="6.877059663447276"><ele>1026.0</ele><time>2026-04-19T12:03:02Z</time></trkpt><trkpt lat="45.067847569979875" lon="6.8772914044817615"><ele>1026.0</ele><time>2026-04-19T12:03:03Z</time></trkpt><trkpt lat="45.06804946422418" lon="6.877520815909334"><ele>1023.5</ele><time>2026-04-19T12:03:04Z</time></trkpt><trkpt lat="45.068251719492416" lon="6.877749196386622"><ele>1021.0</ele><time>2026-04-19T12:03:05Z</time></trkpt><trkpt lat="45.0684502710842" lon="6.877980096582303"><ele>1026.0</ele><time>2026-04-19T12:03:06Z</time></trkpt><trkpt lat="45.068630979058916" lon="6.878213910366649"><ele>1031.0</ele><time>2026-04-19T12:03:07Z</time></trkpt><trkpt lat="45.06878382083585" lon="6.878449180834904"><ele>1031.0</ele><time>2026-04-19T12:03:08Z</time></trkpt><trkpt lat="45.06891459675165" lon="6.878692246719336"><ele>1031.0</ele><time>2026-04-19T12:03:09Z</time></trkpt><trkpt lat="45.069021755008485" lon="6.8789392899640225"><ele>1031.0</ele><time>2026-04-19T12:03:10Z</time></trkpt><trkpt lat="45.06910641557674" lon="6.8791840898841805"><ele>1033.0</ele><time>2026-04-19T12:03:11Z</time></trkpt><trkpt lat="45.06916828122601" lon="6.879425186906574"><ele>1035.0</ele><time>2026-04-19T12:03:12Z</time></trkpt><trkpt lat="45.069225397203645" lon="6.87965061447582"><ele>1037.0</ele><time>2026-04-19T12:03:13Z</time></trkpt><trkpt lat="45.06928214293713" lon="6.879855635073303"><ele>1037.0</ele><time>2026-04-19T12:03:14Z</time></trkpt><trkpt lat="45.06933125879924" lon="6.880035486696234"><ele>1037.0</ele><time>2026-04-19T12:03:15Z</time></trkpt><trkpt lat="45.06937458431136" lon="6.880201166626218"><ele>1037.0</ele><time>2026-04-19T12:03:16Z</time></trkpt><trkpt lat="45.069413121712" lon="6.880370829862769"><ele>1037.0</ele><time>2026-04-19T12:03:17Z</time></trkpt><trkpt lat="45.069458688085035" lon="6.880538606263341"><ele>1036.5</ele><time>2026-04-19T12:03:18Z</time></trkpt><trkpt lat="45.069506943822894" lon="6.880709943957432"><ele>1036.0</ele><time>2026-04-19T12:03:19Z</time></trkpt><trkpt lat="45.069558146285395" lon="6.880878865080698"><ele>1035.5</ele><time>2026-04-19T12:03:20Z</time></trkpt><trkpt lat="45.069611697196635" lon="6.881043627769765"><ele>1035.0</ele><time>2026-04-19T12:03:21Z</time></trkpt><trkpt lat="45.06966606385904" lon="6.881205037673716"><ele>1033.25</ele><time>2026-04-19T12:03:22Z</time></trkpt><trkpt lat="45.06971844425114" lon="6.881373220251658"><ele>1031.5</ele><time>2026-04-19T12:03:23Z</time></trkpt><trkpt lat="45.069761647249194" lon="6.88155144160033"><ele>1029.75</ele><time>2026-04-19T12:03:24Z</time></trkpt><trkpt lat="45.06978470597719" lon="6.881762636881435"><ele>1028.0</ele><time>2026-04-19T12:03:25Z</time></trkpt><trkpt lat="45.06984378982491" lon="6.881960227422809"><ele>1027.0</ele><time>2026-04-19T12:03:26Z</time></trkpt><trkpt lat="45.06991824833241" lon="6.882151926117828"><ele>1026.0</ele><time>2026-04-19T12:03:27Z</time></trkpt><trkpt lat="45.06999986664065" lon="6.882326144339243"><ele>1025.0</ele><time>2026-04-19T12:03:28Z</time></trkpt><trkpt lat="45.07007781759883" lon="6.882492149700769"><ele>1024.0</ele><time>2026-04-19T12:03:29Z</time></trkpt><trkpt lat="45.070149663401885" lon="6.88264793326485"><ele>1024.0</ele><time>2026-04-19T12:03:30Z</time></trkpt><trkpt lat="45.07021335774242" lon="6.8827871568790915"><ele>1024.0</ele><time>2026-04-19T12:03:31Z</time></trkpt><trkpt lat="45.07027379048417" lon="6.882919709308267"><ele>1024.0</ele><time>2026-04-19T12:03:32Z</time></trkpt><trkpt lat="45.0703326092213" lon="6.883052447209278"><ele>1024.0</ele><time>2026-04-19T12:03:33Z</time></trkpt><trkpt lat="45.07039102507124" lon="6.883183658522199"><ele>1024.0</ele><time>2026-04-19T12:03:34Z</time></trkpt><trkpt lat="45.070452233473745" lon="6.883314217789179"><ele>1021.75</ele><time>2026-04-19T12:03:35Z</time></trkpt><trkpt lat="45.07051191619756" lon="6.8834421375190145"><ele>1019.5</ele><time>2026-04-19T12:03:36Z</time></trkpt><trkpt lat="45.07057699814261" lon="6.8835764480294"><ele>1017.25</ele><time>2026-04-19T12:03:37Z</time></trkpt><trkpt lat="45.070650192942935" lon="6.883708698106019"><ele>1015.0</ele><time>2026-04-19T12:03:38Z</time></trkpt><trkpt lat="45.07073225713459" lon="6.8838336355936605"><ele>1017.75</ele><time>2026-04-19T12:03:39Z</time></trkpt><trkpt lat="45.07082445850337" lon="6.8839433031615425"><ele>1020.5</ele><time>2026-04-19T12:03:40Z</time></trkpt><trkpt lat="45.070926130432795" lon="6.884038271274076"><ele>1023.25</ele><time>2026-04-19T12:03:41Z</time></trkpt><trkpt lat="45.07103243403096" lon="6.884123227764469"><ele>1026.0</ele><time>2026-04-19T12:03:42Z</time></trkpt><trkpt lat="45.07114560736845" lon="6.884199327995393"><ele>1023.25</ele><time>2026-04-19T12:03:43Z</time></trkpt><trkpt lat="45.071262605020955" lon="6.884266502399623"><ele>1020.5</ele><time>2026-04-19T12:03:44Z</time></trkpt><trkpt lat="45.071385961223264" lon="6.884329582822154"><ele>1017.75</ele><time>2026-04-19T12:03:45Z</time></trkpt><trkpt lat="45.07151889633871" lon="6.884380416493318"><ele>1015.0</ele><time>2026-04-19T12:03:46Z</time></trkpt><trkpt lat="45.07165757006503" lon="6.884425960482546"><ele>1015.0</ele><time>2026-04-19T12:03:47Z</time></trkpt><trkpt lat="45.07180814057943" lon="6.884472749483632"><ele>1015.0</ele><time>2026-04-19T12:03:48Z</time></trkpt><trkpt lat="45.07196508616645" lon="6.884532696020842"><ele>1015.0</ele><time>2026-04-19T12:03:49Z</time></trkpt><trkpt lat="45.07214440991854" lon="6.884596656608009"><ele>1015.0</ele><time>2026-04-19T12:03:50Z</time></trkpt><trkpt lat="45.072345020630436" lon="6.884681365349723"><ele>1015.0</ele><time>2026-04-19T12:03:51Z</time></trkpt><trkpt lat="45.072558503469324" lon="6.8847776568847285"><ele>1015.0</ele><time>2026-04-19T12:03:52Z</time></trkpt><trkpt lat="45.07275478009769" lon="6.884865569535449"><ele>1014.6666666666666</ele><time>2026-04-19T12:03:53Z</time></trkpt><trkpt lat="45.07295106749333" lon="6.884948840642267"><ele>1014.3333333333333</ele><time>2026-04-19T12:03:54Z</time></trkpt><trkpt lat="45.07314642096444" lon="6.885028266508481"><ele>1014.0</ele><time>2026-04-19T12:03:55Z</time></trkpt><trkpt lat="45.07333913274179" lon="6.885102912741354"><ele>1014.0</ele><time>2026-04-19T12:03:56Z</time></trkpt><trkpt lat="45.07352624983869" lon="6.885179282517434"><ele>1014.0</ele><time>2026-04-19T12:03:57Z</time></trkpt><trkpt lat="45.07371475928814" lon="6.885275171937221"><ele>1014.0</ele><time>2026-04-19T12:03:58Z</time></trkpt><trkpt lat="45.07390500073152" lon="6.885408769274837"><ele>1014.0</ele><time>2026-04-19T12:03:59Z</time></trkpt><trkpt lat="45.07409023591729" lon="6.885584639877132"><ele>1014.0</ele><time>2026-04-19T12:04:00Z</time></trkpt><trkpt lat="45.074260860291034" lon="6.885787745921019"><ele>1014.0</ele><time>2026-04-19T12:04:01Z</time></trkpt><trkpt lat="45.07441845126325" lon="6.886024383172267"><ele>1011.0</ele><time>2026-04-19T12:04:02Z</time></trkpt><trkpt lat="45.074570451037076" lon="6.8862649488680905"><ele>1008.0</ele><time>2026-04-19T12:04:03Z</time></trkpt><trkpt lat="45.07471598674073" lon="6.886503607219033"><ele>1007.6666666666667</ele><time>2026-04-19T12:04:04Z</time></trkpt><trkpt lat="45.074843794746805" lon="6.886765052807597"><ele>1007.3333333333334</ele><time>2026-04-19T12:04:05Z</time></trkpt><trkpt lat="45.07496640447425" lon="6.887026741700619"><ele>1007.0</ele><time>2026-04-19T12:04:06Z</time></trkpt><trkpt lat="45.075134814782096" lon="6.887247258331885"><ele>1005.5</ele><time>2026-04-19T12:04:07Z</time></trkpt><trkpt lat="45.075334411449525" lon="6.887433056154226"><ele>1004.0</ele><time>2026-04-19T12:04:08Z</time></trkpt><trkpt lat="45.075517720291536" lon="6.887630879388826"><ele>1004.0</ele><time>2026-04-19T12:04:09Z</time></trkpt><trkpt lat="45.075645269847186" lon="6.8879071471096704"><ele>1004.0</ele><time>2026-04-19T12:04:10Z</time></trkpt><trkpt lat="45.075775439854844" lon="6.8881912833514765"><ele>1007.0</ele><time>2026-04-19T12:04:11Z</time></trkpt><trkpt lat="45.07589957866574" lon="6.888478112569313"><ele>1010.0</ele><time>2026-04-19T12:04:12Z</time></trkpt><trkpt lat="45.076033372028434" lon="6.888747635766903"><ele>1010.0</ele><time>2026-04-19T12:04:13Z</time></trkpt><trkpt lat="45.07621000786456" lon="6.8889802444840536"><ele>1010.0</ele><time>2026-04-19T12:04:14Z</time></trkpt><trkpt lat="45.07638635256392" lon="6.889225440268439"><ele>1008.5</ele><time>2026-04-19T12:04:15Z</time></trkpt><trkpt lat="45.076539204437864" lon="6.889483604495404"><ele>1007.0</ele><time>2026-04-19T12:04:16Z</time></trkpt><trkpt lat="45.07668521566378" lon="6.8897170562633345"><ele>1006.3333333333334</ele><time>2026-04-19T12:04:17Z</time></trkpt><trkpt lat="45.07682044169321" lon="6.889938647334344"><ele>1005.6666666666667</ele><time>2026-04-19T12:04:18Z</time></trkpt><trkpt lat="45.0769369795653" lon="6.890166567785363"><ele>1005.0</ele><time>2026-04-19T12:04:19Z</time></trkpt><trkpt lat="45.07702312494412" lon="6.890423101227161"><ele>1005.0</ele><time>2026-04-19T12:04:20Z</time></trkpt><trkpt lat="45.077102573904725" lon="6.890689782402727"><ele>1005.0</ele><time>2026-04-19T12:04:21Z</time></trkpt><trkpt lat="45.077228883526935" lon="6.8909344344707195"><ele>1005.0</ele><time>2026-04-19T12:04:22Z</time></trkpt><trkpt lat="45.07737461360047" lon="6.891162325404359"><ele>1006.0</ele><time>2026-04-19T12:04:23Z</time></trkpt><trkpt lat="45.07752520983974" lon="6.891391892004302"><ele>1007.0</ele><time>2026-04-19T12:04:24Z</time></trkpt><trkpt lat="45.077671631891" lon="6.89163190670207"><ele>1008.0</ele><time>2026-04-19T12:04:25Z</time></trkpt><trkpt lat="45.07780807254599" lon="6.89188981730988"><ele>1008.0</ele><time>2026-04-19T12:04:26Z</time></trkpt><trkpt lat="45.07793418761925" lon="6.892165014612486"><ele>1008.0</ele><time>2026-04-19T12:04:27Z</time></trkpt><trkpt lat="45.078054272645" lon="6.892443369049625"><ele>1007.0</ele><time>2026-04-19T12:04:28Z</time></trkpt><trkpt lat="45.07818308335152" lon="6.892715786133449"><ele>1006.0</ele><time>2026-04-19T12:04:29Z</time></trkpt><trkpt lat="45.07832419333235" lon="6.8929697255825095"><ele>1008.6666666666666</ele><time>2026-04-19T12:04:30Z</time></trkpt><trkpt lat="45.07845376627421" lon="6.8932104985643345"><ele>1011.3333333333333</ele><time>2026-04-19T12:04:31Z</time></trkpt><trkpt lat="45.0785689160149" lon="6.893443985575363"><ele>1014.0</ele><time>2026-04-19T12:04:32Z</time></trkpt><trkpt lat="45.07867064082442" lon="6.893666648622936"><ele>1014.0</ele><time>2026-04-19T12:04:33Z</time></trkpt><trkpt lat="45.07876335444544" lon="6.893872857579175"><ele>1014.0</ele><time>2026-04-19T12:04:34Z</time></trkpt><trkpt lat="45.07885508813522" lon="6.894061895769482"><ele>1014.0</ele><time>2026-04-19T12:04:35Z</time></trkpt><trkpt lat="45.07893695105535" lon="6.894244893546195"><ele>1012.75</ele><time>2026-04-19T12:04:36Z</time></trkpt><trkpt lat="45.07901198165764" lon="6.894415872205833"><ele>1011.5</ele><time>2026-04-19T12:04:37Z</time></trkpt><trkpt lat="45.079086850363424" lon="6.894583299721559"><ele>1010.25</ele><time>2026-04-19T12:04:38Z</time></trkpt><trkpt lat="45.07916006453255" lon="6.894745684617195"><ele>1009.0</ele><time>2026-04-19T12:04:39Z</time></trkpt><trkpt lat="45.07922432823498" lon="6.894908331020999"><ele>1014.5</ele><time>2026-04-19T12:04:40.001Z</time></trkpt><trkpt lat="45.07927713201724" lon="6.895082595018865"><ele>1020.0</ele><time>2026-04-19T12:04:41.001Z</time></trkpt><trkpt lat="45.0793077972121" lon="6.895271365582655"><ele>1025.5</ele><time>2026-04-19T12:04:42.001Z</time></trkpt><trkpt lat="45.0793132525517" lon="6.895471530974472"><ele>1031.0</ele><time>2026-04-19T12:04:43.001Z</time></trkpt><trkpt lat="45.07933768368866" lon="6.895650939113839"><ele>1031.0</ele><time>2026-04-19T12:04:44.001Z</time></trkpt><trkpt lat="45.079263853382336" lon="6.895863077134498"><ele>1031.0</ele><time>2026-04-19T12:04:45.001Z</time></trkpt><trkpt lat="45.0792348105887" lon="6.89605067474462"><ele>1031.0</ele><time>2026-04-19T12:04:46.001Z</time></trkpt><trkpt lat="45.079205736152026" lon="6.896234791798455"><ele>1031.0</ele><time>2026-04-19T12:04:47.001Z</time></trkpt><trkpt lat="45.07918629641024" lon="6.89643892517269"><ele>1029.5</ele><time>2026-04-19T12:04:48.001Z</time></trkpt><trkpt lat="45.0791838440178" lon="6.896643864023162"><ele>1028.0</ele><time>2026-04-19T12:04:49.001Z</time></trkpt><trkpt lat="45.079195175647165" lon="6.8968420938599895"><ele>1026.5</ele><time>2026-04-19T12:04:50.001Z</time></trkpt><trkpt lat="45.079203664394434" lon="6.89703692435458"><ele>1025.0</ele><time>2026-04-19T12:04:51.001Z</time></trkpt><trkpt lat="45.07921463593036" lon="6.8972176654394515"><ele>1025.0</ele><time>2026-04-19T12:04:52.001Z</time></trkpt><trkpt lat="45.07923548777471" lon="6.897383394845296"><ele>1025.0</ele><time>2026-04-19T12:04:53.001Z</time></trkpt><trkpt lat="45.07927565254834" lon="6.897536536585135"><ele>1025.0</ele><time>2026-04-19T12:04:54.001Z</time></trkpt><trkpt lat="45.07932128963684" lon="6.8976822606424895"><ele>1025.0</ele><time>2026-04-19T12:04:55.001Z</time></trkpt><trkpt lat="45.07937234084257" lon="6.897867604345095"><ele>1024.75</ele><time>2026-04-19T12:04:56.001Z</time></trkpt><trkpt lat="45.07943329262494" lon="6.898011372375931"><ele>1024.5</ele><time>2026-04-19T12:04:57.001Z</time></trkpt><trkpt lat="45.079481866903485" lon="6.898167734050079"><ele>1024.25</ele><time>2026-04-19T12:04:58.001Z</time></trkpt><trkpt lat="45.079500749570094" lon="6.898342697255112"><ele>1024.0</ele><time>2026-04-19T12:04:59.001Z</time></trkpt><trkpt lat="45.079486596348694" lon="6.898531439478787"><ele>1025.3333333333333</ele><time>2026-04-19T12:05:00.001Z</time></trkpt><trkpt lat="45.07944185230525" lon="6.898717806022108"><ele>1026.6666666666667</ele><time>2026-04-19T12:05:01.001Z</time></trkpt><trkpt lat="45.079372091458715" lon="6.8989164913854095"><ele>1028.0</ele><time>2026-04-19T12:05:02.001Z</time></trkpt><trkpt lat="45.079278402145974" lon="6.8991378810049175"><ele>1033.3333333333335</ele><time>2026-04-19T12:05:03.001Z</time></trkpt><trkpt lat="45.079171028035795" lon="6.899374714324359"><ele>1038.6666666666667</ele><time>2026-04-19T12:05:04.001Z</time></trkpt><trkpt lat="45.079053548200456" lon="6.8996011753038795"><ele>1044.0</ele><time>2026-04-19T12:05:05.001Z</time></trkpt><trkpt lat="45.07894970909713" lon="6.899793794727316"><ele>1036.75</ele><time>2026-04-19T12:05:06.001Z</time></trkpt><trkpt lat="45.078869447883186" lon="6.8999471260390965"><ele>1029.5</ele><time>2026-04-19T12:05:07.001Z</time></trkpt><trkpt lat="45.07879666623964" lon="6.900080201583139"><ele>1022.25</ele><time>2026-04-19T12:05:08.001Z</time></trkpt><trkpt lat="45.07873881031745" lon="6.900204275120611"><ele>1015.0</ele><time>2026-04-19T12:05:09.001Z</time></trkpt><trkpt lat="45.07869397443289" lon="6.900334870686067"><ele>1015.0</ele><time>2026-04-19T12:05:10.001Z</time></trkpt><trkpt lat="45.0786550716665" lon="6.900487826542376"><ele>1015.0</ele><time>2026-04-19T12:05:11.001Z</time></trkpt><trkpt lat="45.07862498315316" lon="6.900663059577066"><ele>1015.0</ele><time>2026-04-19T12:05:12.001Z</time></trkpt><trkpt lat="45.07861887470558" lon="6.900839252997801"><ele>1015.0</ele><time>2026-04-19T12:05:13.001Z</time></trkpt><trkpt lat="45.07864414427477" lon="6.901071446494686"><ele>1014.0</ele><time>2026-04-19T12:05:14.001Z</time></trkpt><trkpt lat="45.078672946249" lon="6.901345315141025"><ele>1013.0</ele><time>2026-04-19T12:05:15.001Z</time></trkpt><trkpt lat="45.078689856465445" lon="6.901624186550196"><ele>1012.0</ele><time>2026-04-19T12:05:16.001Z</time></trkpt><trkpt lat="45.07870840233659" lon="6.901856940149612"><ele>1011.5</ele><time>2026-04-19T12:05:17.001Z</time></trkpt><trkpt lat="45.07874895221019" lon="6.902036188986643"><ele>1011.0</ele><time>2026-04-19T12:05:18.001Z</time></trkpt><trkpt lat="45.07880154723765" lon="6.902197450165092"><ele>1010.5</ele><time>2026-04-19T12:05:19.001Z</time></trkpt><trkpt lat="45.07889243354374" lon="6.902344966549253"><ele>1010.0</ele><time>2026-04-19T12:05:20.001Z</time></trkpt><trkpt lat="45.079039561796165" lon="6.902492008785989"><ele>1018.5</ele><time>2026-04-19T12:05:21.001Z</time></trkpt><trkpt lat="45.079238538596044" lon="6.902655044118915"><ele>1027.0</ele><time>2026-04-19T12:05:22.001Z</time></trkpt><trkpt lat="45.07940109262754" lon="6.902881770306642"><ele>1027.0</ele><time>2026-04-19T12:05:23Z</time></trkpt><trkpt lat="45.07955677314479" lon="6.903132465835733"><ele>1027.0</ele><time>2026-04-19T12:05:24Z</time></trkpt><trkpt lat="45.07970752994955" lon="6.903394999671491"><ele>1028.6666666666665</ele><time>2026-04-19T12:05:25Z</time></trkpt><trkpt lat="45.079834158820525" lon="6.903623949374623"><ele>1030.3333333333333</ele><time>2026-04-19T12:05:26Z</time></trkpt><trkpt lat="45.07992979028839" lon="6.90377559635755"><ele>1032.0</ele><time>2026-04-19T12:05:27Z</time></trkpt><trkpt lat="45.08001579233186" lon="6.903883018799172"><ele>1032.0</ele><time>2026-04-19T12:05:28Z</time></trkpt><trkpt lat="45.08011260824936" lon="6.903920670579171"><ele>1032.0</ele><time>2026-04-19T12:05:29Z</time></trkpt><trkpt lat="45.080213759728075" lon="6.903860232065008"><ele>1032.0</ele><time>2026-04-19T12:05:30Z</time></trkpt><trkpt lat="45.080281775511295" lon="6.903713367144941"><ele>1032.0</ele><time>2026-04-19T12:05:31Z</time></trkpt><trkpt lat="45.080276984552505" lon="6.9035186615723925"><ele>1030.3333333333333</ele><time>2026-04-19T12:05:32Z</time></trkpt><trkpt lat="45.080204961276024" lon="6.903342653912765"><ele>1028.6666666666665</ele><time>2026-04-19T12:05:33Z</time></trkpt><trkpt lat="45.08006420545826" lon="6.903151588766971"><ele>1027.0</ele><time>2026-04-19T12:05:34Z</time></trkpt><trkpt lat="45.07992635045365" lon="6.902921252243141"><ele>1027.0</ele><time>2026-04-19T12:05:35Z</time></trkpt><trkpt lat="45.07978561224918" lon="6.902661606482292"><ele>1027.0</ele><time>2026-04-19T12:05:36Z</time></trkpt><trkpt lat="45.079634722513184" lon="6.902404040002286"><ele>1029.3333333333333</ele><time>2026-04-19T12:05:37Z</time></trkpt><trkpt lat="45.07947854877983" lon="6.902155078952369"><ele>1031.6666666666667</ele><time>2026-04-19T12:05:38Z</time></trkpt><trkpt lat="45.07933883926941" lon="6.901927121633731"><ele>1034.0</ele><time>2026-04-19T12:05:39Z</time></trkpt><trkpt lat="45.07923834153051" lon="6.90170950335785"><ele>1036.75</ele><time>2026-04-19T12:05:40Z</time></trkpt><trkpt lat="45.0792005035294" lon="6.9015081953823785"><ele>1039.5</ele><time>2026-04-19T12:05:41Z</time></trkpt><trkpt lat="45.0791839808451" lon="6.901347710085584"><ele>1042.25</ele><time>2026-04-19T12:05:42Z</time></trkpt><trkpt lat="45.07920804971291" lon="6.901198033610524"><ele>1045.0</ele><time>2026-04-19T12:05:43Z</time></trkpt><trkpt lat="45.07927708182713" lon="6.901083192976628"><ele>1045.0</ele><time>2026-04-19T12:05:44Z</time></trkpt><trkpt lat="45.079397766305114" lon="6.901076133247246"><ele>1045.0</ele><time>2026-04-19T12:05:45Z</time></trkpt><trkpt lat="45.07950386060721" lon="6.901189499840635"><ele>1045.0</ele><time>2026-04-19T12:05:46Z</time></trkpt><trkpt lat="45.07954391403796" lon="6.901391102924269"><ele>1045.0</ele><time>2026-04-19T12:05:47Z</time></trkpt><trkpt lat="45.0795802608376" lon="6.90161575514476"><ele>1041.3333333333333</ele><time>2026-04-19T12:05:48Z</time></trkpt><trkpt lat="45.079637434471856" lon="6.901848467688825"><ele>1037.6666666666667</ele><time>2026-04-19T12:05:49Z</time></trkpt><trkpt lat="45.079753765393384" lon="6.902071095968101"><ele>1034.0</ele><time>2026-04-19T12:05:50Z</time></trkpt><trkpt lat="45.07990945056145" lon="6.902255398655801"><ele>1036.6666666666667</ele><time>2026-04-19T12:05:51Z</time></trkpt><trkpt lat="45.08009359941965" lon="6.902407154011088"><ele>1039.3333333333333</ele><time>2026-04-19T12:05:52Z</time></trkpt><trkpt lat="45.08028869091571" lon="6.902546558367916"><ele>1042.0</ele><time>2026-04-19T12:05:53Z</time></trkpt><trkpt lat="45.0804886619465" lon="6.9027068101895654"><ele>1042.0</ele><time>2026-04-19T12:05:54Z</time></trkpt><trkpt lat="45.080698069788326" lon="6.902880073916855"><ele>1042.0</ele><time>2026-04-19T12:05:55Z</time></trkpt><trkpt lat="45.08089965819445" lon="6.903065450816771"><ele>1045.5</ele><time>2026-04-19T12:05:56Z</time></trkpt><trkpt lat="45.081057945786604" lon="6.90331704645574"><ele>1049.0</ele><time>2026-04-19T12:05:57Z</time></trkpt><trkpt lat="45.08121169504831" lon="6.903546733848707"><ele>1049.0</ele><time>2026-04-19T12:05:58Z</time></trkpt><trkpt lat="45.08132659931639" lon="6.903756457447115"><ele>1049.0</ele><time>2026-04-19T12:05:59Z</time></trkpt><trkpt lat="45.081447219711045" lon="6.903887102591772"><ele>1049.0</ele><time>2026-04-19T12:06:00Z</time></trkpt><trkpt lat="45.08158911045522" lon="6.903938809745457"><ele>1055.0</ele><time>2026-04-19T12:06:01Z</time></trkpt><trkpt lat="45.08175629426558" lon="6.9039148097951974"><ele>1061.0</ele><time>2026-04-19T12:06:02Z</time></trkpt><trkpt lat="45.081956474591045" lon="6.9038338581273075"><ele>1067.0</ele><time>2026-04-19T12:06:03Z</time></trkpt><trkpt lat="45.082153746293244" lon="6.903762556325633"><ele>1067.0</ele><time>2026-04-19T12:06:04Z</time></trkpt><trkpt lat="45.0823297372478" lon="6.903765059958281"><ele>1067.0</ele><time>2026-04-19T12:06:05Z</time></trkpt><trkpt lat="45.082471730602265" lon="6.9038558021307"><ele>1067.0</ele><time>2026-04-19T12:06:06Z</time></trkpt><trkpt lat="45.08259937469694" lon="6.903963311013268"><ele>1062.3333333333335</ele><time>2026-04-19T12:06:07Z</time></trkpt><trkpt lat="45.08274741032823" lon="6.904094118003393"><ele>1057.6666666666667</ele><time>2026-04-19T12:06:08Z</time></trkpt><trkpt lat="45.08289289013467" lon="6.904276479598353"><ele>1053.0</ele><time>2026-04-19T12:06:09Z</time></trkpt><trkpt lat="45.083046553608575" lon="6.904460099893837"><ele>1053.0</ele><time>2026-04-19T12:06:10Z</time></trkpt><trkpt lat="45.08315915858501" lon="6.904716412961434"><ele>1053.0</ele><time>2026-04-19T12:06:11Z</time></trkpt><trkpt lat="45.083274801357284" lon="6.905018805517295"><ele>1055.5</ele><time>2026-04-19T12:06:12Z</time></trkpt><trkpt lat="45.08338090120972" lon="6.905340477981726"><ele>1058.0</ele><time>2026-04-19T12:06:13Z</time></trkpt><trkpt lat="45.08348818647528" lon="6.905700518701469"><ele>1047.0</ele><time>2026-04-19T12:06:14Z</time></trkpt><trkpt lat="45.083599470172366" lon="6.906028486783596"><ele>1036.0</ele><time>2026-04-19T12:06:15Z</time></trkpt><trkpt lat="45.08373804487828" lon="6.906317706581858"><ele>1036.0</ele><time>2026-04-19T12:06:16Z</time></trkpt><trkpt lat="45.083910155607946" lon="6.9065591686979975"><ele>1036.0</ele><time>2026-04-19T12:06:17Z</time></trkpt><trkpt lat="45.08408045237817" lon="6.906759096213177"><ele>1040.0</ele><time>2026-04-19T12:06:18Z</time></trkpt><trkpt lat="45.08428231828846" lon="6.9069579635203615"><ele>1044.0</ele><time>2026-04-19T12:06:19Z</time></trkpt><trkpt lat="45.084489027192454" lon="6.9071645573424325"><ele>1044.0</ele><time>2026-04-19T12:06:20Z</time></trkpt><trkpt lat="45.084703397786015" lon="6.907319668871309"><ele>1044.0</ele><time>2026-04-19T12:06:21Z</time></trkpt><trkpt lat="45.08490815399306" lon="6.907481739506921"><ele>1038.3333333333333</ele><time>2026-04-19T12:06:22Z</time></trkpt><trkpt lat="45.08506980404097" lon="6.90760887152711"><ele>1032.6666666666665</ele><time>2026-04-19T12:06:23Z</time></trkpt><trkpt lat="45.08521156599027" lon="6.907724585609865"><ele>1027.0</ele><time>2026-04-19T12:06:24Z</time></trkpt><trkpt lat="45.085356869104764" lon="6.9077464664561665"><ele>1027.0</ele><time>2026-04-19T12:06:25Z</time></trkpt><trkpt lat="45.08549201668668" lon="6.907692617126968"><ele>1027.0</ele><time>2026-04-19T12:06:26Z</time></trkpt><trkpt lat="45.08557487656731" lon="6.907683609810106"><ele>1027.0</ele><time>2026-04-19T12:06:27.001Z</time></trkpt><trkpt lat="45.08561374152004" lon="6.907867049227724"><ele>1027.0</ele><time>2026-04-19T12:06:29.001Z</time></trkpt><trkpt lat="45.08553922428567" lon="6.907964381384899"><ele>1027.0</ele><time>2026-04-19T12:06:30.001Z</time></trkpt><trkpt lat="45.085410855591356" lon="6.90798837188545"><ele>1027.0</ele><time>2026-04-19T12:06:31.001Z</time></trkpt><trkpt lat="45.08526282509844" lon="6.907935175548505"><ele>1027.0</ele><time>2026-04-19T12:06:32.001Z</time></trkpt><trkpt lat="45.085100176803486" lon="6.907886797100172"><ele>1027.0</ele><time>2026-04-19T12:06:33.001Z</time></trkpt><trkpt lat="45.08492459895953" lon="6.907851240865653"><ele>1023.6666666666666</ele><time>2026-04-19T12:06:34.001Z</time></trkpt><trkpt lat="45.08472955332637" lon="6.907777141255926"><ele>1020.3333333333333</ele><time>2026-04-19T12:06:35.001Z</time></trkpt><trkpt lat="45.08454778754023" lon="6.907670492905427"><ele>1017.0</ele><time>2026-04-19T12:06:36.001Z</time></trkpt><trkpt lat="45.08440496244882" lon="6.90758904673039"><ele>1023.75</ele><time>2026-04-19T12:06:37.001Z</time></trkpt><trkpt lat="45.08428605289925" lon="6.907537083549006"><ele>1030.5</ele><time>2026-04-19T12:06:38.001Z</time></trkpt><trkpt lat="45.08417182127195" lon="6.907544424372933"><ele>1037.25</ele><time>2026-04-19T12:06:39.001Z</time></trkpt><trkpt lat="45.08408431098519" lon="6.907649111716144"><ele>1044.0</ele><time>2026-04-19T12:06:40.001Z</time></trkpt><trkpt lat="45.084051820117395" lon="6.9078440923521285"><ele>1035.0</ele><time>2026-04-19T12:06:41.001Z</time></trkpt><trkpt lat="45.08410158961744" lon="6.90805721877345"><ele>1026.0</ele><time>2026-04-19T12:06:42.001Z</time></trkpt><trkpt lat="45.0842386700425" lon="6.908229141874267"><ele>1017.0</ele><time>2026-04-19T12:06:43.001Z</time></trkpt><trkpt lat="45.08444038238062" lon="6.908320233298538"><ele>1017.0</ele><time>2026-04-19T12:06:44.001Z</time></trkpt><trkpt lat="45.084695798628395" lon="6.908307546716709"><ele>1017.0</ele><time>2026-04-19T12:06:45.001Z</time></trkpt><trkpt lat="45.08495208658263" lon="6.908330515642834"><ele>1020.3333333333333</ele><time>2026-04-19T12:06:46.001Z</time></trkpt><trkpt lat="45.08517580210144" lon="6.908363192636516"><ele>1023.6666666666666</ele><time>2026-04-19T12:06:47.001Z</time></trkpt><trkpt lat="45.08538742868498" lon="6.908385528931006"><ele>1027.0</ele><time>2026-04-19T12:06:48.001Z</time></trkpt><trkpt lat="45.08557141196183" lon="6.908418895583131"><ele>1027.0</ele><time>2026-04-19T12:06:49.001Z</time></trkpt><trkpt lat="45.085749917654944" lon="6.908408488720958"><ele>1027.0</ele><time>2026-04-19T12:06:50.001Z</time></trkpt><trkpt lat="45.08592576930332" lon="6.908305416372023"><ele>1027.0</ele><time>2026-04-19T12:06:51.001Z</time></trkpt><trkpt lat="45.08610030645568" lon="6.908122658638959"><ele>1026.3333333333333</ele><time>2026-04-19T12:06:52.001Z</time></trkpt><trkpt lat="45.08629752233219" lon="6.908032865348998"><ele>1025.6666666666667</ele><time>2026-04-19T12:06:53.001Z</time></trkpt><trkpt lat="45.08649623325589" lon="6.908008791511984"><ele>1025.0</ele><time>2026-04-19T12:06:54.001Z</time></trkpt><trkpt lat="45.08673254853439" lon="6.907994408881526"><ele>1017.0</ele><time>2026-04-19T12:06:55.001Z</time></trkpt><trkpt lat="45.08697851361848" lon="6.907988164060813"><ele>1009.0</ele><time>2026-04-19T12:06:56.001Z</time></trkpt><trkpt lat="45.08722621009199" lon="6.907978501099915"><ele>1005.6666666666666</ele><time>2026-04-19T12:06:57.001Z</time></trkpt><trkpt lat="45.08743933746921" lon="6.907960230174852"><ele>1002.3333333333333</ele><time>2026-04-19T12:06:58.001Z</time></trkpt><trkpt lat="45.087615796756836" lon="6.907888689281555"><ele>999.0</ele><time>2026-04-19T12:06:59.001Z</time></trkpt><trkpt lat="45.0877641500353" lon="6.907779321827697"><ele>999.0</ele><time>2026-04-19T12:07:00.001Z</time></trkpt><trkpt lat="45.08791116535336" lon="6.9077065508346704"><ele>999.0</ele><time>2026-04-19T12:07:01.001Z</time></trkpt><trkpt lat="45.08805750715196" lon="6.907802813120881"><ele>999.0</ele><time>2026-04-19T12:07:02.001Z</time></trkpt><trkpt lat="45.08819307772175" lon="6.907899971397347"><ele>998.3333333333333</ele><time>2026-04-19T12:07:03.001Z</time></trkpt><trkpt lat="45.088275835871194" lon="6.908023052633889"><ele>997.6666666666666</ele><time>2026-04-19T12:07:04.001Z</time></trkpt><trkpt lat="45.088332850308106" lon="6.908178084909396"><ele>997.0</ele><time>2026-04-19T12:07:05.001Z</time></trkpt><trkpt lat="45.08837922451344" lon="6.908475600595044"><ele>997.0</ele><time>2026-04-19T12:07:06.001Z</time></trkpt><trkpt lat="45.08842505984273" lon="6.90877086235424"><ele>997.0</ele><time>2026-04-19T12:07:07.001Z</time></trkpt><trkpt lat="45.088463752215084" lon="6.909063255416985"><ele>997.0</ele><time>2026-04-19T12:07:08.001Z</time></trkpt><trkpt lat="45.08851848888407" lon="6.909389686848607"><ele>993.5</ele><time>2026-04-19T12:07:09.001Z</time></trkpt><trkpt lat="45.08855504720733" lon="6.90971938648979"><ele>990.0</ele><time>2026-04-19T12:07:10.001Z</time></trkpt><trkpt lat="45.08856399402274" lon="6.910052432702621"><ele>986.5</ele><time>2026-04-19T12:07:11.001Z</time></trkpt><trkpt lat="45.08853981039127" lon="6.9103812598579015"><ele>983.0</ele><time>2026-04-19T12:07:12.001Z</time></trkpt><trkpt lat="45.08851761634778" lon="6.9106956881447985"><ele>974.6666666666667</ele><time>2026-04-19T12:07:13.001Z</time></trkpt><trkpt lat="45.088537059106415" lon="6.910971593544249"><ele>966.3333333333333</ele><time>2026-04-19T12:07:14.001Z</time></trkpt><trkpt lat="45.0886204760332" lon="6.911226548653489"><ele>958.0</ele><time>2026-04-19T12:07:15.001Z</time></trkpt><trkpt lat="45.088786062197144" lon="6.911476204565797"><ele>958.0</ele><time>2026-04-19T12:07:16.001Z</time></trkpt><trkpt lat="45.08900687241832" lon="6.9116884660575835"><ele>958.0</ele><time>2026-04-19T12:07:17.001Z</time></trkpt><trkpt lat="45.08920331498567" lon="6.911914191473714"><ele>955.0</ele><time>2026-04-19T12:07:18.001Z</time></trkpt><trkpt lat="45.08937874842097" lon="6.912228988339475"><ele>952.0</ele><time>2026-04-19T12:07:19.001Z</time></trkpt><trkpt lat="45.089509530538145" lon="6.912585418742666"><ele>952.0</ele><time>2026-04-19T12:07:20.001Z</time></trkpt><trkpt lat="45.08961217200697" lon="6.912994181957932"><ele>952.0</ele><time>2026-04-19T12:07:21.001Z</time></trkpt><trkpt lat="45.08973391461976" lon="6.913386324904408"><ele>946.5</ele><time>2026-04-19T12:07:22.001Z</time></trkpt><trkpt lat="45.089854087438894" lon="6.913767555819306"><ele>941.0</ele><time>2026-04-19T12:07:23.001Z</time></trkpt><trkpt lat="45.090014169867594" lon="6.914162563035435"><ele>944.5</ele><time>2026-04-19T12:07:24.001Z</time></trkpt><trkpt lat="45.09019357010347" lon="6.914564018534335"><ele>948.0</ele><time>2026-04-19T12:07:25.001Z</time></trkpt><trkpt lat="45.090337317218115" lon="6.914950522136585"><ele>929.5</ele><time>2026-04-19T12:07:26.001Z</time></trkpt><trkpt lat="45.09048781119682" lon="6.9153016878816205"><ele>911.0</ele><time>2026-04-19T12:07:27.001Z</time></trkpt><trkpt lat="45.090669164381815" lon="6.915639458206021"><ele>918.0</ele><time>2026-04-19T12:07:28.001Z</time></trkpt><trkpt lat="45.090888020407796" lon="6.915968846705429"><ele>925.0</ele><time>2026-04-19T12:07:29.001Z</time></trkpt><trkpt lat="45.09112097119015" lon="6.916301569044549"><ele>925.0</ele><time>2026-04-19T12:07:30.001Z</time></trkpt><trkpt lat="45.091339819591646" lon="6.9166564952608045"><ele>925.0</ele><time>2026-04-19T12:07:31.001Z</time></trkpt><trkpt lat="45.09152795723907" lon="6.917042439879109"><ele>920.0</ele><time>2026-04-19T12:07:32.001Z</time></trkpt><trkpt lat="45.09173907073192" lon="6.917418918714157"><ele>915.0</ele><time>2026-04-19T12:07:33.001Z</time></trkpt><trkpt lat="45.09194581756694" lon="6.917784086272553"><ele>915.0</ele><time>2026-04-19T12:07:34.001Z</time></trkpt><trkpt lat="45.09216314161737" lon="6.91814875836886"><ele>915.0</ele><time>2026-04-19T12:07:35.001Z</time></trkpt><trkpt lat="45.09239190906839" lon="6.918530158424698"><ele>918.5</ele><time>2026-04-19T12:07:36.001Z</time></trkpt><trkpt lat="45.09259890986743" lon="6.9188988401677785"><ele>922.0</ele><time>2026-04-19T12:07:37.001Z</time></trkpt><trkpt lat="45.092810789260824" lon="6.919267281976848"><ele>910.0</ele><time>2026-04-19T12:07:38.001Z</time></trkpt><trkpt lat="45.09300661204702" lon="6.919646513925228"><ele>898.0</ele><time>2026-04-19T12:07:39.001Z</time></trkpt><trkpt lat="45.093189663861274" lon="6.920034022209326"><ele>909.5</ele><time>2026-04-19T12:07:40.001Z</time></trkpt><trkpt lat="45.09334421422454" lon="6.920439578042904"><ele>921.0</ele><time>2026-04-19T12:07:41.001Z</time></trkpt><trkpt lat="45.09347280839539" lon="6.920826169624999"><ele>910.5</ele><time>2026-04-19T12:07:42.001Z</time></trkpt><trkpt lat="45.09359038974618" lon="6.921196004242631"><ele>900.0</ele><time>2026-04-19T12:07:43.001Z</time></trkpt><trkpt lat="45.09370022466859" lon="6.921560579745395"><ele>894.5</ele><time>2026-04-19T12:07:44.001Z</time></trkpt><trkpt lat="45.093775228961185" lon="6.9219272662274935"><ele>889.0</ele><time>2026-04-19T12:07:45.001Z</time></trkpt><trkpt lat="45.09383543267891" lon="6.922321633320603"><ele>880.0</ele><time>2026-04-19T12:07:46.001Z</time></trkpt><trkpt lat="45.093889299905285" lon="6.922732259681309"><ele>871.0</ele><time>2026-04-19T12:07:47.001Z</time></trkpt><trkpt lat="45.09397601499893" lon="6.923152798904042"><ele>884.5</ele><time>2026-04-19T12:07:48.001Z</time></trkpt><trkpt lat="45.09410838330276" lon="6.923552232579759"><ele>898.0</ele><time>2026-04-19T12:07:49.001Z</time></trkpt><trkpt lat="45.094289629849364" lon="6.923934678848321"><ele>882.5</ele><time>2026-04-19T12:07:50.001Z</time></trkpt><trkpt lat="45.094492898763434" lon="6.924294788052825"><ele>867.0</ele><time>2026-04-19T12:07:51.001Z</time></trkpt><trkpt lat="45.09468616001331" lon="6.924627216136441"><ele>867.0</ele><time>2026-04-19T12:07:52.001Z</time></trkpt><trkpt lat="45.094892104915644" lon="6.9249527696289634"><ele>867.0</ele><time>2026-04-19T12:07:53.001Z</time></trkpt><trkpt lat="45.09512069290355" lon="6.925274444385792"><ele>873.5</ele><time>2026-04-19T12:07:54Z</time></trkpt><trkpt lat="45.09532692659242" lon="6.925581180485356"><ele>880.0</ele><time>2026-04-19T12:07:55Z</time></trkpt><trkpt lat="45.09554990731968" lon="6.925864988886121"><ele>878.0</ele><time>2026-04-19T12:07:56Z</time></trkpt><trkpt lat="45.09574369253917" lon="6.926129315455057"><ele>876.0</ele><time>2026-04-19T12:07:57Z</time></trkpt><trkpt lat="45.095980503164014" lon="6.926385720575021"><ele>876.0</ele><time>2026-04-19T12:07:58Z</time></trkpt><trkpt lat="45.09628692369938" lon="6.926516511426438"><ele>876.0</ele><time>2026-04-19T12:07:59Z</time></trkpt><trkpt lat="45.09656220688214" lon="6.926650593898513"><ele>885.0</ele><time>2026-04-19T12:08:00Z</time></trkpt><trkpt lat="45.096796745439946" lon="6.926711707522783"><ele>894.0</ele><time>2026-04-19T12:08:01Z</time></trkpt><trkpt lat="45.097019663905705" lon="6.9267019841327055"><ele>894.0</ele><time>2026-04-19T12:08:02Z</time></trkpt><trkpt lat="45.097233735418214" lon="6.9267313178748"><ele>894.0</ele><time>2026-04-19T12:08:03Z</time></trkpt><trkpt lat="45.09739923812157" lon="6.926818704509298"><ele>894.0</ele><time>2026-04-19T12:08:04Z</time></trkpt><trkpt lat="45.09753089885092" lon="6.926973871565697"><ele>894.0</ele><time>2026-04-19T12:08:05Z</time></trkpt><trkpt lat="45.09763359403774" lon="6.927202063584753"><ele>894.0</ele><time>2026-04-19T12:08:06Z</time></trkpt><trkpt lat="45.09771685132073" lon="6.9274728018380225"><ele>894.0</ele><time>2026-04-19T12:08:07Z</time></trkpt><trkpt lat="45.097830537023" lon="6.927746822772043"><ele>889.0</ele><time>2026-04-19T12:08:08Z</time></trkpt><trkpt lat="45.0979403044336" lon="6.928030432236142"><ele>884.0</ele><time>2026-04-19T12:08:09Z</time></trkpt><trkpt lat="45.09804725100466" lon="6.928321192027722"><ele>882.5</ele><time>2026-04-19T12:08:10Z</time></trkpt><trkpt lat="45.09815284983796" lon="6.928615489884501"><ele>881.0</ele><time>2026-04-19T12:08:11Z</time></trkpt><trkpt lat="45.098255360406135" lon="6.928886123097084"><ele>881.0</ele><time>2026-04-19T12:08:12Z</time></trkpt><trkpt lat="45.09835199206117" lon="6.9291430078485945"><ele>881.0</ele><time>2026-04-19T12:08:13Z</time></trkpt><trkpt lat="45.09844076495612" lon="6.92938252426006"><ele>881.0</ele><time>2026-04-19T12:08:14Z</time></trkpt><trkpt lat="45.098523145029944" lon="6.929597725465828"><ele>881.0</ele><time>2026-04-19T12:08:15Z</time></trkpt><trkpt lat="45.098598317118814" lon="6.929795300013377"><ele>881.0</ele><time>2026-04-19T12:08:16Z</time></trkpt><trkpt lat="45.098672282861436" lon="6.929988539620175"><ele>881.0</ele><time>2026-04-19T12:08:17Z</time></trkpt><trkpt lat="45.09875588432738" lon="6.930180747225707"><ele>877.0</ele><time>2026-04-19T12:08:18Z</time></trkpt><trkpt lat="45.09886781439436" lon="6.930399679599228"><ele>873.0</ele><time>2026-04-19T12:08:19Z</time></trkpt><trkpt lat="45.098978919280825" lon="6.930623854371498"><ele>869.0</ele><time>2026-04-19T12:08:20Z</time></trkpt><trkpt lat="45.0990766569484" lon="6.93081883265448"><ele>868.3333333333334</ele><time>2026-04-19T12:08:21Z</time></trkpt><trkpt lat="45.09917424790968" lon="6.930971982178397"><ele>867.6666666666667</ele><time>2026-04-19T12:08:22Z</time></trkpt><trkpt lat="45.09929386774086" lon="6.931124873998173"><ele>867.0</ele><time>2026-04-19T12:08:23Z</time></trkpt><trkpt lat="45.0994628530367" lon="6.931346358639147"><ele>867.0</ele><time>2026-04-19T12:08:24Z</time></trkpt><trkpt lat="45.09964036518419" lon="6.931586974018391"><ele>867.0</ele><time>2026-04-19T12:08:25Z</time></trkpt><trkpt lat="45.099796864993635" lon="6.9318035901801185"><ele>867.3333333333333</ele><time>2026-04-19T12:08:26Z</time></trkpt><trkpt lat="45.09994280329871" lon="6.932001204155994"><ele>867.6666666666666</ele><time>2026-04-19T12:08:27Z</time></trkpt><trkpt lat="45.10010785429811" lon="6.9321383653797986"><ele>868.0</ele><time>2026-04-19T12:08:28Z</time></trkpt><trkpt lat="45.100280900041746" lon="6.932242505364484"><ele>868.0</ele><time>2026-04-19T12:08:29Z</time></trkpt><trkpt lat="45.100424587940246" lon="6.932376723673731"><ele>868.0</ele><time>2026-04-19T12:08:30Z</time></trkpt><trkpt lat="45.10054647851431" lon="6.932521628926857"><ele>868.0</ele><time>2026-04-19T12:08:31Z</time></trkpt><trkpt lat="45.1006064461732" lon="6.932719815529904"><ele>866.6666666666666</ele><time>2026-04-19T12:08:32Z</time></trkpt><trkpt lat="45.10067580995146" lon="6.932942142427139"><ele>865.3333333333333</ele><time>2026-04-19T12:08:33Z</time></trkpt><trkpt lat="45.100727205357245" lon="6.933189952664909"><ele>864.0</ele><time>2026-04-19T12:08:34Z</time></trkpt><trkpt lat="45.100763337126125" lon="6.933464778897637"><ele>864.0</ele><time>2026-04-19T12:08:35Z</time></trkpt><trkpt lat="45.10080133748351" lon="6.933753328371069"><ele>864.0</ele><time>2026-04-19T12:08:36Z</time></trkpt><trkpt lat="45.10085682909662" lon="6.934035051515358"><ele>864.0</ele><time>2026-04-19T12:08:37Z</time></trkpt><trkpt lat="45.10095097254275" lon="6.934307666130485"><ele>864.0</ele><time>2026-04-19T12:08:38Z</time></trkpt><trkpt lat="45.10108366547884" lon="6.9345632074242785"><ele>864.0</ele><time>2026-04-19T12:08:39Z</time></trkpt><trkpt lat="45.10123730781601" lon="6.934797047066084"><ele>864.0</ele><time>2026-04-19T12:08:40Z</time></trkpt><trkpt lat="45.10138990133671" lon="6.935041263569081"><ele>861.5</ele><time>2026-04-19T12:08:41Z</time></trkpt><trkpt lat="45.101524573008135" lon="6.935312673138347"><ele>859.0</ele><time>2026-04-19T12:08:42Z</time></trkpt><trkpt lat="45.10165150043257" lon="6.935610691434706"><ele>857.5</ele><time>2026-04-19T12:08:43Z</time></trkpt><trkpt lat="45.10175961778257" lon="6.935919493599863"><ele>856.0</ele><time>2026-04-19T12:08:44Z</time></trkpt><trkpt lat="45.101841460772626" lon="6.9362440254763245"><ele>856.0</ele><time>2026-04-19T12:08:45Z</time></trkpt><trkpt lat="45.10188457000118" lon="6.936577118277036"><ele>856.0</ele><time>2026-04-19T12:08:46Z</time></trkpt><trkpt lat="45.1019045748953" lon="6.936932488974172"><ele>854.0</ele><time>2026-04-19T12:08:47Z</time></trkpt><trkpt lat="45.10189962441517" lon="6.937290893024218"><ele>852.0</ele><time>2026-04-19T12:08:48Z</time></trkpt><trkpt lat="45.10187493285701" lon="6.937620361681472"><ele>851.0</ele><time>2026-04-19T12:08:49Z</time></trkpt><trkpt lat="45.10183819432858" lon="6.937890949789815"><ele>850.0</ele><time>2026-04-19T12:08:50Z</time></trkpt><trkpt lat="45.10180616525886" lon="6.9381129659473"><ele>849.0</ele><time>2026-04-19T12:08:51.001Z</time></trkpt><trkpt lat="45.10180334810273" lon="6.9383149250535325"><ele>847.6666666666667</ele><time>2026-04-19T12:08:52.001Z</time></trkpt><trkpt lat="45.101850346922944" lon="6.938521315979822"><ele>846.3333333333334</ele><time>2026-04-19T12:08:53.001Z</time></trkpt><trkpt lat="45.101935658710644" lon="6.938744980680224"><ele>845.0</ele><time>2026-04-19T12:08:54.001Z</time></trkpt><trkpt lat="45.102055949422436" lon="6.9389690755739855"><ele>845.0</ele><time>2026-04-19T12:08:55.001Z</time></trkpt><trkpt lat="45.10216043185406" lon="6.93920894692572"><ele>845.0</ele><time>2026-04-19T12:08:56.001Z</time></trkpt><trkpt lat="45.1022346213362" lon="6.93948387646711"><ele>845.0</ele><time>2026-04-19T12:08:57.001Z</time></trkpt><trkpt lat="45.102294481969395" lon="6.9397828627702145"><ele>846.5</ele><time>2026-04-19T12:08:58.001Z</time></trkpt><trkpt lat="45.10235982536093" lon="6.940098014954014"><ele>848.0</ele><time>2026-04-19T12:08:59.001Z</time></trkpt><trkpt lat="45.102415172059125" lon="6.940442490272939"><ele>848.0</ele><time>2026-04-19T12:09:00.001Z</time></trkpt><trkpt lat="45.10245650479073" lon="6.940772215351991"><ele>848.0</ele><time>2026-04-19T12:09:01.001Z</time></trkpt><trkpt lat="45.10250717063549" lon="6.941079866258995"><ele>842.3333333333334</ele><time>2026-04-19T12:09:02.001Z</time></trkpt><trkpt lat="45.10257804790282" lon="6.94135000232102"><ele>836.6666666666667</ele><time>2026-04-19T12:09:03.001Z</time></trkpt><trkpt lat="45.10259208695611" lon="6.941615836550887"><ele>831.0</ele><time>2026-04-19T12:09:04.001Z</time></trkpt><trkpt lat="45.10260820497784" lon="6.9418628581156625"><ele>828.0</ele><time>2026-04-19T12:09:05.001Z</time></trkpt><trkpt lat="45.10263122135872" lon="6.942097058613084"><ele>825.0</ele><time>2026-04-19T12:09:06.001Z</time></trkpt><trkpt lat="45.102652061526356" lon="6.942301740024258"><ele>822.0</ele><time>2026-04-19T12:09:07.001Z</time></trkpt><trkpt lat="45.102698017218835" lon="6.942478910951526"><ele>819.0</ele><time>2026-04-19T12:09:08.001Z</time></trkpt><trkpt lat="45.102787620825296" lon="6.942641998080725"><ele>814.3333333333333</ele><time>2026-04-19T12:09:09.001Z</time></trkpt><trkpt lat="45.10291508665944" lon="6.942804725980764"><ele>809.6666666666666</ele><time>2026-04-19T12:09:10.001Z</time></trkpt><trkpt lat="45.103044011508324" lon="6.943007836638221"><ele>805.0</ele><time>2026-04-19T12:09:11.001Z</time></trkpt><trkpt lat="45.10314743686572" lon="6.943254624122658"><ele>806.3333333333333</ele><time>2026-04-19T12:09:12.001Z</time></trkpt><trkpt lat="45.10324983494493" lon="6.943524345655164"><ele>807.6666666666667</ele><time>2026-04-19T12:09:13.001Z</time></trkpt><trkpt lat="45.10335371896482" lon="6.943798951037465"><ele>809.0</ele><time>2026-04-19T12:09:14.001Z</time></trkpt><trkpt lat="45.10347130544462" lon="6.944081214781791"><ele>796.5</ele><time>2026-04-19T12:09:15.001Z</time></trkpt><trkpt lat="45.103611113185096" lon="6.944334756338723"><ele>784.0</ele><time>2026-04-19T12:09:16.001Z</time></trkpt><trkpt lat="45.103785466935236" lon="6.944549192600975"><ele>784.0</ele><time>2026-04-19T12:09:17.001Z</time></trkpt><trkpt lat="45.103921051947985" lon="6.944804624355171"><ele>784.0</ele><time>2026-04-19T12:09:18.001Z</time></trkpt><trkpt lat="45.104057700340135" lon="6.945015195564572"><ele>784.0</ele><time>2026-04-19T12:09:19.001Z</time></trkpt><trkpt lat="45.104151552144025" lon="6.945241675749808"><ele>785.0</ele><time>2026-04-19T12:09:20.001Z</time></trkpt><trkpt lat="45.10423957357274" lon="6.945458449193531"><ele>786.0</ele><time>2026-04-19T12:09:21.001Z</time></trkpt><trkpt lat="45.104346401194526" lon="6.9456378625878035"><ele>787.0</ele><time>2026-04-19T12:09:22.001Z</time></trkpt><trkpt lat="45.10446315068987" lon="6.945782716430179"><ele>787.0</ele><time>2026-04-19T12:09:23Z</time></trkpt><trkpt lat="45.10457620222924" lon="6.945874350273379"><ele>787.0</ele><time>2026-04-19T12:09:24Z</time></trkpt><trkpt lat="45.10472204940529" lon="6.945988222803124"><ele>787.0</ele><time>2026-04-19T12:09:25Z</time></trkpt><trkpt lat="45.10486864703076" lon="6.946085202081688"><ele>788.3333333333333</ele><time>2026-04-19T12:09:26Z</time></trkpt><trkpt lat="45.10502339027911" lon="6.946188306343489"><ele>789.6666666666667</ele><time>2026-04-19T12:09:27Z</time></trkpt><trkpt lat="45.105145349831496" lon="6.946320627095657"><ele>791.0</ele><time>2026-04-19T12:09:28Z</time></trkpt><trkpt lat="45.10525280901163" lon="6.946464653935584"><ele>791.0</ele><time>2026-04-19T12:09:29Z</time></trkpt><trkpt lat="45.10534010056462" lon="6.946622662692314"><ele>791.0</ele><time>2026-04-19T12:09:30Z</time></trkpt><trkpt lat="45.105425613658156" lon="6.946796705234362"><ele>791.0</ele><time>2026-04-19T12:09:31Z</time></trkpt><trkpt lat="45.10552513320865" lon="6.946963686928034"><ele>791.0</ele><time>2026-04-19T12:09:32Z</time></trkpt><trkpt lat="45.10560610488237" lon="6.947131567968754"><ele>791.5</ele><time>2026-04-19T12:09:33Z</time></trkpt><trkpt lat="45.10566888440584" lon="6.947303176938358"><ele>792.0</ele><time>2026-04-19T12:09:34Z</time></trkpt><trkpt lat="45.105740890320405" lon="6.947448701007571"><ele>792.5</ele><time>2026-04-19T12:09:35Z</time></trkpt><trkpt lat="45.105807115526304" lon="6.947581575267486"><ele>793.0</ele><time>2026-04-19T12:09:36Z</time></trkpt><trkpt lat="45.10586519624928" lon="6.947712511128315"><ele>793.0</ele><time>2026-04-19T12:09:37Z</time></trkpt><trkpt lat="45.10592071675085" lon="6.947843307148607"><ele>793.0</ele><time>2026-04-19T12:09:38Z</time></trkpt><trkpt lat="45.10592714033007" lon="6.947998863332142"><ele>793.0</ele><time>2026-04-19T12:09:39Z</time></trkpt><trkpt lat="45.10591692433908" lon="6.948149454624786"><ele>793.0</ele><time>2026-04-19T12:09:40Z</time></trkpt><trkpt lat="45.10590716256043" lon="6.948444400247165"><ele>788.8</ele><time>2026-04-19T12:09:42Z</time></trkpt><trkpt lat="45.1059409172049" lon="6.948572712762992"><ele>784.5999999999999</ele><time>2026-04-19T12:09:43Z</time></trkpt><trkpt lat="45.105978985052595" lon="6.948707218483253"><ele>780.4000000000001</ele><time>2026-04-19T12:09:44Z</time></trkpt><trkpt lat="45.1060170671551" lon="6.948846864694952"><ele>776.2</ele><time>2026-04-19T12:09:45Z</time></trkpt><trkpt lat="45.106048134074214" lon="6.949014053062682"><ele>772.0</ele><time>2026-04-19T12:09:46Z</time></trkpt><trkpt lat="45.106067198900234" lon="6.949169114205367"><ele>768.6</ele><time>2026-04-19T12:09:47Z</time></trkpt><trkpt lat="45.10612535725967" lon="6.949259603252896"><ele>765.2</ele><time>2026-04-19T12:09:48Z</time></trkpt><trkpt lat="45.106173083746256" lon="6.949384064689693"><ele>761.8</ele><time>2026-04-19T12:09:49Z</time></trkpt><trkpt lat="45.10626592912865" lon="6.949476718649904"><ele>758.4</ele><time>2026-04-19T12:09:50Z</time></trkpt><trkpt lat="45.106354658341964" lon="6.9495809439796385"><ele>755.0</ele><time>2026-04-19T12:09:51Z</time></trkpt><trkpt lat="45.10639901927441" lon="6.949692376185278"><ele>755.0</ele><time>2026-04-19T12:09:52Z</time></trkpt><trkpt lat="45.10643972107045" lon="6.949809731217424"><ele>755.0</ele><time>2026-04-19T12:09:53Z</time></trkpt><trkpt lat="45.10648113331442" lon="6.949940546207169"><ele>755.0</ele><time>2026-04-19T12:09:54Z</time></trkpt><trkpt lat="45.10651133196323" lon="6.950067171070839"><ele>755.0</ele><time>2026-04-19T12:09:55Z</time></trkpt><trkpt lat="45.10652686818995" lon="6.9502604405473125"><ele>755.0</ele><time>2026-04-19T12:09:56Z</time></trkpt><trkpt lat="45.10654116616788" lon="6.95043036831542"><ele>757.25</ele><time>2026-04-19T12:09:57Z</time></trkpt><trkpt lat="45.106584430636104" lon="6.950589468088976"><ele>759.5</ele><time>2026-04-19T12:09:58Z</time></trkpt><trkpt lat="45.10662067210335" lon="6.950755639130864"><ele>761.75</ele><time>2026-04-19T12:09:59Z</time></trkpt><trkpt lat="45.10666588180672" lon="6.950919290540963"><ele>764.0</ele><time>2026-04-19T12:10:00Z</time></trkpt><trkpt lat="45.1067230242862" lon="6.951121209506187"><ele>764.0</ele><time>2026-04-19T12:10:01Z</time></trkpt><trkpt lat="45.10680943744916" lon="6.951332210838447"><ele>764.0</ele><time>2026-04-19T12:10:02Z</time></trkpt><trkpt lat="45.10690213813675" lon="6.951535655452271"><ele>764.0</ele><time>2026-04-19T12:10:03Z</time></trkpt><trkpt lat="45.106974928987086" lon="6.951766331655373"><ele>759.6666666666666</ele><time>2026-04-19T12:10:04Z</time></trkpt><trkpt lat="45.10704938506855" lon="6.952033461916693"><ele>755.3333333333334</ele><time>2026-04-19T12:10:05Z</time></trkpt><trkpt lat="45.10712398848131" lon="6.95231476782351"><ele>751.0</ele><time>2026-04-19T12:10:06Z</time></trkpt><trkpt lat="45.10720579862111" lon="6.952637822710346"><ele>745.5</ele><time>2026-04-19T12:10:07Z</time></trkpt><trkpt lat="45.107283118211754" lon="6.952985177645135"><ele>740.0</ele><time>2026-04-19T12:10:08Z</time></trkpt><trkpt lat="45.10735597086548" lon="6.953325445250948"><ele>746.5</ele><time>2026-04-19T12:10:09Z</time></trkpt><trkpt lat="45.10743246126737" lon="6.953664241964035"><ele>753.0</ele><time>2026-04-19T12:10:10Z</time></trkpt><trkpt lat="45.107529457979744" lon="6.95401059156181"><ele>745.5</ele><time>2026-04-19T12:10:11Z</time></trkpt><trkpt lat="45.10761631005336" lon="6.954375943365223"><ele>738.0</ele><time>2026-04-19T12:10:12Z</time></trkpt><trkpt lat="45.107715797060045" lon="6.954744833402733"><ele>741.0</ele><time>2026-04-19T12:10:13Z</time></trkpt><trkpt lat="45.107810803339554" lon="6.955125276192308"><ele>744.0</ele><time>2026-04-19T12:10:14Z</time></trkpt><trkpt lat="45.107904942166805" lon="6.955516427575904"><ele>751.0</ele><time>2026-04-19T12:10:15Z</time></trkpt><trkpt lat="45.108008685017" lon="6.955899092537174"><ele>758.0</ele><time>2026-04-19T12:10:16Z</time></trkpt><trkpt lat="45.108130100755666" lon="6.956271565665182"><ele>760.5</ele><time>2026-04-19T12:10:17Z</time></trkpt><trkpt lat="45.10826576518225" lon="6.956642030132292"><ele>763.0</ele><time>2026-04-19T12:10:18Z</time></trkpt><trkpt lat="45.108398811408215" lon="6.95699337231621"><ele>768.0</ele><time>2026-04-19T12:10:19Z</time></trkpt><trkpt lat="45.108499261167964" lon="6.957352900152646"><ele>773.0</ele><time>2026-04-19T12:10:20Z</time></trkpt><trkpt lat="45.108570316458746" lon="6.957723424661171"><ele>775.5</ele><time>2026-04-19T12:10:21Z</time></trkpt><trkpt lat="45.108615902784685" lon="6.958100676610034"><ele>778.0</ele><time>2026-04-19T12:10:22Z</time></trkpt><trkpt lat="45.10863462731919" lon="6.958485310081091"><ele>781.5</ele><time>2026-04-19T12:10:23Z</time></trkpt><trkpt lat="45.10863362464385" lon="6.958890515160022"><ele>785.0</ele><time>2026-04-19T12:10:24Z</time></trkpt><trkpt lat="45.10863602295674" lon="6.959296724184192"><ele>791.5</ele><time>2026-04-19T12:10:25Z</time></trkpt><trkpt lat="45.108666342473285" lon="6.959646198127093"><ele>798.0</ele><time>2026-04-19T12:10:26Z</time></trkpt><trkpt lat="45.10872443736628" lon="6.9599682227637825"><ele>808.5</ele><time>2026-04-19T12:10:27Z</time></trkpt><trkpt lat="45.108856833020866" lon="6.960277253368735"><ele>819.0</ele><time>2026-04-19T12:10:28Z</time></trkpt><trkpt lat="45.109042040546115" lon="6.960589367619449"><ele>809.5</ele><time>2026-04-19T12:10:29Z</time></trkpt><trkpt lat="45.109197827729595" lon="6.960939016162831"><ele>800.0</ele><time>2026-04-19T12:10:30Z</time></trkpt><trkpt lat="45.10929967930841" lon="6.961322900161775"><ele>800.0</ele><time>2026-04-19T12:10:31Z</time></trkpt><trkpt lat="45.1094184425675" lon="6.961666008325679"><ele>800.0</ele><time>2026-04-19T12:10:32Z</time></trkpt><trkpt lat="45.10955916625399" lon="6.961995383237667"><ele>796.5</ele><time>2026-04-19T12:10:33Z</time></trkpt><trkpt lat="45.10975025937595" lon="6.9622839535570265"><ele>793.0</ele><time>2026-04-19T12:10:34Z</time></trkpt><trkpt lat="45.10990858384721" lon="6.9625637961762115"><ele>793.0</ele><time>2026-04-19T12:10:35Z</time></trkpt><trkpt lat="45.10997502689266" lon="6.962875018698306"><ele>793.0</ele><time>2026-04-19T12:10:36Z</time></trkpt><trkpt lat="45.110075833520604" lon="6.963180391879867"><ele>801.5</ele><time>2026-04-19T12:10:37Z</time></trkpt><trkpt lat="45.110216702290224" lon="6.963505454064707"><ele>810.0</ele><time>2026-04-19T12:10:38Z</time></trkpt><trkpt lat="45.11038238512412" lon="6.963824264492809"><ele>810.0</ele><time>2026-04-19T12:10:39Z</time></trkpt><trkpt lat="45.110574359533764" lon="6.964128406616511"><ele>810.0</ele><time>2026-04-19T12:10:40Z</time></trkpt><trkpt lat="45.11077186929718" lon="6.964443034693799"><ele>808.5</ele><time>2026-04-19T12:10:41Z</time></trkpt><trkpt lat="45.110964824547516" lon="6.964767945017846"><ele>807.0</ele><time>2026-04-19T12:10:42Z</time></trkpt><trkpt lat="45.11116708848992" lon="6.9650900211771765"><ele>807.0</ele><time>2026-04-19T12:10:43Z</time></trkpt><trkpt lat="45.111349119587175" lon="6.965388045353487"><ele>807.0</ele><time>2026-04-19T12:10:44Z</time></trkpt><trkpt lat="45.11152621751776" lon="6.9656518839715655"><ele>802.6666666666667</ele><time>2026-04-19T12:10:45Z</time></trkpt><trkpt lat="45.11167721992684" lon="6.965870921339582"><ele>798.3333333333334</ele><time>2026-04-19T12:10:46Z</time></trkpt><trkpt lat="45.111800309968494" lon="6.9660645915665125"><ele>794.0</ele><time>2026-04-19T12:10:47Z</time></trkpt><trkpt lat="45.11188242345167" lon="6.966233385574935"><ele>794.0</ele><time>2026-04-19T12:10:48Z</time></trkpt><trkpt lat="45.11192402418279" lon="6.966426918177578"><ele>794.0</ele><time>2026-04-19T12:10:49Z</time></trkpt><trkpt lat="45.11194059754744" lon="6.966712269994348"><ele>794.0</ele><time>2026-04-19T12:10:50Z</time></trkpt><trkpt lat="45.11194366642462" lon="6.9670731919856985"><ele>796.5</ele><time>2026-04-19T12:10:51Z</time></trkpt><trkpt lat="45.11194493046462" lon="6.96747933692019"><ele>799.0</ele><time>2026-04-19T12:10:52Z</time></trkpt><trkpt lat="45.11194423329108" lon="6.967907624293127"><ele>799.0</ele><time>2026-04-19T12:10:53Z</time></trkpt><trkpt lat="45.11189160658487" lon="6.968333537801785"><ele>799.0</ele><time>2026-04-19T12:10:54Z</time></trkpt><trkpt lat="45.11187733254322" lon="6.968706203325099"><ele>799.3333333333333</ele><time>2026-04-19T12:10:55Z</time></trkpt><trkpt lat="45.11186254514131" lon="6.969001350092826"><ele>799.6666666666667</ele><time>2026-04-19T12:10:56Z</time></trkpt><trkpt lat="45.111909546898865" lon="6.969269510464738"><ele>800.0</ele><time>2026-04-19T12:10:57.001Z</time></trkpt><trkpt lat="45.11202402211656" lon="6.969525348841982"><ele>791.0</ele><time>2026-04-19T12:10:58.001Z</time></trkpt><trkpt lat="45.11218679295648" lon="6.969740583699441"><ele>782.0</ele><time>2026-04-19T12:10:59.001Z</time></trkpt><trkpt lat="45.11241225963185" lon="6.96987630780112"><ele>795.5</ele><time>2026-04-19T12:11:00.001Z</time></trkpt><trkpt lat="45.11268732135419" lon="6.970044099045069"><ele>809.0</ele><time>2026-04-19T12:11:01.001Z</time></trkpt><trkpt lat="45.11296556875559" lon="6.970253572936298"><ele>809.0</ele><time>2026-04-19T12:11:02.001Z</time></trkpt><trkpt lat="45.11317418036873" lon="6.970462393949965"><ele>809.0</ele><time>2026-04-19T12:11:03.001Z</time></trkpt><trkpt lat="45.11333728107374" lon="6.9707113208723825"><ele>800.0</ele><time>2026-04-19T12:11:04.001Z</time></trkpt><trkpt lat="45.11349146296728" lon="6.971032207130366"><ele>791.0</ele><time>2026-04-19T12:11:05.001Z</time></trkpt><trkpt lat="45.11364490777376" lon="6.971406369564745"><ele>796.0</ele><time>2026-04-19T12:11:06.001Z</time></trkpt><trkpt lat="45.11377881042596" lon="6.971823142360951"><ele>801.0</ele><time>2026-04-19T12:11:07.001Z</time></trkpt><trkpt lat="45.11392840066767" lon="6.972180212855049"><ele>794.0</ele><time>2026-04-19T12:11:08.001Z</time></trkpt><trkpt lat="45.11408945706229" lon="6.972501410060034"><ele>787.0</ele><time>2026-04-19T12:11:09.001Z</time></trkpt><trkpt lat="45.114301878123094" lon="6.972829463506498"><ele>787.0</ele><time>2026-04-19T12:11:10Z</time></trkpt><trkpt lat="45.11453534440563" lon="6.973156284876177"><ele>787.0</ele><time>2026-04-19T12:11:11Z</time></trkpt><trkpt lat="45.114761505533394" lon="6.973501890274072"><ele>786.0</ele><time>2026-04-19T12:11:12Z</time></trkpt><trkpt lat="45.11498492082159" lon="6.973847805131744"><ele>785.0</ele><time>2026-04-19T12:11:13Z</time></trkpt><trkpt lat="45.115192466915516" lon="6.97420657875185"><ele>785.0</ele><time>2026-04-19T12:11:14Z</time></trkpt><trkpt lat="45.11542031577411" lon="6.974526285323283"><ele>785.0</ele><time>2026-04-19T12:11:15Z</time></trkpt><trkpt lat="45.11562186052946" lon="6.974843540249293"><ele>782.5</ele><time>2026-04-19T12:11:16Z</time></trkpt><trkpt lat="45.115825473219196" lon="6.975162309401472"><ele>780.0</ele><time>2026-04-19T12:11:17Z</time></trkpt><trkpt lat="45.11604189570868" lon="6.975493871131388"><ele>780.0</ele><time>2026-04-19T12:11:18Z</time></trkpt><trkpt lat="45.11625291062946" lon="6.975816355787671"><ele>780.0</ele><time>2026-04-19T12:11:19Z</time></trkpt><trkpt lat="45.116455465892834" lon="6.976122318126419"><ele>775.5</ele><time>2026-04-19T12:11:20Z</time></trkpt><trkpt lat="45.11663906718674" lon="6.976407098949705"><ele>771.0</ele><time>2026-04-19T12:11:21Z</time></trkpt><trkpt lat="45.11679986090506" lon="6.976685141832359"><ele>770.0</ele><time>2026-04-19T12:11:22Z</time></trkpt><trkpt lat="45.116908236595116" lon="6.976969280445147"><ele>769.0</ele><time>2026-04-19T12:11:23Z</time></trkpt><trkpt lat="45.11698876854831" lon="6.977236171885951"><ele>768.0</ele><time>2026-04-19T12:11:24Z</time></trkpt><trkpt lat="45.11704208065621" lon="6.977526736199242"><ele>767.5</ele><time>2026-04-19T12:11:25Z</time></trkpt><trkpt lat="45.11709155820838" lon="6.977830342278084"><ele>767.0</ele><time>2026-04-19T12:11:26Z</time></trkpt><trkpt lat="45.11709930405927" lon="6.978162007967089"><ele>765.5</ele><time>2026-04-19T12:11:27Z</time></trkpt><trkpt lat="45.11710402327825" lon="6.978498981018246"><ele>764.0</ele><time>2026-04-19T12:11:28Z</time></trkpt><trkpt lat="45.11711446555151" lon="6.978843673576877"><ele>763.5</ele><time>2026-04-19T12:11:29Z</time></trkpt><trkpt lat="45.117125085177044" lon="6.979186741730717"><ele>763.0</ele><time>2026-04-19T12:11:30Z</time></trkpt><trkpt lat="45.11713507486506" lon="6.979502081933748"><ele>763.0</ele><time>2026-04-19T12:11:31Z</time></trkpt><trkpt lat="45.11712871465369" lon="6.979793671000503"><ele>763.0</ele><time>2026-04-19T12:11:32Z</time></trkpt><trkpt lat="45.11713775503669" lon="6.980077413765953"><ele>763.0</ele><time>2026-04-19T12:11:33Z</time></trkpt><trkpt lat="45.11714727056734" lon="6.980376068332301"><ele>765.0</ele><time>2026-04-19T12:11:34Z</time></trkpt><trkpt lat="45.11715751466566" lon="6.980687297280493"><ele>767.0</ele><time>2026-04-19T12:11:35Z</time></trkpt><trkpt lat="45.117167521153725" lon="6.980993277560268"><ele>769.0</ele><time>2026-04-19T12:11:36Z</time></trkpt><trkpt lat="45.11718759382472" lon="6.981270881891337"><ele>770.6666666666666</ele><time>2026-04-19T12:11:37Z</time></trkpt><trkpt lat="45.11719513580831" lon="6.9815285054373435"><ele>772.3333333333333</ele><time>2026-04-19T12:11:38Z</time></trkpt><trkpt lat="45.11720690979644" lon="6.981768225753711"><ele>774.0</ele><time>2026-04-19T12:11:39Z</time></trkpt><trkpt lat="45.117219096084746" lon="6.981989704405177"><ele>776.25</ele><time>2026-04-19T12:11:40Z</time></trkpt><trkpt lat="45.11724650556246" lon="6.982190638052552"><ele>778.5</ele><time>2026-04-19T12:11:41Z</time></trkpt><trkpt lat="45.11728101018899" lon="6.982380455089727"><ele>780.75</ele><time>2026-04-19T12:11:42Z</time></trkpt><trkpt lat="45.1173230614643" lon="6.982553793478967"><ele>783.0</ele><time>2026-04-19T12:11:43Z</time></trkpt><trkpt lat="45.11737074508062" lon="6.982712466066881"><ele>780.2</ele><time>2026-04-19T12:11:44Z</time></trkpt><trkpt lat="45.11742112647098" lon="6.982855710424274"><ele>777.4</ele><time>2026-04-19T12:11:45Z</time></trkpt><trkpt lat="45.11747684673331" lon="6.982990907460851"><ele>774.6</ele><time>2026-04-19T12:11:46Z</time></trkpt><trkpt lat="45.11754266874027" lon="6.983112372570286"><ele>771.8000000000001</ele><time>2026-04-19T12:11:47Z</time></trkpt><trkpt lat="45.11761190400949" lon="6.983229769553161"><ele>769.0</ele><time>2026-04-19T12:11:48Z</time></trkpt><trkpt lat="45.117680043690456" lon="6.983348046297075"><ele>769.0</ele><time>2026-04-19T12:11:49Z</time></trkpt><trkpt lat="45.11774602178553" lon="6.983456774427296"><ele>769.0</ele><time>2026-04-19T12:11:50Z</time></trkpt><trkpt lat="45.11781284738406" lon="6.98356025430449"><ele>769.0</ele><time>2026-04-19T12:11:51Z</time></trkpt><trkpt lat="45.11788451461367" lon="6.983668935111949"><ele>769.0</ele><time>2026-04-19T12:11:52Z</time></trkpt><trkpt lat="45.11795698170221" lon="6.9837805613097785"><ele>769.0</ele><time>2026-04-19T12:11:53Z</time></trkpt><trkpt lat="45.1180345705821" lon="6.9839022333968455"><ele>769.0</ele><time>2026-04-19T12:11:54Z</time></trkpt><trkpt lat="45.118120023440724" lon="6.984038534685148"><ele>769.0</ele><time>2026-04-19T12:11:55Z</time></trkpt><trkpt lat="45.11821370500341" lon="6.984187131096171"><ele>769.0</ele><time>2026-04-19T12:11:56Z</time></trkpt><trkpt lat="45.11831126680563" lon="6.984344260107434"><ele>769.0</ele><time>2026-04-19T12:11:57Z</time></trkpt><trkpt lat="45.118418879633175" lon="6.9845034051336095"><ele>767.3333333333333</ele><time>2026-04-19T12:11:58Z</time></trkpt><trkpt lat="45.118526396618094" lon="6.984667850484494"><ele>765.6666666666666</ele><time>2026-04-19T12:11:59Z</time></trkpt><trkpt lat="45.11863475179696" lon="6.984841049763954"><ele>764.0</ele><time>2026-04-19T12:12:00Z</time></trkpt><trkpt lat="45.1187343678726" lon="6.985008259634112"><ele>765.25</ele><time>2026-04-19T12:12:01Z</time></trkpt><trkpt lat="45.11882198723866" lon="6.985163060986209"><ele>766.5</ele><time>2026-04-19T12:12:02Z</time></trkpt><trkpt lat="45.11891091119685" lon="6.985312853225559"><ele>767.75</ele><time>2026-04-19T12:12:03Z</time></trkpt><trkpt lat="45.11899370762104" lon="6.985447565844999"><ele>769.0</ele><time>2026-04-19T12:12:04Z</time></trkpt><trkpt lat="45.11908131424562" lon="6.9855798603993104"><ele>768.0</ele><time>2026-04-19T12:12:05Z</time></trkpt><trkpt lat="45.11916386673928" lon="6.985691356728239"><ele>767.0</ele><time>2026-04-19T12:12:06Z</time></trkpt><trkpt lat="45.119252978770334" lon="6.985798801452174"><ele>766.0</ele><time>2026-04-19T12:12:07Z</time></trkpt><trkpt lat="45.11934798049239" lon="6.985897453050816"><ele>765.0</ele><time>2026-04-19T12:12:08Z</time></trkpt><trkpt lat="45.11945004022356" lon="6.985994201766472"><ele>765.0</ele><time>2026-04-19T12:12:09Z</time></trkpt><trkpt lat="45.11955458282399" lon="6.986085131643271"><ele>765.0</ele><time>2026-04-19T12:12:10Z</time></trkpt><trkpt lat="45.11965790668727" lon="6.986166217510457"><ele>765.0</ele><time>2026-04-19T12:12:11Z</time></trkpt><trkpt lat="45.119766085052845" lon="6.986239079144821"><ele>765.0</ele><time>2026-04-19T12:12:12Z</time></trkpt><trkpt lat="45.119868824194846" lon="6.986295568534134"><ele>763.5</ele><time>2026-04-19T12:12:13Z</time></trkpt><trkpt lat="45.11998556182776" lon="6.986317482247398"><ele>762.0</ele><time>2026-04-19T12:12:14Z</time></trkpt><trkpt lat="45.120097296513734" lon="6.986347647310431"><ele>760.5</ele><time>2026-04-19T12:12:15Z</time></trkpt><trkpt lat="45.12020684801021" lon="6.98638072414646"><ele>759.0</ele><time>2026-04-19T12:12:16Z</time></trkpt><trkpt lat="45.12031333195777" lon="6.986424181482284"><ele>759.0</ele><time>2026-04-19T12:12:17Z</time></trkpt><trkpt lat="45.12041210261614" lon="6.9864826749729785"><ele>759.0</ele><time>2026-04-19T12:12:18Z</time></trkpt><trkpt lat="45.120504744611175" lon="6.986558338717692"><ele>759.0</ele><time>2026-04-19T12:12:19Z</time></trkpt><trkpt lat="45.120601402039576" lon="6.986668304749192"><ele>759.0</ele><time>2026-04-19T12:12:20Z</time></trkpt><trkpt lat="45.1206838734234" lon="6.986791726250435"><ele>757.3333333333334</ele><time>2026-04-19T12:12:21Z</time></trkpt><trkpt lat="45.120756169695056" lon="6.986933717287763"><ele>755.6666666666667</ele><time>2026-04-19T12:12:22Z</time></trkpt><trkpt lat="45.12083520979739" lon="6.987118118269232"><ele>754.0</ele><time>2026-04-19T12:12:23Z</time></trkpt><trkpt lat="45.12092600691245" lon="6.987357810128576"><ele>755.0</ele><time>2026-04-19T12:12:24Z</time></trkpt><trkpt lat="45.12102492413888" lon="6.9876264616431065"><ele>756.0</ele><time>2026-04-19T12:12:25Z</time></trkpt><trkpt lat="45.12113340561934" lon="6.987933665475573"><ele>756.0</ele><time>2026-04-19T12:12:26Z</time></trkpt><trkpt lat="45.121248402034304" lon="6.988258866931791"><ele>756.0</ele><time>2026-04-19T12:12:27Z</time></trkpt><trkpt lat="45.12135999902642" lon="6.9885649438527"><ele>757.0</ele><time>2026-04-19T12:12:28Z</time></trkpt><trkpt lat="45.121485503440304" lon="6.9889066793844075"><ele>758.0</ele><time>2026-04-19T12:12:29Z</time></trkpt><trkpt lat="45.12161628166123" lon="6.989272898960805"><ele>753.0</ele><time>2026-04-19T12:12:30Z</time></trkpt><trkpt lat="45.12173265868277" lon="6.989608607435743"><ele>748.0</ele><time>2026-04-19T12:12:31Z</time></trkpt><trkpt lat="45.12184055470391" lon="6.989938734563976"><ele>748.5</ele><time>2026-04-19T12:12:32Z</time></trkpt><trkpt lat="45.121917009687905" lon="6.990283450841362"><ele>749.0</ele><time>2026-04-19T12:12:33Z</time></trkpt><trkpt lat="45.12197822628601" lon="6.990695860151848"><ele>750.5</ele><time>2026-04-19T12:12:34Z</time></trkpt><trkpt lat="45.122036253641035" lon="6.99111114570606"><ele>752.0</ele><time>2026-04-19T12:12:35Z</time></trkpt><trkpt lat="45.12213553817019" lon="6.991515740081911"><ele>753.5</ele><time>2026-04-19T12:12:36Z</time></trkpt><trkpt lat="45.122254797342926" lon="6.991907250403746"><ele>755.0</ele><time>2026-04-19T12:12:37Z</time></trkpt><trkpt lat="45.122361309932984" lon="6.992270127422799"><ele>748.0</ele><time>2026-04-19T12:12:38Z</time></trkpt><trkpt lat="45.12244517432384" lon="6.992612268955984"><ele>741.0</ele><time>2026-04-19T12:12:39Z</time></trkpt><trkpt lat="45.12253635937746" lon="6.992958461185592"><ele>741.0</ele><time>2026-04-19T12:12:40Z</time></trkpt><trkpt lat="45.122638960510855" lon="6.993325763199075"><ele>741.0</ele><time>2026-04-19T12:12:41Z</time></trkpt><trkpt lat="45.122743497905454" lon="6.993711274950511"><ele>742.0</ele><time>2026-04-19T12:12:42Z</time></trkpt><trkpt lat="45.12285594158853" lon="6.994122925090972"><ele>743.0</ele><time>2026-04-19T12:12:43Z</time></trkpt><trkpt lat="45.122965553388724" lon="6.994536271915857"><ele>746.0</ele><time>2026-04-19T12:12:44Z</time></trkpt><trkpt lat="45.123075167299184" lon="6.99494703884458"><ele>749.0</ele><time>2026-04-19T12:12:45Z</time></trkpt><trkpt lat="45.123176618075846" lon="6.995335359052814"><ele>746.5</ele><time>2026-04-19T12:12:46Z</time></trkpt><trkpt lat="45.12327361762368" lon="6.9956957843459815"><ele>744.0</ele><time>2026-04-19T12:12:47Z</time></trkpt><trkpt lat="45.12337864339199" lon="6.996035280013038"><ele>744.0</ele><time>2026-04-19T12:12:48Z</time></trkpt><trkpt lat="45.12351288695043" lon="6.996377444132486"><ele>744.0</ele><time>2026-04-19T12:12:49Z</time></trkpt><trkpt lat="45.123677810545644" lon="6.996723418429913"><ele>746.5</ele><time>2026-04-19T12:12:50Z</time></trkpt><trkpt lat="45.12385755002705" lon="6.997060663061654"><ele>749.0</ele><time>2026-04-19T12:12:51Z</time></trkpt><trkpt lat="45.12404305286408" lon="6.997352795005306"><ele>745.5</ele><time>2026-04-19T12:12:52Z</time></trkpt><trkpt lat="45.124222754324585" lon="6.997604859395085"><ele>742.0</ele><time>2026-04-19T12:12:53Z</time></trkpt><trkpt lat="45.124375672097486" lon="6.997834026108702"><ele>742.0</ele><time>2026-04-19T12:12:54Z</time></trkpt><trkpt lat="45.1244766538478" lon="6.998065465497645"><ele>742.0</ele><time>2026-04-19T12:12:55Z</time></trkpt><trkpt lat="45.1245557204999" lon="6.998280685311558"><ele>742.0</ele><time>2026-04-19T12:12:56Z</time></trkpt><trkpt lat="45.12462857457174" lon="6.998529756053728"><ele>742.0</ele><time>2026-04-19T12:12:57Z</time></trkpt><trkpt lat="45.12469298655002" lon="6.99884702867332"><ele>742.0</ele><time>2026-04-19T12:12:58Z</time></trkpt><trkpt lat="45.12472616254782" lon="6.999209929073093"><ele>743.5</ele><time>2026-04-19T12:12:59Z</time></trkpt><trkpt lat="45.12473090734263" lon="6.999600512874293"><ele>745.0</ele><time>2026-04-19T12:13:00Z</time></trkpt><trkpt lat="45.12469290705541" lon="7.00001914265989"><ele>745.0</ele><time>2026-04-19T12:13:01Z</time></trkpt><trkpt lat="45.12464163278016" lon="7.000453438089538"><ele>745.0</ele><time>2026-04-19T12:13:02Z</time></trkpt><trkpt lat="45.12459799199735" lon="7.000864525823891"><ele>745.0</ele><time>2026-04-19T12:13:03Z</time></trkpt><trkpt lat="45.124565160424886" lon="7.001232223666296"><ele>745.0</ele><time>2026-04-19T12:13:04Z</time></trkpt><trkpt lat="45.12454130011441" lon="7.001584869841987"><ele>746.0</ele><time>2026-04-19T12:13:05Z</time></trkpt><trkpt lat="45.12455896302841" lon="7.001926659040604"><ele>747.0</ele><time>2026-04-19T12:13:06Z</time></trkpt><trkpt lat="45.12463767463055" lon="7.002271735060296"><ele>749.5</ele><time>2026-04-19T12:13:07Z</time></trkpt><trkpt lat="45.12478674810615" lon="7.00261988499593"><ele>752.0</ele><time>2026-04-19T12:13:08Z</time></trkpt><trkpt lat="45.12498725310839" lon="7.00296403081238"><ele>748.0</ele><time>2026-04-19T12:13:09Z</time></trkpt><trkpt lat="45.125195192501316" lon="7.003317090643736"><ele>744.0</ele><time>2026-04-19T12:13:10Z</time></trkpt><trkpt lat="45.12538024728337" lon="7.003697349575684"><ele>744.0</ele><time>2026-04-19T12:13:11Z</time></trkpt><trkpt lat="45.12554555635582" lon="7.004094235827424"><ele>744.0</ele><time>2026-04-19T12:13:12Z</time></trkpt><trkpt lat="45.12570108437442" lon="7.004489743554301"><ele>743.5</ele><time>2026-04-19T12:13:13Z</time></trkpt><trkpt lat="45.125851975086796" lon="7.004876161136808"><ele>743.0</ele><time>2026-04-19T12:13:14Z</time></trkpt><trkpt lat="45.12599346176397" lon="7.005273529961654"><ele>743.0</ele><time>2026-04-19T12:13:15Z</time></trkpt><trkpt lat="45.12611359888701" lon="7.005660739359699"><ele>743.0</ele><time>2026-04-19T12:13:16Z</time></trkpt><trkpt lat="45.126204698125726" lon="7.00602086254819"><ele>744.5</ele><time>2026-04-19T12:13:17Z</time></trkpt><trkpt lat="45.126276758945714" lon="7.0063502672871225"><ele>746.0</ele><time>2026-04-19T12:13:18Z</time></trkpt><trkpt lat="45.126333805223446" lon="7.006655652404378"><ele>745.6666666666666</ele><time>2026-04-19T12:13:19Z</time></trkpt><trkpt lat="45.12638100434565" lon="7.0069439169479555"><ele>745.3333333333334</ele><time>2026-04-19T12:13:20Z</time></trkpt><trkpt lat="45.12642075565987" lon="7.007229733352546"><ele>745.0</ele><time>2026-04-19T12:13:21Z</time></trkpt><trkpt lat="45.12646397397473" lon="7.007505699330501"><ele>744.6666666666667</ele><time>2026-04-19T12:13:22Z</time></trkpt><trkpt lat="45.12650654519548" lon="7.007764548586445"><ele>744.3333333333334</ele><time>2026-04-19T12:13:23Z</time></trkpt><trkpt lat="45.12654077693809" lon="7.007986495172691"><ele>744.0</ele><time>2026-04-19T12:13:24Z</time></trkpt><trkpt lat="45.12656796659159" lon="7.008164475911162"><ele>742.0</ele><time>2026-04-19T12:13:25Z</time></trkpt><trkpt lat="45.126593462101766" lon="7.008334227625919"><ele>740.0</ele><time>2026-04-19T12:13:26Z</time></trkpt><trkpt lat="45.12662000770169" lon="7.00850007562911"><ele>738.0</ele><time>2026-04-19T12:13:27Z</time></trkpt><trkpt lat="45.12665049264614" lon="7.0086897069863685"><ele>736.0</ele><time>2026-04-19T12:13:28Z</time></trkpt><trkpt lat="45.126691608069336" lon="7.008923071014409"><ele>736.0</ele><time>2026-04-19T12:13:29Z</time></trkpt><trkpt lat="45.12672355247446" lon="7.00915507289483"><ele>736.0</ele><time>2026-04-19T12:13:30Z</time></trkpt><trkpt lat="45.1267513943997" lon="7.009402272609832"><ele>736.0</ele><time>2026-04-19T12:13:31Z</time></trkpt><trkpt lat="45.12678538483245" lon="7.009657815398789"><ele>738.3333333333334</ele><time>2026-04-19T12:13:32Z</time></trkpt><trkpt lat="45.12682977917634" lon="7.009926350864087"><ele>740.6666666666666</ele><time>2026-04-19T12:13:33Z</time></trkpt><trkpt lat="45.12687114878345" lon="7.010194259139714"><ele>743.0</ele><time>2026-04-19T12:13:34Z</time></trkpt><trkpt lat="45.1269104447965" lon="7.01045769259765"><ele>744.0</ele><time>2026-04-19T12:13:35Z</time></trkpt><trkpt lat="45.126952123574185" lon="7.01071313161921"><ele>745.0</ele><time>2026-04-19T12:13:36Z</time></trkpt><trkpt lat="45.1269890541845" lon="7.010967590834936"><ele>746.0</ele><time>2026-04-19T12:13:37Z</time></trkpt><trkpt lat="45.12702508194481" lon="7.011224145705445"><ele>746.3333333333333</ele><time>2026-04-19T12:13:38Z</time></trkpt><trkpt lat="45.127060546281164" lon="7.011480657251073"><ele>746.6666666666666</ele><time>2026-04-19T12:13:39Z</time></trkpt><trkpt lat="45.127092103316635" lon="7.011739929426589"><ele>747.0</ele><time>2026-04-19T12:13:40Z</time></trkpt><trkpt lat="45.12711905697076" lon="7.011993491048545"><ele>747.6666666666666</ele><time>2026-04-19T12:13:41Z</time></trkpt><trkpt lat="45.12714351754016" lon="7.0122451709628795"><ele>748.3333333333333</ele><time>2026-04-19T12:13:42Z</time></trkpt><trkpt lat="45.1271697968774" lon="7.012501624222756"><ele>749.0</ele><time>2026-04-19T12:13:43Z</time></trkpt><trkpt lat="45.12719722839719" lon="7.01275495367248"><ele>750.3333333333333</ele><time>2026-04-19T12:13:44Z</time></trkpt><trkpt lat="45.1272230323653" lon="7.013001467548419"><ele>751.6666666666666</ele><time>2026-04-19T12:13:45Z</time></trkpt><trkpt lat="45.12724999360766" lon="7.013243822709294"><ele>753.0</ele><time>2026-04-19T12:13:46Z</time></trkpt><trkpt lat="45.1272727980028" lon="7.01348331803224"><ele>754.3333333333334</ele><time>2026-04-19T12:13:47Z</time></trkpt><trkpt lat="45.127293271516635" lon="7.013721400455302"><ele>755.6666666666667</ele><time>2026-04-19T12:13:48Z</time></trkpt><trkpt lat="45.12731080086541" lon="7.01395853869685"><ele>757.0</ele><time>2026-04-19T12:13:49Z</time></trkpt><trkpt lat="45.12731534204644" lon="7.014195460796435"><ele>757.0</ele><time>2026-04-19T12:13:50Z</time></trkpt><trkpt lat="45.12729651287657" lon="7.014440018236439"><ele>757.0</ele><time>2026-04-19T12:13:51Z</time></trkpt><trkpt lat="45.1272552549008" lon="7.014681113253375"><ele>757.0</ele><time>2026-04-19T12:13:52Z</time></trkpt><trkpt lat="45.12719652597291" lon="7.014916179850752"><ele>757.6666666666667</ele><time>2026-04-19T12:13:53Z</time></trkpt><trkpt lat="45.12712963122653" lon="7.015148582058946"><ele>758.3333333333334</ele><time>2026-04-19T12:13:54Z</time></trkpt><trkpt lat="45.12706533699403" lon="7.015388668496847"><ele>759.0</ele><time>2026-04-19T12:13:55Z</time></trkpt><trkpt lat="45.12701047361935" lon="7.015635702378584"><ele>759.25</ele><time>2026-04-19T12:13:56Z</time></trkpt><trkpt lat="45.12696871445432" lon="7.015870248683205"><ele>759.5</ele><time>2026-04-19T12:13:57Z</time></trkpt><trkpt lat="45.126933073434756" lon="7.016042300345308"><ele>759.75</ele><time>2026-04-19T12:13:58Z</time></trkpt><trkpt lat="45.12690567812289" lon="7.016159413329033"><ele>760.0</ele><time>2026-04-19T12:13:59Z</time></trkpt><trkpt lat="45.12688824966879" lon="7.016278185954509"><ele>760.0</ele><time>2026-04-19T12:14:01Z</time></trkpt><trkpt lat="45.12686670797482" lon="7.016414974166764"><ele>760.0</ele><time>2026-04-19T12:14:12Z</time></trkpt><trkpt lat="45.126839876897854" lon="7.0165572864038985"><ele>760.0</ele><time>2026-04-19T12:14:13Z</time></trkpt><trkpt lat="45.12679402808975" lon="7.01674471429311"><ele>760.0</ele><time>2026-04-19T12:14:14Z</time></trkpt><trkpt lat="45.126715096913316" lon="7.016930677260269"><ele>760.0</ele><time>2026-04-19T12:14:15Z</time></trkpt><trkpt lat="45.12661712794984" lon="7.017139772245408"><ele>760.0</ele><time>2026-04-19T12:14:16Z</time></trkpt><trkpt lat="45.126525224294085" lon="7.017367458269643"><ele>760.0</ele><time>2026-04-19T12:14:17Z</time></trkpt><trkpt lat="45.12653107101043" lon="7.017586001504259"><ele>761.3333333333334</ele><time>2026-04-19T12:14:18Z</time></trkpt><trkpt lat="45.12652538621342" lon="7.017848352755441"><ele>762.6666666666666</ele><time>2026-04-19T12:14:19Z</time></trkpt><trkpt lat="45.1265339698916" lon="7.018100094245901"><ele>764.0</ele><time>2026-04-19T12:14:20Z</time></trkpt><trkpt lat="45.12651067856917" lon="7.018376836835362"><ele>764.0</ele><time>2026-04-19T12:14:21Z</time></trkpt><trkpt lat="45.12646023621289" lon="7.018667052379286"><ele>764.0</ele><time>2026-04-19T12:14:22Z</time></trkpt><trkpt lat="45.12643053363296" lon="7.018930537007981"><ele>764.0</ele><time>2026-04-19T12:14:23Z</time></trkpt><trkpt lat="45.12632134394591" lon="7.019218754459641"><ele>761.3333333333333</ele><time>2026-04-19T12:14:24Z</time></trkpt><trkpt lat="45.12622773274117" lon="7.019491673839774"><ele>758.6666666666666</ele><time>2026-04-19T12:14:25Z</time></trkpt><trkpt lat="45.12613097310662" lon="7.019792365662996"><ele>756.0</ele><time>2026-04-19T12:14:26Z</time></trkpt><trkpt lat="45.12599280833109" lon="7.020070337798781"><ele>753.0</ele><time>2026-04-19T12:14:27Z</time></trkpt><trkpt lat="45.125848788719956" lon="7.020347754886936"><ele>750.0</ele><time>2026-04-19T12:14:28Z</time></trkpt><trkpt lat="45.125707390099564" lon="7.020616507540754"><ele>769.0</ele><time>2026-04-19T12:14:29Z</time></trkpt><trkpt lat="45.125592749924074" lon="7.020886314723889"><ele>788.0</ele><time>2026-04-19T12:14:30Z</time></trkpt><trkpt lat="45.12553360748393" lon="7.021197390881638"><ele>788.0</ele><time>2026-04-19T12:14:31Z</time></trkpt><trkpt lat="45.125539184268426" lon="7.021552775393002"><ele>788.0</ele><time>2026-04-19T12:14:32Z</time></trkpt><trkpt lat="45.12561400685696" lon="7.021887586406752"><ele>793.0</ele><time>2026-04-19T12:14:33Z</time></trkpt><trkpt lat="45.12568819224911" lon="7.022203556194986"><ele>798.0</ele><time>2026-04-19T12:14:34Z</time></trkpt><trkpt lat="45.125754021640205" lon="7.022507045645251"><ele>754.0</ele><time>2026-04-19T12:14:35Z</time></trkpt><trkpt lat="45.1262394860697" lon="7.022709526849567"><ele>754.0</ele><time>2026-04-19T12:14:36Z</time></trkpt><trkpt lat="45.1265466160143" lon="7.022909742443073"><ele>754.0</ele><time>2026-04-19T12:14:37Z</time></trkpt><trkpt lat="45.12687448891973" lon="7.023175912288181"><ele>743.0</ele><time>2026-04-19T12:14:38Z</time></trkpt><trkpt lat="45.127220536993214" lon="7.0234670778846064"><ele>732.0</ele><time>2026-04-19T12:14:39Z</time></trkpt><trkpt lat="45.127514875563236" lon="7.023699843074642"><ele>726.5</ele><time>2026-04-19T12:14:40Z</time></trkpt><trkpt lat="45.127778309758384" lon="7.02392652562829"><ele>721.0</ele><time>2026-04-19T12:14:41Z</time></trkpt><trkpt lat="45.128030169016746" lon="7.024143172639469"><ele>715.5</ele><time>2026-04-19T12:14:42Z</time></trkpt><trkpt lat="45.12828267210466" lon="7.024354454328031"><ele>710.0</ele><time>2026-04-19T12:14:43Z</time></trkpt><trkpt lat="45.12853441096262" lon="7.024568252827821"><ele>710.0</ele><time>2026-04-19T12:14:44Z</time></trkpt><trkpt lat="45.12876680897336" lon="7.024781212379202"><ele>710.0</ele><time>2026-04-19T12:14:45Z</time></trkpt><trkpt lat="45.128972105537905" lon="7.024979149383699"><ele>704.0</ele><time>2026-04-19T12:14:46Z</time></trkpt><trkpt lat="45.12915633106591" lon="7.025192957739713"><ele>698.0</ele><time>2026-04-19T12:14:47Z</time></trkpt><trkpt lat="45.1292875488853" lon="7.025464532547372"><ele>698.0</ele><time>2026-04-19T12:14:48Z</time></trkpt><trkpt lat="45.12941728215883" lon="7.025749441040953"><ele>698.0</ele><time>2026-04-19T12:14:49Z</time></trkpt><trkpt lat="45.12952594973596" lon="7.026069816259118"><ele>697.5</ele><time>2026-04-19T12:14:50Z</time></trkpt><trkpt lat="45.129610645741145" lon="7.026398121916606"><ele>697.0</ele><time>2026-04-19T12:14:51Z</time></trkpt><trkpt lat="45.129641905490914" lon="7.026769600010329"><ele>696.0</ele><time>2026-04-19T12:14:52Z</time></trkpt><trkpt lat="45.12964698778914" lon="7.027164586238587"><ele>695.0</ele><time>2026-04-19T12:14:53Z</time></trkpt><trkpt lat="45.12963276117762" lon="7.027586452441269"><ele>695.0</ele><time>2026-04-19T12:14:54Z</time></trkpt><trkpt lat="45.12961393004296" lon="7.028009944868892"><ele>695.0</ele><time>2026-04-19T12:14:55Z</time></trkpt><trkpt lat="45.12960072875265" lon="7.028387404954609"><ele>694.0</ele><time>2026-04-19T12:14:56Z</time></trkpt><trkpt lat="45.12957522220808" lon="7.028707949046148"><ele>693.0</ele><time>2026-04-19T12:14:57Z</time></trkpt><trkpt lat="45.12948815599755" lon="7.0289789849822855"><ele>692.0</ele><time>2026-04-19T12:14:58Z</time></trkpt><trkpt lat="45.12935923070479" lon="7.029233380202547"><ele>691.0</ele><time>2026-04-19T12:14:59Z</time></trkpt><trkpt lat="45.12923235470919" lon="7.029492620222902"><ele>690.0</ele><time>2026-04-19T12:15:00Z</time></trkpt><trkpt lat="45.12912121989065" lon="7.029753356873208"><ele>689.0</ele><time>2026-04-19T12:15:01Z</time></trkpt><trkpt lat="45.12905609542354" lon="7.0300487429639755"><ele>685.5</ele><time>2026-04-19T12:15:02Z</time></trkpt><trkpt lat="45.1290620039741" lon="7.030375246239373"><ele>682.0</ele><time>2026-04-19T12:15:03Z</time></trkpt><trkpt lat="45.129145641627865" lon="7.030719724080327"><ele>680.5</ele><time>2026-04-19T12:15:04Z</time></trkpt><trkpt lat="45.129312146216826" lon="7.031047714744719"><ele>679.0</ele><time>2026-04-19T12:15:05Z</time></trkpt><trkpt lat="45.12952517241546" lon="7.031355572081932"><ele>680.5</ele><time>2026-04-19T12:15:06Z</time></trkpt><trkpt lat="45.12975415424077" lon="7.031666440547746"><ele>682.0</ele><time>2026-04-19T12:15:07Z</time></trkpt><trkpt lat="45.12995960367878" lon="7.031990556602473"><ele>673.5</ele><time>2026-04-19T12:15:08Z</time></trkpt><trkpt lat="45.13014346761107" lon="7.032339054146343"><ele>665.0</ele><time>2026-04-19T12:15:09Z</time></trkpt><trkpt lat="45.13033175228472" lon="7.032706446652007"><ele>658.5</ele><time>2026-04-19T12:15:10Z</time></trkpt><trkpt lat="45.130520098530916" lon="7.033099704828344"><ele>652.0</ele><time>2026-04-19T12:15:11Z</time></trkpt><trkpt lat="45.13069935667786" lon="7.03351417162844"><ele>653.5</ele><time>2026-04-19T12:15:12Z</time></trkpt><trkpt lat="45.13085527334122" lon="7.033927220591715"><ele>655.0</ele><time>2026-04-19T12:15:13Z</time></trkpt><trkpt lat="45.131032280489336" lon="7.034289217192963"><ele>647.0</ele><time>2026-04-19T12:15:14Z</time></trkpt><trkpt lat="45.13116421648445" lon="7.034656977793634"><ele>639.0</ele><time>2026-04-19T12:15:15Z</time></trkpt><trkpt lat="45.131263704483814" lon="7.035072682374774"><ele>634.5</ele><time>2026-04-19T12:15:16Z</time></trkpt><trkpt lat="45.13133825613182" lon="7.035531077723662"><ele>630.0</ele><time>2026-04-19T12:15:17Z</time></trkpt><trkpt lat="45.13138635101116" lon="7.036025545348964"><ele>623.5</ele><time>2026-04-19T12:15:18Z</time></trkpt><trkpt lat="45.13144140273009" lon="7.03654072871219"><ele>617.0</ele><time>2026-04-19T12:15:19Z</time></trkpt><trkpt lat="45.13151180400298" lon="7.037043139922952"><ele>618.5</ele><time>2026-04-19T12:15:20Z</time></trkpt><trkpt lat="45.13157136683557" lon="7.037474809341508"><ele>620.0</ele><time>2026-04-19T12:15:21Z</time></trkpt><trkpt lat="45.131614474867305" lon="7.037829181685599"><ele>620.0</ele><time>2026-04-19T12:15:22Z</time></trkpt><trkpt lat="45.13164979709229" lon="7.038139151940682"><ele>620.0</ele><time>2026-04-19T12:15:23Z</time></trkpt><trkpt lat="45.13166624106921" lon="7.038405594314861"><ele>620.0</ele><time>2026-04-19T12:15:24Z</time></trkpt><trkpt lat="45.131640802249656" lon="7.0386757742528845"><ele>609.5</ele><time>2026-04-19T12:15:25Z</time></trkpt><trkpt lat="45.13153848786758" lon="7.038950131802092"><ele>599.0</ele><time>2026-04-19T12:15:26Z</time></trkpt><trkpt lat="45.13136247234395" lon="7.039171692926278"><ele>598.0</ele><time>2026-04-19T12:15:27Z</time></trkpt><trkpt lat="45.13117327039129" lon="7.039328978630493"><ele>597.0</ele><time>2026-04-19T12:15:28Z</time></trkpt><trkpt lat="45.13102904222382" lon="7.039444542021858"><ele>596.0</ele><time>2026-04-19T12:15:29Z</time></trkpt><trkpt lat="45.130942263810674" lon="7.03965820088297"><ele>596.0</ele><time>2026-04-19T12:15:30Z</time></trkpt><trkpt lat="45.130926581028895" lon="7.039925982535208"><ele>596.0</ele><time>2026-04-19T12:15:31Z</time></trkpt><trkpt lat="45.13099081313605" lon="7.0402028408385515"><ele>596.0</ele><time>2026-04-19T12:15:32Z</time></trkpt><trkpt lat="45.131127830381246" lon="7.040416952352209"><ele>594.6666666666666</ele><time>2026-04-19T12:15:33Z</time></trkpt><trkpt lat="45.1312897636176" lon="7.040538185186998"><ele>593.3333333333334</ele><time>2026-04-19T12:15:34Z</time></trkpt><trkpt lat="45.131493382721104" lon="7.04057391171325"><ele>592.0</ele><time>2026-04-19T12:15:35Z</time></trkpt><trkpt lat="45.13168756195823" lon="7.040496476013083"><ele>598.0</ele><time>2026-04-19T12:15:36Z</time></trkpt><trkpt lat="45.1318823942605" lon="7.040327097858551"><ele>604.0</ele><time>2026-04-19T12:15:37Z</time></trkpt><trkpt lat="45.13206383059864" lon="7.040123366196246"><ele>605.3333333333334</ele><time>2026-04-19T12:15:38Z</time></trkpt><trkpt lat="45.13220330333454" lon="7.039871292296654"><ele>606.6666666666666</ele><time>2026-04-19T12:15:39Z</time></trkpt><trkpt lat="45.13231080950727" lon="7.039636525867169"><ele>608.0</ele><time>2026-04-19T12:15:40Z</time></trkpt><trkpt lat="45.13240210230263" lon="7.039502784804773"><ele>608.6666666666666</ele><time>2026-04-19T12:15:41Z</time></trkpt><trkpt lat="45.132524047008935" lon="7.03943949833434"><ele>609.3333333333334</ele><time>2026-04-19T12:15:42Z</time></trkpt><trkpt lat="45.13269307259451" lon="7.039463951842376"><ele>610.0</ele><time>2026-04-19T12:15:43Z</time></trkpt><trkpt lat="45.1328939471098" lon="7.039583224123774"><ele>610.0</ele><time>2026-04-19T12:15:44Z</time></trkpt><trkpt lat="45.13308523639111" lon="7.039770003625886"><ele>610.0</ele><time>2026-04-19T12:15:45Z</time></trkpt><trkpt lat="45.133235322161404" lon="7.03995614046855"><ele>610.0</ele><time>2026-04-19T12:15:46Z</time></trkpt><trkpt lat="45.1333344823134" lon="7.0401548289043845"><ele>603.3333333333334</ele><time>2026-04-19T12:15:47Z</time></trkpt><trkpt lat="45.13338221015418" lon="7.04040040795212"><ele>596.6666666666666</ele><time>2026-04-19T12:15:48Z</time></trkpt><trkpt lat="45.13336226610818" lon="7.040663091391228"><ele>590.0</ele><time>2026-04-19T12:15:49Z</time></trkpt><trkpt lat="45.13328086724977" lon="7.040901914194365"><ele>586.0</ele><time>2026-04-19T12:15:50Z</time></trkpt><trkpt lat="45.13313694002682" lon="7.041109532058876"><ele>582.0</ele><time>2026-04-19T12:15:51Z</time></trkpt><trkpt lat="45.13295720344015" lon="7.041285195032375"><ele>578.0</ele><time>2026-04-19T12:15:52Z</time></trkpt><trkpt lat="45.13280596569504" lon="7.041507519283792"><ele>573.5</ele><time>2026-04-19T12:15:53Z</time></trkpt><trkpt lat="45.13272280759152" lon="7.0418041969953595"><ele>569.0</ele><time>2026-04-19T12:15:54Z</time></trkpt><trkpt lat="45.132718813432945" lon="7.042159728338199"><ele>563.5</ele><time>2026-04-19T12:15:55Z</time></trkpt><trkpt lat="45.132767861592136" lon="7.0425065940446245"><ele>558.0</ele><time>2026-04-19T12:15:56Z</time></trkpt><trkpt lat="45.13288595983753" lon="7.042859787191509"><ele>558.0</ele><time>2026-04-19T12:15:57Z</time></trkpt><trkpt lat="45.132985672503104" lon="7.043158161624041"><ele>558.0</ele><time>2026-04-19T12:15:58Z</time></trkpt><trkpt lat="45.13303065302055" lon="7.043372065130366"><ele>558.0</ele><time>2026-04-19T12:15:59Z</time></trkpt><trkpt lat="45.133024828036845" lon="7.043548416857026"><ele>556.0</ele><time>2026-04-19T12:16:00Z</time></trkpt><trkpt lat="45.132960025238845" lon="7.043688023251175"><ele>554.0</ele><time>2026-04-19T12:16:01Z</time></trkpt><trkpt lat="45.132841522238834" lon="7.043759478960752"><ele>552.0</ele><time>2026-04-19T12:16:02Z</time></trkpt><trkpt lat="45.132705574985934" lon="7.043739370973616"><ele>550.0</ele><time>2026-04-19T12:16:03Z</time></trkpt><trkpt lat="45.132593656415146" lon="7.043622549054796"><ele>550.0</ele><time>2026-04-19T12:16:04Z</time></trkpt><trkpt lat="45.13252352485476" lon="7.043413996024402"><ele>550.0</ele><time>2026-04-19T12:16:05Z</time></trkpt><trkpt lat="45.13250117668378" lon="7.0431356495606865"><ele>550.0</ele><time>2026-04-19T12:16:06Z</time></trkpt><trkpt lat="45.132499195884876" lon="7.0428237590764455"><ele>552.6666666666667</ele><time>2026-04-19T12:16:07Z</time></trkpt><trkpt lat="45.132469326095176" lon="7.042548617968444"><ele>555.3333333333334</ele><time>2026-04-19T12:16:08Z</time></trkpt><trkpt lat="45.13239001851833" lon="7.042347490452249"><ele>558.0</ele><time>2026-04-19T12:16:09Z</time></trkpt><trkpt lat="45.13224358851854" lon="7.04220323813721"><ele>564.5</ele><time>2026-04-19T12:16:10Z</time></trkpt><trkpt lat="45.13205076248499" lon="7.042142022670728"><ele>571.0</ele><time>2026-04-19T12:16:11Z</time></trkpt><trkpt lat="45.131770308688736" lon="7.042177481113385"><ele>565.5</ele><time>2026-04-19T12:16:12Z</time></trkpt><trkpt lat="45.131508705352495" lon="7.042204181885065"><ele>560.0</ele><time>2026-04-19T12:16:13Z</time></trkpt><trkpt lat="45.13125587580315" lon="7.042128437163283"><ele>560.0</ele><time>2026-04-19T12:16:14Z</time></trkpt><trkpt lat="45.13102289254413" lon="7.042041969998886"><ele>560.0</ele><time>2026-04-19T12:16:15Z</time></trkpt><trkpt lat="45.13081907690163" lon="7.041968026368279"><ele>559.25</ele><time>2026-04-19T12:16:16Z</time></trkpt><trkpt lat="45.13064330490967" lon="7.041907676049633"><ele>558.5</ele><time>2026-04-19T12:16:17Z</time></trkpt><trkpt lat="45.130508126088806" lon="7.041856717321402"><ele>557.75</ele><time>2026-04-19T12:16:18Z</time></trkpt><trkpt lat="45.13041775691379" lon="7.041829586144526"><ele>557.0</ele><time>2026-04-19T12:16:19Z</time></trkpt><trkpt lat="45.13034474227873" lon="7.041846864113595"><ele>557.0</ele><time>2026-04-19T12:16:20Z</time></trkpt><trkpt lat="45.130270187072995" lon="7.041911162476967"><ele>557.0</ele><time>2026-04-19T12:16:21Z</time></trkpt><trkpt lat="45.130204801971004" lon="7.042016146123255"><ele>557.0</ele><time>2026-04-19T12:16:22Z</time></trkpt><trkpt lat="45.13016426160318" lon="7.042170789335113"><ele>557.0</ele><time>2026-04-19T12:16:23Z</time></trkpt><trkpt lat="45.13017534244046" lon="7.042349574171192"><ele>557.0</ele><time>2026-04-19T12:16:24Z</time></trkpt><trkpt lat="45.130241793132456" lon="7.042504052899428"><ele>555.75</ele><time>2026-04-19T12:16:25Z</time></trkpt><trkpt lat="45.130351350535115" lon="7.042598632063466"><ele>554.5</ele><time>2026-04-19T12:16:26Z</time></trkpt><trkpt lat="45.130475784726016" lon="7.042642217889501"><ele>553.25</ele><time>2026-04-19T12:16:27Z</time></trkpt><trkpt lat="45.130601943538025" lon="7.042666458058336"><ele>552.0</ele><time>2026-04-19T12:16:28Z</time></trkpt><trkpt lat="45.13072267398756" lon="7.042710548453922"><ele>550.75</ele><time>2026-04-19T12:16:29Z</time></trkpt><trkpt lat="45.130833468783734" lon="7.042750734912171"><ele>549.5</ele><time>2026-04-19T12:16:30Z</time></trkpt><trkpt lat="45.13094471220106" lon="7.0427924250262794"><ele>548.25</ele><time>2026-04-19T12:16:31Z</time></trkpt><trkpt lat="45.131049160702545" lon="7.042849787093362"><ele>547.0</ele><time>2026-04-19T12:16:32Z</time></trkpt><trkpt lat="45.13113719751576" lon="7.042944020262998"><ele>547.0</ele><time>2026-04-19T12:16:33Z</time></trkpt><trkpt lat="45.131198368713115" lon="7.043076540579975"><ele>547.0</ele><time>2026-04-19T12:16:34Z</time></trkpt><trkpt lat="45.13122424750451" lon="7.043227636926595"><ele>547.0</ele><time>2026-04-19T12:16:35Z</time></trkpt><trkpt lat="45.131224989009354" lon="7.0433847079635115"><ele>547.0</ele><time>2026-04-19T12:16:36Z</time></trkpt><trkpt lat="45.131206112632285" lon="7.043544063796688"><ele>547.0</ele><time>2026-04-19T12:16:37Z</time></trkpt><trkpt lat="45.131185187151026" lon="7.043701726938297"><ele>546.25</ele><time>2026-04-19T12:16:38Z</time></trkpt><trkpt lat="45.13118197509693" lon="7.043856803430035"><ele>545.5</ele><time>2026-04-19T12:16:39Z</time></trkpt><trkpt lat="45.13119987531581" lon="7.044003394211056"><ele>544.75</ele><time>2026-04-19T12:16:40Z</time></trkpt><trkpt lat="45.131235702350615" lon="7.044151245484172"><ele>544.0</ele><time>2026-04-19T12:16:41Z</time></trkpt><trkpt lat="45.13129212142062" lon="7.044315046857978"><ele>542.75</ele><time>2026-04-19T12:16:42Z</time></trkpt><trkpt lat="45.13136884076592" lon="7.044476130803981"><ele>541.5</ele><time>2026-04-19T12:16:43Z</time></trkpt><trkpt lat="45.13145450354848" lon="7.044637917163486"><ele>540.25</ele><time>2026-04-19T12:16:44Z</time></trkpt><trkpt lat="45.13154084150799" lon="7.044816107021843"><ele>539.0</ele><time>2026-04-19T12:16:45Z</time></trkpt><trkpt lat="45.131631824190364" lon="7.045001066271329"><ele>535.6666666666666</ele><time>2026-04-19T12:16:46Z</time></trkpt><trkpt lat="45.13173129584791" lon="7.045178488022193"><ele>532.3333333333334</ele><time>2026-04-19T12:16:47Z</time></trkpt><trkpt lat="45.131845166530915" lon="7.045349809900042"><ele>529.0</ele><time>2026-04-19T12:16:48Z</time></trkpt><trkpt lat="45.13195818295899" lon="7.0455083707363535"><ele>529.0</ele><time>2026-04-19T12:16:49Z</time></trkpt><trkpt lat="45.132069783905365" lon="7.045652174023678"><ele>529.0</ele><time>2026-04-19T12:16:50Z</time></trkpt><trkpt lat="45.1321828524181" lon="7.0457876432311695"><ele>529.0</ele><time>2026-04-19T12:16:51Z</time></trkpt><trkpt lat="45.13229601537136" lon="7.045906787570236"><ele>529.0</ele><time>2026-04-19T12:16:52Z</time></trkpt><trkpt lat="45.13240416197087" lon="7.04603221334609"><ele>527.8</ele><time>2026-04-19T12:16:53Z</time></trkpt><trkpt lat="45.13249403401607" lon="7.0461420010447835"><ele>526.5999999999999</ele><time>2026-04-19T12:16:54Z</time></trkpt><trkpt lat="45.13258138693425" lon="7.0462478441915275"><ele>525.4</ele><time>2026-04-19T12:16:55Z</time></trkpt><trkpt lat="45.13266209850647" lon="7.0463497329906595"><ele>524.1999999999999</ele><time>2026-04-19T12:16:56Z</time></trkpt><trkpt lat="45.13273884029404" lon="7.046451428996608"><ele>523.0</ele><time>2026-04-19T12:16:57Z</time></trkpt><trkpt lat="45.13280547761422" lon="7.046545659557947"><ele>522.6666666666667</ele><time>2026-04-19T12:16:58Z</time></trkpt><trkpt lat="45.13286748709653" lon="7.046636046695905"><ele>522.3333333333334</ele><time>2026-04-19T12:16:59Z</time></trkpt><trkpt lat="45.13292515539541" lon="7.046718534973175"><ele>522.0</ele><time>2026-04-19T12:17:00Z</time></trkpt><trkpt lat="45.132976666956395" lon="7.046788958694679"><ele>521.6666666666666</ele><time>2026-04-19T12:17:01Z</time></trkpt><trkpt lat="45.133048749637545" lon="7.046891966842881"><ele>521.3333333333333</ele><time>2026-04-19T12:17:03Z</time></trkpt><trkpt lat="45.13311551598123" lon="7.046991796592958"><ele>521.0</ele><time>2026-04-19T12:17:26Z</time></trkpt><trkpt lat="45.13316203499335" lon="7.047071283688828"><ele>519.8</ele><time>2026-04-19T12:17:27Z</time></trkpt><trkpt lat="45.13322334450553" lon="7.047172866270082"><ele>518.6</ele><time>2026-04-19T12:17:28Z</time></trkpt><trkpt lat="45.13329933459481" lon="7.047284446788743"><ele>517.4</ele><time>2026-04-19T12:17:29Z</time></trkpt><trkpt lat="45.13336265656899" lon="7.0474102056845425"><ele>516.2</ele><time>2026-04-19T12:17:30Z</time></trkpt><trkpt lat="45.133426906492744" lon="7.047541060570571"><ele>515.0</ele><time>2026-04-19T12:17:31Z</time></trkpt><trkpt lat="45.13349693494169" lon="7.04767517198751"><ele>515.0</ele><time>2026-04-19T12:17:32Z</time></trkpt><trkpt lat="45.13356982413016" lon="7.047820014858771"><ele>515.0</ele><time>2026-04-19T12:17:33Z</time></trkpt><trkpt lat="45.13364226456991" lon="7.047972442181126"><ele>515.0</ele><time>2026-04-19T12:17:34Z</time></trkpt><trkpt lat="45.13371213097023" lon="7.048131026406649"><ele>515.0</ele><time>2026-04-19T12:17:35Z</time></trkpt><trkpt lat="45.133781147381654" lon="7.04829175168549"><ele>515.5</ele><time>2026-04-19T12:17:36Z</time></trkpt><trkpt lat="45.13384906769254" lon="7.048452967471406"><ele>516.0</ele><time>2026-04-19T12:17:37Z</time></trkpt><trkpt lat="45.13391209928302" lon="7.048620388142631"><ele>516.5</ele><time>2026-04-19T12:17:38Z</time></trkpt><trkpt lat="45.13397258738879" lon="7.048787048279332"><ele>517.0</ele><time>2026-04-19T12:17:39Z</time></trkpt><trkpt lat="45.13402990184486" lon="7.048959798614272"><ele>514.5</ele><time>2026-04-19T12:17:40Z</time></trkpt><trkpt lat="45.13409298648924" lon="7.0491358855594655"><ele>512.0</ele><time>2026-04-19T12:17:41Z</time></trkpt><trkpt lat="45.13415421624336" lon="7.049315911281736"><ele>509.5</ele><time>2026-04-19T12:17:42Z</time></trkpt><trkpt lat="45.13421489728692" lon="7.049491211073852"><ele>507.0</ele><time>2026-04-19T12:17:43Z</time></trkpt><trkpt lat="45.13426920321041" lon="7.049656752113521"><ele>507.0</ele><time>2026-04-19T12:17:44Z</time></trkpt><trkpt lat="45.13431641925344" lon="7.049802669964275"><ele>507.00000000000006</ele><time>2026-04-19T12:17:45Z</time></trkpt><trkpt lat="45.13436086269046" lon="7.04993772674931"><ele>507.00000000000006</ele><time>2026-04-19T12:17:46Z</time></trkpt><trkpt lat="45.134402485490895" lon="7.050063076865311"><ele>507.0</ele><time>2026-04-19T12:17:47Z</time></trkpt><trkpt lat="45.1344440951009" lon="7.0501772518483055"><ele>507.0</ele><time>2026-04-19T12:17:48Z</time></trkpt><trkpt lat="45.134490315629186" lon="7.05028406611772"><ele>506.40000000000003</ele><time>2026-04-19T12:17:49Z</time></trkpt><trkpt lat="45.13453780705649" lon="7.050383802140641"><ele>505.80000000000007</ele><time>2026-04-19T12:17:50Z</time></trkpt><trkpt lat="45.1345821888011" lon="7.050506308216647"><ele>505.2</ele><time>2026-04-19T12:17:51Z</time></trkpt><trkpt lat="45.13461283868828" lon="7.0506425611547705"><ele>504.6</ele><time>2026-04-19T12:17:52Z</time></trkpt><trkpt lat="45.13465083380847" lon="7.050760529941876"><ele>504.0</ele><time>2026-04-19T12:17:53Z</time></trkpt><trkpt lat="45.13468882327681" lon="7.050878207253694"><ele>503.6</ele><time>2026-04-19T12:17:54Z</time></trkpt><trkpt lat="45.13472895023435" lon="7.050996767660175"><ele>503.2</ele><time>2026-04-19T12:17:55Z</time></trkpt><trkpt lat="45.13476903558826" lon="7.051114726322094"><ele>502.80000000000007</ele><time>2026-04-19T12:17:56Z</time></trkpt><trkpt lat="45.13480801129681" lon="7.051234832912092"><ele>502.40000000000003</ele><time>2026-04-19T12:17:57Z</time></trkpt><trkpt lat="45.134848368892506" lon="7.051355864216937"><ele>502.0</ele><time>2026-04-19T12:17:58Z</time></trkpt><trkpt lat="45.13488748730553" lon="7.051473540249775"><ele>501.40000000000003</ele><time>2026-04-19T12:17:59Z</time></trkpt><trkpt lat="45.13492143245947" lon="7.0515768959219365"><ele>500.80000000000007</ele><time>2026-04-19T12:18:00Z</time></trkpt><trkpt lat="45.13498611935205" lon="7.051686033167324"><ele>500.2</ele><time>2026-04-19T12:18:02Z</time></trkpt><trkpt lat="45.13507804726315" lon="7.051701624765638"><ele>499.6</ele><time>2026-04-19T12:18:05Z</time></trkpt><trkpt lat="45.13500193172376" lon="7.051519356311276"><ele>499.0</ele><time>2026-04-19T12:18:06Z</time></trkpt><trkpt lat="45.13495880636511" lon="7.051451166523812"><ele>499.0</ele><time>2026-04-19T12:18:07Z</time></trkpt><trkpt lat="45.13490226559951" lon="7.051301203191475"><ele>499.0</ele><time>2026-04-19T12:18:09Z</time></trkpt><trkpt lat="45.13480430445163" lon="7.051174804601805"><ele>499.0</ele><time>2026-04-19T12:18:11Z</time></trkpt><trkpt lat="45.13476273346887" lon="7.051065211221931"><ele>499.0</ele><time>2026-04-19T12:18:12Z</time></trkpt><trkpt lat="45.134728094437996" lon="7.050960285650466"><ele>499.0</ele><time>2026-04-19T12:18:13Z</time></trkpt><trkpt lat="45.13469285300715" lon="7.050854774150197"><ele>500.0</ele><time>2026-04-19T12:18:14Z</time></trkpt><trkpt lat="45.13465242374472" lon="7.050738509812262"><ele>501.0</ele><time>2026-04-19T12:18:15Z</time></trkpt><trkpt lat="45.13460544923295" lon="7.050607121670239"><ele>502.0</ele><time>2026-04-19T12:18:16Z</time></trkpt><trkpt lat="45.134554780467305" lon="7.05046478227659"><ele>503.0</ele><time>2026-04-19T12:18:17Z</time></trkpt><trkpt lat="45.13450240788268" lon="7.050308029460641"><ele>504.0</ele><time>2026-04-19T12:18:18Z</time></trkpt><trkpt lat="45.13444611672798" lon="7.0501423567582115"><ele>504.0</ele><time>2026-04-19T12:18:19Z</time></trkpt><trkpt lat="45.13438976801673" lon="7.049972635623131"><ele>504.0</ele><time>2026-04-19T12:18:20Z</time></trkpt><trkpt lat="45.134331503710555" lon="7.049809878108521"><ele>504.0</ele><time>2026-04-19T12:18:21Z</time></trkpt><trkpt lat="45.13427880874962" lon="7.049651745229245"><ele>504.0</ele><time>2026-04-19T12:18:22Z</time></trkpt><trkpt lat="45.13422495061539" lon="7.049496603202873"><ele>504.75</ele><time>2026-04-19T12:18:23Z</time></trkpt><trkpt lat="45.13417210435809" lon="7.049341386611875"><ele>505.5</ele><time>2026-04-19T12:18:24Z</time></trkpt><trkpt lat="45.13411756993822" lon="7.04918354777753"><ele>506.25</ele><time>2026-04-19T12:18:25Z</time></trkpt><trkpt lat="45.13406389497257" lon="7.049027141111692"><ele>507.0</ele><time>2026-04-19T12:18:26Z</time></trkpt><trkpt lat="45.13400726885925" lon="7.048867530888545"><ele>509.0</ele><time>2026-04-19T12:18:27Z</time></trkpt><trkpt lat="45.133954125428325" lon="7.048707358371091"><ele>511.0</ele><time>2026-04-19T12:18:28Z</time></trkpt><trkpt lat="45.13390088823757" lon="7.048549085138371"><ele>513.0</ele><time>2026-04-19T12:18:29Z</time></trkpt><trkpt lat="45.133842028566164" lon="7.048394171442914"><ele>515.0</ele><time>2026-04-19T12:18:30Z</time></trkpt><trkpt lat="45.133782539293726" lon="7.048247144943116"><ele>515.0</ele><time>2026-04-19T12:18:31Z</time></trkpt><trkpt lat="45.133717764335074" lon="7.0481090882039865"><ele>515.0</ele><time>2026-04-19T12:18:32Z</time></trkpt><trkpt lat="45.13365866126381" lon="7.047975012165594"><ele>515.0</ele><time>2026-04-19T12:18:33Z</time></trkpt><trkpt lat="45.13360371945409" lon="7.04784412209936"><ele>515.0</ele><time>2026-04-19T12:18:34Z</time></trkpt><trkpt lat="45.13354520502563" lon="7.047727722962335"><ele>515.0</ele><time>2026-04-19T12:18:35Z</time></trkpt><trkpt lat="45.13348918843426" lon="7.047629400035196"><ele>515.0</ele><time>2026-04-19T12:18:36Z</time></trkpt><trkpt lat="45.13345887735478" lon="7.047530003499908"><ele>515.0</ele><time>2026-04-19T12:18:37Z</time></trkpt><trkpt lat="45.13342076070794" lon="7.047455364448223"><ele>515.0</ele><time>2026-04-19T12:18:38Z</time></trkpt><trkpt lat="45.13336938529927" lon="7.04735595700225"><ele>515.0</ele><time>2026-04-19T12:18:40Z</time></trkpt><trkpt lat="45.133325968467574" lon="7.047275843907775"><ele>515.0</ele><time>2026-04-19T12:19:18Z</time></trkpt><trkpt lat="45.13323293103761" lon="7.04714148199451"><ele>515.0</ele><time>2026-04-19T12:19:20Z</time></trkpt><trkpt lat="45.133180175890416" lon="7.047016430770381"><ele>516.5</ele><time>2026-04-19T12:19:21Z</time></trkpt><trkpt lat="45.13311336914404" lon="7.04688830061303"><ele>518.0</ele><time>2026-04-19T12:19:22Z</time></trkpt><trkpt lat="45.13301139009068" lon="7.0467421465890805"><ele>519.5</ele><time>2026-04-19T12:19:23Z</time></trkpt><trkpt lat="45.13288340173574" lon="7.0465720938108065"><ele>521.0</ele><time>2026-04-19T12:19:24Z</time></trkpt><trkpt lat="45.13273740517354" lon="7.046383244024223"><ele>521.6666666666666</ele><time>2026-04-19T12:19:25Z</time></trkpt><trkpt lat="45.13258171032582" lon="7.046194380303851"><ele>522.3333333333334</ele><time>2026-04-19T12:19:26Z</time></trkpt><trkpt lat="45.13240040342862" lon="7.045995215925447"><ele>523.0</ele><time>2026-04-19T12:19:27Z</time></trkpt><trkpt lat="45.13223037889677" lon="7.0457713577371806"><ele>525.0</ele><time>2026-04-19T12:19:28Z</time></trkpt><trkpt lat="45.132064484212385" lon="7.045608027877656"><ele>527.0</ele><time>2026-04-19T12:19:29Z</time></trkpt><trkpt lat="45.131919902354355" lon="7.045411672080395"><ele>529.0</ele><time>2026-04-19T12:19:30Z</time></trkpt><trkpt lat="45.13178158396353" lon="7.045192782048369"><ele>531.0</ele><time>2026-04-19T12:19:31Z</time></trkpt><trkpt lat="45.13163866173646" lon="7.044946353446015"><ele>533.0</ele><time>2026-04-19T12:19:32Z</time></trkpt><trkpt lat="45.131513322696435" lon="7.044664784146762"><ele>535.0</ele><time>2026-04-19T12:19:33Z</time></trkpt><trkpt lat="45.131393600957146" lon="7.04441246283438"><ele>537.0</ele><time>2026-04-19T12:19:34Z</time></trkpt><trkpt lat="45.13130129571326" lon="7.044197473100252"><ele>539.0</ele><time>2026-04-19T12:19:35Z</time></trkpt><trkpt lat="45.13123924596032" lon="7.043974014730105"><ele>540.6666666666666</ele><time>2026-04-19T12:19:36Z</time></trkpt><trkpt lat="45.131218061424676" lon="7.043712873366417"><ele>542.3333333333334</ele><time>2026-04-19T12:19:37Z</time></trkpt><trkpt lat="45.131253994938234" lon="7.04343109689126"><ele>544.0</ele><time>2026-04-19T12:19:38Z</time></trkpt><trkpt lat="45.131267462943" lon="7.043191192998554"><ele>545.0</ele><time>2026-04-19T12:19:39Z</time></trkpt><trkpt lat="45.131235764040845" lon="7.04297409036041"><ele>546.0</ele><time>2026-04-19T12:19:40Z</time></trkpt><trkpt lat="45.13111727782329" lon="7.042780390585947"><ele>547.0</ele><time>2026-04-19T12:19:41Z</time></trkpt><trkpt lat="45.13095375486784" lon="7.0426617317854125"><ele>547.0</ele><time>2026-04-19T12:19:42Z</time></trkpt><trkpt lat="45.13074361282117" lon="7.042609891743551"><ele>547.0</ele><time>2026-04-19T12:19:43Z</time></trkpt><trkpt lat="45.130519996620784" lon="7.042587904837088"><ele>547.0</ele><time>2026-04-19T12:19:44Z</time></trkpt><trkpt lat="45.130356144284384" lon="7.042532508852533"><ele>549.5</ele><time>2026-04-19T12:19:45Z</time></trkpt><trkpt lat="45.130247379086335" lon="7.042449102091185"><ele>552.0</ele><time>2026-04-19T12:19:46Z</time></trkpt><trkpt lat="45.130205596166384" lon="7.042305837281914"><ele>554.5</ele><time>2026-04-19T12:19:47Z</time></trkpt><trkpt lat="45.130187775871065" lon="7.042146615875209"><ele>557.0</ele><time>2026-04-19T12:19:48Z</time></trkpt><trkpt lat="45.13025751051331" lon="7.041962298012514"><ele>557.0</ele><time>2026-04-19T12:19:49Z</time></trkpt><trkpt lat="45.130393394451964" lon="7.041858878396212"><ele>557.0</ele><time>2026-04-19T12:19:50Z</time></trkpt><trkpt lat="45.13055006271703" lon="7.041923186311124"><ele>557.0</ele><time>2026-04-19T12:19:51Z</time></trkpt><trkpt lat="45.13075760706769" lon="7.041977995658341"><ele>558.5</ele><time>2026-04-19T12:19:52Z</time></trkpt><trkpt lat="45.131001048584515" lon="7.04209813742291"><ele>560.0</ele><time>2026-04-19T12:19:53Z</time></trkpt><trkpt lat="45.13127269683818" lon="7.042190411576996"><ele>565.5</ele><time>2026-04-19T12:19:54Z</time></trkpt><trkpt lat="45.13156273660006" lon="7.042265938062344"><ele>571.0</ele><time>2026-04-19T12:19:55Z</time></trkpt><trkpt lat="45.13183144199752" lon="7.042294811161997"><ele>571.0</ele><time>2026-04-19T12:19:56Z</time></trkpt><trkpt lat="45.132038845538375" lon="7.0422601246147"><ele>571.0</ele><time>2026-04-19T12:19:57Z</time></trkpt><trkpt lat="45.13219911144092" lon="7.042280374910229"><ele>571.0</ele><time>2026-04-19T12:19:58Z</time></trkpt><trkpt lat="45.13232991614424" lon="7.04239169716851"><ele>566.6666666666667</ele><time>2026-04-19T12:19:59Z</time></trkpt><trkpt lat="45.13242081667962" lon="7.042591821488432"><ele>562.3333333333334</ele><time>2026-04-19T12:20:00Z</time></trkpt><trkpt lat="45.132459707805886" lon="7.042868188871973"><ele>558.0</ele><time>2026-04-19T12:20:01Z</time></trkpt><trkpt lat="45.13249246176977" lon="7.043203352796918"><ele>555.3333333333334</ele><time>2026-04-19T12:20:02Z</time></trkpt><trkpt lat="45.13253395772478" lon="7.043516617850607"><ele>552.6666666666667</ele><time>2026-04-19T12:20:03Z</time></trkpt><trkpt lat="45.132614589521474" lon="7.043700849920447"><ele>550.0</ele><time>2026-04-19T12:20:04Z</time></trkpt><trkpt lat="45.132718652907926" lon="7.043794526530574"><ele>550.0</ele><time>2026-04-19T12:20:05Z</time></trkpt><trkpt lat="45.132861512099026" lon="7.043810638210666"><ele>550.0</ele><time>2026-04-19T12:20:06Z</time></trkpt><trkpt lat="45.132998719679634" lon="7.0437109234761985"><ele>550.0</ele><time>2026-04-19T12:20:07Z</time></trkpt><trkpt lat="45.13308441562814" lon="7.043516566863248"><ele>552.6666666666667</ele><time>2026-04-19T12:20:08Z</time></trkpt><trkpt lat="45.133091141100074" lon="7.0432765729350395"><ele>555.3333333333334</ele><time>2026-04-19T12:20:09Z</time></trkpt><trkpt lat="45.133019172056436" lon="7.0430066716395805"><ele>558.0</ele><time>2026-04-19T12:20:10Z</time></trkpt><trkpt lat="45.13289741878379" lon="7.042702057801426"><ele>563.5</ele><time>2026-04-19T12:20:11Z</time></trkpt><trkpt lat="45.132800122360436" lon="7.042372787357852"><ele>569.0</ele><time>2026-04-19T12:20:12Z</time></trkpt><trkpt lat="45.13277428774506" lon="7.042058224417312"><ele>569.0</ele><time>2026-04-19T12:20:13Z</time></trkpt><trkpt lat="45.13280545772099" lon="7.041750766120286"><ele>569.0</ele><time>2026-04-19T12:20:14Z</time></trkpt><trkpt lat="45.132899322273346" lon="7.041466716692956"><ele>569.0</ele><time>2026-04-19T12:20:15Z</time></trkpt><trkpt lat="45.13303109170752" lon="7.041242895063375"><ele>570.5</ele><time>2026-04-19T12:20:16Z</time></trkpt><trkpt lat="45.13317586164952" lon="7.041069758585251"><ele>572.0</ele><time>2026-04-19T12:20:17Z</time></trkpt><trkpt lat="45.133269692417315" lon="7.040928748151054"><ele>573.5</ele><time>2026-04-19T12:20:18Z</time></trkpt><trkpt lat="45.13333905264598" lon="7.0408371439128405"><ele>575.0</ele><time>2026-04-19T12:20:19Z</time></trkpt><trkpt lat="45.13337929917915" lon="7.040727697658575"><ele>578.75</ele><time>2026-04-19T12:20:20Z</time></trkpt><trkpt lat="45.13340109689413" lon="7.040588399459694"><ele>582.5</ele><time>2026-04-19T12:20:21Z</time></trkpt><trkpt lat="45.133397172173744" lon="7.040433277811547"><ele>586.25</ele><time>2026-04-19T12:20:22Z</time></trkpt><trkpt lat="45.133350728850516" lon="7.0402050455726"><ele>590.0</ele><time>2026-04-19T12:20:23Z</time></trkpt><trkpt lat="45.133285580473824" lon="7.040000172701"><ele>596.6666666666666</ele><time>2026-04-19T12:20:24Z</time></trkpt><trkpt lat="45.133166773207265" lon="7.039839742811319"><ele>603.3333333333334</ele><time>2026-04-19T12:20:25Z</time></trkpt><trkpt lat="45.132994890455784" lon="7.0396945206794586"><ele>610.0</ele><time>2026-04-19T12:20:26Z</time></trkpt><trkpt lat="45.132821487687025" lon="7.039530284934541"><ele>610.0</ele><time>2026-04-19T12:20:27Z</time></trkpt><trkpt lat="45.1326447176273" lon="7.039428451041345"><ele>610.0</ele><time>2026-04-19T12:20:28Z</time></trkpt><trkpt lat="45.13246632763628" lon="7.039442272283513"><ele>610.0</ele><time>2026-04-19T12:20:29Z</time></trkpt><trkpt lat="45.132304285300506" lon="7.039551755149332"><ele>609.3333333333334</ele><time>2026-04-19T12:20:30Z</time></trkpt><trkpt lat="45.13217993273978" lon="7.039767910661625"><ele>608.6666666666666</ele><time>2026-04-19T12:20:31Z</time></trkpt><trkpt lat="45.1320822341685" lon="7.040021806892007"><ele>608.0</ele><time>2026-04-19T12:20:32Z</time></trkpt><trkpt lat="45.131971806668474" lon="7.040217985513739"><ele>606.6666666666666</ele><time>2026-04-19T12:20:33Z</time></trkpt><trkpt lat="45.13182715813291" lon="7.040307489005188"><ele>605.3333333333334</ele><time>2026-04-19T12:20:34Z</time></trkpt><trkpt lat="45.13163735049187" lon="7.04043121523872"><ele>604.0</ele><time>2026-04-19T12:20:35Z</time></trkpt><trkpt lat="45.131461588203386" lon="7.040472265206575"><ele>600.0</ele><time>2026-04-19T12:20:36Z</time></trkpt><trkpt lat="45.13130479924794" lon="7.040436107939893"><ele>596.0</ele><time>2026-04-19T12:20:37Z</time></trkpt><trkpt lat="45.131165622495274" lon="7.040310561574314"><ele>592.0</ele><time>2026-04-19T12:20:38Z</time></trkpt><trkpt lat="45.13106194587545" lon="7.040126023431078"><ele>593.3333333333334</ele><time>2026-04-19T12:20:39Z</time></trkpt><trkpt lat="45.13102450812693" lon="7.039908172975868"><ele>594.6666666666666</ele><time>2026-04-19T12:20:40Z</time></trkpt><trkpt lat="45.131046504010385" lon="7.03966696714292"><ele>596.0</ele><time>2026-04-19T12:20:41Z</time></trkpt><trkpt lat="45.131139366499774" lon="7.039439039082086"><ele>596.0</ele><time>2026-04-19T12:20:42Z</time></trkpt><trkpt lat="45.131290928440066" lon="7.039253192616644"><ele>596.0</ele><time>2026-04-19T12:20:43Z</time></trkpt><trkpt lat="45.131487880228946" lon="7.039112201131973"><ele>596.0</ele><time>2026-04-19T12:20:44Z</time></trkpt><trkpt lat="45.13166300406018" lon="7.038940780709929"><ele>603.0</ele><time>2026-04-19T12:20:45Z</time></trkpt><trkpt lat="45.1317287818797" lon="7.038616117855584"><ele>610.0</ele><time>2026-04-19T12:20:46Z</time></trkpt><trkpt lat="45.13176923374046" lon="7.038286455534963"><ele>615.0</ele><time>2026-04-19T12:20:47Z</time></trkpt><trkpt lat="45.13173928933214" lon="7.037926733631966"><ele>620.0</ele><time>2026-04-19T12:20:48Z</time></trkpt><trkpt lat="45.131659433603375" lon="7.037542856502219"><ele>618.5</ele><time>2026-04-19T12:20:49Z</time></trkpt><trkpt lat="45.13157392209813" lon="7.037053223961988"><ele>617.0</ele><time>2026-04-19T12:20:50Z</time></trkpt><trkpt lat="45.13151027064176" lon="7.036589385822167"><ele>617.0</ele><time>2026-04-19T12:20:51Z</time></trkpt><trkpt lat="45.131454089868384" lon="7.036134404535706"><ele>617.0</ele><time>2026-04-19T12:20:52Z</time></trkpt><trkpt lat="45.1313922041294" lon="7.035644754328125"><ele>623.5</ele><time>2026-04-19T12:20:53Z</time></trkpt><trkpt lat="45.13132868320334" lon="7.0351600707414415"><ele>630.0</ele><time>2026-04-19T12:20:54Z</time></trkpt><trkpt lat="45.13124575343593" lon="7.034715479452147"><ele>634.5</ele><time>2026-04-19T12:20:55Z</time></trkpt><trkpt lat="45.131114909007295" lon="7.034286127525895"><ele>639.0</ele><time>2026-04-19T12:20:56Z</time></trkpt><trkpt lat="45.130935351659716" lon="7.033882284627212"><ele>645.5</ele><time>2026-04-19T12:20:57Z</time></trkpt><trkpt lat="45.130731719234426" lon="7.033499986213849"><ele>652.0</ele><time>2026-04-19T12:20:58Z</time></trkpt><trkpt lat="45.13052698666712" lon="7.033133521598805"><ele>652.0</ele><time>2026-04-19T12:20:59Z</time></trkpt><trkpt lat="45.13037690095742" lon="7.032815828406064"><ele>652.0</ele><time>2026-04-19T12:21:00Z</time></trkpt><trkpt lat="45.13021844188342" lon="7.032483459307034"><ele>658.5</ele><time>2026-04-19T12:21:01Z</time></trkpt><trkpt lat="45.13008842071504" lon="7.032204437363496"><ele>665.0</ele><time>2026-04-19T12:21:02Z</time></trkpt><trkpt lat="45.129954324010484" lon="7.03193398481242"><ele>672.0</ele><time>2026-04-19T12:21:03Z</time></trkpt><trkpt lat="45.12979387944537" lon="7.031645561317501"><ele>679.0</ele><time>2026-04-19T12:21:04Z</time></trkpt><trkpt lat="45.129619264431746" lon="7.031367759686765"><ele>679.0</ele><time>2026-04-19T12:21:05Z</time></trkpt><trkpt lat="45.129447958186084" lon="7.031114404754909"><ele>679.0</ele><time>2026-04-19T12:21:06Z</time></trkpt><trkpt lat="45.12932894082079" lon="7.030918444138088"><ele>679.0</ele><time>2026-04-19T12:21:07Z</time></trkpt><trkpt lat="45.12921476926902" lon="7.030701535682986"><ele>680.0</ele><time>2026-04-19T12:21:08Z</time></trkpt><trkpt lat="45.12914480301446" lon="7.030433745905095"><ele>681.0</ele><time>2026-04-19T12:21:09Z</time></trkpt><trkpt lat="45.129112333010966" lon="7.0301471088177365"><ele>682.0</ele><time>2026-04-19T12:21:10Z</time></trkpt><trkpt lat="45.12913755043709" lon="7.029866150930265"><ele>684.3333333333334</ele><time>2026-04-19T12:21:11Z</time></trkpt><trkpt lat="45.12922239265732" lon="7.029619992497302"><ele>686.6666666666666</ele><time>2026-04-19T12:21:12Z</time></trkpt><trkpt lat="45.12934648030183" lon="7.029344121619231"><ele>689.0</ele><time>2026-04-19T12:21:13Z</time></trkpt><trkpt lat="45.12948197378018" lon="7.029060555412887"><ele>690.0</ele><time>2026-04-19T12:21:14Z</time></trkpt><trkpt lat="45.12958754724285" lon="7.028790905523762"><ele>691.0</ele><time>2026-04-19T12:21:15Z</time></trkpt><trkpt lat="45.12964297345885" lon="7.028502688211105"><ele>692.0</ele><time>2026-04-19T12:21:16Z</time></trkpt><trkpt lat="45.129648855163836" lon="7.028219988403888"><ele>692.75</ele><time>2026-04-19T12:21:17Z</time></trkpt><trkpt lat="45.12964782737468" lon="7.027983383251482"><ele>693.5</ele><time>2026-04-19T12:21:18Z</time></trkpt><trkpt lat="45.12965591594905" lon="7.027781459413175"><ele>694.25</ele><time>2026-04-19T12:21:19Z</time></trkpt><trkpt lat="45.129651967867694" lon="7.027630925123016"><ele>695.0</ele><time>2026-04-19T12:21:20Z</time></trkpt><trkpt lat="45.129648693066" lon="7.027501621819153"><ele>695.0</ele><time>2026-04-19T12:21:21Z</time></trkpt><trkpt lat="45.12950333825765" lon="7.027552809552054"><ele>695.0</ele><time>2026-04-19T12:21:25Z</time></trkpt><trkpt lat="45.12946566661986" lon="7.027628516199301"><ele>695.0</ele><time>2026-04-19T12:21:26Z</time></trkpt><trkpt lat="45.12944743146963" lon="7.027736290273435"><ele>695.0</ele><time>2026-04-19T12:21:27Z</time></trkpt><trkpt lat="45.129446755253205" lon="7.027850352239761"><ele>695.0</ele><time>2026-04-19T12:21:28Z</time></trkpt><trkpt lat="45.129476254135156" lon="7.027971875505478"><ele>695.0</ele><time>2026-04-19T12:21:29Z</time></trkpt><trkpt lat="45.12951024012566" lon="7.028065589867166"><ele>695.0</ele><time>2026-04-19T12:21:30Z</time></trkpt><trkpt lat="45.12952802559845" lon="7.028152091837367"><ele>695.0</ele><time>2026-04-19T12:21:31Z</time></trkpt><trkpt lat="45.12957261912387" lon="7.028298620083751"><ele>695.0</ele><time>2026-04-19T12:21:33Z</time></trkpt><trkpt lat="45.12959723221147" lon="7.028397958205418"><ele>695.0</ele><time>2026-04-19T12:21:34Z</time></trkpt><trkpt lat="45.129572591555885" lon="7.028572469523937"><ele>694.0</ele><time>2026-04-19T12:21:35Z</time></trkpt><trkpt lat="45.12955414617998" lon="7.0287558452411965"><ele>693.0</ele><time>2026-04-19T12:21:36Z</time></trkpt><trkpt lat="45.12950326469702" lon="7.028956729381794"><ele>692.0</ele><time>2026-04-19T12:21:37Z</time></trkpt><trkpt lat="45.12940341547194" lon="7.029169027669381"><ele>691.0</ele><time>2026-04-19T12:21:38Z</time></trkpt><trkpt lat="45.129279664873835" lon="7.029391010552109"><ele>690.0</ele><time>2026-04-19T12:21:39Z</time></trkpt><trkpt lat="45.129169209226006" lon="7.029618134113069"><ele>689.0</ele><time>2026-04-19T12:21:40Z</time></trkpt><trkpt lat="45.12907987270515" lon="7.0298849755698605"><ele>686.6666666666666</ele><time>2026-04-19T12:21:41Z</time></trkpt><trkpt lat="45.12904311387671" lon="7.030183489876882"><ele>684.3333333333334</ele><time>2026-04-19T12:21:42Z</time></trkpt><trkpt lat="45.12908118089879" lon="7.0305069483400455"><ele>682.0</ele><time>2026-04-19T12:21:43Z</time></trkpt><trkpt lat="45.12918706935572" lon="7.030830626288165"><ele>680.5</ele><time>2026-04-19T12:21:44Z</time></trkpt><trkpt lat="45.12936382061455" lon="7.031134561543545"><ele>679.0</ele><time>2026-04-19T12:21:45Z</time></trkpt><trkpt lat="45.12958322532802" lon="7.031419613831335"><ele>680.5</ele><time>2026-04-19T12:21:46Z</time></trkpt><trkpt lat="45.12981692158872" lon="7.031755811874925"><ele>682.0</ele><time>2026-04-19T12:21:47Z</time></trkpt><trkpt lat="45.13003835169133" lon="7.032155793187961"><ele>667.0</ele><time>2026-04-19T12:21:48Z</time></trkpt><trkpt lat="45.130252655837204" lon="7.032596262657322"><ele>652.0</ele><time>2026-04-19T12:21:49Z</time></trkpt><trkpt lat="45.13045755649416" lon="7.033056173413814"><ele>650.5</ele><time>2026-04-19T12:21:50Z</time></trkpt><trkpt lat="45.130655163388774" lon="7.0334372414955855"><ele>649.0</ele><time>2026-04-19T12:21:51Z</time></trkpt><trkpt lat="45.130820854516784" lon="7.03375595180017"><ele>652.0</ele><time>2026-04-19T12:21:52Z</time></trkpt><trkpt lat="45.130944332516016" lon="7.034021964168103"><ele>655.0</ele><time>2026-04-19T12:21:53Z</time></trkpt><trkpt lat="45.13105858139063" lon="7.034314311483431"><ele>647.0</ele><time>2026-04-19T12:21:54Z</time></trkpt><trkpt lat="45.13116342446047" lon="7.03469001386318"><ele>639.0</ele><time>2026-04-19T12:21:55Z</time></trkpt><trkpt lat="45.13126019255693" lon="7.035112771993616"><ele>634.5</ele><time>2026-04-19T12:21:56Z</time></trkpt><trkpt lat="45.131321026548434" lon="7.035574119616385"><ele>630.0</ele><time>2026-04-19T12:21:57Z</time></trkpt><trkpt lat="45.13138070098492" lon="7.036083487718701"><ele>623.5</ele><time>2026-04-19T12:21:58Z</time></trkpt><trkpt lat="45.13144113658147" lon="7.036609013591406"><ele>617.0</ele><time>2026-04-19T12:21:59Z</time></trkpt><trkpt lat="45.131517985508985" lon="7.037113287389809"><ele>618.5</ele><time>2026-04-19T12:22:00Z</time></trkpt><trkpt lat="45.13156605360008" lon="7.037527397056049"><ele>620.0</ele><time>2026-04-19T12:22:01Z</time></trkpt><trkpt lat="45.13161537040736" lon="7.037890278851856"><ele>620.0</ele><time>2026-04-19T12:22:02Z</time></trkpt><trkpt lat="45.13164644923055" lon="7.038166192595761"><ele>620.0</ele><time>2026-04-19T12:22:03Z</time></trkpt><trkpt lat="45.13166150409931" lon="7.038420313198842"><ele>620.0</ele><time>2026-04-19T12:22:04Z</time></trkpt><trkpt lat="45.13163421311246" lon="7.038686870185948"><ele>613.0</ele><time>2026-04-19T12:22:05Z</time></trkpt><trkpt lat="45.131515645367635" lon="7.038935427904727"><ele>606.0</ele><time>2026-04-19T12:22:06Z</time></trkpt><trkpt lat="45.13136361670292" lon="7.039150421012907"><ele>599.0</ele><time>2026-04-19T12:22:07Z</time></trkpt><trkpt lat="45.13120557459132" lon="7.039311453018613"><ele>598.0</ele><time>2026-04-19T12:22:08Z</time></trkpt><trkpt lat="45.13105185735071" lon="7.039458081639728"><ele>597.0</ele><time>2026-04-19T12:22:09Z</time></trkpt><trkpt lat="45.13095745828646" lon="7.03966784960001"><ele>596.0</ele><time>2026-04-19T12:22:10Z</time></trkpt><trkpt lat="45.130932611992954" lon="7.039921769601893"><ele>594.6666666666666</ele><time>2026-04-19T12:22:11Z</time></trkpt><trkpt lat="45.13097848471052" lon="7.040193238682047"><ele>593.3333333333334</ele><time>2026-04-19T12:22:12Z</time></trkpt><trkpt lat="45.131108249051074" lon="7.040423695756372"><ele>592.0</ele><time>2026-04-19T12:22:13Z</time></trkpt><trkpt lat="45.13129381926919" lon="7.040568360884453"><ele>592.0</ele><time>2026-04-19T12:22:14Z</time></trkpt><trkpt lat="45.13149084214695" lon="7.040592955982724"><ele>592.0</ele><time>2026-04-19T12:22:15Z</time></trkpt><trkpt lat="45.13167718977423" lon="7.040507412581869"><ele>592.0</ele><time>2026-04-19T12:22:16Z</time></trkpt><trkpt lat="45.13189580924337" lon="7.040337500173395"><ele>598.0</ele><time>2026-04-19T12:22:17Z</time></trkpt><trkpt lat="45.132091675655175" lon="7.040121392485856"><ele>604.0</ele><time>2026-04-19T12:22:18Z</time></trkpt><trkpt lat="45.13221083739779" lon="7.039874574810546"><ele>605.0</ele><time>2026-04-19T12:22:19Z</time></trkpt><trkpt lat="45.13229981723288" lon="7.039651191750436"><ele>606.0</ele><time>2026-04-19T12:22:20Z</time></trkpt><trkpt lat="45.13239609910883" lon="7.039521843098544"><ele>607.0</ele><time>2026-04-19T12:22:21Z</time></trkpt><trkpt lat="45.13252751678911" lon="7.039476813257813"><ele>608.0</ele><time>2026-04-19T12:22:22Z</time></trkpt><trkpt lat="45.13267719011467" lon="7.039485916289963"><ele>608.6666666666666</ele><time>2026-04-19T12:22:23Z</time></trkpt><trkpt lat="45.13284499294335" lon="7.03960662887284"><ele>609.3333333333334</ele><time>2026-04-19T12:22:24Z</time></trkpt><trkpt lat="45.13305806117417" lon="7.039772664355947"><ele>610.0</ele><time>2026-04-19T12:22:25Z</time></trkpt><trkpt lat="45.133217537586326" lon="7.03994127363531"><ele>603.3333333333334</ele><time>2026-04-19T12:22:26Z</time></trkpt><trkpt lat="45.133329395114366" lon="7.040113881334105"><ele>596.6666666666666</ele><time>2026-04-19T12:22:27Z</time></trkpt><trkpt lat="45.13336377782895" lon="7.04037196880312"><ele>590.0</ele><time>2026-04-19T12:22:28Z</time></trkpt><trkpt lat="45.1333686253725" lon="7.040656995917786"><ele>586.0</ele><time>2026-04-19T12:22:29Z</time></trkpt><trkpt lat="45.13327180026022" lon="7.040886955547864"><ele>582.0</ele><time>2026-04-19T12:22:30Z</time></trkpt><trkpt lat="45.13311582813746" lon="7.041082911135202"><ele>578.0</ele><time>2026-04-19T12:22:31Z</time></trkpt><trkpt lat="45.1329432773982" lon="7.04132363803041"><ele>578.0</ele><time>2026-04-19T12:22:32Z</time></trkpt><trkpt lat="45.13278755665693" lon="7.041556425786764"><ele>578.0</ele><time>2026-04-19T12:22:33Z</time></trkpt><trkpt lat="45.132737855257034" lon="7.041852575238064"><ele>578.0</ele><time>2026-04-19T12:22:34Z</time></trkpt><trkpt lat="45.13271712833434" lon="7.042180532092081"><ele>568.0</ele><time>2026-04-19T12:22:35Z</time></trkpt><trkpt lat="45.13277826723444" lon="7.042532111460888"><ele>558.0</ele><time>2026-04-19T12:22:36Z</time></trkpt><trkpt lat="45.132887858414044" lon="7.042871995473725"><ele>558.0</ele><time>2026-04-19T12:22:37Z</time></trkpt><trkpt lat="45.132963362557916" lon="7.0431382645737886"><ele>558.0</ele><time>2026-04-19T12:22:38Z</time></trkpt><trkpt lat="45.13301867408148" lon="7.043346625131253"><ele>558.0</ele><time>2026-04-19T12:22:39Z</time></trkpt><trkpt lat="45.132997592754045" lon="7.043532252280843"><ele>556.0</ele><time>2026-04-19T12:22:40Z</time></trkpt><trkpt lat="45.13291371430819" lon="7.0436940089716895"><ele>554.0</ele><time>2026-04-19T12:22:41Z</time></trkpt><trkpt lat="45.132782788091205" lon="7.043752329094113"><ele>552.0</ele><time>2026-04-19T12:22:42Z</time></trkpt><trkpt lat="45.13266007494927" lon="7.043715876841126"><ele>550.0</ele><time>2026-04-19T12:22:43Z</time></trkpt><trkpt lat="45.13256733198122" lon="7.043590685467025"><ele>550.0</ele><time>2026-04-19T12:22:44Z</time></trkpt><trkpt lat="45.13254937917194" lon="7.043360668615831"><ele>550.0</ele><time>2026-04-19T12:22:45Z</time></trkpt><trkpt lat="45.13251357508571" lon="7.0430827351166885"><ele>550.0</ele><time>2026-04-19T12:22:46Z</time></trkpt><trkpt lat="45.132482491301666" lon="7.04276532511135"><ele>552.6666666666667</ele><time>2026-04-19T12:22:47Z</time></trkpt><trkpt lat="45.132449661691744" lon="7.042506875839584"><ele>555.3333333333334</ele><time>2026-04-19T12:22:48Z</time></trkpt><trkpt lat="45.13235359542669" lon="7.042319645978743"><ele>558.0</ele><time>2026-04-19T12:22:49Z</time></trkpt><trkpt lat="45.13217489475039" lon="7.042187910829309"><ele>564.5</ele><time>2026-04-19T12:22:50Z</time></trkpt><trkpt lat="45.131962183471884" lon="7.042138956722019"><ele>571.0</ele><time>2026-04-19T12:22:51Z</time></trkpt><trkpt lat="45.131724716269794" lon="7.042184155504581"><ele>565.5</ele><time>2026-04-19T12:22:52Z</time></trkpt><trkpt lat="45.13147399888568" lon="7.042178871674462"><ele>560.0</ele><time>2026-04-19T12:22:53Z</time></trkpt><trkpt lat="45.13119428517534" lon="7.0420910622807815"><ele>560.0</ele><time>2026-04-19T12:22:54Z</time></trkpt><trkpt lat="45.13090204796133" lon="7.041994209701776"><ele>560.0</ele><time>2026-04-19T12:22:55Z</time></trkpt><trkpt lat="45.13066581951253" lon="7.04191509401593"><ele>559.25</ele><time>2026-04-19T12:22:56Z</time></trkpt><trkpt lat="45.13048995790913" lon="7.041851678424836"><ele>558.5</ele><time>2026-04-19T12:22:57Z</time></trkpt><trkpt lat="45.130377668007654" lon="7.04178544290108"><ele>557.75</ele><time>2026-04-19T12:22:58Z</time></trkpt><trkpt lat="45.1302659444104" lon="7.041771896045317"><ele>557.0</ele><time>2026-04-19T12:22:59Z</time></trkpt><trkpt lat="45.1301651017792" lon="7.042050895098107"><ele>557.0</ele><time>2026-04-19T12:23:00Z</time></trkpt><trkpt lat="45.130150763217216" lon="7.0422706504029735"><ele>557.0</ele><time>2026-04-19T12:23:01Z</time></trkpt><trkpt lat="45.13023477171625" lon="7.042499783331624"><ele>557.0</ele><time>2026-04-19T12:23:02Z</time></trkpt><trkpt lat="45.13035903164616" lon="7.042632077832807"><ele>555.3333333333333</ele><time>2026-04-19T12:23:03Z</time></trkpt><trkpt lat="45.130535637360744" lon="7.04267878047632"><ele>553.6666666666666</ele><time>2026-04-19T12:23:04Z</time></trkpt><trkpt lat="45.1307656223028" lon="7.042703119297417"><ele>552.0</ele><time>2026-04-19T12:23:05Z</time></trkpt><trkpt lat="45.13101923237176" lon="7.04280572416899"><ele>550.3333333333334</ele><time>2026-04-19T12:23:06Z</time></trkpt><trkpt lat="45.13117476037759" lon="7.042921003625576"><ele>548.6666666666667</ele><time>2026-04-19T12:23:07Z</time></trkpt><trkpt lat="45.131234152462326" lon="7.0430807587628514"><ele>547.0</ele><time>2026-04-19T12:23:08Z</time></trkpt><trkpt lat="45.131265114110555" lon="7.04330088772099"><ele>546.0</ele><time>2026-04-19T12:23:09Z</time></trkpt><trkpt lat="45.13122851286532" lon="7.043552817372392"><ele>545.0</ele><time>2026-04-19T12:23:10Z</time></trkpt><trkpt lat="45.13119656874151" lon="7.043827132364561"><ele>544.0</ele><time>2026-04-19T12:23:11Z</time></trkpt><trkpt lat="45.13120900603856" lon="7.044112772406463"><ele>542.3333333333334</ele><time>2026-04-19T12:23:12Z</time></trkpt><trkpt lat="45.13129674170314" lon="7.044336838989034"><ele>540.6666666666666</ele><time>2026-04-19T12:23:13Z</time></trkpt><trkpt lat="45.13140460154495" lon="7.044535731200099"><ele>539.0</ele><time>2026-04-19T12:23:14Z</time></trkpt><trkpt lat="45.13149821667484" lon="7.044720917101996"><ele>537.5</ele><time>2026-04-19T12:23:15Z</time></trkpt><trkpt lat="45.13158166814695" lon="7.044884218115929"><ele>536.0</ele><time>2026-04-19T12:23:16Z</time></trkpt><trkpt lat="45.131666419792666" lon="7.045053730553687"><ele>534.5</ele><time>2026-04-19T12:23:17Z</time></trkpt><trkpt lat="45.13175772617736" lon="7.045211354995663"><ele>533.0</ele><time>2026-04-19T12:23:18Z</time></trkpt><trkpt lat="45.13184633767823" lon="7.045361563527098"><ele>532.25</ele><time>2026-04-19T12:23:19Z</time></trkpt><trkpt lat="45.13194150652292" lon="7.045494060031919"><ele>531.5</ele><time>2026-04-19T12:23:20Z</time></trkpt><trkpt lat="45.13203832740386" lon="7.045621192110593"><ele>530.75</ele><time>2026-04-19T12:23:21Z</time></trkpt><trkpt lat="45.132143502950576" lon="7.045743175700198"><ele>530.0</ele><time>2026-04-19T12:23:22Z</time></trkpt><trkpt lat="45.13224668276193" lon="7.045848061014286"><ele>530.0</ele><time>2026-04-19T12:23:23Z</time></trkpt><trkpt lat="45.132331108358294" lon="7.045968836464967"><ele>530.0</ele><time>2026-04-19T12:23:24Z</time></trkpt><trkpt lat="45.13242394044145" lon="7.0460777241522345"><ele>530.0</ele><time>2026-04-19T12:23:25Z</time></trkpt><trkpt lat="45.13251299213425" lon="7.046188015634952"><ele>530.0</ele><time>2026-04-19T12:23:26Z</time></trkpt><trkpt lat="45.13260787306575" lon="7.046306194419215"><ele>528.25</ele><time>2026-04-19T12:23:27Z</time></trkpt><trkpt lat="45.13270085025102" lon="7.046424802359267"><ele>526.5</ele><time>2026-04-19T12:23:28Z</time></trkpt><trkpt lat="45.132800119363495" lon="7.046551141483056"><ele>524.75</ele><time>2026-04-19T12:23:29Z</time></trkpt><trkpt lat="45.13290322699765" lon="7.046682158789288"><ele>523.0</ele><time>2026-04-19T12:23:30Z</time></trkpt><trkpt lat="45.133001443000985" lon="7.046814967070169"><ele>522.5</ele><time>2026-04-19T12:23:31Z</time></trkpt><trkpt lat="45.13309119843802" lon="7.0469589417014795"><ele>522.0</ele><time>2026-04-19T12:23:32Z</time></trkpt><trkpt lat="45.13318426414569" lon="7.047105113549387"><ele>521.5</ele><time>2026-04-19T12:23:33Z</time></trkpt><trkpt lat="45.13327371127812" lon="7.047260034029716"><ele>521.0</ele><time>2026-04-19T12:23:34Z</time></trkpt><trkpt lat="45.133359762082" lon="7.047417353393232"><ele>519.5</ele><time>2026-04-19T12:23:35Z</time></trkpt><trkpt lat="45.13344635315353" lon="7.047569516195684"><ele>518.0</ele><time>2026-04-19T12:23:36Z</time></trkpt><trkpt lat="45.133525262654416" lon="7.047726761373815"><ele>516.5</ele><time>2026-04-19T12:23:37Z</time></trkpt><trkpt lat="45.13359707690831" lon="7.047876056045588"><ele>515.0</ele><time>2026-04-19T12:23:38Z</time></trkpt><trkpt lat="45.13365682004528" lon="7.048020139722427"><ele>515.0</ele><time>2026-04-19T12:23:39Z</time></trkpt><trkpt lat="45.13372104585119" lon="7.048164342563773"><ele>515.0</ele><time>2026-04-19T12:23:40Z</time></trkpt><trkpt lat="45.13378019965019" lon="7.0483073157833225"><ele>515.0</ele><time>2026-04-19T12:23:41Z</time></trkpt><trkpt lat="45.133839498416" lon="7.048445417515446"><ele>515.0</ele><time>2026-04-19T12:23:42Z</time></trkpt><trkpt lat="45.13389551538284" lon="7.048593440009616"><ele>515.4</ele><time>2026-04-19T12:23:43Z</time></trkpt><trkpt lat="45.133950977210404" lon="7.048739728136558"><ele>515.8</ele><time>2026-04-19T12:23:44Z</time></trkpt><trkpt lat="45.13399957716294" lon="7.048882379375697"><ele>516.2</ele><time>2026-04-19T12:23:45Z</time></trkpt><trkpt lat="45.1340447301429" lon="7.049022314034793"><ele>516.6</ele><time>2026-04-19T12:23:46Z</time></trkpt><trkpt lat="45.13409577027317" lon="7.049160838548579"><ele>517.0</ele><time>2026-04-19T12:23:47Z</time></trkpt><trkpt lat="45.13414320708785" lon="7.049305194389526"><ele>514.5</ele><time>2026-04-19T12:23:48Z</time></trkpt><trkpt lat="45.13419314910849" lon="7.049444464492179"><ele>512.0</ele><time>2026-04-19T12:23:49Z</time></trkpt><trkpt lat="45.13424121496773" lon="7.049586356130561"><ele>509.5</ele><time>2026-04-19T12:23:50Z</time></trkpt><trkpt lat="45.13429000859742" lon="7.049734202590766"><ele>507.0</ele><time>2026-04-19T12:23:51Z</time></trkpt><trkpt lat="45.13433809474974" lon="7.0498838663203465"><ele>506.40000000000003</ele><time>2026-04-19T12:23:52Z</time></trkpt><trkpt lat="45.134387027355174" lon="7.050033457584973"><ele>505.80000000000007</ele><time>2026-04-19T12:23:53Z</time></trkpt><trkpt lat="45.1344343472432" lon="7.0501745793148745"><ele>505.2</ele><time>2026-04-19T12:23:54Z</time></trkpt><trkpt lat="45.134483986195754" lon="7.050317632299149"><ele>504.6</ele><time>2026-04-19T12:23:55Z</time></trkpt><trkpt lat="45.13452783587167" lon="7.050452090002043"><ele>504.0</ele><time>2026-04-19T12:23:56Z</time></trkpt><trkpt lat="45.134573513259284" lon="7.050581190281052"><ele>504.0</ele><time>2026-04-19T12:23:57Z</time></trkpt><trkpt lat="45.13461683031173" lon="7.050713505862597"><ele>504.0</ele><time>2026-04-19T12:23:58Z</time></trkpt><trkpt lat="45.13466138269324" lon="7.050843703235287"><ele>504.0</ele><time>2026-04-19T12:23:59Z</time></trkpt><trkpt lat="45.13471012703527" lon="7.050978796402402"><ele>504.0</ele><time>2026-04-19T12:24:00Z</time></trkpt><trkpt lat="45.13475599970466" lon="7.051112089330096"><ele>504.0</ele><time>2026-04-19T12:24:01Z</time></trkpt><trkpt lat="45.13480373930497" lon="7.051250191287116"><ele>503.5</ele><time>2026-04-19T12:24:02Z</time></trkpt><trkpt lat="45.13485343429312" lon="7.0513905433978135"><ele>503.0</ele><time>2026-04-19T12:24:03Z</time></trkpt><trkpt lat="45.13490178647737" lon="7.051538442530263"><ele>502.5</ele><time>2026-04-19T12:24:04Z</time></trkpt><trkpt lat="45.13494988455116" lon="7.0516866098429105"><ele>502.0</ele><time>2026-04-19T12:24:05Z</time></trkpt><trkpt lat="45.13499837200467" lon="7.051843192603649"><ele>501.0</ele><time>2026-04-19T12:24:06Z</time></trkpt><trkpt lat="45.13504653015239" lon="7.051996130041166"><ele>500.0</ele><time>2026-04-19T12:24:07Z</time></trkpt><trkpt lat="45.135100075766736" lon="7.052149654960033"><ele>499.0</ele><time>2026-04-19T12:24:08Z</time></trkpt><trkpt lat="45.13515252783352" lon="7.0523023664910385"><ele>498.0</ele><time>2026-04-19T12:24:09Z</time></trkpt><trkpt lat="45.13520699640775" lon="7.052454213452367"><ele>497.75</ele><time>2026-04-19T12:24:10Z</time></trkpt><trkpt lat="45.13526542511692" lon="7.052609694718671"><ele>497.5</ele><time>2026-04-19T12:24:11Z</time></trkpt><trkpt lat="45.13532301629393" lon="7.052761840227182"><ele>497.25</ele><time>2026-04-19T12:24:12Z</time></trkpt><trkpt lat="45.13538387759612" lon="7.0529145166337806"><ele>497.0</ele><time>2026-04-19T12:24:13Z</time></trkpt><trkpt lat="45.13544934508206" lon="7.053067292250774"><ele>497.0</ele><time>2026-04-19T12:24:14Z</time></trkpt><trkpt lat="45.135515587394586" lon="7.053214472996277"><ele>497.0</ele><time>2026-04-19T12:24:15Z</time></trkpt><trkpt lat="45.13558083914145" lon="7.053365046281171"><ele>497.0</ele><time>2026-04-19T12:24:16Z</time></trkpt><trkpt lat="45.135651151876935" lon="7.0535231600080515"><ele>497.0</ele><time>2026-04-19T12:24:17Z</time></trkpt><trkpt lat="45.13572253326198" lon="7.0536812146652625"><ele>497.0</ele><time>2026-04-19T12:24:18Z</time></trkpt><trkpt lat="45.13578624126955" lon="7.053850478832177"><ele>497.0</ele><time>2026-04-19T12:24:19Z</time></trkpt><trkpt lat="45.13585167722408" lon="7.0540230060721365"><ele>497.0</ele><time>2026-04-19T12:24:20Z</time></trkpt><trkpt lat="45.1359177661984" lon="7.054197256986719"><ele>497.0</ele><time>2026-04-19T12:24:21Z</time></trkpt><trkpt lat="45.13597689566216" lon="7.054369159763894"><ele>497.0</ele><time>2026-04-19T12:24:22Z</time></trkpt><trkpt lat="45.13602419111062" lon="7.05455567168375"><ele>497.0</ele><time>2026-04-19T12:24:23Z</time></trkpt><trkpt lat="45.13606065180095" lon="7.054742586831532"><ele>497.0</ele><time>2026-04-19T12:24:24Z</time></trkpt><trkpt lat="45.13606753221871" lon="7.054927521663101"><ele>497.0</ele><time>2026-04-19T12:24:25Z</time></trkpt><trkpt lat="45.136053134333174" lon="7.055113639909351"><ele>497.25</ele><time>2026-04-19T12:24:26Z</time></trkpt><trkpt lat="45.13602811436158" lon="7.055295652835331"><ele>497.5</ele><time>2026-04-19T12:24:27Z</time></trkpt><trkpt lat="45.13599623852473" lon="7.055481599806143"><ele>497.75</ele><time>2026-04-19T12:24:28Z</time></trkpt><trkpt lat="45.13596079048711" lon="7.0556764387154445"><ele>498.0</ele><time>2026-04-19T12:24:29Z</time></trkpt><trkpt lat="45.13589334296542" lon="7.055869553803104"><ele>495.66666666666663</ele><time>2026-04-19T12:24:30Z</time></trkpt><trkpt lat="45.13582432427861" lon="7.056080275907038"><ele>493.3333333333333</ele><time>2026-04-19T12:24:31Z</time></trkpt><trkpt lat="45.13576467891912" lon="7.056303902223234"><ele>491.0</ele><time>2026-04-19T12:24:32Z</time></trkpt><trkpt lat="45.135691650052834" lon="7.056527795297842"><ele>490.66666666666663</ele><time>2026-04-19T12:24:33Z</time></trkpt><trkpt lat="45.1356229048203" lon="7.056726345574226"><ele>490.33333333333337</ele><time>2026-04-19T12:24:34Z</time></trkpt><trkpt lat="45.13554697062526" lon="7.056910615605174"><ele>490.0</ele><time>2026-04-19T12:24:35Z</time></trkpt><trkpt lat="45.13547438081166" lon="7.057091632143005"><ele>490.0</ele><time>2026-04-19T12:24:36Z</time></trkpt><trkpt lat="45.13540098612321" lon="7.057275538165491"><ele>490.0</ele><time>2026-04-19T12:24:37Z</time></trkpt><trkpt lat="45.13532652704171" lon="7.057453206740159"><ele>490.0</ele><time>2026-04-19T12:24:38Z</time></trkpt><trkpt lat="45.13525264782843" lon="7.057627856819244"><ele>490.0</ele><time>2026-04-19T12:24:39Z</time></trkpt><trkpt lat="45.135182288804984" lon="7.057800231401812"><ele>489.75</ele><time>2026-04-19T12:24:40Z</time></trkpt><trkpt lat="45.13511591085204" lon="7.057963082541397"><ele>489.5</ele><time>2026-04-19T12:24:41Z</time></trkpt><trkpt lat="45.13505002124395" lon="7.058120819530094"><ele>489.25</ele><time>2026-04-19T12:24:42Z</time></trkpt><trkpt lat="45.134991335085175" lon="7.058270519956029"><ele>489.0</ele><time>2026-04-19T12:24:43Z</time></trkpt><trkpt lat="45.13493275483091" lon="7.058427051021381"><ele>488.79999999999995</ele><time>2026-04-19T12:24:44Z</time></trkpt><trkpt lat="45.134876575739845" lon="7.058584077451742"><ele>488.59999999999997</ele><time>2026-04-19T12:24:45Z</time></trkpt><trkpt lat="45.134829481576" lon="7.0587261131156644"><ele>488.4</ele><time>2026-04-19T12:24:46Z</time></trkpt><trkpt lat="45.134781738374535" lon="7.058861540205529"><ele>488.2</ele><time>2026-04-19T12:24:47Z</time></trkpt><trkpt lat="45.13474140828437" lon="7.058976537268048"><ele>488.0</ele><time>2026-04-19T12:24:48Z</time></trkpt><trkpt lat="45.13470613154669" lon="7.059069858485954"><ele>488.0</ele><time>2026-04-19T12:24:49Z</time></trkpt><trkpt lat="45.13465473063803" lon="7.059220692583487"><ele>487.99999999999994</ele><time>2026-04-19T12:24:51Z</time></trkpt><trkpt lat="45.134622983739966" lon="7.0593497658563225"><ele>487.99999999999994</ele><time>2026-04-19T12:24:53Z</time></trkpt><trkpt lat="45.134592706670155" lon="7.059464007754754"><ele>488.0</ele><time>2026-04-19T12:24:55Z</time></trkpt><trkpt lat="45.134548652372075" lon="7.059586959766663"><ele>488.0</ele><time>2026-04-19T12:24:57Z</time></trkpt><trkpt lat="45.13451666268391" lon="7.0596712808486854"><ele>488.0</ele><time>2026-04-19T12:24:58Z</time></trkpt><trkpt lat="45.13447673545797" lon="7.05978602746688"><ele>487.99999999999994</ele><time>2026-04-19T12:24:59Z</time></trkpt><trkpt lat="45.134435963637735" lon="7.059900622515458"><ele>487.99999999999994</ele><time>2026-04-19T12:25:00Z</time></trkpt><trkpt lat="45.13438930076409" lon="7.060029093939666"><ele>488.0</ele><time>2026-04-19T12:25:01Z</time></trkpt><trkpt lat="45.134328355274135" lon="7.060167890606941"><ele>488.0</ele><time>2026-04-19T12:25:02Z</time></trkpt><trkpt lat="45.134255905653895" lon="7.060326640561138"><ele>487.66666666666663</ele><time>2026-04-19T12:25:03Z</time></trkpt><trkpt lat="45.134186473680366" lon="7.0605136685024"><ele>487.33333333333337</ele><time>2026-04-19T12:25:04Z</time></trkpt><trkpt lat="45.134111314136426" lon="7.060725785022373"><ele>487.0</ele><time>2026-04-19T12:25:05Z</time></trkpt><trkpt lat="45.134031777381175" lon="7.060938255959234"><ele>486.0</ele><time>2026-04-19T12:25:06Z</time></trkpt><trkpt lat="45.133951136526285" lon="7.061163791020699"><ele>485.0</ele><time>2026-04-19T12:25:07Z</time></trkpt><trkpt lat="45.13386791136334" lon="7.06140190506426"><ele>484.0</ele><time>2026-04-19T12:25:08Z</time></trkpt><trkpt lat="45.133777883007376" lon="7.061654269524021"><ele>484.0</ele><time>2026-04-19T12:25:09Z</time></trkpt><trkpt lat="45.13368243231491" lon="7.061916401540918"><ele>484.0</ele><time>2026-04-19T12:25:10Z</time></trkpt><trkpt lat="45.13358455404487" lon="7.062190899923753"><ele>484.0</ele><time>2026-04-19T12:25:11Z</time></trkpt><trkpt lat="45.13348448085171" lon="7.062471692986871"><ele>484.0</ele><time>2026-04-19T12:25:12Z</time></trkpt><trkpt lat="45.133379323730125" lon="7.062768386887547"><ele>484.0</ele><time>2026-04-19T12:25:13Z</time></trkpt><trkpt lat="45.13327647655104" lon="7.063061034074913"><ele>485.0</ele><time>2026-04-19T12:25:14Z</time></trkpt><trkpt lat="45.13317401162114" lon="7.063348996324159"><ele>486.0</ele><time>2026-04-19T12:25:15Z</time></trkpt><trkpt lat="45.13306974832937" lon="7.0636447421790125"><ele>486.0</ele><time>2026-04-19T12:25:16Z</time></trkpt><trkpt lat="45.132963899137955" lon="7.063935673326869"><ele>486.0</ele><time>2026-04-19T12:25:17Z</time></trkpt><trkpt lat="45.13286799428135" lon="7.064233975987564"><ele>485.5</ele><time>2026-04-19T12:25:18Z</time></trkpt><trkpt lat="45.132795335499644" lon="7.064558415639045"><ele>485.0</ele><time>2026-04-19T12:25:19Z</time></trkpt><trkpt lat="45.132761714127184" lon="7.0649036093769695"><ele>485.0</ele><time>2026-04-19T12:25:20Z</time></trkpt><trkpt lat="45.13275556135901" lon="7.065262376777247"><ele>485.0</ele><time>2026-04-19T12:25:21Z</time></trkpt><trkpt lat="45.13276274781893" lon="7.0656293005573705"><ele>486.0</ele><time>2026-04-19T12:25:22Z</time></trkpt><trkpt lat="45.13277037787587" lon="7.065997130963612"><ele>487.0</ele><time>2026-04-19T12:25:23Z</time></trkpt><trkpt lat="45.13276979927957" lon="7.066357280214542"><ele>486.5</ele><time>2026-04-19T12:25:24Z</time></trkpt><trkpt lat="45.13277083226986" lon="7.066699546592188"><ele>486.0</ele><time>2026-04-19T12:25:25Z</time></trkpt><trkpt lat="45.132770233028126" lon="7.067035921961191"><ele>486.0</ele><time>2026-04-19T12:25:26Z</time></trkpt><trkpt lat="45.13277020917666" lon="7.067378333962397"><ele>486.0</ele><time>2026-04-19T12:25:27Z</time></trkpt><trkpt lat="45.132769806696274" lon="7.067720973303195"><ele>484.5</ele><time>2026-04-19T12:25:28Z</time></trkpt><trkpt lat="45.13276955830568" lon="7.068065577469265"><ele>483.0</ele><time>2026-04-19T12:25:29Z</time></trkpt><trkpt lat="45.13277005297598" lon="7.06841097847034"><ele>481.5</ele><time>2026-04-19T12:25:30Z</time></trkpt><trkpt lat="45.132770879718" lon="7.068751616873437"><ele>480.0</ele><time>2026-04-19T12:25:31Z</time></trkpt><trkpt lat="45.13277242085246" lon="7.069101132711151"><ele>479.5</ele><time>2026-04-19T12:25:32Z</time></trkpt><trkpt lat="45.13277160531404" lon="7.069457635856447"><ele>479.0</ele><time>2026-04-19T12:25:33Z</time></trkpt><trkpt lat="45.132768873654086" lon="7.0698226141235585"><ele>478.5</ele><time>2026-04-19T12:25:34Z</time></trkpt><trkpt lat="45.132767775884496" lon="7.070195267397123"><ele>478.0</ele><time>2026-04-19T12:25:35Z</time></trkpt><trkpt lat="45.13276745256676" lon="7.070561670714248"><ele>478.5</ele><time>2026-04-19T12:25:36Z</time></trkpt><trkpt lat="45.132766758241125" lon="7.070897836767563"><ele>479.0</ele><time>2026-04-19T12:25:37Z</time></trkpt><trkpt lat="45.13276341298429" lon="7.071214560020609"><ele>479.0</ele><time>2026-04-19T12:25:38Z</time></trkpt><trkpt lat="45.13276235483254" lon="7.071525851788177"><ele>479.0</ele><time>2026-04-19T12:25:39Z</time></trkpt><trkpt lat="45.132760013685605" lon="7.071859482939843"><ele>478.0</ele><time>2026-04-19T12:25:40Z</time></trkpt><trkpt lat="45.13275773149269" lon="7.072205668039913"><ele>477.0</ele><time>2026-04-19T12:25:41Z</time></trkpt><trkpt lat="45.13275795659192" lon="7.072555980269673"><ele>476.5</ele><time>2026-04-19T12:25:42Z</time></trkpt><trkpt lat="45.13276290578979" lon="7.07291274877144"><ele>476.0</ele><time>2026-04-19T12:25:43Z</time></trkpt><trkpt lat="45.132774421002885" lon="7.073274475669967"><ele>476.0</ele><time>2026-04-19T12:25:44Z</time></trkpt><trkpt lat="45.13278166280792" lon="7.073639301543208"><ele>476.0</ele><time>2026-04-19T12:25:45Z</time></trkpt><trkpt lat="45.13278617207897" lon="7.07400090331534"><ele>476.0</ele><time>2026-04-19T12:25:46Z</time></trkpt><trkpt lat="45.13279625777528" lon="7.074365880599757"><ele>476.0</ele><time>2026-04-19T12:25:47Z</time></trkpt><trkpt lat="45.13282231807347" lon="7.074729568284459"><ele>476.0</ele><time>2026-04-19T12:25:48Z</time></trkpt><trkpt lat="45.132872981083096" lon="7.075103285922871"><ele>476.0</ele><time>2026-04-19T12:25:49Z</time></trkpt><trkpt lat="45.13294235623577" lon="7.075468550621562"><ele>474.5</ele><time>2026-04-19T12:25:50Z</time></trkpt><trkpt lat="45.13301457365108" lon="7.075856394999181"><ele>473.0</ele><time>2026-04-19T12:25:51Z</time></trkpt><trkpt lat="45.13306250563305" lon="7.076241676867659"><ele>473.0</ele><time>2026-04-19T12:25:52Z</time></trkpt><trkpt lat="45.13317657785388" lon="7.0766156971042005"><ele>473.0</ele><time>2026-04-19T12:25:53Z</time></trkpt><trkpt lat="45.13325868928403" lon="7.076999946751469"><ele>473.0</ele><time>2026-04-19T12:25:54Z</time></trkpt><trkpt lat="45.133338850087455" lon="7.077386492255547"><ele>473.0</ele><time>2026-04-19T12:25:55Z</time></trkpt><trkpt lat="45.13341769826487" lon="7.0777726808263965"><ele>473.5</ele><time>2026-04-19T12:25:56Z</time></trkpt><trkpt lat="45.13349905724264" lon="7.078155210132075"><ele>474.0</ele><time>2026-04-19T12:25:57Z</time></trkpt><trkpt lat="45.13358024254899" lon="7.0785373113452765"><ele>474.5</ele><time>2026-04-19T12:25:58Z</time></trkpt><trkpt lat="45.13365888947992" lon="7.078902873832042"><ele>475.0</ele><time>2026-04-19T12:25:59Z</time></trkpt><trkpt lat="45.13373659961318" lon="7.079248712878002"><ele>475.5</ele><time>2026-04-19T12:26:00Z</time></trkpt><trkpt lat="45.133808558199114" lon="7.079595365850667"><ele>476.0</ele><time>2026-04-19T12:26:01Z</time></trkpt><trkpt lat="45.13388882990654" lon="7.079951114099272"><ele>476.5</ele><time>2026-04-19T12:26:02Z</time></trkpt><trkpt lat="45.13397772784457" lon="7.080305749415551"><ele>477.0</ele><time>2026-04-19T12:26:03Z</time></trkpt><trkpt lat="45.13407372926995" lon="7.080654156531526"><ele>476.0</ele><time>2026-04-19T12:26:04Z</time></trkpt><trkpt lat="45.13417905834568" lon="7.0809993290375965"><ele>475.0</ele><time>2026-04-19T12:26:05Z</time></trkpt><trkpt lat="45.13428224090891" lon="7.081337111676609"><ele>476.5</ele><time>2026-04-19T12:26:06Z</time></trkpt><trkpt lat="45.13437994519419" lon="7.081671730418051"><ele>478.0</ele><time>2026-04-19T12:26:07Z</time></trkpt><trkpt lat="45.13447082684935" lon="7.081983193533493"><ele>478.0</ele><time>2026-04-19T12:26:08Z</time></trkpt><trkpt lat="45.13455309473575" lon="7.082276288888012"><ele>478.0</ele><time>2026-04-19T12:26:09Z</time></trkpt><trkpt lat="45.13462186170323" lon="7.08254453654052"><ele>478.0</ele><time>2026-04-19T12:26:10Z</time></trkpt><trkpt lat="45.13468236051743" lon="7.08279446588554"><ele>478.33333333333337</ele><time>2026-04-19T12:26:11Z</time></trkpt><trkpt lat="45.13473572100803" lon="7.083024397998343"><ele>478.66666666666663</ele><time>2026-04-19T12:26:12Z</time></trkpt><trkpt lat="45.13478109221258" lon="7.083240900506486"><ele>479.0</ele><time>2026-04-19T12:26:13Z</time></trkpt><trkpt lat="45.134819682374626" lon="7.083449147129717"><ele>479.25</ele><time>2026-04-19T12:26:14Z</time></trkpt><trkpt lat="45.13485396147096" lon="7.0836612619637656"><ele>479.5</ele><time>2026-04-19T12:26:15Z</time></trkpt><trkpt lat="45.13488264307029" lon="7.083868310020337"><ele>479.75</ele><time>2026-04-19T12:26:16Z</time></trkpt><trkpt lat="45.13490236289156" lon="7.084074840758456"><ele>480.0</ele><time>2026-04-19T12:26:17Z</time></trkpt><trkpt lat="45.1349227901873" lon="7.084288248187348"><ele>479.0</ele><time>2026-04-19T12:26:18Z</time></trkpt><trkpt lat="45.134940304482875" lon="7.084505010534262"><ele>478.0</ele><time>2026-04-19T12:26:19Z</time></trkpt><trkpt lat="45.13495347219807" lon="7.084719536724946"><ele>477.0</ele><time>2026-04-19T12:26:20Z</time></trkpt><trkpt lat="45.13495979901493" lon="7.084926184142904"><ele>476.33333333333337</ele><time>2026-04-19T12:26:21Z</time></trkpt><trkpt lat="45.134960082434276" lon="7.0851381607948065"><ele>475.6666666666667</ele><time>2026-04-19T12:26:22Z</time></trkpt><trkpt lat="45.13495551483921" lon="7.085370298329599"><ele>475.0</ele><time>2026-04-19T12:26:23Z</time></trkpt><trkpt lat="45.13494500215315" lon="7.0856129459730015"><ele>474.6666666666667</ele><time>2026-04-19T12:26:24Z</time></trkpt><trkpt lat="45.134931264470794" lon="7.085868216280036"><ele>474.33333333333337</ele><time>2026-04-19T12:26:25Z</time></trkpt><trkpt lat="45.134912257754564" lon="7.086135329046919"><ele>474.0</ele><time>2026-04-19T12:26:26Z</time></trkpt><trkpt lat="45.134891774859376" lon="7.086408379560799"><ele>474.33333333333337</ele><time>2026-04-19T12:26:27Z</time></trkpt><trkpt lat="45.13486969379142" lon="7.086704700319065"><ele>474.6666666666667</ele><time>2026-04-19T12:26:28Z</time></trkpt><trkpt lat="45.13484458606845" lon="7.08701373971657"><ele>475.0</ele><time>2026-04-19T12:26:29Z</time></trkpt><trkpt lat="45.13481908608949" lon="7.087327370324171"><ele>475.5</ele><time>2026-04-19T12:26:30Z</time></trkpt><trkpt lat="45.134795247090985" lon="7.0876501314976466"><ele>476.0</ele><time>2026-04-19T12:26:31Z</time></trkpt><trkpt lat="45.134767920817715" lon="7.087987483883342"><ele>475.5</ele><time>2026-04-19T12:26:32Z</time></trkpt><trkpt lat="45.13473979222694" lon="7.088335773981439"><ele>475.0</ele><time>2026-04-19T12:26:33Z</time></trkpt><trkpt lat="45.13470983574909" lon="7.088692035303919"><ele>475.0</ele><time>2026-04-19T12:26:34Z</time></trkpt><trkpt lat="45.13467937060143" lon="7.0890432971225605"><ele>475.0</ele><time>2026-04-19T12:26:35Z</time></trkpt><trkpt lat="45.13464606690732" lon="7.089410286068501"><ele>474.0</ele><time>2026-04-19T12:26:36Z</time></trkpt><trkpt lat="45.1346137787864" lon="7.089789324597877"><ele>473.0</ele><time>2026-04-19T12:26:37Z</time></trkpt><trkpt lat="45.13458288401878" lon="7.090175683958641"><ele>473.0</ele><time>2026-04-19T12:26:38Z</time></trkpt><trkpt lat="45.13455056515399" lon="7.090566117915716"><ele>473.0</ele><time>2026-04-19T12:26:39Z</time></trkpt><trkpt lat="45.1345197738071" lon="7.090954169254228"><ele>471.5</ele><time>2026-04-19T12:26:40Z</time></trkpt><trkpt lat="45.1344883770202" lon="7.091337620326374"><ele>470.0</ele><time>2026-04-19T12:26:41Z</time></trkpt><trkpt lat="45.134457093291566" lon="7.091705105856517"><ele>469.5</ele><time>2026-04-19T12:26:42Z</time></trkpt><trkpt lat="45.13442781232064" lon="7.092045287746032"><ele>469.0</ele><time>2026-04-19T12:26:43Z</time></trkpt><trkpt lat="45.134401844707746" lon="7.092369042096132"><ele>469.0</ele><time>2026-04-19T12:26:44Z</time></trkpt><trkpt lat="45.13437356668746" lon="7.0926881762843985"><ele>469.0</ele><time>2026-04-19T12:26:45Z</time></trkpt><trkpt lat="45.134346833439245" lon="7.092989663571722"><ele>469.0</ele><time>2026-04-19T12:26:46Z</time></trkpt><trkpt lat="45.13431503751071" lon="7.093291428539702"><ele>469.33333333333337</ele><time>2026-04-19T12:26:47Z</time></trkpt><trkpt lat="45.134269704063804" lon="7.093595680055181"><ele>469.66666666666663</ele><time>2026-04-19T12:26:48Z</time></trkpt><trkpt lat="45.13421780296465" lon="7.093897541134395"><ele>470.0</ele><time>2026-04-19T12:26:49Z</time></trkpt><trkpt lat="45.134151198476964" lon="7.094209229604793"><ele>470.0</ele><time>2026-04-19T12:26:50Z</time></trkpt><trkpt lat="45.134071911181174" lon="7.094524675766897"><ele>470.0</ele><time>2026-04-19T12:26:51Z</time></trkpt><trkpt lat="45.13397850309299" lon="7.094839791500287"><ele>470.0</ele><time>2026-04-19T12:26:52Z</time></trkpt><trkpt lat="45.13387231213985" lon="7.095152897080651"><ele>470.0</ele><time>2026-04-19T12:26:53Z</time></trkpt><trkpt lat="45.13376294889061" lon="7.095447557662759"><ele>470.0</ele><time>2026-04-19T12:26:54Z</time></trkpt><trkpt lat="45.13365579178728" lon="7.095718749167446"><ele>470.0</ele><time>2026-04-19T12:26:55Z</time></trkpt><trkpt lat="45.13355269590053" lon="7.095982291469386"><ele>470.0</ele><time>2026-04-19T12:26:56Z</time></trkpt><trkpt lat="45.1334526938816" lon="7.0962439624996465"><ele>469.66666666666663</ele><time>2026-04-19T12:26:57Z</time></trkpt><trkpt lat="45.13335161839561" lon="7.0965010428169135"><ele>469.33333333333337</ele><time>2026-04-19T12:26:58Z</time></trkpt><trkpt lat="45.13325731526544" lon="7.096768247368675"><ele>469.0</ele><time>2026-04-19T12:26:59Z</time></trkpt><trkpt lat="45.133178456376136" lon="7.097055148155201"><ele>469.0</ele><time>2026-04-19T12:27:00Z</time></trkpt><trkpt lat="45.13311465173879" lon="7.09740070907813"><ele>469.0</ele><time>2026-04-19T12:27:01Z</time></trkpt><trkpt lat="45.13306042393536" lon="7.097800968924071"><ele>468.0</ele><time>2026-04-19T12:27:02Z</time></trkpt><trkpt lat="45.13300067001073" lon="7.098219563516339"><ele>467.0</ele><time>2026-04-19T12:27:03Z</time></trkpt><trkpt lat="45.132932272918666" lon="7.098635118360846"><ele>466.0</ele><time>2026-04-19T12:27:04Z</time></trkpt><trkpt lat="45.13285518516136" lon="7.09905841514202"><ele>465.0</ele><time>2026-04-19T12:27:05Z</time></trkpt><trkpt lat="45.132766561925635" lon="7.099482081844814"><ele>464.5</ele><time>2026-04-19T12:27:06Z</time></trkpt><trkpt lat="45.13265661622825" lon="7.0999078862459895"><ele>464.0</ele><time>2026-04-19T12:27:07Z</time></trkpt><trkpt lat="45.13253633511275" lon="7.100331005147543"><ele>463.5</ele><time>2026-04-19T12:27:08Z</time></trkpt><trkpt lat="45.13241876297236" lon="7.100762676021953"><ele>463.0</ele><time>2026-04-19T12:27:09Z</time></trkpt><trkpt lat="45.13231963756021" lon="7.10119897122173"><ele>462.5</ele><time>2026-04-19T12:27:10Z</time></trkpt><trkpt lat="45.13224755720228" lon="7.10164038818733"><ele>462.0</ele><time>2026-04-19T12:27:11Z</time></trkpt><trkpt lat="45.132193660088866" lon="7.102085407766252"><ele>461.0</ele><time>2026-04-19T12:27:12Z</time></trkpt><trkpt lat="45.132164494323035" lon="7.102533409600886"><ele>460.0</ele><time>2026-04-19T12:27:13Z</time></trkpt><trkpt lat="45.132159976565404" lon="7.1029867020726885"><ele>460.0</ele><time>2026-04-19T12:27:14Z</time></trkpt><trkpt lat="45.132174470305436" lon="7.103449162958241"><ele>460.0</ele><time>2026-04-19T12:27:15Z</time></trkpt><trkpt lat="45.13220690400119" lon="7.103917203384007"><ele>459.0</ele><time>2026-04-19T12:27:16Z</time></trkpt><trkpt lat="45.132221534880664" lon="7.104369650160435"><ele>458.0</ele><time>2026-04-19T12:27:17Z</time></trkpt><trkpt lat="45.13222101936107" lon="7.104815937011039"><ele>457.0</ele><time>2026-04-19T12:27:18Z</time></trkpt><trkpt lat="45.13220184712616" lon="7.1052644134321685"><ele>456.0</ele><time>2026-04-19T12:27:19Z</time></trkpt><trkpt lat="45.132160911360494" lon="7.105718382589867"><ele>455.5</ele><time>2026-04-19T12:27:20Z</time></trkpt><trkpt lat="45.13210130852119" lon="7.106160507823983"><ele>455.0</ele><time>2026-04-19T12:27:21Z</time></trkpt><trkpt lat="45.13203623520636" lon="7.1066065006206"><ele>455.0</ele><time>2026-04-19T12:27:22Z</time></trkpt><trkpt lat="45.131969241606114" lon="7.107058689993735"><ele>455.0</ele><time>2026-04-19T12:27:23Z</time></trkpt><trkpt lat="45.13190384765525" lon="7.107489049498148"><ele>455.0</ele><time>2026-04-19T12:27:24Z</time></trkpt><trkpt lat="45.13184105719977" lon="7.10789048478954"><ele>455.0</ele><time>2026-04-19T12:27:25Z</time></trkpt><trkpt lat="45.131797914192546" lon="7.108268030036801"><ele>456.0</ele><time>2026-04-19T12:27:26Z</time></trkpt><trkpt lat="45.13180085763524" lon="7.108670972471206"><ele>457.0</ele><time>2026-04-19T12:27:27Z</time></trkpt><trkpt lat="45.13185343937102" lon="7.109102519852314"><ele>458.0</ele><time>2026-04-19T12:27:28Z</time></trkpt><trkpt lat="45.13192165175655" lon="7.109546774236665"><ele>459.0</ele><time>2026-04-19T12:27:29Z</time></trkpt><trkpt lat="45.13198491526341" lon="7.1099926590720015"><ele>459.0</ele><time>2026-04-19T12:27:30Z</time></trkpt><trkpt lat="45.1320432347262" lon="7.110432584124057"><ele>459.0</ele><time>2026-04-19T12:27:31Z</time></trkpt><trkpt lat="45.13209716858087" lon="7.110849316017754"><ele>459.5</ele><time>2026-04-19T12:27:32Z</time></trkpt><trkpt lat="45.13214484329401" lon="7.111241450673749"><ele>460.0</ele><time>2026-04-19T12:27:33Z</time></trkpt><trkpt lat="45.13219494089608" lon="7.111638923712334"><ele>460.0</ele><time>2026-04-19T12:27:34Z</time></trkpt><trkpt lat="45.132245903205856" lon="7.112042915225216"><ele>460.0</ele><time>2026-04-19T12:27:35Z</time></trkpt><trkpt lat="45.132294505133146" lon="7.1124467389759385"><ele>460.5</ele><time>2026-04-19T12:27:36Z</time></trkpt><trkpt lat="45.13235146741693" lon="7.112880447417816"><ele>461.0</ele><time>2026-04-19T12:27:37Z</time></trkpt><trkpt lat="45.132408093951206" lon="7.1133114324998425"><ele>458.5</ele><time>2026-04-19T12:27:38Z</time></trkpt><trkpt lat="45.13246306493622" lon="7.113746323696175"><ele>456.0</ele><time>2026-04-19T12:27:39Z</time></trkpt><trkpt lat="45.13251489592856" lon="7.114175394515517"><ele>455.5</ele><time>2026-04-19T12:27:40Z</time></trkpt><trkpt lat="45.132569717309515" lon="7.114595269416935"><ele>455.0</ele><time>2026-04-19T12:27:41Z</time></trkpt><trkpt lat="45.13261467804516" lon="7.114983192888821"><ele>454.0</ele><time>2026-04-19T12:27:42Z</time></trkpt><trkpt lat="45.13264176459843" lon="7.115381033462753"><ele>453.0</ele><time>2026-04-19T12:27:43Z</time></trkpt><trkpt lat="45.13262991788451" lon="7.115784722686144"><ele>452.0</ele><time>2026-04-19T12:27:44Z</time></trkpt><trkpt lat="45.132569084739615" lon="7.1161824691200355"><ele>451.0</ele><time>2026-04-19T12:27:45Z</time></trkpt><trkpt lat="45.1324635519105" lon="7.116561999555247"><ele>451.0</ele><time>2026-04-19T12:27:46Z</time></trkpt><trkpt lat="45.132338876343574" lon="7.116934808038149"><ele>451.0</ele><time>2026-04-19T12:27:47Z</time></trkpt><trkpt lat="45.132207995435074" lon="7.117308926585643"><ele>450.5</ele><time>2026-04-19T12:27:48Z</time></trkpt><trkpt lat="45.13208729563776" lon="7.117670287990363"><ele>450.0</ele><time>2026-04-19T12:27:49Z</time></trkpt><trkpt lat="45.131993229992105" lon="7.118011985221434"><ele>449.5</ele><time>2026-04-19T12:27:50Z</time></trkpt><trkpt lat="45.13194870765774" lon="7.118367260669471"><ele>449.0</ele><time>2026-04-19T12:27:51Z</time></trkpt><trkpt lat="45.13193947052214" lon="7.118747807152468"><ele>448.5</ele><time>2026-04-19T12:27:52Z</time></trkpt><trkpt lat="45.13194797858067" lon="7.119144525421127"><ele>448.0</ele><time>2026-04-19T12:27:53Z</time></trkpt><trkpt lat="45.131954269056656" lon="7.119564901667067"><ele>448.0</ele><time>2026-04-19T12:27:54Z</time></trkpt><trkpt lat="45.131946924926574" lon="7.119984089560736"><ele>448.0</ele><time>2026-04-19T12:27:55Z</time></trkpt><trkpt lat="45.13192825776568" lon="7.12041284857431"><ele>448.0</ele><time>2026-04-19T12:27:56Z</time></trkpt><trkpt lat="45.131903090301904" lon="7.1208479723110365"><ele>448.0</ele><time>2026-04-19T12:27:57Z</time></trkpt><trkpt lat="45.131856618395524" lon="7.121287012842078"><ele>447.5</ele><time>2026-04-19T12:27:58Z</time></trkpt><trkpt lat="45.131790188216115" lon="7.12171819417328"><ele>447.0</ele><time>2026-04-19T12:27:59Z</time></trkpt><trkpt lat="45.13171228416919" lon="7.122147488420708"><ele>446.0</ele><time>2026-04-19T12:28:00Z</time></trkpt><trkpt lat="45.131642437218204" lon="7.122559126381932"><ele>445.0</ele><time>2026-04-19T12:28:01Z</time></trkpt><trkpt lat="45.13157835446764" lon="7.1229385263427965"><ele>446.0</ele><time>2026-04-19T12:28:02Z</time></trkpt><trkpt lat="45.13151677294488" lon="7.123294852218554"><ele>447.0</ele><time>2026-04-19T12:28:03Z</time></trkpt><trkpt lat="45.13147523478736" lon="7.123658001847752"><ele>447.0</ele><time>2026-04-19T12:28:04Z</time></trkpt><trkpt lat="45.131475797231644" lon="7.124045086073269"><ele>447.0</ele><time>2026-04-19T12:28:05Z</time></trkpt><trkpt lat="45.131544583675755" lon="7.124430928916305"><ele>447.5</ele><time>2026-04-19T12:28:06Z</time></trkpt><trkpt lat="45.131671155299465" lon="7.124797507587888"><ele>448.0</ele><time>2026-04-19T12:28:07Z</time></trkpt><trkpt lat="45.131847629406494" lon="7.125124683954436"><ele>448.0</ele><time>2026-04-19T12:28:08Z</time></trkpt><trkpt lat="45.13205025703863" lon="7.125401281722822"><ele>448.0</ele><time>2026-04-19T12:28:09Z</time></trkpt><trkpt lat="45.13223281859575" lon="7.125637219133113"><ele>447.6666666666667</ele><time>2026-04-19T12:28:10Z</time></trkpt><trkpt lat="45.132380785613215" lon="7.125858929222758"><ele>447.33333333333337</ele><time>2026-04-19T12:28:11Z</time></trkpt><trkpt lat="45.132486034613905" lon="7.126084012917666"><ele>447.0</ele><time>2026-04-19T12:28:12Z</time></trkpt><trkpt lat="45.13255898722017" lon="7.126323952204177"><ele>448.0</ele><time>2026-04-19T12:28:13Z</time></trkpt><trkpt lat="45.1326263789281" lon="7.126562949588899"><ele>449.0</ele><time>2026-04-19T12:28:14Z</time></trkpt><trkpt lat="45.13270964462483" lon="7.1267585632617925"><ele>450.0</ele><time>2026-04-19T12:28:15Z</time></trkpt><trkpt lat="45.132800942298296" lon="7.126946543585502"><ele>450.0</ele><time>2026-04-19T12:28:16Z</time></trkpt><trkpt lat="45.13288601474959" lon="7.127108285833228"><ele>450.0</ele><time>2026-04-19T12:28:17Z</time></trkpt><trkpt lat="45.132946341319965" lon="7.127315523293275"><ele>450.0</ele><time>2026-04-19T12:28:18Z</time></trkpt><trkpt lat="45.13299374375311" lon="7.127529372303998"><ele>451.33333333333337</ele><time>2026-04-19T12:28:19Z</time></trkpt><trkpt lat="45.13302975341477" lon="7.12773155135477"><ele>452.6666666666667</ele><time>2026-04-19T12:28:20Z</time></trkpt><trkpt lat="45.133075809731416" lon="7.127939775724752"><ele>454.0</ele><time>2026-04-19T12:28:21Z</time></trkpt><trkpt lat="45.133108830576575" lon="7.1281606601656495"><ele>455.0</ele><time>2026-04-19T12:28:22Z</time></trkpt><trkpt lat="45.13313081706724" lon="7.128382532988994"><ele>456.0</ele><time>2026-04-19T12:28:23Z</time></trkpt><trkpt lat="45.13314433593534" lon="7.1286069613614655"><ele>457.0</ele><time>2026-04-19T12:28:24Z</time></trkpt><trkpt lat="45.13315527833139" lon="7.128837230832825"><ele>455.6666666666667</ele><time>2026-04-19T12:28:25Z</time></trkpt><trkpt lat="45.13316293504882" lon="7.129071621081098"><ele>454.33333333333337</ele><time>2026-04-19T12:28:26Z</time></trkpt><trkpt lat="45.13316837796362" lon="7.129282399839867"><ele>453.0</ele><time>2026-04-19T12:28:27Z</time></trkpt><trkpt lat="45.1331711774788" lon="7.129477445758406"><ele>453.0</ele><time>2026-04-19T12:28:28Z</time></trkpt><trkpt lat="45.133174657017484" lon="7.129658842320061"><ele>453.0</ele><time>2026-04-19T12:28:29Z</time></trkpt><trkpt lat="45.13318170594057" lon="7.1298330392944615"><ele>453.0</ele><time>2026-04-19T12:28:30Z</time></trkpt><trkpt lat="45.133184733182574" lon="7.130006132180754"><ele>453.0</ele><time>2026-04-19T12:28:31Z</time></trkpt><trkpt lat="45.133189291136475" lon="7.130175600739098"><ele>451.25</ele><time>2026-04-19T12:28:32Z</time></trkpt><trkpt lat="45.13319415559794" lon="7.130341418385134"><ele>449.5</ele><time>2026-04-19T12:28:33Z</time></trkpt><trkpt lat="45.13319980142868" lon="7.130502359933125"><ele>447.75</ele><time>2026-04-19T12:28:34Z</time></trkpt><trkpt lat="45.133204716550225" lon="7.130668442396477"><ele>446.0</ele><time>2026-04-19T12:28:35Z</time></trkpt><trkpt lat="45.13320880192857" lon="7.130835294834062"><ele>446.0</ele><time>2026-04-19T12:28:36Z</time></trkpt><trkpt lat="45.13321430334236" lon="7.131002700024048"><ele>446.0</ele><time>2026-04-19T12:28:37Z</time></trkpt><trkpt lat="45.13321993270073" lon="7.131178946853478"><ele>446.0</ele><time>2026-04-19T12:28:38Z</time></trkpt><trkpt lat="45.13322479445982" lon="7.131361524112431"><ele>446.0</ele><time>2026-04-19T12:28:39Z</time></trkpt><trkpt lat="45.13323050857336" lon="7.131555976965451"><ele>445.25</ele><time>2026-04-19T12:28:40Z</time></trkpt><trkpt lat="45.13323718610455" lon="7.131752589997777"><ele>444.5</ele><time>2026-04-19T12:28:41Z</time></trkpt><trkpt lat="45.13324244591952" lon="7.131945626117193"><ele>443.75</ele><time>2026-04-19T12:28:42Z</time></trkpt><trkpt lat="45.133246086635666" lon="7.132140232087701"><ele>443.0</ele><time>2026-04-19T12:28:43Z</time></trkpt><trkpt lat="45.13325451501472" lon="7.132338629536704"><ele>444.3333333333333</ele><time>2026-04-19T12:28:44Z</time></trkpt><trkpt lat="45.13326801781405" lon="7.132550393145159"><ele>445.66666666666663</ele><time>2026-04-19T12:28:45Z</time></trkpt><trkpt lat="45.13328853997939" lon="7.132772619712049"><ele>447.0</ele><time>2026-04-19T12:28:46Z</time></trkpt><trkpt lat="45.133320014022104" lon="7.133003946611682"><ele>448.33333333333337</ele><time>2026-04-19T12:28:47Z</time></trkpt><trkpt lat="45.1333637568636" lon="7.133244023265294"><ele>449.6666666666667</ele><time>2026-04-19T12:28:48Z</time></trkpt><trkpt lat="45.1334190419395" lon="7.133493959373384"><ele>451.0</ele><time>2026-04-19T12:28:49Z</time></trkpt><trkpt lat="45.133484406380134" lon="7.133742996711797"><ele>451.0</ele><time>2026-04-19T12:28:50Z</time></trkpt><trkpt lat="45.13355667603278" lon="7.133995990824453"><ele>451.0</ele><time>2026-04-19T12:28:51Z</time></trkpt><trkpt lat="45.13363599821822" lon="7.134249131566809"><ele>451.0</ele><time>2026-04-19T12:28:52Z</time></trkpt><trkpt lat="45.133716221760196" lon="7.134507931301213"><ele>451.0</ele><time>2026-04-19T12:28:53Z</time></trkpt><trkpt lat="45.13379683384632" lon="7.134777735200005"><ele>451.0</ele><time>2026-04-19T12:28:54Z</time></trkpt><trkpt lat="45.13387692980284" lon="7.135052832397534"><ele>451.0</ele><time>2026-04-19T12:28:55Z</time></trkpt><trkpt lat="45.13395528691444" lon="7.135321061149296"><ele>451.33333333333337</ele><time>2026-04-19T12:28:56Z</time></trkpt><trkpt lat="45.13403643519498" lon="7.135578328425189"><ele>451.66666666666663</ele><time>2026-04-19T12:28:57Z</time></trkpt><trkpt lat="45.134115705158194" lon="7.1358389518880205"><ele>452.0</ele><time>2026-04-19T12:28:58Z</time></trkpt><trkpt lat="45.13419301754808" lon="7.136094084443176"><ele>452.3333333333333</ele><time>2026-04-19T12:28:59Z</time></trkpt><trkpt lat="45.13426692698702" lon="7.136341655994551"><ele>452.66666666666663</ele><time>2026-04-19T12:29:00Z</time></trkpt><trkpt lat="45.13434391888814" lon="7.136596595433354"><ele>453.0</ele><time>2026-04-19T12:29:01Z</time></trkpt><trkpt lat="45.13442316257336" lon="7.13685762966143"><ele>453.0</ele><time>2026-04-19T12:29:02Z</time></trkpt><trkpt lat="45.13450452123902" lon="7.137120485601277"><ele>453.0</ele><time>2026-04-19T12:29:03Z</time></trkpt><trkpt lat="45.134583803416206" lon="7.137384207892286"><ele>453.0</ele><time>2026-04-19T12:29:04Z</time></trkpt><trkpt lat="45.13466220091066" lon="7.13764826314733"><ele>452.33333333333337</ele><time>2026-04-19T12:29:05Z</time></trkpt><trkpt lat="45.134742156896394" lon="7.137918357230014"><ele>451.6666666666667</ele><time>2026-04-19T12:29:06Z</time></trkpt><trkpt lat="45.13481606879692" lon="7.138180223116813"><ele>451.0</ele><time>2026-04-19T12:29:07Z</time></trkpt><trkpt lat="45.13488818941753" lon="7.138427767945044"><ele>451.0</ele><time>2026-04-19T12:29:08Z</time></trkpt><trkpt lat="45.134956814356435" lon="7.138661082067147"><ele>451.0</ele><time>2026-04-19T12:29:09Z</time></trkpt><trkpt lat="45.135023627888295" lon="7.13888364056618"><ele>451.0</ele><time>2026-04-19T12:29:10Z</time></trkpt><trkpt lat="45.13508879251193" lon="7.139089932890148"><ele>451.6666666666667</ele><time>2026-04-19T12:29:11Z</time></trkpt><trkpt lat="45.13514593856591" lon="7.139291235764695"><ele>452.33333333333337</ele><time>2026-04-19T12:29:12Z</time></trkpt><trkpt lat="45.13519783163766" lon="7.1394941818018856"><ele>453.0</ele><time>2026-04-19T12:29:13Z</time></trkpt><trkpt lat="45.13524946193572" lon="7.139702621551319"><ele>453.0</ele><time>2026-04-19T12:29:14Z</time></trkpt><trkpt lat="45.13529193252254" lon="7.1399020585761495"><ele>453.0</ele><time>2026-04-19T12:29:15Z</time></trkpt><trkpt lat="45.135332666704784" lon="7.140094018213294"><ele>453.0</ele><time>2026-04-19T12:29:16Z</time></trkpt><trkpt lat="45.13537292446474" lon="7.140288046824256"><ele>453.0</ele><time>2026-04-19T12:29:17Z</time></trkpt><trkpt lat="45.13541111461352" lon="7.140498079148319"><ele>453.0</ele><time>2026-04-19T12:29:18Z</time></trkpt><trkpt lat="45.13544887586548" lon="7.140737368263841"><ele>453.0</ele><time>2026-04-19T12:29:19Z</time></trkpt><trkpt lat="45.13548444578037" lon="7.140997058183791"><ele>453.0</ele><time>2026-04-19T12:29:20Z</time></trkpt><trkpt lat="45.13551752017295" lon="7.141278012876139"><ele>452.66666666666663</ele><time>2026-04-19T12:29:21Z</time></trkpt><trkpt lat="45.13554906304692" lon="7.141574557110797"><ele>452.3333333333333</ele><time>2026-04-19T12:29:22Z</time></trkpt><trkpt lat="45.13558832089242" lon="7.14188400646317"><ele>452.0</ele><time>2026-04-19T12:29:23Z</time></trkpt><trkpt lat="45.135630279577164" lon="7.142200676616213"><ele>452.0</ele><time>2026-04-19T12:29:24Z</time></trkpt><trkpt lat="45.13567325966689" lon="7.142517132346381"><ele>452.0</ele><time>2026-04-19T12:29:25Z</time></trkpt><trkpt lat="45.13571679078863" lon="7.1428307750145885"><ele>451.3333333333333</ele><time>2026-04-19T12:29:26Z</time></trkpt><trkpt lat="45.13575563809283" lon="7.143145119199965"><ele>450.66666666666663</ele><time>2026-04-19T12:29:27Z</time></trkpt><trkpt lat="45.1357755953561" lon="7.1434543163352595"><ele>450.0</ele><time>2026-04-19T12:29:28Z</time></trkpt><trkpt lat="45.1357732484503" lon="7.143778623588902"><ele>450.0</ele><time>2026-04-19T12:29:29Z</time></trkpt><trkpt lat="45.135758746157876" lon="7.144098467843976"><ele>450.0</ele><time>2026-04-19T12:29:30Z</time></trkpt><trkpt lat="45.13574407332245" lon="7.144391017377492"><ele>450.0</ele><time>2026-04-19T12:29:31Z</time></trkpt><trkpt lat="45.13572971222312" lon="7.144665272189246"><ele>451.0</ele><time>2026-04-19T12:29:32Z</time></trkpt><trkpt lat="45.13571757443328" lon="7.144927636781366"><ele>452.0</ele><time>2026-04-19T12:29:33Z</time></trkpt><trkpt lat="45.13570356407342" lon="7.145168410244745"><ele>453.0</ele><time>2026-04-19T12:29:34Z</time></trkpt><trkpt lat="45.13569195478795" lon="7.14539738839669"><ele>453.0</ele><time>2026-04-19T12:29:35Z</time></trkpt><trkpt lat="45.13568190032317" lon="7.1456092110435785"><ele>453.0</ele><time>2026-04-19T12:29:36Z</time></trkpt><trkpt lat="45.1356720729121" lon="7.145797828579748"><ele>453.0</ele><time>2026-04-19T12:29:37Z</time></trkpt><trkpt lat="45.1356581483641" lon="7.145959475325694"><ele>453.0</ele><time>2026-04-19T12:29:38Z</time></trkpt><trkpt lat="45.13563414852112" lon="7.146100852278264"><ele>453.0</ele><time>2026-04-19T12:29:39Z</time></trkpt><trkpt lat="45.135595671574244" lon="7.14623066037104"><ele>452.99999999999994</ele><time>2026-04-19T12:29:40Z</time></trkpt><trkpt lat="45.13559273068526" lon="7.1463479720705685"><ele>452.99999999999994</ele><time>2026-04-19T12:29:41Z</time></trkpt><trkpt lat="45.13558759889337" lon="7.146474913747693"><ele>453.0</ele><time>2026-04-19T12:29:42Z</time></trkpt><trkpt lat="45.13557919000346" lon="7.146617805797498"><ele>453.0</ele><time>2026-04-19T12:29:43Z</time></trkpt><trkpt lat="45.1355789980633" lon="7.1467902063411355"><ele>452.0</ele><time>2026-04-19T12:29:44Z</time></trkpt><trkpt lat="45.13561051374883" lon="7.146996568123223"><ele>451.0</ele><time>2026-04-19T12:29:45Z</time></trkpt><trkpt lat="45.1356124115359" lon="7.147229253523341"><ele>450.0</ele><time>2026-04-19T12:29:46Z</time></trkpt><trkpt lat="45.13559813236024" lon="7.147467558335446"><ele>449.66666666666663</ele><time>2026-04-19T12:29:47Z</time></trkpt><trkpt lat="45.13557939293697" lon="7.147729734342149"><ele>449.3333333333333</ele><time>2026-04-19T12:29:48Z</time></trkpt><trkpt lat="45.13556211383104" lon="7.148011422953953"><ele>449.0</ele><time>2026-04-19T12:29:49Z</time></trkpt><trkpt lat="45.13554706451764" lon="7.148308904420881"><ele>447.66666666666663</ele><time>2026-04-19T12:29:50Z</time></trkpt><trkpt lat="45.135535330210445" lon="7.148608961215961"><ele>446.33333333333337</ele><time>2026-04-19T12:29:51Z</time></trkpt><trkpt lat="45.13551752431523" lon="7.148915462402329"><ele>445.0</ele><time>2026-04-19T12:29:52Z</time></trkpt><trkpt lat="45.135500835626004" lon="7.149228530036945"><ele>444.5</ele><time>2026-04-19T12:29:53Z</time></trkpt><trkpt lat="45.13548938153298" lon="7.149555026637587"><ele>444.0</ele><time>2026-04-19T12:29:54Z</time></trkpt><trkpt lat="45.13547815486721" lon="7.149892954511436"><ele>443.5</ele><time>2026-04-19T12:29:55Z</time></trkpt><trkpt lat="45.13546344024883" lon="7.150237240899817"><ele>443.0</ele><time>2026-04-19T12:29:56Z</time></trkpt><trkpt lat="45.13544668495465" lon="7.1505811951161835"><ele>443.0</ele><time>2026-04-19T12:29:57Z</time></trkpt><trkpt lat="45.135432284308415" lon="7.150909002627186"><ele>443.0</ele><time>2026-04-19T12:29:58Z</time></trkpt><trkpt lat="45.13541822074055" lon="7.151213645705838"><ele>443.0</ele><time>2026-04-19T12:29:59Z</time></trkpt><trkpt lat="45.13540344082775" lon="7.151498399084912"><ele>442.0</ele><time>2026-04-19T12:30:00Z</time></trkpt><trkpt lat="45.135383892785754" lon="7.151750658151813"><ele>441.0</ele><time>2026-04-19T12:30:01Z</time></trkpt><trkpt lat="45.1353559054189" lon="7.151957905579794"><ele>440.0</ele><time>2026-04-19T12:30:02Z</time></trkpt><trkpt lat="45.13531155323666" lon="7.152135245662926"><ele>440.0</ele><time>2026-04-19T12:30:03Z</time></trkpt><trkpt lat="45.13522535737539" lon="7.15227470640842"><ele>440.0</ele><time>2026-04-19T12:30:04Z</time></trkpt><trkpt lat="45.135146617580375" lon="7.15239467356513"><ele>440.0</ele><time>2026-04-19T12:30:05Z</time></trkpt><trkpt lat="45.135145532304364" lon="7.152535519970134"><ele>440.0</ele><time>2026-04-19T12:30:06Z</time></trkpt><trkpt lat="45.135206467729525" lon="7.15269061601396"><ele>439.66666666666663</ele><time>2026-04-19T12:30:07Z</time></trkpt><trkpt lat="45.135283224111134" lon="7.1528565903682555"><ele>439.33333333333337</ele><time>2026-04-19T12:30:08Z</time></trkpt><trkpt lat="45.13531687360404" lon="7.153089044458707"><ele>439.0</ele><time>2026-04-19T12:30:09Z</time></trkpt><trkpt lat="45.13530304882284" lon="7.153361562915644"><ele>438.6666666666667</ele><time>2026-04-19T12:30:10Z</time></trkpt><trkpt lat="45.13526027987647" lon="7.153665384625294"><ele>438.33333333333337</ele><time>2026-04-19T12:30:11Z</time></trkpt><trkpt lat="45.13521135327871" lon="7.1539527371967"><ele>438.0</ele><time>2026-04-19T12:30:12Z</time></trkpt><trkpt lat="45.13514659347004" lon="7.154245685579593"><ele>438.0</ele><time>2026-04-19T12:30:13Z</time></trkpt><trkpt lat="45.13506505006387" lon="7.154527386426514"><ele>438.0</ele><time>2026-04-19T12:30:14Z</time></trkpt><trkpt lat="45.13496081739552" lon="7.154820900625811"><ele>438.0</ele><time>2026-04-19T12:30:15Z</time></trkpt><trkpt lat="45.13484911362004" lon="7.155116931136793"><ele>438.0</ele><time>2026-04-19T12:30:16Z</time></trkpt><trkpt lat="45.134737129455594" lon="7.155415567574292"><ele>438.0</ele><time>2026-04-19T12:30:17Z</time></trkpt><trkpt lat="45.13461816328186" lon="7.1557220161218"><ele>438.0</ele><time>2026-04-19T12:30:18Z</time></trkpt><trkpt lat="45.1344935046533" lon="7.156038884149192"><ele>438.0</ele><time>2026-04-19T12:30:19Z</time></trkpt><trkpt lat="45.134363940691586" lon="7.1563592740842354"><ele>437.5</ele><time>2026-04-19T12:30:20Z</time></trkpt><trkpt lat="45.134237392754926" lon="7.156674818030656"><ele>437.0</ele><time>2026-04-19T12:30:21Z</time></trkpt><trkpt lat="45.134111195793196" lon="7.156996740525079"><ele>437.0</ele><time>2026-04-19T12:30:22Z</time></trkpt><trkpt lat="45.13398723607095" lon="7.157322127207943"><ele>437.0</ele><time>2026-04-19T12:30:23Z</time></trkpt><trkpt lat="45.13386677296163" lon="7.157651356071797"><ele>437.0</ele><time>2026-04-19T12:30:24Z</time></trkpt><trkpt lat="45.13375859318633" lon="7.157986346525406"><ele>437.0</ele><time>2026-04-19T12:30:25Z</time></trkpt><trkpt lat="45.133659036092645" lon="7.1583352599929695"><ele>436.5</ele><time>2026-04-19T12:30:26Z</time></trkpt><trkpt lat="45.13356781847278" lon="7.158684016714453"><ele>436.0</ele><time>2026-04-19T12:30:27Z</time></trkpt><trkpt lat="45.133489180761316" lon="7.15903709679882"><ele>436.0</ele><time>2026-04-19T12:30:28Z</time></trkpt><trkpt lat="45.13340378324539" lon="7.159394205109359"><ele>436.0</ele><time>2026-04-19T12:30:29Z</time></trkpt><trkpt lat="45.13331192754805" lon="7.1597458506237155"><ele>435.0</ele><time>2026-04-19T12:30:30Z</time></trkpt><trkpt lat="45.13323183905413" lon="7.160070595803123"><ele>434.0</ele><time>2026-04-19T12:30:31Z</time></trkpt><trkpt lat="45.133155321388415" lon="7.160381432984453"><ele>434.0</ele><time>2026-04-19T12:30:32Z</time></trkpt><trkpt lat="45.133069106261054" lon="7.160699250424185"><ele>434.0</ele><time>2026-04-19T12:30:33Z</time></trkpt><trkpt lat="45.132969074165025" lon="7.161017127844511"><ele>432.5</ele><time>2026-04-19T12:30:34Z</time></trkpt><trkpt lat="45.132861996622395" lon="7.161329555491157"><ele>431.0</ele><time>2026-04-19T12:30:35Z</time></trkpt><trkpt lat="45.132746310879476" lon="7.161649597273788"><ele>431.0</ele><time>2026-04-19T12:30:36Z</time></trkpt><trkpt lat="45.13262779575549" lon="7.161971281218995"><ele>431.0</ele><time>2026-04-19T12:30:37Z</time></trkpt><trkpt lat="45.132503914375306" lon="7.1622903370947135"><ele>433.0</ele><time>2026-04-19T12:30:38Z</time></trkpt><trkpt lat="45.132384876398284" lon="7.162610671997791"><ele>435.0</ele><time>2026-04-19T12:30:39Z</time></trkpt><trkpt lat="45.13226763988335" lon="7.162933494723753"><ele>434.0</ele><time>2026-04-19T12:30:40Z</time></trkpt><trkpt lat="45.1321446063378" lon="7.16324923936923"><ele>433.0</ele><time>2026-04-19T12:30:41Z</time></trkpt><trkpt lat="45.13201647982516" lon="7.1635629524381175"><ele>433.0</ele><time>2026-04-19T12:30:42Z</time></trkpt><trkpt lat="45.13189448047631" lon="7.163876574316482"><ele>433.0</ele><time>2026-04-19T12:30:43Z</time></trkpt><trkpt lat="45.131776351021635" lon="7.1641911217979635"><ele>434.0</ele><time>2026-04-19T12:30:44Z</time></trkpt><trkpt lat="45.131658062607805" lon="7.164504200638911"><ele>435.0</ele><time>2026-04-19T12:30:45Z</time></trkpt><trkpt lat="45.13153973729331" lon="7.1648162749847195"><ele>434.5</ele><time>2026-04-19T12:30:46Z</time></trkpt><trkpt lat="45.13142476695645" lon="7.165130298321847"><ele>434.0</ele><time>2026-04-19T12:30:47Z</time></trkpt><trkpt lat="45.13132522227875" lon="7.165451937353277"><ele>433.0</ele><time>2026-04-19T12:30:48Z</time></trkpt><trkpt lat="45.13125394255672" lon="7.1657904507139545"><ele>432.0</ele><time>2026-04-19T12:30:49Z</time></trkpt><trkpt lat="45.13120849201964" lon="7.166131396801877"><ele>432.0</ele><time>2026-04-19T12:30:50Z</time></trkpt><trkpt lat="45.1311699980033" lon="7.16646459425834"><ele>432.0</ele><time>2026-04-19T12:30:51Z</time></trkpt><trkpt lat="45.13111827990545" lon="7.166792424556833"><ele>431.5</ele><time>2026-04-19T12:30:52Z</time></trkpt><trkpt lat="45.13107328972124" lon="7.167127425715637"><ele>431.0</ele><time>2026-04-19T12:30:53Z</time></trkpt><trkpt lat="45.131028000638736" lon="7.167453192040188"><ele>430.0</ele><time>2026-04-19T12:30:54Z</time></trkpt><trkpt lat="45.13098083360196" lon="7.1677793711051585"><ele>429.0</ele><time>2026-04-19T12:30:55Z</time></trkpt><trkpt lat="45.13093709897929" lon="7.168103709330888"><ele>429.0</ele><time>2026-04-19T12:30:56Z</time></trkpt><trkpt lat="45.13088927663775" lon="7.168428531501798"><ele>429.0</ele><time>2026-04-19T12:30:57Z</time></trkpt><trkpt lat="45.130830337635174" lon="7.168746369763844"><ele>429.0</ele><time>2026-04-19T12:30:58Z</time></trkpt><trkpt lat="45.13077459269884" lon="7.169062221529343"><ele>429.0</ele><time>2026-04-19T12:30:59Z</time></trkpt><trkpt lat="45.13072858581099" lon="7.169389856303703"><ele>431.5</ele><time>2026-04-19T12:31:00Z</time></trkpt><trkpt lat="45.13068430359791" lon="7.169715139862639"><ele>434.0</ele><time>2026-04-19T12:31:01Z</time></trkpt><trkpt lat="45.13064146811111" lon="7.1700437127531895"><ele>434.0</ele><time>2026-04-19T12:31:02Z</time></trkpt><trkpt lat="45.130603412385796" lon="7.1703633246703795"><ele>434.0</ele><time>2026-04-19T12:31:03Z</time></trkpt><trkpt lat="45.13057220756751" lon="7.170656358706103"><ele>434.0</ele><time>2026-04-19T12:31:04Z</time></trkpt><trkpt lat="45.130542690578075" lon="7.170931976844173"><ele>433.3333333333333</ele><time>2026-04-19T12:31:05Z</time></trkpt><trkpt lat="45.13051515828866" lon="7.171190575111074"><ele>432.66666666666663</ele><time>2026-04-19T12:31:06Z</time></trkpt><trkpt lat="45.13048356022552" lon="7.171440681512639"><ele>432.0</ele><time>2026-04-19T12:31:07Z</time></trkpt><trkpt lat="45.13045130408164" lon="7.1716866986152565"><ele>431.66666666666663</ele><time>2026-04-19T12:31:08Z</time></trkpt><trkpt lat="45.13041150271617" lon="7.171938397767037"><ele>431.3333333333333</ele><time>2026-04-19T12:31:09Z</time></trkpt><trkpt lat="45.13035368260047" lon="7.172186174147742"><ele>431.0</ele><time>2026-04-19T12:31:10Z</time></trkpt><trkpt lat="45.1302778333852" lon="7.1724333231599795"><ele>430.0</ele><time>2026-04-19T12:31:11Z</time></trkpt><trkpt lat="45.1301822083736" lon="7.172671755987881"><ele>429.0</ele><time>2026-04-19T12:31:12Z</time></trkpt><trkpt lat="45.130071082775615" lon="7.172886480993524"><ele>428.0</ele><time>2026-04-19T12:31:13Z</time></trkpt><trkpt lat="45.12995843908998" lon="7.1730666636134055"><ele>428.66666666666663</ele><time>2026-04-19T12:31:14Z</time></trkpt><trkpt lat="45.129843300631705" lon="7.173231371868085"><ele>429.33333333333337</ele><time>2026-04-19T12:31:15Z</time></trkpt><trkpt lat="45.129714419675565" lon="7.173401748424772"><ele>430.0</ele><time>2026-04-19T12:31:16Z</time></trkpt><trkpt lat="45.12957965749744" lon="7.173579190880686"><ele>430.0</ele><time>2026-04-19T12:31:17Z</time></trkpt><trkpt lat="45.129441508102936" lon="7.173759763065273"><ele>430.0</ele><time>2026-04-19T12:31:18Z</time></trkpt><trkpt lat="45.12929978018617" lon="7.173940335472635"><ele>430.0</ele><time>2026-04-19T12:31:19Z</time></trkpt><trkpt lat="45.12915810800819" lon="7.174120570580232"><ele>429.6666666666667</ele><time>2026-04-19T12:31:20Z</time></trkpt><trkpt lat="45.12901711161279" lon="7.174303729338702"><ele>429.33333333333337</ele><time>2026-04-19T12:31:21Z</time></trkpt><trkpt lat="45.12887366231228" lon="7.174489127328085"><ele>429.0</ele><time>2026-04-19T12:31:22Z</time></trkpt><trkpt lat="45.128732058093455" lon="7.1746727083047"><ele>429.0</ele><time>2026-04-19T12:31:23Z</time></trkpt><trkpt lat="45.12859163816565" lon="7.174853287223992"><ele>429.0</ele><time>2026-04-19T12:31:24Z</time></trkpt><trkpt lat="45.12845132830719" lon="7.17503414685594"><ele>429.0</ele><time>2026-04-19T12:31:25Z</time></trkpt><trkpt lat="45.12831536440719" lon="7.17521198908932"><ele>429.33333333333337</ele><time>2026-04-19T12:31:26Z</time></trkpt><trkpt lat="45.12817923755766" lon="7.1753924737494605"><ele>429.6666666666667</ele><time>2026-04-19T12:31:27Z</time></trkpt><trkpt lat="45.12804279735852" lon="7.175575824859783"><ele>430.0</ele><time>2026-04-19T12:31:28Z</time></trkpt><trkpt lat="45.1279069297607" lon="7.175760022644311"><ele>429.0</ele><time>2026-04-19T12:31:29Z</time></trkpt><trkpt lat="45.12777023169459" lon="7.1759312546303144"><ele>428.0</ele><time>2026-04-19T12:31:30Z</time></trkpt><trkpt lat="45.127634078354774" lon="7.176102403484061"><ele>427.0</ele><time>2026-04-19T12:31:31Z</time></trkpt><trkpt lat="45.12750374055394" lon="7.176275761318069"><ele>428.33333333333337</ele><time>2026-04-19T12:31:32Z</time></trkpt><trkpt lat="45.12737703087223" lon="7.176464851427916"><ele>429.66666666666663</ele><time>2026-04-19T12:31:33Z</time></trkpt><trkpt lat="45.12726339233324" lon="7.176674920213856"><ele>431.0</ele><time>2026-04-19T12:31:34Z</time></trkpt><trkpt lat="45.12717193995649" lon="7.1769049697091445"><ele>431.0</ele><time>2026-04-19T12:31:35Z</time></trkpt><trkpt lat="45.127095037124995" lon="7.177148764023304"><ele>431.0</ele><time>2026-04-19T12:31:36Z</time></trkpt><trkpt lat="45.1270359067744" lon="7.177397104305208"><ele>431.0</ele><time>2026-04-19T12:31:37Z</time></trkpt><trkpt lat="45.12699758680739" lon="7.177644843707034"><ele>431.66666666666663</ele><time>2026-04-19T12:31:38Z</time></trkpt><trkpt lat="45.12697924945378" lon="7.1778984845556115"><ele>432.33333333333337</ele><time>2026-04-19T12:31:39Z</time></trkpt><trkpt lat="45.12697016212034" lon="7.178155532385277"><ele>433.0</ele><time>2026-04-19T12:31:40Z</time></trkpt><trkpt lat="45.12696557925468" lon="7.178415582840585"><ele>434.33333333333337</ele><time>2026-04-19T12:31:41Z</time></trkpt><trkpt lat="45.126957951317905" lon="7.178678965738431"><ele>435.66666666666663</ele><time>2026-04-19T12:31:42Z</time></trkpt><trkpt lat="45.12694931253846" lon="7.178940582135285"><ele>437.0</ele><time>2026-04-19T12:31:43Z</time></trkpt><trkpt lat="45.126942682493706" lon="7.179206432744386"><ele>437.0</ele><time>2026-04-19T12:31:44Z</time></trkpt><trkpt lat="45.12693574062742" lon="7.179471999655818"><ele>437.0</ele><time>2026-04-19T12:31:45Z</time></trkpt><trkpt lat="45.126920526703785" lon="7.179739106299125"><ele>437.0</ele><time>2026-04-19T12:31:46Z</time></trkpt><trkpt lat="45.126899694800386" lon="7.180009392151738"><ele>437.66666666666663</ele><time>2026-04-19T12:31:47Z</time></trkpt><trkpt lat="45.12687304504714" lon="7.180277677078635"><ele>438.33333333333337</ele><time>2026-04-19T12:31:48Z</time></trkpt><trkpt lat="45.12684074164023" lon="7.1805478941019985"><ele>439.0</ele><time>2026-04-19T12:31:49Z</time></trkpt><trkpt lat="45.126802002402435" lon="7.180818175849704"><ele>439.0</ele><time>2026-04-19T12:31:50Z</time></trkpt><trkpt lat="45.12676131700842" lon="7.181075177102054"><ele>439.0</ele><time>2026-04-19T12:31:51Z</time></trkpt><trkpt lat="45.126717534674796" lon="7.181312502768288"><ele>439.0</ele><time>2026-04-19T12:31:52Z</time></trkpt><trkpt lat="45.12667523501565" lon="7.181542990936249"><ele>439.0</ele><time>2026-04-19T12:31:53Z</time></trkpt><trkpt lat="45.12663686377395" lon="7.181782265541508"><ele>439.0</ele><time>2026-04-19T12:31:54Z</time></trkpt><trkpt lat="45.12659223824383" lon="7.182022089790337"><ele>439.0</ele><time>2026-04-19T12:31:55Z</time></trkpt><trkpt lat="45.126533416885735" lon="7.182242392660012"><ele>440.6666666666667</ele><time>2026-04-19T12:31:56Z</time></trkpt><trkpt lat="45.12645901245057" lon="7.18243541997583"><ele>442.33333333333337</ele><time>2026-04-19T12:31:57Z</time></trkpt><trkpt lat="45.126358423713015" lon="7.182620657124776"><ele>444.0</ele><time>2026-04-19T12:31:58Z</time></trkpt><trkpt lat="45.12622815846825" lon="7.182777549269308"><ele>444.0</ele><time>2026-04-19T12:31:59Z</time></trkpt><trkpt lat="45.12606274588645" lon="7.182952185108428"><ele>444.0</ele><time>2026-04-19T12:32:00Z</time></trkpt><trkpt lat="45.12587947167605" lon="7.1831615323302"><ele>444.0</ele><time>2026-04-19T12:32:01Z</time></trkpt><trkpt lat="45.125677518619156" lon="7.183371496929494"><ele>445.5</ele><time>2026-04-19T12:32:02Z</time></trkpt><trkpt lat="45.12547988829732" lon="7.183578760095976"><ele>447.0</ele><time>2026-04-19T12:32:03Z</time></trkpt><trkpt lat="45.12527873890724" lon="7.183792194170963"><ele>447.0</ele><time>2026-04-19T12:32:04Z</time></trkpt><trkpt lat="45.12507162226527" lon="7.183995551212916"><ele>447.0</ele><time>2026-04-19T12:32:05Z</time></trkpt><trkpt lat="45.1249410193455" lon="7.1841918640002325"><ele>447.0</ele><time>2026-04-19T12:32:06Z</time></trkpt><trkpt lat="45.12478406006975" lon="7.184369221358791"><ele>447.0</ele><time>2026-04-19T12:32:07Z</time></trkpt><trkpt lat="45.12463856637319" lon="7.184576331451899"><ele>447.0</ele><time>2026-04-19T12:32:08Z</time></trkpt><trkpt lat="45.124515976434544" lon="7.184841919759335"><ele>447.0</ele><time>2026-04-19T12:32:09Z</time></trkpt><trkpt lat="45.124434144697844" lon="7.185150882671777"><ele>443.0</ele><time>2026-04-19T12:32:10Z</time></trkpt><trkpt lat="45.12439736869799" lon="7.185485313286824"><ele>439.0</ele><time>2026-04-19T12:32:11Z</time></trkpt><trkpt lat="45.12440956026721" lon="7.1858433285943955"><ele>435.5</ele><time>2026-04-19T12:32:12Z</time></trkpt><trkpt lat="45.12443372099306" lon="7.186200059925646"><ele>432.0</ele><time>2026-04-19T12:32:13Z</time></trkpt><trkpt lat="45.12443835102687" lon="7.186557452679226"><ele>430.5</ele><time>2026-04-19T12:32:14Z</time></trkpt><trkpt lat="45.124440782269026" lon="7.186918876515628"><ele>429.0</ele><time>2026-04-19T12:32:15Z</time></trkpt><trkpt lat="45.12444004140508" lon="7.187279258850381"><ele>430.0</ele><time>2026-04-19T12:32:16Z</time></trkpt><trkpt lat="45.124435568946666" lon="7.187641458225031"><ele>431.0</ele><time>2026-04-19T12:32:17Z</time></trkpt><trkpt lat="45.12443603833259" lon="7.18800221914478"><ele>432.0</ele><time>2026-04-19T12:32:18Z</time></trkpt><trkpt lat="45.12443491164229" lon="7.188361150250336"><ele>433.0</ele><time>2026-04-19T12:32:19Z</time></trkpt><trkpt lat="45.124422302420896" lon="7.188723213077199"><ele>434.0</ele><time>2026-04-19T12:32:20Z</time></trkpt><trkpt lat="45.124390375123134" lon="7.18908867563824"><ele>435.0</ele><time>2026-04-19T12:32:21Z</time></trkpt><trkpt lat="45.12432842890697" lon="7.1894495616756275"><ele>435.0</ele><time>2026-04-19T12:32:22Z</time></trkpt><trkpt lat="45.124243133823725" lon="7.18980647170536"><ele>435.0</ele><time>2026-04-19T12:32:23Z</time></trkpt><trkpt lat="45.124148848498244" lon="7.190165257934515"><ele>435.5</ele><time>2026-04-19T12:32:24Z</time></trkpt><trkpt lat="45.12405178196657" lon="7.190526139325366"><ele>436.0</ele><time>2026-04-19T12:32:25Z</time></trkpt><trkpt lat="45.123930192536584" lon="7.1908699424036016"><ele>435.0</ele><time>2026-04-19T12:32:26Z</time></trkpt><trkpt lat="45.12382187255864" lon="7.19122218824094"><ele>434.0</ele><time>2026-04-19T12:32:27Z</time></trkpt><trkpt lat="45.123678781966696" lon="7.191562468558962"><ele>432.0</ele><time>2026-04-19T12:32:28Z</time></trkpt><trkpt lat="45.12354933841685" lon="7.191907147383759"><ele>430.0</ele><time>2026-04-19T12:32:29Z</time></trkpt><trkpt lat="45.12341905914178" lon="7.192257371921231"><ele>427.5</ele><time>2026-04-19T12:32:30Z</time></trkpt><trkpt lat="45.12328572638064" lon="7.192604616943033"><ele>425.0</ele><time>2026-04-19T12:32:31Z</time></trkpt><trkpt lat="45.123154223937625" lon="7.192952499574882"><ele>428.0</ele><time>2026-04-19T12:32:32Z</time></trkpt><trkpt lat="45.12302294583015" lon="7.193299900343646"><ele>431.0</ele><time>2026-04-19T12:32:33Z</time></trkpt><trkpt lat="45.12288598628682" lon="7.193615639931107"><ele>431.0</ele><time>2026-04-19T12:32:34Z</time></trkpt><trkpt lat="45.12273583984173" lon="7.193905470994345"><ele>431.0</ele><time>2026-04-19T12:32:35Z</time></trkpt><trkpt lat="45.12257187690147" lon="7.19417202726564"><ele>431.5</ele><time>2026-04-19T12:32:36Z</time></trkpt><trkpt lat="45.122402241984844" lon="7.19443671754506"><ele>432.0</ele><time>2026-04-19T12:32:37Z</time></trkpt><trkpt lat="45.12223961048424" lon="7.194701755374752"><ele>428.5</ele><time>2026-04-19T12:32:38Z</time></trkpt><trkpt lat="45.12209389536708" lon="7.194958291809552"><ele>425.0</ele><time>2026-04-19T12:32:39Z</time></trkpt><trkpt lat="45.1219609058587" lon="7.195208406624286"><ele>425.0</ele><time>2026-04-19T12:32:40Z</time></trkpt><trkpt lat="45.12184297760812" lon="7.1954609691910765"><ele>425.0</ele><time>2026-04-19T12:32:41Z</time></trkpt><trkpt lat="45.12173565168625" lon="7.195698833667162"><ele>425.0</ele><time>2026-04-19T12:32:42Z</time></trkpt><trkpt lat="45.12163629377974" lon="7.195926040551788"><ele>425.3333333333333</ele><time>2026-04-19T12:32:43Z</time></trkpt><trkpt lat="45.1215463461935" lon="7.196143508231498"><ele>425.66666666666663</ele><time>2026-04-19T12:32:44Z</time></trkpt><trkpt lat="45.121465296350344" lon="7.196360195401768"><ele>426.0</ele><time>2026-04-19T12:32:45Z</time></trkpt><trkpt lat="45.121396303903225" lon="7.196591302463451"><ele>425.0</ele><time>2026-04-19T12:32:46Z</time></trkpt><trkpt lat="45.12134640449144" lon="7.19683924924769"><ele>424.0</ele><time>2026-04-19T12:32:47Z</time></trkpt><trkpt lat="45.12132588848546" lon="7.197077006888768"><ele>423.0</ele><time>2026-04-19T12:32:48Z</time></trkpt><trkpt lat="45.121328504850055" lon="7.197297785042382"><ele>424.0</ele><time>2026-04-19T12:32:49Z</time></trkpt><trkpt lat="45.12134428880688" lon="7.197518720316176"><ele>425.0</ele><time>2026-04-19T12:32:50Z</time></trkpt><trkpt lat="45.121364253906016" lon="7.197748892099429"><ele>426.0</ele><time>2026-04-19T12:32:51Z</time></trkpt><trkpt lat="45.121382919210305" lon="7.197960588545099"><ele>427.75</ele><time>2026-04-19T12:32:52Z</time></trkpt><trkpt lat="45.121401562850295" lon="7.198173599168842"><ele>429.5</ele><time>2026-04-19T12:32:53Z</time></trkpt><trkpt lat="45.12142309979362" lon="7.19837821464056"><ele>431.25</ele><time>2026-04-19T12:32:54Z</time></trkpt><trkpt lat="45.12144483613242" lon="7.198591183180271"><ele>433.0</ele><time>2026-04-19T12:32:55Z</time></trkpt><trkpt lat="45.121469426118054" lon="7.198804020715272"><ele>434.75</ele><time>2026-04-19T12:32:56Z</time></trkpt><trkpt lat="45.121494541378624" lon="7.199015104463794"><ele>436.5</ele><time>2026-04-19T12:32:57Z</time></trkpt><trkpt lat="45.12151479749415" lon="7.199222530266336"><ele>438.25</ele><time>2026-04-19T12:32:58Z</time></trkpt><trkpt lat="45.12152842836199" lon="7.199422995893523"><ele>440.0</ele><time>2026-04-19T12:32:59Z</time></trkpt><trkpt lat="45.121532397167286" lon="7.199640305014167"><ele>440.0</ele><time>2026-04-19T12:33:00Z</time></trkpt><trkpt lat="45.12151893134185" lon="7.1998574898330805"><ele>440.0</ele><time>2026-04-19T12:33:01Z</time></trkpt><trkpt lat="45.12148281235888" lon="7.200086528607254"><ele>440.0</ele><time>2026-04-19T12:33:02Z</time></trkpt><trkpt lat="45.12144392054384" lon="7.200328634488069"><ele>440.0</ele><time>2026-04-19T12:33:03Z</time></trkpt><trkpt lat="45.12140027772034" lon="7.200592204065127"><ele>440.0</ele><time>2026-04-19T12:33:04Z</time></trkpt><trkpt lat="45.12135394746131" lon="7.200881761716726"><ele>440.0</ele><time>2026-04-19T12:33:05Z</time></trkpt><trkpt lat="45.12130286539793" lon="7.201194852495243"><ele>436.0</ele><time>2026-04-19T12:33:06Z</time></trkpt><trkpt lat="45.12124129982994" lon="7.2015291776692685"><ele>432.0</ele><time>2026-04-19T12:33:07Z</time></trkpt><trkpt lat="45.121170501914875" lon="7.2018778410861515"><ele>432.0</ele><time>2026-04-19T12:33:08Z</time></trkpt><trkpt lat="45.121099291542976" lon="7.202240018059924"><ele>432.0</ele><time>2026-04-19T12:33:09Z</time></trkpt><trkpt lat="45.12103278206495" lon="7.20262210957853"><ele>428.0</ele><time>2026-04-19T12:33:10Z</time></trkpt><trkpt lat="45.1209719292468" lon="7.203016495861851"><ele>424.0</ele><time>2026-04-19T12:33:11Z</time></trkpt><trkpt lat="45.120903168343425" lon="7.203412732643737"><ele>420.5</ele><time>2026-04-19T12:33:12Z</time></trkpt><trkpt lat="45.12083012823064" lon="7.203811463454777"><ele>417.0</ele><time>2026-04-19T12:33:13Z</time></trkpt><trkpt lat="45.12075555624502" lon="7.204213139361659"><ele>419.0</ele><time>2026-04-19T12:33:14Z</time></trkpt><trkpt lat="45.120687644786614" lon="7.204609635567626"><ele>421.0</ele><time>2026-04-19T12:33:15Z</time></trkpt><trkpt lat="45.12062028671058" lon="7.205006260944738"><ele>421.0</ele><time>2026-04-19T12:33:16Z</time></trkpt><trkpt lat="45.120553581856484" lon="7.205407414150718"><ele>421.0</ele><time>2026-04-19T12:33:17Z</time></trkpt><trkpt lat="45.12048130797849" lon="7.205800771971038"><ele>418.0</ele><time>2026-04-19T12:33:18Z</time></trkpt><trkpt lat="45.12040728112333" lon="7.206200658313844"><ele>415.0</ele><time>2026-04-19T12:33:19Z</time></trkpt><trkpt lat="45.12033791777921" lon="7.2065952777854765"><ele>415.5</ele><time>2026-04-19T12:33:20Z</time></trkpt><trkpt lat="45.1202715537324" lon="7.206997591261524"><ele>416.0</ele><time>2026-04-19T12:33:21Z</time></trkpt><trkpt lat="45.12020597436159" lon="7.207373173178365"><ele>416.0</ele><time>2026-04-19T12:33:22Z</time></trkpt><trkpt lat="45.12013790265403" lon="7.207739791150634"><ele>416.0</ele><time>2026-04-19T12:33:23Z</time></trkpt><trkpt lat="45.12005653930665" lon="7.208107860593925"><ele>415.5</ele><time>2026-04-19T12:33:24Z</time></trkpt><trkpt lat="45.11997190831062" lon="7.2084803988081525"><ele>415.0</ele><time>2026-04-19T12:33:25Z</time></trkpt><trkpt lat="45.11988792593316" lon="7.208825421894627"><ele>421.6666666666667</ele><time>2026-04-19T12:33:26Z</time></trkpt><trkpt lat="45.119807774336344" lon="7.209121530054422"><ele>428.33333333333337</ele><time>2026-04-19T12:33:27Z</time></trkpt><trkpt lat="45.11971539567889" lon="7.209403609407813"><ele>435.0</ele><time>2026-04-19T12:33:28Z</time></trkpt><trkpt lat="45.119593850646986" lon="7.2096913474222175"><ele>427.5</ele><time>2026-04-19T12:33:29Z</time></trkpt><trkpt lat="45.1194578040487" lon="7.209983029530538"><ele>420.0</ele><time>2026-04-19T12:33:30Z</time></trkpt><trkpt lat="45.11932452310854" lon="7.210279860747252"><ele>420.0</ele><time>2026-04-19T12:33:31Z</time></trkpt><trkpt lat="45.11920898185029" lon="7.210587095707808"><ele>420.0</ele><time>2026-04-19T12:33:32Z</time></trkpt><trkpt lat="45.11911630264359" lon="7.210896695161914"><ele>421.33333333333337</ele><time>2026-04-19T12:33:33Z</time></trkpt><trkpt lat="45.11905467052854" lon="7.211199431738028"><ele>422.6666666666667</ele><time>2026-04-19T12:33:34Z</time></trkpt><trkpt lat="45.11901792011262" lon="7.2115031183562355"><ele>424.0</ele><time>2026-04-19T12:33:35Z</time></trkpt><trkpt lat="45.11897352418282" lon="7.211815905147355"><ele>424.0</ele><time>2026-04-19T12:33:36Z</time></trkpt><trkpt lat="45.118923589916996" lon="7.2121310235000236"><ele>424.0</ele><time>2026-04-19T12:33:37Z</time></trkpt><trkpt lat="45.11887436957686" lon="7.2124447197887385"><ele>418.5</ele><time>2026-04-19T12:33:38Z</time></trkpt><trkpt lat="45.11882785105493" lon="7.2127620648726"><ele>413.0</ele><time>2026-04-19T12:33:39Z</time></trkpt><trkpt lat="45.11879304064785" lon="7.2130764163862375"><ele>410.5</ele><time>2026-04-19T12:33:40Z</time></trkpt><trkpt lat="45.11876939709574" lon="7.213394824105694"><ele>408.0</ele><time>2026-04-19T12:33:41Z</time></trkpt><trkpt lat="45.11875314103579" lon="7.213718409977876"><ele>406.0</ele><time>2026-04-19T12:33:42Z</time></trkpt><trkpt lat="45.118739647727864" lon="7.214043504775278"><ele>404.0</ele><time>2026-04-19T12:33:43Z</time></trkpt><trkpt lat="45.118721621733314" lon="7.2143656845336634"><ele>404.0</ele><time>2026-04-19T12:33:44Z</time></trkpt><trkpt lat="45.11870208468142" lon="7.214669874998582"><ele>404.0</ele><time>2026-04-19T12:33:45Z</time></trkpt><trkpt lat="45.11868908107925" lon="7.214959473994063"><ele>404.0</ele><time>2026-04-19T12:33:46Z</time></trkpt><trkpt lat="45.1186856419422" lon="7.215228582347054"><ele>403.3333333333333</ele><time>2026-04-19T12:33:47Z</time></trkpt><trkpt lat="45.11869842634111" lon="7.21549139284068"><ele>402.66666666666663</ele><time>2026-04-19T12:33:48Z</time></trkpt><trkpt lat="45.118724468358" lon="7.215757423070721"><ele>402.0</ele><time>2026-04-19T12:33:49Z</time></trkpt><trkpt lat="45.11875360903548" lon="7.216025572878747"><ele>402.0</ele><time>2026-04-19T12:33:50Z</time></trkpt><trkpt lat="45.118784748421646" lon="7.216298982418828"><ele>402.0</ele><time>2026-04-19T12:33:51Z</time></trkpt><trkpt lat="45.11882448484763" lon="7.21659374293472"><ele>402.0</ele><time>2026-04-19T12:33:52Z</time></trkpt><trkpt lat="45.11887397910397" lon="7.216921996429501"><ele>402.0</ele><time>2026-04-19T12:33:53Z</time></trkpt><trkpt lat="45.11889655767281" lon="7.217268775082453"><ele>402.0</ele><time>2026-04-19T12:33:54Z</time></trkpt><trkpt lat="45.11894229918463" lon="7.21761364245058"><ele>404.0</ele><time>2026-04-19T12:33:55Z</time></trkpt><trkpt lat="45.118967818048105" lon="7.217966695323097"><ele>406.0</ele><time>2026-04-19T12:33:56Z</time></trkpt><trkpt lat="45.11900306624349" lon="7.218311289625875"><ele>406.5</ele><time>2026-04-19T12:33:57Z</time></trkpt><trkpt lat="45.119041427697695" lon="7.218651962291485"><ele>407.0</ele><time>2026-04-19T12:33:58Z</time></trkpt><trkpt lat="45.11908212948666" lon="7.218996435581087"><ele>407.0</ele><time>2026-04-19T12:33:59Z</time></trkpt><trkpt lat="45.119121961791826" lon="7.219342097153377"><ele>407.0</ele><time>2026-04-19T12:34:00Z</time></trkpt><trkpt lat="45.1191587113876" lon="7.219695132630024"><ele>406.5</ele><time>2026-04-19T12:34:01Z</time></trkpt><trkpt lat="45.11919509330125" lon="7.2200491565904"><ele>406.0</ele><time>2026-04-19T12:34:02Z</time></trkpt><trkpt lat="45.11923522016549" lon="7.220407075290071"><ele>406.5</ele><time>2026-04-19T12:34:03Z</time></trkpt><trkpt lat="45.119268966385896" lon="7.220764342149743"><ele>407.0</ele><time>2026-04-19T12:34:04Z</time></trkpt><trkpt lat="45.11929000539538" lon="7.221126528164546"><ele>407.5</ele><time>2026-04-19T12:34:05Z</time></trkpt><trkpt lat="45.11929509323791" lon="7.221491450960368"><ele>408.0</ele><time>2026-04-19T12:34:06Z</time></trkpt><trkpt lat="45.119293760495545" lon="7.221853573888025"><ele>408.0</ele><time>2026-04-19T12:34:07Z</time></trkpt><trkpt lat="45.1192888056913" lon="7.222212057055586"><ele>408.0</ele><time>2026-04-19T12:34:08Z</time></trkpt><trkpt lat="45.119282615191786" lon="7.222570978748612"><ele>407.5</ele><time>2026-04-19T12:34:09Z</time></trkpt><trkpt lat="45.119280166291254" lon="7.222927278676337"><ele>407.0</ele><time>2026-04-19T12:34:10Z</time></trkpt><trkpt lat="45.1192873865008" lon="7.223281707511331"><ele>407.0</ele><time>2026-04-19T12:34:11Z</time></trkpt><trkpt lat="45.119303020446274" lon="7.223638269427852"><ele>407.0</ele><time>2026-04-19T12:34:12Z</time></trkpt><trkpt lat="45.11931926707025" lon="7.223995635562144"><ele>406.0</ele><time>2026-04-19T12:34:13Z</time></trkpt><trkpt lat="45.11933773421047" lon="7.2243554757838835"><ele>405.0</ele><time>2026-04-19T12:34:14Z</time></trkpt><trkpt lat="45.11935848730062" lon="7.224717174900684"><ele>405.5</ele><time>2026-04-19T12:34:15Z</time></trkpt><trkpt lat="45.11938051818863" lon="7.225080795335892"><ele>406.0</ele><time>2026-04-19T12:34:16Z</time></trkpt><trkpt lat="45.11940320553997" lon="7.225446125595376"><ele>406.5</ele><time>2026-04-19T12:34:17Z</time></trkpt><trkpt lat="45.1194256984597" lon="7.225814063478666"><ele>407.0</ele><time>2026-04-19T12:34:18Z</time></trkpt><trkpt lat="45.11944480022534" lon="7.226183148803787"><ele>406.5</ele><time>2026-04-19T12:34:19Z</time></trkpt><trkpt lat="45.119461498102176" lon="7.226554766879409"><ele>406.0</ele><time>2026-04-19T12:34:20Z</time></trkpt><trkpt lat="45.119472871633214" lon="7.226919628683797"><ele>406.0</ele><time>2026-04-19T12:34:21Z</time></trkpt><trkpt lat="45.119475791427064" lon="7.22725928036709"><ele>406.0</ele><time>2026-04-19T12:34:22Z</time></trkpt><trkpt lat="45.11946802743099" lon="7.227578808054232"><ele>405.5</ele><time>2026-04-19T12:34:23Z</time></trkpt><trkpt lat="45.11945299217711" lon="7.227899993917369"><ele>405.0</ele><time>2026-04-19T12:34:24Z</time></trkpt><trkpt lat="45.119437852307506" lon="7.228218286885989"><ele>405.0</ele><time>2026-04-19T12:34:25Z</time></trkpt><trkpt lat="45.11942376157863" lon="7.228518286835618"><ele>405.0</ele><time>2026-04-19T12:34:26Z</time></trkpt><trkpt lat="45.11941457907133" lon="7.228799705968913"><ele>405.0</ele><time>2026-04-19T12:34:27Z</time></trkpt><trkpt lat="45.11940207553257" lon="7.229064957910496"><ele>404.33333333333337</ele><time>2026-04-19T12:34:28Z</time></trkpt><trkpt lat="45.11939051533177" lon="7.229319671741246"><ele>403.6666666666667</ele><time>2026-04-19T12:34:29Z</time></trkpt><trkpt lat="45.11937984648277" lon="7.229567290085122"><ele>403.0</ele><time>2026-04-19T12:34:30Z</time></trkpt><trkpt lat="45.11936970119553" lon="7.229804592446058"><ele>402.75</ele><time>2026-04-19T12:34:31Z</time></trkpt><trkpt lat="45.11935989773632" lon="7.230030622963371"><ele>402.5</ele><time>2026-04-19T12:34:32Z</time></trkpt><trkpt lat="45.119349045807745" lon="7.23024313430548"><ele>402.25</ele><time>2026-04-19T12:34:33Z</time></trkpt><trkpt lat="45.11933987914253" lon="7.230431833814385"><ele>402.0</ele><time>2026-04-19T12:34:34Z</time></trkpt><trkpt lat="45.119331951712304" lon="7.230598324940493"><ele>402.1666666666667</ele><time>2026-04-19T12:34:35Z</time></trkpt><trkpt lat="45.11932396912828" lon="7.230739946246632"><ele>402.33333333333337</ele><time>2026-04-19T12:34:36Z</time></trkpt><trkpt lat="45.11931800632351" lon="7.230863264372372"><ele>402.5</ele><time>2026-04-19T12:34:37Z</time></trkpt><trkpt lat="45.11930490696018" lon="7.230977599099967"><ele>402.6666666666667</ele><time>2026-04-19T12:34:38Z</time></trkpt><trkpt lat="45.11927568578898" lon="7.231070074468759"><ele>402.83333333333337</ele><time>2026-04-19T12:34:39Z</time></trkpt><trkpt lat="45.119237598026466" lon="7.231153670153615"><ele>403.0</ele><time>2026-04-19T12:34:40Z</time></trkpt><trkpt lat="45.11918546889459" lon="7.231245815704543"><ele>403.00000000000006</ele><time>2026-04-19T12:34:41Z</time></trkpt><trkpt lat="45.1191439780427" lon="7.231342176768882"><ele>403.0</ele><time>2026-04-19T12:34:42Z</time></trkpt><trkpt lat="45.11912984367876" lon="7.231450166996494"><ele>403.0</ele><time>2026-04-19T12:34:43Z</time></trkpt><trkpt lat="45.11913686451517" lon="7.231553163897495"><ele>403.0</ele><time>2026-04-19T12:34:44Z</time></trkpt><trkpt lat="45.11916431563918" lon="7.23167403886212"><ele>403.00000000000006</ele><time>2026-04-19T12:34:45Z</time></trkpt><trkpt lat="45.11920082356859" lon="7.23180530053738"><ele>403.0</ele><time>2026-04-19T12:34:46Z</time></trkpt><trkpt lat="45.11922032228574" lon="7.231950352787393"><ele>403.0</ele><time>2026-04-19T12:34:47Z</time></trkpt><trkpt lat="45.11921951939921" lon="7.232117892275216"><ele>403.0</ele><time>2026-04-19T12:34:48Z</time></trkpt><trkpt lat="45.11918840318212" lon="7.2323085176844994"><ele>403.0</ele><time>2026-04-19T12:34:49Z</time></trkpt><trkpt lat="45.119135268177345" lon="7.232510716513309"><ele>403.0</ele><time>2026-04-19T12:34:50Z</time></trkpt><trkpt lat="45.11907315875441" lon="7.232719315473452"><ele>402.75</ele><time>2026-04-19T12:34:51Z</time></trkpt><trkpt lat="45.119011991624554" lon="7.232905024279672"><ele>402.5</ele><time>2026-04-19T12:34:52Z</time></trkpt><trkpt lat="45.11895449542584" lon="7.233079310805586"><ele>402.25</ele><time>2026-04-19T12:34:53Z</time></trkpt><trkpt lat="45.1188973057223" lon="7.233254881297505"><ele>402.0</ele><time>2026-04-19T12:34:54Z</time></trkpt><trkpt lat="45.11884298605532" lon="7.233428935856356"><ele>401.75</ele><time>2026-04-19T12:34:55Z</time></trkpt><trkpt lat="45.11878997625576" lon="7.2335992062501075"><ele>401.5</ele><time>2026-04-19T12:34:56Z</time></trkpt><trkpt lat="45.1187377190682" lon="7.233768261026163"><ele>401.25</ele><time>2026-04-19T12:34:57Z</time></trkpt><trkpt lat="45.118692823500346" lon="7.233935999886294"><ele>401.0</ele><time>2026-04-19T12:34:58Z</time></trkpt><trkpt lat="45.118642935456926" lon="7.234110525422507"><ele>400.25</ele><time>2026-04-19T12:34:59Z</time></trkpt><trkpt lat="45.11857322345542" lon="7.234282414928534"><ele>399.5</ele><time>2026-04-19T12:35:00Z</time></trkpt><trkpt lat="45.11850477433377" lon="7.23445930000742"><ele>398.75</ele><time>2026-04-19T12:35:01Z</time></trkpt><trkpt lat="45.11842845433177" lon="7.234634435155209"><ele>398.0</ele><time>2026-04-19T12:35:02Z</time></trkpt><trkpt lat="45.118339075261765" lon="7.23479789110816"><ele>398.3333333333333</ele><time>2026-04-19T12:35:03Z</time></trkpt><trkpt lat="45.11823822791186" lon="7.234961309997539"><ele>398.66666666666663</ele><time>2026-04-19T12:35:04Z</time></trkpt><trkpt lat="45.11813110873435" lon="7.235141812018325"><ele>399.0</ele><time>2026-04-19T12:35:05Z</time></trkpt><trkpt lat="45.11801949006972" lon="7.235326271299501"><ele>399.0</ele><time>2026-04-19T12:35:06Z</time></trkpt><trkpt lat="45.117901367484755" lon="7.235507817836817"><ele>399.0</ele><time>2026-04-19T12:35:07Z</time></trkpt><trkpt lat="45.117782143819674" lon="7.235672711605651"><ele>399.0</ele><time>2026-04-19T12:35:08Z</time></trkpt><trkpt lat="45.11766756854392" lon="7.235814906834429"><ele>398.66666666666663</ele><time>2026-04-19T12:35:09Z</time></trkpt><trkpt lat="45.11755785051017" lon="7.235956700426125"><ele>398.3333333333333</ele><time>2026-04-19T12:35:10Z</time></trkpt><trkpt lat="45.11744838548094" lon="7.236109261468155"><ele>398.0</ele><time>2026-04-19T12:35:11Z</time></trkpt><trkpt lat="45.11734459832048" lon="7.23626277389293"><ele>398.0</ele><time>2026-04-19T12:35:12Z</time></trkpt><trkpt lat="45.11725084747066" lon="7.236411389641082"><ele>398.0</ele><time>2026-04-19T12:35:13Z</time></trkpt><trkpt lat="45.11716565580403" lon="7.236555798215826"><ele>398.0</ele><time>2026-04-19T12:35:14Z</time></trkpt><trkpt lat="45.11707899237633" lon="7.236699224584127"><ele>398.0</ele><time>2026-04-19T12:35:15Z</time></trkpt><trkpt lat="45.11698372621169" lon="7.236852840459369"><ele>397.5</ele><time>2026-04-19T12:35:16Z</time></trkpt><trkpt lat="45.116892151246994" lon="7.237003179950407"><ele>397.0</ele><time>2026-04-19T12:35:17Z</time></trkpt><trkpt lat="45.116802113188136" lon="7.237154193376038"><ele>396.5</ele><time>2026-04-19T12:35:18Z</time></trkpt><trkpt lat="45.11671945702845" lon="7.2372963029768185"><ele>396.0</ele><time>2026-04-19T12:35:19Z</time></trkpt><trkpt lat="45.116644656725576" lon="7.237427515726926"><ele>395.8</ele><time>2026-04-19T12:35:20Z</time></trkpt><trkpt lat="45.116571109841715" lon="7.2375482444158585"><ele>395.6</ele><time>2026-04-19T12:35:21Z</time></trkpt><trkpt lat="45.116501789460486" lon="7.2376644765664615"><ele>395.4</ele><time>2026-04-19T12:35:22Z</time></trkpt><trkpt lat="45.11643561125577" lon="7.237771965654328"><ele>395.2</ele><time>2026-04-19T12:35:23Z</time></trkpt><trkpt lat="45.1163713600763" lon="7.23786332435153"><ele>395.0</ele><time>2026-04-19T12:35:24Z</time></trkpt><trkpt lat="45.11630146422429" lon="7.237923004701604"><ele>395.0</ele><time>2026-04-19T12:35:25Z</time></trkpt><trkpt lat="45.116226624700545" lon="7.237958852545041"><ele>395.0</ele><time>2026-04-19T12:35:26Z</time></trkpt><trkpt lat="45.116150431765604" lon="7.238021233874071"><ele>395.0</ele><time>2026-04-19T12:35:27Z</time></trkpt><trkpt lat="45.11609111111157" lon="7.238124676589381"><ele>395.0</ele><time>2026-04-19T12:35:28Z</time></trkpt><trkpt lat="45.116064086396754" lon="7.2382549793800095"><ele>395.0</ele><time>2026-04-19T12:35:29Z</time></trkpt><trkpt lat="45.11605168253923" lon="7.2384020816222705"><ele>395.0</ele><time>2026-04-19T12:35:30Z</time></trkpt><trkpt lat="45.11601951146371" lon="7.238547969230604"><ele>395.0</ele><time>2026-04-19T12:35:31Z</time></trkpt><trkpt lat="45.11598075261918" lon="7.238680912444383"><ele>395.0</ele><time>2026-04-19T12:35:32Z</time></trkpt><trkpt lat="45.115897881665774" lon="7.238839471148219"><ele>395.0</ele><time>2026-04-19T12:35:33Z</time></trkpt><trkpt lat="45.115807727640295" lon="7.238990235732914"><ele>395.25</ele><time>2026-04-19T12:35:34Z</time></trkpt><trkpt lat="45.11571245142083" lon="7.2391365082155446"><ele>395.5</ele><time>2026-04-19T12:35:35Z</time></trkpt><trkpt lat="45.11561432317538" lon="7.239287804301619"><ele>395.75</ele><time>2026-04-19T12:35:36Z</time></trkpt><trkpt lat="45.115510694385364" lon="7.239434852833529"><ele>396.0</ele><time>2026-04-19T12:35:37Z</time></trkpt><trkpt lat="45.11540270205248" lon="7.239593916839082"><ele>396.0</ele><time>2026-04-19T12:35:38Z</time></trkpt><trkpt lat="45.11529723643015" lon="7.239773550435303"><ele>396.0</ele><time>2026-04-19T12:35:39Z</time></trkpt><trkpt lat="45.115186383968755" lon="7.239971063405007"><ele>396.0</ele><time>2026-04-19T12:35:40Z</time></trkpt><trkpt lat="45.11506212426948" lon="7.240181625306317"><ele>395.5</ele><time>2026-04-19T12:35:41Z</time></trkpt><trkpt lat="45.11493282702401" lon="7.240435917427412"><ele>395.0</ele><time>2026-04-19T12:35:42Z</time></trkpt><trkpt lat="45.114803393673576" lon="7.240708401481044"><ele>395.0</ele><time>2026-04-19T12:35:43Z</time></trkpt><trkpt lat="45.11466998645068" lon="7.24098827270459"><ele>395.0</ele><time>2026-04-19T12:35:44Z</time></trkpt><trkpt lat="45.11453989206072" lon="7.241259894985167"><ele>393.5</ele><time>2026-04-19T12:35:45Z</time></trkpt><trkpt lat="45.114431826745715" lon="7.2415425890190805"><ele>392.0</ele><time>2026-04-19T12:35:46Z</time></trkpt><trkpt lat="45.114333318815014" lon="7.241841247045179"><ele>392.0</ele><time>2026-04-19T12:35:47Z</time></trkpt><trkpt lat="45.11423290164453" lon="7.242142638594464"><ele>392.0</ele><time>2026-04-19T12:35:48Z</time></trkpt><trkpt lat="45.11413425101959" lon="7.242450331322334"><ele>391.5</ele><time>2026-04-19T12:35:49Z</time></trkpt><trkpt lat="45.11402902429789" lon="7.242756235478505"><ele>391.0</ele><time>2026-04-19T12:35:50Z</time></trkpt><trkpt lat="45.113920306794995" lon="7.243061222194562"><ele>390.5</ele><time>2026-04-19T12:35:51Z</time></trkpt><trkpt lat="45.113816139088456" lon="7.24337312989108"><ele>390.0</ele><time>2026-04-19T12:35:52Z</time></trkpt><trkpt lat="45.11371520055191" lon="7.243688861623612"><ele>390.5</ele><time>2026-04-19T12:35:53Z</time></trkpt><trkpt lat="45.1136114290705" lon="7.243996981878069"><ele>391.0</ele><time>2026-04-19T12:35:54Z</time></trkpt><trkpt lat="45.11351031896701" lon="7.244294999381902"><ele>391.0</ele><time>2026-04-19T12:35:55Z</time></trkpt><trkpt lat="45.113411229450456" lon="7.244584715264581"><ele>391.0</ele><time>2026-04-19T12:35:56Z</time></trkpt><trkpt lat="45.11331937197787" lon="7.244859992626882"><ele>391.0</ele><time>2026-04-19T12:35:57Z</time></trkpt><trkpt lat="45.113230708983146" lon="7.2451220204847475"><ele>390.6666666666667</ele><time>2026-04-19T12:35:58Z</time></trkpt><trkpt lat="45.113135420777965" lon="7.245399681342701"><ele>390.33333333333337</ele><time>2026-04-19T12:35:59Z</time></trkpt><trkpt lat="45.11304180204723" lon="7.245678399174847"><ele>390.0</ele><time>2026-04-19T12:36:00Z</time></trkpt><trkpt lat="45.11294711604918" lon="7.245972334435303"><ele>390.0</ele><time>2026-04-19T12:36:01Z</time></trkpt><trkpt lat="45.11285002241324" lon="7.246276659219988"><ele>390.0</ele><time>2026-04-19T12:36:02Z</time></trkpt><trkpt lat="45.11274822437571" lon="7.246590205071767"><ele>390.0</ele><time>2026-04-19T12:36:03Z</time></trkpt><trkpt lat="45.112638526793404" lon="7.2469171924501685"><ele>390.0</ele><time>2026-04-19T12:36:04Z</time></trkpt><trkpt lat="45.112522467622725" lon="7.2472510817319264"><ele>390.0</ele><time>2026-04-19T12:36:05Z</time></trkpt><trkpt lat="45.1124009691733" lon="7.247590301013275"><ele>390.0</ele><time>2026-04-19T12:36:06Z</time></trkpt><trkpt lat="45.11227684820683" lon="7.24793342638722"><ele>389.0</ele><time>2026-04-19T12:36:07Z</time></trkpt><trkpt lat="45.1121553455947" lon="7.2482855401373145"><ele>388.0</ele><time>2026-04-19T12:36:08Z</time></trkpt><trkpt lat="45.11203992252996" lon="7.248629370106021"><ele>388.5</ele><time>2026-04-19T12:36:09Z</time></trkpt><trkpt lat="45.11192345652601" lon="7.248974770564888"><ele>389.0</ele><time>2026-04-19T12:36:10Z</time></trkpt><trkpt lat="45.11180544056037" lon="7.249321231970038"><ele>389.0</ele><time>2026-04-19T12:36:11Z</time></trkpt><trkpt lat="45.111685179009605" lon="7.249673687356355"><ele>389.0</ele><time>2026-04-19T12:36:12Z</time></trkpt><trkpt lat="45.11156408062121" lon="7.250025228009552"><ele>388.5</ele><time>2026-04-19T12:36:13Z</time></trkpt><trkpt lat="45.11144285695011" lon="7.250382536265061"><ele>388.0</ele><time>2026-04-19T12:36:14Z</time></trkpt><trkpt lat="45.11132003237833" lon="7.250740996654256"><ele>387.5</ele><time>2026-04-19T12:36:15Z</time></trkpt><trkpt lat="45.11119473795135" lon="7.251101372872121"><ele>387.0</ele><time>2026-04-19T12:36:16Z</time></trkpt><trkpt lat="45.11107143427044" lon="7.251461078230281"><ele>387.0</ele><time>2026-04-19T12:36:17Z</time></trkpt><trkpt lat="45.11094806361183" lon="7.251822241673634"><ele>387.0</ele><time>2026-04-19T12:36:18Z</time></trkpt><trkpt lat="45.11082338299964" lon="7.2521890261082165"><ele>386.5</ele><time>2026-04-19T12:36:19Z</time></trkpt><trkpt lat="45.11070075661834" lon="7.252552025601743"><ele>386.0</ele><time>2026-04-19T12:36:20Z</time></trkpt><trkpt lat="45.11057779391127" lon="7.252913838165084"><ele>386.0</ele><time>2026-04-19T12:36:21Z</time></trkpt><trkpt lat="45.11045545334125" lon="7.253269443616312"><ele>386.0</ele><time>2026-04-19T12:36:22Z</time></trkpt><trkpt lat="45.11033490766289" lon="7.253624533229954"><ele>385.5</ele><time>2026-04-19T12:36:23Z</time></trkpt><trkpt lat="45.110216071491855" lon="7.25397563925207"><ele>385.0</ele><time>2026-04-19T12:36:24Z</time></trkpt><trkpt lat="45.11009656299816" lon="7.254326886310038"><ele>385.0</ele><time>2026-04-19T12:36:25Z</time></trkpt><trkpt lat="45.109977368125506" lon="7.254678435940682"><ele>385.0</ele><time>2026-04-19T12:36:26Z</time></trkpt><trkpt lat="45.109859557598355" lon="7.255029338044374"><ele>385.5</ele><time>2026-04-19T12:36:27Z</time></trkpt><trkpt lat="45.10974049511547" lon="7.255379333782382"><ele>386.0</ele><time>2026-04-19T12:36:28Z</time></trkpt><trkpt lat="45.1096207232289" lon="7.255729832973531"><ele>386.5</ele><time>2026-04-19T12:36:29Z</time></trkpt><trkpt lat="45.10950144317773" lon="7.256081485204933"><ele>387.0</ele><time>2026-04-19T12:36:30Z</time></trkpt><trkpt lat="45.10938303473092" lon="7.256432027710617"><ele>387.0</ele><time>2026-04-19T12:36:31Z</time></trkpt><trkpt lat="45.10926740723312" lon="7.256768457284238"><ele>387.0</ele><time>2026-04-19T12:36:32Z</time></trkpt><trkpt lat="45.109161627121075" lon="7.257073140076361"><ele>386.33333333333337</ele><time>2026-04-19T12:36:33Z</time></trkpt><trkpt lat="45.10905770833091" lon="7.257354784821536"><ele>385.6666666666667</ele><time>2026-04-19T12:36:34Z</time></trkpt><trkpt lat="45.1089576008112" lon="7.257625173054813"><ele>385.0</ele><time>2026-04-19T12:36:35Z</time></trkpt><trkpt lat="45.108860565656165" lon="7.257916835781359"><ele>386.0</ele><time>2026-04-19T12:36:36Z</time></trkpt><trkpt lat="45.10876577781339" lon="7.25823771969989"><ele>387.0</ele><time>2026-04-19T12:36:37Z</time></trkpt><trkpt lat="45.108660783034" lon="7.258574262216035"><ele>387.0</ele><time>2026-04-19T12:36:38Z</time></trkpt><trkpt lat="45.10855232729084" lon="7.258907381182024"><ele>387.0</ele><time>2026-04-19T12:36:39Z</time></trkpt><trkpt lat="45.10845113663093" lon="7.259230058451281"><ele>386.5</ele><time>2026-04-19T12:36:40Z</time></trkpt><trkpt lat="45.10834688690115" lon="7.259545567662623"><ele>386.0</ele><time>2026-04-19T12:36:41Z</time></trkpt><trkpt lat="45.10823253093455" lon="7.25986372499343"><ele>386.0</ele><time>2026-04-19T12:36:42Z</time></trkpt><trkpt lat="45.108114570139726" lon="7.260183800392145"><ele>386.0</ele><time>2026-04-19T12:36:43Z</time></trkpt><trkpt lat="45.108000318980025" lon="7.2605000246617255"><ele>386.0</ele><time>2026-04-19T12:36:44Z</time></trkpt><trkpt lat="45.10789149985193" lon="7.260824916525921"><ele>386.0</ele><time>2026-04-19T12:36:45Z</time></trkpt><trkpt lat="45.10778631916629" lon="7.26113978905964"><ele>386.0</ele><time>2026-04-19T12:36:46Z</time></trkpt><trkpt lat="45.10768937839045" lon="7.261431005047093"><ele>386.0</ele><time>2026-04-19T12:36:47Z</time></trkpt><trkpt lat="45.10759616328873" lon="7.261696593642831"><ele>386.0</ele><time>2026-04-19T12:36:48Z</time></trkpt><trkpt lat="45.10750966426865" lon="7.26193747267802"><ele>385.66666666666663</ele><time>2026-04-19T12:36:49Z</time></trkpt><trkpt lat="45.10743062975209" lon="7.262161853705603"><ele>385.33333333333337</ele><time>2026-04-19T12:36:50Z</time></trkpt><trkpt lat="45.10735964011936" lon="7.262356809678112"><ele>385.0</ele><time>2026-04-19T12:36:51Z</time></trkpt><trkpt lat="45.10729366216609" lon="7.26251320954277"><ele>384.8</ele><time>2026-04-19T12:36:52Z</time></trkpt><trkpt lat="45.107222347873005" lon="7.2626245833835865"><ele>384.6</ele><time>2026-04-19T12:36:53Z</time></trkpt><trkpt lat="45.107132391397435" lon="7.262692338947531"><ele>384.4</ele><time>2026-04-19T12:36:54Z</time></trkpt><trkpt lat="45.107051270858484" lon="7.26275195203227"><ele>384.2</ele><time>2026-04-19T12:36:55Z</time></trkpt><trkpt lat="45.10701639717077" lon="7.262864616527652"><ele>384.0</ele><time>2026-04-19T12:36:56Z</time></trkpt><trkpt lat="45.107034286627034" lon="7.263007136551733"><ele>384.75</ele><time>2026-04-19T12:36:57Z</time></trkpt><trkpt lat="45.10709930038183" lon="7.263133153803526"><ele>385.5</ele><time>2026-04-19T12:36:58Z</time></trkpt><trkpt lat="45.10718587672591" lon="7.263253548970558"><ele>386.25</ele><time>2026-04-19T12:36:59Z</time></trkpt><trkpt lat="45.107248708111996" lon="7.2634177367151675"><ele>387.0</ele><time>2026-04-19T12:37:00Z</time></trkpt><trkpt lat="45.107269982540316" lon="7.263646554187397"><ele>387.0</ele><time>2026-04-19T12:37:01Z</time></trkpt><trkpt lat="45.10729548317859" lon="7.263902663881231"><ele>387.0</ele><time>2026-04-19T12:37:02Z</time></trkpt><trkpt lat="45.10732725606843" lon="7.264165891088524"><ele>387.0</ele><time>2026-04-19T12:37:03Z</time></trkpt><trkpt lat="45.10736878889903" lon="7.264440416223817"><ele>387.0</ele><time>2026-04-19T12:37:04Z</time></trkpt><trkpt lat="45.107409258215576" lon="7.264726003180502"><ele>387.0</ele><time>2026-04-19T12:37:05Z</time></trkpt><trkpt lat="45.107447085087585" lon="7.265019798394137"><ele>387.0</ele><time>2026-04-19T12:37:06Z</time></trkpt><trkpt lat="45.107489236499745" lon="7.265319593296523"><ele>385.3333333333333</ele><time>2026-04-19T12:37:07Z</time></trkpt><trkpt lat="45.10753398200734" lon="7.265621995577794"><ele>383.66666666666663</ele><time>2026-04-19T12:37:08Z</time></trkpt><trkpt lat="45.10757660735505" lon="7.265933170284996"><ele>382.0</ele><time>2026-04-19T12:37:09Z</time></trkpt><trkpt lat="45.10761811919939" lon="7.266250226203617"><ele>382.5</ele><time>2026-04-19T12:37:10Z</time></trkpt><trkpt lat="45.10766076988141" lon="7.2665690308967905"><ele>383.0</ele><time>2026-04-19T12:37:11Z</time></trkpt><trkpt lat="45.10770529723695" lon="7.266882020879927"><ele>383.0</ele><time>2026-04-19T12:37:12Z</time></trkpt><trkpt lat="45.10774863730716" lon="7.267200023125244"><ele>383.0</ele><time>2026-04-19T12:37:13Z</time></trkpt><trkpt lat="45.107790717765646" lon="7.267514091176625"><ele>383.0</ele><time>2026-04-19T12:37:14Z</time></trkpt><trkpt lat="45.107829450751964" lon="7.267798506205087"><ele>383.0</ele><time>2026-04-19T12:37:15Z</time></trkpt><trkpt lat="45.107864851521725" lon="7.26806334143258"><ele>383.0</ele><time>2026-04-19T12:37:16Z</time></trkpt><trkpt lat="45.10789874640093" lon="7.268304933198009"><ele>383.0</ele><time>2026-04-19T12:37:17Z</time></trkpt><trkpt lat="45.107926938993614" lon="7.268519962718327"><ele>383.0</ele><time>2026-04-19T12:37:18Z</time></trkpt><trkpt lat="45.10795298641268" lon="7.268715595435"><ele>383.0</ele><time>2026-04-19T12:37:19Z</time></trkpt><trkpt lat="45.10797569019791" lon="7.268890279546465"><ele>383.0</ele><time>2026-04-19T12:37:20Z</time></trkpt><trkpt lat="45.10799562265213" lon="7.269038719142449"><ele>383.1666666666667</ele><time>2026-04-19T12:37:21Z</time></trkpt><trkpt lat="45.10801070228056" lon="7.269157329064159"><ele>383.33333333333337</ele><time>2026-04-19T12:37:22Z</time></trkpt><trkpt lat="45.108026043617684" lon="7.269247987983831"><ele>383.5</ele><time>2026-04-19T12:37:23Z</time></trkpt><trkpt lat="45.1080431343936" lon="7.269373277007286"><ele>383.6666666666667</ele><time>2026-04-19T12:37:25Z</time></trkpt><trkpt lat="45.10805832091978" lon="7.2695199382487905"><ele>383.8333333333333</ele><time>2026-04-19T12:38:00Z</time></trkpt><trkpt lat="45.10807171121154" lon="7.26963861034772"><ele>384.0</ele><time>2026-04-19T12:38:01Z</time></trkpt><trkpt lat="45.10809527761124" lon="7.269791912048031"><ele>384.0</ele><time>2026-04-19T12:38:02Z</time></trkpt><trkpt lat="45.10811700213835" lon="7.269954495548038"><ele>384.0</ele><time>2026-04-19T12:38:03Z</time></trkpt><trkpt lat="45.10814324359177" lon="7.270145793943538"><ele>384.0</ele><time>2026-04-19T12:38:04Z</time></trkpt><trkpt lat="45.10817489502335" lon="7.270361033532005"><ele>384.0</ele><time>2026-04-19T12:38:05Z</time></trkpt><trkpt lat="45.10820650081939" lon="7.270596685707596"><ele>383.6666666666667</ele><time>2026-04-19T12:38:06Z</time></trkpt><trkpt lat="45.108246083346614" lon="7.270845356510581"><ele>383.33333333333337</ele><time>2026-04-19T12:38:07Z</time></trkpt><trkpt lat="45.10828043694816" lon="7.271091746559833"><ele>383.0</ele><time>2026-04-19T12:38:08Z</time></trkpt><trkpt lat="45.108317240592804" lon="7.271355107746142"><ele>383.6666666666667</ele><time>2026-04-19T12:38:09Z</time></trkpt><trkpt lat="45.1083560598175" lon="7.271633209321524"><ele>384.33333333333337</ele><time>2026-04-19T12:38:10Z</time></trkpt><trkpt lat="45.10839530109208" lon="7.271919404502508"><ele>385.0</ele><time>2026-04-19T12:38:11Z</time></trkpt><trkpt lat="45.108434598639974" lon="7.27219670086302"><ele>384.33333333333337</ele><time>2026-04-19T12:38:12Z</time></trkpt><trkpt lat="45.10847407056324" lon="7.2724792105197205"><ele>383.6666666666667</ele><time>2026-04-19T12:38:13Z</time></trkpt><trkpt lat="45.10851112767932" lon="7.272767500525629"><ele>383.0</ele><time>2026-04-19T12:38:14Z</time></trkpt><trkpt lat="45.10854472417097" lon="7.27305298549192"><ele>382.6666666666667</ele><time>2026-04-19T12:38:15Z</time></trkpt><trkpt lat="45.10857330018305" lon="7.273342504698015"><ele>382.3333333333333</ele><time>2026-04-19T12:38:16Z</time></trkpt><trkpt lat="45.10859675921697" lon="7.273629110567316"><ele>382.0</ele><time>2026-04-19T12:38:17Z</time></trkpt><trkpt lat="45.10860722408529" lon="7.273899828122361"><ele>382.66666666666663</ele><time>2026-04-19T12:38:18Z</time></trkpt><trkpt lat="45.10860781800722" lon="7.274155953888827"><ele>383.3333333333333</ele><time>2026-04-19T12:38:19Z</time></trkpt><trkpt lat="45.108607248466036" lon="7.274402331489989"><ele>384.0</ele><time>2026-04-19T12:38:20Z</time></trkpt><trkpt lat="45.10859806181505" lon="7.274628752754844"><ele>384.25</ele><time>2026-04-19T12:38:21Z</time></trkpt><trkpt lat="45.1085857218434" lon="7.274838442095561"><ele>384.5</ele><time>2026-04-19T12:38:22Z</time></trkpt><trkpt lat="45.1085758593195" lon="7.275024176391364"><ele>384.75</ele><time>2026-04-19T12:38:23Z</time></trkpt><trkpt lat="45.1085663078577" lon="7.2751923661949505"><ele>385.0</ele><time>2026-04-19T12:38:24Z</time></trkpt><trkpt lat="45.10855970047596" lon="7.275337921917021"><ele>385.00000000000006</ele><time>2026-04-19T12:38:25Z</time></trkpt><trkpt lat="45.10854700690195" lon="7.2754707190181245"><ele>385.0</ele><time>2026-04-19T12:38:26Z</time></trkpt><trkpt lat="45.1085524556899" lon="7.275569153617617"><ele>385.0</ele><time>2026-04-19T12:38:27Z</time></trkpt><trkpt lat="45.10854992699521" lon="7.275665515906995"><ele>385.0</ele><time>2026-04-19T12:38:29Z</time></trkpt><trkpt lat="45.10854397798207" lon="7.275785751316485"><ele>385.00000000000006</ele><time>2026-04-19T12:38:35Z</time></trkpt><trkpt lat="45.108540548587634" lon="7.275907226750734"><ele>385.0</ele><time>2026-04-19T12:38:36Z</time></trkpt><trkpt lat="45.10852529476609" lon="7.276054205088756"><ele>385.0</ele><time>2026-04-19T12:38:37Z</time></trkpt><trkpt lat="45.10851213178572" lon="7.276231060029649"><ele>385.0</ele><time>2026-04-19T12:38:38Z</time></trkpt><trkpt lat="45.10850514257915" lon="7.276409765617105"><ele>385.0</ele><time>2026-04-19T12:38:39Z</time></trkpt><trkpt lat="45.10849066126518" lon="7.27661783028106"><ele>385.0</ele><time>2026-04-19T12:38:40Z</time></trkpt><trkpt lat="45.108463015489114" lon="7.276844207380979"><ele>384.33333333333337</ele><time>2026-04-19T12:38:41Z</time></trkpt><trkpt lat="45.10842219479829" lon="7.277074874149953"><ele>383.6666666666667</ele><time>2026-04-19T12:38:42Z</time></trkpt><trkpt lat="45.10836910815037" lon="7.277295636488953"><ele>383.0</ele><time>2026-04-19T12:38:43Z</time></trkpt><trkpt lat="45.108304079814985" lon="7.277523114393001"><ele>382.6666666666667</ele><time>2026-04-19T12:38:44Z</time></trkpt><trkpt lat="45.10823106872566" lon="7.277759681753306"><ele>382.3333333333333</ele><time>2026-04-19T12:38:45Z</time></trkpt><trkpt lat="45.10816277329242" lon="7.278005830858257"><ele>382.0</ele><time>2026-04-19T12:38:46Z</time></trkpt><trkpt lat="45.108096706610496" lon="7.278255809890814"><ele>381.66666666666663</ele><time>2026-04-19T12:38:47Z</time></trkpt><trkpt lat="45.10803333226828" lon="7.278502498261974"><ele>381.3333333333333</ele><time>2026-04-19T12:38:48Z</time></trkpt><trkpt lat="45.10798720051938" lon="7.278759435952501"><ele>381.0</ele><time>2026-04-19T12:38:49Z</time></trkpt><trkpt lat="45.10794949931472" lon="7.279020869363599"><ele>381.0</ele><time>2026-04-19T12:38:50Z</time></trkpt><trkpt lat="45.10792723186251" lon="7.279268362530103"><ele>381.0</ele><time>2026-04-19T12:38:51Z</time></trkpt><trkpt lat="45.10791031621868" lon="7.279498351636792"><ele>381.0</ele><time>2026-04-19T12:38:52Z</time></trkpt><trkpt lat="45.10789746585518" lon="7.279713687540977"><ele>381.0</ele><time>2026-04-19T12:38:53Z</time></trkpt><trkpt lat="45.10788265812083" lon="7.279932551270336"><ele>381.0</ele><time>2026-04-19T12:38:54Z</time></trkpt><trkpt lat="45.10787548833535" lon="7.280153711471253"><ele>381.0</ele><time>2026-04-19T12:38:55Z</time></trkpt><trkpt lat="45.10787133848559" lon="7.280369874488818"><ele>381.0</ele><time>2026-04-19T12:38:56Z</time></trkpt><trkpt lat="45.10786514281539" lon="7.280582492499426"><ele>381.0</ele><time>2026-04-19T12:38:57Z</time></trkpt><trkpt lat="45.10785906691364" lon="7.28079021480291"><ele>381.0</ele><time>2026-04-19T12:38:58Z</time></trkpt><trkpt lat="45.107856090519526" lon="7.280982814238351"><ele>381.0</ele><time>2026-04-19T12:38:59Z</time></trkpt><trkpt lat="45.10785479330793" lon="7.281144510514617"><ele>381.0</ele><time>2026-04-19T12:39:00Z</time></trkpt><trkpt lat="45.10785583852593" lon="7.281249420983623"><ele>381.0</ele><time>2026-04-19T12:39:01Z</time></trkpt><trkpt lat="45.107853064770445" lon="7.281417209868048"><ele>381.0</ele><time>2026-04-19T12:39:03Z</time></trkpt><trkpt lat="45.107849495047134" lon="7.281563254398167"><ele>381.0</ele><time>2026-04-19T12:39:05Z</time></trkpt><trkpt lat="45.107847011016624" lon="7.2817159962685905"><ele>381.0</ele><time>2026-04-19T12:39:07Z</time></trkpt><trkpt lat="45.107824824564226" lon="7.281881300956475"><ele>381.0</ele><time>2026-04-19T12:39:09Z</time></trkpt><trkpt lat="45.10782032490969" lon="7.281982870242653"><ele>381.0</ele><time>2026-04-19T12:39:10Z</time></trkpt><trkpt lat="45.10782874616888" lon="7.282094454234514"><ele>381.0</ele><time>2026-04-19T12:39:11Z</time></trkpt><trkpt lat="45.107812927992825" lon="7.282211254927805"><ele>381.0</ele><time>2026-04-19T12:39:12Z</time></trkpt><trkpt lat="45.10779809574267" lon="7.282334254073421"><ele>381.0</ele><time>2026-04-19T12:39:13Z</time></trkpt><trkpt lat="45.10778654243793" lon="7.282461677434891"><ele>381.0</ele><time>2026-04-19T12:39:14Z</time></trkpt><trkpt lat="45.10777549862945" lon="7.282602615096209"><ele>380.6</ele><time>2026-04-19T12:39:15Z</time></trkpt><trkpt lat="45.10776788582448" lon="7.282739594432979"><ele>380.20000000000005</ele><time>2026-04-19T12:39:16Z</time></trkpt><trkpt lat="45.107759440673995" lon="7.282879854961106"><ele>379.79999999999995</ele><time>2026-04-19T12:39:17Z</time></trkpt><trkpt lat="45.107757051265594" lon="7.283011473176506"><ele>379.4</ele><time>2026-04-19T12:39:18Z</time></trkpt><trkpt lat="45.10775683268968" lon="7.283153551368727"><ele>379.0</ele><time>2026-04-19T12:39:19Z</time></trkpt><trkpt lat="45.10775019598091" lon="7.283291524512895"><ele>378.75</ele><time>2026-04-19T12:39:20Z</time></trkpt><trkpt lat="45.107745123697676" lon="7.283450902755784"><ele>378.5</ele><time>2026-04-19T12:39:21Z</time></trkpt><trkpt lat="45.10773734311331" lon="7.283611578134166"><ele>378.25</ele><time>2026-04-19T12:39:22Z</time></trkpt><trkpt lat="45.10773197341021" lon="7.283768845044946"><ele>378.0</ele><time>2026-04-19T12:39:23Z</time></trkpt><trkpt lat="45.107724987584916" lon="7.283946438589909"><ele>377.75</ele><time>2026-04-19T12:39:24Z</time></trkpt><trkpt lat="45.10771781179583" lon="7.2841315673179805"><ele>377.5</ele><time>2026-04-19T12:39:25Z</time></trkpt><trkpt lat="45.10771119367063" lon="7.284323291456182"><ele>377.25</ele><time>2026-04-19T12:39:26Z</time></trkpt><trkpt lat="45.10770498260733" lon="7.284539227802932"><ele>377.0</ele><time>2026-04-19T12:39:27Z</time></trkpt><trkpt lat="45.107696749869376" lon="7.2847892482059"><ele>376.6666666666667</ele><time>2026-04-19T12:39:28Z</time></trkpt><trkpt lat="45.10768278845786" lon="7.285041009345726"><ele>376.3333333333333</ele><time>2026-04-19T12:39:29Z</time></trkpt><trkpt lat="45.107669701716304" lon="7.285287210607662"><ele>376.0</ele><time>2026-04-19T12:39:30Z</time></trkpt><trkpt lat="45.10765939694911" lon="7.285519303024764"><ele>376.0</ele><time>2026-04-19T12:39:31Z</time></trkpt><trkpt lat="45.10764934109546" lon="7.285748882197711"><ele>376.0</ele><time>2026-04-19T12:39:32Z</time></trkpt><trkpt lat="45.1076369851523" lon="7.285979314117247"><ele>376.0</ele><time>2026-04-19T12:39:33Z</time></trkpt><trkpt lat="45.10762698924574" lon="7.286210525097494"><ele>376.3333333333333</ele><time>2026-04-19T12:39:34Z</time></trkpt><trkpt lat="45.10761639504046" lon="7.286439609319858"><ele>376.6666666666667</ele><time>2026-04-19T12:39:35Z</time></trkpt><trkpt lat="45.10760565447717" lon="7.286672007146362"><ele>377.0</ele><time>2026-04-19T12:39:36Z</time></trkpt><trkpt lat="45.107594805028945" lon="7.286901446648561"><ele>377.0</ele><time>2026-04-19T12:39:37Z</time></trkpt><trkpt lat="45.107585931330505" lon="7.287133821152417"><ele>377.0</ele><time>2026-04-19T12:39:38Z</time></trkpt><trkpt lat="45.107572866771704" lon="7.287352803487815"><ele>377.0</ele><time>2026-04-19T12:39:39Z</time></trkpt><trkpt lat="45.10756557471512" lon="7.2875639685245375"><ele>377.0</ele><time>2026-04-19T12:39:40Z</time></trkpt><trkpt lat="45.107558666115516" lon="7.287775320831866"><ele>377.0</ele><time>2026-04-19T12:39:41Z</time></trkpt><trkpt lat="45.107551644232274" lon="7.287969825802493"><ele>377.0</ele><time>2026-04-19T12:39:42Z</time></trkpt><trkpt lat="45.10754302826086" lon="7.288144467408785"><ele>377.0</ele><time>2026-04-19T12:39:43Z</time></trkpt><trkpt lat="45.107534189353316" lon="7.28830222755788"><ele>377.0</ele><time>2026-04-19T12:39:44Z</time></trkpt><trkpt lat="45.107523351386014" lon="7.288439952655354"><ele>377.0</ele><time>2026-04-19T12:39:45Z</time></trkpt><trkpt lat="45.10750724169887" lon="7.288567223893036"><ele>377.0</ele><time>2026-04-19T12:39:46Z</time></trkpt><trkpt lat="45.10749437797874" lon="7.288677808806583"><ele>377.0</ele><time>2026-04-19T12:39:47Z</time></trkpt><trkpt lat="45.10747998596458" lon="7.2887760095192675"><ele>377.0</ele><time>2026-04-19T12:39:48Z</time></trkpt><trkpt lat="45.10745292345591" lon="7.288857870758351"><ele>377.0</ele><time>2026-04-19T12:39:49Z</time></trkpt><trkpt lat="45.107379067997236" lon="7.289003185141918"><ele>376.99999999999994</ele><time>2026-04-19T12:39:51Z</time></trkpt><trkpt lat="45.10734927351978" lon="7.2890914685512085"><ele>377.0</ele><time>2026-04-19T12:39:52Z</time></trkpt><trkpt lat="45.107343671384136" lon="7.2891811830915465"><ele>377.0</ele><time>2026-04-19T12:39:53Z</time></trkpt><trkpt lat="45.10735884561291" lon="7.289280343416982"><ele>377.0</ele><time>2026-04-19T12:39:54Z</time></trkpt><trkpt lat="45.107391915349766" lon="7.2893703888794725"><ele>377.0</ele><time>2026-04-19T12:39:55Z</time></trkpt><trkpt lat="45.1074247940616" lon="7.289462383090506"><ele>376.99999999999994</ele><time>2026-04-19T12:39:56Z</time></trkpt><trkpt lat="45.10744817659788" lon="7.289568833434649"><ele>377.0</ele><time>2026-04-19T12:39:57Z</time></trkpt><trkpt lat="45.1074560846604" lon="7.28968536608287"><ele>377.20000000000005</ele><time>2026-04-19T12:39:58Z</time></trkpt><trkpt lat="45.10745794492774" lon="7.289805203447962"><ele>377.4</ele><time>2026-04-19T12:39:59Z</time></trkpt><trkpt lat="45.107457042661316" lon="7.2899373851715845"><ele>377.6</ele><time>2026-04-19T12:40:00Z</time></trkpt><trkpt lat="45.107452909935134" lon="7.2900780981846545"><ele>377.79999999999995</ele><time>2026-04-19T12:40:01Z</time></trkpt><trkpt lat="45.107447126319116" lon="7.29022209615133"><ele>378.0</ele><time>2026-04-19T12:40:02Z</time></trkpt><trkpt lat="45.1074370381901" lon="7.290380661950079"><ele>378.0</ele><time>2026-04-19T12:40:03Z</time></trkpt><trkpt lat="45.107431124410894" lon="7.290543819843583"><ele>378.0</ele><time>2026-04-19T12:40:04Z</time></trkpt><trkpt lat="45.10742627525384" lon="7.290707814044135"><ele>378.0</ele><time>2026-04-19T12:40:05Z</time></trkpt><trkpt lat="45.10741907770239" lon="7.290880651993775"><ele>378.0</ele><time>2026-04-19T12:40:06Z</time></trkpt><trkpt lat="45.10741324776203" lon="7.291055669513238"><ele>377.0</ele><time>2026-04-19T12:40:07Z</time></trkpt><trkpt lat="45.1074038185426" lon="7.291236746107731"><ele>376.0</ele><time>2026-04-19T12:40:08Z</time></trkpt><trkpt lat="45.10739320579498" lon="7.291417610218812"><ele>375.0</ele><time>2026-04-19T12:40:09Z</time></trkpt><trkpt lat="45.10738549894099" lon="7.291611304728517"><ele>374.0</ele><time>2026-04-19T12:40:10Z</time></trkpt><trkpt lat="45.1073769333888" lon="7.291805364210568"><ele>374.0</ele><time>2026-04-19T12:40:11Z</time></trkpt><trkpt lat="45.107370640339646" lon="7.292005862360784"><ele>374.0</ele><time>2026-04-19T12:40:12Z</time></trkpt><trkpt lat="45.10736308087625" lon="7.29220877909686"><ele>374.0</ele><time>2026-04-19T12:40:13Z</time></trkpt><trkpt lat="45.10735077507973" lon="7.2924246250288896"><ele>374.0</ele><time>2026-04-19T12:40:14Z</time></trkpt><trkpt lat="45.10733893525198" lon="7.292629813458311"><ele>374.0</ele><time>2026-04-19T12:40:15Z</time></trkpt><trkpt lat="45.107329047494716" lon="7.292832747619823"><ele>374.0</ele><time>2026-04-19T12:40:16Z</time></trkpt><trkpt lat="45.10731864023651" lon="7.293053109925357"><ele>374.0</ele><time>2026-04-19T12:40:17Z</time></trkpt><trkpt lat="45.107307337048084" lon="7.293278096965973"><ele>374.0</ele><time>2026-04-19T12:40:18Z</time></trkpt><trkpt lat="45.10729906863463" lon="7.293508868948934"><ele>374.0</ele><time>2026-04-19T12:40:19Z</time></trkpt><trkpt lat="45.107290818749895" lon="7.293744137980076"><ele>374.0</ele><time>2026-04-19T12:40:20Z</time></trkpt><trkpt lat="45.10728080301999" lon="7.293980802152951"><ele>373.6666666666667</ele><time>2026-04-19T12:40:21Z</time></trkpt><trkpt lat="45.10727244664939" lon="7.294212766485382"><ele>373.3333333333333</ele><time>2026-04-19T12:40:22Z</time></trkpt><trkpt lat="45.10726422489253" lon="7.294442228287986"><ele>373.0</ele><time>2026-04-19T12:40:23Z</time></trkpt><trkpt lat="45.10725306070503" lon="7.294667864969499"><ele>373.0</ele><time>2026-04-19T12:40:24Z</time></trkpt><trkpt lat="45.10724258328669" lon="7.294897231960742"><ele>373.0</ele><time>2026-04-19T12:40:25Z</time></trkpt><trkpt lat="45.107231448312554" lon="7.295119577904736"><ele>373.0</ele><time>2026-04-19T12:40:26Z</time></trkpt><trkpt lat="45.107221205344835" lon="7.295334035665022"><ele>373.0</ele><time>2026-04-19T12:40:27Z</time></trkpt><trkpt lat="45.10721337634237" lon="7.295554088823169"><ele>373.0</ele><time>2026-04-19T12:40:28Z</time></trkpt><trkpt lat="45.10720399984196" lon="7.295773249094835"><ele>373.0</ele><time>2026-04-19T12:40:29Z</time></trkpt><trkpt lat="45.10719335783509" lon="7.295986939681591"><ele>373.0</ele><time>2026-04-19T12:40:30Z</time></trkpt><trkpt lat="45.10718255648302" lon="7.296201114724779"><ele>373.0</ele><time>2026-04-19T12:40:31Z</time></trkpt><trkpt lat="45.10717183310936" lon="7.296418588652647"><ele>373.0</ele><time>2026-04-19T12:40:32Z</time></trkpt><trkpt lat="45.10716128959475" lon="7.2966372889873545"><ele>373.0</ele><time>2026-04-19T12:40:33Z</time></trkpt><trkpt lat="45.10715278738822" lon="7.296862035281196"><ele>373.0</ele><time>2026-04-19T12:40:34Z</time></trkpt><trkpt lat="45.10714658950189" lon="7.297086328855197"><ele>373.0</ele><time>2026-04-19T12:40:35Z</time></trkpt><trkpt lat="45.10713601717785" lon="7.297334134167647"><ele>373.3333333333333</ele><time>2026-04-19T12:40:36Z</time></trkpt><trkpt lat="45.1071206119981" lon="7.2975967276244305"><ele>373.6666666666667</ele><time>2026-04-19T12:40:37Z</time></trkpt><trkpt lat="45.10710449941171" lon="7.2978808499696415"><ele>374.0</ele><time>2026-04-19T12:40:38Z</time></trkpt><trkpt lat="45.10709390736182" lon="7.298176885782528"><ele>373.6666666666667</ele><time>2026-04-19T12:40:39Z</time></trkpt><trkpt lat="45.10708073427008" lon="7.298486397853214"><ele>373.3333333333333</ele><time>2026-04-19T12:40:40Z</time></trkpt><trkpt lat="45.10706659749239" lon="7.29881042882198"><ele>373.0</ele><time>2026-04-19T12:40:41Z</time></trkpt><trkpt lat="45.10705379589633" lon="7.299142196072735"><ele>373.0</ele><time>2026-04-19T12:40:42Z</time></trkpt><trkpt lat="45.107041879625335" lon="7.299476100475207"><ele>373.0</ele><time>2026-04-19T12:40:43Z</time></trkpt><trkpt lat="45.10702676028457" lon="7.299813820401477"><ele>373.5</ele><time>2026-04-19T12:40:44Z</time></trkpt><trkpt lat="45.10700723576983" lon="7.300150003426229"><ele>374.0</ele><time>2026-04-19T12:40:45Z</time></trkpt><trkpt lat="45.106988227394616" lon="7.300479985550366"><ele>373.5</ele><time>2026-04-19T12:40:46Z</time></trkpt><trkpt lat="45.10696610777057" lon="7.300815963919356"><ele>373.0</ele><time>2026-04-19T12:40:47Z</time></trkpt><trkpt lat="45.10694473898285" lon="7.301153141099727"><ele>373.0</ele><time>2026-04-19T12:40:48Z</time></trkpt><trkpt lat="45.10693000027705" lon="7.3014958916943336"><ele>373.0</ele><time>2026-04-19T12:40:49Z</time></trkpt><trkpt lat="45.10691590086301" lon="7.3018421782682985"><ele>373.0</ele><time>2026-04-19T12:40:50Z</time></trkpt><trkpt lat="45.106899003621706" lon="7.302192160934637"><ele>373.0</ele><time>2026-04-19T12:40:51Z</time></trkpt><trkpt lat="45.10688367797431" lon="7.302541924939736"><ele>373.0</ele><time>2026-04-19T12:40:52Z</time></trkpt><trkpt lat="45.10686829613549" lon="7.302890562497353"><ele>373.0</ele><time>2026-04-19T12:40:53Z</time></trkpt><trkpt lat="45.10685016722069" lon="7.303233841989604"><ele>373.5</ele><time>2026-04-19T12:40:54Z</time></trkpt><trkpt lat="45.10683281672706" lon="7.3035736780990295"><ele>374.0</ele><time>2026-04-19T12:40:55Z</time></trkpt><trkpt lat="45.106815386698536" lon="7.303913769767816"><ele>374.5</ele><time>2026-04-19T12:40:56Z</time></trkpt><trkpt lat="45.1068004069916" lon="7.304250631888966"><ele>375.0</ele><time>2026-04-19T12:40:57Z</time></trkpt><trkpt lat="45.10678507670637" lon="7.304585934833747"><ele>374.5</ele><time>2026-04-19T12:40:58Z</time></trkpt><trkpt lat="45.10676792248881" lon="7.304922826076648"><ele>374.0</ele><time>2026-04-19T12:40:59Z</time></trkpt><trkpt lat="45.106749448482006" lon="7.305257371806639"><ele>372.5</ele><time>2026-04-19T12:41:00Z</time></trkpt><trkpt lat="45.106733200075375" lon="7.305589555973801"><ele>371.0</ele><time>2026-04-19T12:41:01Z</time></trkpt><trkpt lat="45.106714668736736" lon="7.305920025350551"><ele>371.0</ele><time>2026-04-19T12:41:02Z</time></trkpt><trkpt lat="45.106698225327875" lon="7.306249912929103"><ele>371.0</ele><time>2026-04-19T12:41:03Z</time></trkpt><trkpt lat="45.10668238560417" lon="7.3065762913534895"><ele>370.5</ele><time>2026-04-19T12:41:04Z</time></trkpt><trkpt lat="45.10666296925736" lon="7.306906092324961"><ele>370.0</ele><time>2026-04-19T12:41:05Z</time></trkpt><trkpt lat="45.1066439975554" lon="7.307240463195481"><ele>370.0</ele><time>2026-04-19T12:41:06Z</time></trkpt><trkpt lat="45.10662874689826" lon="7.307569997663078"><ele>370.0</ele><time>2026-04-19T12:41:07Z</time></trkpt><trkpt lat="45.10661277824563" lon="7.307898372106437"><ele>370.0</ele><time>2026-04-19T12:41:08Z</time></trkpt><trkpt lat="45.106597451868694" lon="7.308223924218717"><ele>370.0</ele><time>2026-04-19T12:41:09Z</time></trkpt><trkpt lat="45.10658016055657" lon="7.308550368577253"><ele>369.66666666666663</ele><time>2026-04-19T12:41:10Z</time></trkpt><trkpt lat="45.10656074558445" lon="7.308867951651489"><ele>369.3333333333333</ele><time>2026-04-19T12:41:11Z</time></trkpt><trkpt lat="45.10654447840556" lon="7.309163116245726"><ele>369.0</ele><time>2026-04-19T12:41:12Z</time></trkpt><trkpt lat="45.106529810651516" lon="7.30944495051083"><ele>369.6666666666667</ele><time>2026-04-19T12:41:13Z</time></trkpt><trkpt lat="45.10651406308056" lon="7.3097089811543094"><ele>370.33333333333337</ele><time>2026-04-19T12:41:14Z</time></trkpt><trkpt lat="45.10649894262943" lon="7.309962458645777"><ele>371.0</ele><time>2026-04-19T12:41:15Z</time></trkpt><trkpt lat="45.1064857655077" lon="7.310206983824368"><ele>371.0</ele><time>2026-04-19T12:41:16Z</time></trkpt><trkpt lat="45.10647609762642" lon="7.310434267844982"><ele>371.0</ele><time>2026-04-19T12:41:17Z</time></trkpt><trkpt lat="45.1064657324201" lon="7.3106263958505515"><ele>371.0</ele><time>2026-04-19T12:41:18Z</time></trkpt><trkpt lat="45.106447781506375" lon="7.310792682796976"><ele>371.0</ele><time>2026-04-19T12:41:19Z</time></trkpt><trkpt lat="45.10641678277705" lon="7.310950751896299"><ele>370.8</ele><time>2026-04-19T12:41:20Z</time></trkpt><trkpt lat="45.1063664090812" lon="7.311077583672888"><ele>370.6</ele><time>2026-04-19T12:41:21Z</time></trkpt><trkpt lat="45.106306479832014" lon="7.311175553037621"><ele>370.4</ele><time>2026-04-19T12:41:22Z</time></trkpt><trkpt lat="45.106291143985565" lon="7.311307971041781"><ele>370.2</ele><time>2026-04-19T12:41:23Z</time></trkpt><trkpt lat="45.10630080457231" lon="7.311430682461099"><ele>370.0</ele><time>2026-04-19T12:41:24Z</time></trkpt><trkpt lat="45.106337058547325" lon="7.311560375518739"><ele>370.25</ele><time>2026-04-19T12:41:25Z</time></trkpt><trkpt lat="45.1064075533178" lon="7.311683723800773"><ele>370.5</ele><time>2026-04-19T12:41:26Z</time></trkpt><trkpt lat="45.10640218796175" lon="7.311861441506946"><ele>370.75</ele><time>2026-04-19T12:41:27Z</time></trkpt><trkpt lat="45.10639843883902" lon="7.312053239895011"><ele>371.0</ele><time>2026-04-19T12:41:28Z</time></trkpt><trkpt lat="45.1063862426347" lon="7.312247224705518"><ele>371.0</ele><time>2026-04-19T12:41:29Z</time></trkpt><trkpt lat="45.10637375105727" lon="7.312450656970599"><ele>371.0</ele><time>2026-04-19T12:41:30Z</time></trkpt><trkpt lat="45.10636214677778" lon="7.312656801701651"><ele>371.0</ele><time>2026-04-19T12:41:31Z</time></trkpt><trkpt lat="45.106351095006396" lon="7.31296840046983"><ele>370.0</ele><time>2026-04-19T12:41:32Z</time></trkpt><trkpt lat="45.106341179250705" lon="7.313225131973259"><ele>369.0</ele><time>2026-04-19T12:41:33Z</time></trkpt><trkpt lat="45.10633188071958" lon="7.313492960829904"><ele>368.0</ele><time>2026-04-19T12:41:34Z</time></trkpt><trkpt lat="45.1063193719344" lon="7.313769857220851"><ele>368.33333333333337</ele><time>2026-04-19T12:41:35Z</time></trkpt><trkpt lat="45.10630309301454" lon="7.314051960300832"><ele>368.6666666666667</ele><time>2026-04-19T12:41:36Z</time></trkpt><trkpt lat="45.10628654789628" lon="7.314341807313287"><ele>369.0</ele><time>2026-04-19T12:41:37Z</time></trkpt><trkpt lat="45.10627033307553" lon="7.314625463223097"><ele>369.0</ele><time>2026-04-19T12:41:38Z</time></trkpt><trkpt lat="45.106252893079116" lon="7.314904057246995"><ele>369.0</ele><time>2026-04-19T12:41:39Z</time></trkpt><trkpt lat="45.106236891938366" lon="7.315185731726771"><ele>369.0</ele><time>2026-04-19T12:41:40Z</time></trkpt><trkpt lat="45.10622017910512" lon="7.315469554323035"><ele>368.6666666666667</ele><time>2026-04-19T12:41:41Z</time></trkpt><trkpt lat="45.10620434052392" lon="7.315763028957202"><ele>368.33333333333337</ele><time>2026-04-19T12:41:42Z</time></trkpt><trkpt lat="45.10618939337666" lon="7.316056296476446"><ele>368.0</ele><time>2026-04-19T12:41:43Z</time></trkpt><trkpt lat="45.106171487355205" lon="7.316361638306121"><ele>368.0</ele><time>2026-04-19T12:41:44Z</time></trkpt><trkpt lat="45.10615045470727" lon="7.316665410337153"><ele>368.0</ele><time>2026-04-19T12:41:45Z</time></trkpt><trkpt lat="45.106138634834934" lon="7.316974596607192"><ele>368.0</ele><time>2026-04-19T12:41:46Z</time></trkpt><trkpt lat="45.106129713529874" lon="7.317294013096845"><ele>368.0</ele><time>2026-04-19T12:41:47Z</time></trkpt><trkpt lat="45.1061142970383" lon="7.317609028707699"><ele>368.0</ele><time>2026-04-19T12:41:48Z</time></trkpt><trkpt lat="45.10609548325897" lon="7.317919780815495"><ele>368.0</ele><time>2026-04-19T12:41:49Z</time></trkpt><trkpt lat="45.10607580079529" lon="7.318229345599962"><ele>368.33333333333337</ele><time>2026-04-19T12:41:50Z</time></trkpt><trkpt lat="45.106062254508856" lon="7.318531301812924"><ele>368.6666666666667</ele><time>2026-04-19T12:41:51Z</time></trkpt><trkpt lat="45.10605239375316" lon="7.318832414051201"><ele>369.0</ele><time>2026-04-19T12:41:52Z</time></trkpt><trkpt lat="45.10603591656383" lon="7.319131284752911"><ele>369.0</ele><time>2026-04-19T12:41:53Z</time></trkpt><trkpt lat="45.10602180674707" lon="7.3194278258354935"><ele>369.0</ele><time>2026-04-19T12:41:54Z</time></trkpt><trkpt lat="45.10601057542042" lon="7.319724109679379"><ele>369.0</ele><time>2026-04-19T12:41:55Z</time></trkpt><trkpt lat="45.10599482446469" lon="7.320018730324903"><ele>369.0</ele><time>2026-04-19T12:41:56Z</time></trkpt><trkpt lat="45.105979006604116" lon="7.320318661627256"><ele>369.0</ele><time>2026-04-19T12:41:57Z</time></trkpt><trkpt lat="45.10595758100923" lon="7.320619970995488"><ele>369.0</ele><time>2026-04-19T12:41:58Z</time></trkpt><trkpt lat="45.10594153179124" lon="7.320926223574749"><ele>369.0</ele><time>2026-04-19T12:41:59Z</time></trkpt><trkpt lat="45.105927516466316" lon="7.321230837499163"><ele>369.0</ele><time>2026-04-19T12:42:00Z</time></trkpt><trkpt lat="45.10591279764053" lon="7.321533006307094"><ele>369.0</ele><time>2026-04-19T12:42:01Z</time></trkpt><trkpt lat="45.10589570972608" lon="7.321830878657058"><ele>368.6666666666667</ele><time>2026-04-19T12:42:02Z</time></trkpt><trkpt lat="45.1058788872573" lon="7.322120928744639"><ele>368.33333333333337</ele><time>2026-04-19T12:42:03Z</time></trkpt><trkpt lat="45.105864957355344" lon="7.322395551313913"><ele>368.0</ele><time>2026-04-19T12:42:04Z</time></trkpt><trkpt lat="45.105850241780836" lon="7.322677011060146"><ele>368.0</ele><time>2026-04-19T12:42:05Z</time></trkpt><trkpt lat="45.105839628510516" lon="7.322949959570853"><ele>368.0</ele><time>2026-04-19T12:42:06Z</time></trkpt><trkpt lat="45.10582359947997" lon="7.323223340219943"><ele>368.0</ele><time>2026-04-19T12:42:07Z</time></trkpt><trkpt lat="45.105809244928096" lon="7.32348811209058"><ele>368.0</ele><time>2026-04-19T12:42:08Z</time></trkpt><trkpt lat="45.10579577054912" lon="7.323737977514122"><ele>368.0</ele><time>2026-04-19T12:42:09Z</time></trkpt><trkpt lat="45.1057808404153" lon="7.323970195567557"><ele>368.0</ele><time>2026-04-19T12:42:10Z</time></trkpt><trkpt lat="45.10577157096345" lon="7.32418687055954"><ele>367.79999999999995</ele><time>2026-04-19T12:42:11Z</time></trkpt><trkpt lat="45.105763036877676" lon="7.324379638936825"><ele>367.6</ele><time>2026-04-19T12:42:12Z</time></trkpt><trkpt lat="45.10575462974131" lon="7.324541059245985"><ele>367.4</ele><time>2026-04-19T12:42:13Z</time></trkpt><trkpt lat="45.10574549846532" lon="7.324672400914294"><ele>367.20000000000005</ele><time>2026-04-19T12:42:14Z</time></trkpt><trkpt lat="45.1057426029097" lon="7.32476872521519"><ele>367.0</ele><time>2026-04-19T12:42:15Z</time></trkpt><trkpt lat="45.105743245250125" lon="7.324899022583473"><ele>367.16666666666663</ele><time>2026-04-19T12:42:17Z</time></trkpt><trkpt lat="45.10573528593036" lon="7.324990169824446"><ele>367.3333333333333</ele><time>2026-04-19T12:42:20Z</time></trkpt><trkpt lat="45.105734972437766" lon="7.325100926529972"><ele>367.5</ele><time>2026-04-19T12:42:35Z</time></trkpt><trkpt lat="45.10572706269311" lon="7.325222821547539"><ele>367.6666666666667</ele><time>2026-04-19T12:42:36Z</time></trkpt><trkpt lat="45.10571676720357" lon="7.325372568379115"><ele>367.83333333333337</ele><time>2026-04-19T12:42:37Z</time></trkpt><trkpt lat="45.105704042752635" lon="7.3255243990764285"><ele>368.0</ele><time>2026-04-19T12:42:38Z</time></trkpt><trkpt lat="45.10569308253879" lon="7.325681982821941"><ele>368.0</ele><time>2026-04-19T12:42:39Z</time></trkpt><trkpt lat="45.10568190518077" lon="7.325855489513259"><ele>368.0</ele><time>2026-04-19T12:42:40Z</time></trkpt><trkpt lat="45.10567041515651" lon="7.326044298903999"><ele>368.0</ele><time>2026-04-19T12:42:41Z</time></trkpt><trkpt lat="45.10565732566957" lon="7.326235787917784"><ele>368.0</ele><time>2026-04-19T12:42:42Z</time></trkpt><trkpt lat="45.105649317449796" lon="7.326423600052822"><ele>367.6666666666667</ele><time>2026-04-19T12:42:43Z</time></trkpt><trkpt lat="45.105638367336184" lon="7.326621846815865"><ele>367.3333333333333</ele><time>2026-04-19T12:42:44Z</time></trkpt><trkpt lat="45.10586144420566" lon="7.326836172339077"><ele>367.0</ele><time>2026-04-19T12:42:45Z</time></trkpt><trkpt lat="45.10586202570604" lon="7.327017567704398"><ele>366.6</ele><time>2026-04-19T12:42:46Z</time></trkpt><trkpt lat="45.10588398983582" lon="7.327152787549886"><ele>366.20000000000005</ele><time>2026-04-19T12:42:47Z</time></trkpt><trkpt lat="45.105911228923105" lon="7.327264557401164"><ele>365.8</ele><time>2026-04-19T12:42:48Z</time></trkpt><trkpt lat="45.10595015330431" lon="7.327444558844377"><ele>365.4</ele><time>2026-04-19T12:42:49Z</time></trkpt><trkpt lat="45.106015517128654" lon="7.327569580455209"><ele>365.0</ele><time>2026-04-19T12:42:51Z</time></trkpt><trkpt lat="45.105544810834324" lon="7.328295669815332"><ele>365.0</ele><time>2026-04-19T12:42:52Z</time></trkpt><trkpt lat="45.105535037048554" lon="7.328502522228066"><ele>365.0</ele><time>2026-04-19T12:42:53Z</time></trkpt><trkpt lat="45.10552197240041" lon="7.328722027549726"><ele>365.0</ele><time>2026-04-19T12:42:54Z</time></trkpt><trkpt lat="45.10550936195194" lon="7.328939882947489"><ele>365.33333333333337</ele><time>2026-04-19T12:42:55Z</time></trkpt><trkpt lat="45.10549803732145" lon="7.329149972550571"><ele>365.6666666666667</ele><time>2026-04-19T12:42:56Z</time></trkpt><trkpt lat="45.10548826076919" lon="7.329371230122629"><ele>366.0</ele><time>2026-04-19T12:42:57Z</time></trkpt><trkpt lat="45.105476717604" lon="7.329590583586987"><ele>366.0</ele><time>2026-04-19T12:42:58Z</time></trkpt><trkpt lat="45.10546706741165" lon="7.329815103134512"><ele>366.0</ele><time>2026-04-19T12:42:59Z</time></trkpt><trkpt lat="45.10545772393872" lon="7.330044044368147"><ele>366.0</ele><time>2026-04-19T12:43:00Z</time></trkpt><trkpt lat="45.105441597370735" lon="7.330268471380329"><ele>366.0</ele><time>2026-04-19T12:43:01Z</time></trkpt><trkpt lat="45.10542940089436" lon="7.330508433589132"><ele>366.0</ele><time>2026-04-19T12:43:02Z</time></trkpt><trkpt lat="45.10541802309487" lon="7.330741364078996"><ele>366.0</ele><time>2026-04-19T12:43:03Z</time></trkpt><trkpt lat="45.10540423024644" lon="7.330980557750472"><ele>365.3333333333333</ele><time>2026-04-19T12:43:04Z</time></trkpt><trkpt lat="45.1053920910834" lon="7.331221945912882"><ele>364.66666666666663</ele><time>2026-04-19T12:43:05Z</time></trkpt><trkpt lat="45.105380674188524" lon="7.3314664022509834"><ele>364.0</ele><time>2026-04-19T12:43:06Z</time></trkpt><trkpt lat="45.10536854469512" lon="7.331713084422686"><ele>364.0</ele><time>2026-04-19T12:43:07Z</time></trkpt><trkpt lat="45.10535444876165" lon="7.331955698382076"><ele>364.0</ele><time>2026-04-19T12:43:08Z</time></trkpt><trkpt lat="45.10534033739419" lon="7.332206776875242"><ele>364.0</ele><time>2026-04-19T12:43:09Z</time></trkpt><trkpt lat="45.10532598903674" lon="7.332456750809847"><ele>364.0</ele><time>2026-04-19T12:43:10Z</time></trkpt><trkpt lat="45.105310127879335" lon="7.332710453087441"><ele>364.0</ele><time>2026-04-19T12:43:11Z</time></trkpt><trkpt lat="45.105295559029514" lon="7.332967385932885"><ele>364.0</ele><time>2026-04-19T12:43:12Z</time></trkpt><trkpt lat="45.105284303359866" lon="7.3332291316714056"><ele>364.0</ele><time>2026-04-19T12:43:13Z</time></trkpt><trkpt lat="45.105270944615775" lon="7.333486644521372"><ele>364.0</ele><time>2026-04-19T12:43:14Z</time></trkpt><trkpt lat="45.10525956924026" lon="7.3337466248762695"><ele>364.0</ele><time>2026-04-19T12:43:15Z</time></trkpt><trkpt lat="45.10524783125675" lon="7.334008496478933"><ele>364.0</ele><time>2026-04-19T12:43:16Z</time></trkpt><trkpt lat="45.105233726099" lon="7.334272139506483"><ele>364.0</ele><time>2026-04-19T12:43:17Z</time></trkpt><trkpt lat="45.10522106242281" lon="7.334531327978161"><ele>364.0</ele><time>2026-04-19T12:43:18Z</time></trkpt><trkpt lat="45.10520730813737" lon="7.334788959879175"><ele>364.0</ele><time>2026-04-19T12:43:19Z</time></trkpt><trkpt lat="45.10519251528127" lon="7.335044534466917"><ele>364.0</ele><time>2026-04-19T12:43:20Z</time></trkpt><trkpt lat="45.105179178923414" lon="7.335303986054946"><ele>364.0</ele><time>2026-04-19T12:43:21Z</time></trkpt><trkpt lat="45.105165043019035" lon="7.335562480950999"><ele>363.66666666666663</ele><time>2026-04-19T12:43:22Z</time></trkpt><trkpt lat="45.105152236722084" lon="7.335825998599614"><ele>363.3333333333333</ele><time>2026-04-19T12:43:23Z</time></trkpt><trkpt lat="45.10513869403889" lon="7.336091890831439"><ele>363.0</ele><time>2026-04-19T12:43:24Z</time></trkpt><trkpt lat="45.10512478422987" lon="7.336359720915545"><ele>363.3333333333333</ele><time>2026-04-19T12:43:25Z</time></trkpt><trkpt lat="45.10511070190478" lon="7.336624240454369"><ele>363.66666666666663</ele><time>2026-04-19T12:43:26Z</time></trkpt><trkpt lat="45.10509686355932" lon="7.336894434713588"><ele>364.0</ele><time>2026-04-19T12:43:27Z</time></trkpt><trkpt lat="45.10508333869098" lon="7.337163363616267"><ele>363.3333333333333</ele><time>2026-04-19T12:43:28Z</time></trkpt><trkpt lat="45.10506978614331" lon="7.3374343295712485"><ele>362.6666666666667</ele><time>2026-04-19T12:43:29Z</time></trkpt><trkpt lat="45.10505678672959" lon="7.337709619816446"><ele>362.0</ele><time>2026-04-19T12:43:30Z</time></trkpt><trkpt lat="45.10504344579079" lon="7.337987509398783"><ele>361.6666666666667</ele><time>2026-04-19T12:43:31Z</time></trkpt><trkpt lat="45.10502508331914" lon="7.3382633202177985"><ele>361.3333333333333</ele><time>2026-04-19T12:43:32Z</time></trkpt><trkpt lat="45.1050104433363" lon="7.3385480783735515"><ele>361.0</ele><time>2026-04-19T12:43:33Z</time></trkpt><trkpt lat="45.10499403842644" lon="7.3388307319602655"><ele>361.3333333333333</ele><time>2026-04-19T12:43:34Z</time></trkpt><trkpt lat="45.10497761850093" lon="7.3391152263454975"><ele>361.6666666666667</ele><time>2026-04-19T12:43:35Z</time></trkpt><trkpt lat="45.104962834257755" lon="7.339402023208884"><ele>362.0</ele><time>2026-04-19T12:43:36Z</time></trkpt><trkpt lat="45.10494479094276" lon="7.339688685559227"><ele>361.6666666666667</ele><time>2026-04-19T12:43:37Z</time></trkpt><trkpt lat="45.104930063761564" lon="7.339979460900232"><ele>361.3333333333333</ele><time>2026-04-19T12:43:38Z</time></trkpt><trkpt lat="45.10491404912959" lon="7.340267337007773"><ele>361.0</ele><time>2026-04-19T12:43:39Z</time></trkpt><trkpt lat="45.10489730928028" lon="7.34055665998131"><ele>363.3333333333333</ele><time>2026-04-19T12:43:40Z</time></trkpt><trkpt lat="45.10488135345938" lon="7.340845636400635"><ele>365.6666666666667</ele><time>2026-04-19T12:43:41Z</time></trkpt><trkpt lat="45.104867106231445" lon="7.341134973840471"><ele>368.0</ele><time>2026-04-19T12:43:42Z</time></trkpt><trkpt lat="45.10485101084349" lon="7.341422336775832"><ele>368.0</ele><time>2026-04-19T12:43:43Z</time></trkpt><trkpt lat="45.10483441585574" lon="7.341711934374902"><ele>368.0</ele><time>2026-04-19T12:43:44Z</time></trkpt><trkpt lat="45.10481849310657" lon="7.342001596496576"><ele>368.0</ele><time>2026-04-19T12:43:45Z</time></trkpt><trkpt lat="45.10480359638391" lon="7.342294361982271"><ele>366.33333333333337</ele><time>2026-04-19T12:43:46Z</time></trkpt><trkpt lat="45.10478603585081" lon="7.342587063655205"><ele>364.6666666666667</ele><time>2026-04-19T12:43:47Z</time></trkpt><trkpt lat="45.104770223981454" lon="7.342876141907972"><ele>363.0</ele><time>2026-04-19T12:43:48Z</time></trkpt><trkpt lat="45.104755905771924" lon="7.343161220050891"><ele>362.3333333333333</ele><time>2026-04-19T12:43:49Z</time></trkpt><trkpt lat="45.10474072124918" lon="7.343441630054196"><ele>361.66666666666663</ele><time>2026-04-19T12:43:50Z</time></trkpt><trkpt lat="45.10472642971416" lon="7.343718604990001"><ele>361.0</ele><time>2026-04-19T12:43:51Z</time></trkpt><trkpt lat="45.10470743771597" lon="7.343997263981528"><ele>361.0</ele><time>2026-04-19T12:43:52Z</time></trkpt><trkpt lat="45.104694509299826" lon="7.344277470537829"><ele>361.0</ele><time>2026-04-19T12:43:53Z</time></trkpt><trkpt lat="45.1046777415394" lon="7.344557222422102"><ele>361.0</ele><time>2026-04-19T12:43:54Z</time></trkpt><trkpt lat="45.10466442125228" lon="7.344845008088318"><ele>361.0</ele><time>2026-04-19T12:43:55Z</time></trkpt><trkpt lat="45.10464514808165" lon="7.3451252680713095"><ele>361.0</ele><time>2026-04-19T12:43:56Z</time></trkpt><trkpt lat="45.10462935232976" lon="7.345416943066788"><ele>361.0</ele><time>2026-04-19T12:43:57Z</time></trkpt><trkpt lat="45.10461757248308" lon="7.345718210161402"><ele>361.0</ele><time>2026-04-19T12:43:58Z</time></trkpt><trkpt lat="45.10460497719945" lon="7.346007642735374"><ele>361.0</ele><time>2026-04-19T12:43:59Z</time></trkpt><trkpt lat="45.10458762168823" lon="7.346292408540299"><ele>361.0</ele><time>2026-04-19T12:44:00Z</time></trkpt><trkpt lat="45.104571375355484" lon="7.346577653359966"><ele>361.3333333333333</ele><time>2026-04-19T12:44:01Z</time></trkpt><trkpt lat="45.104557148999355" lon="7.346868280363335"><ele>361.6666666666667</ele><time>2026-04-19T12:44:02Z</time></trkpt><trkpt lat="45.104541412814555" lon="7.34715461149569"><ele>362.0</ele><time>2026-04-19T12:44:03Z</time></trkpt><trkpt lat="45.10452762922161" lon="7.347431722704597"><ele>362.0</ele><time>2026-04-19T12:44:04Z</time></trkpt><trkpt lat="45.10450997796639" lon="7.347699385319429"><ele>362.0</ele><time>2026-04-19T12:44:05Z</time></trkpt><trkpt lat="45.10450205238759" lon="7.347943962776742"><ele>362.0</ele><time>2026-04-19T12:44:06Z</time></trkpt><trkpt lat="45.10448901064566" lon="7.348177084357691"><ele>361.6666666666667</ele><time>2026-04-19T12:44:07Z</time></trkpt><trkpt lat="45.10447548538604" lon="7.3483999168588445"><ele>361.3333333333333</ele><time>2026-04-19T12:44:08Z</time></trkpt><trkpt lat="45.10445514403138" lon="7.3486267345981515"><ele>361.0</ele><time>2026-04-19T12:44:09Z</time></trkpt><trkpt lat="45.10443833189761" lon="7.348836824425393"><ele>361.25</ele><time>2026-04-19T12:44:10Z</time></trkpt><trkpt lat="45.10441877066258" lon="7.349044075055226"><ele>361.5</ele><time>2026-04-19T12:44:11Z</time></trkpt><trkpt lat="45.104393718025534" lon="7.3492294832548195"><ele>361.75</ele><time>2026-04-19T12:44:12Z</time></trkpt><trkpt lat="45.104379770426505" lon="7.349395542611889"><ele>362.0</ele><time>2026-04-19T12:44:13Z</time></trkpt><trkpt lat="45.10432736685025" lon="7.349523487703961"><ele>362.0</ele><time>2026-04-19T12:44:14Z</time></trkpt><trkpt lat="45.10426160355843" lon="7.349634807006066"><ele>362.0</ele><time>2026-04-19T12:44:15Z</time></trkpt><trkpt lat="45.104176629715425" lon="7.349739177367157"><ele>362.0</ele><time>2026-04-19T12:44:16Z</time></trkpt><trkpt lat="45.1041432544703" lon="7.34988310174275"><ele>362.0</ele><time>2026-04-19T12:44:17Z</time></trkpt><trkpt lat="45.10415998581591" lon="7.350058791165265"><ele>362.0</ele><time>2026-04-19T12:44:18Z</time></trkpt><trkpt lat="45.104157804166114" lon="7.350246988801231"><ele>362.0</ele><time>2026-04-19T12:44:19Z</time></trkpt><trkpt lat="45.10413401810434" lon="7.350433519131792"><ele>362.0</ele><time>2026-04-19T12:44:20Z</time></trkpt><trkpt lat="45.104064722237744" lon="7.350658912242146"><ele>362.0</ele><time>2026-04-19T12:44:21Z</time></trkpt><trkpt lat="45.104000485456886" lon="7.350863949764544"><ele>361.0</ele><time>2026-04-19T12:44:22Z</time></trkpt><trkpt lat="45.10393256368871" lon="7.351083677552947"><ele>360.0</ele><time>2026-04-19T12:44:23Z</time></trkpt><trkpt lat="45.10385805441315" lon="7.3512972585371115"><ele>359.0</ele><time>2026-04-19T12:44:24Z</time></trkpt><trkpt lat="45.10378183343724" lon="7.3515081276088825"><ele>358.6666666666667</ele><time>2026-04-19T12:44:25Z</time></trkpt><trkpt lat="45.10373795190253" lon="7.351774224217183"><ele>358.3333333333333</ele><time>2026-04-19T12:44:26Z</time></trkpt><trkpt lat="45.10366890846036" lon="7.352007878873107"><ele>358.0</ele><time>2026-04-19T12:44:27Z</time></trkpt><trkpt lat="45.103602606820345" lon="7.352245521558907"><ele>358.0</ele><time>2026-04-19T12:44:28Z</time></trkpt><trkpt lat="45.10353643767382" lon="7.352484072930276"><ele>358.0</ele><time>2026-04-19T12:44:29Z</time></trkpt><trkpt lat="45.10346604825493" lon="7.352726469686516"><ele>358.0</ele><time>2026-04-19T12:44:30Z</time></trkpt><trkpt lat="45.10339878348392" lon="7.352968914409075"><ele>357.66666666666663</ele><time>2026-04-19T12:44:31Z</time></trkpt><trkpt lat="45.10332376339941" lon="7.353222218955517"><ele>357.3333333333333</ele><time>2026-04-19T12:44:32Z</time></trkpt><trkpt lat="45.10325104672025" lon="7.353477069066446"><ele>357.0</ele><time>2026-04-19T12:44:33Z</time></trkpt><trkpt lat="45.10317545963786" lon="7.353731768313946"><ele>357.3333333333333</ele><time>2026-04-19T12:44:34Z</time></trkpt><trkpt lat="45.10310167721469" lon="7.353982768287993"><ele>357.66666666666663</ele><time>2026-04-19T12:44:35Z</time></trkpt><trkpt lat="45.10303117461757" lon="7.354237141377808"><ele>358.0</ele><time>2026-04-19T12:44:36Z</time></trkpt><trkpt lat="45.102957191568606" lon="7.354492270980693"><ele>358.0</ele><time>2026-04-19T12:44:37Z</time></trkpt><trkpt lat="45.10288194890084" lon="7.354752126011488"><ele>358.0</ele><time>2026-04-19T12:44:38Z</time></trkpt><trkpt lat="45.10281009477885" lon="7.354999490002013"><ele>358.0</ele><time>2026-04-19T12:44:39Z</time></trkpt><trkpt lat="45.102736531158165" lon="7.3552500877116795"><ele>358.0</ele><time>2026-04-19T12:44:40Z</time></trkpt><trkpt lat="45.102664635194884" lon="7.355503749930409"><ele>358.0</ele><time>2026-04-19T12:44:41Z</time></trkpt><trkpt lat="45.102591149514375" lon="7.3557582650332725"><ele>358.0</ele><time>2026-04-19T12:44:42Z</time></trkpt><trkpt lat="45.10251626487116" lon="7.356008315751869"><ele>358.0</ele><time>2026-04-19T12:44:43Z</time></trkpt><trkpt lat="45.10244851665975" lon="7.35626525778447"><ele>358.0</ele><time>2026-04-19T12:44:44Z</time></trkpt><trkpt lat="45.10237700144365" lon="7.35652678191121"><ele>358.0</ele><time>2026-04-19T12:44:45Z</time></trkpt><trkpt lat="45.10230129457145" lon="7.3567809026828055"><ele>358.0</ele><time>2026-04-19T12:44:46Z</time></trkpt><trkpt lat="45.1022282327637" lon="7.3570308023756725"><ele>358.0</ele><time>2026-04-19T12:44:47Z</time></trkpt><trkpt lat="45.102154747083596" lon="7.357291767103368"><ele>358.0</ele><time>2026-04-19T12:44:48Z</time></trkpt><trkpt lat="45.1020823465435" lon="7.3575431984588135"><ele>357.66666666666663</ele><time>2026-04-19T12:44:49Z</time></trkpt><trkpt lat="45.102012045356524" lon="7.35779198561092"><ele>357.3333333333333</ele><time>2026-04-19T12:44:50Z</time></trkpt><trkpt lat="45.10194426508647" lon="7.35802978701911"><ele>357.0</ele><time>2026-04-19T12:44:51Z</time></trkpt><trkpt lat="45.10187673266222" lon="7.3582543140911785"><ele>357.0</ele><time>2026-04-19T12:44:52Z</time></trkpt><trkpt lat="45.101803571081284" lon="7.3584811915429205"><ele>357.0</ele><time>2026-04-19T12:44:53Z</time></trkpt><trkpt lat="45.10171023977517" lon="7.358700987087981"><ele>357.0</ele><time>2026-04-19T12:44:54Z</time></trkpt><trkpt lat="45.101590783689836" lon="7.358898740714361"><ele>357.3333333333333</ele><time>2026-04-19T12:44:55Z</time></trkpt><trkpt lat="45.10145718521574" lon="7.359085333201139"><ele>357.66666666666663</ele><time>2026-04-19T12:44:56Z</time></trkpt><trkpt lat="45.10132864643063" lon="7.359254541389144"><ele>358.0</ele><time>2026-04-19T12:44:57Z</time></trkpt><trkpt lat="45.10121934239039" lon="7.35941185847458"><ele>358.0</ele><time>2026-04-19T12:44:58Z</time></trkpt><trkpt lat="45.10111599208931" lon="7.3595622078807095"><ele>358.0</ele><time>2026-04-19T12:44:59Z</time></trkpt><trkpt lat="45.101021633990904" lon="7.359701037795552"><ele>358.0</ele><time>2026-04-19T12:45:00Z</time></trkpt><trkpt lat="45.100928893978434" lon="7.359832903065855"><ele>358.0</ele><time>2026-04-19T12:45:01Z</time></trkpt><trkpt lat="45.100843469741385" lon="7.359954947948363"><ele>358.0</ele><time>2026-04-19T12:45:02Z</time></trkpt><trkpt lat="45.10076635520942" lon="7.360064877138569"><ele>358.0</ele><time>2026-04-19T12:45:03Z</time></trkpt><trkpt lat="45.10070043219133" lon="7.36015945970147"><ele>358.0</ele><time>2026-04-19T12:45:04Z</time></trkpt><trkpt lat="45.10064399971955" lon="7.360256248396075"><ele>358.0</ele><time>2026-04-19T12:45:06Z</time></trkpt><trkpt lat="45.10059864208996" lon="7.360341320265313"><ele>358.0</ele><time>2026-04-19T12:45:36Z</time></trkpt><trkpt lat="45.1005507596654" lon="7.3604341163030265"><ele>358.0</ele><time>2026-04-19T12:45:37Z</time></trkpt><trkpt lat="45.10049450501382" lon="7.360554985529166"><ele>357.5</ele><time>2026-04-19T12:45:38Z</time></trkpt><trkpt lat="45.1004460670512" lon="7.360683518499751"><ele>357.0</ele><time>2026-04-19T12:45:39Z</time></trkpt><trkpt lat="45.100396427867686" lon="7.360835700074914"><ele>356.5</ele><time>2026-04-19T12:45:40Z</time></trkpt><trkpt lat="45.10034703161005" lon="7.361016044627219"><ele>356.0</ele><time>2026-04-19T12:45:41Z</time></trkpt><trkpt lat="45.10028355611743" lon="7.3612122306516525"><ele>356.0</ele><time>2026-04-19T12:45:42Z</time></trkpt><trkpt lat="45.10022014540842" lon="7.361412581342061"><ele>356.0</ele><time>2026-04-19T12:45:43Z</time></trkpt><trkpt lat="45.10015852079417" lon="7.361621545310444"><ele>356.0</ele><time>2026-04-19T12:45:44Z</time></trkpt><trkpt lat="45.1000925025632" lon="7.361836976248425"><ele>356.0</ele><time>2026-04-19T12:45:45Z</time></trkpt><trkpt lat="45.10002359638427" lon="7.362058790733705"><ele>356.0</ele><time>2026-04-19T12:45:46Z</time></trkpt><trkpt lat="45.09995574974277" lon="7.3622869941576425"><ele>356.0</ele><time>2026-04-19T12:45:47Z</time></trkpt><trkpt lat="45.09988129343006" lon="7.362514074320931"><ele>355.6666666666667</ele><time>2026-04-19T12:45:48Z</time></trkpt><trkpt lat="45.099808196040705" lon="7.362747835206301"><ele>355.3333333333333</ele><time>2026-04-19T12:45:49Z</time></trkpt><trkpt lat="45.09973780652664" lon="7.362983959456322"><ele>355.0</ele><time>2026-04-19T12:45:50Z</time></trkpt><trkpt lat="45.099663985464105" lon="7.363218522195907"><ele>354.66666666666663</ele><time>2026-04-19T12:45:51Z</time></trkpt><trkpt lat="45.09959766620369" lon="7.36343486389965"><ele>354.3333333333333</ele><time>2026-04-19T12:45:52Z</time></trkpt><trkpt lat="45.09952852418953" lon="7.363645944758551"><ele>354.0</ele><time>2026-04-19T12:45:53Z</time></trkpt><trkpt lat="45.099461429242574" lon="7.363853583515627"><ele>354.3333333333333</ele><time>2026-04-19T12:45:54Z</time></trkpt><trkpt lat="45.099397542811744" lon="7.364062783898766"><ele>354.66666666666663</ele><time>2026-04-19T12:45:55Z</time></trkpt><trkpt lat="45.09933549671108" lon="7.364268912482659"><ele>355.0</ele><time>2026-04-19T12:45:56Z</time></trkpt><trkpt lat="45.09927615047657" lon="7.364471559527549"><ele>355.0</ele><time>2026-04-19T12:45:57Z</time></trkpt><trkpt lat="45.09920792493951" lon="7.3646735686287546"><ele>355.0</ele><time>2026-04-19T12:45:58Z</time></trkpt><trkpt lat="45.09912655644227" lon="7.364864761615131"><ele>355.0</ele><time>2026-04-19T12:45:59Z</time></trkpt><trkpt lat="45.09902344104059" lon="7.365034897751555"><ele>354.3333333333333</ele><time>2026-04-19T12:46:00Z</time></trkpt><trkpt lat="45.0989098819647" lon="7.36520344483635"><ele>353.6666666666667</ele><time>2026-04-19T12:46:01Z</time></trkpt><trkpt lat="45.098786937073804" lon="7.36536907974473"><ele>353.0</ele><time>2026-04-19T12:46:02Z</time></trkpt><trkpt lat="45.09865140322927" lon="7.36552167999967"><ele>353.0</ele><time>2026-04-19T12:46:03Z</time></trkpt><trkpt lat="45.09850357640377" lon="7.36565647974029"><ele>353.0</ele><time>2026-04-19T12:46:04Z</time></trkpt><trkpt lat="45.098347514015714" lon="7.36577954146321"><ele>353.0</ele><time>2026-04-19T12:46:05Z</time></trkpt><trkpt lat="45.09819281511793" lon="7.365900309568502"><ele>353.0</ele><time>2026-04-19T12:46:06Z</time></trkpt><trkpt lat="45.09803432883987" lon="7.366032405382794"><ele>353.0</ele><time>2026-04-19T12:46:07Z</time></trkpt><trkpt lat="45.0978766172781" lon="7.366162187237219"><ele>353.0</ele><time>2026-04-19T12:46:08Z</time></trkpt><trkpt lat="45.097717041488174" lon="7.366294808544604"><ele>353.0</ele><time>2026-04-19T12:46:09Z</time></trkpt><trkpt lat="45.09755989801482" lon="7.3664278345401675"><ele>353.0</ele><time>2026-04-19T12:46:10Z</time></trkpt><trkpt lat="45.09740270015279" lon="7.366559064404722"><ele>353.0</ele><time>2026-04-19T12:46:11Z</time></trkpt><trkpt lat="45.097247001898296" lon="7.366687650565869"><ele>353.33333333333337</ele><time>2026-04-19T12:46:12Z</time></trkpt><trkpt lat="45.09709282746476" lon="7.366816681949466"><ele>353.6666666666667</ele><time>2026-04-19T12:46:13Z</time></trkpt><trkpt lat="45.0969384179583" lon="7.366944113861002"><ele>354.0</ele><time>2026-04-19T12:46:14Z</time></trkpt><trkpt lat="45.09678401842697" lon="7.367073218651405"><ele>354.0</ele><time>2026-04-19T12:46:15Z</time></trkpt><trkpt lat="45.096628868545466" lon="7.367201920779485"><ele>354.0</ele><time>2026-04-19T12:46:16Z</time></trkpt><trkpt lat="45.096473844111486" lon="7.367333467946976"><ele>354.0</ele><time>2026-04-19T12:46:17Z</time></trkpt><trkpt lat="45.09631733713137" lon="7.367467254088241"><ele>354.0</ele><time>2026-04-19T12:46:18Z</time></trkpt><trkpt lat="45.09616560745882" lon="7.367610125252389"><ele>354.0</ele><time>2026-04-19T12:46:19Z</time></trkpt><trkpt lat="45.096019912342996" lon="7.367769813988376"><ele>354.0</ele><time>2026-04-19T12:46:20Z</time></trkpt><trkpt lat="45.09588396843398" lon="7.367953845602937"><ele>354.0</ele><time>2026-04-19T12:46:21Z</time></trkpt><trkpt lat="45.09575619478534" lon="7.368155688517321"><ele>354.0</ele><time>2026-04-19T12:46:22Z</time></trkpt><trkpt lat="45.0956450116233" lon="7.368364816787916"><ele>354.0</ele><time>2026-04-19T12:46:23Z</time></trkpt><trkpt lat="45.09555977464454" lon="7.368561889894773"><ele>354.0</ele><time>2026-04-19T12:46:24Z</time></trkpt><trkpt lat="45.09548869220892" lon="7.368756148556705"><ele>354.0</ele><time>2026-04-19T12:46:25Z</time></trkpt><trkpt lat="45.095433365384096" lon="7.3689424083181345"><ele>354.0</ele><time>2026-04-19T12:46:26Z</time></trkpt><trkpt lat="45.09538759790403" lon="7.369116932695801"><ele>354.0</ele><time>2026-04-19T12:46:27Z</time></trkpt><trkpt lat="45.09534477322545" lon="7.369272975425313"><ele>354.0</ele><time>2026-04-19T12:46:28Z</time></trkpt><trkpt lat="45.095305226463026" lon="7.36942014318016"><ele>354.0</ele><time>2026-04-19T12:46:29Z</time></trkpt><trkpt lat="45.09527188325576" lon="7.369551242401894"><ele>354.0</ele><time>2026-04-19T12:46:30Z</time></trkpt><trkpt lat="45.09524102688251" lon="7.369665990783602"><ele>354.0</ele><time>2026-04-19T12:46:31Z</time></trkpt><trkpt lat="45.09521437347381" lon="7.369751510780524"><ele>354.0</ele><time>2026-04-19T12:46:32Z</time></trkpt><trkpt lat="45.09518424165293" lon="7.369843441636135"><ele>354.0</ele><time>2026-04-19T12:46:34Z</time></trkpt><trkpt lat="45.09515419428943" lon="7.369967149170867"><ele>354.0</ele><time>2026-04-19T12:46:37Z</time></trkpt><trkpt lat="45.09512409856949" lon="7.370064243345011"><ele>354.0</ele><time>2026-04-19T12:46:38Z</time></trkpt><trkpt lat="45.0950748622186" lon="7.370204868521012"><ele>354.0</ele><time>2026-04-19T12:46:39Z</time></trkpt><trkpt lat="45.09501910581126" lon="7.37036230094946"><ele>354.0</ele><time>2026-04-19T12:46:40Z</time></trkpt><trkpt lat="45.09496674133607" lon="7.370532066358517"><ele>354.0</ele><time>2026-04-19T12:46:41Z</time></trkpt><trkpt lat="45.09491061026566" lon="7.3707329530415135"><ele>353.3333333333333</ele><time>2026-04-19T12:46:42Z</time></trkpt><trkpt lat="45.094846919412845" lon="7.370953860133415"><ele>352.66666666666663</ele><time>2026-04-19T12:46:43Z</time></trkpt><trkpt lat="45.094780387110646" lon="7.371177202994512"><ele>352.0</ele><time>2026-04-19T12:46:44Z</time></trkpt><trkpt lat="45.094711815445834" lon="7.371409788855348"><ele>352.0</ele><time>2026-04-19T12:46:45Z</time></trkpt><trkpt lat="45.094642981417834" lon="7.3716529653686"><ele>352.0</ele><time>2026-04-19T12:46:46Z</time></trkpt><trkpt lat="45.094571162344934" lon="7.3719008540518045"><ele>352.0</ele><time>2026-04-19T12:46:47Z</time></trkpt><trkpt lat="45.0944979545401" lon="7.37215048825642"><ele>352.0</ele><time>2026-04-19T12:46:48Z</time></trkpt><trkpt lat="45.09442125786015" lon="7.3724029529720205"><ele>352.0</ele><time>2026-04-19T12:46:49Z</time></trkpt><trkpt lat="45.09434567903122" lon="7.372655844500434"><ele>352.0</ele><time>2026-04-19T12:46:50Z</time></trkpt><trkpt lat="45.09426880392419" lon="7.372915350341998"><ele>352.0</ele><time>2026-04-19T12:46:51Z</time></trkpt><trkpt lat="45.094191265044266" lon="7.373179433164616"><ele>352.0</ele><time>2026-04-19T12:46:52Z</time></trkpt><trkpt lat="45.09411066456096" lon="7.37344166578629"><ele>352.0</ele><time>2026-04-19T12:46:53Z</time></trkpt><trkpt lat="45.09403226768355" lon="7.373706316288287"><ele>351.3333333333333</ele><time>2026-04-19T12:46:54Z</time></trkpt><trkpt lat="45.09395460109522" lon="7.373969030911574"><ele>350.6666666666667</ele><time>2026-04-19T12:46:55Z</time></trkpt><trkpt lat="45.09387647026734" lon="7.374232141691728"><ele>350.0</ele><time>2026-04-19T12:46:56Z</time></trkpt><trkpt lat="45.09379808628729" lon="7.3744926360995375"><ele>350.33333333333337</ele><time>2026-04-19T12:46:57Z</time></trkpt><trkpt lat="45.0937197149405" lon="7.374756892672189"><ele>350.6666666666667</ele><time>2026-04-19T12:46:58Z</time></trkpt><trkpt lat="45.09364278356477" lon="7.375020274250328"><ele>351.0</ele><time>2026-04-19T12:46:59Z</time></trkpt><trkpt lat="45.093561714706006" lon="7.375283003023091"><ele>351.3333333333333</ele><time>2026-04-19T12:47:00Z</time></trkpt><trkpt lat="45.09347930088775" lon="7.375549500020482"><ele>351.66666666666663</ele><time>2026-04-19T12:47:01Z</time></trkpt><trkpt lat="45.093399374399525" lon="7.375813306810703"><ele>352.0</ele><time>2026-04-19T12:47:02Z</time></trkpt><trkpt lat="45.0933202327472" lon="7.376081088444959"><ele>351.66666666666663</ele><time>2026-04-19T12:47:03Z</time></trkpt><trkpt lat="45.093241276852915" lon="7.376350849267313"><ele>351.3333333333333</ele><time>2026-04-19T12:47:04Z</time></trkpt><trkpt lat="45.09316106908645" lon="7.376622160949894"><ele>351.0</ele><time>2026-04-19T12:47:05Z</time></trkpt><trkpt lat="45.093081481583496" lon="7.376890493094313"><ele>351.0</ele><time>2026-04-19T12:47:06Z</time></trkpt><trkpt lat="45.09300120012455" lon="7.377162196480587"><ele>351.0</ele><time>2026-04-19T12:47:07Z</time></trkpt><trkpt lat="45.09292168921672" lon="7.377433253835807"><ele>351.0</ele><time>2026-04-19T12:47:08Z</time></trkpt><trkpt lat="45.09283901071045" lon="7.3777080814559515"><ele>351.0</ele><time>2026-04-19T12:47:09Z</time></trkpt><trkpt lat="45.09275743231674" lon="7.377978899561198"><ele>351.0</ele><time>2026-04-19T12:47:10Z</time></trkpt><trkpt lat="45.09267617971318" lon="7.378248342557381"><ele>351.0</ele><time>2026-04-19T12:47:11Z</time></trkpt><trkpt lat="45.092592299194706" lon="7.378514676007584"><ele>351.0</ele><time>2026-04-19T12:47:12Z</time></trkpt><trkpt lat="45.092512238782994" lon="7.378781153334971"><ele>351.0</ele><time>2026-04-19T12:47:13Z</time></trkpt><trkpt lat="45.09243125779124" lon="7.379051167756238"><ele>351.0</ele><time>2026-04-19T12:47:14Z</time></trkpt><trkpt lat="45.09234865454037" lon="7.379320692587967"><ele>350.0</ele><time>2026-04-19T12:47:15Z</time></trkpt><trkpt lat="45.09226483577765" lon="7.3795953681757105"><ele>349.0</ele><time>2026-04-19T12:47:16Z</time></trkpt><trkpt lat="45.09218677742148" lon="7.379866921415039"><ele>348.0</ele><time>2026-04-19T12:47:17Z</time></trkpt><trkpt lat="45.092112113590936" lon="7.380137975121775"><ele>348.0</ele><time>2026-04-19T12:47:18Z</time></trkpt><trkpt lat="45.09203661012627" lon="7.380410541085343"><ele>348.0</ele><time>2026-04-19T12:47:19Z</time></trkpt><trkpt lat="45.09195704500939" lon="7.380690890922768"><ele>348.0</ele><time>2026-04-19T12:47:20Z</time></trkpt><trkpt lat="45.09187462281578" lon="7.380981266953491"><ele>348.5</ele><time>2026-04-19T12:47:21Z</time></trkpt><trkpt lat="45.091789430591746" lon="7.381276944930757"><ele>349.0</ele><time>2026-04-19T12:47:22Z</time></trkpt><trkpt lat="45.09170107853486" lon="7.3815784914498295"><ele>348.0</ele><time>2026-04-19T12:47:23Z</time></trkpt><trkpt lat="45.09160740296828" lon="7.381879058923311"><ele>347.0</ele><time>2026-04-19T12:47:24Z</time></trkpt><trkpt lat="45.091509549144845" lon="7.382183155954196"><ele>346.5</ele><time>2026-04-19T12:47:25Z</time></trkpt><trkpt lat="45.09141282329937" lon="7.382485466787549"><ele>346.0</ele><time>2026-04-19T12:47:26Z</time></trkpt><trkpt lat="45.09131940222883" lon="7.382790237049683"><ele>345.5</ele><time>2026-04-19T12:47:27Z</time></trkpt><trkpt lat="45.09122887332718" lon="7.383087938544641"><ele>345.0</ele><time>2026-04-19T12:47:28Z</time></trkpt><trkpt lat="45.091136782431036" lon="7.383382376377295"><ele>345.0</ele><time>2026-04-19T12:47:29Z</time></trkpt><trkpt lat="45.09104967093952" lon="7.383671280924474"><ele>345.0</ele><time>2026-04-19T12:47:30Z</time></trkpt><trkpt lat="45.09096635873812" lon="7.383956203597278"><ele>345.0</ele><time>2026-04-19T12:47:31Z</time></trkpt><trkpt lat="45.09089331627022" lon="7.384246241542452"><ele>345.0</ele><time>2026-04-19T12:47:32Z</time></trkpt><trkpt lat="45.09086139082579" lon="7.384549339408076"><ele>345.0</ele><time>2026-04-19T12:47:33Z</time></trkpt><trkpt lat="45.090883343318716" lon="7.384852986223045"><ele>345.0</ele><time>2026-04-19T12:47:34Z</time></trkpt><trkpt lat="45.0909447188388" lon="7.385150660241084"><ele>345.0</ele><time>2026-04-19T12:47:35Z</time></trkpt><trkpt lat="45.09100956475127" lon="7.385451029356174"><ele>345.0</ele><time>2026-04-19T12:47:36Z</time></trkpt><trkpt lat="45.09106104560851" lon="7.385747421435867"><ele>345.0</ele><time>2026-04-19T12:47:37Z</time></trkpt><trkpt lat="45.09107533212712" lon="7.386028436877668"><ele>345.6666666666667</ele><time>2026-04-19T12:47:38Z</time></trkpt><trkpt lat="45.091039534565994" lon="7.386305196786231"><ele>346.33333333333337</ele><time>2026-04-19T12:47:39Z</time></trkpt><trkpt lat="45.09095271493554" lon="7.386583670327544"><ele>347.0</ele><time>2026-04-19T12:47:40Z</time></trkpt><trkpt lat="45.09085120053187" lon="7.386859901118119"><ele>346.5</ele><time>2026-04-19T12:47:41Z</time></trkpt><trkpt lat="45.09074832391419" lon="7.387146758465634"><ele>346.0</ele><time>2026-04-19T12:47:42Z</time></trkpt><trkpt lat="45.090645135560926" lon="7.387440371488701"><ele>346.0</ele><time>2026-04-19T12:47:43Z</time></trkpt><trkpt lat="45.0905268230598" lon="7.387739407951607"><ele>346.0</ele><time>2026-04-19T12:47:44Z</time></trkpt><trkpt lat="45.09040056068033" lon="7.388045992875816"><ele>346.0</ele><time>2026-04-19T12:47:45Z</time></trkpt><trkpt lat="45.09027217282344" lon="7.388347198147814"><ele>346.0</ele><time>2026-04-19T12:47:46Z</time></trkpt><trkpt lat="45.09014488985634" lon="7.388649434119928"><ele>346.0</ele><time>2026-04-19T12:47:47Z</time></trkpt><trkpt lat="45.09001876759784" lon="7.388963242372596"><ele>346.0</ele><time>2026-04-19T12:47:48Z</time></trkpt><trkpt lat="45.0898902593709" lon="7.3892745437300364"><ele>346.0</ele><time>2026-04-19T12:47:49Z</time></trkpt><trkpt lat="45.089758909408616" lon="7.389586455858822"><ele>346.0</ele><time>2026-04-19T12:47:50Z</time></trkpt><trkpt lat="45.089629561417" lon="7.389900954553467"><ele>345.5</ele><time>2026-04-19T12:47:51Z</time></trkpt><trkpt lat="45.089499686272255" lon="7.390215430639002"><ele>345.0</ele><time>2026-04-19T12:47:52Z</time></trkpt><trkpt lat="45.08936966021332" lon="7.390527974803348"><ele>346.0</ele><time>2026-04-19T12:47:53Z</time></trkpt><trkpt lat="45.08924468852578" lon="7.390826827109636"><ele>347.0</ele><time>2026-04-19T12:47:54Z</time></trkpt><trkpt lat="45.08912948393262" lon="7.3911078938143175"><ele>346.33333333333337</ele><time>2026-04-19T12:47:55Z</time></trkpt><trkpt lat="45.08902022559603" lon="7.391372609666231"><ele>345.6666666666667</ele><time>2026-04-19T12:47:56Z</time></trkpt><trkpt lat="45.088921015962356" lon="7.391621873555075"><ele>345.0</ele><time>2026-04-19T12:47:57Z</time></trkpt><trkpt lat="45.08882542270761" lon="7.391856427718124"><ele>345.0</ele><time>2026-04-19T12:47:58Z</time></trkpt><trkpt lat="45.08873983124681" lon="7.392076535576083"><ele>345.0</ele><time>2026-04-19T12:47:59Z</time></trkpt><trkpt lat="45.088657718419135" lon="7.392287706083679"><ele>345.0</ele><time>2026-04-19T12:48:00Z</time></trkpt><trkpt lat="45.0885883025664" lon="7.392478666697669"><ele>345.0</ele><time>2026-04-19T12:48:01Z</time></trkpt><trkpt lat="45.088528705736806" lon="7.3926490286405535"><ele>345.0</ele><time>2026-04-19T12:48:02Z</time></trkpt><trkpt lat="45.0884700704422" lon="7.392802295593167"><ele>345.0</ele><time>2026-04-19T12:48:03Z</time></trkpt><trkpt lat="45.088415933078295" lon="7.392936930626538"><ele>345.0</ele><time>2026-04-19T12:48:04Z</time></trkpt><trkpt lat="45.0884067146541" lon="7.393084591582525"><ele>344.75</ele><time>2026-04-19T12:48:05Z</time></trkpt><trkpt lat="45.088452202106616" lon="7.393234984334876"><ele>344.5</ele><time>2026-04-19T12:48:06Z</time></trkpt><trkpt lat="45.088541928298774" lon="7.393370689360694"><ele>344.25</ele><time>2026-04-19T12:48:07Z</time></trkpt><trkpt lat="45.08862605865202" lon="7.393525608560223"><ele>344.0</ele><time>2026-04-19T12:48:08Z</time></trkpt><trkpt lat="45.088663744207224" lon="7.393730194792216"><ele>344.33333333333337</ele><time>2026-04-19T12:48:09Z</time></trkpt><trkpt lat="45.088674131470334" lon="7.393973920018472"><ele>344.6666666666667</ele><time>2026-04-19T12:48:10Z</time></trkpt><trkpt lat="45.08867288980793" lon="7.394231303975504"><ele>345.0</ele><time>2026-04-19T12:48:11Z</time></trkpt><trkpt lat="45.088665527298645" lon="7.394499841439999"><ele>345.0</ele><time>2026-04-19T12:48:12Z</time></trkpt><trkpt lat="45.08865781928912" lon="7.394772789082421"><ele>345.0</ele><time>2026-04-19T12:48:13Z</time></trkpt><trkpt lat="45.08864919515734" lon="7.395058982398953"><ele>345.0</ele><time>2026-04-19T12:48:14Z</time></trkpt><trkpt lat="45.08864093051234" lon="7.395353833085382"><ele>344.3333333333333</ele><time>2026-04-19T12:48:15Z</time></trkpt><trkpt lat="45.08863308539172" lon="7.395660226994743"><ele>343.66666666666663</ele><time>2026-04-19T12:48:16Z</time></trkpt><trkpt lat="45.08862274266475" lon="7.395974717993593"><ele>343.0</ele><time>2026-04-19T12:48:17Z</time></trkpt><trkpt lat="45.08861305832822" lon="7.396296567997488"><ele>343.0</ele><time>2026-04-19T12:48:18Z</time></trkpt><trkpt lat="45.08860599346852" lon="7.3966101637896715"><ele>343.0</ele><time>2026-04-19T12:48:19Z</time></trkpt><trkpt lat="45.08859703059371" lon="7.396929895278312"><ele>343.0</ele><time>2026-04-19T12:48:20Z</time></trkpt><trkpt lat="45.08858936197121" lon="7.397257832711388"><ele>344.0</ele><time>2026-04-19T12:48:21Z</time></trkpt><trkpt lat="45.08857895714601" lon="7.39758532319866"><ele>345.0</ele><time>2026-04-19T12:48:22Z</time></trkpt><trkpt lat="45.08857089074815" lon="7.397916366214215"><ele>345.0</ele><time>2026-04-19T12:48:23Z</time></trkpt><trkpt lat="45.08856396892583" lon="7.39825183299906"><ele>345.0</ele><time>2026-04-19T12:48:24Z</time></trkpt><trkpt lat="45.08855541692083" lon="7.398594455802445"><ele>344.5</ele><time>2026-04-19T12:48:25Z</time></trkpt><trkpt lat="45.08854360473794" lon="7.398924386676249"><ele>344.0</ele><time>2026-04-19T12:48:26Z</time></trkpt><trkpt lat="45.08852485081948" lon="7.399240231712153"><ele>344.0</ele><time>2026-04-19T12:48:27Z</time></trkpt><trkpt lat="45.08849780869118" lon="7.39953473666513"><ele>344.0</ele><time>2026-04-19T12:48:28Z</time></trkpt><trkpt lat="45.08846345277776" lon="7.399813754743494"><ele>344.0</ele><time>2026-04-19T12:48:29Z</time></trkpt><trkpt lat="45.08842460171236" lon="7.400077755009807"><ele>344.0</ele><time>2026-04-19T12:48:30Z</time></trkpt><trkpt lat="45.08837635048175" lon="7.400329409441613"><ele>344.0</ele><time>2026-04-19T12:48:31Z</time></trkpt><trkpt lat="45.088311862739566" lon="7.400572710764276"><ele>344.0</ele><time>2026-04-19T12:48:32Z</time></trkpt><trkpt lat="45.088245341969234" lon="7.400798848184668"><ele>343.6666666666667</ele><time>2026-04-19T12:48:33Z</time></trkpt><trkpt lat="45.088182641887144" lon="7.4010086032543825"><ele>343.3333333333333</ele><time>2026-04-19T12:48:34Z</time></trkpt><trkpt lat="45.08812267761279" lon="7.401206374063611"><ele>343.0</ele><time>2026-04-19T12:48:35Z</time></trkpt><trkpt lat="45.088074043211684" lon="7.401393861961545"><ele>342.8333333333333</ele><time>2026-04-19T12:48:36Z</time></trkpt><trkpt lat="45.08803009195917" lon="7.401552062825367"><ele>342.66666666666663</ele><time>2026-04-19T12:48:37Z</time></trkpt><trkpt lat="45.08798742351932" lon="7.401677229350683"><ele>342.5</ele><time>2026-04-19T12:48:38Z</time></trkpt><trkpt lat="45.087946392195995" lon="7.401775922205311"><ele>342.3333333333333</ele><time>2026-04-19T12:48:39Z</time></trkpt><trkpt lat="45.08789203676769" lon="7.401836666487583"><ele>342.1666666666667</ele><time>2026-04-19T12:48:41Z</time></trkpt><trkpt lat="45.08783860438538" lon="7.401890309632773"><ele>342.0</ele><time>2026-04-19T12:48:44Z</time></trkpt><trkpt lat="45.087762536655745" lon="7.401973902418246"><ele>341.8333333333333</ele><time>2026-04-19T12:48:46Z</time></trkpt><trkpt lat="45.08774912045947" lon="7.402167237197412"><ele>341.6666666666667</ele><time>2026-04-19T12:48:48Z</time></trkpt><trkpt lat="45.08775145395835" lon="7.4022747981068"><ele>341.5</ele><time>2026-04-19T12:48:49Z</time></trkpt><trkpt lat="45.08773022718529" lon="7.402376120892089"><ele>341.33333333333337</ele><time>2026-04-19T12:48:50Z</time></trkpt><trkpt lat="45.08769328894423" lon="7.402469756793021"><ele>341.1666666666667</ele><time>2026-04-19T12:48:51Z</time></trkpt><trkpt lat="45.08765050792722" lon="7.402570817514215"><ele>341.0</ele><time>2026-04-19T12:48:52Z</time></trkpt><trkpt lat="45.087608109730915" lon="7.402691256390784"><ele>341.0</ele><time>2026-04-19T12:48:53Z</time></trkpt><trkpt lat="45.08756215381864" lon="7.402821398164449"><ele>341.0</ele><time>2026-04-19T12:48:54Z</time></trkpt><trkpt lat="45.08751109768532" lon="7.402971827029987"><ele>341.0</ele><time>2026-04-19T12:48:55Z</time></trkpt><trkpt lat="45.087455130505525" lon="7.403130490431815"><ele>341.0</ele><time>2026-04-19T12:48:56Z</time></trkpt><trkpt lat="45.08739640638845" lon="7.403292910637881"><ele>341.0</ele><time>2026-04-19T12:48:57Z</time></trkpt><trkpt lat="45.08733221463576" lon="7.4034611602162"><ele>341.0</ele><time>2026-04-19T12:48:58Z</time></trkpt><trkpt lat="45.08726858084443" lon="7.403638323826736"><ele>341.0</ele><time>2026-04-19T12:48:59Z</time></trkpt><trkpt lat="45.08720163349452" lon="7.403818248294424"><ele>341.0</ele><time>2026-04-19T12:49:00Z</time></trkpt><trkpt lat="45.08713650518653" lon="7.404004493680291"><ele>341.0</ele><time>2026-04-19T12:49:01Z</time></trkpt><trkpt lat="45.087072452440914" lon="7.404192510944231"><ele>341.0</ele><time>2026-04-19T12:49:02Z</time></trkpt><trkpt lat="45.087009238489294" lon="7.404381870919675"><ele>341.0</ele><time>2026-04-19T12:49:03Z</time></trkpt><trkpt lat="45.0869439783505" lon="7.404562021515105"><ele>341.0</ele><time>2026-04-19T12:49:04Z</time></trkpt><trkpt lat="45.086881249131906" lon="7.40474062675436"><ele>340.75</ele><time>2026-04-19T12:49:05Z</time></trkpt><trkpt lat="45.086820962180234" lon="7.404914370395734"><ele>340.5</ele><time>2026-04-19T12:49:06Z</time></trkpt><trkpt lat="45.086763078415025" lon="7.40508122789262"><ele>340.25</ele><time>2026-04-19T12:49:07Z</time></trkpt><trkpt lat="45.08670615337701" lon="7.405244130771264"><ele>340.0</ele><time>2026-04-19T12:49:08Z</time></trkpt><trkpt lat="45.086647757499385" lon="7.405409859086566"><ele>340.0</ele><time>2026-04-19T12:49:09Z</time></trkpt><trkpt lat="45.08658833582851" lon="7.405573629271025"><ele>340.0</ele><time>2026-04-19T12:49:10Z</time></trkpt><trkpt lat="45.086529570152294" lon="7.405742214223297"><ele>340.0</ele><time>2026-04-19T12:49:11Z</time></trkpt><trkpt lat="45.086471506981546" lon="7.405911462066343"><ele>340.0</ele><time>2026-04-19T12:49:12Z</time></trkpt><trkpt lat="45.08641765619889" lon="7.406079321542312"><ele>340.0</ele><time>2026-04-19T12:49:13Z</time></trkpt><trkpt lat="45.08636753889765" lon="7.406241502638061"><ele>340.0</ele><time>2026-04-19T12:49:14Z</time></trkpt><trkpt lat="45.086326482661974" lon="7.406399310277596"><ele>340.0</ele><time>2026-04-19T12:49:15Z</time></trkpt><trkpt lat="45.08628285143432" lon="7.4065456045249585"><ele>340.0</ele><time>2026-04-19T12:49:16Z</time></trkpt><trkpt lat="45.08624718347942" lon="7.406717341681311"><ele>340.2</ele><time>2026-04-19T12:49:17Z</time></trkpt><trkpt lat="45.086214531807485" lon="7.406859512008209"><ele>340.4</ele><time>2026-04-19T12:49:18Z</time></trkpt><trkpt lat="45.08618238808526" lon="7.40699966106462"><ele>340.6</ele><time>2026-04-19T12:49:19Z</time></trkpt><trkpt lat="45.08614943568602" lon="7.4071319954887445"><ele>340.8</ele><time>2026-04-19T12:49:20Z</time></trkpt><trkpt lat="45.08612242703948" lon="7.407247803972547"><ele>341.0</ele><time>2026-04-19T12:49:21Z</time></trkpt><trkpt lat="45.08610016754974" lon="7.407345217230714"><ele>341.0</ele><time>2026-04-19T12:49:22Z</time></trkpt><trkpt lat="45.08606069980823" lon="7.407428969218862"><ele>341.0</ele><time>2026-04-19T12:49:23Z</time></trkpt><trkpt lat="45.08600830036778" lon="7.407482129129783"><ele>341.0</ele><time>2026-04-19T12:49:24Z</time></trkpt><trkpt lat="45.08594892879424" lon="7.407513589129448"><ele>341.0</ele><time>2026-04-19T12:49:25Z</time></trkpt><trkpt lat="45.085886667959976" lon="7.407563706998738"><ele>341.0</ele><time>2026-04-19T12:49:26Z</time></trkpt><trkpt lat="45.08583038938082" lon="7.407639843487755"><ele>341.0</ele><time>2026-04-19T12:49:27Z</time></trkpt><trkpt lat="45.08579932780266" lon="7.407752152164145"><ele>341.0</ele><time>2026-04-19T12:49:28Z</time></trkpt><trkpt lat="45.08580956680975" lon="7.407890993003831"><ele>341.0</ele><time>2026-04-19T12:49:29Z</time></trkpt><trkpt lat="45.08585959292266" lon="7.40801194484235"><ele>341.0</ele><time>2026-04-19T12:49:30Z</time></trkpt><trkpt lat="45.085944777336536" lon="7.408092590914204"><ele>341.0</ele><time>2026-04-19T12:49:31Z</time></trkpt><trkpt lat="45.08605032863489" lon="7.40811664538409"><ele>341.0</ele><time>2026-04-19T12:49:32Z</time></trkpt><trkpt lat="45.08616207232891" lon="7.408100691855701"><ele>341.0</ele><time>2026-04-19T12:49:33Z</time></trkpt><trkpt lat="45.08626658288667" lon="7.408048141329296"><ele>341.0</ele><time>2026-04-19T12:49:34Z</time></trkpt><trkpt lat="45.08636783532656" lon="7.408042543277725"><ele>341.0</ele><time>2026-04-19T12:49:35Z</time></trkpt><trkpt lat="45.08646008216551" lon="7.40807802650831"><ele>341.0</ele><time>2026-04-19T12:49:36Z</time></trkpt><trkpt lat="45.08653559585401" lon="7.408125524100985"><ele>341.0</ele><time>2026-04-19T12:49:37Z</time></trkpt><trkpt lat="45.08659580250382" lon="7.408189429429117"><ele>341.0</ele><time>2026-04-19T12:49:38Z</time></trkpt><trkpt lat="45.08668141671563" lon="7.408228483344205"><ele>341.0</ele><time>2026-04-19T12:49:40Z</time></trkpt><trkpt lat="45.08666198509888" lon="7.4084285347426295"><ele>340.8</ele><time>2026-04-19T12:49:41Z</time></trkpt><trkpt lat="45.086707994910675" lon="7.408505169002871"><ele>340.6</ele><time>2026-04-19T12:49:43Z</time></trkpt><trkpt lat="45.08662443718104" lon="7.408504330697497"><ele>340.4</ele><time>2026-04-19T12:49:45Z</time></trkpt><trkpt lat="45.0867656602638" lon="7.408648676939236"><ele>340.2</ele><time>2026-04-19T12:49:56Z</time></trkpt><trkpt lat="45.086817544172796" lon="7.408589758440888"><ele>340.0</ele><time>2026-04-19T12:51:14Z</time></trkpt><trkpt lat="45.086869190197135" lon="7.408651010151529"><ele>340.0</ele><time>2026-04-19T12:56:14Z</time></trkpt><trkpt lat="45.08694122563396" lon="7.408700633815815"><ele>340.0</ele><time>2026-04-19T13:05:23Z</time></trkpt><trkpt lat="45.08702618210475" lon="7.408729187575884"><ele>340.0</ele><time>2026-04-19T13:05:25Z</time></trkpt><trkpt lat="45.087110377797295" lon="7.40875386504605"><ele>340.0</ele><time>2026-04-19T13:05:27Z</time></trkpt><trkpt lat="45.0871800560829" lon="7.408726443808453"><ele>340.0</ele><time>2026-04-19T13:05:29Z</time></trkpt><trkpt lat="45.0872070942282" lon="7.408610946368367"><ele>340.0</ele><time>2026-04-19T13:05:31Z</time></trkpt><trkpt lat="45.08724575686341" lon="7.4085135492596015"><ele>340.0</ele><time>2026-04-19T13:05:33Z</time></trkpt><trkpt lat="45.08732782368239" lon="7.408505437510711"><ele>340.0</ele><time>2026-04-19T13:05:35Z</time></trkpt><trkpt lat="45.08739723430355" lon="7.408611004703021"><ele>340.0</ele><time>2026-04-19T13:05:37Z</time></trkpt><trkpt lat="45.08746899978848" lon="7.4086939880475615"><ele>340.0</ele><time>2026-04-19T13:05:39Z</time></trkpt><trkpt lat="45.08756957277499" lon="7.408697350992312"><ele>340.0</ele><time>2026-04-19T13:05:41Z</time></trkpt><trkpt lat="45.087668373839264" lon="7.408668840485882"><ele>339.8</ele><time>2026-04-19T13:05:43Z</time></trkpt><trkpt lat="45.087722443291575" lon="7.408716327537739"><ele>339.6</ele><time>2026-04-19T13:05:44Z</time></trkpt><trkpt lat="45.08782523219257" lon="7.408726579123837"><ele>339.4</ele><time>2026-04-19T13:05:46Z</time></trkpt><trkpt lat="45.08792532373287" lon="7.4087337526836246"><ele>339.2</ele><time>2026-04-19T13:05:48Z</time></trkpt><trkpt lat="45.08803086056939" lon="7.408730258096037"><ele>339.0</ele><time>2026-04-19T13:05:50Z</time></trkpt><trkpt lat="45.08813185111008" lon="7.408751997657805"><ele>339.0</ele><time>2026-04-19T13:05:52Z</time></trkpt><trkpt lat="45.08823906891316" lon="7.4087519976574825"><ele>339.0</ele><time>2026-04-19T13:05:54Z</time></trkpt><trkpt lat="45.08831563441491" lon="7.408746343616663"><ele>339.0</ele><time>2026-04-19T13:05:55Z</time></trkpt><trkpt lat="45.08839689611688" lon="7.408741400094145"><ele>339.0</ele><time>2026-04-19T13:05:56Z</time></trkpt><trkpt lat="45.08848070591744" lon="7.408736301559488"><ele>339.0</ele><time>2026-04-19T13:05:57Z</time></trkpt><trkpt lat="45.08857023452323" lon="7.408726935304666"><ele>339.0</ele><time>2026-04-19T13:05:58Z</time></trkpt><trkpt lat="45.08866306185342" lon="7.408682550051109"><ele>339.0</ele><time>2026-04-19T13:05:59Z</time></trkpt><trkpt lat="45.08874796323773" lon="7.408583845199149"><ele>339.0</ele><time>2026-04-19T13:06:00Z</time></trkpt><trkpt lat="45.088805635343064" lon="7.408457305812842"><ele>339.0</ele><time>2026-04-19T13:06:01Z</time></trkpt><trkpt lat="45.08885027491243" lon="7.408313998550194"><ele>339.0</ele><time>2026-04-19T13:06:02Z</time></trkpt><trkpt lat="45.08889243291717" lon="7.408178283458935"><ele>339.0</ele><time>2026-04-19T13:06:03Z</time></trkpt><trkpt lat="45.08893098661653" lon="7.408047049776309"><ele>338.79999999999995</ele><time>2026-04-19T13:06:04Z</time></trkpt><trkpt lat="45.0889513459363" lon="7.407917653462438"><ele>338.59999999999997</ele><time>2026-04-19T13:06:05Z</time></trkpt><trkpt lat="45.08898495117369" lon="7.407817160823554"><ele>338.4</ele><time>2026-04-19T13:06:06Z</time></trkpt><trkpt lat="45.08899246914396" lon="7.407713086864964"><ele>338.2</ele><time>2026-04-19T13:06:07Z</time></trkpt><trkpt lat="45.08898764607163" lon="7.40756336220193"><ele>338.0</ele><time>2026-04-19T13:06:09Z</time></trkpt><trkpt lat="45.08886643546128" lon="7.407493283346607"><ele>338.0</ele><time>2026-04-19T13:06:10Z</time></trkpt><trkpt lat="45.08878842373708" lon="7.407464400861552"><ele>338.0</ele><time>2026-04-19T13:06:11Z</time></trkpt><trkpt lat="45.08870559429743" lon="7.407409713828006"><ele>338.0</ele><time>2026-04-19T13:06:12Z</time></trkpt><trkpt lat="45.088609035329874" lon="7.407408569255633"><ele>338.0</ele><time>2026-04-19T13:06:13Z</time></trkpt><trkpt lat="45.08852525124851" lon="7.407366184157883"><ele>338.0</ele><time>2026-04-19T13:06:14Z</time></trkpt><trkpt lat="45.08844448452814" lon="7.407323221599452"><ele>338.0</ele><time>2026-04-19T13:06:15Z</time></trkpt><trkpt lat="45.0883640853189" lon="7.407292361707352"><ele>338.0</ele><time>2026-04-19T13:06:16Z</time></trkpt><trkpt lat="45.088289291329524" lon="7.407265359092769"><ele>338.0</ele><time>2026-04-19T13:06:17Z</time></trkpt><trkpt lat="45.08821451838951" lon="7.407234282162336"><ele>338.0</ele><time>2026-04-19T13:06:18Z</time></trkpt><trkpt lat="45.08813906502875" lon="7.407190886923675"><ele>338.0</ele><time>2026-04-19T13:06:19Z</time></trkpt><trkpt lat="45.08806244479262" lon="7.407152086228479"><ele>338.0</ele><time>2026-04-19T13:06:20Z</time></trkpt><trkpt lat="45.08799068445745" lon="7.407122683299232"><ele>338.0</ele><time>2026-04-19T13:06:21Z</time></trkpt><trkpt lat="45.087938543097785" lon="7.4070461082281405"><ele>338.6666666666667</ele><time>2026-04-19T13:06:22Z</time></trkpt><trkpt lat="45.08787682529196" lon="7.407015356757646"><ele>339.33333333333337</ele><time>2026-04-19T13:06:23Z</time></trkpt><trkpt lat="45.08781282906417" lon="7.406983470052347"><ele>340.0</ele><time>2026-04-19T13:06:24Z</time></trkpt><trkpt lat="45.08773785082326" lon="7.406946111449388"><ele>340.6666666666667</ele><time>2026-04-19T13:06:25Z</time></trkpt><trkpt lat="45.08765377192021" lon="7.406906632891906"><ele>341.3333333333333</ele><time>2026-04-19T13:06:26Z</time></trkpt><trkpt lat="45.08756315599978" lon="7.406864940320215"><ele>342.0</ele><time>2026-04-19T13:06:27Z</time></trkpt><trkpt lat="45.08746292358857" lon="7.406818823213883"><ele>342.20000000000005</ele><time>2026-04-19T13:06:28Z</time></trkpt><trkpt lat="45.08736421029111" lon="7.406770767832824"><ele>342.4</ele><time>2026-04-19T13:06:29Z</time></trkpt><trkpt lat="45.08726762267992" lon="7.406714391079119"><ele>342.6</ele><time>2026-04-19T13:06:30Z</time></trkpt><trkpt lat="45.087177649117244" lon="7.406648157386924"><ele>342.79999999999995</ele><time>2026-04-19T13:06:31Z</time></trkpt><trkpt lat="45.08709395069112" lon="7.406569113316392"><ele>343.0</ele><time>2026-04-19T13:06:32Z</time></trkpt><trkpt lat="45.08700197101014" lon="7.4064825163756955"><ele>343.0</ele><time>2026-04-19T13:06:33Z</time></trkpt><trkpt lat="45.086913661976915" lon="7.406407441698425"><ele>343.0</ele><time>2026-04-19T13:06:34Z</time></trkpt><trkpt lat="45.08683524868197" lon="7.406341217864111"><ele>343.0</ele><time>2026-04-19T13:06:35Z</time></trkpt><trkpt lat="45.08676483857969" lon="7.406282745280311"><ele>343.0</ele><time>2026-04-19T13:06:36Z</time></trkpt><trkpt lat="45.086699249619826" lon="7.40623131459328"><ele>343.0</ele><time>2026-04-19T13:06:37Z</time></trkpt><trkpt lat="45.0866366827625" lon="7.406185794136957"><ele>343.0</ele><time>2026-04-19T13:06:38Z</time></trkpt><trkpt lat="45.08657280287856" lon="7.406142032535345"><ele>342.59999999999997</ele><time>2026-04-19T13:06:39Z</time></trkpt><trkpt lat="45.0864889408761" lon="7.406044520986277"><ele>342.2</ele><time>2026-04-19T13:06:41Z</time></trkpt><trkpt lat="45.086505473482056" lon="7.405950600875745"><ele>341.8</ele><time>2026-04-19T13:06:42Z</time></trkpt><trkpt lat="45.0865531962456" lon="7.405850401000185"><ele>341.4</ele><time>2026-04-19T13:06:43Z</time></trkpt><trkpt lat="45.08660797975968" lon="7.4057281817154585"><ele>341.0</ele><time>2026-04-19T13:06:44Z</time></trkpt><trkpt lat="45.08666218885766" lon="7.40557257321064"><ele>340.75</ele><time>2026-04-19T13:06:45Z</time></trkpt><trkpt lat="45.08672070861818" lon="7.4053987677938755"><ele>340.5</ele><time>2026-04-19T13:06:46Z</time></trkpt><trkpt lat="45.086787859070164" lon="7.405208161521487"><ele>340.25</ele><time>2026-04-19T13:06:47Z</time></trkpt><trkpt lat="45.08685402006334" lon="7.4050168444019056"><ele>340.0</ele><time>2026-04-19T13:06:48Z</time></trkpt><trkpt lat="45.08692073459429" lon="7.404821146673722"><ele>340.3333333333333</ele><time>2026-04-19T13:06:49Z</time></trkpt><trkpt lat="45.08698942549207" lon="7.404627719173199"><ele>340.6666666666667</ele><time>2026-04-19T13:06:50Z</time></trkpt><trkpt lat="45.087059211108226" lon="7.404428288641142"><ele>341.0</ele><time>2026-04-19T13:06:51Z</time></trkpt><trkpt lat="45.08712580275568" lon="7.404235734399904"><ele>341.0</ele><time>2026-04-19T13:06:52Z</time></trkpt><trkpt lat="45.087193631887544" lon="7.404047860716964"><ele>341.0</ele><time>2026-04-19T13:06:53Z</time></trkpt><trkpt lat="45.087257525575154" lon="7.403865894288852"><ele>341.0</ele><time>2026-04-19T13:06:54Z</time></trkpt><trkpt lat="45.08731998558847" lon="7.403692851647365"><ele>341.0</ele><time>2026-04-19T13:06:55Z</time></trkpt><trkpt lat="45.08738632396829" lon="7.403505701530642"><ele>341.0</ele><time>2026-04-19T13:06:56Z</time></trkpt><trkpt lat="45.08745305586681" lon="7.403311801731787"><ele>341.0</ele><time>2026-04-19T13:06:57Z</time></trkpt><trkpt lat="45.087517914399136" lon="7.403115909841642"><ele>341.0</ele><time>2026-04-19T13:06:58Z</time></trkpt><trkpt lat="45.087579987879195" lon="7.402934601155076"><ele>341.0</ele><time>2026-04-19T13:06:59Z</time></trkpt><trkpt lat="45.087639171501095" lon="7.402759931301606"><ele>341.0</ele><time>2026-04-19T13:07:00Z</time></trkpt><trkpt lat="45.087697647705646" lon="7.402591161199846"><ele>341.0</ele><time>2026-04-19T13:07:01Z</time></trkpt><trkpt lat="45.08776114548355" lon="7.402436312181213"><ele>341.0</ele><time>2026-04-19T13:07:02Z</time></trkpt><trkpt lat="45.087826306807386" lon="7.402310886817041"><ele>341.0</ele><time>2026-04-19T13:07:03Z</time></trkpt><trkpt lat="45.08788636668889" lon="7.402194192741386"><ele>341.25</ele><time>2026-04-19T13:07:04Z</time></trkpt><trkpt lat="45.08793475952855" lon="7.4020668451602765"><ele>341.5</ele><time>2026-04-19T13:07:05Z</time></trkpt><trkpt lat="45.087926237803515" lon="7.401886658786411"><ele>341.75</ele><time>2026-04-19T13:07:06Z</time></trkpt><trkpt lat="45.087977942043025" lon="7.401719391604391"><ele>342.0</ele><time>2026-04-19T13:07:07Z</time></trkpt><trkpt lat="45.088048239612995" lon="7.401550215070085"><ele>342.0</ele><time>2026-04-19T13:07:08Z</time></trkpt><trkpt lat="45.08811079623459" lon="7.401359474990711"><ele>342.0</ele><time>2026-04-19T13:07:09Z</time></trkpt><trkpt lat="45.08817891806223" lon="7.401150089387029"><ele>342.0</ele><time>2026-04-19T13:07:10Z</time></trkpt><trkpt lat="45.08824787367939" lon="7.4009251255704305"><ele>342.3333333333333</ele><time>2026-04-19T13:07:11Z</time></trkpt><trkpt lat="45.08831479174994" lon="7.400690378764993"><ele>342.66666666666663</ele><time>2026-04-19T13:07:12Z</time></trkpt><trkpt lat="45.08837614275689" lon="7.400448056342246"><ele>343.0</ele><time>2026-04-19T13:07:13Z</time></trkpt><trkpt lat="45.08844483018" lon="7.4002198043283"><ele>343.3333333333333</ele><time>2026-04-19T13:07:14Z</time></trkpt><trkpt lat="45.08848968019454" lon="7.399962460762191"><ele>343.6666666666667</ele><time>2026-04-19T13:07:15Z</time></trkpt><trkpt lat="45.08850784173066" lon="7.399698585763728"><ele>344.0</ele><time>2026-04-19T13:07:16Z</time></trkpt><trkpt lat="45.08855720204147" lon="7.399424701201426"><ele>344.0</ele><time>2026-04-19T13:07:17Z</time></trkpt><trkpt lat="45.08858707539569" lon="7.399125756532827"><ele>344.0</ele><time>2026-04-19T13:07:18Z</time></trkpt><trkpt lat="45.0885985395579" lon="7.39881723693018"><ele>344.0</ele><time>2026-04-19T13:07:19Z</time></trkpt><trkpt lat="45.08860711301374" lon="7.398501767651643"><ele>344.5</ele><time>2026-04-19T13:07:20Z</time></trkpt><trkpt lat="45.088615403467486" lon="7.3981711885417525"><ele>345.0</ele><time>2026-04-19T13:07:21Z</time></trkpt><trkpt lat="45.08860828765577" lon="7.39783512808999"><ele>345.0</ele><time>2026-04-19T13:07:22Z</time></trkpt><trkpt lat="45.08863211784457" lon="7.397489181355057"><ele>345.0</ele><time>2026-04-19T13:07:23Z</time></trkpt><trkpt lat="45.08864078658133" lon="7.397135465485315"><ele>344.0</ele><time>2026-04-19T13:07:24Z</time></trkpt><trkpt lat="45.08865044352445" lon="7.396779513809353"><ele>343.0</ele><time>2026-04-19T13:07:25Z</time></trkpt><trkpt lat="45.08866027913455" lon="7.39642326975728"><ele>343.0</ele><time>2026-04-19T13:07:26Z</time></trkpt><trkpt lat="45.08867003323616" lon="7.396069977934962"><ele>343.0</ele><time>2026-04-19T13:07:27Z</time></trkpt><trkpt lat="45.088665526235204" lon="7.395734063985084"><ele>343.66666666666663</ele><time>2026-04-19T13:07:28Z</time></trkpt><trkpt lat="45.088672197117795" lon="7.395421147089203"><ele>344.3333333333333</ele><time>2026-04-19T13:07:29Z</time></trkpt><trkpt lat="45.08867927167101" lon="7.39511364553547"><ele>345.0</ele><time>2026-04-19T13:07:30Z</time></trkpt><trkpt lat="45.088687360475724" lon="7.394813327685562"><ele>345.0</ele><time>2026-04-19T13:07:31Z</time></trkpt><trkpt lat="45.08869383468215" lon="7.3945323379593395"><ele>345.0</ele><time>2026-04-19T13:07:32Z</time></trkpt><trkpt lat="45.08870035156492" lon="7.394263595190664"><ele>345.0</ele><time>2026-04-19T13:07:33Z</time></trkpt><trkpt lat="45.088720745751644" lon="7.394015663047081"><ele>344.6666666666667</ele><time>2026-04-19T13:07:34Z</time></trkpt><trkpt lat="45.08871392398427" lon="7.393771039365875"><ele>344.33333333333337</ele><time>2026-04-19T13:07:35Z</time></trkpt><trkpt lat="45.088686487071364" lon="7.3935495026083515"><ele>344.0</ele><time>2026-04-19T13:07:36Z</time></trkpt><trkpt lat="45.088650559027215" lon="7.39337296838908"><ele>344.0</ele><time>2026-04-19T13:07:37Z</time></trkpt><trkpt lat="45.088662370392576" lon="7.393201108560376"><ele>344.0</ele><time>2026-04-19T13:07:38Z</time></trkpt><trkpt lat="45.088698661135965" lon="7.393020499249295"><ele>344.0</ele><time>2026-04-19T13:07:38.999Z</time></trkpt><trkpt lat="45.08867472600713" lon="7.392815032162359"><ele>344.0</ele><time>2026-04-19T13:07:39.999Z</time></trkpt><trkpt lat="45.08860944117004" lon="7.392616216648037"><ele>344.33333333333337</ele><time>2026-04-19T13:07:40.999Z</time></trkpt><trkpt lat="45.08863833272265" lon="7.392420038953187"><ele>344.6666666666667</ele><time>2026-04-19T13:07:41.999Z</time></trkpt><trkpt lat="45.08872653856236" lon="7.3922264522683845"><ele>345.0</ele><time>2026-04-19T13:07:42.999Z</time></trkpt><trkpt lat="45.08882628091448" lon="7.391985204154722"><ele>345.0</ele><time>2026-04-19T13:07:43.999Z</time></trkpt><trkpt lat="45.08893138690575" lon="7.391730982700217"><ele>345.0</ele><time>2026-04-19T13:07:44.999Z</time></trkpt><trkpt lat="45.089043961519394" lon="7.391458696942621"><ele>345.0</ele><time>2026-04-19T13:07:45.999Z</time></trkpt><trkpt lat="45.089160529748504" lon="7.391176370234388"><ele>346.0</ele><time>2026-04-19T13:07:46.999Z</time></trkpt><trkpt lat="45.0892765332375" lon="7.3908948705885"><ele>347.0</ele><time>2026-04-19T13:07:47.999Z</time></trkpt><trkpt lat="45.089394060933635" lon="7.390609672275868"><ele>346.0</ele><time>2026-04-19T13:07:48.999Z</time></trkpt><trkpt lat="45.0895144923546" lon="7.390317427594677"><ele>345.0</ele><time>2026-04-19T13:07:49.999Z</time></trkpt><trkpt lat="45.08963637082739" lon="7.390021671427616"><ele>345.0</ele><time>2026-04-19T13:07:50.999Z</time></trkpt><trkpt lat="45.089761325645206" lon="7.389718450080411"><ele>345.0</ele><time>2026-04-19T13:07:51.999Z</time></trkpt><trkpt lat="45.0898871050322" lon="7.389414093513379"><ele>345.0</ele><time>2026-04-19T13:07:52.999Z</time></trkpt><trkpt lat="45.09001327949898" lon="7.389108792515879"><ele>345.0</ele><time>2026-04-19T13:07:53.999Z</time></trkpt><trkpt lat="45.09011380800793" lon="7.388781226588607"><ele>345.5</ele><time>2026-04-19T13:07:55Z</time></trkpt><trkpt lat="45.090236656194875" lon="7.38847938511794"><ele>346.0</ele><time>2026-04-19T13:07:56Z</time></trkpt><trkpt lat="45.0903530263541" lon="7.388202915233849"><ele>346.0</ele><time>2026-04-19T13:07:57Z</time></trkpt><trkpt lat="45.090462004810895" lon="7.387948202030667"><ele>346.0</ele><time>2026-04-19T13:07:58Z</time></trkpt><trkpt lat="45.09058712489596" lon="7.38772600271713"><ele>346.0</ele><time>2026-04-19T13:07:59Z</time></trkpt><trkpt lat="45.090684722715494" lon="7.387491186849414"><ele>346.0</ele><time>2026-04-19T13:08:00Z</time></trkpt><trkpt lat="45.090780766701116" lon="7.387239766267666"><ele>346.0</ele><time>2026-04-19T13:08:01Z</time></trkpt><trkpt lat="45.09087229750241" lon="7.386982460217795"><ele>346.0</ele><time>2026-04-19T13:08:02Z</time></trkpt><trkpt lat="45.09095459402892" lon="7.386749147014382"><ele>346.25</ele><time>2026-04-19T13:08:03Z</time></trkpt><trkpt lat="45.09102132400106" lon="7.386552928263722"><ele>346.5</ele><time>2026-04-19T13:08:04Z</time></trkpt><trkpt lat="45.091076784978696" lon="7.386366433043731"><ele>346.75</ele><time>2026-04-19T13:08:05Z</time></trkpt><trkpt lat="45.09111196274145" lon="7.386177232013465"><ele>347.0</ele><time>2026-04-19T13:08:06Z</time></trkpt><trkpt lat="45.091123385268745" lon="7.385985088199951"><ele>347.0</ele><time>2026-04-19T13:08:07Z</time></trkpt><trkpt lat="45.09110718172524" lon="7.385774486945191"><ele>347.0</ele><time>2026-04-19T13:08:08Z</time></trkpt><trkpt lat="45.09106082584472" lon="7.385519506155236"><ele>347.0</ele><time>2026-04-19T13:08:09Z</time></trkpt><trkpt lat="45.09100808167339" lon="7.385245526126523"><ele>346.33333333333337</ele><time>2026-04-19T13:08:10Z</time></trkpt><trkpt lat="45.09095535292918" lon="7.384966695002646"><ele>345.6666666666667</ele><time>2026-04-19T13:08:11Z</time></trkpt><trkpt lat="45.09091618336913" lon="7.384677157493424"><ele>345.0</ele><time>2026-04-19T13:08:12Z</time></trkpt><trkpt lat="45.09092138838055" lon="7.384376417740523"><ele>345.0</ele><time>2026-04-19T13:08:13Z</time></trkpt><trkpt lat="45.09098127263261" lon="7.384089908079446"><ele>345.0</ele><time>2026-04-19T13:08:14Z</time></trkpt><trkpt lat="45.09107104571293" lon="7.383790437326525"><ele>345.0</ele><time>2026-04-19T13:08:15Z</time></trkpt><trkpt lat="45.09116521462358" lon="7.383477241744711"><ele>345.0</ele><time>2026-04-19T13:08:16Z</time></trkpt><trkpt lat="45.091258341654225" lon="7.383167510643813"><ele>345.0</ele><time>2026-04-19T13:08:17Z</time></trkpt><trkpt lat="45.091351366418834" lon="7.382858119791526"><ele>345.5</ele><time>2026-04-19T13:08:18Z</time></trkpt><trkpt lat="45.09144475290858" lon="7.382542350447849"><ele>346.0</ele><time>2026-04-19T13:08:19Z</time></trkpt><trkpt lat="45.09153872833776" lon="7.382219736200182"><ele>346.5</ele><time>2026-04-19T13:08:20Z</time></trkpt><trkpt lat="45.09162276160409" lon="7.381884762404842"><ele>347.0</ele><time>2026-04-19T13:08:21Z</time></trkpt><trkpt lat="45.09172148021444" lon="7.381559803579194"><ele>348.0</ele><time>2026-04-19T13:08:22Z</time></trkpt><trkpt lat="45.09181998902924" lon="7.38123421532819"><ele>349.0</ele><time>2026-04-19T13:08:23Z</time></trkpt><trkpt lat="45.09191074663769" lon="7.3809255705055365"><ele>349.0</ele><time>2026-04-19T13:08:24Z</time></trkpt><trkpt lat="45.09199748734006" lon="7.38062806268834"><ele>349.0</ele><time>2026-04-19T13:08:25Z</time></trkpt><trkpt lat="45.092084597440916" lon="7.380322242323705"><ele>348.5</ele><time>2026-04-19T13:08:26Z</time></trkpt><trkpt lat="45.09217534176792" lon="7.38001063478798"><ele>348.0</ele><time>2026-04-19T13:08:27Z</time></trkpt><trkpt lat="45.09226725873681" lon="7.379698660725272"><ele>348.0</ele><time>2026-04-19T13:08:28Z</time></trkpt><trkpt lat="45.09235894747003" lon="7.379389637876079"><ele>348.0</ele><time>2026-04-19T13:08:29Z</time></trkpt><trkpt lat="45.09245284922836" lon="7.3790831812617945"><ele>349.5</ele><time>2026-04-19T13:08:30Z</time></trkpt><trkpt lat="45.092565868376475" lon="7.378793511997779"><ele>351.0</ele><time>2026-04-19T13:08:31Z</time></trkpt><trkpt lat="45.092630957195695" lon="7.378478440914054"><ele>351.0</ele><time>2026-04-19T13:08:32Z</time></trkpt><trkpt lat="45.09271633765423" lon="7.378183377582448"><ele>351.0</ele><time>2026-04-19T13:08:33Z</time></trkpt><trkpt lat="45.092802732944776" lon="7.377893971620771"><ele>351.0</ele><time>2026-04-19T13:08:34Z</time></trkpt><trkpt lat="45.09288864355391" lon="7.3776063930775955"><ele>351.0</ele><time>2026-04-19T13:08:35Z</time></trkpt><trkpt lat="45.09297437432805" lon="7.377320569594684"><ele>351.0</ele><time>2026-04-19T13:08:36Z</time></trkpt><trkpt lat="45.09305763980962" lon="7.377034673638603"><ele>351.0</ele><time>2026-04-19T13:08:37Z</time></trkpt><trkpt lat="45.093169748572585" lon="7.376775124372616"><ele>351.0</ele><time>2026-04-19T13:08:38Z</time></trkpt><trkpt lat="45.093254688605825" lon="7.37648961759632"><ele>351.0</ele><time>2026-04-19T13:08:39Z</time></trkpt><trkpt lat="45.09333713000313" lon="7.376212509448223"><ele>351.0</ele><time>2026-04-19T13:08:40Z</time></trkpt><trkpt lat="45.09341993815385" lon="7.375934659654991"><ele>351.0</ele><time>2026-04-19T13:08:41Z</time></trkpt><trkpt lat="45.09349903505987" lon="7.3756695534238705"><ele>351.0</ele><time>2026-04-19T13:08:42Z</time></trkpt><trkpt lat="45.09357392549456" lon="7.375418545786423"><ele>351.0</ele><time>2026-04-19T13:08:43Z</time></trkpt><trkpt lat="45.09361610547489" lon="7.375161249974367"><ele>351.0</ele><time>2026-04-19T13:08:44Z</time></trkpt><trkpt lat="45.09368712768897" lon="7.3749223279960034"><ele>351.0</ele><time>2026-04-19T13:08:45Z</time></trkpt><trkpt lat="45.093759912879676" lon="7.374673462127015"><ele>351.0</ele><time>2026-04-19T13:08:46Z</time></trkpt><trkpt lat="45.09383408725199" lon="7.374439101710712"><ele>350.6666666666667</ele><time>2026-04-19T13:08:47Z</time></trkpt><trkpt lat="45.09393379271198" lon="7.3742135191046385"><ele>350.33333333333337</ele><time>2026-04-19T13:08:48Z</time></trkpt><trkpt lat="45.0940076895492" lon="7.373965724978133"><ele>350.0</ele><time>2026-04-19T13:08:49Z</time></trkpt><trkpt lat="45.09407931383926" lon="7.37372514507221"><ele>350.6666666666667</ele><time>2026-04-19T13:08:50Z</time></trkpt><trkpt lat="45.09414776819967" lon="7.373494395316229"><ele>351.3333333333333</ele><time>2026-04-19T13:08:51Z</time></trkpt><trkpt lat="45.09421389506573" lon="7.373271491216271"><ele>352.0</ele><time>2026-04-19T13:08:52Z</time></trkpt><trkpt lat="45.09427656861302" lon="7.373060227688634"><ele>352.0</ele><time>2026-04-19T13:08:53Z</time></trkpt><trkpt lat="45.09433575024928" lon="7.3728604701999165"><ele>352.0</ele><time>2026-04-19T13:08:54Z</time></trkpt><trkpt lat="45.094393279702345" lon="7.372666113584317"><ele>352.0</ele><time>2026-04-19T13:08:55Z</time></trkpt><trkpt lat="45.09445116102453" lon="7.3724708564731625"><ele>352.0</ele><time>2026-04-19T13:08:56Z</time></trkpt><trkpt lat="45.094508772737875" lon="7.3722764616617225"><ele>352.0</ele><time>2026-04-19T13:08:57Z</time></trkpt><trkpt lat="45.094567507768474" lon="7.372079649277633"><ele>352.0</ele><time>2026-04-19T13:08:58Z</time></trkpt><trkpt lat="45.094625260286215" lon="7.371886176135695"><ele>352.0</ele><time>2026-04-19T13:08:59Z</time></trkpt><trkpt lat="45.09467947761227" lon="7.37170563851762"><ele>352.0</ele><time>2026-04-19T13:09:00Z</time></trkpt><trkpt lat="45.09473029265197" lon="7.371536827894383"><ele>352.0</ele><time>2026-04-19T13:09:01Z</time></trkpt><trkpt lat="45.09477805802815" lon="7.3713781483947285"><ele>352.0</ele><time>2026-04-19T13:09:02Z</time></trkpt><trkpt lat="45.09482333942505" lon="7.371227720899111"><ele>352.0</ele><time>2026-04-19T13:09:03Z</time></trkpt><trkpt lat="45.09486614009975" lon="7.3710855334998975"><ele>352.0</ele><time>2026-04-19T13:09:04Z</time></trkpt><trkpt lat="45.0949054732737" lon="7.370952535075849"><ele>352.0</ele><time>2026-04-19T13:09:05Z</time></trkpt><trkpt lat="45.094942515754155" lon="7.370830593684236"><ele>352.0</ele><time>2026-04-19T13:09:06Z</time></trkpt><trkpt lat="45.09497776674491" lon="7.370732175388328"><ele>352.0</ele><time>2026-04-19T13:09:07Z</time></trkpt><trkpt lat="45.09502619198062" lon="7.37065092405164"><ele>352.0</ele><time>2026-04-19T13:09:08Z</time></trkpt><trkpt lat="45.095050428720214" lon="7.370466013204874"><ele>352.3333333333333</ele><time>2026-04-19T13:09:10Z</time></trkpt><trkpt lat="45.095071563248084" lon="7.370361825853313"><ele>352.66666666666663</ele><time>2026-04-19T13:09:13Z</time></trkpt><trkpt lat="45.095121249553486" lon="7.370245596526279"><ele>353.0</ele><time>2026-04-19T13:09:37Z</time></trkpt><trkpt lat="45.09515181878299" lon="7.370133756605367"><ele>353.3333333333333</ele><time>2026-04-19T13:09:38Z</time></trkpt><trkpt lat="45.095187585744625" lon="7.370021289908946"><ele>353.6666666666667</ele><time>2026-04-19T13:09:39Z</time></trkpt><trkpt lat="45.09522049926307" lon="7.369902258963479"><ele>354.0</ele><time>2026-04-19T13:09:40Z</time></trkpt><trkpt lat="45.09525660021901" lon="7.3697648813118315"><ele>354.25</ele><time>2026-04-19T13:09:41Z</time></trkpt><trkpt lat="45.09530222922662" lon="7.369624077654119"><ele>354.5</ele><time>2026-04-19T13:09:42Z</time></trkpt><trkpt lat="45.09534713599704" lon="7.369466119668936"><ele>354.75</ele><time>2026-04-19T13:09:43Z</time></trkpt><trkpt lat="45.09539441765229" lon="7.369290076975346"><ele>355.0</ele><time>2026-04-19T13:09:44Z</time></trkpt><trkpt lat="45.09544416325809" lon="7.369116993989167"><ele>355.0</ele><time>2026-04-19T13:09:45Z</time></trkpt><trkpt lat="45.09549743386606" lon="7.368937438373547"><ele>355.0</ele><time>2026-04-19T13:09:46Z</time></trkpt><trkpt lat="45.0955514825692" lon="7.368761270864435"><ele>355.0</ele><time>2026-04-19T13:09:47Z</time></trkpt><trkpt lat="45.09561490163751" lon="7.368582280935229"><ele>355.0</ele><time>2026-04-19T13:09:48Z</time></trkpt><trkpt lat="45.09569310589669" lon="7.368403789517312"><ele>354.66666666666663</ele><time>2026-04-19T13:09:49Z</time></trkpt><trkpt lat="45.09578534185219" lon="7.368224054699151"><ele>354.3333333333333</ele><time>2026-04-19T13:09:50Z</time></trkpt><trkpt lat="45.095885902230584" lon="7.368050057174418"><ele>354.0</ele><time>2026-04-19T13:09:51Z</time></trkpt><trkpt lat="45.095996451100994" lon="7.367888879635818"><ele>354.0</ele><time>2026-04-19T13:09:52Z</time></trkpt><trkpt lat="45.09611532307137" lon="7.367741871353914"><ele>354.0</ele><time>2026-04-19T13:09:53Z</time></trkpt><trkpt lat="45.09624006639165" lon="7.367604132645471"><ele>354.0</ele><time>2026-04-19T13:09:54Z</time></trkpt><trkpt lat="45.096371936353826" lon="7.367476503982067"><ele>354.0</ele><time>2026-04-19T13:09:55Z</time></trkpt><trkpt lat="45.09650863824671" lon="7.3673521867075795"><ele>354.0</ele><time>2026-04-19T13:09:56Z</time></trkpt><trkpt lat="45.09664469252758" lon="7.367233033665366"><ele>354.0</ele><time>2026-04-19T13:09:57Z</time></trkpt><trkpt lat="45.09677851234579" lon="7.367115628644415"><ele>354.0</ele><time>2026-04-19T13:09:58Z</time></trkpt><trkpt lat="45.09692029416849" lon="7.3670255000829075"><ele>354.0</ele><time>2026-04-19T13:09:59Z</time></trkpt><trkpt lat="45.09705319551671" lon="7.3669154541250865"><ele>354.0</ele><time>2026-04-19T13:10:00Z</time></trkpt><trkpt lat="45.09717634500421" lon="7.366813482988093"><ele>354.0</ele><time>2026-04-19T13:10:01Z</time></trkpt><trkpt lat="45.09729866435556" lon="7.366712199209508"><ele>354.0</ele><time>2026-04-19T13:10:02Z</time></trkpt><trkpt lat="45.09742223307748" lon="7.36660988092297"><ele>354.0</ele><time>2026-04-19T13:10:03Z</time></trkpt><trkpt lat="45.09753762023055" lon="7.36651375876196"><ele>354.0</ele><time>2026-04-19T13:10:04Z</time></trkpt><trkpt lat="45.097649852033335" lon="7.366419836083721"><ele>353.75</ele><time>2026-04-19T13:10:05Z</time></trkpt><trkpt lat="45.09775473618011" lon="7.366306140087623"><ele>353.5</ele><time>2026-04-19T13:10:06Z</time></trkpt><trkpt lat="45.09788053052987" lon="7.366226868105157"><ele>353.25</ele><time>2026-04-19T13:10:07Z</time></trkpt><trkpt lat="45.09800132740263" lon="7.366125938227882"><ele>353.0</ele><time>2026-04-19T13:10:08Z</time></trkpt><trkpt lat="45.09812590194965" lon="7.3660218519730805"><ele>353.0</ele><time>2026-04-19T13:10:09Z</time></trkpt><trkpt lat="45.09825241145368" lon="7.3659171014643166"><ele>353.0</ele><time>2026-04-19T13:10:10Z</time></trkpt><trkpt lat="45.098378878272264" lon="7.3658128944460834"><ele>353.0</ele><time>2026-04-19T13:10:11Z</time></trkpt><trkpt lat="45.09850452567041" lon="7.365708047815357"><ele>353.0</ele><time>2026-04-19T13:10:12Z</time></trkpt><trkpt lat="45.098629944518734" lon="7.365598236955508"><ele>353.0</ele><time>2026-04-19T13:10:13Z</time></trkpt><trkpt lat="45.0987527507229" lon="7.3654828098757354"><ele>353.0</ele><time>2026-04-19T13:10:14Z</time></trkpt><trkpt lat="45.09886790165947" lon="7.365348478313507"><ele>353.0</ele><time>2026-04-19T13:10:15Z</time></trkpt><trkpt lat="45.09897445091522" lon="7.365198256445921"><ele>353.0</ele><time>2026-04-19T13:10:16Z</time></trkpt><trkpt lat="45.09907601659867" lon="7.3650370637145635"><ele>353.0</ele><time>2026-04-19T13:10:17Z</time></trkpt><trkpt lat="45.099171177411776" lon="7.3648705293861125"><ele>353.0</ele><time>2026-04-19T13:10:18Z</time></trkpt><trkpt lat="45.09925602634255" lon="7.364689921306105"><ele>353.0</ele><time>2026-04-19T13:10:19Z</time></trkpt><trkpt lat="45.099324339625284" lon="7.364491814208654"><ele>353.6666666666667</ele><time>2026-04-19T13:10:20Z</time></trkpt><trkpt lat="45.09938465169074" lon="7.3642945560589865"><ele>354.3333333333333</ele><time>2026-04-19T13:10:21Z</time></trkpt><trkpt lat="45.09941701732246" lon="7.36408151315102"><ele>355.0</ele><time>2026-04-19T13:10:22Z</time></trkpt><trkpt lat="45.099474751157636" lon="7.363883448567918"><ele>354.66666666666663</ele><time>2026-04-19T13:10:23Z</time></trkpt><trkpt lat="45.099536125020364" lon="7.3636841036422815"><ele>354.3333333333333</ele><time>2026-04-19T13:10:24Z</time></trkpt><trkpt lat="45.0995974064818" lon="7.36348858494134"><ele>354.0</ele><time>2026-04-19T13:10:25Z</time></trkpt><trkpt lat="45.099659759976745" lon="7.3632935214011095"><ele>354.0</ele><time>2026-04-19T13:10:26Z</time></trkpt><trkpt lat="45.09972230406613" lon="7.363091051354272"><ele>354.0</ele><time>2026-04-19T13:10:27Z</time></trkpt><trkpt lat="45.09981470527797" lon="7.362897136866725"><ele>354.0</ele><time>2026-04-19T13:10:28Z</time></trkpt><trkpt lat="45.09988408592053" lon="7.362669553199505"><ele>354.6666666666667</ele><time>2026-04-19T13:10:29Z</time></trkpt><trkpt lat="45.09995617856743" lon="7.362434242896086"><ele>355.33333333333337</ele><time>2026-04-19T13:10:30Z</time></trkpt><trkpt lat="45.10002889103868" lon="7.362198750240751"><ele>356.0</ele><time>2026-04-19T13:10:31Z</time></trkpt><trkpt lat="45.10009643378618" lon="7.361980000535519"><ele>356.0</ele><time>2026-04-19T13:10:32Z</time></trkpt><trkpt lat="45.10015341067983" lon="7.36179614311951"><ele>356.0</ele><time>2026-04-19T13:10:33Z</time></trkpt><trkpt lat="45.10020448304484" lon="7.361628100158238"><ele>356.0</ele><time>2026-04-19T13:10:34Z</time></trkpt><trkpt lat="45.100252641728744" lon="7.361468362531997"><ele>356.0</ele><time>2026-04-19T13:10:35Z</time></trkpt><trkpt lat="45.10029554748116" lon="7.36132591744246"><ele>356.0</ele><time>2026-04-19T13:10:36Z</time></trkpt><trkpt lat="45.10033269327211" lon="7.361207471396544"><ele>356.0</ele><time>2026-04-19T13:10:37Z</time></trkpt><trkpt lat="45.10036484077644" lon="7.361106645126897"><ele>356.0</ele><time>2026-04-19T13:10:38Z</time></trkpt><trkpt lat="45.100396614552324" lon="7.361008806691495"><ele>356.0</ele><time>2026-04-19T13:10:39Z</time></trkpt><trkpt lat="45.10042935889663" lon="7.360907979662247"><ele>356.0</ele><time>2026-04-19T13:10:40Z</time></trkpt><trkpt lat="45.10046450516513" lon="7.360804844321537"><ele>356.0</ele><time>2026-04-19T13:10:41Z</time></trkpt><trkpt lat="45.100509832077925" lon="7.360682277382523"><ele>356.0</ele><time>2026-04-19T13:10:42Z</time></trkpt><trkpt lat="45.100563008090354" lon="7.36055190926654"><ele>356.0</ele><time>2026-04-19T13:10:43Z</time></trkpt><trkpt lat="45.10062353403727" lon="7.360411830371101"><ele>356.0</ele><time>2026-04-19T13:10:44Z</time></trkpt><trkpt lat="45.10069793951634" lon="7.360274642556363"><ele>356.0</ele><time>2026-04-19T13:10:45Z</time></trkpt><trkpt lat="45.10076661182898" lon="7.360104317279498"><ele>356.25</ele><time>2026-04-19T13:10:46Z</time></trkpt><trkpt lat="45.10086198800461" lon="7.359956926403404"><ele>356.5</ele><time>2026-04-19T13:10:47Z</time></trkpt><trkpt lat="45.10096607460481" lon="7.359805579301537"><ele>356.75</ele><time>2026-04-19T13:10:48Z</time></trkpt><trkpt lat="45.10107350525215" lon="7.359653801815291"><ele>357.0</ele><time>2026-04-19T13:10:49Z</time></trkpt><trkpt lat="45.10118284900305" lon="7.359499007164499"><ele>357.25</ele><time>2026-04-19T13:10:50Z</time></trkpt><trkpt lat="45.10128958497677" lon="7.3593449785602"><ele>357.5</ele><time>2026-04-19T13:10:51Z</time></trkpt><trkpt lat="45.101396109818786" lon="7.359197100131297"><ele>357.75</ele><time>2026-04-19T13:10:52Z</time></trkpt><trkpt lat="45.10151372325239" lon="7.359080918250401"><ele>358.0</ele><time>2026-04-19T13:10:53Z</time></trkpt><trkpt lat="45.101605182964505" lon="7.358948621423173"><ele>357.75</ele><time>2026-04-19T13:10:54Z</time></trkpt><trkpt lat="45.10167599516167" lon="7.358779371812132"><ele>357.5</ele><time>2026-04-19T13:10:55Z</time></trkpt><trkpt lat="45.101766170471" lon="7.358608127710089"><ele>357.25</ele><time>2026-04-19T13:10:56Z</time></trkpt><trkpt lat="45.101839540540716" lon="7.358412083432092"><ele>357.0</ele><time>2026-04-19T13:10:57Z</time></trkpt><trkpt lat="45.1019097190035" lon="7.35820705902009"><ele>357.0</ele><time>2026-04-19T13:10:58Z</time></trkpt><trkpt lat="45.10197010401418" lon="7.357981840980848"><ele>357.0</ele><time>2026-04-19T13:10:59Z</time></trkpt><trkpt lat="45.10207079570591" lon="7.357770999516627"><ele>357.0</ele><time>2026-04-19T13:11:00Z</time></trkpt><trkpt lat="45.10213946958618" lon="7.357534381704849"><ele>357.0</ele><time>2026-04-19T13:11:01Z</time></trkpt><trkpt lat="45.102211040648456" lon="7.357287781491041"><ele>357.0</ele><time>2026-04-19T13:11:02Z</time></trkpt><trkpt lat="45.10228031546946" lon="7.357043619404989"><ele>357.0</ele><time>2026-04-19T13:11:03Z</time></trkpt><trkpt lat="45.10235083405441" lon="7.356794214412085"><ele>357.0</ele><time>2026-04-19T13:11:04Z</time></trkpt><trkpt lat="45.10242417043376" lon="7.356536385467551"><ele>357.0</ele><time>2026-04-19T13:11:05Z</time></trkpt><trkpt lat="45.10249937705141" lon="7.35627463739269"><ele>357.0</ele><time>2026-04-19T13:11:06Z</time></trkpt><trkpt lat="45.10257656470396" lon="7.356005994532054"><ele>357.3333333333333</ele><time>2026-04-19T13:11:07Z</time></trkpt><trkpt lat="45.10263477630614" lon="7.355724470319766"><ele>357.66666666666663</ele><time>2026-04-19T13:11:08Z</time></trkpt><trkpt lat="45.102712193033014" lon="7.355450733749851"><ele>358.0</ele><time>2026-04-19T13:11:09Z</time></trkpt><trkpt lat="45.102791294098125" lon="7.355170131808169"><ele>358.0</ele><time>2026-04-19T13:11:10Z</time></trkpt><trkpt lat="45.1028733728993" lon="7.3548904528155665"><ele>358.0</ele><time>2026-04-19T13:11:11Z</time></trkpt><trkpt lat="45.1029731997462" lon="7.354619686281797"><ele>358.0</ele><time>2026-04-19T13:11:12Z</time></trkpt><trkpt lat="45.10304097787808" lon="7.3543334726790945"><ele>358.0</ele><time>2026-04-19T13:11:13Z</time></trkpt><trkpt lat="45.10313560463505" lon="7.35405749635409"><ele>358.0</ele><time>2026-04-19T13:11:14Z</time></trkpt><trkpt lat="45.10321796408804" lon="7.353772704343121"><ele>358.0</ele><time>2026-04-19T13:11:15Z</time></trkpt><trkpt lat="45.10329787718087" lon="7.353496371635963"><ele>358.0</ele><time>2026-04-19T13:11:16Z</time></trkpt><trkpt lat="45.10337758322336" lon="7.35322075480176"><ele>358.0</ele><time>2026-04-19T13:11:17Z</time></trkpt><trkpt lat="45.103456789059386" lon="7.352942492574504"><ele>358.0</ele><time>2026-04-19T13:11:18Z</time></trkpt><trkpt lat="45.10353557720646" lon="7.3526669349018166"><ele>358.0</ele><time>2026-04-19T13:11:19Z</time></trkpt><trkpt lat="45.103614735403" lon="7.3523900830008335"><ele>358.0</ele><time>2026-04-19T13:11:20Z</time></trkpt><trkpt lat="45.10369745167246" lon="7.3521032307115535"><ele>358.0</ele><time>2026-04-19T13:11:21Z</time></trkpt><trkpt lat="45.10377927083889" lon="7.351820668047027"><ele>358.0</ele><time>2026-04-19T13:11:22Z</time></trkpt><trkpt lat="45.103860391653996" lon="7.351540445439281"><ele>358.0</ele><time>2026-04-19T13:11:23Z</time></trkpt><trkpt lat="45.103941267822044" lon="7.351261067941474"><ele>358.0</ele><time>2026-04-19T13:11:24Z</time></trkpt><trkpt lat="45.10401544813879" lon="7.3510048204938645"><ele>358.0</ele><time>2026-04-19T13:11:25Z</time></trkpt><trkpt lat="45.10408408482728" lon="7.350767722913044"><ele>358.0</ele><time>2026-04-19T13:11:26Z</time></trkpt><trkpt lat="45.10414018228016" lon="7.350547179238807"><ele>358.0</ele><time>2026-04-19T13:11:27Z</time></trkpt><trkpt lat="45.10418191108851" lon="7.3503477600497025"><ele>359.0</ele><time>2026-04-19T13:11:28Z</time></trkpt><trkpt lat="45.10425146843947" lon="7.350188247346738"><ele>360.0</ele><time>2026-04-19T13:11:29Z</time></trkpt><trkpt lat="45.10434066160215" lon="7.350066753213008"><ele>361.0</ele><time>2026-04-19T13:11:30Z</time></trkpt><trkpt lat="45.10442396332542" lon="7.349967928746395"><ele>362.0</ele><time>2026-04-19T13:11:31Z</time></trkpt><trkpt lat="45.10448231348308" lon="7.349830751125378"><ele>362.0</ele><time>2026-04-19T13:11:32Z</time></trkpt><trkpt lat="45.10443356685603" lon="7.3496314656381605"><ele>362.0</ele><time>2026-04-19T13:11:33Z</time></trkpt><trkpt lat="45.10440326448914" lon="7.349464355296759"><ele>362.0</ele><time>2026-04-19T13:11:34Z</time></trkpt><trkpt lat="45.104415119553074" lon="7.349259219352028"><ele>362.0</ele><time>2026-04-19T13:11:35Z</time></trkpt><trkpt lat="45.10447875732361" lon="7.349032606085997"><ele>361.6666666666667</ele><time>2026-04-19T13:11:36Z</time></trkpt><trkpt lat="45.104498593326696" lon="7.348769818321504"><ele>361.3333333333333</ele><time>2026-04-19T13:11:37Z</time></trkpt><trkpt lat="45.10450094011048" lon="7.3484866393891615"><ele>361.0</ele><time>2026-04-19T13:11:38Z</time></trkpt><trkpt lat="45.10451728469061" lon="7.348189320899309"><ele>361.3333333333333</ele><time>2026-04-19T13:11:39Z</time></trkpt><trkpt lat="45.10453527587889" lon="7.347887982812838"><ele>361.6666666666667</ele><time>2026-04-19T13:11:40Z</time></trkpt><trkpt lat="45.104568939884736" lon="7.347577088202656"><ele>362.0</ele><time>2026-04-19T13:11:41Z</time></trkpt><trkpt lat="45.104572587468475" lon="7.34726145038956"><ele>362.5</ele><time>2026-04-19T13:11:42Z</time></trkpt><trkpt lat="45.104589145716496" lon="7.346929011442606"><ele>363.0</ele><time>2026-04-19T13:11:43Z</time></trkpt><trkpt lat="45.10460728651671" lon="7.34658933145323"><ele>362.0</ele><time>2026-04-19T13:11:44Z</time></trkpt><trkpt lat="45.10462652078774" lon="7.346256384708284"><ele>361.0</ele><time>2026-04-19T13:11:45Z</time></trkpt><trkpt lat="45.104649194860485" lon="7.345921179184564"><ele>361.0</ele><time>2026-04-19T13:11:46Z</time></trkpt><trkpt lat="45.104663456297835" lon="7.3455823677140515"><ele>361.0</ele><time>2026-04-19T13:11:47Z</time></trkpt><trkpt lat="45.10468467679253" lon="7.345237874074206"><ele>361.0</ele><time>2026-04-19T13:11:48Z</time></trkpt><trkpt lat="45.10470524876565" lon="7.344890911461472"><ele>361.0</ele><time>2026-04-19T13:11:49Z</time></trkpt><trkpt lat="45.104722892330926" lon="7.344538792291309"><ele>361.0</ele><time>2026-04-19T13:11:50Z</time></trkpt><trkpt lat="45.1047403622452" lon="7.3441845015989555"><ele>361.0</ele><time>2026-04-19T13:11:51Z</time></trkpt><trkpt lat="45.10475722008553" lon="7.3438325257181045"><ele>361.0</ele><time>2026-04-19T13:11:52Z</time></trkpt><trkpt lat="45.104777465383954" lon="7.343473149831168"><ele>361.0</ele><time>2026-04-19T13:11:53Z</time></trkpt><trkpt lat="45.10479852596359" lon="7.343124276512862"><ele>362.0</ele><time>2026-04-19T13:11:54Z</time></trkpt><trkpt lat="45.10481646991109" lon="7.342774890087235"><ele>363.0</ele><time>2026-04-19T13:11:55Z</time></trkpt><trkpt lat="45.104835097893584" lon="7.342421721396696"><ele>365.5</ele><time>2026-04-19T13:11:56Z</time></trkpt><trkpt lat="45.10485496744964" lon="7.342070244941332"><ele>368.0</ele><time>2026-04-19T13:11:57Z</time></trkpt><trkpt lat="45.10487265504862" lon="7.341718783878382"><ele>370.0</ele><time>2026-04-19T13:11:58Z</time></trkpt><trkpt lat="45.10490666328456" lon="7.341374642538589"><ele>372.0</ele><time>2026-04-19T13:11:59Z</time></trkpt><trkpt lat="45.104912687620235" lon="7.341022950799519"><ele>367.0</ele><time>2026-04-19T13:12:00Z</time></trkpt><trkpt lat="45.10493285033783" lon="7.340683267749472"><ele>362.0</ele><time>2026-04-19T13:12:01Z</time></trkpt><trkpt lat="45.10495150419809" lon="7.340343631604942"><ele>362.0</ele><time>2026-04-19T13:12:02Z</time></trkpt><trkpt lat="45.104969001264124" lon="7.339997158172897"><ele>362.0</ele><time>2026-04-19T13:12:03Z</time></trkpt><trkpt lat="45.1049886987497" lon="7.33965821895983"><ele>362.0</ele><time>2026-04-19T13:12:04Z</time></trkpt><trkpt lat="45.105006063603405" lon="7.339326282892395"><ele>362.0</ele><time>2026-04-19T13:12:05Z</time></trkpt><trkpt lat="45.10502741386981" lon="7.33899604700857"><ele>361.5</ele><time>2026-04-19T13:12:06Z</time></trkpt><trkpt lat="45.10504457421606" lon="7.338668402135999"><ele>361.0</ele><time>2026-04-19T13:12:07Z</time></trkpt><trkpt lat="45.10506174987644" lon="7.338343184746545"><ele>361.5</ele><time>2026-04-19T13:12:08Z</time></trkpt><trkpt lat="45.10508288133771" lon="7.338022606893373"><ele>362.0</ele><time>2026-04-19T13:12:09Z</time></trkpt><trkpt lat="45.10509345746534" lon="7.337701197967106"><ele>362.0</ele><time>2026-04-19T13:12:10Z</time></trkpt><trkpt lat="45.105114058688095" lon="7.337383105378787"><ele>362.0</ele><time>2026-04-19T13:12:11Z</time></trkpt><trkpt lat="45.105129732806596" lon="7.3370601170153265"><ele>362.33333333333337</ele><time>2026-04-19T13:12:12Z</time></trkpt><trkpt lat="45.10514510489771" lon="7.336745683637351"><ele>362.6666666666667</ele><time>2026-04-19T13:12:13Z</time></trkpt><trkpt lat="45.10516277641115" lon="7.336441710135871"><ele>363.0</ele><time>2026-04-19T13:12:14Z</time></trkpt><trkpt lat="45.10517627797626" lon="7.336140646810814"><ele>363.0</ele><time>2026-04-19T13:12:15Z</time></trkpt><trkpt lat="45.10519249195891" lon="7.335852595980773"><ele>363.0</ele><time>2026-04-19T13:12:16Z</time></trkpt><trkpt lat="45.105223814949234" lon="7.335564924548736"><ele>363.0</ele><time>2026-04-19T13:12:17Z</time></trkpt><trkpt lat="45.10523923923744" lon="7.335274047431326"><ele>363.0</ele><time>2026-04-19T13:12:18Z</time></trkpt><trkpt lat="45.105238084344954" lon="7.3349862784714075"><ele>363.0</ele><time>2026-04-19T13:12:19Z</time></trkpt><trkpt lat="45.10526948135085" lon="7.334703730112886"><ele>363.0</ele><time>2026-04-19T13:12:20Z</time></trkpt><trkpt lat="45.10528470878699" lon="7.3344165654654825"><ele>363.0</ele><time>2026-04-19T13:12:21Z</time></trkpt><trkpt lat="45.10527829953649" lon="7.334133918205867"><ele>363.0</ele><time>2026-04-19T13:12:22Z</time></trkpt><trkpt lat="45.105292385513124" lon="7.333871441681219"><ele>363.0</ele><time>2026-04-19T13:12:23Z</time></trkpt><trkpt lat="45.10530674956687" lon="7.333615577205854"><ele>363.0</ele><time>2026-04-19T13:12:24Z</time></trkpt><trkpt lat="45.10531761613224" lon="7.333357358427271"><ele>363.0</ele><time>2026-04-19T13:12:25Z</time></trkpt><trkpt lat="45.105353273226356" lon="7.333101063956356"><ele>363.0</ele><time>2026-04-19T13:12:26Z</time></trkpt><trkpt lat="45.105366347490325" lon="7.332840958749347"><ele>363.0</ele><time>2026-04-19T13:12:27Z</time></trkpt><trkpt lat="45.10537965679214" lon="7.332582505498963"><ele>363.0</ele><time>2026-04-19T13:12:28Z</time></trkpt><trkpt lat="45.105392975871744" lon="7.332325829986229"><ele>363.0</ele><time>2026-04-19T13:12:29Z</time></trkpt><trkpt lat="45.10540644590731" lon="7.3320662453705125"><ele>363.3333333333333</ele><time>2026-04-19T13:12:30Z</time></trkpt><trkpt lat="45.10541998147188" lon="7.331804592063483"><ele>363.66666666666663</ele><time>2026-04-19T13:12:31Z</time></trkpt><trkpt lat="45.10543347521101" lon="7.331542992732561"><ele>364.0</ele><time>2026-04-19T13:12:32Z</time></trkpt><trkpt lat="45.10544693855171" lon="7.331281657792319"><ele>364.0</ele><time>2026-04-19T13:12:33Z</time></trkpt><trkpt lat="45.10546074267107" lon="7.3310135032099755"><ele>364.0</ele><time>2026-04-19T13:12:34Z</time></trkpt><trkpt lat="45.10547459021433" lon="7.330744505081976"><ele>364.0</ele><time>2026-04-19T13:12:35Z</time></trkpt><trkpt lat="45.10548814797495" lon="7.330477989122825"><ele>364.66666666666663</ele><time>2026-04-19T13:12:36Z</time></trkpt><trkpt lat="45.10550148509709" lon="7.330210391064029"><ele>365.3333333333333</ele><time>2026-04-19T13:12:37Z</time></trkpt><trkpt lat="45.105514952102446" lon="7.329947807438866"><ele>366.0</ele><time>2026-04-19T13:12:38Z</time></trkpt><trkpt lat="45.10552821231225" lon="7.329683343978662"><ele>366.0</ele><time>2026-04-19T13:12:39Z</time></trkpt><trkpt lat="45.10551997711276" lon="7.329409071822355"><ele>366.0</ele><time>2026-04-19T13:12:40Z</time></trkpt><trkpt lat="45.1055344187794" lon="7.329145521077678"><ele>366.0</ele><time>2026-04-19T13:12:41Z</time></trkpt><trkpt lat="45.10554768315334" lon="7.328884433930369"><ele>365.6666666666667</ele><time>2026-04-19T13:12:42Z</time></trkpt><trkpt lat="45.10556207629327" lon="7.32862688543756"><ele>365.33333333333337</ele><time>2026-04-19T13:12:43Z</time></trkpt><trkpt lat="45.10559581649613" lon="7.32836043975151"><ele>365.0</ele><time>2026-04-19T13:12:44Z</time></trkpt><trkpt lat="45.10560984440551" lon="7.328097425068208"><ele>365.33333333333337</ele><time>2026-04-19T13:12:45Z</time></trkpt><trkpt lat="45.105623979490424" lon="7.327833082106937"><ele>365.6666666666667</ele><time>2026-04-19T13:12:46Z</time></trkpt><trkpt lat="45.105638460380746" lon="7.327565253087946"><ele>366.0</ele><time>2026-04-19T13:12:47Z</time></trkpt><trkpt lat="45.1056524260809" lon="7.327306952692386"><ele>366.3333333333333</ele><time>2026-04-19T13:12:48Z</time></trkpt><trkpt lat="45.10566541118243" lon="7.327066788783079"><ele>366.66666666666663</ele><time>2026-04-19T13:12:49Z</time></trkpt><trkpt lat="45.105677773503984" lon="7.3268381433890335"><ele>367.0</ele><time>2026-04-19T13:12:50Z</time></trkpt><trkpt lat="45.10568960816183" lon="7.326619257140538"><ele>367.0</ele><time>2026-04-19T13:12:51Z</time></trkpt><trkpt lat="45.10570071022983" lon="7.326414847744878"><ele>367.0</ele><time>2026-04-19T13:12:52Z</time></trkpt><trkpt lat="45.10571112375037" lon="7.3262228890754475"><ele>367.0</ele><time>2026-04-19T13:12:53Z</time></trkpt><trkpt lat="45.105721036191376" lon="7.326040167122062"><ele>367.0</ele><time>2026-04-19T13:12:54Z</time></trkpt><trkpt lat="45.10572910223659" lon="7.32589148088757"><ele>367.0</ele><time>2026-04-19T13:12:55Z</time></trkpt><trkpt lat="45.10573525509544" lon="7.325778061535441"><ele>367.0</ele><time>2026-04-19T13:12:56Z</time></trkpt><trkpt lat="45.10574416237505" lon="7.325613868278416"><ele>367.0</ele><time>2026-04-19T13:12:58Z</time></trkpt><trkpt lat="45.10574932361437" lon="7.325518716635616"><ele>367.0</ele><time>2026-04-19T13:13:01Z</time></trkpt><trkpt lat="45.105758958992155" lon="7.325341004129894"><ele>367.0</ele><time>2026-04-19T13:13:04Z</time></trkpt><trkpt lat="45.10576538299633" lon="7.325222521383951"><ele>367.0</ele><time>2026-04-19T13:13:05Z</time></trkpt><trkpt lat="45.10577278884933" lon="7.3250872394515465"><ele>367.0</ele><time>2026-04-19T13:13:06Z</time></trkpt><trkpt lat="45.105780518938246" lon="7.324945846000393"><ele>367.0</ele><time>2026-04-19T13:13:07Z</time></trkpt><trkpt lat="45.10578942317646" lon="7.324782975789148"><ele>367.0</ele><time>2026-04-19T13:13:08Z</time></trkpt><trkpt lat="45.10579952027033" lon="7.324598286692175"><ele>367.0</ele><time>2026-04-19T13:13:09Z</time></trkpt><trkpt lat="45.10581043450409" lon="7.32439865103013"><ele>367.0</ele><time>2026-04-19T13:13:10Z</time></trkpt><trkpt lat="45.10582132123153" lon="7.324199518502102"><ele>367.0</ele><time>2026-04-19T13:13:11Z</time></trkpt><trkpt lat="45.10583301451844" lon="7.323985632951714"><ele>367.0</ele><time>2026-04-19T13:13:12Z</time></trkpt><trkpt lat="45.105845152614286" lon="7.323763611257256"><ele>367.3333333333333</ele><time>2026-04-19T13:13:13Z</time></trkpt><trkpt lat="45.105858212297136" lon="7.323524732519019"><ele>367.6666666666667</ele><time>2026-04-19T13:13:14Z</time></trkpt><trkpt lat="45.105871714625636" lon="7.323277757200618"><ele>368.0</ele><time>2026-04-19T13:13:15Z</time></trkpt><trkpt lat="45.105885708792705" lon="7.323017850817782"><ele>368.0</ele><time>2026-04-19T13:13:16Z</time></trkpt><trkpt lat="45.10589902695456" lon="7.32276149419888"><ele>368.0</ele><time>2026-04-19T13:13:17Z</time></trkpt><trkpt lat="45.105912327189" lon="7.322505482668864"><ele>368.0</ele><time>2026-04-19T13:13:18Z</time></trkpt><trkpt lat="45.105926339353154" lon="7.322236066310306"><ele>368.0</ele><time>2026-04-19T13:13:19Z</time></trkpt><trkpt lat="45.105939580863044" lon="7.32198169653872"><ele>368.0</ele><time>2026-04-19T13:13:20Z</time></trkpt><trkpt lat="45.1059535509284" lon="7.321713331208801"><ele>368.0</ele><time>2026-04-19T13:13:21Z</time></trkpt><trkpt lat="45.105967255139774" lon="7.321450072924917"><ele>368.33333333333337</ele><time>2026-04-19T13:13:22Z</time></trkpt><trkpt lat="45.105981319302074" lon="7.321179899988758"><ele>368.6666666666667</ele><time>2026-04-19T13:13:23Z</time></trkpt><trkpt lat="45.10599580011359" lon="7.320901678223597"><ele>369.0</ele><time>2026-04-19T13:13:24Z</time></trkpt><trkpt lat="45.106010182831845" lon="7.3206251954498605"><ele>369.0</ele><time>2026-04-19T13:13:25Z</time></trkpt><trkpt lat="45.106024903399366" lon="7.3203422181193"><ele>369.0</ele><time>2026-04-19T13:13:26Z</time></trkpt><trkpt lat="45.106038864691094" lon="7.320073836541883"><ele>369.0</ele><time>2026-04-19T13:13:27Z</time></trkpt><trkpt lat="45.10605198269276" lon="7.319821665768097"><ele>369.0</ele><time>2026-04-19T13:13:28Z</time></trkpt><trkpt lat="45.10606477010418" lon="7.319575849990515"><ele>369.0</ele><time>2026-04-19T13:13:29Z</time></trkpt><trkpt lat="45.106077426935826" lon="7.3193247360889035"><ele>369.0</ele><time>2026-04-19T13:13:30Z</time></trkpt><trkpt lat="45.10609023778222" lon="7.31906868618587"><ele>369.0</ele><time>2026-04-19T13:13:31Z</time></trkpt><trkpt lat="45.106103487196194" lon="7.318803870635461"><ele>369.0</ele><time>2026-04-19T13:13:32Z</time></trkpt><trkpt lat="45.106116680360046" lon="7.3185401793532785"><ele>369.0</ele><time>2026-04-19T13:13:33Z</time></trkpt><trkpt lat="45.10613046844299" lon="7.318264597479153"><ele>368.6666666666667</ele><time>2026-04-19T13:13:34Z</time></trkpt><trkpt lat="45.106144383534115" lon="7.317986774593006"><ele>368.33333333333337</ele><time>2026-04-19T13:13:35Z</time></trkpt><trkpt lat="45.10615900117316" lon="7.317703662133751"><ele>368.0</ele><time>2026-04-19T13:13:36Z</time></trkpt><trkpt lat="45.10617351618026" lon="7.3174225374281585"><ele>368.33333333333337</ele><time>2026-04-19T13:13:37Z</time></trkpt><trkpt lat="45.106188069471735" lon="7.317140671257566"><ele>368.6666666666667</ele><time>2026-04-19T13:13:38Z</time></trkpt><trkpt lat="45.10620238851097" lon="7.31686311220636"><ele>369.0</ele><time>2026-04-19T13:13:39Z</time></trkpt><trkpt lat="45.106217036500375" lon="7.31657572441274"><ele>368.6666666666667</ele><time>2026-04-19T13:13:40Z</time></trkpt><trkpt lat="45.10623136115351" lon="7.316297108237141"><ele>368.33333333333337</ele><time>2026-04-19T13:13:41Z</time></trkpt><trkpt lat="45.10624593947469" lon="7.316017947394979"><ele>368.0</ele><time>2026-04-19T13:13:42Z</time></trkpt><trkpt lat="45.10626017510432" lon="7.315734527710589"><ele>368.33333333333337</ele><time>2026-04-19T13:13:43Z</time></trkpt><trkpt lat="45.10627443822139" lon="7.315449685906787"><ele>368.6666666666667</ele><time>2026-04-19T13:13:44Z</time></trkpt><trkpt lat="45.10626514413842" lon="7.315166359410724"><ele>369.0</ele><time>2026-04-19T13:13:45Z</time></trkpt><trkpt lat="45.106281070048816" lon="7.314878819411254"><ele>369.0</ele><time>2026-04-19T13:13:46Z</time></trkpt><trkpt lat="45.10629389499533" lon="7.314592607726817"><ele>369.0</ele><time>2026-04-19T13:13:47Z</time></trkpt><trkpt lat="45.106310842202284" lon="7.3143054761906905"><ele>369.0</ele><time>2026-04-19T13:13:48Z</time></trkpt><trkpt lat="45.10634570323777" lon="7.314025224868436"><ele>368.6666666666667</ele><time>2026-04-19T13:13:49Z</time></trkpt><trkpt lat="45.10636038990303" lon="7.313736201108567"><ele>368.33333333333337</ele><time>2026-04-19T13:13:50Z</time></trkpt><trkpt lat="45.106374552694696" lon="7.313453179787062"><ele>368.0</ele><time>2026-04-19T13:13:51Z</time></trkpt><trkpt lat="45.106388563228684" lon="7.313173200973638"><ele>369.0</ele><time>2026-04-19T13:13:52Z</time></trkpt><trkpt lat="45.10638266122835" lon="7.312896994243832"><ele>370.0</ele><time>2026-04-19T13:13:53Z</time></trkpt><trkpt lat="45.106397168098894" lon="7.312638436559948"><ele>371.0</ele><time>2026-04-19T13:13:54Z</time></trkpt><trkpt lat="45.10640964586868" lon="7.312383357934513"><ele>371.25</ele><time>2026-04-19T13:13:55Z</time></trkpt><trkpt lat="45.10642313211792" lon="7.312152884176155"><ele>371.5</ele><time>2026-04-19T13:13:56Z</time></trkpt><trkpt lat="45.10645230146315" lon="7.311950506145864"><ele>371.75</ele><time>2026-04-19T13:13:57Z</time></trkpt><trkpt lat="45.10644575571262" lon="7.311771157021587"><ele>372.0</ele><time>2026-04-19T13:13:58Z</time></trkpt><trkpt lat="45.10648889550878" lon="7.31161769365022"><ele>372.0</ele><time>2026-04-19T13:13:59Z</time></trkpt><trkpt lat="45.106553469852535" lon="7.3115016096077206"><ele>372.0</ele><time>2026-04-19T13:14:00Z</time></trkpt><trkpt lat="45.10661831268072" lon="7.311386362604954"><ele>372.0</ele><time>2026-04-19T13:14:01Z</time></trkpt><trkpt lat="45.10662108095451" lon="7.311229214644181"><ele>372.0</ele><time>2026-04-19T13:14:02Z</time></trkpt><trkpt lat="45.106570304859005" lon="7.311062152980226"><ele>372.0</ele><time>2026-04-19T13:14:03Z</time></trkpt><trkpt lat="45.10650651563265" lon="7.3108931937023165"><ele>371.6666666666667</ele><time>2026-04-19T13:14:04Z</time></trkpt><trkpt lat="45.10649030114107" lon="7.31068885753213"><ele>371.33333333333337</ele><time>2026-04-19T13:14:05Z</time></trkpt><trkpt lat="45.106504947588355" lon="7.31046345936757"><ele>371.0</ele><time>2026-04-19T13:14:06Z</time></trkpt><trkpt lat="45.10652335921633" lon="7.310212334267661"><ele>371.0</ele><time>2026-04-19T13:14:07Z</time></trkpt><trkpt lat="45.10653830761769" lon="7.309950164781605"><ele>371.0</ele><time>2026-04-19T13:14:08Z</time></trkpt><trkpt lat="45.106553365218595" lon="7.309679742414024"><ele>371.0</ele><time>2026-04-19T13:14:09Z</time></trkpt><trkpt lat="45.10656949567654" lon="7.309401898155495"><ele>370.6666666666667</ele><time>2026-04-19T13:14:10Z</time></trkpt><trkpt lat="45.106599672802815" lon="7.30910840350995"><ele>370.3333333333333</ele><time>2026-04-19T13:14:11Z</time></trkpt><trkpt lat="45.10661533200976" lon="7.308813088344722"><ele>370.0</ele><time>2026-04-19T13:14:12Z</time></trkpt><trkpt lat="45.106614778062095" lon="7.3085102430386435"><ele>370.0</ele><time>2026-04-19T13:14:13Z</time></trkpt><trkpt lat="45.10663261733987" lon="7.3081985334996755"><ele>370.0</ele><time>2026-04-19T13:14:14Z</time></trkpt><trkpt lat="45.10664841191261" lon="7.307882598904087"><ele>370.0</ele><time>2026-04-19T13:14:15Z</time></trkpt><trkpt lat="45.10668100997807" lon="7.307561705089771"><ele>370.0</ele><time>2026-04-19T13:14:16Z</time></trkpt><trkpt lat="45.10669738969084" lon="7.307233448803672"><ele>370.0</ele><time>2026-04-19T13:14:17Z</time></trkpt><trkpt lat="45.1067140282945" lon="7.306900004244935"><ele>370.0</ele><time>2026-04-19T13:14:18Z</time></trkpt><trkpt lat="45.10673093451802" lon="7.306561196469027"><ele>370.0</ele><time>2026-04-19T13:14:19Z</time></trkpt><trkpt lat="45.10674785109337" lon="7.306222704585776"><ele>370.5</ele><time>2026-04-19T13:14:20Z</time></trkpt><trkpt lat="45.10676542118935" lon="7.30587926704641"><ele>371.0</ele><time>2026-04-19T13:14:21Z</time></trkpt><trkpt lat="45.10678231908216" lon="7.305538517629743"><ele>372.5</ele><time>2026-04-19T13:14:22Z</time></trkpt><trkpt lat="45.10679938320586" lon="7.3051944161634585"><ele>374.0</ele><time>2026-04-19T13:14:23Z</time></trkpt><trkpt lat="45.1068164067108" lon="7.304851133766243"><ele>374.5</ele><time>2026-04-19T13:14:24Z</time></trkpt><trkpt lat="45.1068332348254" lon="7.30451179146974"><ele>375.0</ele><time>2026-04-19T13:14:25Z</time></trkpt><trkpt lat="45.10685001906341" lon="7.30417333377075"><ele>374.5</ele><time>2026-04-19T13:14:26Z</time></trkpt><trkpt lat="45.10686699644476" lon="7.303830981469457"><ele>374.0</ele><time>2026-04-19T13:14:27Z</time></trkpt><trkpt lat="45.106884158969606" lon="7.303493157519539"><ele>374.0</ele><time>2026-04-19T13:14:28Z</time></trkpt><trkpt lat="45.106900967500124" lon="7.303151083560618"><ele>374.0</ele><time>2026-04-19T13:14:29Z</time></trkpt><trkpt lat="45.10691807780308" lon="7.302802868165834"><ele>373.5</ele><time>2026-04-19T13:14:30Z</time></trkpt><trkpt lat="45.10693493892299" lon="7.3024577261602595"><ele>373.0</ele><time>2026-04-19T13:14:31Z</time></trkpt><trkpt lat="45.10695109346886" lon="7.302107879271756"><ele>373.0</ele><time>2026-04-19T13:14:32Z</time></trkpt><trkpt lat="45.106967238396194" lon="7.301758240679711"><ele>373.0</ele><time>2026-04-19T13:14:33Z</time></trkpt><trkpt lat="45.106983105630675" lon="7.301414615877318"><ele>373.0</ele><time>2026-04-19T13:14:34Z</time></trkpt><trkpt lat="45.10697562024363" lon="7.301059673366948"><ele>373.0</ele><time>2026-04-19T13:14:35Z</time></trkpt><trkpt lat="45.10699408289834" lon="7.3007019320764925"><ele>373.5</ele><time>2026-04-19T13:14:36Z</time></trkpt><trkpt lat="45.10701246496573" lon="7.30034290436367"><ele>374.0</ele><time>2026-04-19T13:14:37Z</time></trkpt><trkpt lat="45.107030113207074" lon="7.299977284255982"><ele>373.5</ele><time>2026-04-19T13:14:38Z</time></trkpt><trkpt lat="45.10706859931892" lon="7.299615161972972"><ele>373.0</ele><time>2026-04-19T13:14:39Z</time></trkpt><trkpt lat="45.107085893862404" lon="7.299256625343102"><ele>372.5</ele><time>2026-04-19T13:14:40Z</time></trkpt><trkpt lat="45.10710234205097" lon="7.2989040651109365"><ele>372.0</ele><time>2026-04-19T13:14:41Z</time></trkpt><trkpt lat="45.10711842531337" lon="7.298551906417603"><ele>372.0</ele><time>2026-04-19T13:14:42Z</time></trkpt><trkpt lat="45.10713465684173" lon="7.298196501329596"><ele>372.0</ele><time>2026-04-19T13:14:43Z</time></trkpt><trkpt lat="45.1071500814592" lon="7.2978587643081525"><ele>372.5</ele><time>2026-04-19T13:14:44Z</time></trkpt><trkpt lat="45.10716575116322" lon="7.2975291483251725"><ele>373.0</ele><time>2026-04-19T13:14:45Z</time></trkpt><trkpt lat="45.10718100623642" lon="7.297195907829043"><ele>373.0</ele><time>2026-04-19T13:14:46Z</time></trkpt><trkpt lat="45.107197002197175" lon="7.29685997367623"><ele>373.0</ele><time>2026-04-19T13:14:47Z</time></trkpt><trkpt lat="45.107213006101546" lon="7.296523872704633"><ele>373.0</ele><time>2026-04-19T13:14:48Z</time></trkpt><trkpt lat="45.10722900082642" lon="7.296187964493909"><ele>373.0</ele><time>2026-04-19T13:14:49Z</time></trkpt><trkpt lat="45.10724479398818" lon="7.295856289365344"><ele>373.0</ele><time>2026-04-19T13:14:50Z</time></trkpt><trkpt lat="45.10726058104478" lon="7.295521549400434"><ele>373.0</ele><time>2026-04-19T13:14:51Z</time></trkpt><trkpt lat="45.10727555899885" lon="7.295187638149768"><ele>373.0</ele><time>2026-04-19T13:14:52Z</time></trkpt><trkpt lat="45.10729019344263" lon="7.294857165278174"><ele>373.0</ele><time>2026-04-19T13:14:53Z</time></trkpt><trkpt lat="45.10730405775397" lon="7.294527029309806"><ele>373.0</ele><time>2026-04-19T13:14:54Z</time></trkpt><trkpt lat="45.10731773595411" lon="7.294201325010085"><ele>373.0</ele><time>2026-04-19T13:14:55Z</time></trkpt><trkpt lat="45.10733154938509" lon="7.293873595350896"><ele>373.5</ele><time>2026-04-19T13:14:56Z</time></trkpt><trkpt lat="45.10734667441111" lon="7.293547155207477"><ele>374.0</ele><time>2026-04-19T13:14:57Z</time></trkpt><trkpt lat="45.10736098982661" lon="7.293221410200038"><ele>374.0</ele><time>2026-04-19T13:14:58Z</time></trkpt><trkpt lat="45.10737610338621" lon="7.292894158932599"><ele>374.0</ele><time>2026-04-19T13:14:59Z</time></trkpt><trkpt lat="45.107391090120274" lon="7.292566688723884"><ele>373.5</ele><time>2026-04-19T13:15:00Z</time></trkpt><trkpt lat="45.10740605244378" lon="7.292239751897344"><ele>373.0</ele><time>2026-04-19T13:15:01Z</time></trkpt><trkpt lat="45.1074208033545" lon="7.291917434321396"><ele>373.5</ele><time>2026-04-19T13:15:02Z</time></trkpt><trkpt lat="45.10743413573696" lon="7.291589622428616"><ele>374.0</ele><time>2026-04-19T13:15:03Z</time></trkpt><trkpt lat="45.10744761680568" lon="7.29126615167159"><ele>374.0</ele><time>2026-04-19T13:15:04Z</time></trkpt><trkpt lat="45.107460600856896" lon="7.29095460658295"><ele>374.0</ele><time>2026-04-19T13:15:05Z</time></trkpt><trkpt lat="45.10747270933645" lon="7.290666469943823"><ele>374.0</ele><time>2026-04-19T13:15:06Z</time></trkpt><trkpt lat="45.10748469208419" lon="7.290396984821664"><ele>375.0</ele><time>2026-04-19T13:15:07Z</time></trkpt><trkpt lat="45.10749595709143" lon="7.290143641285479"><ele>376.0</ele><time>2026-04-19T13:15:08Z</time></trkpt><trkpt lat="45.10750639468719" lon="7.289912532213801"><ele>377.0</ele><time>2026-04-19T13:15:09Z</time></trkpt><trkpt lat="45.10750617216418" lon="7.289707781630979"><ele>377.0</ele><time>2026-04-19T13:15:10Z</time></trkpt><trkpt lat="45.107529032973446" lon="7.289527798911722"><ele>377.0</ele><time>2026-04-19T13:15:11Z</time></trkpt><trkpt lat="45.107578930137215" lon="7.28939210377277"><ele>377.0</ele><time>2026-04-19T13:15:12Z</time></trkpt><trkpt lat="45.10765419912123" lon="7.289284048580639"><ele>377.0</ele><time>2026-04-19T13:15:13Z</time></trkpt><trkpt lat="45.10769468210325" lon="7.289134008012404"><ele>377.0</ele><time>2026-04-19T13:15:14Z</time></trkpt><trkpt lat="45.107684671225066" lon="7.2889437111296935"><ele>377.0</ele><time>2026-04-19T13:15:15Z</time></trkpt><trkpt lat="45.107618517988946" lon="7.2887632167000636"><ele>377.0</ele><time>2026-04-19T13:15:16Z</time></trkpt><trkpt lat="45.107570877139324" lon="7.288637495614932"><ele>377.0</ele><time>2026-04-19T13:15:17Z</time></trkpt><trkpt lat="45.10755872694686" lon="7.28841446795209"><ele>377.0</ele><time>2026-04-19T13:15:18Z</time></trkpt><trkpt lat="45.107583119491586" lon="7.288173005504692"><ele>377.0</ele><time>2026-04-19T13:15:19Z</time></trkpt><trkpt lat="45.107594952802984" lon="7.287910320446969"><ele>377.0</ele><time>2026-04-19T13:15:20Z</time></trkpt><trkpt lat="45.107606378846405" lon="7.287655672334804"><ele>377.0</ele><time>2026-04-19T13:15:21Z</time></trkpt><trkpt lat="45.10761847856834" lon="7.287386010212512"><ele>377.0</ele><time>2026-04-19T13:15:22Z</time></trkpt><trkpt lat="45.10763072093459" lon="7.287113169028835"><ele>377.0</ele><time>2026-04-19T13:15:23Z</time></trkpt><trkpt lat="45.10764329271639" lon="7.286842381872056"><ele>377.0</ele><time>2026-04-19T13:15:24Z</time></trkpt><trkpt lat="45.107655632257874" lon="7.286581043311272"><ele>377.0</ele><time>2026-04-19T13:15:25Z</time></trkpt><trkpt lat="45.107666536875485" lon="7.286325075747205"><ele>377.0</ele><time>2026-04-19T13:15:26Z</time></trkpt><trkpt lat="45.107676846026756" lon="7.286086469431994"><ele>376.6666666666667</ele><time>2026-04-19T13:15:27Z</time></trkpt><trkpt lat="45.10768651551687" lon="7.285848482969716"><ele>376.3333333333333</ele><time>2026-04-19T13:15:28Z</time></trkpt><trkpt lat="45.10769662547028" lon="7.285615078585611"><ele>376.0</ele><time>2026-04-19T13:15:29Z</time></trkpt><trkpt lat="45.10770631789426" lon="7.285391313497303"><ele>376.0</ele><time>2026-04-19T13:15:30Z</time></trkpt><trkpt lat="45.1077159076894" lon="7.285169917781794"><ele>376.0</ele><time>2026-04-19T13:15:31Z</time></trkpt><trkpt lat="45.10772526424493" lon="7.284953906777402"><ele>376.0</ele><time>2026-04-19T13:15:32Z</time></trkpt><trkpt lat="45.10773420902056" lon="7.284747402372831"><ele>376.25</ele><time>2026-04-19T13:15:33Z</time></trkpt><trkpt lat="45.107742870225366" lon="7.284547444617345"><ele>376.5</ele><time>2026-04-19T13:15:34Z</time></trkpt><trkpt lat="45.10775128608328" lon="7.284353151077247"><ele>376.75</ele><time>2026-04-19T13:15:35Z</time></trkpt><trkpt lat="45.10776027646831" lon="7.284145593690504"><ele>377.0</ele><time>2026-04-19T13:15:36Z</time></trkpt><trkpt lat="45.10777023278463" lon="7.283915389630058"><ele>377.33333333333337</ele><time>2026-04-19T13:15:37Z</time></trkpt><trkpt lat="45.10778001732501" lon="7.2836861303523275"><ele>377.6666666666667</ele><time>2026-04-19T13:15:38Z</time></trkpt><trkpt lat="45.10778970675017" lon="7.283459397804887"><ele>378.0</ele><time>2026-04-19T13:15:39Z</time></trkpt><trkpt lat="45.107798378244446" lon="7.283264806931299"><ele>378.25</ele><time>2026-04-19T13:15:40Z</time></trkpt><trkpt lat="45.10778090017067" lon="7.283078140987635"><ele>378.5</ele><time>2026-04-19T13:15:41Z</time></trkpt><trkpt lat="45.107787988997536" lon="7.282899174972186"><ele>378.75</ele><time>2026-04-19T13:15:42Z</time></trkpt><trkpt lat="45.107802745466664" lon="7.2827368965631765"><ele>379.0</ele><time>2026-04-19T13:15:43Z</time></trkpt><trkpt lat="45.10781575870849" lon="7.282579378931125"><ele>379.0</ele><time>2026-04-19T13:15:44Z</time></trkpt><trkpt lat="45.10782337391927" lon="7.282405119681033"><ele>379.0</ele><time>2026-04-19T13:15:45Z</time></trkpt><trkpt lat="45.107827746782284" lon="7.282258633797788"><ele>379.0</ele><time>2026-04-19T13:15:46Z</time></trkpt><trkpt lat="45.107835855197095" lon="7.282128335331079"><ele>379.0</ele><time>2026-04-19T13:15:47Z</time></trkpt><trkpt lat="45.1078431676444" lon="7.282001222832742"><ele>379.0</ele><time>2026-04-19T13:15:48Z</time></trkpt><trkpt lat="45.107847917116054" lon="7.2818616582097935"><ele>379.5</ele><time>2026-04-19T13:15:49Z</time></trkpt><trkpt lat="45.107866048795835" lon="7.281703700326724"><ele>380.0</ele><time>2026-04-19T13:15:50Z</time></trkpt><trkpt lat="45.1078732073501" lon="7.281542112529599"><ele>380.5</ele><time>2026-04-19T13:15:51Z</time></trkpt><trkpt lat="45.10787965709758" lon="7.281394919139864"><ele>381.0</ele><time>2026-04-19T13:15:52Z</time></trkpt><trkpt lat="45.10788673487304" lon="7.281222002324419"><ele>381.0</ele><time>2026-04-19T13:15:53Z</time></trkpt><trkpt lat="45.10789395368604" lon="7.281036315274022"><ele>381.0</ele><time>2026-04-19T13:15:54Z</time></trkpt><trkpt lat="45.10790122288377" lon="7.280849332192658"><ele>381.0</ele><time>2026-04-19T13:15:55Z</time></trkpt><trkpt lat="45.1079084407483" lon="7.280663669528053"><ele>381.0</ele><time>2026-04-19T13:15:56Z</time></trkpt><trkpt lat="45.10791552049186" lon="7.280488423141664"><ele>381.0</ele><time>2026-04-19T13:15:57Z</time></trkpt><trkpt lat="45.10792267484863" lon="7.280310844239093"><ele>381.0</ele><time>2026-04-19T13:15:58Z</time></trkpt><trkpt lat="45.107914675304784" lon="7.280133842790839"><ele>381.0</ele><time>2026-04-19T13:15:59Z</time></trkpt><trkpt lat="45.10792316649135" lon="7.279970157005817"><ele>381.0</ele><time>2026-04-19T13:16:00Z</time></trkpt><trkpt lat="45.10793172892555" lon="7.279808095645855"><ele>381.0</ele><time>2026-04-19T13:16:01Z</time></trkpt><trkpt lat="45.10794054697098" lon="7.279624034030958"><ele>381.0</ele><time>2026-04-19T13:16:02Z</time></trkpt><trkpt lat="45.10794937417026" lon="7.279423655169885"><ele>381.0</ele><time>2026-04-19T13:16:03Z</time></trkpt><trkpt lat="45.10797869313157" lon="7.2792175109159425"><ele>381.0</ele><time>2026-04-19T13:16:04Z</time></trkpt><trkpt lat="45.10800280474149" lon="7.279008464633368"><ele>381.0</ele><time>2026-04-19T13:16:05Z</time></trkpt><trkpt lat="45.10803555134566" lon="7.278793372200437"><ele>381.0</ele><time>2026-04-19T13:16:06Z</time></trkpt><trkpt lat="45.10807871109071" lon="7.278567446317163"><ele>381.0</ele><time>2026-04-19T13:16:07Z</time></trkpt><trkpt lat="45.10813130733994" lon="7.278351496024302"><ele>381.0</ele><time>2026-04-19T13:16:08Z</time></trkpt><trkpt lat="45.10818740220091" lon="7.278137533437294"><ele>381.0</ele><time>2026-04-19T13:16:09Z</time></trkpt><trkpt lat="45.10824237070005" lon="7.277927582229643"><ele>381.0</ele><time>2026-04-19T13:16:10Z</time></trkpt><trkpt lat="45.10829584039114" lon="7.277723355691019"><ele>381.25</ele><time>2026-04-19T13:16:11Z</time></trkpt><trkpt lat="45.10833104952108" lon="7.277526974130067"><ele>381.5</ele><time>2026-04-19T13:16:12Z</time></trkpt><trkpt lat="45.10837746240432" lon="7.277341967586709"><ele>381.75</ele><time>2026-04-19T13:16:13Z</time></trkpt><trkpt lat="45.108425324369584" lon="7.277155177920036"><ele>382.0</ele><time>2026-04-19T13:16:14Z</time></trkpt><trkpt lat="45.108469907828336" lon="7.276964963289674"><ele>382.25</ele><time>2026-04-19T13:16:15Z</time></trkpt><trkpt lat="45.10850311056896" lon="7.2767811079577465"><ele>382.5</ele><time>2026-04-19T13:16:16Z</time></trkpt><trkpt lat="45.108526313462" lon="7.27660024645617"><ele>382.75</ele><time>2026-04-19T13:16:17Z</time></trkpt><trkpt lat="45.10854598736595" lon="7.276423244225178"><ele>383.0</ele><time>2026-04-19T13:16:18Z</time></trkpt><trkpt lat="45.10856115316432" lon="7.276250592239016"><ele>383.5</ele><time>2026-04-19T13:16:19Z</time></trkpt><trkpt lat="45.10857705170855" lon="7.276069554039293"><ele>384.0</ele><time>2026-04-19T13:16:20Z</time></trkpt><trkpt lat="45.108587655606755" lon="7.275868192883205"><ele>384.5</ele><time>2026-04-19T13:16:21Z</time></trkpt><trkpt lat="45.10859908872582" lon="7.275653227333363"><ele>385.0</ele><time>2026-04-19T13:16:22Z</time></trkpt><trkpt lat="45.108605601849774" lon="7.27543050688042"><ele>385.0</ele><time>2026-04-19T13:16:23Z</time></trkpt><trkpt lat="45.1086137359779" lon="7.275201361128741"><ele>385.0</ele><time>2026-04-19T13:16:24Z</time></trkpt><trkpt lat="45.108624434960056" lon="7.274964571079259"><ele>385.0</ele><time>2026-04-19T13:16:25Z</time></trkpt><trkpt lat="45.10864931652168" lon="7.274728540847459"><ele>384.6666666666667</ele><time>2026-04-19T13:16:26Z</time></trkpt><trkpt lat="45.10865860132198" lon="7.274489970347071"><ele>384.33333333333337</ele><time>2026-04-19T13:16:27Z</time></trkpt><trkpt lat="45.108666165351195" lon="7.274246713080392"><ele>384.0</ele><time>2026-04-19T13:16:28Z</time></trkpt><trkpt lat="45.10866765274627" lon="7.273992125369115"><ele>383.3333333333333</ele><time>2026-04-19T13:16:29Z</time></trkpt><trkpt lat="45.10865861139724" lon="7.273738365355774"><ele>382.66666666666663</ele><time>2026-04-19T13:16:30Z</time></trkpt><trkpt lat="45.108640399382104" lon="7.273480767190853"><ele>382.0</ele><time>2026-04-19T13:16:31Z</time></trkpt><trkpt lat="45.1086170265808" lon="7.273216982724414"><ele>382.3333333333333</ele><time>2026-04-19T13:16:32Z</time></trkpt><trkpt lat="45.108587854545334" lon="7.2729537000116835"><ele>382.6666666666667</ele><time>2026-04-19T13:16:33Z</time></trkpt><trkpt lat="45.10854994119374" lon="7.272681991213983"><ele>383.0</ele><time>2026-04-19T13:16:34Z</time></trkpt><trkpt lat="45.10849600893974" lon="7.272413432538007"><ele>383.6666666666667</ele><time>2026-04-19T13:16:35Z</time></trkpt><trkpt lat="45.10845853035329" lon="7.272137731024935"><ele>384.33333333333337</ele><time>2026-04-19T13:16:36Z</time></trkpt><trkpt lat="45.10841990520393" lon="7.271866140926378"><ele>385.0</ele><time>2026-04-19T13:16:37Z</time></trkpt><trkpt lat="45.10839700069235" lon="7.271586791223263"><ele>384.33333333333337</ele><time>2026-04-19T13:16:38Z</time></trkpt><trkpt lat="45.108361466757415" lon="7.27132449392253"><ele>383.6666666666667</ele><time>2026-04-19T13:16:39Z</time></trkpt><trkpt lat="45.108324784355716" lon="7.271053719085764"><ele>383.0</ele><time>2026-04-19T13:16:40Z</time></trkpt><trkpt lat="45.1082725622804" lon="7.270783222799172"><ele>383.33333333333337</ele><time>2026-04-19T13:16:41Z</time></trkpt><trkpt lat="45.10823535189076" lon="7.270510090517323"><ele>383.6666666666667</ele><time>2026-04-19T13:16:42Z</time></trkpt><trkpt lat="45.108201284842444" lon="7.2702364456114745"><ele>384.0</ele><time>2026-04-19T13:16:43Z</time></trkpt><trkpt lat="45.10816539378939" lon="7.26996103821584"><ele>384.0</ele><time>2026-04-19T13:16:44Z</time></trkpt><trkpt lat="45.10812631632978" lon="7.269684731914653"><ele>384.0</ele><time>2026-04-19T13:16:45Z</time></trkpt><trkpt lat="45.10809179290034" lon="7.269408784988066"><ele>384.0</ele><time>2026-04-19T13:16:46Z</time></trkpt><trkpt lat="45.10804752001228" lon="7.269131392157779"><ele>383.6666666666667</ele><time>2026-04-19T13:16:47Z</time></trkpt><trkpt lat="45.108010532583364" lon="7.268844123881591"><ele>383.33333333333337</ele><time>2026-04-19T13:16:48Z</time></trkpt><trkpt lat="45.107972732772645" lon="7.268558876054542"><ele>383.0</ele><time>2026-04-19T13:16:49Z</time></trkpt><trkpt lat="45.10793303406656" lon="7.268267738288187"><ele>382.6666666666667</ele><time>2026-04-19T13:16:50Z</time></trkpt><trkpt lat="45.10789032731769" lon="7.267975071067706"><ele>382.3333333333333</ele><time>2026-04-19T13:16:51Z</time></trkpt><trkpt lat="45.10785039869301" lon="7.267683465778178"><ele>382.0</ele><time>2026-04-19T13:16:52Z</time></trkpt><trkpt lat="45.107811629327585" lon="7.267388056542539"><ele>382.3333333333333</ele><time>2026-04-19T13:16:53Z</time></trkpt><trkpt lat="45.10777330004442" lon="7.26708729563511"><ele>382.6666666666667</ele><time>2026-04-19T13:16:54Z</time></trkpt><trkpt lat="45.10773352333966" lon="7.266793142857032"><ele>383.0</ele><time>2026-04-19T13:16:55Z</time></trkpt><trkpt lat="45.10768968953104" lon="7.266498869867853"><ele>382.6666666666667</ele><time>2026-04-19T13:16:56Z</time></trkpt><trkpt lat="45.107647268718964" lon="7.266197285095688"><ele>382.3333333333333</ele><time>2026-04-19T13:16:57Z</time></trkpt><trkpt lat="45.10760760841152" lon="7.265902537433112"><ele>382.0</ele><time>2026-04-19T13:16:58Z</time></trkpt><trkpt lat="45.107566938903375" lon="7.265602625176737"><ele>382.66666666666663</ele><time>2026-04-19T13:16:59Z</time></trkpt><trkpt lat="45.107526881536835" lon="7.2653050633232485"><ele>383.3333333333333</ele><time>2026-04-19T13:17:00Z</time></trkpt><trkpt lat="45.10748472571311" lon="7.265003980468428"><ele>384.0</ele><time>2026-04-19T13:17:01Z</time></trkpt><trkpt lat="45.107443886994254" lon="7.264707467967565"><ele>385.0</ele><time>2026-04-19T13:17:02Z</time></trkpt><trkpt lat="45.10740379413042" lon="7.264413226349618"><ele>386.0</ele><time>2026-04-19T13:17:03Z</time></trkpt><trkpt lat="45.10736589545975" lon="7.26411948651971"><ele>387.0</ele><time>2026-04-19T13:17:04Z</time></trkpt><trkpt lat="45.10732731080876" lon="7.263844683075264"><ele>387.0</ele><time>2026-04-19T13:17:05Z</time></trkpt><trkpt lat="45.107295316092326" lon="7.263592492501336"><ele>387.0</ele><time>2026-04-19T13:17:06Z</time></trkpt><trkpt lat="45.10727825016296" lon="7.263387729525079"><ele>387.0</ele><time>2026-04-19T13:17:07Z</time></trkpt><trkpt lat="45.10727311448832" lon="7.263256240933208"><ele>387.0</ele><time>2026-04-19T13:17:08Z</time></trkpt><trkpt lat="45.10729404609706" lon="7.263112571304234"><ele>386.40000000000003</ele><time>2026-04-19T13:17:10Z</time></trkpt><trkpt lat="45.107342652874166" lon="7.2629549960558295"><ele>385.8</ele><time>2026-04-19T13:17:12Z</time></trkpt><trkpt lat="45.1073639730763" lon="7.262839333831456"><ele>385.2</ele><time>2026-04-19T13:17:13Z</time></trkpt><trkpt lat="45.10736488797557" lon="7.262700137269844"><ele>384.6</ele><time>2026-04-19T13:17:14Z</time></trkpt><trkpt lat="45.10736827951654" lon="7.2625393572335195"><ele>384.0</ele><time>2026-04-19T13:17:15Z</time></trkpt><trkpt lat="45.10740002425182" lon="7.262375015864653"><ele>384.33333333333337</ele><time>2026-04-19T13:17:16Z</time></trkpt><trkpt lat="45.107468232689634" lon="7.262203296559897"><ele>384.6666666666667</ele><time>2026-04-19T13:17:17Z</time></trkpt><trkpt lat="45.107533128733934" lon="7.262001284634298"><ele>385.0</ele><time>2026-04-19T13:17:18Z</time></trkpt><trkpt lat="45.10760261653997" lon="7.261792682581372"><ele>385.0</ele><time>2026-04-19T13:17:19Z</time></trkpt><trkpt lat="45.1076784593914" lon="7.261568268529466"><ele>385.0</ele><time>2026-04-19T13:17:20Z</time></trkpt><trkpt lat="45.107760280058685" lon="7.261329570658185"><ele>385.0</ele><time>2026-04-19T13:17:21Z</time></trkpt><trkpt lat="45.107846841283795" lon="7.2610770430153115"><ele>385.33333333333337</ele><time>2026-04-19T13:17:22Z</time></trkpt><trkpt lat="45.107924561627314" lon="7.26080339466795"><ele>385.66666666666663</ele><time>2026-04-19T13:17:23Z</time></trkpt><trkpt lat="45.10802135060468" lon="7.2605277648423305"><ele>386.0</ele><time>2026-04-19T13:17:24Z</time></trkpt><trkpt lat="45.108122554762396" lon="7.260252397249906"><ele>386.0</ele><time>2026-04-19T13:17:25Z</time></trkpt><trkpt lat="45.108217646664755" lon="7.2599645255539516"><ele>386.0</ele><time>2026-04-19T13:17:26Z</time></trkpt><trkpt lat="45.10831380062098" lon="7.259673032950036"><ele>386.0</ele><time>2026-04-19T13:17:27Z</time></trkpt><trkpt lat="45.108413589180515" lon="7.259371141612116"><ele>386.0</ele><time>2026-04-19T13:17:28Z</time></trkpt><trkpt lat="45.10851909938206" lon="7.259062246695248"><ele>386.5</ele><time>2026-04-19T13:17:29Z</time></trkpt><trkpt lat="45.10863042282112" lon="7.258746261963647"><ele>387.0</ele><time>2026-04-19T13:17:30Z</time></trkpt><trkpt lat="45.10874010429958" lon="7.258429314361912"><ele>386.0</ele><time>2026-04-19T13:17:31Z</time></trkpt><trkpt lat="45.10884898599356" lon="7.258105734612075"><ele>385.0</ele><time>2026-04-19T13:17:32Z</time></trkpt><trkpt lat="45.108958618419834" lon="7.257782815404908"><ele>385.0</ele><time>2026-04-19T13:17:33Z</time></trkpt><trkpt lat="45.10907047219531" lon="7.25745294433002"><ele>385.0</ele><time>2026-04-19T13:17:34Z</time></trkpt><trkpt lat="45.10918246920698" lon="7.25711567945905"><ele>386.0</ele><time>2026-04-19T13:17:35Z</time></trkpt><trkpt lat="45.109295893507465" lon="7.256782543697631"><ele>387.0</ele><time>2026-04-19T13:17:36Z</time></trkpt><trkpt lat="45.10941135794515" lon="7.256439570680432"><ele>387.0</ele><time>2026-04-19T13:17:37Z</time></trkpt><trkpt lat="45.1095273350193" lon="7.256095750819917"><ele>387.0</ele><time>2026-04-19T13:17:38Z</time></trkpt><trkpt lat="45.10964462054508" lon="7.255749938992507"><ele>386.5</ele><time>2026-04-19T13:17:39Z</time></trkpt><trkpt lat="45.10976418301274" lon="7.25540154192996"><ele>386.0</ele><time>2026-04-19T13:17:40Z</time></trkpt><trkpt lat="45.1098835696907" lon="7.255049661826763"><ele>385.5</ele><time>2026-04-19T13:17:41Z</time></trkpt><trkpt lat="45.110001477773615" lon="7.254697477916789"><ele>385.0</ele><time>2026-04-19T13:17:42Z</time></trkpt><trkpt lat="45.11012158711651" lon="7.254341068764562"><ele>385.0</ele><time>2026-04-19T13:17:43Z</time></trkpt><trkpt lat="45.110243663435604" lon="7.253986972667115"><ele>385.0</ele><time>2026-04-19T13:17:44Z</time></trkpt><trkpt lat="45.110361711807485" lon="7.2536391622533705"><ele>385.5</ele><time>2026-04-19T13:17:45Z</time></trkpt><trkpt lat="45.11047505341912" lon="7.253302693329249"><ele>386.0</ele><time>2026-04-19T13:17:46Z</time></trkpt><trkpt lat="45.110588761427614" lon="7.252969149254022"><ele>386.0</ele><time>2026-04-19T13:17:47Z</time></trkpt><trkpt lat="45.11070675654061" lon="7.252626451021924"><ele>386.0</ele><time>2026-04-19T13:17:48Z</time></trkpt><trkpt lat="45.11082109348998" lon="7.252290820688987"><ele>386.5</ele><time>2026-04-19T13:17:49Z</time></trkpt><trkpt lat="45.11093518342458" lon="7.25195474728276"><ele>387.0</ele><time>2026-04-19T13:17:50Z</time></trkpt><trkpt lat="45.111052298751886" lon="7.251612444337995"><ele>387.0</ele><time>2026-04-19T13:17:51Z</time></trkpt><trkpt lat="45.11116689268014" lon="7.251276173832041"><ele>387.0</ele><time>2026-04-19T13:17:52Z</time></trkpt><trkpt lat="45.111282611585075" lon="7.250939281592736"><ele>387.5</ele><time>2026-04-19T13:17:53Z</time></trkpt><trkpt lat="45.11140087824871" lon="7.250602084242783"><ele>388.0</ele><time>2026-04-19T13:17:54Z</time></trkpt><trkpt lat="45.11151587246571" lon="7.2502668456473796"><ele>388.0</ele><time>2026-04-19T13:17:55Z</time></trkpt><trkpt lat="45.11162627662396" lon="7.249945585165427"><ele>388.0</ele><time>2026-04-19T13:17:56Z</time></trkpt><trkpt lat="45.11173148502202" lon="7.2496313901739855"><ele>388.0</ele><time>2026-04-19T13:17:57Z</time></trkpt><trkpt lat="45.11183456948619" lon="7.249343423897262"><ele>388.0</ele><time>2026-04-19T13:17:58Z</time></trkpt><trkpt lat="45.111925926577776" lon="7.249062381791391"><ele>388.0</ele><time>2026-04-19T13:17:59Z</time></trkpt><trkpt lat="45.1120160538518" lon="7.248792894813118"><ele>388.0</ele><time>2026-04-19T13:18:00Z</time></trkpt><trkpt lat="45.1121029678263" lon="7.24853586359798"><ele>388.0</ele><time>2026-04-19T13:18:01Z</time></trkpt><trkpt lat="45.11218844026448" lon="7.248283825131686"><ele>388.0</ele><time>2026-04-19T13:18:02Z</time></trkpt><trkpt lat="45.112272395137474" lon="7.2480329362470295"><ele>388.6666666666667</ele><time>2026-04-19T13:18:03Z</time></trkpt><trkpt lat="45.11235799483647" lon="7.247781072364212"><ele>389.33333333333337</ele><time>2026-04-19T13:18:04Z</time></trkpt><trkpt lat="45.112442073694645" lon="7.247532069704217"><ele>390.0</ele><time>2026-04-19T13:18:05Z</time></trkpt><trkpt lat="45.112527158556595" lon="7.247279842437278"><ele>390.0</ele><time>2026-04-19T13:18:06Z</time></trkpt><trkpt lat="45.112613874391776" lon="7.247025831597737"><ele>390.0</ele><time>2026-04-19T13:18:07Z</time></trkpt><trkpt lat="45.1127020748578" lon="7.246762625028395"><ele>390.0</ele><time>2026-04-19T13:18:08Z</time></trkpt><trkpt lat="45.11279037846676" lon="7.246501018288248"><ele>390.0</ele><time>2026-04-19T13:18:09Z</time></trkpt><trkpt lat="45.112877424284704" lon="7.246237650241943"><ele>390.0</ele><time>2026-04-19T13:18:10Z</time></trkpt><trkpt lat="45.11296563569042" lon="7.2459763317033286"><ele>390.0</ele><time>2026-04-19T13:18:11Z</time></trkpt><trkpt lat="45.11305679090414" lon="7.24571697809944"><ele>390.0</ele><time>2026-04-19T13:18:12Z</time></trkpt><trkpt lat="45.113149863777714" lon="7.245452158626178"><ele>390.0</ele><time>2026-04-19T13:18:13Z</time></trkpt><trkpt lat="45.11324165998246" lon="7.245190144509076"><ele>390.0</ele><time>2026-04-19T13:18:14Z</time></trkpt><trkpt lat="45.113333360929616" lon="7.244923918132056"><ele>390.33333333333337</ele><time>2026-04-19T13:18:15Z</time></trkpt><trkpt lat="45.11342058598919" lon="7.2446599143796355"><ele>390.6666666666667</ele><time>2026-04-19T13:18:16Z</time></trkpt><trkpt lat="45.11350878245443" lon="7.2443932699006925"><ele>391.0</ele><time>2026-04-19T13:18:17Z</time></trkpt><trkpt lat="45.11359585462416" lon="7.244130044921538"><ele>390.6666666666667</ele><time>2026-04-19T13:18:18Z</time></trkpt><trkpt lat="45.11368626489923" lon="7.243864770170158"><ele>390.33333333333337</ele><time>2026-04-19T13:18:19Z</time></trkpt><trkpt lat="45.113779442364056" lon="7.243595076606115"><ele>390.0</ele><time>2026-04-19T13:18:20Z</time></trkpt><trkpt lat="45.113872589462034" lon="7.243321882678343"><ele>390.33333333333337</ele><time>2026-04-19T13:18:21Z</time></trkpt><trkpt lat="45.113966179840894" lon="7.243043338852549"><ele>390.6666666666667</ele><time>2026-04-19T13:18:22Z</time></trkpt><trkpt lat="45.11406005785902" lon="7.242758552003574"><ele>391.0</ele><time>2026-04-19T13:18:23Z</time></trkpt><trkpt lat="45.114156141594755" lon="7.242470245058698"><ele>391.5</ele><time>2026-04-19T13:18:24Z</time></trkpt><trkpt lat="45.11425341682198" lon="7.242180572888917"><ele>392.0</ele><time>2026-04-19T13:18:25Z</time></trkpt><trkpt lat="45.11435266585699" lon="7.241888746285036"><ele>392.0</ele><time>2026-04-19T13:18:26Z</time></trkpt><trkpt lat="45.11445341621029" lon="7.241597360280944"><ele>392.0</ele><time>2026-04-19T13:18:27Z</time></trkpt><trkpt lat="45.11457461072959" lon="7.241320514117246"><ele>393.5</ele><time>2026-04-19T13:18:28Z</time></trkpt><trkpt lat="45.11468726711355" lon="7.241037314022322"><ele>395.0</ele><time>2026-04-19T13:18:29Z</time></trkpt><trkpt lat="45.11479675894913" lon="7.24074771256208"><ele>394.5</ele><time>2026-04-19T13:18:30Z</time></trkpt><trkpt lat="45.11492736572339" lon="7.240482658948504"><ele>394.0</ele><time>2026-04-19T13:18:31Z</time></trkpt><trkpt lat="45.115061833419084" lon="7.24022459969165"><ele>394.0</ele><time>2026-04-19T13:18:32Z</time></trkpt><trkpt lat="45.11520105963424" lon="7.23996813770403"><ele>394.0</ele><time>2026-04-19T13:18:33Z</time></trkpt><trkpt lat="45.11534374898054" lon="7.239721881818518"><ele>394.0</ele><time>2026-04-19T13:18:34Z</time></trkpt><trkpt lat="45.11548598080915" lon="7.239499622242697"><ele>394.0</ele><time>2026-04-19T13:18:35Z</time></trkpt><trkpt lat="45.11562468809103" lon="7.239294611036446"><ele>394.0</ele><time>2026-04-19T13:18:36Z</time></trkpt><trkpt lat="45.11575343624335" lon="7.23910668066619"><ele>394.33333333333337</ele><time>2026-04-19T13:18:37Z</time></trkpt><trkpt lat="45.115872849634314" lon="7.238940140258506"><ele>394.66666666666663</ele><time>2026-04-19T13:18:38Z</time></trkpt><trkpt lat="45.11598194841191" lon="7.238799892744101"><ele>395.0</ele><time>2026-04-19T13:18:39Z</time></trkpt><trkpt lat="45.11608633918034" lon="7.23867675899373"><ele>395.0</ele><time>2026-04-19T13:18:40Z</time></trkpt><trkpt lat="45.116196410036245" lon="7.238605788525681"><ele>395.0</ele><time>2026-04-19T13:18:41Z</time></trkpt><trkpt lat="45.116308432377295" lon="7.238582882515637"><ele>395.0</ele><time>2026-04-19T13:18:42Z</time></trkpt><trkpt lat="45.1164132136292" lon="7.238525764091651"><ele>395.0</ele><time>2026-04-19T13:18:43Z</time></trkpt><trkpt lat="45.11649279004377" lon="7.238381533228036"><ele>395.0</ele><time>2026-04-19T13:18:44Z</time></trkpt><trkpt lat="45.116512247389764" lon="7.238198978825581"><ele>395.0</ele><time>2026-04-19T13:18:45Z</time></trkpt><trkpt lat="45.11649346653167" lon="7.238021334993818"><ele>395.0</ele><time>2026-04-19T13:18:46Z</time></trkpt><trkpt lat="45.11644098112185" lon="7.237879425997916"><ele>395.0</ele><time>2026-04-19T13:18:47Z</time></trkpt><trkpt lat="45.11654969003223" lon="7.2377485359446805"><ele>395.0</ele><time>2026-04-19T13:18:48Z</time></trkpt><trkpt lat="45.11663567188877" lon="7.2375995334885905"><ele>395.0</ele><time>2026-04-19T13:18:49Z</time></trkpt><trkpt lat="45.11672336779378" lon="7.237448591419628"><ele>395.0</ele><time>2026-04-19T13:18:50Z</time></trkpt><trkpt lat="45.11683290304887" lon="7.237260749785192"><ele>395.0</ele><time>2026-04-19T13:18:51Z</time></trkpt><trkpt lat="45.1169383456154" lon="7.237092671843456"><ele>395.3333333333333</ele><time>2026-04-19T13:18:52Z</time></trkpt><trkpt lat="45.117048895900936" lon="7.236924659427197"><ele>395.66666666666663</ele><time>2026-04-19T13:18:53Z</time></trkpt><trkpt lat="45.11716297204851" lon="7.236750600435612"><ele>396.0</ele><time>2026-04-19T13:18:54Z</time></trkpt><trkpt lat="45.11727580156692" lon="7.236579110819111"><ele>396.33333333333337</ele><time>2026-04-19T13:18:55Z</time></trkpt><trkpt lat="45.11740169954386" lon="7.236409466345615"><ele>396.6666666666667</ele><time>2026-04-19T13:18:56Z</time></trkpt><trkpt lat="45.11752683488984" lon="7.2362218330755"><ele>397.0</ele><time>2026-04-19T13:18:57Z</time></trkpt><trkpt lat="45.117653952977975" lon="7.236020375107679"><ele>397.0</ele><time>2026-04-19T13:18:58Z</time></trkpt><trkpt lat="45.11778243049711" lon="7.235813542802214"><ele>397.0</ele><time>2026-04-19T13:18:59Z</time></trkpt><trkpt lat="45.11792363447884" lon="7.235615923356258"><ele>397.0</ele><time>2026-04-19T13:19:00Z</time></trkpt><trkpt lat="45.11805893151964" lon="7.235374964931903"><ele>397.33333333333337</ele><time>2026-04-19T13:19:01Z</time></trkpt><trkpt lat="45.11818956303034" lon="7.235146655105359"><ele>397.66666666666663</ele><time>2026-04-19T13:19:02Z</time></trkpt><trkpt lat="45.11832360485641" lon="7.234906700476417"><ele>398.0</ele><time>2026-04-19T13:19:03Z</time></trkpt><trkpt lat="45.118456361916714" lon="7.234659666844775"><ele>398.0</ele><time>2026-04-19T13:19:04Z</time></trkpt><trkpt lat="45.118567014396554" lon="7.234388069732951"><ele>398.0</ele><time>2026-04-19T13:19:05Z</time></trkpt><trkpt lat="45.118666543430834" lon="7.234114563511169"><ele>398.0</ele><time>2026-04-19T13:19:06Z</time></trkpt><trkpt lat="45.1187523452552" lon="7.233848823021588"><ele>399.0</ele><time>2026-04-19T13:19:07Z</time></trkpt><trkpt lat="45.11883562444694" lon="7.233586939103655"><ele>400.0</ele><time>2026-04-19T13:19:08Z</time></trkpt><trkpt lat="45.11891764730012" lon="7.233331491926409"><ele>401.0</ele><time>2026-04-19T13:19:09Z</time></trkpt><trkpt lat="45.11899982125727" lon="7.233075941644249"><ele>401.0</ele><time>2026-04-19T13:19:10Z</time></trkpt><trkpt lat="45.11907888024939" lon="7.2327923428290966"><ele>401.0</ele><time>2026-04-19T13:19:11Z</time></trkpt><trkpt lat="45.11915787132882" lon="7.2325372463695965"><ele>401.0</ele><time>2026-04-19T13:19:12Z</time></trkpt><trkpt lat="45.11922426187044" lon="7.232295979210762"><ele>401.5</ele><time>2026-04-19T13:19:13Z</time></trkpt><trkpt lat="45.11928069736015" lon="7.232064495975204"><ele>402.0</ele><time>2026-04-19T13:19:14Z</time></trkpt><trkpt lat="45.119324100072646" lon="7.231865394978327"><ele>402.5</ele><time>2026-04-19T13:19:15Z</time></trkpt><trkpt lat="45.11937928552526" lon="7.231701858098592"><ele>403.0</ele><time>2026-04-19T13:19:16Z</time></trkpt><trkpt lat="45.11944615305975" lon="7.231574146529561"><ele>403.0</ele><time>2026-04-19T13:19:17Z</time></trkpt><trkpt lat="45.11949302836816" lon="7.2314222406143145"><ele>403.0</ele><time>2026-04-19T13:19:18Z</time></trkpt><trkpt lat="45.119474833990424" lon="7.231231824371482"><ele>403.0</ele><time>2026-04-19T13:19:19Z</time></trkpt><trkpt lat="45.11940234596005" lon="7.231030554185491"><ele>403.0</ele><time>2026-04-19T13:19:20Z</time></trkpt><trkpt lat="45.11932166649958" lon="7.230820352070336"><ele>402.5</ele><time>2026-04-19T13:19:21Z</time></trkpt><trkpt lat="45.11937674425105" lon="7.230496042589077"><ele>402.0</ele><time>2026-04-19T13:19:22Z</time></trkpt><trkpt lat="45.11938947177237" lon="7.2301864977873835"><ele>402.0</ele><time>2026-04-19T13:19:23Z</time></trkpt><trkpt lat="45.119406423013906" lon="7.2298608240222135"><ele>402.0</ele><time>2026-04-19T13:19:24Z</time></trkpt><trkpt lat="45.119419567297754" lon="7.229525357377257"><ele>402.5</ele><time>2026-04-19T13:19:25Z</time></trkpt><trkpt lat="45.11943112736573" lon="7.229181112563903"><ele>403.0</ele><time>2026-04-19T13:19:26Z</time></trkpt><trkpt lat="45.11944680695826" lon="7.2288322355275945"><ele>404.0</ele><time>2026-04-19T13:19:27Z</time></trkpt><trkpt lat="45.119461293357425" lon="7.228477387230183"><ele>405.0</ele><time>2026-04-19T13:19:28Z</time></trkpt><trkpt lat="45.11947708416456" lon="7.2281164837114815"><ele>405.0</ele><time>2026-04-19T13:19:29Z</time></trkpt><trkpt lat="45.11949417293618" lon="7.227754456134517"><ele>405.0</ele><time>2026-04-19T13:19:30Z</time></trkpt><trkpt lat="45.11950934657673" lon="7.227389420928668"><ele>405.5</ele><time>2026-04-19T13:19:31Z</time></trkpt><trkpt lat="45.119516850700826" lon="7.227025072445423"><ele>406.0</ele><time>2026-04-19T13:19:32Z</time></trkpt><trkpt lat="45.11951324308159" lon="7.226651219633689"><ele>406.5</ele><time>2026-04-19T13:19:33Z</time></trkpt><trkpt lat="45.11949224594835" lon="7.2262786172989655"><ele>407.0</ele><time>2026-04-19T13:19:34Z</time></trkpt><trkpt lat="45.11946358898089" lon="7.22590680778902"><ele>406.5</ele><time>2026-04-19T13:19:35Z</time></trkpt><trkpt lat="45.11944335478779" lon="7.225529662249399"><ele>406.0</ele><time>2026-04-19T13:19:36Z</time></trkpt><trkpt lat="45.11942251669127" lon="7.2251529234425105"><ele>405.5</ele><time>2026-04-19T13:19:37Z</time></trkpt><trkpt lat="45.119396347004184" lon="7.224780938718793"><ele>405.0</ele><time>2026-04-19T13:19:38Z</time></trkpt><trkpt lat="45.119375432255495" lon="7.224425276851837"><ele>405.0</ele><time>2026-04-19T13:19:39Z</time></trkpt><trkpt lat="45.11935557474528" lon="7.22406789099572"><ele>405.0</ele><time>2026-04-19T13:19:40Z</time></trkpt><trkpt lat="45.119335695133564" lon="7.223705552940958"><ele>406.0</ele><time>2026-04-19T13:19:41Z</time></trkpt><trkpt lat="45.11932522624067" lon="7.223358936501584"><ele>407.0</ele><time>2026-04-19T13:19:42Z</time></trkpt><trkpt lat="45.119318668718385" lon="7.223012446297394"><ele>407.0</ele><time>2026-04-19T13:19:43Z</time></trkpt><trkpt lat="45.11931608138745" lon="7.222673862534266"><ele>407.0</ele><time>2026-04-19T13:19:44Z</time></trkpt><trkpt lat="45.119314586674584" lon="7.222329220121045"><ele>407.5</ele><time>2026-04-19T13:19:45Z</time></trkpt><trkpt lat="45.11931456761606" lon="7.221983005868031"><ele>408.0</ele><time>2026-04-19T13:19:46Z</time></trkpt><trkpt lat="45.119317044268364" lon="7.221634770835911"><ele>407.5</ele><time>2026-04-19T13:19:47Z</time></trkpt><trkpt lat="45.11931582626555" lon="7.221282844677769"><ele>407.0</ele><time>2026-04-19T13:19:48Z</time></trkpt><trkpt lat="45.11930961570844" lon="7.220922835807102"><ele>406.5</ele><time>2026-04-19T13:19:49Z</time></trkpt><trkpt lat="45.119291938699966" lon="7.220552470635447"><ele>406.0</ele><time>2026-04-19T13:19:50Z</time></trkpt><trkpt lat="45.11925601562603" lon="7.220184721272884"><ele>406.0</ele><time>2026-04-19T13:19:51Z</time></trkpt><trkpt lat="45.11920948667518" lon="7.2198265003946185"><ele>406.0</ele><time>2026-04-19T13:19:52Z</time></trkpt><trkpt lat="45.11918468629725" lon="7.219485992885276"><ele>406.5</ele><time>2026-04-19T13:19:53Z</time></trkpt><trkpt lat="45.11912883154458" lon="7.219138110033018"><ele>407.0</ele><time>2026-04-19T13:19:54Z</time></trkpt><trkpt lat="45.11909411018762" lon="7.218790218715729"><ele>407.0</ele><time>2026-04-19T13:19:55Z</time></trkpt><trkpt lat="45.11905246646835" lon="7.218448181909412"><ele>407.0</ele><time>2026-04-19T13:19:56Z</time></trkpt><trkpt lat="45.11901423279665" lon="7.218109034890239"><ele>406.5</ele><time>2026-04-19T13:19:57Z</time></trkpt><trkpt lat="45.11897603793248" lon="7.217770585222682"><ele>406.0</ele><time>2026-04-19T13:19:58Z</time></trkpt><trkpt lat="45.118937350367105" lon="7.217431060992012"><ele>404.0</ele><time>2026-04-19T13:19:59Z</time></trkpt><trkpt lat="45.11890050405071" lon="7.21709394758498"><ele>402.0</ele><time>2026-04-19T13:20:00Z</time></trkpt><trkpt lat="45.11886300015727" lon="7.216763965403306"><ele>402.0</ele><time>2026-04-19T13:20:01Z</time></trkpt><trkpt lat="45.11882388059122" lon="7.216436821469707"><ele>402.0</ele><time>2026-04-19T13:20:02Z</time></trkpt><trkpt lat="45.118787280327204" lon="7.216112608051537"><ele>402.0</ele><time>2026-04-19T13:20:03Z</time></trkpt><trkpt lat="45.11875421773787" lon="7.215788283415694"><ele>402.0</ele><time>2026-04-19T13:20:04Z</time></trkpt><trkpt lat="45.1187260102446" lon="7.215458579136422"><ele>402.0</ele><time>2026-04-19T13:20:05Z</time></trkpt><trkpt lat="45.11873120417133" lon="7.215118977345157"><ele>402.0</ele><time>2026-04-19T13:20:06Z</time></trkpt><trkpt lat="45.11873851897232" lon="7.214772669192755"><ele>403.0</ele><time>2026-04-19T13:20:07Z</time></trkpt><trkpt lat="45.118756359140015" lon="7.214421988745494"><ele>404.0</ele><time>2026-04-19T13:20:08Z</time></trkpt><trkpt lat="45.11876002483025" lon="7.214063431935723"><ele>406.0</ele><time>2026-04-19T13:20:09Z</time></trkpt><trkpt lat="45.11878335259148" lon="7.21370603813477"><ele>408.0</ele><time>2026-04-19T13:20:10Z</time></trkpt><trkpt lat="45.11880404720609" lon="7.213343452799317"><ele>410.5</ele><time>2026-04-19T13:20:11Z</time></trkpt><trkpt lat="45.11883386452345" lon="7.212982500212484"><ele>413.0</ele><time>2026-04-19T13:20:12Z</time></trkpt><trkpt lat="45.11888900560943" lon="7.212630778113891"><ele>418.5</ele><time>2026-04-19T13:20:13Z</time></trkpt><trkpt lat="45.118941506076794" lon="7.212280461970174"><ele>424.0</ele><time>2026-04-19T13:20:14Z</time></trkpt><trkpt lat="45.118996842692546" lon="7.21193433685207"><ele>424.0</ele><time>2026-04-19T13:20:15Z</time></trkpt><trkpt lat="45.119052496068264" lon="7.211591570158339"><ele>424.0</ele><time>2026-04-19T13:20:16Z</time></trkpt><trkpt lat="45.119111231845295" lon="7.211254187518663"><ele>422.0</ele><time>2026-04-19T13:20:17Z</time></trkpt><trkpt lat="45.11917225450642" lon="7.2109178170573145"><ele>420.0</ele><time>2026-04-19T13:20:18Z</time></trkpt><trkpt lat="45.119259374894305" lon="7.210593137141923"><ele>420.0</ele><time>2026-04-19T13:20:19Z</time></trkpt><trkpt lat="45.119374055233486" lon="7.210280555841993"><ele>420.0</ele><time>2026-04-19T13:20:20Z</time></trkpt><trkpt lat="45.11950000645933" lon="7.209980022855016"><ele>427.5</ele><time>2026-04-19T13:20:21Z</time></trkpt><trkpt lat="45.11962938790145" lon="7.209679428170585"><ele>435.0</ele><time>2026-04-19T13:20:22Z</time></trkpt><trkpt lat="45.11974262176039" lon="7.209369896000314"><ele>435.0</ele><time>2026-04-19T13:20:23Z</time></trkpt><trkpt lat="45.11985634323183" lon="7.20905905480656"><ele>435.0</ele><time>2026-04-19T13:20:24Z</time></trkpt><trkpt lat="45.119945298750025" lon="7.208724742284013"><ele>425.5</ele><time>2026-04-19T13:20:25Z</time></trkpt><trkpt lat="45.12001517555087" lon="7.2083812203987145"><ele>416.0</ele><time>2026-04-19T13:20:26Z</time></trkpt><trkpt lat="45.120092774379316" lon="7.208033223211909"><ele>416.0</ele><time>2026-04-19T13:20:27Z</time></trkpt><trkpt lat="45.1201697958505" lon="7.207684629774448"><ele>416.0</ele><time>2026-04-19T13:20:28Z</time></trkpt><trkpt lat="45.12025185692219" lon="7.207334727974774"><ele>414.5</ele><time>2026-04-19T13:20:29Z</time></trkpt><trkpt lat="45.12031413299338" lon="7.206976409040664"><ele>413.0</ele><time>2026-04-19T13:20:30Z</time></trkpt><trkpt lat="45.12037572770943" lon="7.206617585900722"><ele>414.0</ele><time>2026-04-19T13:20:31Z</time></trkpt><trkpt lat="45.12043906401136" lon="7.206252136137028"><ele>415.0</ele><time>2026-04-19T13:20:32Z</time></trkpt><trkpt lat="45.1205024334516" lon="7.205893203696039"><ele>418.0</ele><time>2026-04-19T13:20:33Z</time></trkpt><trkpt lat="45.12056590781017" lon="7.2055336770072085"><ele>421.0</ele><time>2026-04-19T13:20:34Z</time></trkpt><trkpt lat="45.12062869228372" lon="7.2051780578921845"><ele>416.5</ele><time>2026-04-19T13:20:35Z</time></trkpt><trkpt lat="45.120691343761955" lon="7.2048231921086465"><ele>412.0</ele><time>2026-04-19T13:20:36Z</time></trkpt><trkpt lat="45.120751407715694" lon="7.204465450669755"><ele>412.0</ele><time>2026-04-19T13:20:37Z</time></trkpt><trkpt lat="45.120812707511966" lon="7.2041136414821265"><ele>412.0</ele><time>2026-04-19T13:20:38Z</time></trkpt><trkpt lat="45.12087408657834" lon="7.203764716202071"><ele>414.5</ele><time>2026-04-19T13:20:39Z</time></trkpt><trkpt lat="45.120935657104354" lon="7.203410382751008"><ele>417.0</ele><time>2026-04-19T13:20:40Z</time></trkpt><trkpt lat="45.120995857051625" lon="7.203064793250759"><ele>420.5</ele><time>2026-04-19T13:20:41Z</time></trkpt><trkpt lat="45.12105910070452" lon="7.202714610536888"><ele>424.0</ele><time>2026-04-19T13:20:42Z</time></trkpt><trkpt lat="45.12111932171795" lon="7.202369234054829"><ele>428.0</ele><time>2026-04-19T13:20:43Z</time></trkpt><trkpt lat="45.121163384929254" lon="7.202019490992921"><ele>432.0</ele><time>2026-04-19T13:20:44Z</time></trkpt><trkpt lat="45.12123745993517" lon="7.201689182014676"><ele>434.5</ele><time>2026-04-19T13:20:45Z</time></trkpt><trkpt lat="45.12129725114169" lon="7.201346643054485"><ele>437.0</ele><time>2026-04-19T13:20:46Z</time></trkpt><trkpt lat="45.12135527892973" lon="7.201009837249361"><ele>437.0</ele><time>2026-04-19T13:20:47Z</time></trkpt><trkpt lat="45.121413341217085" lon="7.200671736810591"><ele>437.0</ele><time>2026-04-19T13:20:48Z</time></trkpt><trkpt lat="45.12147184447292" lon="7.200331068618893"><ele>438.5</ele><time>2026-04-19T13:20:49Z</time></trkpt><trkpt lat="45.12152183481939" lon="7.199993457524271"><ele>440.0</ele><time>2026-04-19T13:20:50Z</time></trkpt><trkpt lat="45.12156442397563" lon="7.199651744854803"><ele>440.0</ele><time>2026-04-19T13:20:51Z</time></trkpt><trkpt lat="45.12156254270938" lon="7.199294954676028"><ele>440.0</ele><time>2026-04-19T13:20:52Z</time></trkpt><trkpt lat="45.12152010723535" lon="7.198937502615881"><ele>436.5</ele><time>2026-04-19T13:20:53Z</time></trkpt><trkpt lat="45.12147116693575" lon="7.19857989264203"><ele>433.0</ele><time>2026-04-19T13:20:54Z</time></trkpt><trkpt lat="45.12143515688322" lon="7.198239296197625"><ele>429.5</ele><time>2026-04-19T13:20:55Z</time></trkpt><trkpt lat="45.12140135445834" lon="7.197916092243264"><ele>426.0</ele><time>2026-04-19T13:20:56Z</time></trkpt><trkpt lat="45.12137496110038" lon="7.197607426025438"><ele>425.0</ele><time>2026-04-19T13:20:57Z</time></trkpt><trkpt lat="45.12135954651011" lon="7.19731339558117"><ele>424.0</ele><time>2026-04-19T13:20:58Z</time></trkpt><trkpt lat="45.12135887056805" lon="7.19701045971242"><ele>423.0</ele><time>2026-04-19T13:20:59Z</time></trkpt><trkpt lat="45.121393289611675" lon="7.196699293273316"><ele>424.5</ele><time>2026-04-19T13:21:00Z</time></trkpt><trkpt lat="45.12147081595825" lon="7.196393052373846"><ele>426.0</ele><time>2026-04-19T13:21:01Z</time></trkpt><trkpt lat="45.12158251025961" lon="7.196098523566786"><ele>425.5</ele><time>2026-04-19T13:21:02Z</time></trkpt><trkpt lat="45.12170933333298" lon="7.195813725234026"><ele>425.0</ele><time>2026-04-19T13:21:03Z</time></trkpt><trkpt lat="45.121841731774154" lon="7.195524855824166"><ele>425.0</ele><time>2026-04-19T13:21:04Z</time></trkpt><trkpt lat="45.121979115048234" lon="7.195235262111795"><ele>425.0</ele><time>2026-04-19T13:21:05Z</time></trkpt><trkpt lat="45.12211907982092" lon="7.194951548114193"><ele>425.0</ele><time>2026-04-19T13:21:06Z</time></trkpt><trkpt lat="45.12226635575128" lon="7.194676588910583"><ele>425.0</ele><time>2026-04-19T13:21:07Z</time></trkpt><trkpt lat="45.12242834014207" lon="7.194418290279481"><ele>425.0</ele><time>2026-04-19T13:21:08Z</time></trkpt><trkpt lat="45.12259253495182" lon="7.194159353546775"><ele>425.0</ele><time>2026-04-19T13:21:09Z</time></trkpt><trkpt lat="45.12275623318253" lon="7.193893455145935"><ele>428.0</ele><time>2026-04-19T13:21:10Z</time></trkpt><trkpt lat="45.122911305824545" lon="7.19361516482804"><ele>431.0</ele><time>2026-04-19T13:21:11Z</time></trkpt><trkpt lat="45.12304552183371" lon="7.193312891126829"><ele>433.0</ele><time>2026-04-19T13:21:12Z</time></trkpt><trkpt lat="45.12316684082317" lon="7.192991932572521"><ele>435.0</ele><time>2026-04-19T13:21:13Z</time></trkpt><trkpt lat="45.12328925337324" lon="7.192662209042364"><ele>432.5</ele><time>2026-04-19T13:21:14Z</time></trkpt><trkpt lat="45.12341005699937" lon="7.192341368724728"><ele>430.0</ele><time>2026-04-19T13:21:15Z</time></trkpt><trkpt lat="45.12352649347105" lon="7.192024995265359"><ele>430.0</ele><time>2026-04-19T13:21:16Z</time></trkpt><trkpt lat="45.1236426721644" lon="7.191703220853916"><ele>430.0</ele><time>2026-04-19T13:21:17Z</time></trkpt><trkpt lat="45.12376354997247" lon="7.191382428188853"><ele>432.0</ele><time>2026-04-19T13:21:18Z</time></trkpt><trkpt lat="45.123884995668995" lon="7.191061430367698"><ele>434.0</ele><time>2026-04-19T13:21:19Z</time></trkpt><trkpt lat="45.124001526413046" lon="7.190733739464926"><ele>435.5</ele><time>2026-04-19T13:21:20Z</time></trkpt><trkpt lat="45.124104574123336" lon="7.1903992356274875"><ele>437.0</ele><time>2026-04-19T13:21:21Z</time></trkpt><trkpt lat="45.12419580076933" lon="7.190049120300606"><ele>436.0</ele><time>2026-04-19T13:21:22Z</time></trkpt><trkpt lat="45.12428193514541" lon="7.189696532101612"><ele>435.0</ele><time>2026-04-19T13:21:23Z</time></trkpt><trkpt lat="45.1243566948314" lon="7.189334951436181"><ele>434.0</ele><time>2026-04-19T13:21:24Z</time></trkpt><trkpt lat="45.12441869496501" lon="7.188980105822782"><ele>433.0</ele><time>2026-04-19T13:21:25Z</time></trkpt><trkpt lat="45.124461382149974" lon="7.188604247854263"><ele>433.0</ele><time>2026-04-19T13:21:26Z</time></trkpt><trkpt lat="45.1244749423025" lon="7.188235917484112"><ele>433.0</ele><time>2026-04-19T13:21:27Z</time></trkpt><trkpt lat="45.124470197607465" lon="7.187860362236351"><ele>432.0</ele><time>2026-04-19T13:21:28Z</time></trkpt><trkpt lat="45.12446670601898" lon="7.1874838149822535"><ele>431.0</ele><time>2026-04-19T13:21:29Z</time></trkpt><trkpt lat="45.12447004762155" lon="7.187110535808326"><ele>431.5</ele><time>2026-04-19T13:21:30Z</time></trkpt><trkpt lat="45.1244767579055" lon="7.186734800294598"><ele>432.0</ele><time>2026-04-19T13:21:31Z</time></trkpt><trkpt lat="45.12447743307999" lon="7.186363249703559"><ele>432.0</ele><time>2026-04-19T13:21:32Z</time></trkpt><trkpt lat="45.12448033928199" lon="7.186007258311544"><ele>432.0</ele><time>2026-04-19T13:21:33Z</time></trkpt><trkpt lat="45.12448407141313" lon="7.185675386116684"><ele>435.5</ele><time>2026-04-19T13:21:34Z</time></trkpt><trkpt lat="45.124491026511485" lon="7.185346418868632"><ele>439.0</ele><time>2026-04-19T13:21:35Z</time></trkpt><trkpt lat="45.1245220551658" lon="7.185038097174902"><ele>441.6666666666667</ele><time>2026-04-19T13:21:36Z</time></trkpt><trkpt lat="45.124597780368035" lon="7.184738729458497"><ele>444.33333333333337</ele><time>2026-04-19T13:21:37Z</time></trkpt><trkpt lat="45.124723103807156" lon="7.184475687623167"><ele>447.0</ele><time>2026-04-19T13:21:38Z</time></trkpt><trkpt lat="45.12488732641043" lon="7.184241845558531"><ele>447.0</ele><time>2026-04-19T13:21:39Z</time></trkpt><trkpt lat="45.12509525969" lon="7.18407058137849"><ele>447.0</ele><time>2026-04-19T13:21:40Z</time></trkpt><trkpt lat="45.12528432048599" lon="7.183863976581304"><ele>447.0</ele><time>2026-04-19T13:21:41Z</time></trkpt><trkpt lat="45.12547010582505" lon="7.183635703159894"><ele>447.0</ele><time>2026-04-19T13:21:42Z</time></trkpt><trkpt lat="45.12566848279478" lon="7.18341631001433"><ele>445.5</ele><time>2026-04-19T13:21:43Z</time></trkpt><trkpt lat="45.125866368791165" lon="7.183197869276917"><ele>444.0</ele><time>2026-04-19T13:21:44Z</time></trkpt><trkpt lat="45.126052818532045" lon="7.18299632579164"><ele>444.0</ele><time>2026-04-19T13:21:45Z</time></trkpt><trkpt lat="45.1262318970392" lon="7.1828042090598565"><ele>444.0</ele><time>2026-04-19T13:21:46Z</time></trkpt><trkpt lat="45.12639246117439" lon="7.182605623271212"><ele>444.0</ele><time>2026-04-19T13:21:47Z</time></trkpt><trkpt lat="45.12651515264335" lon="7.182381862119479"><ele>442.33333333333337</ele><time>2026-04-19T13:21:48Z</time></trkpt><trkpt lat="45.12659939174837" lon="7.182124538760158"><ele>440.6666666666667</ele><time>2026-04-19T13:21:49Z</time></trkpt><trkpt lat="45.126649406713845" lon="7.181829329339021"><ele>439.0</ele><time>2026-04-19T13:21:50Z</time></trkpt><trkpt lat="45.126701473663715" lon="7.181529368939879"><ele>439.0</ele><time>2026-04-19T13:21:51Z</time></trkpt><trkpt lat="45.12675661510407" lon="7.181222172394162"><ele>439.0</ele><time>2026-04-19T13:21:52Z</time></trkpt><trkpt lat="45.12681270509266" lon="7.180906684097692"><ele>439.0</ele><time>2026-04-19T13:21:53Z</time></trkpt><trkpt lat="45.12686614572439" lon="7.180581266044998"><ele>439.0</ele><time>2026-04-19T13:21:54Z</time></trkpt><trkpt lat="45.12690651421785" lon="7.180246241353027"><ele>439.0</ele><time>2026-04-19T13:21:55Z</time></trkpt><trkpt lat="45.12693460307432" lon="7.179899233194924"><ele>439.0</ele><time>2026-04-19T13:21:56Z</time></trkpt><trkpt lat="45.126953830321696" lon="7.179546613856158"><ele>438.5</ele><time>2026-04-19T13:21:57Z</time></trkpt><trkpt lat="45.12696429431628" lon="7.17918929154536"><ele>438.0</ele><time>2026-04-19T13:21:58Z</time></trkpt><trkpt lat="45.12698911934249" lon="7.178843278473723"><ele>438.0</ele><time>2026-04-19T13:21:59Z</time></trkpt><trkpt lat="45.12698635669982" lon="7.178508783637587"><ele>438.0</ele><time>2026-04-19T13:22:00Z</time></trkpt><trkpt lat="45.12699847449863" lon="7.178187220658017"><ele>436.33333333333337</ele><time>2026-04-19T13:22:01Z</time></trkpt><trkpt lat="45.12700901816614" lon="7.177876844041952"><ele>434.6666666666667</ele><time>2026-04-19T13:22:02Z</time></trkpt><trkpt lat="45.127042584876776" lon="7.177576045400332"><ele>433.0</ele><time>2026-04-19T13:22:03Z</time></trkpt><trkpt lat="45.12710261579038" lon="7.177266657619553"><ele>432.0</ele><time>2026-04-19T13:22:04Z</time></trkpt><trkpt lat="45.12719062932281" lon="7.176961636092628"><ele>431.0</ele><time>2026-04-19T13:22:05Z</time></trkpt><trkpt lat="45.127308497296546" lon="7.176672960078142"><ele>429.0</ele><time>2026-04-19T13:22:06Z</time></trkpt><trkpt lat="45.127450755394655" lon="7.176404125952332"><ele>427.0</ele><time>2026-04-19T13:22:07Z</time></trkpt><trkpt lat="45.12763105957714" lon="7.176171984235171"><ele>427.0</ele><time>2026-04-19T13:22:08Z</time></trkpt><trkpt lat="45.12780146121546" lon="7.175926595702558"><ele>427.0</ele><time>2026-04-19T13:22:09Z</time></trkpt><trkpt lat="45.12798812733024" lon="7.175691076638977"><ele>427.0</ele><time>2026-04-19T13:22:10Z</time></trkpt><trkpt lat="45.1281774189059" lon="7.1754593564613955"><ele>427.0</ele><time>2026-04-19T13:22:11Z</time></trkpt><trkpt lat="45.12835544810498" lon="7.175235032477154"><ele>427.0</ele><time>2026-04-19T13:22:12Z</time></trkpt><trkpt lat="45.12853845693616" lon="7.174997600675026"><ele>427.0</ele><time>2026-04-19T13:22:13Z</time></trkpt><trkpt lat="45.1287104708053" lon="7.174751867501985"><ele>428.0</ele><time>2026-04-19T13:22:14Z</time></trkpt><trkpt lat="45.12888462633767" lon="7.174523856094843"><ele>429.0</ele><time>2026-04-19T13:22:15Z</time></trkpt><trkpt lat="45.12905319710159" lon="7.174308298202652"><ele>429.5</ele><time>2026-04-19T13:22:16Z</time></trkpt><trkpt lat="45.12922235107309" lon="7.174096041089296"><ele>430.0</ele><time>2026-04-19T13:22:17Z</time></trkpt><trkpt lat="45.12939231979043" lon="7.173875410196928"><ele>430.0</ele><time>2026-04-19T13:22:18Z</time></trkpt><trkpt lat="45.12956510845133" lon="7.173654305711207"><ele>430.0</ele><time>2026-04-19T13:22:19Z</time></trkpt><trkpt lat="45.12974222264008" lon="7.173428568938615"><ele>429.0</ele><time>2026-04-19T13:22:20Z</time></trkpt><trkpt lat="45.12992742159632" lon="7.173193521214461"><ele>428.0</ele><time>2026-04-19T13:22:21Z</time></trkpt><trkpt lat="45.130103891048165" lon="7.172945515668621"><ele>428.0</ele><time>2026-04-19T13:22:22Z</time></trkpt><trkpt lat="45.13025731114545" lon="7.172673567919942"><ele>428.0</ele><time>2026-04-19T13:22:23Z</time></trkpt><trkpt lat="45.13037812178734" lon="7.172368200985817"><ele>429.5</ele><time>2026-04-19T13:22:24Z</time></trkpt><trkpt lat="45.130466746177405" lon="7.172038130193147"><ele>431.0</ele><time>2026-04-19T13:22:25Z</time></trkpt><trkpt lat="45.13052443403533" lon="7.171686979744805"><ele>431.5</ele><time>2026-04-19T13:22:26Z</time></trkpt><trkpt lat="45.13056083239577" lon="7.171326004015348"><ele>432.0</ele><time>2026-04-19T13:22:27Z</time></trkpt><trkpt lat="45.13059510771099" lon="7.170963307075886"><ele>433.0</ele><time>2026-04-19T13:22:28Z</time></trkpt><trkpt lat="45.13063722785343" lon="7.170589776747283"><ele>434.0</ele><time>2026-04-19T13:22:29Z</time></trkpt><trkpt lat="45.130673444757505" lon="7.170215899279409"><ele>435.0</ele><time>2026-04-19T13:22:30Z</time></trkpt><trkpt lat="45.130716251602045" lon="7.169837600473162"><ele>436.0</ele><time>2026-04-19T13:22:31Z</time></trkpt><trkpt lat="45.130767044156684" lon="7.169459925656511"><ele>432.5</ele><time>2026-04-19T13:22:32Z</time></trkpt><trkpt lat="45.13083086126796" lon="7.169090174585155"><ele>429.0</ele><time>2026-04-19T13:22:33Z</time></trkpt><trkpt lat="45.13089262296162" lon="7.168707393982132"><ele>429.0</ele><time>2026-04-19T13:22:34Z</time></trkpt><trkpt lat="45.1309469190256" lon="7.168329482797566"><ele>429.0</ele><time>2026-04-19T13:22:35Z</time></trkpt><trkpt lat="45.13099790664399" lon="7.167943388331572"><ele>429.0</ele><time>2026-04-19T13:22:36Z</time></trkpt><trkpt lat="45.13103251614997" lon="7.167560791819101"><ele>429.0</ele><time>2026-04-19T13:22:37Z</time></trkpt><trkpt lat="45.1310813962186" lon="7.167187909582656"><ele>430.0</ele><time>2026-04-19T13:22:38Z</time></trkpt><trkpt lat="45.13114481118614" lon="7.166832057548133"><ele>431.0</ele><time>2026-04-19T13:22:39Z</time></trkpt><trkpt lat="45.131191957506495" lon="7.166472173143065"><ele>431.5</ele><time>2026-04-19T13:22:40Z</time></trkpt><trkpt lat="45.13122340664071" lon="7.16610854662058"><ele>432.0</ele><time>2026-04-19T13:22:41Z</time></trkpt><trkpt lat="45.131297906711" lon="7.165750873878981"><ele>433.0</ele><time>2026-04-19T13:22:42Z</time></trkpt><trkpt lat="45.131380773940286" lon="7.165395172705493"><ele>434.0</ele><time>2026-04-19T13:22:43Z</time></trkpt><trkpt lat="45.13149904842423" lon="7.165055210237566"><ele>432.0</ele><time>2026-04-19T13:22:44Z</time></trkpt><trkpt lat="45.13162835524292" lon="7.164712906360751"><ele>430.0</ele><time>2026-04-19T13:22:45Z</time></trkpt><trkpt lat="45.131744208938365" lon="7.16436224879482"><ele>431.5</ele><time>2026-04-19T13:22:46Z</time></trkpt><trkpt lat="45.13188135669259" lon="7.1640204302403285"><ele>433.0</ele><time>2026-04-19T13:22:47Z</time></trkpt><trkpt lat="45.132010606041256" lon="7.163681467408245"><ele>433.0</ele><time>2026-04-19T13:22:48Z</time></trkpt><trkpt lat="45.13213925807123" lon="7.163353404263394"><ele>433.0</ele><time>2026-04-19T13:22:49Z</time></trkpt><trkpt lat="45.13226719541271" lon="7.163026460848186"><ele>433.0</ele><time>2026-04-19T13:22:50Z</time></trkpt><trkpt lat="45.132392302651745" lon="7.1626964447142205"><ele>433.0</ele><time>2026-04-19T13:22:51Z</time></trkpt><trkpt lat="45.132512275566505" lon="7.162383140002231"><ele>432.0</ele><time>2026-04-19T13:22:52Z</time></trkpt><trkpt lat="45.13262561391729" lon="7.162059637121754"><ele>431.0</ele><time>2026-04-19T13:22:53Z</time></trkpt><trkpt lat="45.132734237094915" lon="7.161751742623088"><ele>431.0</ele><time>2026-04-19T13:22:54Z</time></trkpt><trkpt lat="45.13286741331656" lon="7.161433714049145"><ele>431.0</ele><time>2026-04-19T13:22:55Z</time></trkpt><trkpt lat="45.13297779060386" lon="7.16111006326529"><ele>431.0</ele><time>2026-04-19T13:22:56Z</time></trkpt><trkpt lat="45.13307258265559" lon="7.16078662682795"><ele>431.0</ele><time>2026-04-19T13:22:57Z</time></trkpt><trkpt lat="45.133154521109006" lon="7.160461268209058"><ele>432.5</ele><time>2026-04-19T13:22:58Z</time></trkpt><trkpt lat="45.1332317675764" lon="7.160145902015536"><ele>434.0</ele><time>2026-04-19T13:22:59Z</time></trkpt><trkpt lat="45.13330874433377" lon="7.159835268609349"><ele>435.0</ele><time>2026-04-19T13:23:00Z</time></trkpt><trkpt lat="45.13338701018537" lon="7.1595136523013"><ele>436.0</ele><time>2026-04-19T13:23:01Z</time></trkpt><trkpt lat="45.13346470252254" lon="7.159191112934709"><ele>435.5</ele><time>2026-04-19T13:23:02Z</time></trkpt><trkpt lat="45.13354274986113" lon="7.158869619484416"><ele>435.0</ele><time>2026-04-19T13:23:03Z</time></trkpt><trkpt lat="45.13361923424502" lon="7.1585486069253"><ele>435.0</ele><time>2026-04-19T13:23:04Z</time></trkpt><trkpt lat="45.13369734237818" lon="7.158240648233079"><ele>435.0</ele><time>2026-04-19T13:23:05Z</time></trkpt><trkpt lat="45.13378193377465" lon="7.157945574477182"><ele>435.66666666666663</ele><time>2026-04-19T13:23:06Z</time></trkpt><trkpt lat="45.1338777027748" lon="7.157671127796279"><ele>436.3333333333333</ele><time>2026-04-19T13:23:07Z</time></trkpt><trkpt lat="45.13398004550184" lon="7.157402017992631"><ele>437.0</ele><time>2026-04-19T13:23:08Z</time></trkpt><trkpt lat="45.13407784164255" lon="7.157151925334965"><ele>437.0</ele><time>2026-04-19T13:23:09Z</time></trkpt><trkpt lat="45.134175214497816" lon="7.156900809582661"><ele>437.0</ele><time>2026-04-19T13:23:10Z</time></trkpt><trkpt lat="45.13427596864531" lon="7.156645796309341"><ele>437.0</ele><time>2026-04-19T13:23:11Z</time></trkpt><trkpt lat="45.13437204967552" lon="7.156394618812423"><ele>437.3333333333333</ele><time>2026-04-19T13:23:12Z</time></trkpt><trkpt lat="45.13446536336044" lon="7.156153896695672"><ele>437.66666666666663</ele><time>2026-04-19T13:23:13Z</time></trkpt><trkpt lat="45.13457544362061" lon="7.155929100912291"><ele>438.0</ele><time>2026-04-19T13:23:14Z</time></trkpt><trkpt lat="45.13466976199222" lon="7.15568742913011"><ele>438.0</ele><time>2026-04-19T13:23:15Z</time></trkpt><trkpt lat="45.13476309799372" lon="7.155448268056039"><ele>438.0</ele><time>2026-04-19T13:23:16Z</time></trkpt><trkpt lat="45.13485663159494" lon="7.1552072511800775"><ele>438.0</ele><time>2026-04-19T13:23:17Z</time></trkpt><trkpt lat="45.134948698014206" lon="7.154970014340872"><ele>437.66666666666663</ele><time>2026-04-19T13:23:18Z</time></trkpt><trkpt lat="45.13504244993077" lon="7.154716839445515"><ele>437.3333333333333</ele><time>2026-04-19T13:23:19Z</time></trkpt><trkpt lat="45.13513628723552" lon="7.1544505327560435"><ele>437.0</ele><time>2026-04-19T13:23:20Z</time></trkpt><trkpt lat="45.135220578229685" lon="7.154158759348012"><ele>437.3333333333333</ele><time>2026-04-19T13:23:21Z</time></trkpt><trkpt lat="45.13526493949947" lon="7.153867456881448"><ele>437.66666666666663</ele><time>2026-04-19T13:23:22Z</time></trkpt><trkpt lat="45.13530653468435" lon="7.153602954958552"><ele>438.0</ele><time>2026-04-19T13:23:23Z</time></trkpt><trkpt lat="45.13532460897354" lon="7.153364135876475"><ele>438.25</ele><time>2026-04-19T13:23:24Z</time></trkpt><trkpt lat="45.1353360330327" lon="7.153153988087826"><ele>438.5</ele><time>2026-04-19T13:23:25Z</time></trkpt><trkpt lat="45.13534730618334" lon="7.15296928667175"><ele>438.75</ele><time>2026-04-19T13:23:26Z</time></trkpt><trkpt lat="45.135364368682325" lon="7.152806191040308"><ele>439.0</ele><time>2026-04-19T13:23:27Z</time></trkpt><trkpt lat="45.13539565178291" lon="7.152649172986186"><ele>439.0</ele><time>2026-04-19T13:23:28Z</time></trkpt><trkpt lat="45.1354459061309" lon="7.152498363968079"><ele>439.0</ele><time>2026-04-19T13:23:29Z</time></trkpt><trkpt lat="45.13545478519847" lon="7.152338566012026"><ele>439.0</ele><time>2026-04-19T13:23:30Z</time></trkpt><trkpt lat="45.135410724486306" lon="7.15217347107197"><ele>439.0</ele><time>2026-04-19T13:23:31Z</time></trkpt><trkpt lat="45.135385839145" lon="7.151993932372379"><ele>439.33333333333337</ele><time>2026-04-19T13:23:32Z</time></trkpt><trkpt lat="45.13538865854514" lon="7.151791527045083"><ele>439.66666666666663</ele><time>2026-04-19T13:23:33Z</time></trkpt><trkpt lat="45.135436316722156" lon="7.151577049855557"><ele>440.0</ele><time>2026-04-19T13:23:34Z</time></trkpt><trkpt lat="45.13544841726295" lon="7.151339946310345"><ele>441.0</ele><time>2026-04-19T13:23:35Z</time></trkpt><trkpt lat="45.13546146732743" lon="7.151084237306084"><ele>442.0</ele><time>2026-04-19T13:23:36Z</time></trkpt><trkpt lat="45.13547511670195" lon="7.150808881765563"><ele>443.0</ele><time>2026-04-19T13:23:37Z</time></trkpt><trkpt lat="45.135472438330524" lon="7.15053616044016"><ele>443.0</ele><time>2026-04-19T13:23:38Z</time></trkpt><trkpt lat="45.13550235707232" lon="7.150254245327222"><ele>443.0</ele><time>2026-04-19T13:23:39Z</time></trkpt><trkpt lat="45.13551653010599" lon="7.149960790253672"><ele>443.0</ele><time>2026-04-19T13:23:40Z</time></trkpt><trkpt lat="45.13553132938351" lon="7.14966078494054"><ele>443.3333333333333</ele><time>2026-04-19T13:23:41Z</time></trkpt><trkpt lat="45.13554719708181" lon="7.149346752953784"><ele>443.66666666666663</ele><time>2026-04-19T13:23:42Z</time></trkpt><trkpt lat="45.13556293364619" lon="7.14903531601629"><ele>444.0</ele><time>2026-04-19T13:23:43Z</time></trkpt><trkpt lat="45.1355783989218" lon="7.1487235320172084"><ele>444.5</ele><time>2026-04-19T13:23:44Z</time></trkpt><trkpt lat="45.135596302695554" lon="7.148365657344845"><ele>445.0</ele><time>2026-04-19T13:23:45Z</time></trkpt><trkpt lat="45.13561362894617" lon="7.1480193266733485"><ele>446.33333333333337</ele><time>2026-04-19T13:23:46Z</time></trkpt><trkpt lat="45.13561616110105" lon="7.147724096011373"><ele>447.66666666666663</ele><time>2026-04-19T13:23:47Z</time></trkpt><trkpt lat="45.13563711683734" lon="7.14746072786204"><ele>449.0</ele><time>2026-04-19T13:23:48Z</time></trkpt><trkpt lat="45.135649397388974" lon="7.147214054604451"><ele>449.3333333333333</ele><time>2026-04-19T13:23:49Z</time></trkpt><trkpt lat="45.13566741948616" lon="7.14699320804101"><ele>449.66666666666663</ele><time>2026-04-19T13:23:50Z</time></trkpt><trkpt lat="45.13567847393991" lon="7.146788578591033"><ele>450.0</ele><time>2026-04-19T13:23:51Z</time></trkpt><trkpt lat="45.13569021535586" lon="7.146571232728925"><ele>451.0</ele><time>2026-04-19T13:23:52Z</time></trkpt><trkpt lat="45.13570373659814" lon="7.146320938378011"><ele>452.0</ele><time>2026-04-19T13:23:53Z</time></trkpt><trkpt lat="45.135702212183766" lon="7.146019611071744"><ele>453.0</ele><time>2026-04-19T13:23:54Z</time></trkpt><trkpt lat="45.13571276318591" lon="7.145672716047309"><ele>451.0</ele><time>2026-04-19T13:23:55Z</time></trkpt><trkpt lat="45.135730468467166" lon="7.1452865143178474"><ele>449.0</ele><time>2026-04-19T13:23:56Z</time></trkpt><trkpt lat="45.13574902358531" lon="7.144892994197704"><ele>449.5</ele><time>2026-04-19T13:23:57Z</time></trkpt><trkpt lat="45.13576459877334" lon="7.144529637210692"><ele>450.0</ele><time>2026-04-19T13:23:58Z</time></trkpt><trkpt lat="45.13578005933245" lon="7.144197925615465"><ele>450.0</ele><time>2026-04-19T13:23:59Z</time></trkpt><trkpt lat="45.13579598319186" lon="7.143885349794747"><ele>450.0</ele><time>2026-04-19T13:24:00Z</time></trkpt><trkpt lat="45.135800576863" lon="7.143574637314166"><ele>450.0</ele><time>2026-04-19T13:24:01Z</time></trkpt><trkpt lat="45.13578182392147" lon="7.14324714007735"><ele>451.0</ele><time>2026-04-19T13:24:02Z</time></trkpt><trkpt lat="45.135743255634075" lon="7.142896558663091"><ele>452.0</ele><time>2026-04-19T13:24:03Z</time></trkpt><trkpt lat="45.135695442715274" lon="7.142538911772396"><ele>452.0</ele><time>2026-04-19T13:24:04Z</time></trkpt><trkpt lat="45.13564738104135" lon="7.1421609496693845"><ele>452.0</ele><time>2026-04-19T13:24:05Z</time></trkpt><trkpt lat="45.13560055989462" lon="7.1417751710325295"><ele>452.5</ele><time>2026-04-19T13:24:06Z</time></trkpt><trkpt lat="45.135552063010834" lon="7.141393691700106"><ele>453.0</ele><time>2026-04-19T13:24:07Z</time></trkpt><trkpt lat="45.1355021123018" lon="7.141012090704975"><ele>453.0</ele><time>2026-04-19T13:24:08Z</time></trkpt><trkpt lat="45.13545567434779" lon="7.140623018278519"><ele>453.0</ele><time>2026-04-19T13:24:09Z</time></trkpt><trkpt lat="45.13539029726006" lon="7.140234662885285"><ele>453.0</ele><time>2026-04-19T13:24:10Z</time></trkpt><trkpt lat="45.13531228940759" lon="7.139853876035671"><ele>453.0</ele><time>2026-04-19T13:24:11Z</time></trkpt><trkpt lat="45.13521939681775" lon="7.139475059839963"><ele>453.0</ele><time>2026-04-19T13:24:12Z</time></trkpt><trkpt lat="45.13512824771931" lon="7.139125174190836"><ele>453.0</ele><time>2026-04-19T13:24:13Z</time></trkpt><trkpt lat="45.135038860378145" lon="7.138798366879755"><ele>452.0</ele><time>2026-04-19T13:24:14Z</time></trkpt><trkpt lat="45.13495425602398" lon="7.138486704344458"><ele>451.0</ele><time>2026-04-19T13:24:15Z</time></trkpt><trkpt lat="45.134867192794296" lon="7.138179551162347"><ele>453.5</ele><time>2026-04-19T13:24:16Z</time></trkpt><trkpt lat="45.13477279936717" lon="7.137861854624978"><ele>456.0</ele><time>2026-04-19T13:24:17Z</time></trkpt><trkpt lat="45.134677818727276" lon="7.137530527084361"><ele>454.5</ele><time>2026-04-19T13:24:18Z</time></trkpt><trkpt lat="45.13458108535716" lon="7.1371901765807575"><ele>453.0</ele><time>2026-04-19T13:24:19Z</time></trkpt><trkpt lat="45.13447322355314" lon="7.136843405577017"><ele>451.5</ele><time>2026-04-19T13:24:20Z</time></trkpt><trkpt lat="45.134364514832335" lon="7.136489092666539"><ele>450.0</ele><time>2026-04-19T13:24:21Z</time></trkpt><trkpt lat="45.13425373048442" lon="7.136137538218531"><ele>450.0</ele><time>2026-04-19T13:24:22Z</time></trkpt><trkpt lat="45.134138828157305" lon="7.1357819405127945"><ele>450.0</ele><time>2026-04-19T13:24:23Z</time></trkpt><trkpt lat="45.13403945634455" lon="7.135412425135607"><ele>450.5</ele><time>2026-04-19T13:24:24Z</time></trkpt><trkpt lat="45.13392758918159" lon="7.135048127266235"><ele>451.0</ele><time>2026-04-19T13:24:25Z</time></trkpt><trkpt lat="45.133815334447526" lon="7.134680277462144"><ele>451.0</ele><time>2026-04-19T13:24:26Z</time></trkpt><trkpt lat="45.133711119684634" lon="7.134338728174664"><ele>451.0</ele><time>2026-04-19T13:24:27Z</time></trkpt><trkpt lat="45.1336129362028" lon="7.134012876587493"><ele>451.0</ele><time>2026-04-19T13:24:28Z</time></trkpt><trkpt lat="45.13351967387239" lon="7.133690751958915"><ele>451.0</ele><time>2026-04-19T13:24:29Z</time></trkpt><trkpt lat="45.1334373146518" lon="7.133356912293349"><ele>449.0</ele><time>2026-04-19T13:24:30Z</time></trkpt><trkpt lat="45.133373230436995" lon="7.133004972701077"><ele>447.0</ele><time>2026-04-19T13:24:31Z</time></trkpt><trkpt lat="45.13332612748349" lon="7.132637631799246"><ele>445.0</ele><time>2026-04-19T13:24:32Z</time></trkpt><trkpt lat="45.133301255084675" lon="7.1322651362523235"><ele>443.0</ele><time>2026-04-19T13:24:33Z</time></trkpt><trkpt lat="45.133288823298145" lon="7.131886692929926"><ele>443.5</ele><time>2026-04-19T13:24:34Z</time></trkpt><trkpt lat="45.133276700889894" lon="7.131512820732364"><ele>444.0</ele><time>2026-04-19T13:24:35Z</time></trkpt><trkpt lat="45.13326479982079" lon="7.1311400947304175"><ele>444.0</ele><time>2026-04-19T13:24:36Z</time></trkpt><trkpt lat="45.13325338516709" lon="7.130756103406446"><ele>444.0</ele><time>2026-04-19T13:24:37Z</time></trkpt><trkpt lat="45.133242270596675" lon="7.130381113703153"><ele>444.5</ele><time>2026-04-19T13:24:38Z</time></trkpt><trkpt lat="45.13323139046826" lon="7.130007986294029"><ele>445.0</ele><time>2026-04-19T13:24:39Z</time></trkpt><trkpt lat="45.13322086135227" lon="7.129635942174379"><ele>449.0</ele><time>2026-04-19T13:24:40Z</time></trkpt><trkpt lat="45.13321027776667" lon="7.129261972214948"><ele>453.0</ele><time>2026-04-19T13:24:41Z</time></trkpt><trkpt lat="45.13319679852793" lon="7.1288921089114545"><ele>453.5</ele><time>2026-04-19T13:24:42Z</time></trkpt><trkpt lat="45.13316604598687" lon="7.128516546281126"><ele>454.0</ele><time>2026-04-19T13:24:43Z</time></trkpt><trkpt lat="45.13314084230868" lon="7.128144511484424"><ele>454.0</ele><time>2026-04-19T13:24:44Z</time></trkpt><trkpt lat="45.133086234446914" lon="7.127779158052949"><ele>454.0</ele><time>2026-04-19T13:24:45Z</time></trkpt><trkpt lat="45.13299443621344" lon="7.127421623106798"><ele>452.0</ele><time>2026-04-19T13:24:46Z</time></trkpt><trkpt lat="45.13289015460159" lon="7.127063906598801"><ele>450.0</ele><time>2026-04-19T13:24:47Z</time></trkpt><trkpt lat="45.13276656775064" lon="7.126725056812838"><ele>448.5</ele><time>2026-04-19T13:24:48Z</time></trkpt><trkpt lat="45.1326423389865" lon="7.126393458266011"><ele>447.0</ele><time>2026-04-19T13:24:49Z</time></trkpt><trkpt lat="45.13251791151049" lon="7.126065855438059"><ele>447.5</ele><time>2026-04-19T13:24:50Z</time></trkpt><trkpt lat="45.132363887143306" lon="7.125757534554754"><ele>448.0</ele><time>2026-04-19T13:24:51Z</time></trkpt><trkpt lat="45.13217707740202" lon="7.1254844215255"><ele>448.0</ele><time>2026-04-19T13:24:52Z</time></trkpt><trkpt lat="45.131993699643246" lon="7.125206226026936"><ele>448.0</ele><time>2026-04-19T13:24:53Z</time></trkpt><trkpt lat="45.131817217956936" lon="7.124931067660662"><ele>446.5</ele><time>2026-04-19T13:24:54Z</time></trkpt><trkpt lat="45.13167952457732" lon="7.124648686752312"><ele>445.0</ele><time>2026-04-19T13:24:55Z</time></trkpt><trkpt lat="45.13158849225806" lon="7.124343956199949"><ele>446.0</ele><time>2026-04-19T13:24:56Z</time></trkpt><trkpt lat="45.1315360921617" lon="7.123996284320635"><ele>447.0</ele><time>2026-04-19T13:24:57Z</time></trkpt><trkpt lat="45.13152436150946" lon="7.1236368035360105"><ele>446.0</ele><time>2026-04-19T13:24:58Z</time></trkpt><trkpt lat="45.13156467541853" lon="7.123289658061926"><ele>445.0</ele><time>2026-04-19T13:24:59Z</time></trkpt><trkpt lat="45.13162153688794" lon="7.122924301317319"><ele>445.0</ele><time>2026-04-19T13:25:00Z</time></trkpt><trkpt lat="45.13166888254816" lon="7.122561940079832"><ele>445.0</ele><time>2026-04-19T13:25:01Z</time></trkpt><trkpt lat="45.1317388939901" lon="7.12220437779351"><ele>446.0</ele><time>2026-04-19T13:25:02Z</time></trkpt><trkpt lat="45.131786721249256" lon="7.121837224710131"><ele>447.0</ele><time>2026-04-19T13:25:03Z</time></trkpt><trkpt lat="45.13184893032249" lon="7.121473009656508"><ele>447.5</ele><time>2026-04-19T13:25:04Z</time></trkpt><trkpt lat="45.13190820567885" lon="7.121130941859711"><ele>448.0</ele><time>2026-04-19T13:25:05Z</time></trkpt><trkpt lat="45.13193803086545" lon="7.120740610756272"><ele>448.0</ele><time>2026-04-19T13:25:06Z</time></trkpt><trkpt lat="45.131959697719516" lon="7.1203631030775325"><ele>448.0</ele><time>2026-04-19T13:25:07Z</time></trkpt><trkpt lat="45.131965731774706" lon="7.1199781797750825"><ele>448.0</ele><time>2026-04-19T13:25:08Z</time></trkpt><trkpt lat="45.13196401403648" lon="7.1195860328931895"><ele>448.0</ele><time>2026-04-19T13:25:09Z</time></trkpt><trkpt lat="45.13198486253672" lon="7.119195676594957"><ele>448.5</ele><time>2026-04-19T13:25:10Z</time></trkpt><trkpt lat="45.13199099941074" lon="7.118814659135506"><ele>449.0</ele><time>2026-04-19T13:25:11Z</time></trkpt><trkpt lat="45.131997022289745" lon="7.118440718519438"><ele>449.5</ele><time>2026-04-19T13:25:12Z</time></trkpt><trkpt lat="45.132004011374626" lon="7.118082133238602"><ele>450.0</ele><time>2026-04-19T13:25:13Z</time></trkpt><trkpt lat="45.13207521230753" lon="7.117732509505835"><ele>450.5</ele><time>2026-04-19T13:25:14Z</time></trkpt><trkpt lat="45.13218529603917" lon="7.117393156809975"><ele>451.0</ele><time>2026-04-19T13:25:15Z</time></trkpt><trkpt lat="45.132310338542" lon="7.117058506888381"><ele>451.0</ele><time>2026-04-19T13:25:16Z</time></trkpt><trkpt lat="45.132424264669055" lon="7.116714368983982"><ele>451.0</ele><time>2026-04-19T13:25:17Z</time></trkpt><trkpt lat="45.13253042751283" lon="7.116356387044655"><ele>451.0</ele><time>2026-04-19T13:25:18Z</time></trkpt><trkpt lat="45.13262311528871" lon="7.115988387643076"><ele>451.0</ele><time>2026-04-19T13:25:19Z</time></trkpt><trkpt lat="45.132668887656195" lon="7.115601733086233"><ele>452.0</ele><time>2026-04-19T13:25:20Z</time></trkpt><trkpt lat="45.1326653639854" lon="7.115203380078832"><ele>453.0</ele><time>2026-04-19T13:25:21Z</time></trkpt><trkpt lat="45.132623830826915" lon="7.114803890366964"><ele>454.0</ele><time>2026-04-19T13:25:22Z</time></trkpt><trkpt lat="45.132566310068455" lon="7.114412481547457"><ele>455.0</ele><time>2026-04-19T13:25:23Z</time></trkpt><trkpt lat="45.13252834774275" lon="7.114020900468806"><ele>455.5</ele><time>2026-04-19T13:25:24Z</time></trkpt><trkpt lat="45.132478863912795" lon="7.113626667837307"><ele>456.0</ele><time>2026-04-19T13:25:25Z</time></trkpt><trkpt lat="45.13242897818466" lon="7.113229801246876"><ele>458.5</ele><time>2026-04-19T13:25:26Z</time></trkpt><trkpt lat="45.13236460019869" lon="7.112839616545445"><ele>461.0</ele><time>2026-04-19T13:25:27Z</time></trkpt><trkpt lat="45.132310903214176" lon="7.1124444489922025"><ele>460.5</ele><time>2026-04-19T13:25:28Z</time></trkpt><trkpt lat="45.13225584167409" lon="7.112047610292253"><ele>460.0</ele><time>2026-04-19T13:25:29Z</time></trkpt><trkpt lat="45.13221061178059" lon="7.111676927169181"><ele>460.0</ele><time>2026-04-19T13:25:30Z</time></trkpt><trkpt lat="45.132186530931754" lon="7.111314071281194"><ele>460.0</ele><time>2026-04-19T13:25:31Z</time></trkpt><trkpt lat="45.132139293371395" lon="7.110946546953533"><ele>459.5</ele><time>2026-04-19T13:25:32Z</time></trkpt><trkpt lat="45.13209306022846" lon="7.110586837300064"><ele>459.0</ele><time>2026-04-19T13:25:33Z</time></trkpt><trkpt lat="45.13203580279788" lon="7.110239113137774"><ele>459.0</ele><time>2026-04-19T13:25:34Z</time></trkpt><trkpt lat="45.1319913023658" lon="7.109894811346702"><ele>459.0</ele><time>2026-04-19T13:25:35Z</time></trkpt><trkpt lat="45.13196527900393" lon="7.109559071279406"><ele>459.0</ele><time>2026-04-19T13:25:36Z</time></trkpt><trkpt lat="45.131926699373345" lon="7.109236977223545"><ele>459.0</ele><time>2026-04-19T13:25:37Z</time></trkpt><trkpt lat="45.13188888520934" lon="7.108901654953397"><ele>458.0</ele><time>2026-04-19T13:25:38Z</time></trkpt><trkpt lat="45.13185682284915" lon="7.108556454255615"><ele>457.0</ele><time>2026-04-19T13:25:39Z</time></trkpt><trkpt lat="45.131852959323986" lon="7.108205335877422"><ele>456.0</ele><time>2026-04-19T13:25:40Z</time></trkpt><trkpt lat="45.13189379324382" lon="7.107848724912904"><ele>455.0</ele><time>2026-04-19T13:25:41Z</time></trkpt><trkpt lat="45.1319479691089" lon="7.107491260976302"><ele>454.5</ele><time>2026-04-19T13:25:42Z</time></trkpt><trkpt lat="45.1319919550043" lon="7.107121021696031"><ele>454.0</ele><time>2026-04-19T13:25:43Z</time></trkpt><trkpt lat="45.13205434004295" lon="7.10676417848396"><ele>454.5</ele><time>2026-04-19T13:25:44Z</time></trkpt><trkpt lat="45.13211047091003" lon="7.106402544753579"><ele>455.0</ele><time>2026-04-19T13:25:45Z</time></trkpt><trkpt lat="45.1321607019939" lon="7.106045254968477"><ele>455.5</ele><time>2026-04-19T13:25:46Z</time></trkpt><trkpt lat="45.13220349313627" lon="7.105690281113505"><ele>456.0</ele><time>2026-04-19T13:25:47Z</time></trkpt><trkpt lat="45.13223702895944" lon="7.105325812062661"><ele>456.0</ele><time>2026-04-19T13:25:48Z</time></trkpt><trkpt lat="45.1322534616038" lon="7.10495379777153"><ele>456.0</ele><time>2026-04-19T13:25:49Z</time></trkpt><trkpt lat="45.13225272091486" lon="7.104579091401385"><ele>457.0</ele><time>2026-04-19T13:25:50Z</time></trkpt><trkpt lat="45.13223692967692" lon="7.104197384766687"><ele>458.0</ele><time>2026-04-19T13:25:51Z</time></trkpt><trkpt lat="45.13222896971613" lon="7.103813981857417"><ele>459.0</ele><time>2026-04-19T13:25:52Z</time></trkpt><trkpt lat="45.132208653751626" lon="7.1034285474349055"><ele>460.0</ele><time>2026-04-19T13:25:53Z</time></trkpt><trkpt lat="45.13219441801219" lon="7.103045986280674"><ele>460.0</ele><time>2026-04-19T13:25:54Z</time></trkpt><trkpt lat="45.132197409244654" lon="7.102665937908327"><ele>460.0</ele><time>2026-04-19T13:25:55Z</time></trkpt><trkpt lat="45.132217141796175" lon="7.102283368071167"><ele>461.0</ele><time>2026-04-19T13:25:56Z</time></trkpt><trkpt lat="45.132251566545385" lon="7.101891938968229"><ele>462.0</ele><time>2026-04-19T13:25:57Z</time></trkpt><trkpt lat="45.132304244437506" lon="7.1014958332646305"><ele>462.0</ele><time>2026-04-19T13:25:58Z</time></trkpt><trkpt lat="45.13238169498379" lon="7.10110229467736"><ele>462.0</ele><time>2026-04-19T13:25:59Z</time></trkpt><trkpt lat="45.13247608552624" lon="7.100707046444807"><ele>462.0</ele><time>2026-04-19T13:26:00Z</time></trkpt><trkpt lat="45.13258617076118" lon="7.100314395084408"><ele>462.0</ele><time>2026-04-19T13:26:01Z</time></trkpt><trkpt lat="45.13270088148359" lon="7.099917690960306"><ele>463.0</ele><time>2026-04-19T13:26:02Z</time></trkpt><trkpt lat="45.13280476634473" lon="7.099509440481718"><ele>464.0</ele><time>2026-04-19T13:26:03Z</time></trkpt><trkpt lat="45.13289131664362" lon="7.099095756663163"><ele>464.5</ele><time>2026-04-19T13:26:04Z</time></trkpt><trkpt lat="45.13294980719189" lon="7.098672539110149"><ele>465.0</ele><time>2026-04-19T13:26:05Z</time></trkpt><trkpt lat="45.13300714143595" lon="7.098249502603598"><ele>466.0</ele><time>2026-04-19T13:26:06Z</time></trkpt><trkpt lat="45.13306306668959" lon="7.097850584092751"><ele>467.0</ele><time>2026-04-19T13:26:07Z</time></trkpt><trkpt lat="45.13311426668974" lon="7.097482603921353"><ele>467.0</ele><time>2026-04-19T13:26:08Z</time></trkpt><trkpt lat="45.133199528540786" lon="7.097137375994041"><ele>467.0</ele><time>2026-04-19T13:26:09Z</time></trkpt><trkpt lat="45.133296506282704" lon="7.096787479702382"><ele>467.5</ele><time>2026-04-19T13:26:10Z</time></trkpt><trkpt lat="45.13340184267647" lon="7.096437226905773"><ele>468.0</ele><time>2026-04-19T13:26:11Z</time></trkpt><trkpt lat="45.133541715181295" lon="7.096102730755974"><ele>468.0</ele><time>2026-04-19T13:26:12Z</time></trkpt><trkpt lat="45.133680917573685" lon="7.095757847276752"><ele>468.0</ele><time>2026-04-19T13:26:13Z</time></trkpt><trkpt lat="45.13381405911956" lon="7.0954055710766735"><ele>469.0</ele><time>2026-04-19T13:26:14Z</time></trkpt><trkpt lat="45.133941654515056" lon="7.095054953498021"><ele>470.0</ele><time>2026-04-19T13:26:15Z</time></trkpt><trkpt lat="45.13406124547744" lon="7.0946899789289954"><ele>470.0</ele><time>2026-04-19T13:26:16Z</time></trkpt><trkpt lat="45.13416593393597" lon="7.094315375669284"><ele>470.0</ele><time>2026-04-19T13:26:17Z</time></trkpt><trkpt lat="45.134252894583994" lon="7.093932657041226"><ele>469.5</ele><time>2026-04-19T13:26:18Z</time></trkpt><trkpt lat="45.13431969161486" lon="7.093539221413407"><ele>469.0</ele><time>2026-04-19T13:26:19Z</time></trkpt><trkpt lat="45.13436710146086" lon="7.09313376630422"><ele>469.0</ele><time>2026-04-19T13:26:20Z</time></trkpt><trkpt lat="45.13440371851511" lon="7.09272527494302"><ele>469.0</ele><time>2026-04-19T13:26:21Z</time></trkpt><trkpt lat="45.134452339152396" lon="7.092318813664203"><ele>469.0</ele><time>2026-04-19T13:26:22Z</time></trkpt><trkpt lat="45.134485819384324" lon="7.09190878032192"><ele>469.0</ele><time>2026-04-19T13:26:23Z</time></trkpt><trkpt lat="45.134519386810624" lon="7.091492692264729"><ele>469.5</ele><time>2026-04-19T13:26:24Z</time></trkpt><trkpt lat="45.13454161279804" lon="7.091075379988469"><ele>470.0</ele><time>2026-04-19T13:26:25Z</time></trkpt><trkpt lat="45.134578191159584" lon="7.090653629192358"><ele>471.0</ele><time>2026-04-19T13:26:26Z</time></trkpt><trkpt lat="45.13461332326296" lon="7.090232546736424"><ele>472.0</ele><time>2026-04-19T13:26:27Z</time></trkpt><trkpt lat="45.13464650755822" lon="7.089817352473362"><ele>472.0</ele><time>2026-04-19T13:26:28Z</time></trkpt><trkpt lat="45.134677365243164" lon="7.089398521359687"><ele>472.0</ele><time>2026-04-19T13:26:29Z</time></trkpt><trkpt lat="45.13471015890537" lon="7.089009512899537"><ele>473.5</ele><time>2026-04-19T13:26:30Z</time></trkpt><trkpt lat="45.13473960832306" lon="7.088646006926528"><ele>475.0</ele><time>2026-04-19T13:26:31Z</time></trkpt><trkpt lat="45.134768430855054" lon="7.088302202932522"><ele>475.5</ele><time>2026-04-19T13:26:32Z</time></trkpt><trkpt lat="45.13479456055615" lon="7.087978236813607"><ele>476.0</ele><time>2026-04-19T13:26:33Z</time></trkpt><trkpt lat="45.134817819556325" lon="7.087654166862378"><ele>475.5</ele><time>2026-04-19T13:26:34Z</time></trkpt><trkpt lat="45.13484371533702" lon="7.087324243572312"><ele>475.0</ele><time>2026-04-19T13:26:35Z</time></trkpt><trkpt lat="45.1348753780777" lon="7.086997554873028"><ele>474.5</ele><time>2026-04-19T13:26:36Z</time></trkpt><trkpt lat="45.134897628188156" lon="7.086666298310695"><ele>474.0</ele><time>2026-04-19T13:26:37Z</time></trkpt><trkpt lat="45.134921344830055" lon="7.086335790035313"><ele>474.0</ele><time>2026-04-19T13:26:38Z</time></trkpt><trkpt lat="45.134950187760204" lon="7.086004948438918"><ele>474.0</ele><time>2026-04-19T13:26:39Z</time></trkpt><trkpt lat="45.134977263337305" lon="7.085682229138331"><ele>474.33333333333337</ele><time>2026-04-19T13:26:40Z</time></trkpt><trkpt lat="45.13500363510619" lon="7.08535351131873"><ele>474.6666666666667</ele><time>2026-04-19T13:26:41Z</time></trkpt><trkpt lat="45.13500634488699" lon="7.085047249918015"><ele>475.0</ele><time>2026-04-19T13:26:42Z</time></trkpt><trkpt lat="45.13500072441438" lon="7.08472276651186"><ele>475.33333333333337</ele><time>2026-04-19T13:26:43Z</time></trkpt><trkpt lat="45.134981659270835" lon="7.084410981906494"><ele>475.66666666666663</ele><time>2026-04-19T13:26:44Z</time></trkpt><trkpt lat="45.13495565194604" lon="7.084091455936119"><ele>476.0</ele><time>2026-04-19T13:26:45Z</time></trkpt><trkpt lat="45.13492033876557" lon="7.083766105629637"><ele>477.5</ele><time>2026-04-19T13:26:46Z</time></trkpt><trkpt lat="45.13487608052837" lon="7.083434963948151"><ele>479.0</ele><time>2026-04-19T13:26:47Z</time></trkpt><trkpt lat="45.134815713791674" lon="7.083099373388574"><ele>479.0</ele><time>2026-04-19T13:26:48Z</time></trkpt><trkpt lat="45.13472871592705" lon="7.082769054092907"><ele>479.0</ele><time>2026-04-19T13:26:49Z</time></trkpt><trkpt lat="45.13463188638615" lon="7.082431210913549"><ele>478.5</ele><time>2026-04-19T13:26:50Z</time></trkpt><trkpt lat="45.13453603190777" lon="7.082085876503892"><ele>478.0</ele><time>2026-04-19T13:26:51Z</time></trkpt><trkpt lat="45.134436924631274" lon="7.081743177147966"><ele>476.5</ele><time>2026-04-19T13:26:52Z</time></trkpt><trkpt lat="45.13433824408168" lon="7.0813903140625145"><ele>475.0</ele><time>2026-04-19T13:26:53Z</time></trkpt><trkpt lat="45.134239368200646" lon="7.081035086397029"><ele>475.0</ele><time>2026-04-19T13:26:54Z</time></trkpt><trkpt lat="45.13414185928931" lon="7.080670341241248"><ele>475.0</ele><time>2026-04-19T13:26:55Z</time></trkpt><trkpt lat="45.1340517574929" lon="7.080303223046915"><ele>475.5</ele><time>2026-04-19T13:26:56Z</time></trkpt><trkpt lat="45.13396863778272" lon="7.07993504381941"><ele>476.0</ele><time>2026-04-19T13:26:57Z</time></trkpt><trkpt lat="45.13384188035235" lon="7.0796227238504015"><ele>476.0</ele><time>2026-04-19T13:26:58Z</time></trkpt><trkpt lat="45.13376497033088" lon="7.079302866071442"><ele>476.0</ele><time>2026-04-19T13:26:59Z</time></trkpt><trkpt lat="45.13369259903272" lon="7.078974051863242"><ele>475.5</ele><time>2026-04-19T13:27:00Z</time></trkpt><trkpt lat="45.13362415292969" lon="7.078655066916042"><ele>475.0</ele><time>2026-04-19T13:27:01Z</time></trkpt><trkpt lat="45.13356342160685" lon="7.078339372306235"><ele>474.5</ele><time>2026-04-19T13:27:02Z</time></trkpt><trkpt lat="45.13349146223601" lon="7.07800639408879"><ele>474.0</ele><time>2026-04-19T13:27:03Z</time></trkpt><trkpt lat="45.13341665289943" lon="7.077657836206251"><ele>473.5</ele><time>2026-04-19T13:27:04Z</time></trkpt><trkpt lat="45.13334488624159" lon="7.077300999415717"><ele>473.0</ele><time>2026-04-19T13:27:05Z</time></trkpt><trkpt lat="45.133269266329826" lon="7.0769353467607194"><ele>473.0</ele><time>2026-04-19T13:27:06Z</time></trkpt><trkpt lat="45.1331906954214" lon="7.076582491227969"><ele>473.0</ele><time>2026-04-19T13:27:07Z</time></trkpt><trkpt lat="45.13311259903107" lon="7.076232671738125"><ele>473.0</ele><time>2026-04-19T13:27:08Z</time></trkpt><trkpt lat="45.13303972031258" lon="7.075895887917953"><ele>473.0</ele><time>2026-04-19T13:27:09Z</time></trkpt><trkpt lat="45.13297261793897" lon="7.075555846394534"><ele>474.5</ele><time>2026-04-19T13:27:10Z</time></trkpt><trkpt lat="45.132909490663735" lon="7.075212779750976"><ele>476.0</ele><time>2026-04-19T13:27:11Z</time></trkpt><trkpt lat="45.13285710735811" lon="7.074868003185685"><ele>476.0</ele><time>2026-04-19T13:27:12Z</time></trkpt><trkpt lat="45.13281849647979" lon="7.074521155220811"><ele>476.0</ele><time>2026-04-19T13:27:13Z</time></trkpt><trkpt lat="45.13279453129905" lon="7.074175502365653"><ele>476.0</ele><time>2026-04-19T13:27:14Z</time></trkpt><trkpt lat="45.13279065040057" lon="7.073828755598749"><ele>476.0</ele><time>2026-04-19T13:27:15Z</time></trkpt><trkpt lat="45.13279708312931" lon="7.073470047663523"><ele>476.0</ele><time>2026-04-19T13:27:16Z</time></trkpt><trkpt lat="45.13280201223734" lon="7.073098646690528"><ele>476.0</ele><time>2026-04-19T13:27:17Z</time></trkpt><trkpt lat="45.13280175981015" lon="7.072722655006767"><ele>476.5</ele><time>2026-04-19T13:27:18Z</time></trkpt><trkpt lat="45.132799912227114" lon="7.072331714039588"><ele>477.0</ele><time>2026-04-19T13:27:19Z</time></trkpt><trkpt lat="45.13280200831206" lon="7.0719291696623285"><ele>478.0</ele><time>2026-04-19T13:27:20Z</time></trkpt><trkpt lat="45.13279734911922" lon="7.071535140246387"><ele>479.0</ele><time>2026-04-19T13:27:21Z</time></trkpt><trkpt lat="45.132796787180155" lon="7.071141568014242"><ele>478.5</ele><time>2026-04-19T13:27:22Z</time></trkpt><trkpt lat="45.13279965419795" lon="7.07075073524572"><ele>478.0</ele><time>2026-04-19T13:27:23Z</time></trkpt><trkpt lat="45.13280157772931" lon="7.070358879152088"><ele>478.0</ele><time>2026-04-19T13:27:24Z</time></trkpt><trkpt lat="45.13280231057423" lon="7.069980679652843"><ele>478.0</ele><time>2026-04-19T13:27:25Z</time></trkpt><trkpt lat="45.132801884249595" lon="7.06961339639404"><ele>478.5</ele><time>2026-04-19T13:27:26Z</time></trkpt><trkpt lat="45.13280184738571" lon="7.069253347812051"><ele>479.0</ele><time>2026-04-19T13:27:27Z</time></trkpt><trkpt lat="45.13280348300738" lon="7.068889731954978"><ele>479.5</ele><time>2026-04-19T13:27:28Z</time></trkpt><trkpt lat="45.132800534959195" lon="7.068518313468463"><ele>480.0</ele><time>2026-04-19T13:27:29Z</time></trkpt><trkpt lat="45.13279964368303" lon="7.068153107839653"><ele>481.5</ele><time>2026-04-19T13:27:30Z</time></trkpt><trkpt lat="45.1328009577912" lon="7.0677955124002745"><ele>483.0</ele><time>2026-04-19T13:27:31Z</time></trkpt><trkpt lat="45.132802156266344" lon="7.067465009683547"><ele>484.0</ele><time>2026-04-19T13:27:32Z</time></trkpt><trkpt lat="45.13280217419053" lon="7.067157597869566"><ele>485.0</ele><time>2026-04-19T13:27:33Z</time></trkpt><trkpt lat="45.13280072880526" lon="7.066855464607802"><ele>486.0</ele><time>2026-04-19T13:27:34Z</time></trkpt><trkpt lat="45.13280170735672" lon="7.0665456584573745"><ele>486.33333333333337</ele><time>2026-04-19T13:27:35Z</time></trkpt><trkpt lat="45.13280155281808" lon="7.066241468154117"><ele>486.6666666666667</ele><time>2026-04-19T13:27:36Z</time></trkpt><trkpt lat="45.13280236799087" lon="7.065960280995159"><ele>487.0</ele><time>2026-04-19T13:27:37Z</time></trkpt><trkpt lat="45.132798973385825" lon="7.065693735330233"><ele>486.33333333333337</ele><time>2026-04-19T13:27:38Z</time></trkpt><trkpt lat="45.1327965097909" lon="7.065413872290752"><ele>485.66666666666663</ele><time>2026-04-19T13:27:39Z</time></trkpt><trkpt lat="45.13279689637856" lon="7.065123866058794"><ele>485.0</ele><time>2026-04-19T13:27:40Z</time></trkpt><trkpt lat="45.1328021852988" lon="7.064820247770413"><ele>485.0</ele><time>2026-04-19T13:27:41Z</time></trkpt><trkpt lat="45.13285218255265" lon="7.06450996682377"><ele>485.0</ele><time>2026-04-19T13:27:42Z</time></trkpt><trkpt lat="45.13292096276312" lon="7.06420140782706"><ele>485.5</ele><time>2026-04-19T13:27:43Z</time></trkpt><trkpt lat="45.13302055969151" lon="7.063899331374619"><ele>486.0</ele><time>2026-04-19T13:27:44Z</time></trkpt><trkpt lat="45.13311546243707" lon="7.0635916220958235"><ele>486.0</ele><time>2026-04-19T13:27:45Z</time></trkpt><trkpt lat="45.1332164939244" lon="7.063309899213301"><ele>486.0</ele><time>2026-04-19T13:27:46Z</time></trkpt><trkpt lat="45.1333112741241" lon="7.0630319772105965"><ele>486.0</ele><time>2026-04-19T13:27:47Z</time></trkpt><trkpt lat="45.13340734631243" lon="7.062763869279064"><ele>485.33333333333337</ele><time>2026-04-19T13:27:48Z</time></trkpt><trkpt lat="45.13350212335201" lon="7.0624982730843495"><ele>484.6666666666667</ele><time>2026-04-19T13:27:49Z</time></trkpt><trkpt lat="45.13361096710736" lon="7.062240631846773"><ele>484.0</ele><time>2026-04-19T13:27:50Z</time></trkpt><trkpt lat="45.133705875186315" lon="7.0619757153775256"><ele>484.0</ele><time>2026-04-19T13:27:51Z</time></trkpt><trkpt lat="45.13380117259122" lon="7.061709773692049"><ele>484.0</ele><time>2026-04-19T13:27:52Z</time></trkpt><trkpt lat="45.13389304864273" lon="7.061449415388856"><ele>484.0</ele><time>2026-04-19T13:27:53Z</time></trkpt><trkpt lat="45.133980921186705" lon="7.0612026449716465"><ele>484.33333333333337</ele><time>2026-04-19T13:27:54Z</time></trkpt><trkpt lat="45.13405991087201" lon="7.060984531703668"><ele>484.66666666666663</ele><time>2026-04-19T13:27:55Z</time></trkpt><trkpt lat="45.1341320178227" lon="7.060785746595273"><ele>485.0</ele><time>2026-04-19T13:27:56Z</time></trkpt><trkpt lat="45.134183525727515" lon="7.060592705558465"><ele>485.5</ele><time>2026-04-19T13:27:57Z</time></trkpt><trkpt lat="45.13424529575488" lon="7.060422659509548"><ele>486.0</ele><time>2026-04-19T13:27:58Z</time></trkpt><trkpt lat="45.13430507093758" lon="7.060265229089235"><ele>486.5</ele><time>2026-04-19T13:27:59Z</time></trkpt><trkpt lat="45.13436606713034" lon="7.060107308688794"><ele>487.0</ele><time>2026-04-19T13:28:00Z</time></trkpt><trkpt lat="45.134432693798345" lon="7.0600192464073865"><ele>487.0</ele><time>2026-04-19T13:28:01Z</time></trkpt><trkpt lat="45.13449210667118" lon="7.059962674613471"><ele>487.00000000000006</ele><time>2026-04-19T13:28:02Z</time></trkpt><trkpt lat="45.13455100253469" lon="7.059918379789691"><ele>487.00000000000006</ele><time>2026-04-19T13:28:05Z</time></trkpt><trkpt lat="45.134652522961346" lon="7.059778918876757"><ele>487.0</ele><time>2026-04-19T13:28:07Z</time></trkpt><trkpt lat="45.134664740932564" lon="7.059632017092478"><ele>487.0</ele><time>2026-04-19T13:28:08Z</time></trkpt><trkpt lat="45.13464127254671" lon="7.05948831516374"><ele>487.20000000000005</ele><time>2026-04-19T13:28:09Z</time></trkpt><trkpt lat="45.134638771853865" lon="7.059351291340292"><ele>487.40000000000003</ele><time>2026-04-19T13:28:10Z</time></trkpt><trkpt lat="45.1346970633769" lon="7.059225313121429"><ele>487.59999999999997</ele><time>2026-04-19T13:28:11Z</time></trkpt><trkpt lat="45.13472846102028" lon="7.059083349131606"><ele>487.79999999999995</ele><time>2026-04-19T13:28:12Z</time></trkpt><trkpt lat="45.134786873153296" lon="7.058932294223545"><ele>488.0</ele><time>2026-04-19T13:28:13Z</time></trkpt><trkpt lat="45.13484588954398" lon="7.0587616898996"><ele>488.25</ele><time>2026-04-19T13:28:14Z</time></trkpt><trkpt lat="45.134900879312106" lon="7.058608260870419"><ele>488.5</ele><time>2026-04-19T13:28:15Z</time></trkpt><trkpt lat="45.13495084080047" lon="7.058469526930073"><ele>488.75</ele><time>2026-04-19T13:28:16Z</time></trkpt><trkpt lat="45.13500628436341" lon="7.0583044656478275"><ele>489.0</ele><time>2026-04-19T13:28:17Z</time></trkpt><trkpt lat="45.135074463378565" lon="7.058123560531421"><ele>489.0</ele><time>2026-04-19T13:28:18Z</time></trkpt><trkpt lat="45.13515054527729" lon="7.057938218266014"><ele>489.0</ele><time>2026-04-19T13:28:19Z</time></trkpt><trkpt lat="45.13523407135372" lon="7.057744104612743"><ele>489.0</ele><time>2026-04-19T13:28:20Z</time></trkpt><trkpt lat="45.13532469682121" lon="7.057535495470987"><ele>489.33333333333337</ele><time>2026-04-19T13:28:21Z</time></trkpt><trkpt lat="45.13541991961831" lon="7.057306947580656"><ele>489.6666666666667</ele><time>2026-04-19T13:28:22Z</time></trkpt><trkpt lat="45.135525268435515" lon="7.0570387753518045"><ele>490.0</ele><time>2026-04-19T13:28:23Z</time></trkpt><trkpt lat="45.13562902867014" lon="7.056749165125476"><ele>489.5</ele><time>2026-04-19T13:28:24Z</time></trkpt><trkpt lat="45.1357315734914" lon="7.056454341464798"><ele>489.0</ele><time>2026-04-19T13:28:25Z</time></trkpt><trkpt lat="45.13584380697787" lon="7.056120955050913"><ele>493.5</ele><time>2026-04-19T13:28:26Z</time></trkpt><trkpt lat="45.13595085927907" lon="7.055776159698773"><ele>498.0</ele><time>2026-04-19T13:28:27Z</time></trkpt><trkpt lat="45.136035318239166" lon="7.055426282529478"><ele>498.0</ele><time>2026-04-19T13:28:28Z</time></trkpt><trkpt lat="45.13607968367008" lon="7.055085117371301"><ele>498.0</ele><time>2026-04-19T13:28:29Z</time></trkpt><trkpt lat="45.13609819645008" lon="7.054770727732944"><ele>497.66666666666663</ele><time>2026-04-19T13:28:30Z</time></trkpt><trkpt lat="45.136071701999164" lon="7.054483938669479"><ele>497.3333333333333</ele><time>2026-04-19T13:28:31Z</time></trkpt><trkpt lat="45.13599770697864" lon="7.05423679730076"><ele>497.0</ele><time>2026-04-19T13:28:32Z</time></trkpt><trkpt lat="45.135898170345826" lon="7.054026167041203"><ele>495.66666666666663</ele><time>2026-04-19T13:28:33Z</time></trkpt><trkpt lat="45.13581222089127" lon="7.053830946467621"><ele>494.33333333333337</ele><time>2026-04-19T13:28:34Z</time></trkpt><trkpt lat="45.13573698623414" lon="7.053641367247375"><ele>493.0</ele><time>2026-04-19T13:28:35Z</time></trkpt><trkpt lat="45.13565875771334" lon="7.053470237219254"><ele>494.0</ele><time>2026-04-19T13:28:36Z</time></trkpt><trkpt lat="45.13558110020033" lon="7.053305431106747"><ele>495.0</ele><time>2026-04-19T13:28:37Z</time></trkpt><trkpt lat="45.13550780693387" lon="7.05315286272052"><ele>496.0</ele><time>2026-04-19T13:28:38Z</time></trkpt><trkpt lat="45.13544970550167" lon="7.052985818181828"><ele>497.0</ele><time>2026-04-19T13:28:39Z</time></trkpt><trkpt lat="45.13537185543684" lon="7.052840809917257"><ele>497.0</ele><time>2026-04-19T13:28:40Z</time></trkpt><trkpt lat="45.135314077203084" lon="7.052690722497476"><ele>497.0</ele><time>2026-04-19T13:28:41Z</time></trkpt><trkpt lat="45.13525938397933" lon="7.0525443192341655"><ele>497.0</ele><time>2026-04-19T13:28:42Z</time></trkpt><trkpt lat="45.13521059996356" lon="7.052403801863802"><ele>497.0</ele><time>2026-04-19T13:28:43Z</time></trkpt><trkpt lat="45.135162100010675" lon="7.052254163184225"><ele>497.20000000000005</ele><time>2026-04-19T13:28:44Z</time></trkpt><trkpt lat="45.135109315978944" lon="7.05211438270682"><ele>497.40000000000003</ele><time>2026-04-19T13:28:45Z</time></trkpt><trkpt lat="45.1350667257773" lon="7.051981607272238"><ele>497.59999999999997</ele><time>2026-04-19T13:28:46Z</time></trkpt><trkpt lat="45.13502498361232" lon="7.051848202943356"><ele>497.79999999999995</ele><time>2026-04-19T13:28:47Z</time></trkpt><trkpt lat="45.13497499186793" lon="7.05170295855648"><ele>498.0</ele><time>2026-04-19T13:28:48Z</time></trkpt><trkpt lat="45.13492311832178" lon="7.051552208130984"><ele>498.79999999999995</ele><time>2026-04-19T13:28:49Z</time></trkpt><trkpt lat="45.134871337332" lon="7.05140344694808"><ele>499.59999999999997</ele><time>2026-04-19T13:28:50Z</time></trkpt><trkpt lat="45.13482285974784" lon="7.051263307985094"><ele>500.40000000000003</ele><time>2026-04-19T13:28:51Z</time></trkpt><trkpt lat="45.13477701440307" lon="7.051126603603709"><ele>501.20000000000005</ele><time>2026-04-19T13:28:52Z</time></trkpt><trkpt lat="45.134728027444936" lon="7.050989151946957"><ele>502.0</ele><time>2026-04-19T13:28:53Z</time></trkpt><trkpt lat="45.13468032240742" lon="7.050851064622474"><ele>502.40000000000003</ele><time>2026-04-19T13:28:54Z</time></trkpt><trkpt lat="45.13463320456172" lon="7.050713559480041"><ele>502.80000000000007</ele><time>2026-04-19T13:28:55Z</time></trkpt><trkpt lat="45.134586582297125" lon="7.050588616104772"><ele>503.2</ele><time>2026-04-19T13:28:56Z</time></trkpt><trkpt lat="45.13454586415327" lon="7.050467009578847"><ele>503.6</ele><time>2026-04-19T13:28:57Z</time></trkpt><trkpt lat="45.13450866187264" lon="7.050350763048986"><ele>504.0</ele><time>2026-04-19T13:28:58Z</time></trkpt><trkpt lat="45.134485468093786" lon="7.050222714405288"><ele>504.0</ele><time>2026-04-19T13:28:59Z</time></trkpt><trkpt lat="45.134451247164705" lon="7.050122221508918"><ele>504.0</ele><time>2026-04-19T13:29:00Z</time></trkpt><trkpt lat="45.13441213090759" lon="7.050007353794738"><ele>504.0</ele><time>2026-04-19T13:29:01Z</time></trkpt><trkpt lat="45.13437356969808" lon="7.049894115613865"><ele>504.0</ele><time>2026-04-19T13:29:02Z</time></trkpt><trkpt lat="45.13433146482166" lon="7.049770471316502"><ele>504.0</ele><time>2026-04-19T13:29:03Z</time></trkpt><trkpt lat="45.13428528183667" lon="7.049635176501333"><ele>504.6</ele><time>2026-04-19T13:29:04Z</time></trkpt><trkpt lat="45.134237667268216" lon="7.049498661526866"><ele>505.2</ele><time>2026-04-19T13:29:05Z</time></trkpt><trkpt lat="45.13419483295206" lon="7.049375851394588"><ele>505.80000000000007</ele><time>2026-04-19T13:29:06Z</time></trkpt><trkpt lat="45.134155555918326" lon="7.049263242182122"><ele>506.40000000000003</ele><time>2026-04-19T13:29:07Z</time></trkpt><trkpt lat="45.13411343875145" lon="7.049137365914756"><ele>507.0</ele><time>2026-04-19T13:29:08Z</time></trkpt><trkpt lat="45.13406968365637" lon="7.049007577217307"><ele>509.0</ele><time>2026-04-19T13:29:09Z</time></trkpt><trkpt lat="45.13402506905696" lon="7.048876369088314"><ele>511.00000000000006</ele><time>2026-04-19T13:29:10Z</time></trkpt><trkpt lat="45.13397804362239" lon="7.048738816374328"><ele>513.0</ele><time>2026-04-19T13:29:11Z</time></trkpt><trkpt lat="45.133929393521875" lon="7.048600363990453"><ele>515.0</ele><time>2026-04-19T13:29:12Z</time></trkpt><trkpt lat="45.13387766816008" lon="7.048461336031009"><ele>517.0</ele><time>2026-04-19T13:29:13Z</time></trkpt><trkpt lat="45.133810341673026" lon="7.0483336413066455"><ele>516.5</ele><time>2026-04-19T13:29:14Z</time></trkpt><trkpt lat="45.13375208100936" lon="7.048189713524507"><ele>516.0</ele><time>2026-04-19T13:29:15Z</time></trkpt><trkpt lat="45.133688792003284" lon="7.048042922446381"><ele>515.5</ele><time>2026-04-19T13:29:16Z</time></trkpt><trkpt lat="45.133622251041515" lon="7.047892139458547"><ele>515.0</ele><time>2026-04-19T13:29:17Z</time></trkpt><trkpt lat="45.133546497421925" lon="7.047727624835664"><ele>515.0</ele><time>2026-04-19T13:29:18Z</time></trkpt><trkpt lat="45.13345347567709" lon="7.047543179645413"><ele>515.0</ele><time>2026-04-19T13:29:19Z</time></trkpt><trkpt lat="45.13334318150063" lon="7.047336451405988"><ele>515.0</ele><time>2026-04-19T13:29:20Z</time></trkpt><trkpt lat="45.133227913418466" lon="7.047114820314301"><ele>517.0</ele><time>2026-04-19T13:29:21Z</time></trkpt><trkpt lat="45.1331046156559" lon="7.0468824839047715"><ele>519.0</ele><time>2026-04-19T13:29:22Z</time></trkpt><trkpt lat="45.13295423230753" lon="7.0466363960520875"><ele>521.0</ele><time>2026-04-19T13:29:23Z</time></trkpt><trkpt lat="45.1327895999651" lon="7.046427782311603"><ele>521.6666666666666</ele><time>2026-04-19T13:29:24Z</time></trkpt><trkpt lat="45.13262883448449" lon="7.046247995976022"><ele>522.3333333333334</ele><time>2026-04-19T13:29:25Z</time></trkpt><trkpt lat="45.13248673497187" lon="7.046090097135687"><ele>523.0</ele><time>2026-04-19T13:29:26Z</time></trkpt><trkpt lat="45.132367986801455" lon="7.045929380957621"><ele>525.0</ele><time>2026-04-19T13:29:27Z</time></trkpt><trkpt lat="45.132244714100295" lon="7.045787772898119"><ele>527.0</ele><time>2026-04-19T13:29:28Z</time></trkpt><trkpt lat="45.132106205929105" lon="7.045629102838479"><ele>529.0</ele><time>2026-04-19T13:29:29Z</time></trkpt><trkpt lat="45.13194278238203" lon="7.0454232895475295"><ele>529.0</ele><time>2026-04-19T13:29:30Z</time></trkpt><trkpt lat="45.13180260586918" lon="7.045206244482331"><ele>529.0</ele><time>2026-04-19T13:29:31Z</time></trkpt><trkpt lat="45.131689464916626" lon="7.045010363381327"><ele>529.0</ele><time>2026-04-19T13:29:32Z</time></trkpt><trkpt lat="45.13158491929282" lon="7.044813415652998"><ele>532.3333333333334</ele><time>2026-04-19T13:29:33Z</time></trkpt><trkpt lat="45.13148720262398" lon="7.044610058910955"><ele>535.6666666666666</ele><time>2026-04-19T13:29:34Z</time></trkpt><trkpt lat="45.13139615536827" lon="7.044417855813664"><ele>539.0</ele><time>2026-04-19T13:29:35Z</time></trkpt><trkpt lat="45.13132020420733" lon="7.044248265082702"><ele>540.25</ele><time>2026-04-19T13:29:36Z</time></trkpt><trkpt lat="45.13126207876547" lon="7.044080254958067"><ele>541.5</ele><time>2026-04-19T13:29:37Z</time></trkpt><trkpt lat="45.13122892630298" lon="7.043894717191746"><ele>542.75</ele><time>2026-04-19T13:29:38Z</time></trkpt><trkpt lat="45.131223682825194" lon="7.0436935937790475"><ele>544.0</ele><time>2026-04-19T13:29:39Z</time></trkpt><trkpt lat="45.131242845164216" lon="7.043492193568806"><ele>544.75</ele><time>2026-04-19T13:29:40Z</time></trkpt><trkpt lat="45.131246951192566" lon="7.043294243939874"><ele>545.5</ele><time>2026-04-19T13:29:41Z</time></trkpt><trkpt lat="45.13124774349027" lon="7.04310993434448"><ele>546.25</ele><time>2026-04-19T13:29:42Z</time></trkpt><trkpt lat="45.13119838688593" lon="7.042932835530893"><ele>547.0</ele><time>2026-04-19T13:29:43Z</time></trkpt><trkpt lat="45.13110273377503" lon="7.042799755959881"><ele>547.0</ele><time>2026-04-19T13:29:44Z</time></trkpt><trkpt lat="45.130979523381136" lon="7.042716173475159"><ele>547.0</ele><time>2026-04-19T13:29:45Z</time></trkpt><trkpt lat="45.13084598596353" lon="7.0426784398508895"><ele>547.0</ele><time>2026-04-19T13:29:46Z</time></trkpt><trkpt lat="45.13071789213769" lon="7.042659442247903"><ele>547.0</ele><time>2026-04-19T13:29:47Z</time></trkpt><trkpt lat="45.130600521780636" lon="7.042603049357645"><ele>548.0</ele><time>2026-04-19T13:29:48Z</time></trkpt><trkpt lat="45.1304854276777" lon="7.0425610417066915"><ele>549.0</ele><time>2026-04-19T13:29:49Z</time></trkpt><trkpt lat="45.130379353791696" lon="7.042518554883072"><ele>550.0</ele><time>2026-04-19T13:29:50Z</time></trkpt><trkpt lat="45.130296368210615" lon="7.042467341045527"><ele>551.0</ele><time>2026-04-19T13:29:51Z</time></trkpt><trkpt lat="45.130241527234666" lon="7.042395691587837"><ele>552.0</ele><time>2026-04-19T13:29:52Z</time></trkpt><trkpt lat="45.130206413935525" lon="7.042307452183889"><ele>552.8333333333334</ele><time>2026-04-19T13:29:53Z</time></trkpt><trkpt lat="45.13019952250682" lon="7.042197079895601"><ele>553.6666666666666</ele><time>2026-04-19T13:29:54Z</time></trkpt><trkpt lat="45.13021517544028" lon="7.042082865904388"><ele>554.5</ele><time>2026-04-19T13:29:55Z</time></trkpt><trkpt lat="45.13026368697466" lon="7.041979589485027"><ele>555.3333333333333</ele><time>2026-04-19T13:29:56Z</time></trkpt><trkpt lat="45.13033787307066" lon="7.041915903558413"><ele>556.1666666666666</ele><time>2026-04-19T13:29:57Z</time></trkpt><trkpt lat="45.130428759157695" lon="7.041901841582337"><ele>557.0</ele><time>2026-04-19T13:29:58Z</time></trkpt><trkpt lat="45.13052438058848" lon="7.041932479203862"><ele>557.0</ele><time>2026-04-19T13:29:59Z</time></trkpt><trkpt lat="45.13062510777373" lon="7.041969843082825"><ele>557.0</ele><time>2026-04-19T13:30:00Z</time></trkpt><trkpt lat="45.13073754310952" lon="7.042005066470557"><ele>557.0</ele><time>2026-04-19T13:30:01Z</time></trkpt><trkpt lat="45.13085525789379" lon="7.042037681691451"><ele>557.0</ele><time>2026-04-19T13:30:02Z</time></trkpt><trkpt lat="45.130966573650056" lon="7.042069510989129"><ele>557.6</ele><time>2026-04-19T13:30:03Z</time></trkpt><trkpt lat="45.1310739766778" lon="7.042107641589088"><ele>558.2</ele><time>2026-04-19T13:30:04Z</time></trkpt><trkpt lat="45.131179697966175" lon="7.042140810384904"><ele>558.8</ele><time>2026-04-19T13:30:05Z</time></trkpt><trkpt lat="45.131286878958605" lon="7.042174023485809"><ele>559.4</ele><time>2026-04-19T13:30:06Z</time></trkpt><trkpt lat="45.1313951514715" lon="7.04221108465178"><ele>560.0</ele><time>2026-04-19T13:30:07Z</time></trkpt><trkpt lat="45.13150516401527" lon="7.0422434826484235"><ele>562.75</ele><time>2026-04-19T13:30:08Z</time></trkpt><trkpt lat="45.13161618636287" lon="7.042264253808171"><ele>565.5</ele><time>2026-04-19T13:30:09Z</time></trkpt><trkpt lat="45.131731911854025" lon="7.04226607810104"><ele>568.25</ele><time>2026-04-19T13:30:10Z</time></trkpt><trkpt lat="45.13184579953831" lon="7.042251731819145"><ele>571.0</ele><time>2026-04-19T13:30:11Z</time></trkpt><trkpt lat="45.13196059493709" lon="7.042232382277359"><ele>571.0</ele><time>2026-04-19T13:30:12Z</time></trkpt><trkpt lat="45.132077365363045" lon="7.042229330221867"><ele>571.0</ele><time>2026-04-19T13:30:13Z</time></trkpt><trkpt lat="45.13219060882415" lon="7.042280867742711"><ele>571.0</ele><time>2026-04-19T13:30:14Z</time></trkpt><trkpt lat="45.13228969334129" lon="7.0423774037924405"><ele>571.0</ele><time>2026-04-19T13:30:15Z</time></trkpt><trkpt lat="45.132364649397644" lon="7.042510847116773"><ele>567.75</ele><time>2026-04-19T13:30:16Z</time></trkpt><trkpt lat="45.1324214697431" lon="7.042670756349162"><ele>564.5</ele><time>2026-04-19T13:30:17Z</time></trkpt><trkpt lat="45.132449784430214" lon="7.0428482590624215"><ele>561.25</ele><time>2026-04-19T13:30:18Z</time></trkpt><trkpt lat="45.13245947886936" lon="7.043032782139146"><ele>558.0</ele><time>2026-04-19T13:30:19Z</time></trkpt><trkpt lat="45.13247712149559" lon="7.043214049764484"><ele>556.0</ele><time>2026-04-19T13:30:20Z</time></trkpt><trkpt lat="45.13252257538788" lon="7.043393233682118"><ele>554.0</ele><time>2026-04-19T13:30:21Z</time></trkpt><trkpt lat="45.13257790554625" lon="7.043578026612023"><ele>552.0</ele><time>2026-04-19T13:30:22Z</time></trkpt><trkpt lat="45.13267245263083" lon="7.043745549913253"><ele>550.0</ele><time>2026-04-19T13:30:23Z</time></trkpt><trkpt lat="45.13285682614308" lon="7.04379811884061"><ele>550.0</ele><time>2026-04-19T13:30:24Z</time></trkpt><trkpt lat="45.13302515043072" lon="7.04380410596081"><ele>550.0</ele><time>2026-04-19T13:30:25Z</time></trkpt><trkpt lat="45.132900051513865" lon="7.043797989813818"><ele>550.0</ele><time>2026-04-19T13:30:26Z</time></trkpt><trkpt lat="45.13299198152186" lon="7.043708010865354"><ele>550.0</ele><time>2026-04-19T13:30:27Z</time></trkpt><trkpt lat="45.13305178677416" lon="7.043595030228703"><ele>550.0</ele><time>2026-04-19T13:30:28Z</time></trkpt><trkpt lat="45.13307743815239" lon="7.043456932608105"><ele>550.0</ele><time>2026-04-19T13:30:29Z</time></trkpt><trkpt lat="45.133059393389374" lon="7.043294519341097"><ele>550.0</ele><time>2026-04-19T13:30:30Z</time></trkpt><trkpt lat="45.133016793026634" lon="7.043126354049767"><ele>550.0</ele><time>2026-04-19T13:30:31Z</time></trkpt><trkpt lat="45.13295291736252" lon="7.0429250262206455"><ele>552.6666666666667</ele><time>2026-04-19T13:30:32Z</time></trkpt><trkpt lat="45.13287493732285" lon="7.04267623079696"><ele>555.3333333333334</ele><time>2026-04-19T13:30:33Z</time></trkpt><trkpt lat="45.13282067612214" lon="7.042441834655151"><ele>558.0</ele><time>2026-04-19T13:30:34Z</time></trkpt><trkpt lat="45.132781787127094" lon="7.04221524845184"><ele>561.6666666666666</ele><time>2026-04-19T13:30:35Z</time></trkpt><trkpt lat="45.13277821531043" lon="7.041999342037325"><ele>565.3333333333333</ele><time>2026-04-19T13:30:36Z</time></trkpt><trkpt lat="45.132803105638" lon="7.041768201130265"><ele>569.0</ele><time>2026-04-19T13:30:37Z</time></trkpt><trkpt lat="45.13286375266583" lon="7.041550484856924"><ele>572.0</ele><time>2026-04-19T13:30:38Z</time></trkpt><trkpt lat="45.13295796617818" lon="7.041349296493616"><ele>575.0</ele><time>2026-04-19T13:30:39Z</time></trkpt><trkpt lat="45.133082923677854" lon="7.041173127403502"><ele>578.0</ele><time>2026-04-19T13:30:40Z</time></trkpt><trkpt lat="45.13321738367152" lon="7.041011794024318"><ele>577.0</ele><time>2026-04-19T13:30:41Z</time></trkpt><trkpt lat="45.13332667993857" lon="7.04083762864356"><ele>576.0</ele><time>2026-04-19T13:30:41.999Z</time></trkpt><trkpt lat="45.13341506020157" lon="7.040637807575276"><ele>575.0</ele><time>2026-04-19T13:30:43Z</time></trkpt><trkpt lat="45.13344048132276" lon="7.040403957536058"><ele>580.0</ele><time>2026-04-19T13:30:44Z</time></trkpt><trkpt lat="45.13340546182609" lon="7.04016471168493"><ele>585.0</ele><time>2026-04-19T13:30:45Z</time></trkpt><trkpt lat="45.13331903115042" lon="7.039941148663513"><ele>590.0</ele><time>2026-04-19T13:30:46Z</time></trkpt><trkpt lat="45.133184173843" lon="7.039754690743016"><ele>596.6666666666666</ele><time>2026-04-19T13:30:47Z</time></trkpt><trkpt lat="45.13297275665493" lon="7.039643292423628"><ele>603.3333333333334</ele><time>2026-04-19T13:30:48Z</time></trkpt><trkpt lat="45.132810865300236" lon="7.039520557707732"><ele>610.0</ele><time>2026-04-19T13:30:49Z</time></trkpt><trkpt lat="45.13266036658683" lon="7.03942378789333"><ele>610.0</ele><time>2026-04-19T13:30:50Z</time></trkpt><trkpt lat="45.13249641422802" lon="7.039405905028321"><ele>610.0</ele><time>2026-04-19T13:30:51Z</time></trkpt><trkpt lat="45.13233278178345" lon="7.039485432074545"><ele>610.0</ele><time>2026-04-19T13:30:52Z</time></trkpt><trkpt lat="45.13219998332133" lon="7.039645240398282"><ele>609.3333333333334</ele><time>2026-04-19T13:30:53Z</time></trkpt><trkpt lat="45.13211544615343" lon="7.039854548882078"><ele>608.6666666666666</ele><time>2026-04-19T13:30:54Z</time></trkpt><trkpt lat="45.132056189016865" lon="7.040073235545756"><ele>608.0</ele><time>2026-04-19T13:30:55Z</time></trkpt><trkpt lat="45.13193473562809" lon="7.04022810564824"><ele>606.6666666666666</ele><time>2026-04-19T13:30:56Z</time></trkpt><trkpt lat="45.131784127759005" lon="7.040329759091375"><ele>605.3333333333334</ele><time>2026-04-19T13:30:57Z</time></trkpt><trkpt lat="45.13162181045073" lon="7.040419461282386"><ele>604.0</ele><time>2026-04-19T13:30:58Z</time></trkpt><trkpt lat="45.13146416719106" lon="7.040477121243672"><ele>600.0</ele><time>2026-04-19T13:30:59Z</time></trkpt><trkpt lat="45.13130656311218" lon="7.040461820101151"><ele>596.0</ele><time>2026-04-19T13:31:00Z</time></trkpt><trkpt lat="45.13117429335775" lon="7.040355656321497"><ele>592.0</ele><time>2026-04-19T13:31:01Z</time></trkpt><trkpt lat="45.131073076799275" lon="7.040191140792234"><ele>592.0</ele><time>2026-04-19T13:31:02Z</time></trkpt><trkpt lat="45.131010900218996" lon="7.0399695063534775"><ele>592.0</ele><time>2026-04-19T13:31:03Z</time></trkpt><trkpt lat="45.13098015024744" lon="7.039738699537992"><ele>592.0</ele><time>2026-04-19T13:31:04Z</time></trkpt><trkpt lat="45.13107031716591" lon="7.039539426912918"><ele>593.3333333333334</ele><time>2026-04-19T13:31:05Z</time></trkpt><trkpt lat="45.131184920635974" lon="7.039374510555821"><ele>594.6666666666666</ele><time>2026-04-19T13:31:06Z</time></trkpt><trkpt lat="45.131340508522776" lon="7.039223199357057"><ele>596.0</ele><time>2026-04-19T13:31:07Z</time></trkpt><trkpt lat="45.13147773276026" lon="7.039041331924921"><ele>600.6666666666666</ele><time>2026-04-19T13:31:08Z</time></trkpt><trkpt lat="45.131611191376855" lon="7.038855598368811"><ele>605.3333333333334</ele><time>2026-04-19T13:31:09Z</time></trkpt><trkpt lat="45.131704266303636" lon="7.038610658114337"><ele>610.0</ele><time>2026-04-19T13:31:10Z</time></trkpt><trkpt lat="45.131731222203015" lon="7.038302781096835"><ele>615.0</ele><time>2026-04-19T13:31:11Z</time></trkpt><trkpt lat="45.13169828743998" lon="7.037980444088945"><ele>620.0</ele><time>2026-04-19T13:31:12Z</time></trkpt><trkpt lat="45.13163150202067" lon="7.037651271308194"><ele>614.0</ele><time>2026-04-19T13:31:13Z</time></trkpt><trkpt lat="45.13157286166488" lon="7.0372986186048525"><ele>608.0</ele><time>2026-04-19T13:31:14Z</time></trkpt><trkpt lat="45.13152428027106" lon="7.036919082006965"><ele>612.5</ele><time>2026-04-19T13:31:15Z</time></trkpt><trkpt lat="45.131482170354886" lon="7.036523457067725"><ele>617.0</ele><time>2026-04-19T13:31:16Z</time></trkpt><trkpt lat="45.131434456651284" lon="7.0361184276325"><ele>623.5</ele><time>2026-04-19T13:31:17Z</time></trkpt><trkpt lat="45.13137896936017" lon="7.035712799235792"><ele>630.0</ele><time>2026-04-19T13:31:18Z</time></trkpt><trkpt lat="45.13132335130672" lon="7.035318829816336"><ele>634.5</ele><time>2026-04-19T13:31:19Z</time></trkpt><trkpt lat="45.1312657901454" lon="7.034954028047544"><ele>639.0</ele><time>2026-04-19T13:31:20Z</time></trkpt><trkpt lat="45.13118980418865" lon="7.0346086379127835"><ele>639.0</ele><time>2026-04-19T13:31:21Z</time></trkpt><trkpt lat="45.13108382774866" lon="7.034278680752793"><ele>639.0</ele><time>2026-04-19T13:31:22Z</time></trkpt><trkpt lat="45.130955668623756" lon="7.0339791966822"><ele>644.0</ele><time>2026-04-19T13:31:23Z</time></trkpt><trkpt lat="45.13081370546578" lon="7.0336987168679705"><ele>649.0</ele><time>2026-04-19T13:31:24Z</time></trkpt><trkpt lat="45.13067058633779" lon="7.033422596517025"><ele>650.5</ele><time>2026-04-19T13:31:25Z</time></trkpt><trkpt lat="45.130531124653345" lon="7.03314215315456"><ele>652.0</ele><time>2026-04-19T13:31:26Z</time></trkpt><trkpt lat="45.13040156049296" lon="7.032863208668866"><ele>652.0</ele><time>2026-04-19T13:31:27Z</time></trkpt><trkpt lat="45.13026491066354" lon="7.03258283704728"><ele>652.0</ele><time>2026-04-19T13:31:28Z</time></trkpt><trkpt lat="45.13013288260493" lon="7.032325264555521"><ele>656.3333333333334</ele><time>2026-04-19T13:31:29Z</time></trkpt><trkpt lat="45.13002026210758" lon="7.032066283667869"><ele>660.6666666666666</ele><time>2026-04-19T13:31:30Z</time></trkpt><trkpt lat="45.12990127025362" lon="7.031841052306369"><ele>665.0</ele><time>2026-04-19T13:31:31Z</time></trkpt><trkpt lat="45.12979016873164" lon="7.031642241072004"><ele>669.6666666666666</ele><time>2026-04-19T13:31:32Z</time></trkpt><trkpt lat="45.12967295051678" lon="7.0314460722936145"><ele>674.3333333333334</ele><time>2026-04-19T13:31:33Z</time></trkpt><trkpt lat="45.12953917692424" lon="7.031258866036109"><ele>679.0</ele><time>2026-04-19T13:31:34Z</time></trkpt><trkpt lat="45.12941330756752" lon="7.031074761079201"><ele>679.0</ele><time>2026-04-19T13:31:35Z</time></trkpt><trkpt lat="45.12930744376927" lon="7.030899593802795"><ele>679.0</ele><time>2026-04-19T13:31:36Z</time></trkpt><trkpt lat="45.129221497426286" lon="7.0307022931504575"><ele>679.0</ele><time>2026-04-19T13:31:37Z</time></trkpt><trkpt lat="45.12914961217017" lon="7.03046678770279"><ele>680.0</ele><time>2026-04-19T13:31:38Z</time></trkpt><trkpt lat="45.12911350343161" lon="7.0301974399270755"><ele>681.0</ele><time>2026-04-19T13:31:39Z</time></trkpt><trkpt lat="45.129125207428345" lon="7.029919920653207"><ele>682.0</ele><time>2026-04-19T13:31:40Z</time></trkpt><trkpt lat="45.12920118610889" lon="7.0296683649692735"><ele>684.3333333333334</ele><time>2026-04-19T13:31:41Z</time></trkpt><trkpt lat="45.12931339064001" lon="7.029414415807877"><ele>686.6666666666666</ele><time>2026-04-19T13:31:42Z</time></trkpt><trkpt lat="45.12942674715775" lon="7.029150046205982"><ele>689.0</ele><time>2026-04-19T13:31:43Z</time></trkpt><trkpt lat="45.12955012489879" lon="7.028887543846698"><ele>690.0</ele><time>2026-04-19T13:31:44Z</time></trkpt><trkpt lat="45.12963618903577" lon="7.028602010331515"><ele>691.0</ele><time>2026-04-19T13:31:45Z</time></trkpt><trkpt lat="45.12963618819625" lon="7.02828662672677"><ele>692.0</ele><time>2026-04-19T13:31:46Z</time></trkpt><trkpt lat="45.1296396785899" lon="7.027961011558358"><ele>693.5</ele><time>2026-04-19T13:31:47Z</time></trkpt><trkpt lat="45.12965100699119" lon="7.027631337620814"><ele>695.0</ele><time>2026-04-19T13:31:48Z</time></trkpt><trkpt lat="45.12964720412775" lon="7.027303414781226"><ele>695.0</ele><time>2026-04-19T13:31:49Z</time></trkpt><trkpt lat="45.12965670063302" lon="7.0269738127408194"><ele>695.0</ele><time>2026-04-19T13:31:50Z</time></trkpt><trkpt lat="45.12964877216962" lon="7.02665257675856"><ele>695.6666666666666</ele><time>2026-04-19T13:31:51Z</time></trkpt><trkpt lat="45.1296134504878" lon="7.026339289108833"><ele>696.3333333333334</ele><time>2026-04-19T13:31:52Z</time></trkpt><trkpt lat="45.12954910223486" lon="7.026037034163105"><ele>697.0</ele><time>2026-04-19T13:31:53Z</time></trkpt><trkpt lat="45.12945950879148" lon="7.025763279897382"><ele>697.3333333333334</ele><time>2026-04-19T13:31:54Z</time></trkpt><trkpt lat="45.129342614344786" lon="7.025511970184691"><ele>697.6666666666666</ele><time>2026-04-19T13:31:55Z</time></trkpt><trkpt lat="45.129216620383644" lon="7.025251902134072"><ele>698.0</ele><time>2026-04-19T13:31:56Z</time></trkpt><trkpt lat="45.12904927000169" lon="7.025036866615756"><ele>704.0</ele><time>2026-04-19T13:31:57Z</time></trkpt><trkpt lat="45.12888479986873" lon="7.024834534451835"><ele>710.0</ele><time>2026-04-19T13:31:58Z</time></trkpt><trkpt lat="45.12867124653992" lon="7.024656436099596"><ele>710.0</ele><time>2026-04-19T13:31:59Z</time></trkpt><trkpt lat="45.12842610329031" lon="7.024448954632232"><ele>710.0</ele><time>2026-04-19T13:32:00Z</time></trkpt><trkpt lat="45.1281625445876" lon="7.024222679193788"><ele>715.5</ele><time>2026-04-19T13:32:01Z</time></trkpt><trkpt lat="45.127894952880325" lon="7.023992941409038"><ele>721.0</ele><time>2026-04-19T13:32:02Z</time></trkpt><trkpt lat="45.127637106330546" lon="7.02377190686838"><ele>726.5</ele><time>2026-04-19T13:32:03Z</time></trkpt><trkpt lat="45.127391359043564" lon="7.0235604305990975"><ele>732.0</ele><time>2026-04-19T13:32:04Z</time></trkpt><trkpt lat="45.12715025644366" lon="7.023352951229246"><ele>729.0</ele><time>2026-04-19T13:32:05Z</time></trkpt><trkpt lat="45.12690064589276" lon="7.023138150343875"><ele>726.0</ele><time>2026-04-19T13:32:06Z</time></trkpt><trkpt lat="45.12664531766716" lon="7.022918013014781"><ele>740.0</ele><time>2026-04-19T13:32:07Z</time></trkpt><trkpt lat="45.12639814085531" lon="7.022704419857623"><ele>754.0</ele><time>2026-04-19T13:32:08Z</time></trkpt><trkpt lat="45.12617612678681" lon="7.022511731309173"><ele>748.0</ele><time>2026-04-19T13:32:09Z</time></trkpt><trkpt lat="45.125982442599266" lon="7.022326112674226"><ele>742.0</ele><time>2026-04-19T13:32:10Z</time></trkpt><trkpt lat="45.12583027408081" lon="7.022109183494696"><ele>757.3333333333334</ele><time>2026-04-19T13:32:11Z</time></trkpt><trkpt lat="45.1257207970531" lon="7.0218519351573425"><ele>772.6666666666667</ele><time>2026-04-19T13:32:12Z</time></trkpt><trkpt lat="45.125646129967215" lon="7.021565462223884"><ele>788.0</ele><time>2026-04-19T13:32:13Z</time></trkpt><trkpt lat="45.12561903033065" lon="7.021265512813552"><ele>788.0</ele><time>2026-04-19T13:32:14Z</time></trkpt><trkpt lat="45.12563785911151" lon="7.020958917355423"><ele>788.0</ele><time>2026-04-19T13:32:15Z</time></trkpt><trkpt lat="45.12571940986245" lon="7.020679431747099"><ele>788.0</ele><time>2026-04-19T13:32:15.999Z</time></trkpt><trkpt lat="45.1258562928258" lon="7.02041266142083"><ele>772.0</ele><time>2026-04-19T13:32:16.999Z</time></trkpt><trkpt lat="45.12600023353164" lon="7.020137893208028"><ele>756.0</ele><time>2026-04-19T13:32:17.999Z</time></trkpt><trkpt lat="45.12611420918768" lon="7.019879745853072"><ele>756.0</ele><time>2026-04-19T13:32:18.999Z</time></trkpt><trkpt lat="45.12619596924143" lon="7.019652814116751"><ele>756.0</ele><time>2026-04-19T13:32:19.999Z</time></trkpt><trkpt lat="45.12625031915199" lon="7.019452744038571"><ele>756.0</ele><time>2026-04-19T13:32:20.999Z</time></trkpt><trkpt lat="45.12629988620293" lon="7.019289649870523"><ele>758.0</ele><time>2026-04-19T13:32:21.999Z</time></trkpt><trkpt lat="45.12634867559217" lon="7.0191389022933"><ele>760.0</ele><time>2026-04-19T13:32:22.999Z</time></trkpt><trkpt lat="45.126391078469176" lon="7.018986628358202"><ele>762.0</ele><time>2026-04-19T13:32:23.999Z</time></trkpt><trkpt lat="45.126434784951684" lon="7.018823886547764"><ele>764.0</ele><time>2026-04-19T13:32:24.999Z</time></trkpt><trkpt lat="45.126476940049024" lon="7.018664092681768"><ele>764.0</ele><time>2026-04-19T13:32:25.999Z</time></trkpt><trkpt lat="45.12650939445953" lon="7.01850743701119"><ele>764.0</ele><time>2026-04-19T13:32:26.999Z</time></trkpt><trkpt lat="45.12653401225525" lon="7.01835503987553"><ele>764.0</ele><time>2026-04-19T13:32:27.999Z</time></trkpt><trkpt lat="45.126551013885916" lon="7.018226806417369"><ele>764.0</ele><time>2026-04-19T13:32:28.999Z</time></trkpt><trkpt lat="45.12656492963248" lon="7.0180909593183465"><ele>764.0</ele><time>2026-04-19T13:32:29.999Z</time></trkpt><trkpt lat="45.126570205862876" lon="7.017932747634217"><ele>763.0</ele><time>2026-04-19T13:32:30.999Z</time></trkpt><trkpt lat="45.1265876466107" lon="7.017742542961995"><ele>762.0</ele><time>2026-04-19T13:32:31.999Z</time></trkpt><trkpt lat="45.12659520822921" lon="7.017548651645414"><ele>761.0</ele><time>2026-04-19T13:32:32.999Z</time></trkpt><trkpt lat="45.12662326563028" lon="7.017362855892951"><ele>760.0</ele><time>2026-04-19T13:32:33.999Z</time></trkpt><trkpt lat="45.126678766638065" lon="7.017133699577708"><ele>760.0</ele><time>2026-04-19T13:32:34.999Z</time></trkpt><trkpt lat="45.12677452366981" lon="7.016882532824819"><ele>760.0</ele><time>2026-04-19T13:32:35.999Z</time></trkpt><trkpt lat="45.12686117114263" lon="7.016622165557869"><ele>760.0</ele><time>2026-04-19T13:32:36.999Z</time></trkpt><trkpt lat="45.12692215282863" lon="7.016304199833645"><ele>760.0</ele><time>2026-04-19T13:32:37.999Z</time></trkpt><trkpt lat="45.12696626695654" lon="7.015965889824268"><ele>760.0</ele><time>2026-04-19T13:32:38.999Z</time></trkpt><trkpt lat="45.12701937313257" lon="7.015677530943215"><ele>759.6666666666667</ele><time>2026-04-19T13:32:39.999Z</time></trkpt><trkpt lat="45.127085786436524" lon="7.015406540396694"><ele>759.3333333333334</ele><time>2026-04-19T13:32:40.999Z</time></trkpt><trkpt lat="45.1271565817875" lon="7.015143990211406"><ele>759.0</ele><time>2026-04-19T13:32:41.999Z</time></trkpt><trkpt lat="45.127237508285624" lon="7.01486939335914"><ele>758.6666666666666</ele><time>2026-04-19T13:32:42.999Z</time></trkpt><trkpt lat="45.1273054169554" lon="7.014592454449759"><ele>758.3333333333333</ele><time>2026-04-19T13:32:43.999Z</time></trkpt><trkpt lat="45.12734307947082" lon="7.014286277562138"><ele>758.0</ele><time>2026-04-19T13:32:44.999Z</time></trkpt><trkpt lat="45.127349261519484" lon="7.01397528871096"><ele>758.0</ele><time>2026-04-19T13:32:45.999Z</time></trkpt><trkpt lat="45.127322230962626" lon="7.0136516878601505"><ele>758.0</ele><time>2026-04-19T13:32:46.999Z</time></trkpt><trkpt lat="45.12727894599227" lon="7.013323059908132"><ele>756.3333333333333</ele><time>2026-04-19T13:32:48Z</time></trkpt><trkpt lat="45.12725034819605" lon="7.013043353089404"><ele>754.6666666666666</ele><time>2026-04-19T13:32:49Z</time></trkpt><trkpt lat="45.12722382299531" lon="7.012727893000027"><ele>753.0</ele><time>2026-04-19T13:32:50Z</time></trkpt><trkpt lat="45.127185911443" lon="7.0124120262379455"><ele>751.6666666666666</ele><time>2026-04-19T13:32:51Z</time></trkpt><trkpt lat="45.12716942434726" lon="7.0121236691547715"><ele>750.3333333333333</ele><time>2026-04-19T13:32:52Z</time></trkpt><trkpt lat="45.127122637215535" lon="7.011855604246525"><ele>749.0</ele><time>2026-04-19T13:32:53Z</time></trkpt><trkpt lat="45.127094090925375" lon="7.011591403602701"><ele>748.3333333333333</ele><time>2026-04-19T13:32:54Z</time></trkpt><trkpt lat="45.127059281948355" lon="7.011327067115169"><ele>747.6666666666666</ele><time>2026-04-19T13:32:55Z</time></trkpt><trkpt lat="45.12702165232854" lon="7.011048358153643"><ele>747.0</ele><time>2026-04-19T13:32:56Z</time></trkpt><trkpt lat="45.12697609978844" lon="7.010768375637058"><ele>746.6666666666666</ele><time>2026-04-19T13:32:57Z</time></trkpt><trkpt lat="45.126948116679706" lon="7.010473995770991"><ele>746.3333333333333</ele><time>2026-04-19T13:32:58Z</time></trkpt><trkpt lat="45.126902599078406" lon="7.010174388961233"><ele>746.0</ele><time>2026-04-19T13:32:59Z</time></trkpt><trkpt lat="45.126854765535676" lon="7.009859539870712"><ele>744.5</ele><time>2026-04-19T13:33:00Z</time></trkpt><trkpt lat="45.12680562014465" lon="7.009538057764742"><ele>743.0</ele><time>2026-04-19T13:33:01Z</time></trkpt><trkpt lat="45.12675542372982" lon="7.009212820117533"><ele>739.5</ele><time>2026-04-19T13:33:02Z</time></trkpt><trkpt lat="45.12670636140565" lon="7.008887030863685"><ele>736.0</ele><time>2026-04-19T13:33:03Z</time></trkpt><trkpt lat="45.126656374442724" lon="7.0085615212597"><ele>736.0</ele><time>2026-04-19T13:33:04Z</time></trkpt><trkpt lat="45.12660759997657" lon="7.008230846896726"><ele>736.0</ele><time>2026-04-19T13:33:05Z</time></trkpt><trkpt lat="45.12656095418498" lon="7.007914745702801"><ele>740.0</ele><time>2026-04-19T13:33:06Z</time></trkpt><trkpt lat="45.1265120865067" lon="7.00759040604692"><ele>744.0</ele><time>2026-04-19T13:33:07Z</time></trkpt><trkpt lat="45.12646387406976" lon="7.007269863305613"><ele>744.5</ele><time>2026-04-19T13:33:08Z</time></trkpt><trkpt lat="45.12641515781469" lon="7.00694210737204"><ele>745.0</ele><time>2026-04-19T13:33:09Z</time></trkpt><trkpt lat="45.12634325646433" lon="7.006612697797954"><ele>745.5</ele><time>2026-04-19T13:33:10Z</time></trkpt><trkpt lat="45.12629206563271" lon="7.006267734013948"><ele>746.0</ele><time>2026-04-19T13:33:11Z</time></trkpt><trkpt lat="45.12620869597398" lon="7.005921226363385"><ele>744.5</ele><time>2026-04-19T13:33:12Z</time></trkpt><trkpt lat="45.126101398401545" lon="7.005577008400163"><ele>743.0</ele><time>2026-04-19T13:33:13Z</time></trkpt><trkpt lat="45.12599767595125" lon="7.005229793075638"><ele>741.0</ele><time>2026-04-19T13:33:14Z</time></trkpt><trkpt lat="45.12587379332343" lon="7.004885272241882"><ele>739.0</ele><time>2026-04-19T13:33:15Z</time></trkpt><trkpt lat="45.12575180495263" lon="7.004534823667114"><ele>741.5</ele><time>2026-04-19T13:33:16Z</time></trkpt><trkpt lat="45.1256168506324" lon="7.004188803530699"><ele>744.0</ele><time>2026-04-19T13:33:17Z</time></trkpt><trkpt lat="45.12548078208601" lon="7.003849195230012"><ele>744.0</ele><time>2026-04-19T13:33:18Z</time></trkpt><trkpt lat="45.1253249144272" lon="7.003527122984184"><ele>744.0</ele><time>2026-04-19T13:33:19Z</time></trkpt><trkpt lat="45.1251726634754" lon="7.003213540957629"><ele>743.0</ele><time>2026-04-19T13:33:20Z</time></trkpt><trkpt lat="45.1250220078396" lon="7.002897597170221"><ele>742.0</ele><time>2026-04-19T13:33:21Z</time></trkpt><trkpt lat="45.1248693781738" lon="7.002611883809293"><ele>744.5</ele><time>2026-04-19T13:33:22Z</time></trkpt><trkpt lat="45.12473639835662" lon="7.0023332415303905"><ele>747.0</ele><time>2026-04-19T13:33:23Z</time></trkpt><trkpt lat="45.1246484263815" lon="7.002051195205892"><ele>747.0</ele><time>2026-04-19T13:33:24Z</time></trkpt><trkpt lat="45.124580642007864" lon="7.001756138754253"><ele>747.0</ele><time>2026-04-19T13:33:25Z</time></trkpt><trkpt lat="45.1245895494842" lon="7.001427196579674"><ele>746.0</ele><time>2026-04-19T13:33:26Z</time></trkpt><trkpt lat="45.12460518665673" lon="7.001079004945904"><ele>745.0</ele><time>2026-04-19T13:33:27Z</time></trkpt><trkpt lat="45.124651775109484" lon="7.000726098067735"><ele>745.0</ele><time>2026-04-19T13:33:28Z</time></trkpt><trkpt lat="45.124685818650065" lon="7.000373462524354"><ele>745.0</ele><time>2026-04-19T13:33:29Z</time></trkpt><trkpt lat="45.12471668555448" lon="7.00004738408376"><ele>745.0</ele><time>2026-04-19T13:33:30Z</time></trkpt><trkpt lat="45.12474284154346" lon="6.99974086369552"><ele>745.0</ele><time>2026-04-19T13:33:31Z</time></trkpt><trkpt lat="45.124759703711774" lon="6.999427292772622"><ele>745.0</ele><time>2026-04-19T13:33:32Z</time></trkpt><trkpt lat="45.124737043006114" lon="6.999112685894205"><ele>744.0</ele><time>2026-04-19T13:33:33Z</time></trkpt><trkpt lat="45.1247220290024" lon="6.998809116667616"><ele>743.0</ele><time>2026-04-19T13:33:34Z</time></trkpt><trkpt lat="45.124660719602026" lon="6.998516295357324"><ele>742.0</ele><time>2026-04-19T13:33:35Z</time></trkpt><trkpt lat="45.12458036370535" lon="6.998244092720889"><ele>742.0</ele><time>2026-04-19T13:33:36Z</time></trkpt><trkpt lat="45.12448854620204" lon="6.998000579868485"><ele>742.0</ele><time>2026-04-19T13:33:37Z</time></trkpt><trkpt lat="45.124374764433675" lon="6.997772818400904"><ele>742.0</ele><time>2026-04-19T13:33:38Z</time></trkpt><trkpt lat="45.12422331068844" lon="6.997535084049228"><ele>745.5</ele><time>2026-04-19T13:33:39Z</time></trkpt><trkpt lat="45.12404634354862" lon="6.99728038914732"><ele>749.0</ele><time>2026-04-19T13:33:40Z</time></trkpt><trkpt lat="45.12387071191979" lon="6.997000468479047"><ele>749.0</ele><time>2026-04-19T13:33:41Z</time></trkpt><trkpt lat="45.123712141558016" lon="6.996706330151653"><ele>749.0</ele><time>2026-04-19T13:33:42Z</time></trkpt><trkpt lat="45.12358882557269" lon="6.996434835124511"><ele>747.3333333333333</ele><time>2026-04-19T13:33:43Z</time></trkpt><trkpt lat="45.123494413642895" lon="6.996150117364259"><ele>745.6666666666666</ele><time>2026-04-19T13:33:44Z</time></trkpt><trkpt lat="45.12341409475733" lon="6.995869295299113"><ele>744.0</ele><time>2026-04-19T13:33:45Z</time></trkpt><trkpt lat="45.12334959662584" lon="6.995582080009459"><ele>745.6666666666666</ele><time>2026-04-19T13:33:46Z</time></trkpt><trkpt lat="45.123231503345075" lon="6.995426980731568"><ele>747.3333333333333</ele><time>2026-04-19T13:33:47Z</time></trkpt><trkpt lat="45.123169546154756" lon="6.9951972193244645"><ele>749.0</ele><time>2026-04-19T13:33:48Z</time></trkpt><trkpt lat="45.123110330328664" lon="6.994973045141662"><ele>749.0</ele><time>2026-04-19T13:33:49Z</time></trkpt><trkpt lat="45.12305276693383" lon="6.994755126384303"><ele>749.0</ele><time>2026-04-19T13:33:50Z</time></trkpt><trkpt lat="45.12299800250037" lon="6.994548663955632"><ele>749.0</ele><time>2026-04-19T13:33:51Z</time></trkpt><trkpt lat="45.122942211109375" lon="6.994339292871176"><ele>747.0</ele><time>2026-04-19T13:33:52Z</time></trkpt><trkpt lat="45.1228828702769" lon="6.994116601620917"><ele>745.0</ele><time>2026-04-19T13:33:53Z</time></trkpt><trkpt lat="45.12280610100362" lon="6.993886501648549"><ele>743.0</ele><time>2026-04-19T13:33:54Z</time></trkpt><trkpt lat="45.122729099817896" lon="6.993601571687449"><ele>742.0</ele><time>2026-04-19T13:33:55Z</time></trkpt><trkpt lat="45.122652179229554" lon="6.99324804897397"><ele>741.0</ele><time>2026-04-19T13:33:56Z</time></trkpt><trkpt lat="45.12255171629388" lon="6.992868937578054"><ele>739.0</ele><time>2026-04-19T13:33:57Z</time></trkpt><trkpt lat="45.122444683087885" lon="6.992497812434593"><ele>737.0</ele><time>2026-04-19T13:33:58Z</time></trkpt><trkpt lat="45.122352429657056" lon="6.992176826609956"><ele>742.0</ele><time>2026-04-19T13:33:59Z</time></trkpt><trkpt lat="45.122277549009866" lon="6.991883254378547"><ele>747.0</ele><time>2026-04-19T13:34:00Z</time></trkpt><trkpt lat="45.12220328552921" lon="6.9916024757707325"><ele>752.0</ele><time>2026-04-19T13:34:01Z</time></trkpt><trkpt lat="45.12212055147299" lon="6.9913215568548726"><ele>752.0</ele><time>2026-04-19T13:34:02Z</time></trkpt><trkpt lat="45.122069606111836" lon="6.991056558823737"><ele>752.0</ele><time>2026-04-19T13:34:03Z</time></trkpt><trkpt lat="45.12202084034141" lon="6.990802794483855"><ele>752.0</ele><time>2026-04-19T13:34:04Z</time></trkpt><trkpt lat="45.12198361385406" lon="6.990536020731191"><ele>751.0</ele><time>2026-04-19T13:34:05Z</time></trkpt><trkpt lat="45.121944571361766" lon="6.990271918555416"><ele>750.0</ele><time>2026-04-19T13:34:06Z</time></trkpt><trkpt lat="45.121877366558756" lon="6.990006084358271"><ele>749.0</ele><time>2026-04-19T13:34:07Z</time></trkpt><trkpt lat="45.12180983121063" lon="6.989744453802758"><ele>748.6666666666666</ele><time>2026-04-19T13:34:08Z</time></trkpt><trkpt lat="45.12171219361427" lon="6.989490699855674"><ele>748.3333333333334</ele><time>2026-04-19T13:34:09Z</time></trkpt><trkpt lat="45.121616590593874" lon="6.98923363165146"><ele>748.0</ele><time>2026-04-19T13:34:10Z</time></trkpt><trkpt lat="45.12152654544166" lon="6.9889857611581805"><ele>750.6666666666667</ele><time>2026-04-19T13:34:11Z</time></trkpt><trkpt lat="45.12143853655318" lon="6.98874133972237"><ele>753.3333333333334</ele><time>2026-04-19T13:34:12Z</time></trkpt><trkpt lat="45.12135463437313" lon="6.988501134998969"><ele>756.0</ele><time>2026-04-19T13:34:13Z</time></trkpt><trkpt lat="45.12126866257063" lon="6.9882739592496375"><ele>756.0</ele><time>2026-04-19T13:34:14Z</time></trkpt><trkpt lat="45.12119513954037" lon="6.988067665024145"><ele>756.0</ele><time>2026-04-19T13:34:15Z</time></trkpt><trkpt lat="45.12112268271162" lon="6.987868745191327"><ele>756.0</ele><time>2026-04-19T13:34:16Z</time></trkpt><trkpt lat="45.12104339882455" lon="6.987660707525637"><ele>755.3333333333334</ele><time>2026-04-19T13:34:17Z</time></trkpt><trkpt lat="45.12096231502237" lon="6.987441595580144"><ele>754.6666666666667</ele><time>2026-04-19T13:34:18Z</time></trkpt><trkpt lat="45.120885297184586" lon="6.98722676474437"><ele>754.0</ele><time>2026-04-19T13:34:19Z</time></trkpt><trkpt lat="45.12081163379075" lon="6.987019950809225"><ele>754.0</ele><time>2026-04-19T13:34:20Z</time></trkpt><trkpt lat="45.12074022256292" lon="6.98683279500703"><ele>754.0</ele><time>2026-04-19T13:34:21Z</time></trkpt><trkpt lat="45.12065424546635" lon="6.98668270853029"><ele>754.0</ele><time>2026-04-19T13:34:22Z</time></trkpt><trkpt lat="45.120543549700784" lon="6.986541046147794"><ele>754.0</ele><time>2026-04-19T13:34:23Z</time></trkpt><trkpt lat="45.120412899933704" lon="6.986414058918284"><ele>755.6666666666667</ele><time>2026-04-19T13:34:24Z</time></trkpt><trkpt lat="45.12026788013263" lon="6.986338163254742"><ele>757.3333333333334</ele><time>2026-04-19T13:34:25Z</time></trkpt><trkpt lat="45.120106277477774" lon="6.9862944810621626"><ele>759.0</ele><time>2026-04-19T13:34:26Z</time></trkpt><trkpt lat="45.11994114021353" lon="6.986256394953837"><ele>761.0</ele><time>2026-04-19T13:34:27Z</time></trkpt><trkpt lat="45.1197761754725" lon="6.986203943806448"><ele>763.0</ele><time>2026-04-19T13:34:28Z</time></trkpt><trkpt lat="45.11962868363444" lon="6.986086464050452"><ele>765.0</ele><time>2026-04-19T13:34:29Z</time></trkpt><trkpt lat="45.11948522829839" lon="6.985963477215986"><ele>766.3333333333333</ele><time>2026-04-19T13:34:30Z</time></trkpt><trkpt lat="45.11933651180283" lon="6.985815985685498"><ele>767.6666666666666</ele><time>2026-04-19T13:34:31Z</time></trkpt><trkpt lat="45.119191419417476" lon="6.98565309850817"><ele>769.0</ele><time>2026-04-19T13:34:32Z</time></trkpt><trkpt lat="45.11905221514915" lon="6.985462999065145"><ele>769.0</ele><time>2026-04-19T13:34:33Z</time></trkpt><trkpt lat="45.11891876880411" lon="6.985255130676471"><ele>769.0</ele><time>2026-04-19T13:34:34Z</time></trkpt><trkpt lat="45.11878457332882" lon="6.985041014596639"><ele>769.0</ele><time>2026-04-19T13:34:35Z</time></trkpt><trkpt lat="45.11864983762422" lon="6.984826021530013"><ele>767.3333333333333</ele><time>2026-04-19T13:34:36Z</time></trkpt><trkpt lat="45.11851096207178" lon="6.984604412427532"><ele>765.6666666666666</ele><time>2026-04-19T13:34:37Z</time></trkpt><trkpt lat="45.118354744510285" lon="6.984403648689474"><ele>764.0</ele><time>2026-04-19T13:34:38Z</time></trkpt><trkpt lat="45.1182141329558" lon="6.984181648272522"><ele>765.6666666666666</ele><time>2026-04-19T13:34:39Z</time></trkpt><trkpt lat="45.11807639772988" lon="6.983966747962841"><ele>767.3333333333333</ele><time>2026-04-19T13:34:40Z</time></trkpt><trkpt lat="45.117939017817356" lon="6.983758664408203"><ele>769.0</ele><time>2026-04-19T13:34:40.999Z</time></trkpt><trkpt lat="45.1178012575703" lon="6.983535606650086"><ele>767.3333333333333</ele><time>2026-04-19T13:34:41.999Z</time></trkpt><trkpt lat="45.11766269853447" lon="6.983309399982354"><ele>765.6666666666666</ele><time>2026-04-19T13:34:42.999Z</time></trkpt><trkpt lat="45.11755657837604" lon="6.983071318724274"><ele>764.0</ele><time>2026-04-19T13:34:43.999Z</time></trkpt><trkpt lat="45.117452946804605" lon="6.982853662119815"><ele>770.3333333333333</ele><time>2026-04-19T13:34:44.999Z</time></trkpt><trkpt lat="45.1173679546409" lon="6.982618845703583"><ele>776.6666666666666</ele><time>2026-04-19T13:34:45.999Z</time></trkpt><trkpt lat="45.117302950549224" lon="6.982356594734348"><ele>783.0</ele><time>2026-04-19T13:34:46.999Z</time></trkpt><trkpt lat="45.11725432298121" lon="6.982081468651918"><ele>783.0</ele><time>2026-04-19T13:34:47.999Z</time></trkpt><trkpt lat="45.117232620961595" lon="6.981805596673511"><ele>783.0</ele><time>2026-04-19T13:34:48.999Z</time></trkpt><trkpt lat="45.117219478331975" lon="6.981517601586667"><ele>783.0</ele><time>2026-04-19T13:34:49.999Z</time></trkpt><trkpt lat="45.11720976220939" lon="6.981252130373403"><ele>780.0</ele><time>2026-04-19T13:34:50.999Z</time></trkpt><trkpt lat="45.11720088741414" lon="6.980994549753911"><ele>777.0</ele><time>2026-04-19T13:34:51.999Z</time></trkpt><trkpt lat="45.117192432732615" lon="6.9807360214869325"><ele>774.0</ele><time>2026-04-19T13:34:53Z</time></trkpt><trkpt lat="45.117183842543824" lon="6.980473348991376"><ele>772.3333333333333</ele><time>2026-04-19T13:34:54Z</time></trkpt><trkpt lat="45.117175293085765" lon="6.9802097129982394"><ele>770.6666666666666</ele><time>2026-04-19T13:34:55Z</time></trkpt><trkpt lat="45.11716668787658" lon="6.979939628792485"><ele>769.0</ele><time>2026-04-19T13:34:56Z</time></trkpt><trkpt lat="45.11715827654802" lon="6.9796756297622595"><ele>767.3333333333333</ele><time>2026-04-19T13:34:57Z</time></trkpt><trkpt lat="45.117149915827945" lon="6.9794132190744405"><ele>765.6666666666666</ele><time>2026-04-19T13:34:58Z</time></trkpt><trkpt lat="45.11714273574236" lon="6.979148958013982"><ele>764.0</ele><time>2026-04-19T13:34:59Z</time></trkpt><trkpt lat="45.11713596231745" lon="6.978883611854503"><ele>764.0</ele><time>2026-04-19T13:35:00Z</time></trkpt><trkpt lat="45.117129164822536" lon="6.9786173227774215"><ele>764.0</ele><time>2026-04-19T13:35:01Z</time></trkpt><trkpt lat="45.117122402868205" lon="6.978352425973491"><ele>764.0</ele><time>2026-04-19T13:35:02Z</time></trkpt><trkpt lat="45.11710203876698" lon="6.978090517361206"><ele>765.0</ele><time>2026-04-19T13:35:03Z</time></trkpt><trkpt lat="45.117092047277566" lon="6.977825458762511"><ele>766.0</ele><time>2026-04-19T13:35:04Z</time></trkpt><trkpt lat="45.11707175578904" lon="6.977561297585976"><ele>767.0</ele><time>2026-04-19T13:35:05Z</time></trkpt><trkpt lat="45.11702877686735" lon="6.977297763492914"><ele>767.3333333333333</ele><time>2026-04-19T13:35:06Z</time></trkpt><trkpt lat="45.11695923060477" lon="6.977037575425269"><ele>767.6666666666666</ele><time>2026-04-19T13:35:07Z</time></trkpt><trkpt lat="45.11686657479471" lon="6.976793590539217"><ele>768.0</ele><time>2026-04-19T13:35:08Z</time></trkpt><trkpt lat="45.11675733708008" lon="6.976568852458233"><ele>769.0</ele><time>2026-04-19T13:35:09Z</time></trkpt><trkpt lat="45.11663742886432" lon="6.9763677252038665"><ele>770.0</ele><time>2026-04-19T13:35:10Z</time></trkpt><trkpt lat="45.116516325545504" lon="6.976180453052004"><ele>771.0</ele><time>2026-04-19T13:35:11Z</time></trkpt><trkpt lat="45.11639194537705" lon="6.9760051239740255"><ele>774.0</ele><time>2026-04-19T13:35:12Z</time></trkpt><trkpt lat="45.11627900061855" lon="6.97580463630276"><ele>777.0</ele><time>2026-04-19T13:35:13Z</time></trkpt><trkpt lat="45.11615166434811" lon="6.975609356845586"><ele>780.0</ele><time>2026-04-19T13:35:14Z</time></trkpt><trkpt lat="45.11602548524994" lon="6.975415195546116"><ele>780.0</ele><time>2026-04-19T13:35:15Z</time></trkpt><trkpt lat="45.11589804880589" lon="6.975219101089714"><ele>780.0</ele><time>2026-04-19T13:35:16Z</time></trkpt><trkpt lat="45.11577231734908" lon="6.975024911009455"><ele>780.0</ele><time>2026-04-19T13:35:17Z</time></trkpt><trkpt lat="45.11563545044709" lon="6.974843458355158"><ele>781.6666666666667</ele><time>2026-04-19T13:35:18Z</time></trkpt><trkpt lat="45.11550643711707" lon="6.974641341400026"><ele>783.3333333333334</ele><time>2026-04-19T13:35:19Z</time></trkpt><trkpt lat="45.11537407206224" lon="6.974437867854802"><ele>785.0</ele><time>2026-04-19T13:35:20Z</time></trkpt><trkpt lat="45.11523830534991" lon="6.974229175208842"><ele>788.0</ele><time>2026-04-19T13:35:21Z</time></trkpt><trkpt lat="45.11509811946871" lon="6.974012920957043"><ele>791.0</ele><time>2026-04-19T13:35:22Z</time></trkpt><trkpt lat="45.11495563379466" lon="6.973786555766411"><ele>794.0</ele><time>2026-04-19T13:35:23Z</time></trkpt><trkpt lat="45.11480638775737" lon="6.9735553880038506"><ele>790.5</ele><time>2026-04-19T13:35:24Z</time></trkpt><trkpt lat="45.114650429287835" lon="6.973323522006365"><ele>787.0</ele><time>2026-04-19T13:35:25Z</time></trkpt><trkpt lat="45.114490291569034" lon="6.9730817090737744"><ele>787.0</ele><time>2026-04-19T13:35:26Z</time></trkpt><trkpt lat="45.11432916276858" lon="6.972837087463456"><ele>787.0</ele><time>2026-04-19T13:35:27Z</time></trkpt><trkpt lat="45.11416765492008" lon="6.9725908272822705"><ele>794.0</ele><time>2026-04-19T13:35:28Z</time></trkpt><trkpt lat="45.11400745898141" lon="6.972328766669957"><ele>801.0</ele><time>2026-04-19T13:35:29Z</time></trkpt><trkpt lat="45.113884000781695" lon="6.972025181354175"><ele>801.0</ele><time>2026-04-19T13:35:30Z</time></trkpt><trkpt lat="45.11377862355965" lon="6.971708184764118"><ele>801.0</ele><time>2026-04-19T13:35:31Z</time></trkpt><trkpt lat="45.113672161606694" lon="6.971378193941548"><ele>796.0</ele><time>2026-04-19T13:35:32Z</time></trkpt><trkpt lat="45.11353988093263" lon="6.97106354854987"><ele>791.0</ele><time>2026-04-19T13:35:33Z</time></trkpt><trkpt lat="45.113398020348555" lon="6.970757920146335"><ele>784.5</ele><time>2026-04-19T13:35:34Z</time></trkpt><trkpt lat="45.113251136950886" lon="6.970489713741997"><ele>778.0</ele><time>2026-04-19T13:35:35Z</time></trkpt><trkpt lat="45.1130762470559" lon="6.970271056215543"><ele>780.0</ele><time>2026-04-19T13:35:36Z</time></trkpt><trkpt lat="45.112850557649054" lon="6.970099055243084"><ele>782.0</ele><time>2026-04-19T13:35:37Z</time></trkpt><trkpt lat="45.112607534916016" lon="6.9699518273851035"><ele>794.3333333333334</ele><time>2026-04-19T13:35:38Z</time></trkpt><trkpt lat="45.112406083645865" lon="6.96978822498944"><ele>806.6666666666667</ele><time>2026-04-19T13:35:39Z</time></trkpt><trkpt lat="45.11222896836482" lon="6.969657022432914"><ele>819.0</ele><time>2026-04-19T13:35:40Z</time></trkpt><trkpt lat="45.112085614575186" lon="6.969524392771553"><ele>819.0</ele><time>2026-04-19T13:35:41Z</time></trkpt><trkpt lat="45.112007031169696" lon="6.9693302390280385"><ele>819.0</ele><time>2026-04-19T13:35:42Z</time></trkpt><trkpt lat="45.11192995553749" lon="6.9690771123194954"><ele>819.0</ele><time>2026-04-19T13:35:43Z</time></trkpt><trkpt lat="45.11191009458385" lon="6.968793052358433"><ele>809.5</ele><time>2026-04-19T13:35:44Z</time></trkpt><trkpt lat="45.11192041017164" lon="6.968469232705934"><ele>800.0</ele><time>2026-04-19T13:35:45Z</time></trkpt><trkpt lat="45.11192476619926" lon="6.968124507090673"><ele>800.0</ele><time>2026-04-19T13:35:46Z</time></trkpt><trkpt lat="45.11193341454433" lon="6.967737123262863"><ele>800.0</ele><time>2026-04-19T13:35:47Z</time></trkpt><trkpt lat="45.11192705868658" lon="6.967338710729644"><ele>800.0</ele><time>2026-04-19T13:35:48Z</time></trkpt><trkpt lat="45.11190979770318" lon="6.96694280899461"><ele>800.0</ele><time>2026-04-19T13:35:49Z</time></trkpt><trkpt lat="45.11190344451182" lon="6.9665871921099"><ele>798.0</ele><time>2026-04-19T13:35:50Z</time></trkpt><trkpt lat="45.11188690076785" lon="6.966274901903272"><ele>796.0</ele><time>2026-04-19T13:35:51Z</time></trkpt><trkpt lat="45.111824991981145" lon="6.966003924680968"><ele>794.0</ele><time>2026-04-19T13:35:52Z</time></trkpt><trkpt lat="45.11167841768696" lon="6.96574941298972"><ele>800.5</ele><time>2026-04-19T13:35:53Z</time></trkpt><trkpt lat="45.11146890229864" lon="6.965499791197594"><ele>807.0</ele><time>2026-04-19T13:35:54Z</time></trkpt><trkpt lat="45.11127792042749" lon="6.965201297132311"><ele>800.5</ele><time>2026-04-19T13:35:55Z</time></trkpt><trkpt lat="45.11108384391773" lon="6.964888398126418"><ele>794.0</ele><time>2026-04-19T13:35:56Z</time></trkpt><trkpt lat="45.110892772444615" lon="6.964559676021784"><ele>802.0</ele><time>2026-04-19T13:35:57Z</time></trkpt><trkpt lat="45.11069460170589" lon="6.964218740346826"><ele>810.0</ele><time>2026-04-19T13:35:58Z</time></trkpt><trkpt lat="45.1104969266315" lon="6.963878657769062"><ele>810.0</ele><time>2026-04-19T13:35:59Z</time></trkpt><trkpt lat="45.11030236574531" lon="6.963550648812992"><ele>810.0</ele><time>2026-04-19T13:36:00Z</time></trkpt><trkpt lat="45.110138867709715" lon="6.963245890751599"><ele>801.5</ele><time>2026-04-19T13:36:01Z</time></trkpt><trkpt lat="45.110022463485215" lon="6.962914917777918"><ele>793.0</ele><time>2026-04-19T13:36:02Z</time></trkpt><trkpt lat="45.10992369311766" lon="6.962564115688525"><ele>804.5</ele><time>2026-04-19T13:36:03Z</time></trkpt><trkpt lat="45.10979086810794" lon="6.962247253811095"><ele>816.0</ele><time>2026-04-19T13:36:04Z</time></trkpt><trkpt lat="45.10963025753271" lon="6.961948864897378"><ele>808.0</ele><time>2026-04-19T13:36:05Z</time></trkpt><trkpt lat="45.10947290810176" lon="6.961680802187043"><ele>800.0</ele><time>2026-04-19T13:36:06Z</time></trkpt><trkpt lat="45.10935886427719" lon="6.961398322485952"><ele>800.0</ele><time>2026-04-19T13:36:07Z</time></trkpt><trkpt lat="45.1092773403296" lon="6.961093811285009"><ele>800.0</ele><time>2026-04-19T13:36:08Z</time></trkpt><trkpt lat="45.109168481189904" lon="6.960753651986902"><ele>809.5</ele><time>2026-04-19T13:36:09Z</time></trkpt><trkpt lat="45.10902532774406" lon="6.960425563030353"><ele>819.0</ele><time>2026-04-19T13:36:10Z</time></trkpt><trkpt lat="45.10886686680589" lon="6.960110294841336"><ele>812.0</ele><time>2026-04-19T13:36:11Z</time></trkpt><trkpt lat="45.108759586849565" lon="6.959813981802184"><ele>805.0</ele><time>2026-04-19T13:36:12Z</time></trkpt><trkpt lat="45.108682906701986" lon="6.959543029947564"><ele>798.0</ele><time>2026-04-19T13:36:13Z</time></trkpt><trkpt lat="45.108668884711214" lon="6.959266975615744"><ele>791.5</ele><time>2026-04-19T13:36:14Z</time></trkpt><trkpt lat="45.10866703955219" lon="6.958940660650864"><ele>785.0</ele><time>2026-04-19T13:36:15Z</time></trkpt><trkpt lat="45.108668070776844" lon="6.958598645684745"><ele>781.5</ele><time>2026-04-19T13:36:16Z</time></trkpt><trkpt lat="45.10865944766059" lon="6.9582356221747705"><ele>778.0</ele><time>2026-04-19T13:36:17Z</time></trkpt><trkpt lat="45.10862425884696" lon="6.95786897396996"><ele>775.5</ele><time>2026-04-19T13:36:18Z</time></trkpt><trkpt lat="45.10855336661345" lon="6.957502707144264"><ele>773.0</ele><time>2026-04-19T13:36:19Z</time></trkpt><trkpt lat="45.108467560629144" lon="6.957154065167334"><ele>773.0</ele><time>2026-04-19T13:36:20Z</time></trkpt><trkpt lat="45.10836108208382" lon="6.956817194536219"><ele>773.0</ele><time>2026-04-19T13:36:21Z</time></trkpt><trkpt lat="45.108257394416135" lon="6.956518894826835"><ele>765.5</ele><time>2026-04-19T13:36:22Z</time></trkpt><trkpt lat="45.10814483065361" lon="6.956214110449818"><ele>758.0</ele><time>2026-04-19T13:36:23Z</time></trkpt><trkpt lat="45.10803503951405" lon="6.955903210829764"><ele>751.0</ele><time>2026-04-19T13:36:24Z</time></trkpt><trkpt lat="45.10795431715059" lon="6.9555746992454255"><ele>744.0</ele><time>2026-04-19T13:36:25Z</time></trkpt><trkpt lat="45.10786720139619" lon="6.955244600879141"><ele>741.0</ele><time>2026-04-19T13:36:26Z</time></trkpt><trkpt lat="45.10778108323779" lon="6.9549099089179585"><ele>738.0</ele><time>2026-04-19T13:36:27Z</time></trkpt><trkpt lat="45.107682475300244" lon="6.954589503214035"><ele>738.0</ele><time>2026-04-19T13:36:28Z</time></trkpt><trkpt lat="45.10761128519771" lon="6.954247369017097"><ele>738.0</ele><time>2026-04-19T13:36:29Z</time></trkpt><trkpt lat="45.107526151859105" lon="6.953906228798998"><ele>739.0</ele><time>2026-04-19T13:36:30Z</time></trkpt><trkpt lat="45.10744322547866" lon="6.95355944672807"><ele>740.0</ele><time>2026-04-19T13:36:31Z</time></trkpt><trkpt lat="45.10736435211021" lon="6.95320216850127"><ele>740.0</ele><time>2026-04-19T13:36:32Z</time></trkpt><trkpt lat="45.10728643206578" lon="6.952839363297027"><ele>740.0</ele><time>2026-04-19T13:36:33Z</time></trkpt><trkpt lat="45.10718859003398" lon="6.952482405396481"><ele>745.5</ele><time>2026-04-19T13:36:34Z</time></trkpt><trkpt lat="45.10709057028446" lon="6.952110886732436"><ele>751.0</ele><time>2026-04-19T13:36:35Z</time></trkpt><trkpt lat="45.107006311741664" lon="6.951750480710947"><ele>757.5</ele><time>2026-04-19T13:36:36Z</time></trkpt><trkpt lat="45.106883842726745" lon="6.951431152366476"><ele>764.0</ele><time>2026-04-19T13:36:37Z</time></trkpt><trkpt lat="45.1067411884389" lon="6.951123465152931"><ele>776.5</ele><time>2026-04-19T13:36:38Z</time></trkpt><trkpt lat="45.106653652859286" lon="6.950786000296228"><ele>789.0</ele><time>2026-04-19T13:36:39Z</time></trkpt><trkpt lat="45.1065782849114" lon="6.950465457184237"><ele>772.0</ele><time>2026-04-19T13:36:40Z</time></trkpt><trkpt lat="45.10655204512995" lon="6.950132709999521"><ele>755.0</ele><time>2026-04-19T13:36:41Z</time></trkpt><trkpt lat="45.106482307001244" lon="6.9498396524103665"><ele>755.0</ele><time>2026-04-19T13:36:42Z</time></trkpt><trkpt lat="45.10640644249806" lon="6.949592463161628"><ele>755.0</ele><time>2026-04-19T13:36:43Z</time></trkpt><trkpt lat="45.106289634573756" lon="6.949409432841175"><ele>755.0</ele><time>2026-04-19T13:36:44Z</time></trkpt><trkpt lat="45.10615617896025" lon="6.949274177810026"><ele>760.6666666666666</ele><time>2026-04-19T13:36:45Z</time></trkpt><trkpt lat="45.106103957655705" lon="6.949107292325001"><ele>766.3333333333333</ele><time>2026-04-19T13:36:46Z</time></trkpt><trkpt lat="45.10604612047023" lon="6.948868779771057"><ele>772.0</ele><time>2026-04-19T13:36:47Z</time></trkpt><trkpt lat="45.10597013574727" lon="6.948585136457912"><ele>779.0</ele><time>2026-04-19T13:36:48Z</time></trkpt><trkpt lat="45.10592732088012" lon="6.9482926699037115"><ele>786.0</ele><time>2026-04-19T13:36:49Z</time></trkpt><trkpt lat="45.10595074448537" lon="6.948014312774938"><ele>793.0</ele><time>2026-04-19T13:36:50Z</time></trkpt><trkpt lat="45.10591764761498" lon="6.947790291904332"><ele>793.0</ele><time>2026-04-19T13:36:51Z</time></trkpt><trkpt lat="45.105846530839514" lon="6.94758777280732"><ele>793.0</ele><time>2026-04-19T13:36:52Z</time></trkpt><trkpt lat="45.10573484943029" lon="6.947354906749528"><ele>793.0</ele><time>2026-04-19T13:36:53Z</time></trkpt><trkpt lat="45.10561716582036" lon="6.947111760268313"><ele>792.3333333333333</ele><time>2026-04-19T13:36:54Z</time></trkpt><trkpt lat="45.10550189698635" lon="6.946871779241458"><ele>791.6666666666667</ele><time>2026-04-19T13:36:55Z</time></trkpt><trkpt lat="45.105381697700516" lon="6.946663579813067"><ele>791.0</ele><time>2026-04-19T13:36:56Z</time></trkpt><trkpt lat="45.105271513437316" lon="6.946458306121457"><ele>791.0</ele><time>2026-04-19T13:36:57Z</time></trkpt><trkpt lat="45.10516559521252" lon="6.946283420913128"><ele>791.0</ele><time>2026-04-19T13:36:58Z</time></trkpt><trkpt lat="45.10503779095353" lon="6.946144204558204"><ele>791.0</ele><time>2026-04-19T13:36:59Z</time></trkpt><trkpt lat="45.10487547231644" lon="6.946036972049787"><ele>789.6666666666667</ele><time>2026-04-19T13:37:00Z</time></trkpt><trkpt lat="45.10472337129473" lon="6.945948060637055"><ele>788.3333333333333</ele><time>2026-04-19T13:37:01Z</time></trkpt><trkpt lat="45.10457369250551" lon="6.9458213855210404"><ele>787.0</ele><time>2026-04-19T13:37:02Z</time></trkpt><trkpt lat="45.10442887610047" lon="6.945661713862478"><ele>787.0</ele><time>2026-04-19T13:37:03Z</time></trkpt><trkpt lat="45.10430596158538" lon="6.945501731037364"><ele>787.0</ele><time>2026-04-19T13:37:04Z</time></trkpt><trkpt lat="45.1042066234825" lon="6.945289873433433"><ele>787.0</ele><time>2026-04-19T13:37:05Z</time></trkpt><trkpt lat="45.104089138565094" lon="6.944994646841715"><ele>785.5</ele><time>2026-04-19T13:37:06Z</time></trkpt><trkpt lat="45.10390843560816" lon="6.944738073018522"><ele>784.0</ele><time>2026-04-19T13:37:07Z</time></trkpt><trkpt lat="45.10374530683888" lon="6.944453210204325"><ele>784.0</ele><time>2026-04-19T13:37:08Z</time></trkpt><trkpt lat="45.10358428846127" lon="6.944232142656159"><ele>784.0</ele><time>2026-04-19T13:37:09Z</time></trkpt><trkpt lat="45.10344889363456" lon="6.94395961991656"><ele>794.5</ele><time>2026-04-19T13:37:10Z</time></trkpt><trkpt lat="45.10331034419167" lon="6.943619203304316"><ele>805.0</ele><time>2026-04-19T13:37:11Z</time></trkpt><trkpt lat="45.103184224486725" lon="6.943236590521025"><ele>805.0</ele><time>2026-04-19T13:37:12Z</time></trkpt><trkpt lat="45.103034004684446" lon="6.942920917650202"><ele>805.0</ele><time>2026-04-19T13:37:13Z</time></trkpt><trkpt lat="45.10289003102507" lon="6.942700343339633"><ele>809.6666666666666</ele><time>2026-04-19T13:37:14Z</time></trkpt><trkpt lat="45.102784390123794" lon="6.942514510187754"><ele>814.3333333333333</ele><time>2026-04-19T13:37:15Z</time></trkpt><trkpt lat="45.102699901316726" lon="6.942272043630694"><ele>819.0</ele><time>2026-04-19T13:37:16Z</time></trkpt><trkpt lat="45.10266594085825" lon="6.941937283739665"><ele>825.0</ele><time>2026-04-19T13:37:17Z</time></trkpt><trkpt lat="45.10266542843482" lon="6.941561373294729"><ele>831.0</ele><time>2026-04-19T13:37:18Z</time></trkpt><trkpt lat="45.10261752387884" lon="6.94117527988558"><ele>839.5</ele><time>2026-04-19T13:37:19Z</time></trkpt><trkpt lat="45.102547946682414" lon="6.940765276424279"><ele>848.0</ele><time>2026-04-19T13:37:20Z</time></trkpt><trkpt lat="45.10244155450751" lon="6.940407383363495"><ele>842.0</ele><time>2026-04-19T13:37:21Z</time></trkpt><trkpt lat="45.10236438007922" lon="6.939935622161502"><ele>836.0</ele><time>2026-04-19T13:37:22Z</time></trkpt><trkpt lat="45.10228288963443" lon="6.93954439780032"><ele>840.5</ele><time>2026-04-19T13:37:23Z</time></trkpt><trkpt lat="45.10219785456121" lon="6.9391945692151"><ele>845.0</ele><time>2026-04-19T13:37:24Z</time></trkpt><trkpt lat="45.102091479667564" lon="6.938953650738573"><ele>845.0</ele><time>2026-04-19T13:37:25Z</time></trkpt><trkpt lat="45.10195771252216" lon="6.938688860346381"><ele>845.0</ele><time>2026-04-19T13:37:26Z</time></trkpt><trkpt lat="45.10187675990737" lon="6.9384709588792"><ele>845.0</ele><time>2026-04-19T13:37:27Z</time></trkpt><trkpt lat="45.10184005923488" lon="6.938267177079311"><ele>846.3333333333334</ele><time>2026-04-19T13:37:28Z</time></trkpt><trkpt lat="45.10184636027346" lon="6.9380134467167744"><ele>847.6666666666667</ele><time>2026-04-19T13:37:29Z</time></trkpt><trkpt lat="45.10188491068643" lon="6.93772699990611"><ele>849.0</ele><time>2026-04-19T13:37:30Z</time></trkpt><trkpt lat="45.10190922901323" lon="6.937336049652078"><ele>850.5</ele><time>2026-04-19T13:37:31Z</time></trkpt><trkpt lat="45.1019247943762" lon="6.936949311548434"><ele>852.0</ele><time>2026-04-19T13:37:32Z</time></trkpt><trkpt lat="45.1019068366" lon="6.93649965537709"><ele>854.0</ele><time>2026-04-19T13:37:33Z</time></trkpt><trkpt lat="45.10183019228966" lon="6.93609452260107"><ele>856.0</ele><time>2026-04-19T13:37:34Z</time></trkpt><trkpt lat="45.10171921823551" lon="6.935725515807859"><ele>857.0</ele><time>2026-04-19T13:37:35Z</time></trkpt><trkpt lat="45.10157606242331" lon="6.9353844588678335"><ele>858.0</ele><time>2026-04-19T13:37:36Z</time></trkpt><trkpt lat="45.101406553836036" lon="6.935073339333663"><ele>861.0</ele><time>2026-04-19T13:37:37Z</time></trkpt><trkpt lat="45.101243457417944" lon="6.934717480128506"><ele>864.0</ele><time>2026-04-19T13:37:38Z</time></trkpt><trkpt lat="45.10103058544317" lon="6.934369938999258"><ele>864.0</ele><time>2026-04-19T13:37:39Z</time></trkpt><trkpt lat="45.10088900233585" lon="6.934050179726551"><ele>864.0</ele><time>2026-04-19T13:37:40Z</time></trkpt><trkpt lat="45.10082145978937" lon="6.933754061202192"><ele>864.0</ele><time>2026-04-19T13:37:41Z</time></trkpt><trkpt lat="45.100766556179074" lon="6.933412252660845"><ele>864.0</ele><time>2026-04-19T13:37:42Z</time></trkpt><trkpt lat="45.1006982601118" lon="6.933068541254479"><ele>862.0</ele><time>2026-04-19T13:37:43Z</time></trkpt><trkpt lat="45.10062482803298" lon="6.932757310420835"><ele>860.0</ele><time>2026-04-19T13:37:44Z</time></trkpt><trkpt lat="45.10050797262778" lon="6.932493080629164"><ele>864.0</ele><time>2026-04-19T13:37:45Z</time></trkpt><trkpt lat="45.100331159773056" lon="6.932241151001891"><ele>868.0</ele><time>2026-04-19T13:37:46Z</time></trkpt><trkpt lat="45.10011327263169" lon="6.932051925958667"><ele>867.5</ele><time>2026-04-19T13:37:47Z</time></trkpt><trkpt lat="45.09988682533767" lon="6.931883727497616"><ele>867.0</ele><time>2026-04-19T13:37:48Z</time></trkpt><trkpt lat="45.09965661844144" lon="6.9316516804774615"><ele>867.0</ele><time>2026-04-19T13:37:49Z</time></trkpt><trkpt lat="45.09943671089965" lon="6.931393721878916"><ele>867.0</ele><time>2026-04-19T13:37:50Z</time></trkpt><trkpt lat="45.099243968628244" lon="6.931127150295955"><ele>868.0</ele><time>2026-04-19T13:37:51Z</time></trkpt><trkpt lat="45.09895579983672" lon="6.930984923531243"><ele>869.0</ele><time>2026-04-19T13:37:52Z</time></trkpt><trkpt lat="45.09873382709134" lon="6.930718524060243"><ele>869.0</ele><time>2026-04-19T13:37:53Z</time></trkpt><trkpt lat="45.09849199933681" lon="6.930401110291471"><ele>869.0</ele><time>2026-04-19T13:37:54Z</time></trkpt><trkpt lat="45.0983022245754" lon="6.930114384598086"><ele>871.0</ele><time>2026-04-19T13:37:55Z</time></trkpt><trkpt lat="45.098119352080325" lon="6.9297879584768705"><ele>873.0</ele><time>2026-04-19T13:37:56Z</time></trkpt><trkpt lat="45.09830672147184" lon="6.928987631896344"><ele>877.0</ele><time>2026-04-19T13:37:57Z</time></trkpt><trkpt lat="45.09818099670081" lon="6.9286567719276695"><ele>881.0</ele><time>2026-04-19T13:37:58Z</time></trkpt><trkpt lat="45.09806789262286" lon="6.928368225695375"><ele>882.0</ele><time>2026-04-19T13:37:59Z</time></trkpt><trkpt lat="45.09796227456035" lon="6.92810413711179"><ele>883.0</ele><time>2026-04-19T13:38:00Z</time></trkpt><trkpt lat="45.097867960619446" lon="6.927852698506385"><ele>884.0</ele><time>2026-04-19T13:38:01Z</time></trkpt><trkpt lat="45.0977731259953" lon="6.927607425763539"><ele>887.3333333333334</ele><time>2026-04-19T13:38:02Z</time></trkpt><trkpt lat="45.097687661694025" lon="6.927371540467033"><ele>890.6666666666667</ele><time>2026-04-19T13:38:03Z</time></trkpt><trkpt lat="45.09761184240607" lon="6.927162771413139"><ele>894.0</ele><time>2026-04-19T13:38:04Z</time></trkpt><trkpt lat="45.097527764618725" lon="6.926962032202703"><ele>894.0</ele><time>2026-04-19T13:38:05Z</time></trkpt><trkpt lat="45.09741697372846" lon="6.92678801733971"><ele>894.0</ele><time>2026-04-19T13:38:06Z</time></trkpt><trkpt lat="45.097267660058456" lon="6.926674796179851"><ele>894.0</ele><time>2026-04-19T13:38:07Z</time></trkpt><trkpt lat="45.09705579292277" lon="6.9266100489551015"><ele>894.0</ele><time>2026-04-19T13:38:08Z</time></trkpt><trkpt lat="45.09681658279282" lon="6.926588284028602"><ele>894.0</ele><time>2026-04-19T13:38:09Z</time></trkpt><trkpt lat="45.096582169337154" lon="6.926549704764905"><ele>885.0</ele><time>2026-04-19T13:38:10Z</time></trkpt><trkpt lat="45.096347123492855" lon="6.926446187054934"><ele>876.0</ele><time>2026-04-19T13:38:11Z</time></trkpt><trkpt lat="45.09609984427413" lon="6.9262812339756135"><ele>876.0</ele><time>2026-04-19T13:38:12Z</time></trkpt><trkpt lat="45.09584339271031" lon="6.926081427684976"><ele>876.0</ele><time>2026-04-19T13:38:13Z</time></trkpt><trkpt lat="45.095590494260364" lon="6.925877793780481"><ele>878.0</ele><time>2026-04-19T13:38:14Z</time></trkpt><trkpt lat="45.095358970059706" lon="6.925650735018363"><ele>880.0</ele><time>2026-04-19T13:38:15Z</time></trkpt><trkpt lat="45.09514611932177" lon="6.925380658708508"><ele>880.0</ele><time>2026-04-19T13:38:16Z</time></trkpt><trkpt lat="45.094921057209085" lon="6.925089504142939"><ele>880.0</ele><time>2026-04-19T13:38:17Z</time></trkpt><trkpt lat="45.094699963051724" lon="6.924714060190676"><ele>873.5</ele><time>2026-04-19T13:38:18Z</time></trkpt><trkpt lat="45.09452702115513" lon="6.924312782280923"><ele>867.0</ele><time>2026-04-19T13:38:19Z</time></trkpt><trkpt lat="45.09434738125" lon="6.923918164490999"><ele>869.0</ele><time>2026-04-19T13:38:20Z</time></trkpt><trkpt lat="45.09415503146507" lon="6.923554995497953"><ele>871.0</ele><time>2026-04-19T13:38:21Z</time></trkpt><trkpt lat="45.09404174706059" lon="6.923272891839313"><ele>871.0</ele><time>2026-04-19T13:38:22Z</time></trkpt><trkpt lat="45.09396067793483" lon="6.922961658361303"><ele>871.0</ele><time>2026-04-19T13:38:23Z</time></trkpt><trkpt lat="45.09389476030565" lon="6.922631356633335"><ele>880.0</ele><time>2026-04-19T13:38:24Z</time></trkpt><trkpt lat="45.09384827097856" lon="6.922282281637234"><ele>889.0</ele><time>2026-04-19T13:38:25Z</time></trkpt><trkpt lat="45.093799538450135" lon="6.921922757594753"><ele>894.5</ele><time>2026-04-19T13:38:26Z</time></trkpt><trkpt lat="45.093733261938645" lon="6.921559432787649"><ele>900.0</ele><time>2026-04-19T13:38:27Z</time></trkpt><trkpt lat="45.09364253918249" lon="6.9211898852687375"><ele>910.5</ele><time>2026-04-19T13:38:28Z</time></trkpt><trkpt lat="45.09353213562081" lon="6.920831318195565"><ele>921.0</ele><time>2026-04-19T13:38:29Z</time></trkpt><trkpt lat="45.09340687108025" lon="6.920469398354838"><ele>921.0</ele><time>2026-04-19T13:38:30Z</time></trkpt><trkpt lat="45.09326989648925" lon="6.920112096438955"><ele>921.0</ele><time>2026-04-19T13:38:31Z</time></trkpt><trkpt lat="45.093116712686346" lon="6.9197693416638995"><ele>921.5</ele><time>2026-04-19T13:38:32Z</time></trkpt><trkpt lat="45.092936677114714" lon="6.91942682835549"><ele>922.0</ele><time>2026-04-19T13:38:33Z</time></trkpt><trkpt lat="45.09274547259231" lon="6.91907292510336"><ele>922.0</ele><time>2026-04-19T13:38:34Z</time></trkpt><trkpt lat="45.0925477575338" lon="6.918719821260107"><ele>922.0</ele><time>2026-04-19T13:38:35Z</time></trkpt><trkpt lat="45.09233167940324" lon="6.91837089871998"><ele>918.5</ele><time>2026-04-19T13:38:36Z</time></trkpt><trkpt lat="45.09211557575583" lon="6.9180207047421165"><ele>915.0</ele><time>2026-04-19T13:38:37Z</time></trkpt><trkpt lat="45.091905399019375" lon="6.917664736239113"><ele>905.5</ele><time>2026-04-19T13:38:38Z</time></trkpt><trkpt lat="45.09169903098681" lon="6.9173052450005414"><ele>896.0</ele><time>2026-04-19T13:38:39Z</time></trkpt><trkpt lat="45.091482782112735" lon="6.9169376059038825"><ele>910.5</ele><time>2026-04-19T13:38:40Z</time></trkpt><trkpt lat="45.091269614487615" lon="6.916527560746957"><ele>925.0</ele><time>2026-04-19T13:38:41Z</time></trkpt><trkpt lat="45.09103448426868" lon="6.916094807165268"><ele>918.0</ele><time>2026-04-19T13:38:42Z</time></trkpt><trkpt lat="45.090776399532196" lon="6.915764987699938"><ele>911.0</ele><time>2026-04-19T13:38:43Z</time></trkpt><trkpt lat="45.090573645356805" lon="6.915455940657601"><ele>911.0</ele><time>2026-04-19T13:38:44Z</time></trkpt><trkpt lat="45.09042270990144" lon="6.9151271599609005"><ele>911.0</ele><time>2026-04-19T13:38:45Z</time></trkpt><trkpt lat="45.09027853802271" lon="6.914769667751661"><ele>929.5</ele><time>2026-04-19T13:38:46Z</time></trkpt><trkpt lat="45.09013682824509" lon="6.914408380378679"><ele>948.0</ele><time>2026-04-19T13:38:47Z</time></trkpt><trkpt lat="45.08999894401211" lon="6.914048350937511"><ele>950.0</ele><time>2026-04-19T13:38:48Z</time></trkpt><trkpt lat="45.08987814152556" lon="6.91371938182405"><ele>952.0</ele><time>2026-04-19T13:38:49Z</time></trkpt><trkpt lat="45.08976611311457" lon="6.913393000088617"><ele>952.0</ele><time>2026-04-19T13:38:50Z</time></trkpt><trkpt lat="45.08964791419501" lon="6.913016708036761"><ele>952.0</ele><time>2026-04-19T13:38:50.999Z</time></trkpt><trkpt lat="45.089563352602646" lon="6.912655494923667"><ele>960.5</ele><time>2026-04-19T13:38:51.999Z</time></trkpt><trkpt lat="45.08943606698634" lon="6.912303584847897"><ele>969.0</ele><time>2026-04-19T13:38:52.999Z</time></trkpt><trkpt lat="45.0893054731035" lon="6.911967408678196"><ele>963.5</ele><time>2026-04-19T13:38:53.999Z</time></trkpt><trkpt lat="45.089077634562685" lon="6.911696485521353"><ele>958.0</ele><time>2026-04-19T13:38:54.999Z</time></trkpt><trkpt lat="45.08886652327346" lon="6.9114683288327"><ele>958.0</ele><time>2026-04-19T13:38:55.999Z</time></trkpt><trkpt lat="45.08872402475757" lon="6.911247921501803"><ele>958.0</ele><time>2026-04-19T13:38:56.999Z</time></trkpt><trkpt lat="45.08862545778082" lon="6.911053315472451"><ele>958.0</ele><time>2026-04-19T13:38:57.999Z</time></trkpt><trkpt lat="45.08855900113288" lon="6.910838373935541"><ele>966.3333333333333</ele><time>2026-04-19T13:38:58.999Z</time></trkpt><trkpt lat="45.08854347712864" lon="6.910594979585815"><ele>974.6666666666667</ele><time>2026-04-19T13:38:59.999Z</time></trkpt><trkpt lat="45.088556515506454" lon="6.910295987197785"><ele>983.0</ele><time>2026-04-19T13:39:00.999Z</time></trkpt><trkpt lat="45.08856342760907" lon="6.9099600819155675"><ele>986.5</ele><time>2026-04-19T13:39:01.999Z</time></trkpt><trkpt lat="45.08857189711238" lon="6.909620456191338"><ele>990.0</ele><time>2026-04-19T13:39:02.999Z</time></trkpt><trkpt lat="45.08853033970438" lon="6.9092863105867774"><ele>992.3333333333333</ele><time>2026-04-19T13:39:03.999Z</time></trkpt><trkpt lat="45.08847404672922" lon="6.908979599564145"><ele>994.6666666666666</ele><time>2026-04-19T13:39:05Z</time></trkpt><trkpt lat="45.08843534334377" lon="6.908719452658511"><ele>997.0</ele><time>2026-04-19T13:39:06Z</time></trkpt><trkpt lat="45.08840572380483" lon="6.908495414561005"><ele>997.5</ele><time>2026-04-19T13:39:07Z</time></trkpt><trkpt lat="45.08837592385133" lon="6.908293464721627"><ele>998.0</ele><time>2026-04-19T13:39:08Z</time></trkpt><trkpt lat="45.08833264028262" lon="6.908117045899652"><ele>998.5</ele><time>2026-04-19T13:39:09Z</time></trkpt><trkpt lat="45.08826084443266" lon="6.907953955025343"><ele>999.0</ele><time>2026-04-19T13:39:10Z</time></trkpt><trkpt lat="45.08815407760668" lon="6.907815034926912"><ele>999.0</ele><time>2026-04-19T13:39:11Z</time></trkpt><trkpt lat="45.088027137169746" lon="6.907731651118588"><ele>999.0</ele><time>2026-04-19T13:39:12Z</time></trkpt><trkpt lat="45.08790704273826" lon="6.907700781256725"><ele>999.0</ele><time>2026-04-19T13:39:13Z</time></trkpt><trkpt lat="45.08779557263291" lon="6.907704261739037"><ele>999.0</ele><time>2026-04-19T13:39:14Z</time></trkpt><trkpt lat="45.08767279715932" lon="6.907752211459771"><ele>999.0</ele><time>2026-04-19T13:39:15Z</time></trkpt><trkpt lat="45.087572340718474" lon="6.9078513379686"><ele>999.0000000000001</ele><time>2026-04-19T13:39:16Z</time></trkpt><trkpt lat="45.08747672815574" lon="6.907871573543658"><ele>999.0000000000001</ele><time>2026-04-19T13:39:17Z</time></trkpt><trkpt lat="45.08739793370054" lon="6.907890387940645"><ele>999.0</ele><time>2026-04-19T13:39:18Z</time></trkpt><trkpt lat="45.08729911111546" lon="6.9079059170982315"><ele>999.0</ele><time>2026-04-19T13:39:19Z</time></trkpt><trkpt lat="45.08719329869602" lon="6.90792053557862"><ele>1001.0</ele><time>2026-04-19T13:39:20Z</time></trkpt><trkpt lat="45.08709317610478" lon="6.907929507312926"><ele>1003.0000000000001</ele><time>2026-04-19T13:39:21Z</time></trkpt><trkpt lat="45.087009183576534" lon="6.907930293672419"><ele>1005.0000000000001</ele><time>2026-04-19T13:39:22Z</time></trkpt><trkpt lat="45.08690758668256" lon="6.907929551674706"><ele>1007.0</ele><time>2026-04-19T13:39:23Z</time></trkpt><trkpt lat="45.08678201499222" lon="6.907930103915185"><ele>1009.0</ele><time>2026-04-19T13:39:24Z</time></trkpt><trkpt lat="45.086631326360056" lon="6.907940311562946"><ele>1013.0</ele><time>2026-04-19T13:39:25Z</time></trkpt><trkpt lat="45.08648254639208" lon="6.90795467148104"><ele>1017.0</ele><time>2026-04-19T13:39:26Z</time></trkpt><trkpt lat="45.08635857405481" lon="6.907968609761758"><ele>1021.0</ele><time>2026-04-19T13:39:27Z</time></trkpt><trkpt lat="45.086254963644635" lon="6.908008843324085"><ele>1025.0</ele><time>2026-04-19T13:39:28Z</time></trkpt><trkpt lat="45.086140677844035" lon="6.9080555833430255"><ele>1025.0</ele><time>2026-04-19T13:39:29Z</time></trkpt><trkpt lat="45.08596967857626" lon="6.90816162368682"><ele>1025.0</ele><time>2026-04-19T13:39:30Z</time></trkpt><trkpt lat="45.08580359411927" lon="6.908281762555136"><ele>1025.0</ele><time>2026-04-19T13:39:31Z</time></trkpt><trkpt lat="45.085689218020974" lon="6.9083483167338455"><ele>1025.4</ele><time>2026-04-19T13:39:32Z</time></trkpt><trkpt lat="45.08558589790653" lon="6.908366582329632"><ele>1025.8</ele><time>2026-04-19T13:39:33Z</time></trkpt><trkpt lat="45.08546850410852" lon="6.9083603243228096"><ele>1026.2</ele><time>2026-04-19T13:39:34Z</time></trkpt><trkpt lat="45.0853533122957" lon="6.908342756174361"><ele>1026.6</ele><time>2026-04-19T13:39:35Z</time></trkpt><trkpt lat="45.08524571193328" lon="6.908326164215645"><ele>1027.0</ele><time>2026-04-19T13:39:36Z</time></trkpt><trkpt lat="45.08512967493082" lon="6.908309215311953"><ele>1027.0</ele><time>2026-04-19T13:39:37Z</time></trkpt><trkpt lat="45.08499396706258" lon="6.908289393170627"><ele>1027.0</ele><time>2026-04-19T13:39:38Z</time></trkpt><trkpt lat="45.084809001745604" lon="6.908262786793742"><ele>1027.0</ele><time>2026-04-19T13:39:39Z</time></trkpt><trkpt lat="45.08461353612553" lon="6.9082355610307395"><ele>1024.5</ele><time>2026-04-19T13:39:40Z</time></trkpt><trkpt lat="45.08444469968248" lon="6.908208709459317"><ele>1022.0</ele><time>2026-04-19T13:39:41Z</time></trkpt><trkpt lat="45.08431406057621" lon="6.908172619319894"><ele>1019.5</ele><time>2026-04-19T13:39:42Z</time></trkpt><trkpt lat="45.084221260950756" lon="6.908079251839018"><ele>1017.0</ele><time>2026-04-19T13:39:43Z</time></trkpt><trkpt lat="45.08414845258412" lon="6.907956703194275"><ele>1017.0</ele><time>2026-04-19T13:39:44Z</time></trkpt><trkpt lat="45.08410525984939" lon="6.907824313663415"><ele>1017.0</ele><time>2026-04-19T13:39:45Z</time></trkpt><trkpt lat="45.08415013341994" lon="6.907683470960145"><ele>1017.0</ele><time>2026-04-19T13:39:46Z</time></trkpt><trkpt lat="45.08424394756239" lon="6.907602243068232"><ele>1017.0</ele><time>2026-04-19T13:39:47Z</time></trkpt><trkpt lat="45.084362503988096" lon="6.907601016189096"><ele>1017.0</ele><time>2026-04-19T13:39:48Z</time></trkpt><trkpt lat="45.08449755968295" lon="6.907700877694165"><ele>1017.0</ele><time>2026-04-19T13:39:49Z</time></trkpt><trkpt lat="45.08468345697234" lon="6.907795016284579"><ele>1017.0</ele><time>2026-04-19T13:39:50Z</time></trkpt><trkpt lat="45.084906491272385" lon="6.907915006773684"><ele>1017.0</ele><time>2026-04-19T13:39:51Z</time></trkpt><trkpt lat="45.08512405276065" lon="6.907972441901567"><ele>1019.5</ele><time>2026-04-19T13:39:52Z</time></trkpt><trkpt lat="45.08527276967978" lon="6.9079826330211604"><ele>1022.0</ele><time>2026-04-19T13:39:53Z</time></trkpt><trkpt lat="45.08535988785404" lon="6.908021097562523"><ele>1024.5</ele><time>2026-04-19T13:39:54Z</time></trkpt><trkpt lat="45.08545825134611" lon="6.908042213112307"><ele>1027.0</ele><time>2026-04-19T13:39:55Z</time></trkpt><trkpt lat="45.085591873210575" lon="6.908024961501052"><ele>1027.0</ele><time>2026-04-19T13:39:56Z</time></trkpt><trkpt lat="45.0856370668056" lon="6.907904862862633"><ele>1027.0</ele><time>2026-04-19T13:39:57Z</time></trkpt><trkpt lat="45.08561433509301" lon="6.907703110700577"><ele>1027.0</ele><time>2026-04-19T13:39:58Z</time></trkpt><trkpt lat="45.08553505055209" lon="6.907611831680627"><ele>1027.0</ele><time>2026-04-19T13:39:59Z</time></trkpt><trkpt lat="45.08536715208373" lon="6.907667661123054"><ele>1027.0</ele><time>2026-04-19T13:40:00Z</time></trkpt><trkpt lat="45.085199207445385" lon="6.90767693504679"><ele>1027.0</ele><time>2026-04-19T13:40:01Z</time></trkpt><trkpt lat="45.08506081968329" lon="6.907577691559096"><ele>1027.0</ele><time>2026-04-19T13:40:02Z</time></trkpt><trkpt lat="45.084910664544765" lon="6.907428201556647"><ele>1035.5</ele><time>2026-04-19T13:40:03Z</time></trkpt><trkpt lat="45.084662887434895" lon="6.907257943293937"><ele>1044.0</ele><time>2026-04-19T13:40:04Z</time></trkpt><trkpt lat="45.084440057923445" lon="6.907084239345357"><ele>1044.0</ele><time>2026-04-19T13:40:05Z</time></trkpt><trkpt lat="45.08428700412454" lon="6.906888329170681"><ele>1044.0</ele><time>2026-04-19T13:40:06Z</time></trkpt><trkpt lat="45.08410462668776" lon="6.90668251002004"><ele>1044.0</ele><time>2026-04-19T13:40:07Z</time></trkpt><trkpt lat="45.083935524668064" lon="6.906498155258282"><ele>1041.3333333333333</ele><time>2026-04-19T13:40:08Z</time></trkpt><trkpt lat="45.08379427990146" lon="6.906308785858624"><ele>1038.6666666666665</ele><time>2026-04-19T13:40:09Z</time></trkpt><trkpt lat="45.083667757482566" lon="6.906077686812084"><ele>1036.0</ele><time>2026-04-19T13:40:10Z</time></trkpt><trkpt lat="45.08354773875078" lon="6.905764110628359"><ele>1047.0</ele><time>2026-04-19T13:40:11Z</time></trkpt><trkpt lat="45.08342837411668" lon="6.905423148326642"><ele>1058.0</ele><time>2026-04-19T13:40:12Z</time></trkpt><trkpt lat="45.083329400560594" lon="6.905127663531739"><ele>1056.3333333333335</ele><time>2026-04-19T13:40:13Z</time></trkpt><trkpt lat="45.083229113033994" lon="6.904847213311153"><ele>1054.6666666666667</ele><time>2026-04-19T13:40:14Z</time></trkpt><trkpt lat="45.083120620260324" lon="6.904596050963704"><ele>1053.0</ele><time>2026-04-19T13:40:15Z</time></trkpt><trkpt lat="45.08299643513365" lon="6.904335868187281"><ele>1063.0</ele><time>2026-04-19T13:40:16Z</time></trkpt><trkpt lat="45.08284172401019" lon="6.9041111218801685"><ele>1073.0</ele><time>2026-04-19T13:40:17Z</time></trkpt><trkpt lat="45.08265165299774" lon="6.903971541411922"><ele>1083.0</ele><time>2026-04-19T13:40:18Z</time></trkpt><trkpt lat="45.082491144618146" lon="6.903816049968867"><ele>1077.6666666666667</ele><time>2026-04-19T13:40:19Z</time></trkpt><trkpt lat="45.08231945764529" lon="6.903728602972405"><ele>1072.3333333333335</ele><time>2026-04-19T13:40:20Z</time></trkpt><trkpt lat="45.082169754086806" lon="6.903719081817277"><ele>1067.0</ele><time>2026-04-19T13:40:21Z</time></trkpt><trkpt lat="45.08197177733306" lon="6.903767941630685"><ele>1067.0</ele><time>2026-04-19T13:40:22Z</time></trkpt><trkpt lat="45.08175902785624" lon="6.90382676333666"><ele>1067.0</ele><time>2026-04-19T13:40:23Z</time></trkpt><trkpt lat="45.08158578974581" lon="6.903847606829796"><ele>1067.0</ele><time>2026-04-19T13:40:24Z</time></trkpt><trkpt lat="45.08146457094437" lon="6.903811527907099"><ele>1067.0</ele><time>2026-04-19T13:40:25Z</time></trkpt><trkpt lat="45.081345868901074" lon="6.903710056923243"><ele>1067.0</ele><time>2026-04-19T13:40:26Z</time></trkpt><trkpt lat="45.08124019451397" lon="6.903543039073914"><ele>1067.0</ele><time>2026-04-19T13:40:27Z</time></trkpt><trkpt lat="45.081096989917384" lon="6.903309149319794"><ele>1067.0</ele><time>2026-04-19T13:40:28Z</time></trkpt><trkpt lat="45.08096443387623" lon="6.903105844522385"><ele>1067.0</ele><time>2026-04-19T13:40:29Z</time></trkpt><trkpt lat="45.08069616437615" lon="6.902816954454924"><ele>1061.5</ele><time>2026-04-19T13:40:30Z</time></trkpt><trkpt lat="45.08042890084268" lon="6.902630856563813"><ele>1056.0</ele><time>2026-04-19T13:40:31Z</time></trkpt><trkpt lat="45.08022163441355" lon="6.902436970240941"><ele>1056.0</ele><time>2026-04-19T13:40:32Z</time></trkpt><trkpt lat="45.08002032918717" lon="6.902291381918047"><ele>1056.0</ele><time>2026-04-19T13:40:33Z</time></trkpt><trkpt lat="45.079862759000555" lon="6.9021033085478125"><ele>1056.0</ele><time>2026-04-19T13:40:34Z</time></trkpt><trkpt lat="45.079730646325736" lon="6.901913311546176"><ele>1052.3333333333333</ele><time>2026-04-19T13:40:35Z</time></trkpt><trkpt lat="45.0796380141323" lon="6.901710213990703"><ele>1048.6666666666665</ele><time>2026-04-19T13:40:36Z</time></trkpt><trkpt lat="45.0795789780177" lon="6.901450150255029"><ele>1045.0</ele><time>2026-04-19T13:40:37Z</time></trkpt><trkpt lat="45.07952879157414" lon="6.90124651650095"><ele>1045.0</ele><time>2026-04-19T13:40:38Z</time></trkpt><trkpt lat="45.07950858467697" lon="6.901098310089128"><ele>1045.0</ele><time>2026-04-19T13:40:39Z</time></trkpt><trkpt lat="45.07943630870799" lon="6.901002800576081"><ele>1045.0</ele><time>2026-04-19T13:40:40Z</time></trkpt><trkpt lat="45.07932695481081" lon="6.900998859423673"><ele>1045.0</ele><time>2026-04-19T13:40:41Z</time></trkpt><trkpt lat="45.07920323433227" lon="6.901101446915688"><ele>1045.0</ele><time>2026-04-19T13:40:42Z</time></trkpt><trkpt lat="45.079136587588856" lon="6.901295353491763"><ele>1045.0</ele><time>2026-04-19T13:40:43Z</time></trkpt><trkpt lat="45.0791408957103" lon="6.901535958761858"><ele>1045.0</ele><time>2026-04-19T13:40:44Z</time></trkpt><trkpt lat="45.079198521374366" lon="6.901788922850433"><ele>1039.5</ele><time>2026-04-19T13:40:45Z</time></trkpt><trkpt lat="45.07935722154681" lon="6.902123893288061"><ele>1034.0</ele><time>2026-04-19T13:40:46Z</time></trkpt><trkpt lat="45.07956572405023" lon="6.902423342185846"><ele>1030.5</ele><time>2026-04-19T13:40:47Z</time></trkpt><trkpt lat="45.079750478525675" lon="6.902712561171701"><ele>1027.0</ele><time>2026-04-19T13:40:48Z</time></trkpt><trkpt lat="45.07991672135261" lon="6.902990290176388"><ele>1028.6666666666665</ele><time>2026-04-19T13:40:49Z</time></trkpt><trkpt lat="45.08003800807671" lon="6.903170462709908"><ele>1030.3333333333333</ele><time>2026-04-19T13:40:50Z</time></trkpt><trkpt lat="45.08013071772708" lon="6.903365591603"><ele>1032.0</ele><time>2026-04-19T13:40:51Z</time></trkpt><trkpt lat="45.08021452674574" lon="6.903558719749272"><ele>1032.0</ele><time>2026-04-19T13:40:52Z</time></trkpt><trkpt lat="45.080223630612274" lon="6.903734145953159"><ele>1032.0</ele><time>2026-04-19T13:40:54Z</time></trkpt><trkpt lat="45.08016115226275" lon="6.9038092143900265"><ele>1032.0</ele><time>2026-04-19T13:40:55Z</time></trkpt><trkpt lat="45.08003062909747" lon="6.90380654980444"><ele>1032.0</ele><time>2026-04-19T13:40:56Z</time></trkpt><trkpt lat="45.079939174442586" lon="6.903696027598681"><ele>1030.75</ele><time>2026-04-19T13:40:57Z</time></trkpt><trkpt lat="45.07987162491928" lon="6.903576853507059"><ele>1029.5</ele><time>2026-04-19T13:40:58Z</time></trkpt><trkpt lat="45.079796448402256" lon="6.903453409562682"><ele>1028.25</ele><time>2026-04-19T13:40:59Z</time></trkpt><trkpt lat="45.07971084866641" lon="6.90331874275239"><ele>1027.0</ele><time>2026-04-19T13:41:00Z</time></trkpt><trkpt lat="45.07961721682133" lon="6.903165623464878"><ele>1027.0</ele><time>2026-04-19T13:41:01Z</time></trkpt><trkpt lat="45.079515376281115" lon="6.903014691483465"><ele>1027.0</ele><time>2026-04-19T13:41:01.999Z</time></trkpt><trkpt lat="45.07941805478441" lon="6.902839252157377"><ele>1027.0</ele><time>2026-04-19T13:41:02.999Z</time></trkpt><trkpt lat="45.079293518920416" lon="6.902703747969983"><ele>1029.3333333333333</ele><time>2026-04-19T13:41:03.999Z</time></trkpt><trkpt lat="45.07913814406427" lon="6.9025441098310845"><ele>1031.6666666666667</ele><time>2026-04-19T13:41:04.999Z</time></trkpt><trkpt lat="45.07897607958306" lon="6.902392830101866"><ele>1034.0</ele><time>2026-04-19T13:41:05.999Z</time></trkpt><trkpt lat="45.078848322533695" lon="6.902198013258458"><ele>1026.6666666666667</ele><time>2026-04-19T13:41:06.999Z</time></trkpt><trkpt lat="45.078769030211085" lon="6.9019887381148575"><ele>1019.3333333333333</ele><time>2026-04-19T13:41:07.999Z</time></trkpt><trkpt lat="45.07873602397547" lon="6.901725329885787"><ele>1012.0</ele><time>2026-04-19T13:41:08.999Z</time></trkpt><trkpt lat="45.07870559415093" lon="6.901375190766827"><ele>1012.0</ele><time>2026-04-19T13:41:09.999Z</time></trkpt><trkpt lat="45.07866130340905" lon="6.901012511904827"><ele>1012.0</ele><time>2026-04-19T13:41:11Z</time></trkpt><trkpt lat="45.07865045435845" lon="6.900686419070646"><ele>1011.6666666666666</ele><time>2026-04-19T13:41:12Z</time></trkpt><trkpt lat="45.07870094677022" lon="6.9004109257835795"><ele>1011.3333333333333</ele><time>2026-04-19T13:41:13Z</time></trkpt><trkpt lat="45.07878663354982" lon="6.900143460181608"><ele>1011.0</ele><time>2026-04-19T13:41:14Z</time></trkpt><trkpt lat="45.07892332686552" lon="6.899837413372036"><ele>1011.0</ele><time>2026-04-19T13:41:15Z</time></trkpt><trkpt lat="45.07907899080168" lon="6.89949051492642"><ele>1011.0</ele><time>2026-04-19T13:41:16Z</time></trkpt><trkpt lat="45.079251093519055" lon="6.899127985431948"><ele>1019.5</ele><time>2026-04-19T13:41:17Z</time></trkpt><trkpt lat="45.07939354008643" lon="6.898785544489315"><ele>1028.0</ele><time>2026-04-19T13:41:18Z</time></trkpt><trkpt lat="45.07949048902045" lon="6.898522456423569"><ele>1026.6666666666667</ele><time>2026-04-19T13:41:19Z</time></trkpt><trkpt lat="45.07953385931852" lon="6.89827264094685"><ele>1025.3333333333333</ele><time>2026-04-19T13:41:20Z</time></trkpt><trkpt lat="45.07949766957334" lon="6.897985891675011"><ele>1024.0</ele><time>2026-04-19T13:41:21Z</time></trkpt><trkpt lat="45.07938616310085" lon="6.89770413006068"><ele>1024.3333333333333</ele><time>2026-04-19T13:41:22Z</time></trkpt><trkpt lat="45.07926075261213" lon="6.8974526964169565"><ele>1024.6666666666667</ele><time>2026-04-19T13:41:23Z</time></trkpt><trkpt lat="45.07924631070875" lon="6.897184787198176"><ele>1025.0</ele><time>2026-04-19T13:41:24Z</time></trkpt><trkpt lat="45.07922484787642" lon="6.896825502709212"><ele>1024.5</ele><time>2026-04-19T13:41:25Z</time></trkpt><trkpt lat="45.07920213594767" lon="6.896432031415858"><ele>1024.0</ele><time>2026-04-19T13:41:26Z</time></trkpt><trkpt lat="45.07926561513423" lon="6.896056909372775"><ele>1027.5</ele><time>2026-04-19T13:41:27Z</time></trkpt><trkpt lat="45.07933215007209" lon="6.895687773303489"><ele>1031.0</ele><time>2026-04-19T13:41:28Z</time></trkpt><trkpt lat="45.079343307499485" lon="6.895340543619153"><ele>1031.5</ele><time>2026-04-19T13:41:29Z</time></trkpt><trkpt lat="45.07929088460968" lon="6.894999676441312"><ele>1032.0</ele><time>2026-04-19T13:41:30Z</time></trkpt><trkpt lat="45.07918302101826" lon="6.894655734337656"><ele>1023.0</ele><time>2026-04-19T13:41:31Z</time></trkpt><trkpt lat="45.07898895457392" lon="6.894312813958668"><ele>1014.0</ele><time>2026-04-19T13:41:32Z</time></trkpt><trkpt lat="45.07882697681454" lon="6.893955693943303"><ele>1014.0</ele><time>2026-04-19T13:41:33Z</time></trkpt><trkpt lat="45.07859763921233" lon="6.893446768222715"><ele>1014.0</ele><time>2026-04-19T13:41:34Z</time></trkpt><trkpt lat="45.07833993515214" lon="6.892936772734127"><ele>1011.0</ele><time>2026-04-19T13:41:35Z</time></trkpt><trkpt lat="45.078113244754974" lon="6.892504618108254"><ele>1008.0</ele><time>2026-04-19T13:41:36Z</time></trkpt><trkpt lat="45.077954926952586" lon="6.8921233459025935"><ele>1008.0</ele><time>2026-04-19T13:41:37Z</time></trkpt><trkpt lat="45.077791081474885" lon="6.891812800845544"><ele>1008.0</ele><time>2026-04-19T13:41:38Z</time></trkpt><trkpt lat="45.07758569015591" lon="6.891448411610591"><ele>1006.5</ele><time>2026-04-19T13:41:39Z</time></trkpt><trkpt lat="45.07733694539854" lon="6.89107703296161"><ele>1005.0</ele><time>2026-04-19T13:41:40Z</time></trkpt><trkpt lat="45.07714058010321" lon="6.890729597420193"><ele>1005.0</ele><time>2026-04-19T13:41:41Z</time></trkpt><trkpt lat="45.07698705095676" lon="6.8903490323152266"><ele>1005.0</ele><time>2026-04-19T13:41:42Z</time></trkpt><trkpt lat="45.076859429551945" lon="6.889945332147637"><ele>1007.5</ele><time>2026-04-19T13:41:43Z</time></trkpt><trkpt lat="45.07667395980174" lon="6.889618102142261"><ele>1010.0</ele><time>2026-04-19T13:41:44Z</time></trkpt><trkpt lat="45.07641364071544" lon="6.889253061877193"><ele>1010.0</ele><time>2026-04-19T13:41:45Z</time></trkpt><trkpt lat="45.076208020189185" lon="6.888911642727552"><ele>1010.0</ele><time>2026-04-19T13:41:46Z</time></trkpt><trkpt lat="45.07601752450052" lon="6.888677931729509"><ele>1010.0</ele><time>2026-04-19T13:41:47Z</time></trkpt><trkpt lat="45.075906588540995" lon="6.888432962155681"><ele>1010.0</ele><time>2026-04-19T13:41:48Z</time></trkpt><trkpt lat="45.07578959544517" lon="6.8881239251712945"><ele>1012.0</ele><time>2026-04-19T13:41:49Z</time></trkpt><trkpt lat="45.075643912456464" lon="6.887805108666515"><ele>1014.0</ele><time>2026-04-19T13:41:50Z</time></trkpt><trkpt lat="45.075496489824275" lon="6.887532868678047"><ele>1014.0</ele><time>2026-04-19T13:41:51Z</time></trkpt><trkpt lat="45.075362050705884" lon="6.887370714500297"><ele>1014.0</ele><time>2026-04-19T13:41:52Z</time></trkpt><trkpt lat="45.07515206529771" lon="6.887209377767561"><ele>1014.0</ele><time>2026-04-19T13:41:53Z</time></trkpt><trkpt lat="45.074990745753034" lon="6.886997183327096"><ele>1012.0</ele><time>2026-04-19T13:41:54Z</time></trkpt><trkpt lat="45.07487395236945" lon="6.886770028581719"><ele>1010.0</ele><time>2026-04-19T13:41:55Z</time></trkpt><trkpt lat="45.07473753829824" lon="6.8864875030331385"><ele>1008.0</ele><time>2026-04-19T13:41:56Z</time></trkpt><trkpt lat="45.0746069035884" lon="6.8862440113613435"><ele>1008.0</ele><time>2026-04-19T13:41:57Z</time></trkpt><trkpt lat="45.07445370598361" lon="6.886032313104911"><ele>1008.0</ele><time>2026-04-19T13:41:58Z</time></trkpt><trkpt lat="45.07431610945405" lon="6.885829967268144"><ele>1008.0</ele><time>2026-04-19T13:41:59Z</time></trkpt><trkpt lat="45.07419562162365" lon="6.885650044684453"><ele>1010.0</ele><time>2026-04-19T13:42:00Z</time></trkpt><trkpt lat="45.074057085514916" lon="6.885483338594999"><ele>1012.0</ele><time>2026-04-19T13:42:01Z</time></trkpt><trkpt lat="45.0739167931331" lon="6.885386363571574"><ele>1014.0</ele><time>2026-04-19T13:42:02Z</time></trkpt><trkpt lat="45.07377511986734" lon="6.885269492386456"><ele>1014.0</ele><time>2026-04-19T13:42:03Z</time></trkpt><trkpt lat="45.0735987064147" lon="6.88517162491363"><ele>1014.0</ele><time>2026-04-19T13:42:04Z</time></trkpt><trkpt lat="45.073410835343346" lon="6.885059183796284"><ele>1014.0</ele><time>2026-04-19T13:42:05Z</time></trkpt><trkpt lat="45.07321233735212" lon="6.88499762537565"><ele>1016.3333333333333</ele><time>2026-04-19T13:42:06Z</time></trkpt><trkpt lat="45.07302506978687" lon="6.8849469858468755"><ele>1018.6666666666666</ele><time>2026-04-19T13:42:07Z</time></trkpt><trkpt lat="45.07285484530132" lon="6.8848794737055075"><ele>1021.0</ele><time>2026-04-19T13:42:08Z</time></trkpt><trkpt lat="45.07267052997467" lon="6.8848031761428885"><ele>1021.0</ele><time>2026-04-19T13:42:09Z</time></trkpt><trkpt lat="45.07248632987467" lon="6.884733863900109"><ele>1021.0</ele><time>2026-04-19T13:42:10Z</time></trkpt><trkpt lat="45.072310066788674" lon="6.884660953112277"><ele>1021.0</ele><time>2026-04-19T13:42:11Z</time></trkpt><trkpt lat="45.07213783024535" lon="6.884597059726938"><ele>1019.0</ele><time>2026-04-19T13:42:12Z</time></trkpt><trkpt lat="45.07194882519277" lon="6.88453554149601"><ele>1017.0</ele><time>2026-04-19T13:42:13Z</time></trkpt><trkpt lat="45.071760235493585" lon="6.88445258194645"><ele>1015.0</ele><time>2026-04-19T13:42:14Z</time></trkpt><trkpt lat="45.07155694961792" lon="6.884380162297428"><ele>1014.6666666666666</ele><time>2026-04-19T13:42:15Z</time></trkpt><trkpt lat="45.07135076779451" lon="6.884301208780015"><ele>1014.3333333333333</ele><time>2026-04-19T13:42:16Z</time></trkpt><trkpt lat="45.07115686734789" lon="6.884186096002068"><ele>1014.0</ele><time>2026-04-19T13:42:17Z</time></trkpt><trkpt lat="45.070974483626905" lon="6.8840556403257525"><ele>1014.3333333333333</ele><time>2026-04-19T13:42:18Z</time></trkpt><trkpt lat="45.07080428917929" lon="6.883917736425948"><ele>1014.6666666666666</ele><time>2026-04-19T13:42:19Z</time></trkpt><trkpt lat="45.070665325732534" lon="6.883724374262625"><ele>1015.0</ele><time>2026-04-19T13:42:20Z</time></trkpt><trkpt lat="45.0705396663066" lon="6.883490657992019"><ele>1019.5</ele><time>2026-04-19T13:42:21Z</time></trkpt><trkpt lat="45.070416868099024" lon="6.88323131680015"><ele>1024.0</ele><time>2026-04-19T13:42:22Z</time></trkpt><trkpt lat="45.07028892251815" lon="6.8829515159070676"><ele>1024.0</ele><time>2026-04-19T13:42:23Z</time></trkpt><trkpt lat="45.070155017646854" lon="6.88265579166126"><ele>1024.0</ele><time>2026-04-19T13:42:24Z</time></trkpt><trkpt lat="45.07001621975062" lon="6.882360254179723"><ele>1022.5</ele><time>2026-04-19T13:42:25Z</time></trkpt><trkpt lat="45.06987884396919" lon="6.8820632384665466"><ele>1021.0</ele><time>2026-04-19T13:42:26Z</time></trkpt><trkpt lat="45.069785862341114" lon="6.881730890094951"><ele>1024.5</ele><time>2026-04-19T13:42:27Z</time></trkpt><trkpt lat="45.06969150669919" lon="6.881373042743924"><ele>1028.0</ele><time>2026-04-19T13:42:28Z</time></trkpt><trkpt lat="45.06958440151694" lon="6.881003724538261"><ele>1031.5</ele><time>2026-04-19T13:42:29Z</time></trkpt><trkpt lat="45.06949575772155" lon="6.880646194527218"><ele>1035.0</ele><time>2026-04-19T13:42:30Z</time></trkpt><trkpt lat="45.069412713834595" lon="6.880308926848262"><ele>1036.0</ele><time>2026-04-19T13:42:31Z</time></trkpt><trkpt lat="45.069324962557616" lon="6.87997353310937"><ele>1037.0</ele><time>2026-04-19T13:42:32Z</time></trkpt><trkpt lat="45.069242714062575" lon="6.87965267490283"><ele>1037.0</ele><time>2026-04-19T13:42:33Z</time></trkpt><trkpt lat="45.06916264493886" lon="6.879355281230159"><ele>1037.0</ele><time>2026-04-19T13:42:34Z</time></trkpt><trkpt lat="45.06908657308152" lon="6.879073639105573"><ele>1037.0</ele><time>2026-04-19T13:42:35Z</time></trkpt><trkpt lat="45.06900109433514" lon="6.878812195736965"><ele>1035.3333333333335</ele><time>2026-04-19T13:42:36Z</time></trkpt><trkpt lat="45.06889403751091" lon="6.878579988616439"><ele>1033.6666666666667</ele><time>2026-04-19T13:42:37Z</time></trkpt><trkpt lat="45.06877485236317" lon="6.878372420369265"><ele>1032.0</ele><time>2026-04-19T13:42:38Z</time></trkpt><trkpt lat="45.06863779426199" lon="6.8781746793796446"><ele>1032.0</ele><time>2026-04-19T13:42:39Z</time></trkpt><trkpt lat="45.06850391653409" lon="6.877961822976968"><ele>1032.0</ele><time>2026-04-19T13:42:40Z</time></trkpt><trkpt lat="45.06836175251001" lon="6.8777512014146005"><ele>1032.0</ele><time>2026-04-19T13:42:41Z</time></trkpt><trkpt lat="45.06815897442586" lon="6.877620342720648"><ele>1030.0</ele><time>2026-04-19T13:42:42Z</time></trkpt><trkpt lat="45.06800220548812" lon="6.877426783813587"><ele>1028.0</ele><time>2026-04-19T13:42:43Z</time></trkpt><trkpt lat="45.06783559327928" lon="6.877230962397456"><ele>1026.0</ele><time>2026-04-19T13:42:44Z</time></trkpt><trkpt lat="45.067654297038914" lon="6.877033415768271"><ele>1026.0</ele><time>2026-04-19T13:42:45Z</time></trkpt><trkpt lat="45.06747261177273" lon="6.876827932346641"><ele>1026.0</ele><time>2026-04-19T13:42:46Z</time></trkpt><trkpt lat="45.06729385215062" lon="6.876616604792072"><ele>1027.0</ele><time>2026-04-19T13:42:47Z</time></trkpt><trkpt lat="45.06711218433564" lon="6.876397569913638"><ele>1028.0</ele><time>2026-04-19T13:42:48Z</time></trkpt><trkpt lat="45.066927543979595" lon="6.876171874520874"><ele>1028.0</ele><time>2026-04-19T13:42:49Z</time></trkpt><trkpt lat="45.06674114138105" lon="6.875941946221494"><ele>1028.0</ele><time>2026-04-19T13:42:50Z</time></trkpt><trkpt lat="45.066560316891795" lon="6.8756925808156595"><ele>1028.0</ele><time>2026-04-19T13:42:51Z</time></trkpt><trkpt lat="45.06637126320629" lon="6.875449254080888"><ele>1028.0</ele><time>2026-04-19T13:42:52Z</time></trkpt><trkpt lat="45.066179320930615" lon="6.875206480402633"><ele>1027.5</ele><time>2026-04-19T13:42:53Z</time></trkpt><trkpt lat="45.06598709841628" lon="6.874965219956453"><ele>1027.0</ele><time>2026-04-19T13:42:54Z</time></trkpt><trkpt lat="45.06578785169299" lon="6.874721543017493"><ele>1026.5</ele><time>2026-04-19T13:42:55Z</time></trkpt><trkpt lat="45.06559064910102" lon="6.874479372229887"><ele>1026.0</ele><time>2026-04-19T13:42:56Z</time></trkpt><trkpt lat="45.065391583523095" lon="6.874231574249802"><ele>1026.0</ele><time>2026-04-19T13:42:57Z</time></trkpt><trkpt lat="45.065200099026875" lon="6.873970054256425"><ele>1026.0</ele><time>2026-04-19T13:42:58Z</time></trkpt><trkpt lat="45.065019617722946" lon="6.873692863207424"><ele>1026.0</ele><time>2026-04-19T13:42:59Z</time></trkpt><trkpt lat="45.06485076673584" lon="6.873392665235047"><ele>1026.0</ele><time>2026-04-19T13:42:59.999Z</time></trkpt><trkpt lat="45.064681886310616" lon="6.873087243468435"><ele>1026.0</ele><time>2026-04-19T13:43:00.999Z</time></trkpt><trkpt lat="45.0645086605357" lon="6.872782599062914"><ele>1026.0</ele><time>2026-04-19T13:43:01.999Z</time></trkpt><trkpt lat="45.06433456631379" lon="6.872472960266897"><ele>1026.0</ele><time>2026-04-19T13:43:02.999Z</time></trkpt><trkpt lat="45.0641691363838" lon="6.872142306795251"><ele>1026.0</ele><time>2026-04-19T13:43:03.999Z</time></trkpt><trkpt lat="45.06402850171938" lon="6.8717871991796535"><ele>1025.5</ele><time>2026-04-19T13:43:04.999Z</time></trkpt><trkpt lat="45.06390051545007" lon="6.8714084546266925"><ele>1025.0</ele><time>2026-04-19T13:43:05.999Z</time></trkpt><trkpt lat="45.06378300631386" lon="6.871016992359943"><ele>1025.0</ele><time>2026-04-19T13:43:06.999Z</time></trkpt><trkpt lat="45.06365969701719" lon="6.870626771461333"><ele>1025.0</ele><time>2026-04-19T13:43:07.999Z</time></trkpt><trkpt lat="45.06351449000414" lon="6.870271283700493"><ele>1025.0</ele><time>2026-04-19T13:43:08.999Z</time></trkpt><trkpt lat="45.063340420495095" lon="6.869979624735516"><ele>1025.0</ele><time>2026-04-19T13:43:09.999Z</time></trkpt><trkpt lat="45.063134248556125" lon="6.869728465050324"><ele>1025.0</ele><time>2026-04-19T13:43:10.999Z</time></trkpt><trkpt lat="45.06289078102467" lon="6.869484662102047"><ele>1025.0</ele><time>2026-04-19T13:43:11.999Z</time></trkpt><trkpt lat="45.062628490881046" lon="6.869227689558207"><ele>1025.0</ele><time>2026-04-19T13:43:12.999Z</time></trkpt><trkpt lat="45.06237011484239" lon="6.868959929038542"><ele>1025.0</ele><time>2026-04-19T13:43:13.999Z</time></trkpt><trkpt lat="45.06211219796722" lon="6.868698139350223"><ele>1024.5</ele><time>2026-04-19T13:43:14.999Z</time></trkpt><trkpt lat="45.06186161924171" lon="6.868442896451451"><ele>1024.0</ele><time>2026-04-19T13:43:15.999Z</time></trkpt><trkpt lat="45.06161034004533" lon="6.868197677724719"><ele>1025.0</ele><time>2026-04-19T13:43:17Z</time></trkpt><trkpt lat="45.06135944382177" lon="6.867957806509589"><ele>1026.0</ele><time>2026-04-19T13:43:18Z</time></trkpt><trkpt lat="45.061119058730554" lon="6.867748734191232"><ele>1025.5</ele><time>2026-04-19T13:43:19Z</time></trkpt><trkpt lat="45.06089439224656" lon="6.86755758293618"><ele>1025.0</ele><time>2026-04-19T13:43:20Z</time></trkpt><trkpt lat="45.06067468691023" lon="6.867370025213669"><ele>1026.0</ele><time>2026-04-19T13:43:21Z</time></trkpt><trkpt lat="45.06045463400401" lon="6.867181877261866"><ele>1027.0</ele><time>2026-04-19T13:43:22Z</time></trkpt><trkpt lat="45.06023608577405" lon="6.866989351824433"><ele>1027.0</ele><time>2026-04-19T13:43:23Z</time></trkpt><trkpt lat="45.060029608650105" lon="6.866767749649394"><ele>1027.0</ele><time>2026-04-19T13:43:24Z</time></trkpt><trkpt lat="45.05982013199826" lon="6.866538282153004"><ele>1027.0</ele><time>2026-04-19T13:43:25Z</time></trkpt><trkpt lat="45.05960978804688" lon="6.866285801214683"><ele>1027.0</ele><time>2026-04-19T13:43:26Z</time></trkpt><trkpt lat="45.05939225083392" lon="6.866022816468467"><ele>1027.0</ele><time>2026-04-19T13:43:27Z</time></trkpt><trkpt lat="45.059176808797986" lon="6.865762008520227"><ele>1027.0</ele><time>2026-04-19T13:43:28Z</time></trkpt><trkpt lat="45.05896305469522" lon="6.865495708994085"><ele>1029.0</ele><time>2026-04-19T13:43:29Z</time></trkpt><trkpt lat="45.05876047005335" lon="6.865216059380352"><ele>1031.0</ele><time>2026-04-19T13:43:30Z</time></trkpt><trkpt lat="45.058565733098135" lon="6.864918031186103"><ele>1031.0</ele><time>2026-04-19T13:43:31Z</time></trkpt><trkpt lat="45.05837367064519" lon="6.86461899195744"><ele>1031.0</ele><time>2026-04-19T13:43:32Z</time></trkpt><trkpt lat="45.058183448897005" lon="6.864315551696457"><ele>1031.5</ele><time>2026-04-19T13:43:33Z</time></trkpt><trkpt lat="45.05800828786586" lon="6.8639941416931105"><ele>1032.0</ele><time>2026-04-19T13:43:34Z</time></trkpt><trkpt lat="45.057862715689076" lon="6.863644841525449"><ele>1030.5</ele><time>2026-04-19T13:43:35Z</time></trkpt><trkpt lat="45.05768773862978" lon="6.863320271774146"><ele>1029.0</ele><time>2026-04-19T13:43:36Z</time></trkpt><trkpt lat="45.057497031848015" lon="6.86298728935701"><ele>1030.0</ele><time>2026-04-19T13:43:37Z</time></trkpt><trkpt lat="45.05725684657926" lon="6.862670428015729"><ele>1031.0</ele><time>2026-04-19T13:43:38Z</time></trkpt><trkpt lat="45.057028418713216" lon="6.862322920382449"><ele>1031.0</ele><time>2026-04-19T13:43:39Z</time></trkpt><trkpt lat="45.05678617212724" lon="6.861996316317813"><ele>1031.0</ele><time>2026-04-19T13:43:40Z</time></trkpt><trkpt lat="45.05656323728779" lon="6.861665515693738"><ele>1031.5</ele><time>2026-04-19T13:43:41Z</time></trkpt><trkpt lat="45.056348399969615" lon="6.861351731103761"><ele>1032.0</ele><time>2026-04-19T13:43:42Z</time></trkpt><trkpt lat="45.0561476334949" lon="6.861042702965165"><ele>1033.5</ele><time>2026-04-19T13:43:43Z</time></trkpt><trkpt lat="45.05595400800077" lon="6.860739117266522"><ele>1035.0</ele><time>2026-04-19T13:43:44Z</time></trkpt><trkpt lat="45.05577737695642" lon="6.8604438629411835"><ele>1035.0</ele><time>2026-04-19T13:43:45Z</time></trkpt><trkpt lat="45.05562111209779" lon="6.860142401108159"><ele>1035.0</ele><time>2026-04-19T13:43:46Z</time></trkpt><trkpt lat="45.05547342011345" lon="6.859842992155128"><ele>1035.5</ele><time>2026-04-19T13:43:47Z</time></trkpt><trkpt lat="45.05534235186871" lon="6.859564461909199"><ele>1036.0</ele><time>2026-04-19T13:43:48Z</time></trkpt><trkpt lat="45.05521719912381" lon="6.859304519675325"><ele>1035.6666666666665</ele><time>2026-04-19T13:43:49Z</time></trkpt><trkpt lat="45.05511673952618" lon="6.8590565002827395"><ele>1035.3333333333333</ele><time>2026-04-19T13:43:50Z</time></trkpt><trkpt lat="45.05501723934574" lon="6.858844496681809"><ele>1035.0</ele><time>2026-04-19T13:43:51Z</time></trkpt><trkpt lat="45.05490217512318" lon="6.85866740470278"><ele>1035.0</ele><time>2026-04-19T13:43:52Z</time></trkpt><trkpt lat="45.05481165765903" lon="6.858476082063934"><ele>1035.0</ele><time>2026-04-19T13:43:53Z</time></trkpt><trkpt lat="45.05472363288322" lon="6.858284014941973"><ele>1035.0</ele><time>2026-04-19T13:43:54Z</time></trkpt><trkpt lat="45.05463260455897" lon="6.858089316804007"><ele>1036.3333333333333</ele><time>2026-04-19T13:43:55Z</time></trkpt><trkpt lat="45.054551792158094" lon="6.857869941010117"><ele>1037.6666666666665</ele><time>2026-04-19T13:43:56Z</time></trkpt><trkpt lat="45.05443913514193" lon="6.857634548129141"><ele>1039.0</ele><time>2026-04-19T13:43:57Z</time></trkpt><trkpt lat="45.05431636781663" lon="6.857377981647571"><ele>1039.6666666666665</ele><time>2026-04-19T13:43:58Z</time></trkpt><trkpt lat="45.05419333952086" lon="6.857121862016467"><ele>1040.3333333333333</ele><time>2026-04-19T13:43:59Z</time></trkpt><trkpt lat="45.05406951296219" lon="6.856864297820916"><ele>1041.0</ele><time>2026-04-19T13:44:00Z</time></trkpt><trkpt lat="45.05395017254112" lon="6.85661606498556"><ele>1041.0</ele><time>2026-04-19T13:44:01Z</time></trkpt><trkpt lat="45.053837917306836" lon="6.856386293052302"><ele>1041.0</ele><time>2026-04-19T13:44:02Z</time></trkpt><trkpt lat="45.05372187321318" lon="6.856155233534676"><ele>1041.0</ele><time>2026-04-19T13:44:03Z</time></trkpt><trkpt lat="45.053578261273756" lon="6.855944337454297"><ele>1040.3333333333333</ele><time>2026-04-19T13:44:04Z</time></trkpt><trkpt lat="45.053450783169765" lon="6.855743730554747"><ele>1039.6666666666665</ele><time>2026-04-19T13:44:05Z</time></trkpt><trkpt lat="45.05334026442501" lon="6.855555659179002"><ele>1039.0</ele><time>2026-04-19T13:44:06Z</time></trkpt><trkpt lat="45.0532277395095" lon="6.855394353789915"><ele>1039.0</ele><time>2026-04-19T13:44:07Z</time></trkpt><trkpt lat="45.05311500544063" lon="6.855241455083407"><ele>1039.0</ele><time>2026-04-19T13:44:08Z</time></trkpt><trkpt lat="45.05299359757193" lon="6.855078837005408"><ele>1039.0</ele><time>2026-04-19T13:44:09Z</time></trkpt><trkpt lat="45.0528561724279" lon="6.854898220637359"><ele>1041.0</ele><time>2026-04-19T13:44:10Z</time></trkpt><trkpt lat="45.052575597087554" lon="6.854892663250054"><ele>1043.0</ele><time>2026-04-19T13:44:11Z</time></trkpt><trkpt lat="45.05235043053637" lon="6.854751646380021"><ele>1043.0</ele><time>2026-04-19T13:44:12Z</time></trkpt><trkpt lat="45.05211786309354" lon="6.854596441652604"><ele>1043.0</ele><time>2026-04-19T13:44:13Z</time></trkpt><trkpt lat="45.05186648685402" lon="6.854430572594172"><ele>1042.5</ele><time>2026-04-19T13:44:14Z</time></trkpt><trkpt lat="45.05161805259369" lon="6.854260973786569"><ele>1042.0</ele><time>2026-04-19T13:44:15Z</time></trkpt><trkpt lat="45.05138180212086" lon="6.854073672866663"><ele>1042.0</ele><time>2026-04-19T13:44:16Z</time></trkpt><trkpt lat="45.0511247748921" lon="6.853914005301978"><ele>1042.0</ele><time>2026-04-19T13:44:17Z</time></trkpt><trkpt lat="45.05086557487445" lon="6.85369869603178"><ele>1043.0</ele><time>2026-04-19T13:44:18Z</time></trkpt><trkpt lat="45.05061206909954" lon="6.853437286438627"><ele>1044.0</ele><time>2026-04-19T13:44:19Z</time></trkpt><trkpt lat="45.05034447374472" lon="6.853178244273649"><ele>1044.0</ele><time>2026-04-19T13:44:20Z</time></trkpt><trkpt lat="45.05006858291167" lon="6.852915627988341"><ele>1044.0</ele><time>2026-04-19T13:44:21Z</time></trkpt><trkpt lat="45.04978376574381" lon="6.852644299789237"><ele>1044.0</ele><time>2026-04-19T13:44:22Z</time></trkpt><trkpt lat="45.04948834179833" lon="6.852364096592087"><ele>1044.0</ele><time>2026-04-19T13:44:23Z</time></trkpt><trkpt lat="45.0491809943043" lon="6.852096507793012"><ele>1045.0</ele><time>2026-04-19T13:44:24Z</time></trkpt><trkpt lat="45.04887558009936" lon="6.851799373214187"><ele>1046.0</ele><time>2026-04-19T13:44:25Z</time></trkpt><trkpt lat="45.04856175621399" lon="6.851468843657055"><ele>1046.0</ele><time>2026-04-19T13:44:26Z</time></trkpt><trkpt lat="45.04825962880438" lon="6.851088677691776"><ele>1046.0</ele><time>2026-04-19T13:44:27Z</time></trkpt><trkpt lat="45.047971986628205" lon="6.850769666138346"><ele>1046.5</ele><time>2026-04-19T13:44:28Z</time></trkpt><trkpt lat="45.04772041835309" lon="6.850467831866421"><ele>1047.0</ele><time>2026-04-19T13:44:29Z</time></trkpt><trkpt lat="45.04747680529796" lon="6.8501751447732495"><ele>1047.5</ele><time>2026-04-19T13:44:30Z</time></trkpt><trkpt lat="45.04723020275501" lon="6.849881658552801"><ele>1048.0</ele><time>2026-04-19T13:44:31Z</time></trkpt><trkpt lat="45.04698737220204" lon="6.849587517188114"><ele>1048.0</ele><time>2026-04-19T13:44:32Z</time></trkpt><trkpt lat="45.0467601615809" lon="6.849307235818452"><ele>1048.0</ele><time>2026-04-19T13:44:33Z</time></trkpt><trkpt lat="45.04654771676004" lon="6.849052097126665"><ele>1049.0</ele><time>2026-04-19T13:44:34Z</time></trkpt><trkpt lat="45.046336882541326" lon="6.848802725602742"><ele>1050.0</ele><time>2026-04-19T13:44:35Z</time></trkpt><trkpt lat="45.04612421424272" lon="6.848550406695655"><ele>1050.0</ele><time>2026-04-19T13:44:36Z</time></trkpt><trkpt lat="45.045925127085596" lon="6.848315369215963"><ele>1050.0</ele><time>2026-04-19T13:44:37Z</time></trkpt><trkpt lat="45.04573903767271" lon="6.848098396771713"><ele>1049.6666666666667</ele><time>2026-04-19T13:44:38Z</time></trkpt><trkpt lat="45.04557854653625" lon="6.84787522711351"><ele>1049.3333333333335</ele><time>2026-04-19T13:44:39Z</time></trkpt><trkpt lat="45.045417397699396" lon="6.8476798225158975"><ele>1049.0</ele><time>2026-04-19T13:44:40Z</time></trkpt><trkpt lat="45.04527184650771" lon="6.847505260980779"><ele>1049.0</ele><time>2026-04-19T13:44:41Z</time></trkpt><trkpt lat="45.04513108607856" lon="6.847338185305591"><ele>1049.0</ele><time>2026-04-19T13:44:42Z</time></trkpt><trkpt lat="45.04499625980922" lon="6.8471776799100805"><ele>1049.0</ele><time>2026-04-19T13:44:43Z</time></trkpt><trkpt lat="45.04486596889069" lon="6.847022573638421"><ele>1049.3333333333335</ele><time>2026-04-19T13:44:44Z</time></trkpt><trkpt lat="45.04472493225459" lon="6.846881497651042"><ele>1049.6666666666667</ele><time>2026-04-19T13:44:45Z</time></trkpt><trkpt lat="45.044580998044964" lon="6.846710083342778"><ele>1050.0</ele><time>2026-04-19T13:44:46Z</time></trkpt><trkpt lat="45.044448357047465" lon="6.84652220891818"><ele>1050.3333333333333</ele><time>2026-04-19T13:44:47Z</time></trkpt><trkpt lat="45.04430737129735" lon="6.8463529168931005"><ele>1050.6666666666665</ele><time>2026-04-19T13:44:48Z</time></trkpt><trkpt lat="45.04417345091286" lon="6.8461921087860125"><ele>1051.0</ele><time>2026-04-19T13:44:49Z</time></trkpt><trkpt lat="45.044042391825755" lon="6.846034736368985"><ele>1052.0</ele><time>2026-04-19T13:44:50Z</time></trkpt><trkpt lat="45.04385984810326" lon="6.845837148934029"><ele>1053.0</ele><time>2026-04-19T13:44:51Z</time></trkpt><trkpt lat="45.0436725824773" lon="6.845614950131299"><ele>1053.0</ele><time>2026-04-19T13:44:52Z</time></trkpt><trkpt lat="45.04350854515788" lon="6.8454223029577275"><ele>1053.0</ele><time>2026-04-19T13:44:53Z</time></trkpt><trkpt lat="45.04336338745316" lon="6.8452215566617625"><ele>1053.0</ele><time>2026-04-19T13:44:54Z</time></trkpt><trkpt lat="45.0431776628147" lon="6.8450005386728865"><ele>1053.5</ele><time>2026-04-19T13:44:55Z</time></trkpt><trkpt lat="45.042967038671414" lon="6.844778916843164"><ele>1054.0</ele><time>2026-04-19T13:44:56Z</time></trkpt><trkpt lat="45.042794316606255" lon="6.844571842179085"><ele>1054.0</ele><time>2026-04-19T13:44:57Z</time></trkpt><trkpt lat="45.04263632344187" lon="6.844381403854584"><ele>1054.0</ele><time>2026-04-19T13:44:58Z</time></trkpt><trkpt lat="45.042490759956706" lon="6.844203508584622"><ele>1054.0</ele><time>2026-04-19T13:44:59Z</time></trkpt><trkpt lat="45.042356309265614" lon="6.8440382489533675"><ele>1054.6666666666665</ele><time>2026-04-19T13:45:00Z</time></trkpt><trkpt lat="45.04223166792883" lon="6.843883540380718"><ele>1055.3333333333333</ele><time>2026-04-19T13:45:01Z</time></trkpt><trkpt lat="45.042113687621004" lon="6.843734126521625"><ele>1056.0</ele><time>2026-04-19T13:45:02Z</time></trkpt><trkpt lat="45.041992634287716" lon="6.843582103746226"><ele>1056.25</ele><time>2026-04-19T13:45:03Z</time></trkpt><trkpt lat="45.04188986787536" lon="6.843430548948575"><ele>1056.5</ele><time>2026-04-19T13:45:04Z</time></trkpt><trkpt lat="45.04182671153048" lon="6.843279354471386"><ele>1056.75</ele><time>2026-04-19T13:45:05Z</time></trkpt><trkpt lat="45.04177890087501" lon="6.843119983481926"><ele>1057.0</ele><time>2026-04-19T13:45:06Z</time></trkpt><trkpt lat="45.04166819393568" lon="6.842990512303541"><ele>1057.3333333333333</ele><time>2026-04-19T13:45:07Z</time></trkpt><trkpt lat="45.0415062545357" lon="6.8429337317739956"><ele>1057.6666666666667</ele><time>2026-04-19T13:45:08Z</time></trkpt><trkpt lat="45.04135223603173" lon="6.842828856124997"><ele>1058.0</ele><time>2026-04-19T13:45:09Z</time></trkpt><trkpt lat="45.04120984268882" lon="6.842670293594192"><ele>1058.6666666666667</ele><time>2026-04-19T13:45:10Z</time></trkpt><trkpt lat="45.04106452500471" lon="6.842503679452548"><ele>1059.3333333333333</ele><time>2026-04-19T13:45:11Z</time></trkpt><trkpt lat="45.04092496187701" lon="6.842313786500816"><ele>1060.0</ele><time>2026-04-19T13:45:12Z</time></trkpt><trkpt lat="45.04077119198673" lon="6.842137567549524"><ele>1060.6666666666665</ele><time>2026-04-19T13:45:13Z</time></trkpt><trkpt lat="45.04061841314277" lon="6.841993456388705"><ele>1061.3333333333333</ele><time>2026-04-19T13:45:14Z</time></trkpt><trkpt lat="45.040487704939" lon="6.841842835471114"><ele>1062.0</ele><time>2026-04-19T13:45:15Z</time></trkpt><trkpt lat="45.040352831641215" lon="6.841682451982018"><ele>1062.0</ele><time>2026-04-19T13:45:16Z</time></trkpt><trkpt lat="45.04020969525651" lon="6.841520372939807"><ele>1062.0</ele><time>2026-04-19T13:45:17Z</time></trkpt><trkpt lat="45.04005937810727" lon="6.841360725865369"><ele>1062.0</ele><time>2026-04-19T13:45:18Z</time></trkpt><trkpt lat="45.03991864435652" lon="6.841177795878108"><ele>1062.3333333333333</ele><time>2026-04-19T13:45:18.999Z</time></trkpt><trkpt lat="45.03976027837617" lon="6.841010758466627"><ele>1062.6666666666665</ele><time>2026-04-19T13:45:19.999Z</time></trkpt><trkpt lat="45.03959561890236" lon="6.840840923113451"><ele>1063.0</ele><time>2026-04-19T13:45:20.999Z</time></trkpt><trkpt lat="45.03942227539799" lon="6.840665639886093"><ele>1063.0</ele><time>2026-04-19T13:45:21.999Z</time></trkpt><trkpt lat="45.03924500954483" lon="6.84048487866782"><ele>1063.0</ele><time>2026-04-19T13:45:23Z</time></trkpt><trkpt lat="45.03908407186884" lon="6.8403210978008495"><ele>1063.0</ele><time>2026-04-19T13:45:24Z</time></trkpt><trkpt lat="45.0389361906617" lon="6.84017059174701"><ele>1065.6666666666665</ele><time>2026-04-19T13:45:25Z</time></trkpt><trkpt lat="45.03879704553116" lon="6.84002897694202"><ele>1068.3333333333333</ele><time>2026-04-19T13:45:26Z</time></trkpt><trkpt lat="45.03865700594347" lon="6.839886451662713"><ele>1071.0</ele><time>2026-04-19T13:45:27Z</time></trkpt><trkpt lat="45.03852372534995" lon="6.839751267842475"><ele>1071.0</ele><time>2026-04-19T13:45:28Z</time></trkpt><trkpt lat="45.038400658253636" lon="6.839626595999627"><ele>1071.0</ele><time>2026-04-19T13:45:29Z</time></trkpt><trkpt lat="45.038284269387525" lon="6.8395086894655135"><ele>1071.0</ele><time>2026-04-19T13:45:30Z</time></trkpt><trkpt lat="45.03816596405481" lon="6.839388841462214"><ele>1071.0</ele><time>2026-04-19T13:45:31Z</time></trkpt><trkpt lat="45.03803514778037" lon="6.839283527658611"><ele>1072.25</ele><time>2026-04-19T13:45:32Z</time></trkpt><trkpt lat="45.037910485542156" lon="6.839159444575588"><ele>1073.5</ele><time>2026-04-19T13:45:33Z</time></trkpt><trkpt lat="45.03778905637249" lon="6.839041010535916"><ele>1074.75</ele><time>2026-04-19T13:45:34Z</time></trkpt><trkpt lat="45.03768728481437" lon="6.838913537519336"><ele>1076.0</ele><time>2026-04-19T13:45:35Z</time></trkpt><trkpt lat="45.03757906258428" lon="6.838835460096469"><ele>1076.0</ele><time>2026-04-19T13:45:36Z</time></trkpt><trkpt lat="45.03748162990956" lon="6.838739732245684"><ele>1076.0</ele><time>2026-04-19T13:45:37Z</time></trkpt><trkpt lat="45.0373735506674" lon="6.838639877054946"><ele>1076.0</ele><time>2026-04-19T13:45:38Z</time></trkpt><trkpt lat="45.037260607364466" lon="6.838534613729227"><ele>1076.0</ele><time>2026-04-19T13:45:39Z</time></trkpt><trkpt lat="45.03715573543545" lon="6.838426075028117"><ele>1076.75</ele><time>2026-04-19T13:45:40Z</time></trkpt><trkpt lat="45.0370471322698" lon="6.838316675873124"><ele>1077.5</ele><time>2026-04-19T13:45:41Z</time></trkpt><trkpt lat="45.03693770873633" lon="6.838183564276749"><ele>1078.25</ele><time>2026-04-19T13:45:42Z</time></trkpt><trkpt lat="45.0368173478533" lon="6.838065895806848"><ele>1079.0</ele><time>2026-04-19T13:45:43Z</time></trkpt><trkpt lat="45.036687954412685" lon="6.8379393967465925"><ele>1079.0</ele><time>2026-04-19T13:45:44Z</time></trkpt><trkpt lat="45.036545730708724" lon="6.837800356797198"><ele>1079.0</ele><time>2026-04-19T13:45:45Z</time></trkpt><trkpt lat="45.03639047787607" lon="6.837645621380909"><ele>1079.0</ele><time>2026-04-19T13:45:46Z</time></trkpt><trkpt lat="45.036219473007996" lon="6.837517809734199"><ele>1079.0</ele><time>2026-04-19T13:45:47Z</time></trkpt><trkpt lat="45.03607453157826" lon="6.8373637054482606"><ele>1079.0</ele><time>2026-04-19T13:45:48Z</time></trkpt><trkpt lat="45.035937178462646" lon="6.837223828465324"><ele>1079.0</ele><time>2026-04-19T13:45:49Z</time></trkpt><trkpt lat="45.03580380377476" lon="6.837093768206431"><ele>1078.25</ele><time>2026-04-19T13:45:50Z</time></trkpt><trkpt lat="45.035679660064616" lon="6.836959978238738"><ele>1077.5</ele><time>2026-04-19T13:45:51Z</time></trkpt><trkpt lat="45.03557479330066" lon="6.836807323377486"><ele>1076.75</ele><time>2026-04-19T13:45:52Z</time></trkpt><trkpt lat="45.03546993040499" lon="6.836676246671314"><ele>1076.0</ele><time>2026-04-19T13:45:53Z</time></trkpt><trkpt lat="45.03536486276524" lon="6.8365688992118665"><ele>1076.0</ele><time>2026-04-19T13:45:54Z</time></trkpt><trkpt lat="45.03528052692807" lon="6.83644952222111"><ele>1076.0</ele><time>2026-04-19T13:45:55Z</time></trkpt><trkpt lat="45.03520297078636" lon="6.836336101908681"><ele>1076.0</ele><time>2026-04-19T13:45:56Z</time></trkpt><trkpt lat="45.03512841356596" lon="6.836230277900506"><ele>1076.0</ele><time>2026-04-19T13:45:57Z</time></trkpt><trkpt lat="45.03505883519009" lon="6.836126371625134"><ele>1076.0</ele><time>2026-04-19T13:45:58Z</time></trkpt><trkpt lat="45.034988425426505" lon="6.836034667168628"><ele>1076.5</ele><time>2026-04-19T13:45:59Z</time></trkpt><trkpt lat="45.03492530171987" lon="6.835934822740166"><ele>1077.0</ele><time>2026-04-19T13:46:00Z</time></trkpt><trkpt lat="45.03485771972161" lon="6.835840358318346"><ele>1077.5</ele><time>2026-04-19T13:46:01Z</time></trkpt><trkpt lat="45.03479596451245" lon="6.835749900072316"><ele>1078.0</ele><time>2026-04-19T13:46:02Z</time></trkpt><trkpt lat="45.03473853217017" lon="6.835664865736448"><ele>1078.5</ele><time>2026-04-19T13:46:03Z</time></trkpt><trkpt lat="45.034687172455186" lon="6.8355908718488125"><ele>1079.0</ele><time>2026-04-19T13:46:04Z</time></trkpt><trkpt lat="45.03464309293668" lon="6.835526320063228"><ele>1079.0</ele><time>2026-04-19T13:46:05Z</time></trkpt><trkpt lat="45.0345602650416" lon="6.835410266392996"><ele>1079.0</ele><time>2026-04-19T13:46:07Z</time></trkpt><trkpt lat="45.034473851905354" lon="6.835283234311223"><ele>1079.0</ele><time>2026-04-19T13:46:09Z</time></trkpt><trkpt lat="45.03443104129489" lon="6.835214429117017"><ele>1079.0</ele><time>2026-04-19T13:46:10Z</time></trkpt><trkpt lat="45.03438519156067" lon="6.8351473807183085"><ele>1079.0</ele><time>2026-04-19T13:46:11Z</time></trkpt><trkpt lat="45.034305955196984" lon="6.835012025140644"><ele>1078.6666666666667</ele><time>2026-04-19T13:46:13Z</time></trkpt><trkpt lat="45.034233328176455" lon="6.8349071710129765"><ele>1078.3333333333335</ele><time>2026-04-19T13:46:15Z</time></trkpt><trkpt lat="45.0341840821133" lon="6.834836158560589"><ele>1078.0</ele><time>2026-04-19T13:46:17Z</time></trkpt><trkpt lat="45.03408677377966" lon="6.83489981431157"><ele>1077.6666666666667</ele><time>2026-04-19T13:46:18Z</time></trkpt><trkpt lat="45.034026803714035" lon="6.834957464741287"><ele>1077.3333333333333</ele><time>2026-04-19T13:46:21Z</time></trkpt><trkpt lat="45.034087823005066" lon="6.835031718589074"><ele>1077.0</ele><time>2026-04-19T13:46:24Z</time></trkpt><trkpt lat="45.03415592165436" lon="6.835003796498159"><ele>1076.857142857143</ele><time>2026-04-19T13:48:26Z</time></trkpt><trkpt lat="45.03422463652726" lon="6.834988475990737"><ele>1076.7142857142858</ele><time>2026-04-19T13:48:38Z</time></trkpt><trkpt lat="45.03427790821486" lon="6.835047972938044"><ele>1076.5714285714287</ele><time>2026-04-19T13:48:49Z</time></trkpt><trkpt lat="45.03432076967432" lon="6.8351158588430305"><ele>1076.4285714285716</ele><time>2026-04-19T13:48:57.999Z</time></trkpt><trkpt lat="45.03436550180658" lon="6.83518716905513"><ele>1076.2857142857144</ele><time>2026-04-19T13:49:06.999Z</time></trkpt><trkpt lat="45.03440373921949" lon="6.835260853520444"><ele>1076.142857142857</ele><time>2026-04-19T13:49:15.999Z</time></trkpt><trkpt lat="45.03438920496706" lon="6.83535243516627"><ele>1076.0</ele><time>2026-04-19T13:49:35Z</time></trkpt><trkpt lat="45.0343817196204" lon="6.8355286609753545"><ele>1076.4285714285716</ele><time>2026-04-19T14:12:35Z</time></trkpt><trkpt lat="45.034371506472716" lon="6.835431594858378"><ele>1076.857142857143</ele><time>2026-04-19T14:12:40.999Z</time></trkpt><trkpt lat="45.034436049094275" lon="6.835425406253122"><ele>1077.2857142857142</ele><time>2026-04-19T14:12:43.999Z</time></trkpt><trkpt lat="45.03435429472376" lon="6.835479016453433"><ele>1077.7142857142858</ele><time>2026-04-19T14:13:17.068Z</time></trkpt><trkpt lat="45.034314096533535" lon="6.835379344061491"><ele>1078.142857142857</ele><time>2026-04-19T14:13:21.07Z</time></trkpt><trkpt lat="45.034284726849435" lon="6.835290993452591"><ele>1078.5714285714287</ele><time>2026-04-19T14:13:25.068Z</time></trkpt><trkpt lat="45.03435517709879" lon="6.8353057036035"><ele>1079.0</ele><time>2026-04-19T14:13:26.068Z</time></trkpt><trkpt lat="45.03432540518881" lon="6.835220330717022"><ele>1079.0</ele><time>2026-04-19T14:15:11.188Z</time></trkpt><trkpt lat="45.03425923285524" lon="6.835314763027045"><ele>1079.0</ele><time>2026-04-19T14:15:29.014Z</time></trkpt><trkpt lat="45.034245986237146" lon="6.8354054508698985"><ele>1079.0</ele><time>2026-04-19T14:15:36.013Z</time></trkpt><trkpt lat="45.034290115965554" lon="6.835288894782115"><ele>1079.0</ele><time>2026-04-19T14:16:23.448Z</time></trkpt><trkpt lat="45.03438497706591" lon="6.83530606718254"><ele>1079.0</ele><time>2026-04-19T14:16:38Z</time></trkpt><trkpt lat="45.034361606550256" lon="6.835213267248819"><ele>1079.0</ele><time>2026-04-19T14:16:52Z</time></trkpt><trkpt lat="45.0343270117243" lon="6.835129205039646"><ele>1079.0</ele><time>2026-04-19T14:16:58Z</time></trkpt><trkpt lat="45.034282933938655" lon="6.8350639621553855"><ele>1079.0</ele><time>2026-04-19T14:17:05Z</time></trkpt><trkpt lat="45.034225428478415" lon="6.835016851364609"><ele>1079.0</ele><time>2026-04-19T14:17:12Z</time></trkpt><trkpt lat="45.034160669426626" lon="6.83501775436779"><ele>1079.0</ele><time>2026-04-19T14:17:20Z</time></trkpt><trkpt lat="45.03422081282134" lon="6.8349787172874"><ele>1079.0</ele><time>2026-04-19T14:23:43Z</time></trkpt><trkpt lat="45.03430587647183" lon="6.835056036652208"><ele>1079.0</ele><time>2026-04-19T14:23:45Z</time></trkpt><trkpt lat="45.034368609169306" lon="6.835173523084825"><ele>1079.0</ele><time>2026-04-19T14:23:47Z</time></trkpt><trkpt lat="45.03445760072904" lon="6.835281812203727"><ele>1079.0</ele><time>2026-04-19T14:23:49Z</time></trkpt><trkpt lat="45.034545778198385" lon="6.835411469429641"><ele>1079.0</ele><time>2026-04-19T14:23:51Z</time></trkpt><trkpt lat="45.03459253872404" lon="6.835482947170466"><ele>1079.0</ele><time>2026-04-19T14:23:52Z</time></trkpt><trkpt lat="45.03464361510133" lon="6.835561075286774"><ele>1079.0</ele><time>2026-04-19T14:23:53Z</time></trkpt><trkpt lat="45.03469490212197" lon="6.835636252845915"><ele>1079.0</ele><time>2026-04-19T14:23:54Z</time></trkpt><trkpt lat="45.034749799508475" lon="6.835716950305125"><ele>1079.0</ele><time>2026-04-19T14:23:55Z</time></trkpt><trkpt lat="45.034808494439076" lon="6.835794391352045"><ele>1079.0</ele><time>2026-04-19T14:23:56Z</time></trkpt><trkpt lat="45.034871418586334" lon="6.835875276027024"><ele>1079.0</ele><time>2026-04-19T14:23:57Z</time></trkpt><trkpt lat="45.03493369162227" lon="6.83596019098299"><ele>1079.0</ele><time>2026-04-19T14:23:58Z</time></trkpt><trkpt lat="45.03500128574017" lon="6.836057445282366"><ele>1079.0</ele><time>2026-04-19T14:23:59Z</time></trkpt><trkpt lat="45.03506632637401" lon="6.836162826555456"><ele>1078.4</ele><time>2026-04-19T14:24:00Z</time></trkpt><trkpt lat="45.0351355773105" lon="6.836252029937329"><ele>1077.8000000000002</ele><time>2026-04-19T14:24:01Z</time></trkpt><trkpt lat="45.03519373314455" lon="6.836356305380049"><ele>1077.1999999999998</ele><time>2026-04-19T14:24:02Z</time></trkpt><trkpt lat="45.03526185178699" lon="6.836456253406568"><ele>1076.6</ele><time>2026-04-19T14:24:03Z</time></trkpt><trkpt lat="45.03533016455166" lon="6.836557368756141"><ele>1076.0</ele><time>2026-04-19T14:24:04Z</time></trkpt><trkpt lat="45.0354068854155" lon="6.836657066485077"><ele>1076.0</ele><time>2026-04-19T14:24:05Z</time></trkpt><trkpt lat="45.03548536233238" lon="6.8367618799223235"><ele>1076.0</ele><time>2026-04-19T14:24:06Z</time></trkpt><trkpt lat="45.03556596124436" lon="6.83685661948467"><ele>1076.0</ele><time>2026-04-19T14:24:07Z</time></trkpt><trkpt lat="45.035649654980304" lon="6.836955237100099"><ele>1076.0</ele><time>2026-04-19T14:24:08Z</time></trkpt><trkpt lat="45.03574366354748" lon="6.8370567321308116"><ele>1076.0</ele><time>2026-04-19T14:24:09Z</time></trkpt><trkpt lat="45.03584319398688" lon="6.837160160501912"><ele>1076.75</ele><time>2026-04-19T14:24:10Z</time></trkpt><trkpt lat="45.035950299747064" lon="6.837263552752279"><ele>1077.5</ele><time>2026-04-19T14:24:11Z</time></trkpt><trkpt lat="45.0360576996876" lon="6.837368892307831"><ele>1078.25</ele><time>2026-04-19T14:24:12Z</time></trkpt><trkpt lat="45.036170186288324" lon="6.837482142435614"><ele>1079.0</ele><time>2026-04-19T14:24:13Z</time></trkpt><trkpt lat="45.036287125816756" lon="6.837588809308015"><ele>1079.0</ele><time>2026-04-19T14:24:14Z</time></trkpt><trkpt lat="45.03640348212844" lon="6.8377103548157105"><ele>1079.0</ele><time>2026-04-19T14:24:15Z</time></trkpt><trkpt lat="45.03652041949912" lon="6.83783053766863"><ele>1079.0</ele><time>2026-04-19T14:24:16Z</time></trkpt><trkpt lat="45.036642108341965" lon="6.837948891820953"><ele>1079.0</ele><time>2026-04-19T14:24:17Z</time></trkpt><trkpt lat="45.03676749082788" lon="6.838069256142193"><ele>1079.0</ele><time>2026-04-19T14:24:18Z</time></trkpt><trkpt lat="45.03689503165529" lon="6.838194043002142"><ele>1079.0</ele><time>2026-04-19T14:24:19Z</time></trkpt><trkpt lat="45.0370233136047" lon="6.838323269788398"><ele>1079.0</ele><time>2026-04-19T14:24:20Z</time></trkpt><trkpt lat="45.037160324748605" lon="6.838457657551523"><ele>1078.0</ele><time>2026-04-19T14:24:21Z</time></trkpt><trkpt lat="45.037306148941646" lon="6.838593540307465"><ele>1077.0</ele><time>2026-04-19T14:24:22Z</time></trkpt><trkpt lat="45.03745064940807" lon="6.8387324582285824"><ele>1076.0</ele><time>2026-04-19T14:24:23Z</time></trkpt><trkpt lat="45.03760508165157" lon="6.838883408461928"><ele>1076.0</ele><time>2026-04-19T14:24:24Z</time></trkpt><trkpt lat="45.03776076429496" lon="6.839039444482146"><ele>1076.0</ele><time>2026-04-19T14:24:25Z</time></trkpt><trkpt lat="45.037913813845975" lon="6.839190132893089"><ele>1076.0</ele><time>2026-04-19T14:24:26Z</time></trkpt><trkpt lat="45.038075184245095" lon="6.8393479340225"><ele>1074.3333333333335</ele><time>2026-04-19T14:24:27Z</time></trkpt><trkpt lat="45.038233747832294" lon="6.839509394520302"><ele>1072.6666666666667</ele><time>2026-04-19T14:24:28Z</time></trkpt><trkpt lat="45.03839504372797" lon="6.839674556015199"><ele>1071.0</ele><time>2026-04-19T14:24:29Z</time></trkpt><trkpt lat="45.0385516931098" lon="6.839837964185231"><ele>1071.0</ele><time>2026-04-19T14:24:30Z</time></trkpt><trkpt lat="45.038718313606175" lon="6.84000751236567"><ele>1071.0</ele><time>2026-04-19T14:24:31Z</time></trkpt><trkpt lat="45.038875000830636" lon="6.840171283261404"><ele>1071.0</ele><time>2026-04-19T14:24:32Z</time></trkpt><trkpt lat="45.03903341634116" lon="6.8403305996192865"><ele>1068.3333333333333</ele><time>2026-04-19T14:24:33Z</time></trkpt><trkpt lat="45.03918141322402" lon="6.840480888839977"><ele>1065.6666666666665</ele><time>2026-04-19T14:24:34Z</time></trkpt><trkpt lat="45.03932996445062" lon="6.840632311009759"><ele>1063.0</ele><time>2026-04-19T14:24:35Z</time></trkpt><trkpt lat="45.03947568226485" lon="6.840783790086172"><ele>1063.0</ele><time>2026-04-19T14:24:36Z</time></trkpt><trkpt lat="45.03962240203028" lon="6.840937988254793"><ele>1063.0</ele><time>2026-04-19T14:24:37Z</time></trkpt><trkpt lat="45.039768931496226" lon="6.841089452558589"><ele>1063.0</ele><time>2026-04-19T14:24:38Z</time></trkpt><trkpt lat="45.039915867738586" lon="6.8412477780383405"><ele>1062.6666666666665</ele><time>2026-04-19T14:24:39Z</time></trkpt><trkpt lat="45.04006455090401" lon="6.841412621515933"><ele>1062.3333333333333</ele><time>2026-04-19T14:24:40Z</time></trkpt><trkpt lat="45.04020098642117" lon="6.841569045506547"><ele>1062.0</ele><time>2026-04-19T14:24:41Z</time></trkpt><trkpt lat="45.04033000484578" lon="6.84171716386679"><ele>1063.0</ele><time>2026-04-19T14:24:42Z</time></trkpt><trkpt lat="45.040453981287875" lon="6.841860274992312"><ele>1064.0</ele><time>2026-04-19T14:24:43Z</time></trkpt><trkpt lat="45.04059001292189" lon="6.842012067839317"><ele>1065.0</ele><time>2026-04-19T14:24:44Z</time></trkpt><trkpt lat="45.040732367289614" lon="6.842177558759445"><ele>1063.3333333333333</ele><time>2026-04-19T14:24:45Z</time></trkpt><trkpt lat="45.04087050650198" lon="6.842333614014609"><ele>1061.6666666666665</ele><time>2026-04-19T14:24:46Z</time></trkpt><trkpt lat="45.04099925930409" lon="6.842480037246989"><ele>1060.0</ele><time>2026-04-19T14:24:47Z</time></trkpt><trkpt lat="45.04111851113424" lon="6.842619254447701"><ele>1059.5</ele><time>2026-04-19T14:24:48Z</time></trkpt><trkpt lat="45.04122999229241" lon="6.842752204406268"><ele>1059.0</ele><time>2026-04-19T14:24:49Z</time></trkpt><trkpt lat="45.04133012778608" lon="6.842883623390457"><ele>1058.5</ele><time>2026-04-19T14:24:50Z</time></trkpt><trkpt lat="45.0414127164624" lon="6.843009444725101"><ele>1058.0</ele><time>2026-04-19T14:24:51Z</time></trkpt><trkpt lat="45.04148335679907" lon="6.843145416383949"><ele>1058.0</ele><time>2026-04-19T14:24:52Z</time></trkpt><trkpt lat="45.041523494979465" lon="6.843299104031458"><ele>1058.0</ele><time>2026-04-19T14:24:53Z</time></trkpt><trkpt lat="45.04159679912971" lon="6.843430899155594"><ele>1058.0</ele><time>2026-04-19T14:24:54Z</time></trkpt><trkpt lat="45.04172294553371" lon="6.8435011240586485"><ele>1058.0</ele><time>2026-04-19T14:24:55Z</time></trkpt><trkpt lat="45.04186309600345" lon="6.843533140499794"><ele>1057.5</ele><time>2026-04-19T14:24:56Z</time></trkpt><trkpt lat="45.04197763145222" lon="6.843625745912481"><ele>1057.0</ele><time>2026-04-19T14:24:57Z</time></trkpt><trkpt lat="45.042072743435035" lon="6.8437432079092355"><ele>1056.5</ele><time>2026-04-19T14:24:58Z</time></trkpt><trkpt lat="45.04217697932068" lon="6.843861051345826"><ele>1056.0</ele><time>2026-04-19T14:24:59Z</time></trkpt><trkpt lat="45.04228914198379" lon="6.843982452009401"><ele>1056.0</ele><time>2026-04-19T14:25:00Z</time></trkpt><trkpt lat="45.04240382850076" lon="6.8441200197089795"><ele>1056.0</ele><time>2026-04-19T14:25:01Z</time></trkpt><trkpt lat="45.04252048241517" lon="6.8442714342002455"><ele>1056.0</ele><time>2026-04-19T14:25:02Z</time></trkpt><trkpt lat="45.04264003714772" lon="6.844413513244757"><ele>1055.3333333333333</ele><time>2026-04-19T14:25:03Z</time></trkpt><trkpt lat="45.04276760741669" lon="6.844558810431863"><ele>1054.6666666666665</ele><time>2026-04-19T14:25:04Z</time></trkpt><trkpt lat="45.04289896610112" lon="6.844709125900536"><ele>1054.0</ele><time>2026-04-19T14:25:05Z</time></trkpt><trkpt lat="45.04302064940323" lon="6.844858962389621"><ele>1054.0</ele><time>2026-04-19T14:25:06Z</time></trkpt><trkpt lat="45.043138169635384" lon="6.84499637582194"><ele>1054.0</ele><time>2026-04-19T14:25:07Z</time></trkpt><trkpt lat="45.04325516610288" lon="6.84514470176265"><ele>1054.0</ele><time>2026-04-19T14:25:08Z</time></trkpt><trkpt lat="45.04338463391844" lon="6.845306588005032"><ele>1053.6666666666665</ele><time>2026-04-19T14:25:09Z</time></trkpt><trkpt lat="45.04353109843849" lon="6.8454833577222605"><ele>1053.3333333333333</ele><time>2026-04-19T14:25:10Z</time></trkpt><trkpt lat="45.04368504090796" lon="6.845667603444132"><ele>1053.0</ele><time>2026-04-19T14:25:11Z</time></trkpt><trkpt lat="45.0438489063231" lon="6.845867747809387"><ele>1052.3333333333333</ele><time>2026-04-19T14:25:12Z</time></trkpt><trkpt lat="45.04401607133259" lon="6.84606937259314"><ele>1051.6666666666665</ele><time>2026-04-19T14:25:13Z</time></trkpt><trkpt lat="45.04418850718604" lon="6.846269719354987"><ele>1051.0</ele><time>2026-04-19T14:25:14Z</time></trkpt><trkpt lat="45.04436547931546" lon="6.846474443473822"><ele>1051.0</ele><time>2026-04-19T14:25:15Z</time></trkpt><trkpt lat="45.04453839063946" lon="6.846681603517151"><ele>1051.0</ele><time>2026-04-19T14:25:16Z</time></trkpt><trkpt lat="45.04470926644549" lon="6.846888953433065"><ele>1050.6666666666665</ele><time>2026-04-19T14:25:17Z</time></trkpt><trkpt lat="45.044877294384804" lon="6.847094913240119"><ele>1050.3333333333333</ele><time>2026-04-19T14:25:18Z</time></trkpt><trkpt lat="45.04504684687403" lon="6.847298545266144"><ele>1050.0</ele><time>2026-04-19T14:25:19Z</time></trkpt><trkpt lat="45.045212157748665" lon="6.847498620571839"><ele>1049.6666666666667</ele><time>2026-04-19T14:25:20Z</time></trkpt><trkpt lat="45.04537001218784" lon="6.847698282088437"><ele>1049.3333333333335</ele><time>2026-04-19T14:25:21Z</time></trkpt><trkpt lat="45.04554578300922" lon="6.847897406836455"><ele>1049.0</ele><time>2026-04-19T14:25:22Z</time></trkpt><trkpt lat="45.04570927282206" lon="6.848112029737936"><ele>1049.5</ele><time>2026-04-19T14:25:23Z</time></trkpt><trkpt lat="45.045889249616614" lon="6.848318532699017"><ele>1050.0</ele><time>2026-04-19T14:25:24Z</time></trkpt><trkpt lat="45.046065695994734" lon="6.8485285168246826"><ele>1050.0</ele><time>2026-04-19T14:25:25Z</time></trkpt><trkpt lat="45.04624003202305" lon="6.8487354827477605"><ele>1050.0</ele><time>2026-04-19T14:25:26Z</time></trkpt><trkpt lat="45.04641299451484" lon="6.848939181391706"><ele>1050.0</ele><time>2026-04-19T14:25:27Z</time></trkpt><trkpt lat="45.0465827038683" lon="6.8491471576236576"><ele>1050.0</ele><time>2026-04-19T14:25:28Z</time></trkpt><trkpt lat="45.04676036260614" lon="6.8493630039514795"><ele>1049.0</ele><time>2026-04-19T14:25:29Z</time></trkpt><trkpt lat="45.046930578061925" lon="6.8495692790000975"><ele>1048.0</ele><time>2026-04-19T14:25:30Z</time></trkpt><trkpt lat="45.047105513644006" lon="6.84978143220998"><ele>1048.0</ele><time>2026-04-19T14:25:31Z</time></trkpt><trkpt lat="45.04728507258389" lon="6.8499942464464"><ele>1048.0</ele><time>2026-04-19T14:25:32Z</time></trkpt><trkpt lat="45.047466056946135" lon="6.850209381196509"><ele>1047.5</ele><time>2026-04-19T14:25:33Z</time></trkpt><trkpt lat="45.04764686612993" lon="6.850426442745039"><ele>1047.0</ele><time>2026-04-19T14:25:34Z</time></trkpt><trkpt lat="45.04782498164451" lon="6.850641597456024"><ele>1047.0</ele><time>2026-04-19T14:25:35Z</time></trkpt><trkpt lat="45.04800473277403" lon="6.85085905970782"><ele>1047.0</ele><time>2026-04-19T14:25:36Z</time></trkpt><trkpt lat="45.0481803257494" lon="6.851067557954155"><ele>1047.0</ele><time>2026-04-19T14:25:37Z</time></trkpt><trkpt lat="45.04834894183462" lon="6.851267329166547"><ele>1047.0</ele><time>2026-04-19T14:25:38Z</time></trkpt><trkpt lat="45.048516331235945" lon="6.851466143067169"><ele>1047.0</ele><time>2026-04-19T14:25:39Z</time></trkpt><trkpt lat="45.04869419555898" lon="6.851659148481803"><ele>1046.6666666666667</ele><time>2026-04-19T14:25:40Z</time></trkpt><trkpt lat="45.04887412839219" lon="6.851841589283829"><ele>1046.3333333333335</ele><time>2026-04-19T14:25:41Z</time></trkpt><trkpt lat="45.04905266365383" lon="6.852014286419692"><ele>1046.0</ele><time>2026-04-19T14:25:42Z</time></trkpt><trkpt lat="45.049230394506154" lon="6.852186178939773"><ele>1046.3333333333335</ele><time>2026-04-19T14:25:43Z</time></trkpt><trkpt lat="45.049404237620976" lon="6.852352933792287"><ele>1046.6666666666667</ele><time>2026-04-19T14:25:44Z</time></trkpt><trkpt lat="45.04956807898579" lon="6.852506842566539"><ele>1047.0</ele><time>2026-04-19T14:25:45Z</time></trkpt><trkpt lat="45.04972900609248" lon="6.852661101956999"><ele>1047.0</ele><time>2026-04-19T14:25:46Z</time></trkpt><trkpt lat="45.04989213950812" lon="6.852810331495663"><ele>1047.0</ele><time>2026-04-19T14:25:47Z</time></trkpt><trkpt lat="45.050042301500355" lon="6.852954609958326"><ele>1047.0</ele><time>2026-04-19T14:25:48Z</time></trkpt><trkpt lat="45.0501925504689" lon="6.853095552996966"><ele>1046.3333333333333</ele><time>2026-04-19T14:25:49Z</time></trkpt><trkpt lat="45.05034409552001" lon="6.8532416913659855"><ele>1045.6666666666665</ele><time>2026-04-19T14:25:50Z</time></trkpt><trkpt lat="45.05049308533029" lon="6.853386071223578"><ele>1045.0</ele><time>2026-04-19T14:25:51Z</time></trkpt><trkpt lat="45.05064496688819" lon="6.853530766064558"><ele>1044.0</ele><time>2026-04-19T14:25:52Z</time></trkpt><trkpt lat="45.05079876623935" lon="6.853674331792032"><ele>1043.0</ele><time>2026-04-19T14:25:53Z</time></trkpt><trkpt lat="45.050955732907504" lon="6.853811714830196"><ele>1042.0</ele><time>2026-04-19T14:25:54Z</time></trkpt><trkpt lat="45.051116274104665" lon="6.853944833681927"><ele>1042.0</ele><time>2026-04-19T14:25:55Z</time></trkpt><trkpt lat="45.05129181806954" lon="6.854072958856328"><ele>1042.0</ele><time>2026-04-19T14:25:56Z</time></trkpt><trkpt lat="45.051466955848305" lon="6.854189966707021"><ele>1042.0</ele><time>2026-04-19T14:25:57Z</time></trkpt><trkpt lat="45.051639956026" lon="6.854305324622779"><ele>1042.3333333333333</ele><time>2026-04-19T14:25:58Z</time></trkpt><trkpt lat="45.051814266383474" lon="6.85442372083024"><ele>1042.6666666666667</ele><time>2026-04-19T14:25:59Z</time></trkpt><trkpt lat="45.05199328552401" lon="6.854540103390082"><ele>1043.0</ele><time>2026-04-19T14:26:00Z</time></trkpt><trkpt lat="45.05216854447016" lon="6.854652700999364"><ele>1043.0</ele><time>2026-04-19T14:26:01Z</time></trkpt><trkpt lat="45.05232989416851" lon="6.854761517943139"><ele>1043.0</ele><time>2026-04-19T14:26:02Z</time></trkpt><trkpt lat="45.05248307813225" lon="6.854864763251409"><ele>1043.0</ele><time>2026-04-19T14:26:03Z</time></trkpt><trkpt lat="45.052624810945225" lon="6.854983169941002"><ele>1041.6666666666667</ele><time>2026-04-19T14:26:04Z</time></trkpt><trkpt lat="45.05275139289212" lon="6.855139860655415"><ele>1040.3333333333333</ele><time>2026-04-19T14:26:05Z</time></trkpt><trkpt lat="45.05285497566099" lon="6.855313222204671"><ele>1039.0</ele><time>2026-04-19T14:26:06Z</time></trkpt><trkpt lat="45.0529554217923" lon="6.855450139357344"><ele>1039.0</ele><time>2026-04-19T14:26:07Z</time></trkpt><trkpt lat="45.05306127142178" lon="6.855522147468961"><ele>1039.0</ele><time>2026-04-19T14:26:08Z</time></trkpt><trkpt lat="45.05314336182778" lon="6.855552288229479"><ele>1039.0</ele><time>2026-04-19T14:26:09Z</time></trkpt><trkpt lat="45.05323265703999" lon="6.855580800942577"><ele>1039.0</ele><time>2026-04-19T14:26:11Z</time></trkpt><trkpt lat="45.053304138532944" lon="6.855631000042518"><ele>1039.0</ele><time>2026-04-19T14:26:14Z</time></trkpt><trkpt lat="45.05336824346834" lon="6.85564696524282"><ele>1039.0</ele><time>2026-04-19T14:26:15Z</time></trkpt><trkpt lat="45.05342308410488" lon="6.85577100286027"><ele>1039.5</ele><time>2026-04-19T14:26:16Z</time></trkpt><trkpt lat="45.05351039256984" lon="6.855906201890619"><ele>1040.0</ele><time>2026-04-19T14:26:17Z</time></trkpt><trkpt lat="45.05360314821955" lon="6.856051470490744"><ele>1040.5</ele><time>2026-04-19T14:26:18Z</time></trkpt><trkpt lat="45.05370517211127" lon="6.8562097794365515"><ele>1041.0</ele><time>2026-04-19T14:26:19Z</time></trkpt><trkpt lat="45.053809053568784" lon="6.856400661718433"><ele>1041.0</ele><time>2026-04-19T14:26:20Z</time></trkpt><trkpt lat="45.05391417006611" lon="6.856612892063386"><ele>1041.0</ele><time>2026-04-19T14:26:21Z</time></trkpt><trkpt lat="45.054017201958004" lon="6.856832331030913"><ele>1041.0</ele><time>2026-04-19T14:26:22Z</time></trkpt><trkpt lat="45.054125694789356" lon="6.857063654270757"><ele>1041.6666666666667</ele><time>2026-04-19T14:26:23Z</time></trkpt><trkpt lat="45.05424441182479" lon="6.857310827245716"><ele>1042.3333333333335</ele><time>2026-04-19T14:26:24Z</time></trkpt><trkpt lat="45.0543732699177" lon="6.857568183663952"><ele>1043.0</ele><time>2026-04-19T14:26:25Z</time></trkpt><trkpt lat="45.05449465350996" lon="6.857818114758574"><ele>1041.6666666666667</ele><time>2026-04-19T14:26:26Z</time></trkpt><trkpt lat="45.05460806425719" lon="6.858052027257156"><ele>1040.3333333333333</ele><time>2026-04-19T14:26:27Z</time></trkpt><trkpt lat="45.05471494198436" lon="6.8582778971830765"><ele>1039.0</ele><time>2026-04-19T14:26:28Z</time></trkpt><trkpt lat="45.05482389577364" lon="6.858508751078625"><ele>1039.6666666666665</ele><time>2026-04-19T14:26:29Z</time></trkpt><trkpt lat="45.054944660593435" lon="6.858760444749864"><ele>1040.3333333333333</ele><time>2026-04-19T14:26:30Z</time></trkpt><trkpt lat="45.05506838809382" lon="6.85902414339513"><ele>1041.0</ele><time>2026-04-19T14:26:31Z</time></trkpt><trkpt lat="45.055195442809115" lon="6.859288813806598"><ele>1039.3333333333333</ele><time>2026-04-19T14:26:32Z</time></trkpt><trkpt lat="45.05531651526959" lon="6.859539248560411"><ele>1037.6666666666665</ele><time>2026-04-19T14:26:33Z</time></trkpt><trkpt lat="45.05543020457551" lon="6.859782181789189"><ele>1036.0</ele><time>2026-04-19T14:26:34Z</time></trkpt><trkpt lat="45.05554573358115" lon="6.860035104521485"><ele>1035.6666666666665</ele><time>2026-04-19T14:26:35Z</time></trkpt><trkpt lat="45.055673576380435" lon="6.860288542824729"><ele>1035.3333333333333</ele><time>2026-04-19T14:26:36Z</time></trkpt><trkpt lat="45.05580967886732" lon="6.86054099963717"><ele>1035.0</ele><time>2026-04-19T14:26:37Z</time></trkpt><trkpt lat="45.05595754137105" lon="6.860788550098019"><ele>1033.5</ele><time>2026-04-19T14:26:38Z</time></trkpt><trkpt lat="45.05611356613355" lon="6.86103132430399"><ele>1032.0</ele><time>2026-04-19T14:26:39Z</time></trkpt><trkpt lat="45.05627134393909" lon="6.86127123882939"><ele>1032.0</ele><time>2026-04-19T14:26:40Z</time></trkpt><trkpt lat="45.05642540953969" lon="6.861503416263185"><ele>1032.0</ele><time>2026-04-19T14:26:41Z</time></trkpt><trkpt lat="45.05658602066217" lon="6.8617365188577155"><ele>1031.6666666666667</ele><time>2026-04-19T14:26:42Z</time></trkpt><trkpt lat="45.056742192582796" lon="6.861964947048005"><ele>1031.3333333333335</ele><time>2026-04-19T14:26:43Z</time></trkpt><trkpt lat="45.056892041884616" lon="6.862184876522031"><ele>1031.0</ele><time>2026-04-19T14:26:44Z</time></trkpt><trkpt lat="45.05704325207361" lon="6.862404605059198"><ele>1030.3333333333335</ele><time>2026-04-19T14:26:45Z</time></trkpt><trkpt lat="45.05719568993212" lon="6.862621217192158"><ele>1029.6666666666667</ele><time>2026-04-19T14:26:46Z</time></trkpt><trkpt lat="45.05734125339752" lon="6.862835379378457"><ele>1029.0</ele><time>2026-04-19T14:26:47Z</time></trkpt><trkpt lat="45.057477336222355" lon="6.863040595707658"><ele>1029.0</ele><time>2026-04-19T14:26:48Z</time></trkpt><trkpt lat="45.05760376323686" lon="6.8632353327523665"><ele>1029.0</ele><time>2026-04-19T14:26:49Z</time></trkpt><trkpt lat="45.057717763809514" lon="6.863421478318459"><ele>1029.0</ele><time>2026-04-19T14:26:50Z</time></trkpt><trkpt lat="45.057817177953815" lon="6.863606756642332"><ele>1030.0</ele><time>2026-04-19T14:26:51Z</time></trkpt><trkpt lat="45.05790961300405" lon="6.863808332427635"><ele>1031.0</ele><time>2026-04-19T14:26:52Z</time></trkpt><trkpt lat="45.057989276517176" lon="6.864033280948749"><ele>1032.0</ele><time>2026-04-19T14:26:53Z</time></trkpt><trkpt lat="45.058093601049656" lon="6.864237876855054"><ele>1031.6666666666667</ele><time>2026-04-19T14:26:54Z</time></trkpt><trkpt lat="45.058211663657595" lon="6.8644085811779245"><ele>1031.3333333333335</ele><time>2026-04-19T14:26:55Z</time></trkpt><trkpt lat="45.05831827739289" lon="6.86457974249789"><ele>1031.0</ele><time>2026-04-19T14:26:56Z</time></trkpt><trkpt lat="45.05842375081195" lon="6.864739458622401"><ele>1031.0</ele><time>2026-04-19T14:26:57Z</time></trkpt><trkpt lat="45.05854757339145" lon="6.864925264685916"><ele>1031.0</ele><time>2026-04-19T14:26:58Z</time></trkpt><trkpt lat="45.058676834744396" lon="6.865159029750324"><ele>1031.0</ele><time>2026-04-19T14:26:59Z</time></trkpt><trkpt lat="45.05883874668376" lon="6.865365461984704"><ele>1031.0</ele><time>2026-04-19T14:27:00Z</time></trkpt><trkpt lat="45.059003261056105" lon="6.865586214749512"><ele>1031.0</ele><time>2026-04-19T14:27:01Z</time></trkpt><trkpt lat="45.059169669875" lon="6.865805361390213"><ele>1029.0</ele><time>2026-04-19T14:27:02Z</time></trkpt><trkpt lat="45.05933830195369" lon="6.866021680020012"><ele>1027.0</ele><time>2026-04-19T14:27:03Z</time></trkpt><trkpt lat="45.05951813317665" lon="6.866236234024316"><ele>1027.0</ele><time>2026-04-19T14:27:04Z</time></trkpt><trkpt lat="45.05969747910196" lon="6.866451997768084"><ele>1027.0</ele><time>2026-04-19T14:27:05Z</time></trkpt><trkpt lat="45.05987396257185" lon="6.866665384381702"><ele>1027.0</ele><time>2026-04-19T14:27:06Z</time></trkpt><trkpt lat="45.060055745356436" lon="6.866859984195492"><ele>1027.0</ele><time>2026-04-19T14:27:07Z</time></trkpt><trkpt lat="45.060248041470146" lon="6.867038589907841"><ele>1027.0</ele><time>2026-04-19T14:27:08Z</time></trkpt><trkpt lat="45.06044599047578" lon="6.867209844614221"><ele>1027.0</ele><time>2026-04-19T14:27:09Z</time></trkpt><trkpt lat="45.06064591686007" lon="6.867376713432062"><ele>1026.6666666666665</ele><time>2026-04-19T14:27:10Z</time></trkpt><trkpt lat="45.06083757308564" lon="6.867535751768175"><ele>1026.3333333333333</ele><time>2026-04-19T14:27:11Z</time></trkpt><trkpt lat="45.06102162066395" lon="6.867695527453457"><ele>1026.0</ele><time>2026-04-19T14:27:12Z</time></trkpt><trkpt lat="45.061204021803896" lon="6.867858242647991"><ele>1026.0</ele><time>2026-04-19T14:27:13Z</time></trkpt><trkpt lat="45.06138919331502" lon="6.8680285101341365"><ele>1026.0</ele><time>2026-04-19T14:27:14Z</time></trkpt><trkpt lat="45.0615730658993" lon="6.868200669204748"><ele>1026.0</ele><time>2026-04-19T14:27:15Z</time></trkpt><trkpt lat="45.061761656435664" lon="6.86838556157183"><ele>1025.5</ele><time>2026-04-19T14:27:16Z</time></trkpt><trkpt lat="45.0619536465372" lon="6.868577962969793"><ele>1025.0</ele><time>2026-04-19T14:27:17Z</time></trkpt><trkpt lat="45.06214557832806" lon="6.868769119693599"><ele>1025.0</ele><time>2026-04-19T14:27:18Z</time></trkpt><trkpt lat="45.06233550421962" lon="6.868961012151892"><ele>1025.0</ele><time>2026-04-19T14:27:19Z</time></trkpt><trkpt lat="45.06251061339085" lon="6.8691432841771505"><ele>1025.0</ele><time>2026-04-19T14:27:20Z</time></trkpt><trkpt lat="45.062679360156096" lon="6.869317787856544"><ele>1025.0</ele><time>2026-04-19T14:27:21Z</time></trkpt><trkpt lat="45.06285505631337" lon="6.869497538153344"><ele>1025.0</ele><time>2026-04-19T14:27:22Z</time></trkpt><trkpt lat="45.06303189296978" lon="6.86968114699634"><ele>1025.0</ele><time>2026-04-19T14:27:23Z</time></trkpt><trkpt lat="45.063205764822314" lon="6.869869711716254"><ele>1025.0</ele><time>2026-04-19T14:27:24Z</time></trkpt><trkpt lat="45.06337563021902" lon="6.870087869802459"><ele>1025.0</ele><time>2026-04-19T14:27:25Z</time></trkpt><trkpt lat="45.063521407389906" lon="6.870344440249099"><ele>1025.0</ele><time>2026-04-19T14:27:26Z</time></trkpt><trkpt lat="45.063647441258375" lon="6.870633037736042"><ele>1025.0</ele><time>2026-04-19T14:27:27Z</time></trkpt><trkpt lat="45.06374928837478" lon="6.870949837018325"><ele>1025.0</ele><time>2026-04-19T14:27:28Z</time></trkpt><trkpt lat="45.06384228349499" lon="6.871278718084483"><ele>1025.0</ele><time>2026-04-19T14:27:29Z</time></trkpt><trkpt lat="45.06394591897097" lon="6.871603363892272"><ele>1025.0</ele><time>2026-04-19T14:27:30Z</time></trkpt><trkpt lat="45.06406167831559" lon="6.871918323303266"><ele>1025.0</ele><time>2026-04-19T14:27:31Z</time></trkpt><trkpt lat="45.06419165832825" lon="6.87222061158054"><ele>1025.0</ele><time>2026-04-19T14:27:32Z</time></trkpt><trkpt lat="45.064336672758415" lon="6.872510215259554"><ele>1025.0</ele><time>2026-04-19T14:27:33Z</time></trkpt><trkpt lat="45.06449423390251" lon="6.872791881674789"><ele>1025.5</ele><time>2026-04-19T14:27:34Z</time></trkpt><trkpt lat="45.06465716100576" lon="6.873071738665839"><ele>1026.0</ele><time>2026-04-19T14:27:35Z</time></trkpt><trkpt lat="45.06482244701906" lon="6.873340513492138"><ele>1026.0</ele><time>2026-04-19T14:27:36Z</time></trkpt><trkpt lat="45.0649708431469" lon="6.873629017347492"><ele>1026.0</ele><time>2026-04-19T14:27:37Z</time></trkpt><trkpt lat="45.065131044497136" lon="6.873910190254026"><ele>1026.0</ele><time>2026-04-19T14:27:38Z</time></trkpt><trkpt lat="45.06529355273242" lon="6.874195412029303"><ele>1026.0</ele><time>2026-04-19T14:27:39Z</time></trkpt><trkpt lat="45.06556244155896" lon="6.874370387292694"><ele>1026.0</ele><time>2026-04-19T14:27:40Z</time></trkpt><trkpt lat="45.06576641377135" lon="6.874628149803647"><ele>1026.0</ele><time>2026-04-19T14:27:41Z</time></trkpt><trkpt lat="45.065960462837694" lon="6.874913542109272"><ele>1027.0</ele><time>2026-04-19T14:27:42Z</time></trkpt><trkpt lat="45.066152578903306" lon="6.875213145387337"><ele>1028.0</ele><time>2026-04-19T14:27:43Z</time></trkpt><trkpt lat="45.066361279841914" lon="6.875476562835157"><ele>1028.0</ele><time>2026-04-19T14:27:44Z</time></trkpt><trkpt lat="45.06656962366242" lon="6.875742805950123"><ele>1028.0</ele><time>2026-04-19T14:27:45Z</time></trkpt><trkpt lat="45.06677592311678" lon="6.876012271050555"><ele>1028.0</ele><time>2026-04-19T14:27:46Z</time></trkpt><trkpt lat="45.06698385846759" lon="6.876281264042333"><ele>1028.0</ele><time>2026-04-19T14:27:47Z</time></trkpt><trkpt lat="45.06719521002047" lon="6.876544266100259"><ele>1027.0</ele><time>2026-04-19T14:27:48Z</time></trkpt><trkpt lat="45.06741059488131" lon="6.876803390320329"><ele>1026.0</ele><time>2026-04-19T14:27:49Z</time></trkpt><trkpt lat="45.06763246303735" lon="6.877060395890255"><ele>1026.0</ele><time>2026-04-19T14:27:50Z</time></trkpt><trkpt lat="45.06785112170296" lon="6.877307928368707"><ele>1026.0</ele><time>2026-04-19T14:27:51Z</time></trkpt><trkpt lat="45.06805179055876" lon="6.877537029176208"><ele>1023.5</ele><time>2026-04-19T14:27:52Z</time></trkpt><trkpt lat="45.06824179088093" lon="6.8777571859406414"><ele>1021.0</ele><time>2026-04-19T14:27:53Z</time></trkpt><trkpt lat="45.068428535082475" lon="6.877968363982372"><ele>1026.5</ele><time>2026-04-19T14:27:54Z</time></trkpt><trkpt lat="45.068596280986775" lon="6.878179736495676"><ele>1032.0</ele><time>2026-04-19T14:27:55Z</time></trkpt><trkpt lat="45.06875570148671" lon="6.8784127486874835"><ele>1031.5</ele><time>2026-04-19T14:27:56Z</time></trkpt><trkpt lat="45.06890328262263" lon="6.878667785256348"><ele>1031.0</ele><time>2026-04-19T14:27:57Z</time></trkpt><trkpt lat="45.06902458257908" lon="6.8789359497728135"><ele>1033.0</ele><time>2026-04-19T14:27:58Z</time></trkpt><trkpt lat="45.069112130141704" lon="6.8792113685972005"><ele>1035.0</ele><time>2026-04-19T14:27:59Z</time></trkpt><trkpt lat="45.069185341049334" lon="6.879482209667029"><ele>1037.0</ele><time>2026-04-19T14:28:00Z</time></trkpt><trkpt lat="45.0692514490084" lon="6.879740804335389"><ele>1037.0</ele><time>2026-04-19T14:28:01Z</time></trkpt><trkpt lat="45.069317446405975" lon="6.8799853425006585"><ele>1037.0</ele><time>2026-04-19T14:28:02Z</time></trkpt><trkpt lat="45.069381197361764" lon="6.880222091572029"><ele>1037.0</ele><time>2026-04-19T14:28:03Z</time></trkpt><trkpt lat="45.06944034378571" lon="6.8804542581141535"><ele>1036.3333333333335</ele><time>2026-04-19T14:28:04Z</time></trkpt><trkpt lat="45.06949354829046" lon="6.880664715593413"><ele>1035.6666666666667</ele><time>2026-04-19T14:28:05Z</time></trkpt><trkpt lat="45.06954351183211" lon="6.880865963074596"><ele>1035.0</ele><time>2026-04-19T14:28:06Z</time></trkpt><trkpt lat="45.0695924092674" lon="6.8810599183091545"><ele>1032.6666666666667</ele><time>2026-04-19T14:28:07Z</time></trkpt><trkpt lat="45.069641484485686" lon="6.881257874120789"><ele>1030.3333333333335</ele><time>2026-04-19T14:28:08Z</time></trkpt><trkpt lat="45.06969229046723" lon="6.881464576850652"><ele>1028.0</ele><time>2026-04-19T14:28:09Z</time></trkpt><trkpt lat="45.06974567243636" lon="6.881672456428152"><ele>1025.6666666666667</ele><time>2026-04-19T14:28:10Z</time></trkpt><trkpt lat="45.0698071057858" lon="6.881882562287066"><ele>1023.3333333333333</ele><time>2026-04-19T14:28:11Z</time></trkpt><trkpt lat="45.06989881303538" lon="6.882077653334535"><ele>1021.0</ele><time>2026-04-19T14:28:12Z</time></trkpt><trkpt lat="45.07002317069376" lon="6.882280138863691"><ele>1022.0</ele><time>2026-04-19T14:28:13Z</time></trkpt><trkpt lat="45.07015495917018" lon="6.882485058674396"><ele>1023.0</ele><time>2026-04-19T14:28:14Z</time></trkpt><trkpt lat="45.07027733354767" lon="6.882688584730016"><ele>1024.0</ele><time>2026-04-19T14:28:15Z</time></trkpt><trkpt lat="45.07041064488672" lon="6.882905511545305"><ele>1024.0</ele><time>2026-04-19T14:28:16Z</time></trkpt><trkpt lat="45.07054727986196" lon="6.883113891506084"><ele>1024.0</ele><time>2026-04-19T14:28:17Z</time></trkpt><trkpt lat="45.0706967658376" lon="6.883305456031825"><ele>1024.0</ele><time>2026-04-19T14:28:18Z</time></trkpt><trkpt lat="45.0706072561305" lon="6.883683609248053"><ele>1024.6666666666665</ele><time>2026-04-19T14:28:19Z</time></trkpt><trkpt lat="45.07072750841574" lon="6.883902210457397"><ele>1025.3333333333333</ele><time>2026-04-19T14:28:20Z</time></trkpt><trkpt lat="45.070867773318575" lon="6.884074542592645"><ele>1026.0</ele><time>2026-04-19T14:28:21Z</time></trkpt><trkpt lat="45.071021404324156" lon="6.884208111014204"><ele>1022.0</ele><time>2026-04-19T14:28:22Z</time></trkpt><trkpt lat="45.071181370361145" lon="6.884306789086443"><ele>1018.0</ele><time>2026-04-19T14:28:23Z</time></trkpt><trkpt lat="45.07135601505443" lon="6.8843822757216495"><ele>1014.0</ele><time>2026-04-19T14:28:24Z</time></trkpt><trkpt lat="45.0715400927786" lon="6.884446229160146"><ele>1014.3333333333333</ele><time>2026-04-19T14:28:25Z</time></trkpt><trkpt lat="45.07171676777962" lon="6.884499883187218"><ele>1014.6666666666666</ele><time>2026-04-19T14:28:26Z</time></trkpt><trkpt lat="45.07187948436717" lon="6.8845556914322374"><ele>1015.0</ele><time>2026-04-19T14:28:27Z</time></trkpt><trkpt lat="45.072035819048935" lon="6.884611226737722"><ele>1015.0</ele><time>2026-04-19T14:28:28Z</time></trkpt><trkpt lat="45.072211387533436" lon="6.884674014184982"><ele>1015.0</ele><time>2026-04-19T14:28:29Z</time></trkpt><trkpt lat="45.07239865176093" lon="6.884751743953991"><ele>1015.0</ele><time>2026-04-19T14:28:30Z</time></trkpt><trkpt lat="45.072584488459206" lon="6.884824745063563"><ele>1017.0</ele><time>2026-04-19T14:28:31Z</time></trkpt><trkpt lat="45.072769586379955" lon="6.884901236941305"><ele>1019.0</ele><time>2026-04-19T14:28:32Z</time></trkpt><trkpt lat="45.072963920411866" lon="6.8849780298546746"><ele>1021.0</ele><time>2026-04-19T14:28:33Z</time></trkpt><trkpt lat="45.073151619548575" lon="6.885052978909144"><ele>1018.6666666666666</ele><time>2026-04-19T14:28:34Z</time></trkpt><trkpt lat="45.073331939990396" lon="6.885118345286486"><ele>1016.3333333333333</ele><time>2026-04-19T14:28:35Z</time></trkpt><trkpt lat="45.07351007528012" lon="6.885187947657012"><ele>1014.0</ele><time>2026-04-19T14:28:36Z</time></trkpt><trkpt lat="45.07369532927902" lon="6.885269059363735"><ele>1014.0</ele><time>2026-04-19T14:28:37Z</time></trkpt><trkpt lat="45.073866639671984" lon="6.885398900230322"><ele>1014.0</ele><time>2026-04-19T14:28:38Z</time></trkpt><trkpt lat="45.0740457104468" lon="6.88552222421731"><ele>1014.0</ele><time>2026-04-19T14:28:39Z</time></trkpt><trkpt lat="45.07419416653156" lon="6.885712030571155"><ele>1012.0</ele><time>2026-04-19T14:28:40Z</time></trkpt><trkpt lat="45.074336768308264" lon="6.8859141294671105"><ele>1010.0</ele><time>2026-04-19T14:28:41Z</time></trkpt><trkpt lat="45.07447890253182" lon="6.886134812333947"><ele>1008.0</ele><time>2026-04-19T14:28:42Z</time></trkpt><trkpt lat="45.07462189927396" lon="6.886353164395586"><ele>1008.0</ele><time>2026-04-19T14:28:43Z</time></trkpt><trkpt lat="45.07474648745151" lon="6.88657247647707"><ele>1008.0</ele><time>2026-04-19T14:28:44Z</time></trkpt><trkpt lat="45.07485023145014" lon="6.886805093478516"><ele>1008.0</ele><time>2026-04-19T14:28:45Z</time></trkpt><trkpt lat="45.07496394187959" lon="6.887026296687945"><ele>1010.0</ele><time>2026-04-19T14:28:46Z</time></trkpt><trkpt lat="45.07510499820525" lon="6.8872217153873905"><ele>1012.0</ele><time>2026-04-19T14:28:47Z</time></trkpt><trkpt lat="45.07527239334389" lon="6.8873997262415125"><ele>1014.0</ele><time>2026-04-19T14:28:48Z</time></trkpt><trkpt lat="45.075462871049446" lon="6.887556742541405"><ele>1015.6666666666667</ele><time>2026-04-19T14:28:49Z</time></trkpt><trkpt lat="45.075597883591904" lon="6.887807652974299"><ele>1017.3333333333334</ele><time>2026-04-19T14:28:50Z</time></trkpt><trkpt lat="45.075725574696946" lon="6.888071590613634"><ele>1019.0</ele><time>2026-04-19T14:28:51Z</time></trkpt><trkpt lat="45.07583998373195" lon="6.888344702758131"><ele>1016.0</ele><time>2026-04-19T14:28:52Z</time></trkpt><trkpt lat="45.07596658371641" lon="6.888607393013987"><ele>1013.0</ele><time>2026-04-19T14:28:53Z</time></trkpt><trkpt lat="45.07609667232055" lon="6.888857170719448"><ele>1010.0</ele><time>2026-04-19T14:28:54Z</time></trkpt><trkpt lat="45.07627522650367" lon="6.889061242859263"><ele>1008.5</ele><time>2026-04-19T14:28:55Z</time></trkpt><trkpt lat="45.07642568474963" lon="6.889310499848007"><ele>1007.0</ele><time>2026-04-19T14:28:56.001Z</time></trkpt><trkpt lat="45.076578117754664" lon="6.889556592815946"><ele>1006.3333333333334</ele><time>2026-04-19T14:28:57.001Z</time></trkpt><trkpt lat="45.0767369956104" lon="6.889786537220914"><ele>1005.6666666666667</ele><time>2026-04-19T14:28:58.001Z</time></trkpt><trkpt lat="45.07687629263331" lon="6.890012841801787"><ele>1005.0</ele><time>2026-04-19T14:28:59.001Z</time></trkpt><trkpt lat="45.07696439582678" lon="6.890277472626618"><ele>1005.0</ele><time>2026-04-19T14:29:00.001Z</time></trkpt><trkpt lat="45.07706113461538" lon="6.890570723202564"><ele>1005.0</ele><time>2026-04-19T14:29:01.001Z</time></trkpt><trkpt lat="45.07718506253864" lon="6.890847098267256"><ele>1003.0</ele><time>2026-04-19T14:29:02.001Z</time></trkpt><trkpt lat="45.07733076901252" lon="6.8911122867627315"><ele>1001.0</ele><time>2026-04-19T14:29:03.001Z</time></trkpt><trkpt lat="45.077501645678154" lon="6.89136583749471"><ele>1004.5</ele><time>2026-04-19T14:29:04.001Z</time></trkpt><trkpt lat="45.07767132592634" lon="6.8916192665679645"><ele>1008.0</ele><time>2026-04-19T14:29:05.001Z</time></trkpt><trkpt lat="45.07782479510864" lon="6.891893985493643"><ele>1008.0</ele><time>2026-04-19T14:29:06.001Z</time></trkpt><trkpt lat="45.077946024942456" lon="6.8922015549518685"><ele>1008.0</ele><time>2026-04-19T14:29:07.001Z</time></trkpt><trkpt lat="45.078075944428015" lon="6.892511787827233"><ele>1007.0</ele><time>2026-04-19T14:29:08.001Z</time></trkpt><trkpt lat="45.078223778570354" lon="6.892797534163395"><ele>1006.0</ele><time>2026-04-19T14:29:09.001Z</time></trkpt><trkpt lat="45.07837652855701" lon="6.893078985650888"><ele>1010.0</ele><time>2026-04-19T14:29:10.001Z</time></trkpt><trkpt lat="45.078535005959644" lon="6.893363432643986"><ele>1014.0</ele><time>2026-04-19T14:29:11.001Z</time></trkpt><trkpt lat="45.07866045015219" lon="6.893671528041158"><ele>1014.0</ele><time>2026-04-19T14:29:12.001Z</time></trkpt><trkpt lat="45.07879389914884" lon="6.893963612098422"><ele>1014.0</ele><time>2026-04-19T14:29:13.001Z</time></trkpt><trkpt lat="45.078927222696294" lon="6.894223404183359"><ele>1012.3333333333333</ele><time>2026-04-19T14:29:14.001Z</time></trkpt><trkpt lat="45.07904237809905" lon="6.894470155915602"><ele>1010.6666666666666</ele><time>2026-04-19T14:29:15.001Z</time></trkpt><trkpt lat="45.07915086546232" lon="6.894696486040009"><ele>1009.0</ele><time>2026-04-19T14:29:16.001Z</time></trkpt><trkpt lat="45.079247203357376" lon="6.894924110497697"><ele>1016.3333333333333</ele><time>2026-04-19T14:29:17.001Z</time></trkpt><trkpt lat="45.07930300969781" lon="6.895181606143399"><ele>1023.6666666666667</ele><time>2026-04-19T14:29:18.001Z</time></trkpt><trkpt lat="45.079324068162435" lon="6.895463550163643"><ele>1031.0</ele><time>2026-04-19T14:29:19.001Z</time></trkpt><trkpt lat="45.07928838058888" lon="6.895751285903491"><ele>1028.6666666666667</ele><time>2026-04-19T14:29:20.001Z</time></trkpt><trkpt lat="45.079232488130984" lon="6.896050818987455"><ele>1026.3333333333333</ele><time>2026-04-19T14:29:21.001Z</time></trkpt><trkpt lat="45.07920414358602" lon="6.8963535479649645"><ele>1024.0</ele><time>2026-04-19T14:29:22.001Z</time></trkpt><trkpt lat="45.079179310942074" lon="6.896657340637278"><ele>1024.3333333333333</ele><time>2026-04-19T14:29:23.001Z</time></trkpt><trkpt lat="45.079198870683804" lon="6.896953629063587"><ele>1024.6666666666667</ele><time>2026-04-19T14:29:24.001Z</time></trkpt><trkpt lat="45.07922387039851" lon="6.8972288834590145"><ele>1025.0</ele><time>2026-04-19T14:29:25.001Z</time></trkpt><trkpt lat="45.07924515179411" lon="6.8974730735266085"><ele>1024.6666666666667</ele><time>2026-04-19T14:29:26.001Z</time></trkpt><trkpt lat="45.0793032712684" lon="6.897699158879536"><ele>1024.3333333333333</ele><time>2026-04-19T14:29:27Z</time></trkpt><trkpt lat="45.07939655798864" lon="6.897915190676994"><ele>1024.0</ele><time>2026-04-19T14:29:28Z</time></trkpt><trkpt lat="45.07945881840418" lon="6.898117524650263"><ele>1024.0</ele><time>2026-04-19T14:29:29Z</time></trkpt><trkpt lat="45.079473549105664" lon="6.898315723882891"><ele>1024.0</ele><time>2026-04-19T14:29:30Z</time></trkpt><trkpt lat="45.079451572385544" lon="6.898544856632785"><ele>1024.0</ele><time>2026-04-19T14:29:31Z</time></trkpt><trkpt lat="45.07937125022882" lon="6.898759286887374"><ele>1025.3333333333333</ele><time>2026-04-19T14:29:32Z</time></trkpt><trkpt lat="45.079284419648886" lon="6.89897760003965"><ele>1026.6666666666667</ele><time>2026-04-19T14:29:33Z</time></trkpt><trkpt lat="45.079197729468945" lon="6.899180480208407"><ele>1028.0</ele><time>2026-04-19T14:29:34Z</time></trkpt><trkpt lat="45.07911470276001" lon="6.899364444222917"><ele>1023.75</ele><time>2026-04-19T14:29:35Z</time></trkpt><trkpt lat="45.07903510233598" lon="6.899533504727177"><ele>1019.5</ele><time>2026-04-19T14:29:36Z</time></trkpt><trkpt lat="45.078954240005444" lon="6.89969441798572"><ele>1015.25</ele><time>2026-04-19T14:29:37Z</time></trkpt><trkpt lat="45.07886822172604" lon="6.899866596633696"><ele>1011.0</ele><time>2026-04-19T14:29:38Z</time></trkpt><trkpt lat="45.07878575181719" lon="6.900050059953536"><ele>1012.3333333333333</ele><time>2026-04-19T14:29:39Z</time></trkpt><trkpt lat="45.07871404029545" lon="6.900242000157508"><ele>1013.6666666666666</ele><time>2026-04-19T14:29:40Z</time></trkpt><trkpt lat="45.07867248716239" lon="6.900456938386514"><ele>1015.0</ele><time>2026-04-19T14:29:41Z</time></trkpt><trkpt lat="45.07864064822606" lon="6.900671277608739"><ele>1015.0</ele><time>2026-04-19T14:29:42Z</time></trkpt><trkpt lat="45.0786424286769" lon="6.900899774479627"><ele>1015.0</ele><time>2026-04-19T14:29:43Z</time></trkpt><trkpt lat="45.07865350661045" lon="6.9011781642506795"><ele>1015.0</ele><time>2026-04-19T14:29:44Z</time></trkpt><trkpt lat="45.07868342707784" lon="6.901510361021361"><ele>1013.3333333333333</ele><time>2026-04-19T14:29:45Z</time></trkpt><trkpt lat="45.07871108001703" lon="6.9018059872428665"><ele>1011.6666666666667</ele><time>2026-04-19T14:29:46Z</time></trkpt><trkpt lat="45.078746059921144" lon="6.902002372378146"><ele>1010.0</ele><time>2026-04-19T14:29:47Z</time></trkpt><trkpt lat="45.07878220950212" lon="6.902158948811005"><ele>1010.0</ele><time>2026-04-19T14:29:48Z</time></trkpt><trkpt lat="45.078842925452456" lon="6.902286696215218"><ele>1010.0</ele><time>2026-04-19T14:29:49Z</time></trkpt><trkpt lat="45.07894972504031" lon="6.902423174330477"><ele>1010.0</ele><time>2026-04-19T14:29:50Z</time></trkpt><trkpt lat="45.07911745779014" lon="6.9025519736063865"><ele>1010.0</ele><time>2026-04-19T14:29:51Z</time></trkpt><trkpt lat="45.07930075126237" lon="6.902752095853516"><ele>1015.6666666666667</ele><time>2026-04-19T14:29:52Z</time></trkpt><trkpt lat="45.07944936171326" lon="6.902956354849065"><ele>1021.3333333333333</ele><time>2026-04-19T14:29:53Z</time></trkpt><trkpt lat="45.07957969826054" lon="6.903144847573381"><ele>1027.0</ele><time>2026-04-19T14:29:54Z</time></trkpt><trkpt lat="45.07967586157833" lon="6.90334992678932"><ele>1028.6666666666665</ele><time>2026-04-19T14:29:55Z</time></trkpt><trkpt lat="45.07977489112145" lon="6.903522390502497"><ele>1030.3333333333333</ele><time>2026-04-19T14:29:56Z</time></trkpt><trkpt lat="45.079880553821646" lon="6.903713651436011"><ele>1032.0</ele><time>2026-04-19T14:29:57Z</time></trkpt><trkpt lat="45.0799678415281" lon="6.903847187412453"><ele>1032.0</ele><time>2026-04-19T14:29:58Z</time></trkpt><trkpt lat="45.08005159315257" lon="6.9039304627197495"><ele>1032.0</ele><time>2026-04-19T14:29:59Z</time></trkpt><trkpt lat="45.08015593052939" lon="6.903918995656908"><ele>1032.0</ele><time>2026-04-19T14:30:00Z</time></trkpt><trkpt lat="45.0802472321258" lon="6.9038272440693795"><ele>1032.0</ele><time>2026-04-19T14:30:01Z</time></trkpt><trkpt lat="45.080289191406116" lon="6.90367432556964"><ele>1032.0</ele><time>2026-04-19T14:30:02Z</time></trkpt><trkpt lat="45.08026429073537" lon="6.903478628226501"><ele>1030.3333333333333</ele><time>2026-04-19T14:30:03Z</time></trkpt><trkpt lat="45.08016163512409" lon="6.903287810226996"><ele>1028.6666666666665</ele><time>2026-04-19T14:30:04Z</time></trkpt><trkpt lat="45.08003743255265" lon="6.903114341682529"><ele>1027.0</ele><time>2026-04-19T14:30:05Z</time></trkpt><trkpt lat="45.07992587769376" lon="6.902928849310667"><ele>1027.0</ele><time>2026-04-19T14:30:06Z</time></trkpt><trkpt lat="45.079820731706995" lon="6.9027249532803685"><ele>1027.0</ele><time>2026-04-19T14:30:07Z</time></trkpt><trkpt lat="45.07970820816883" lon="6.902533574979251"><ele>1027.0</ele><time>2026-04-19T14:30:08Z</time></trkpt><trkpt lat="45.07959554046641" lon="6.902353585172048"><ele>1028.75</ele><time>2026-04-19T14:30:09Z</time></trkpt><trkpt lat="45.079483954520796" lon="6.902186185999507"><ele>1030.5</ele><time>2026-04-19T14:30:10Z</time></trkpt><trkpt lat="45.079391287318046" lon="6.902031362528075"><ele>1032.25</ele><time>2026-04-19T14:30:11Z</time></trkpt><trkpt lat="45.0793185893704" lon="6.901862387526363"><ele>1034.0</ele><time>2026-04-19T14:30:12Z</time></trkpt><trkpt lat="45.07924752744368" lon="6.901696819676472"><ele>1036.2</ele><time>2026-04-19T14:30:13Z</time></trkpt><trkpt lat="45.079204152873345" lon="6.9015411092950485"><ele>1038.4</ele><time>2026-04-19T14:30:14Z</time></trkpt><trkpt lat="45.079187577653954" lon="6.901389799285663"><ele>1040.6</ele><time>2026-04-19T14:30:15Z</time></trkpt><trkpt lat="45.079186566351474" lon="6.901232123423907"><ele>1042.8</ele><time>2026-04-19T14:30:16Z</time></trkpt><trkpt lat="45.07925642660968" lon="6.901110031907659"><ele>1045.0</ele><time>2026-04-19T14:30:17Z</time></trkpt><trkpt lat="45.079361711251366" lon="6.90108356426369"><ele>1045.0</ele><time>2026-04-19T14:30:18Z</time></trkpt><trkpt lat="45.07946838041443" lon="6.901159022410157"><ele>1045.0</ele><time>2026-04-19T14:30:19Z</time></trkpt><trkpt lat="45.07954049660346" lon="6.901322657212293"><ele>1045.0</ele><time>2026-04-19T14:30:20Z</time></trkpt><trkpt lat="45.079576427559296" lon="6.901541501673803"><ele>1045.0</ele><time>2026-04-19T14:30:21Z</time></trkpt><trkpt lat="45.07961924282821" lon="6.901775182499706"><ele>1041.3333333333333</ele><time>2026-04-19T14:30:22Z</time></trkpt><trkpt lat="45.079701126692356" lon="6.901992095352554"><ele>1037.6666666666667</ele><time>2026-04-19T14:30:23Z</time></trkpt><trkpt lat="45.0798409931888" lon="6.902188017522556"><ele>1034.0</ele><time>2026-04-19T14:30:24Z</time></trkpt><trkpt lat="45.080029253303564" lon="6.902357675779678"><ele>1038.0</ele><time>2026-04-19T14:30:25Z</time></trkpt><trkpt lat="45.080228905370696" lon="6.9025218622597295"><ele>1042.0</ele><time>2026-04-19T14:30:26Z</time></trkpt><trkpt lat="45.08045948341115" lon="6.902697463978965"><ele>1042.0</ele><time>2026-04-19T14:30:27Z</time></trkpt><trkpt lat="45.08069410655737" lon="6.902880179723809"><ele>1042.0</ele><time>2026-04-19T14:30:28Z</time></trkpt><trkpt lat="45.08089735272074" lon="6.903084578888988"><ele>1044.3333333333333</ele><time>2026-04-19T14:30:29Z</time></trkpt><trkpt lat="45.08105260944392" lon="6.903308257728067"><ele>1046.6666666666667</ele><time>2026-04-19T14:30:30Z</time></trkpt><trkpt lat="45.08119733339261" lon="6.9035458015819655"><ele>1049.0</ele><time>2026-04-19T14:30:31Z</time></trkpt><trkpt lat="45.08131462130859" lon="6.9037152587094255"><ele>1049.0</ele><time>2026-04-19T14:30:32Z</time></trkpt><trkpt lat="45.08143668764973" lon="6.903888596035772"><ele>1049.0</ele><time>2026-04-19T14:30:33Z</time></trkpt><trkpt lat="45.08156427666233" lon="6.903950795933794"><ele>1049.0</ele><time>2026-04-19T14:30:34Z</time></trkpt><trkpt lat="45.081701719931" lon="6.90393777533136"><ele>1049.0</ele><time>2026-04-19T14:30:35Z</time></trkpt><trkpt lat="45.08186977063011" lon="6.903892154863253"><ele>1055.0</ele><time>2026-04-19T14:30:36Z</time></trkpt><trkpt lat="45.082056989295374" lon="6.903795724394793"><ele>1061.0</ele><time>2026-04-19T14:30:37Z</time></trkpt><trkpt lat="45.08223420294336" lon="6.903768929242567"><ele>1067.0</ele><time>2026-04-19T14:30:38Z</time></trkpt><trkpt lat="45.08241618815732" lon="6.903799748158521"><ele>1072.3333333333335</ele><time>2026-04-19T14:30:39Z</time></trkpt><trkpt lat="45.08255486015886" lon="6.90389662156337"><ele>1077.6666666666667</ele><time>2026-04-19T14:30:40Z</time></trkpt><trkpt lat="45.08270754098637" lon="6.9040570464068916"><ele>1083.0</ele><time>2026-04-19T14:30:41Z</time></trkpt><trkpt lat="45.08285788624778" lon="6.90419565661228"><ele>1073.0</ele><time>2026-04-19T14:30:42Z</time></trkpt><trkpt lat="45.08302414344003" lon="6.90439149952363"><ele>1063.0</ele><time>2026-04-19T14:30:43Z</time></trkpt><trkpt lat="45.083151156485854" lon="6.904649785350163"><ele>1053.0</ele><time>2026-04-19T14:30:44Z</time></trkpt><trkpt lat="45.083240975531155" lon="6.904961647211424"><ele>1054.6666666666667</ele><time>2026-04-19T14:30:45Z</time></trkpt><trkpt lat="45.0833439181072" lon="6.905237506802907"><ele>1056.3333333333335</ele><time>2026-04-19T14:30:46.001Z</time></trkpt><trkpt lat="45.08343468266797" lon="6.905515943374349"><ele>1058.0</ele><time>2026-04-19T14:30:47.001Z</time></trkpt><trkpt lat="45.08351985920672" lon="6.905737712559141"><ele>1050.6666666666667</ele><time>2026-04-19T14:30:48.001Z</time></trkpt><trkpt lat="45.08359722819475" lon="6.905988598933146"><ele>1043.3333333333333</ele><time>2026-04-19T14:30:49.001Z</time></trkpt><trkpt lat="45.08367627521559" lon="6.906195177322578"><ele>1036.0</ele><time>2026-04-19T14:30:50.001Z</time></trkpt><trkpt lat="45.083782213176214" lon="6.90637450743945"><ele>1036.0</ele><time>2026-04-19T14:30:51.001Z</time></trkpt><trkpt lat="45.083893931963374" lon="6.90652422941039"><ele>1036.0</ele><time>2026-04-19T14:30:52.001Z</time></trkpt><trkpt lat="45.084022262448435" lon="6.906663032465423"><ele>1036.0</ele><time>2026-04-19T14:30:53.001Z</time></trkpt><trkpt lat="45.08414203929811" lon="6.906787770601872"><ele>1038.0</ele><time>2026-04-19T14:30:54.001Z</time></trkpt><trkpt lat="45.084256750326965" lon="6.906916406073831"><ele>1040.0</ele><time>2026-04-19T14:30:55.001Z</time></trkpt><trkpt lat="45.08437325732238" lon="6.907053978957775"><ele>1042.0</ele><time>2026-04-19T14:30:56.001Z</time></trkpt><trkpt lat="45.08449218099532" lon="6.907182950108767"><ele>1044.0</ele><time>2026-04-19T14:30:57.001Z</time></trkpt><trkpt lat="45.08462428250753" lon="6.907280270597394"><ele>1044.0</ele><time>2026-04-19T14:30:58.001Z</time></trkpt><trkpt lat="45.08475883113604" lon="6.907350035166287"><ele>1044.0</ele><time>2026-04-19T14:30:59.001Z</time></trkpt><trkpt lat="45.08488325502188" lon="6.907448227319519"><ele>1044.0</ele><time>2026-04-19T14:31:00.001Z</time></trkpt><trkpt lat="45.08499015693653" lon="6.907558850213289"><ele>1044.0</ele><time>2026-04-19T14:31:01.001Z</time></trkpt><trkpt lat="45.08509939714685" lon="6.907665624881947"><ele>1040.6000000000001</ele><time>2026-04-19T14:31:02.001Z</time></trkpt><trkpt lat="45.08521008597155" lon="6.907742318840446"><ele>1037.2</ele><time>2026-04-19T14:31:03.001Z</time></trkpt><trkpt lat="45.08531386908031" lon="6.907750868739676"><ele>1033.8000000000002</ele><time>2026-04-19T14:31:04.001Z</time></trkpt><trkpt lat="45.085401392887185" lon="6.907720754721159"><ele>1030.4</ele><time>2026-04-19T14:31:05.001Z</time></trkpt><trkpt lat="45.085478986379165" lon="6.907692320892396"><ele>1027.0</ele><time>2026-04-19T14:31:06.001Z</time></trkpt><trkpt lat="45.08554903973166" lon="6.907688485390968"><ele>1027.0</ele><time>2026-04-19T14:31:07.001Z</time></trkpt><trkpt lat="45.085610267261394" lon="6.907740262176761"><ele>1027.0</ele><time>2026-04-19T14:31:08.001Z</time></trkpt><trkpt lat="45.08563573809838" lon="6.907841863331501"><ele>1027.0</ele><time>2026-04-19T14:31:09.001Z</time></trkpt><trkpt lat="45.085603987980825" lon="6.907945497041811"><ele>1027.0</ele><time>2026-04-19T14:31:10.001Z</time></trkpt><trkpt lat="45.085536634451024" lon="6.908012867732452"><ele>1027.0</ele><time>2026-04-19T14:31:11.001Z</time></trkpt><trkpt lat="45.08542616893206" lon="6.907984016098319"><ele>1027.0</ele><time>2026-04-19T14:31:12.001Z</time></trkpt><trkpt lat="45.08530946164224" lon="6.907933274848668"><ele>1027.0</ele><time>2026-04-19T14:31:13.001Z</time></trkpt><trkpt lat="45.08516647802227" lon="6.907900898263926"><ele>1027.0</ele><time>2026-04-19T14:31:14.001Z</time></trkpt><trkpt lat="45.08502661689096" lon="6.907871898049438"><ele>1027.0</ele><time>2026-04-19T14:31:15.001Z</time></trkpt><trkpt lat="45.08487249026031" lon="6.907829799503128"><ele>1027.0</ele><time>2026-04-19T14:31:16.001Z</time></trkpt><trkpt lat="45.084732601282475" lon="6.90776796547041"><ele>1024.5</ele><time>2026-04-19T14:31:17.001Z</time></trkpt><trkpt lat="45.08459984108432" lon="6.90770155903704"><ele>1022.0</ele><time>2026-04-19T14:31:18.001Z</time></trkpt><trkpt lat="45.08446921001197" lon="6.907637704710605"><ele>1019.5</ele><time>2026-04-19T14:31:19.001Z</time></trkpt><trkpt lat="45.084351470456554" lon="6.90760747286059"><ele>1017.0</ele><time>2026-04-19T14:31:20.001Z</time></trkpt><trkpt lat="45.08425443591849" lon="6.9075738282185055"><ele>1017.0</ele><time>2026-04-19T14:31:21.001Z</time></trkpt><trkpt lat="45.084161451095476" lon="6.907593478752327"><ele>1017.0</ele><time>2026-04-19T14:31:22.001Z</time></trkpt><trkpt lat="45.08408771216046" lon="6.907697450215848"><ele>1017.0</ele><time>2026-04-19T14:31:23.001Z</time></trkpt><trkpt lat="45.08406776161855" lon="6.9078429341632495"><ele>1017.0</ele><time>2026-04-19T14:31:24.001Z</time></trkpt><trkpt lat="45.084114057567795" lon="6.907991764983579"><ele>1017.0</ele><time>2026-04-19T14:31:25.001Z</time></trkpt><trkpt lat="45.084200541356985" lon="6.908114291472903"><ele>1017.0</ele><time>2026-04-19T14:31:26.001Z</time></trkpt><trkpt lat="45.08429826719367" lon="6.908203128528575"><ele>1017.0</ele><time>2026-04-19T14:31:27.001Z</time></trkpt><trkpt lat="45.08445055957967" lon="6.908255663293656"><ele>1017.0</ele><time>2026-04-19T14:31:28.001Z</time></trkpt><trkpt lat="45.08463222642562" lon="6.908286566064868"><ele>1017.0</ele><time>2026-04-19T14:31:29.001Z</time></trkpt><trkpt lat="45.08480041203308" lon="6.908297460575907"><ele>1017.0</ele><time>2026-04-19T14:31:30.001Z</time></trkpt><trkpt lat="45.08494774481364" lon="6.9083270563762404"><ele>1017.0</ele><time>2026-04-19T14:31:31.001Z</time></trkpt><trkpt lat="45.08509756814374" lon="6.908346320517008"><ele>1019.5</ele><time>2026-04-19T14:31:32.001Z</time></trkpt><trkpt lat="45.08523926148458" lon="6.908370108678309"><ele>1022.0</ele><time>2026-04-19T14:31:33.001Z</time></trkpt><trkpt lat="45.08537747448846" lon="6.90839726404039"><ele>1024.5</ele><time>2026-04-19T14:31:34.001Z</time></trkpt><trkpt lat="45.08551115204359" lon="6.908420187455018"><ele>1027.0</ele><time>2026-04-19T14:31:35.001Z</time></trkpt><trkpt lat="45.085628492016816" lon="6.908432828767271"><ele>1026.6</ele><time>2026-04-19T14:31:36.001Z</time></trkpt><trkpt lat="45.085728444607966" lon="6.908411723344246"><ele>1026.2</ele><time>2026-04-19T14:31:37.001Z</time></trkpt><trkpt lat="45.08581731227051" lon="6.908350336734592"><ele>1025.8</ele><time>2026-04-19T14:31:38.001Z</time></trkpt><trkpt lat="45.085910966524246" lon="6.9082738577775835"><ele>1025.4</ele><time>2026-04-19T14:31:39Z</time></trkpt><trkpt lat="45.08600950394096" lon="6.9081944046812"><ele>1025.0</ele><time>2026-04-19T14:31:40Z</time></trkpt><trkpt lat="45.086112472916795" lon="6.908115823146151"><ele>1025.0</ele><time>2026-04-19T14:31:41Z</time></trkpt><trkpt lat="45.086227893452254" lon="6.908047870116022"><ele>1025.0</ele><time>2026-04-19T14:31:42Z</time></trkpt><trkpt lat="45.08635874716734" lon="6.907996574846497"><ele>1025.0</ele><time>2026-04-19T14:31:43Z</time></trkpt><trkpt lat="45.08649409519728" lon="6.907980632905635"><ele>1025.0</ele><time>2026-04-19T14:31:44Z</time></trkpt><trkpt lat="45.08661961579192" lon="6.90798405447096"><ele>1021.0</ele><time>2026-04-19T14:31:45Z</time></trkpt><trkpt lat="45.086738884711416" lon="6.907981931712443"><ele>1017.0</ele><time>2026-04-19T14:31:46Z</time></trkpt><trkpt lat="45.08685885466801" lon="6.907977133195239"><ele>1013.0</ele><time>2026-04-19T14:31:47Z</time></trkpt><trkpt lat="45.08698274366435" lon="6.907980501202691"><ele>1009.0</ele><time>2026-04-19T14:31:48Z</time></trkpt><trkpt lat="45.08711209265963" lon="6.907980501018786"><ele>1009.0</ele><time>2026-04-19T14:31:49Z</time></trkpt><trkpt lat="45.08724196691534" lon="6.907971230409576"><ele>1009.0</ele><time>2026-04-19T14:31:50Z</time></trkpt><trkpt lat="45.08736394449031" lon="6.907956188600019"><ele>1009.0</ele><time>2026-04-19T14:31:51Z</time></trkpt><trkpt lat="45.08747551194002" lon="6.907933778694052"><ele>1009.0</ele><time>2026-04-19T14:31:52Z</time></trkpt><trkpt lat="45.087564442833134" lon="6.90790232712798"><ele>1007.0</ele><time>2026-04-19T14:31:53Z</time></trkpt><trkpt lat="45.08765164710056" lon="6.907853177190717"><ele>1005.0000000000001</ele><time>2026-04-19T14:31:54Z</time></trkpt><trkpt lat="45.08773599133469" lon="6.907797017987724"><ele>1003.0000000000001</ele><time>2026-04-19T14:31:55Z</time></trkpt><trkpt lat="45.08782035623288" lon="6.907752496587313"><ele>1001.0</ele><time>2026-04-19T14:31:56Z</time></trkpt><trkpt lat="45.08791501391461" lon="6.9077326286409635"><ele>999.0</ele><time>2026-04-19T14:31:57Z</time></trkpt><trkpt lat="45.08801317433263" lon="6.907769698408047"><ele>999.0</ele><time>2026-04-19T14:31:58Z</time></trkpt><trkpt lat="45.08810288149785" lon="6.90783088515066"><ele>999.0000000000001</ele><time>2026-04-19T14:31:59Z</time></trkpt><trkpt lat="45.088190981675496" lon="6.907901807017516"><ele>999.0000000000001</ele><time>2026-04-19T14:32:00Z</time></trkpt><trkpt lat="45.088267807993844" lon="6.908007901782203"><ele>999.0</ele><time>2026-04-19T14:32:01Z</time></trkpt><trkpt lat="45.08831666448142" lon="6.908162952507246"><ele>999.0</ele><time>2026-04-19T14:32:02Z</time></trkpt><trkpt lat="45.088357833087194" lon="6.908330513664754"><ele>998.3333333333333</ele><time>2026-04-19T14:32:03Z</time></trkpt><trkpt lat="45.088385799960655" lon="6.908523667612832"><ele>997.6666666666666</ele><time>2026-04-19T14:32:04Z</time></trkpt><trkpt lat="45.0884193930376" lon="6.908768357825133"><ele>997.0</ele><time>2026-04-19T14:32:05Z</time></trkpt><trkpt lat="45.088458818554045" lon="6.909053829818828"><ele>994.6666666666666</ele><time>2026-04-19T14:32:06Z</time></trkpt><trkpt lat="45.08850194033597" lon="6.909338141855384"><ele>992.3333333333333</ele><time>2026-04-19T14:32:07Z</time></trkpt><trkpt lat="45.08853454451074" lon="6.9095923634506535"><ele>990.0</ele><time>2026-04-19T14:32:08Z</time></trkpt><trkpt lat="45.088547784200436" lon="6.909834769495731"><ele>990.0</ele><time>2026-04-19T14:32:09Z</time></trkpt><trkpt lat="45.08857226987651" lon="6.9100655456629045"><ele>990.0</ele><time>2026-04-19T14:32:10Z</time></trkpt><trkpt lat="45.088554020444796" lon="6.91027894153437"><ele>990.0</ele><time>2026-04-19T14:32:11Z</time></trkpt><trkpt lat="45.08853746775197" lon="6.910473071929975"><ele>988.25</ele><time>2026-04-19T14:32:12Z</time></trkpt><trkpt lat="45.08852921353728" lon="6.910649348419604"><ele>986.5</ele><time>2026-04-19T14:32:13Z</time></trkpt><trkpt lat="45.08853714562948" lon="6.910809828026803"><ele>984.75</ele><time>2026-04-19T14:32:14Z</time></trkpt><trkpt lat="45.088565254105106" lon="6.910972138768638"><ele>983.0</ele><time>2026-04-19T14:32:15Z</time></trkpt><trkpt lat="45.08861661009217" lon="6.911131457127761"><ele>974.6666666666667</ele><time>2026-04-19T14:32:16Z</time></trkpt><trkpt lat="45.088712534485275" lon="6.911285407666966"><ele>966.3333333333333</ele><time>2026-04-19T14:32:17Z</time></trkpt><trkpt lat="45.08884682147868" lon="6.911490523361562"><ele>958.0</ele><time>2026-04-19T14:32:18Z</time></trkpt><trkpt lat="45.08902623772889" lon="6.911707684627847"><ele>963.5</ele><time>2026-04-19T14:32:19Z</time></trkpt><trkpt lat="45.08921135547687" lon="6.911916500294251"><ele>969.0</ele><time>2026-04-19T14:32:20Z</time></trkpt><trkpt lat="45.08934518599081" lon="6.912163269980228"><ele>969.0</ele><time>2026-04-19T14:32:21Z</time></trkpt><trkpt lat="45.08944939545905" lon="6.912399429184282"><ele>969.0</ele><time>2026-04-19T14:32:22Z</time></trkpt><trkpt lat="45.08952804228751" lon="6.912656968880594"><ele>969.0</ele><time>2026-04-19T14:32:23Z</time></trkpt><trkpt lat="45.08959916172794" lon="6.912949038272418"><ele>960.5</ele><time>2026-04-19T14:32:24Z</time></trkpt><trkpt lat="45.08968780558313" lon="6.913244203259122"><ele>952.0</ele><time>2026-04-19T14:32:25Z</time></trkpt><trkpt lat="45.089806007986816" lon="6.913549379693019"><ele>960.0</ele><time>2026-04-19T14:32:26Z</time></trkpt><trkpt lat="45.08992862878554" lon="6.913890948607383"><ele>968.0</ele><time>2026-04-19T14:32:27Z</time></trkpt><trkpt lat="45.09006877015385" lon="6.914216776834071"><ele>958.0</ele><time>2026-04-19T14:32:28Z</time></trkpt><trkpt lat="45.09019878985786" lon="6.914541611043801"><ele>948.0</ele><time>2026-04-19T14:32:29Z</time></trkpt><trkpt lat="45.09031299573813" lon="6.914849779674594"><ele>929.5</ele><time>2026-04-19T14:32:30Z</time></trkpt><trkpt lat="45.09042865258442" lon="6.915143082660951"><ele>911.0</ele><time>2026-04-19T14:32:31Z</time></trkpt><trkpt lat="45.090566199582234" lon="6.915421371433651"><ele>911.0</ele><time>2026-04-19T14:32:32Z</time></trkpt><trkpt lat="45.090727150435974" lon="6.915708167730993"><ele>911.0</ele><time>2026-04-19T14:32:33Z</time></trkpt><trkpt lat="45.090907399021646" lon="6.916004083811492"><ele>918.0</ele><time>2026-04-19T14:32:34Z</time></trkpt><trkpt lat="45.09109509781404" lon="6.916290412169607"><ele>925.0</ele><time>2026-04-19T14:32:35Z</time></trkpt><trkpt lat="45.091283708628005" lon="6.916585752785865"><ele>936.0</ele><time>2026-04-19T14:32:36Z</time></trkpt><trkpt lat="45.091462625094636" lon="6.916895309621643"><ele>947.0</ele><time>2026-04-19T14:32:37Z</time></trkpt><trkpt lat="45.091638874291846" lon="6.9172075698760285"><ele>947.0</ele><time>2026-04-19T14:32:38Z</time></trkpt><trkpt lat="45.09181974341451" lon="6.917526859318239"><ele>947.0</ele><time>2026-04-19T14:32:39Z</time></trkpt><trkpt lat="45.09198457353527" lon="6.917850919274938"><ele>931.0</ele><time>2026-04-19T14:32:40Z</time></trkpt><trkpt lat="45.09216750901943" lon="6.918164637867346"><ele>915.0</ele><time>2026-04-19T14:32:41Z</time></trkpt><trkpt lat="45.09236673808706" lon="6.9184950139182115"><ele>918.5</ele><time>2026-04-19T14:32:42Z</time></trkpt><trkpt lat="45.092557740082064" lon="6.918809447127986"><ele>922.0</ele><time>2026-04-19T14:32:43Z</time></trkpt><trkpt lat="45.092743257421205" lon="6.919112398621345"><ele>910.0</ele><time>2026-04-19T14:32:44Z</time></trkpt><trkpt lat="45.09290810152328" lon="6.919408760315646"><ele>898.0</ele><time>2026-04-19T14:32:45Z</time></trkpt><trkpt lat="45.09305531370649" lon="6.919709417642087"><ele>898.0</ele><time>2026-04-19T14:32:46Z</time></trkpt><trkpt lat="45.093197537070445" lon="6.920052457022372"><ele>898.0</ele><time>2026-04-19T14:32:47Z</time></trkpt><trkpt lat="45.09333256723551" lon="6.9204068593258015"><ele>899.0</ele><time>2026-04-19T14:32:48Z</time></trkpt><trkpt lat="45.09345696251891" lon="6.920777294014424"><ele>900.0</ele><time>2026-04-19T14:32:49Z</time></trkpt><trkpt lat="45.09357678619727" lon="6.921152364817142"><ele>900.0</ele><time>2026-04-19T14:32:50Z</time></trkpt><trkpt lat="45.093703380529185" lon="6.921519231614455"><ele>900.0</ele><time>2026-04-19T14:32:51Z</time></trkpt><trkpt lat="45.09378368587863" lon="6.921906698879709"><ele>894.5</ele><time>2026-04-19T14:32:52Z</time></trkpt><trkpt lat="45.09384406230981" lon="6.922291358459182"><ele>889.0</ele><time>2026-04-19T14:32:53Z</time></trkpt><trkpt lat="45.09388922484836" lon="6.9226714625954555"><ele>880.0</ele><time>2026-04-19T14:32:54Z</time></trkpt><trkpt lat="45.09395501278703" lon="6.923039512528442"><ele>871.0</ele><time>2026-04-19T14:32:55Z</time></trkpt><trkpt lat="45.09406463343029" lon="6.923420384274358"><ele>884.5</ele><time>2026-04-19T14:32:56Z</time></trkpt><trkpt lat="45.094212396356426" lon="6.923778110092917"><ele>898.0</ele><time>2026-04-19T14:32:57Z</time></trkpt><trkpt lat="45.09439791348814" lon="6.924123289429547"><ele>882.5</ele><time>2026-04-19T14:32:58Z</time></trkpt><trkpt lat="45.09457827876835" lon="6.924431496571904"><ele>867.0</ele><time>2026-04-19T14:32:59Z</time></trkpt><trkpt lat="45.094748174968075" lon="6.924750779032544"><ele>867.0</ele><time>2026-04-19T14:33:00Z</time></trkpt><trkpt lat="45.094908459817766" lon="6.9250551533329565"><ele>867.0</ele><time>2026-04-19T14:33:01Z</time></trkpt><trkpt lat="45.09509035942604" lon="6.9253511282384"><ele>873.5</ele><time>2026-04-19T14:33:02Z</time></trkpt><trkpt lat="45.09531735254761" lon="6.925614478854377"><ele>880.0</ele><time>2026-04-19T14:33:03Z</time></trkpt><trkpt lat="45.095527849965556" lon="6.925870553766019"><ele>878.0</ele><time>2026-04-19T14:33:04Z</time></trkpt><trkpt lat="45.09572435263348" lon="6.926093229338229"><ele>876.0</ele><time>2026-04-19T14:33:05Z</time></trkpt><trkpt lat="45.09593888068217" lon="6.926307406866071"><ele>876.0</ele><time>2026-04-19T14:33:06Z</time></trkpt><trkpt lat="45.09613350424049" lon="6.92652897448369"><ele>876.0</ele><time>2026-04-19T14:33:07Z</time></trkpt><trkpt lat="45.09649191216706" lon="6.92661085434047"><ele>882.0</ele><time>2026-04-19T14:33:08Z</time></trkpt><trkpt lat="45.09671963093177" lon="6.926687792032477"><ele>888.0</ele><time>2026-04-19T14:33:09Z</time></trkpt><trkpt lat="45.09693163948461" lon="6.926688683979598"><ele>894.0</ele><time>2026-04-19T14:33:10Z</time></trkpt><trkpt lat="45.09715074581562" lon="6.926705145302795"><ele>894.0</ele><time>2026-04-19T14:33:11Z</time></trkpt><trkpt lat="45.09733022944442" lon="6.926784229810306"><ele>894.0</ele><time>2026-04-19T14:33:12Z</time></trkpt><trkpt lat="45.09747723285657" lon="6.926908110585132"><ele>894.0</ele><time>2026-04-19T14:33:13Z</time></trkpt><trkpt lat="45.09758267509133" lon="6.927097859260956"><ele>894.0</ele><time>2026-04-19T14:33:14Z</time></trkpt><trkpt lat="45.09767690744659" lon="6.927371622696445"><ele>894.0</ele><time>2026-04-19T14:33:15Z</time></trkpt><trkpt lat="45.0977700596784" lon="6.927632443336028"><ele>894.0</ele><time>2026-04-19T14:33:16Z</time></trkpt><trkpt lat="45.097888929480725" lon="6.927887617443549"><ele>889.0</ele><time>2026-04-19T14:33:17Z</time></trkpt><trkpt lat="45.09799387007141" lon="6.928166983639436"><ele>884.0</ele><time>2026-04-19T14:33:18Z</time></trkpt><trkpt lat="45.09809710497619" lon="6.928457089499149"><ele>882.5</ele><time>2026-04-19T14:33:19.001Z</time></trkpt><trkpt lat="45.09819793111378" lon="6.928737488249845"><ele>881.0</ele><time>2026-04-19T14:33:20.001Z</time></trkpt><trkpt lat="45.09831279289572" lon="6.929037787154144"><ele>881.0</ele><time>2026-04-19T14:33:21.001Z</time></trkpt><trkpt lat="45.09843426511585" lon="6.929358854328258"><ele>881.0</ele><time>2026-04-19T14:33:22.001Z</time></trkpt><trkpt lat="45.098547821034664" lon="6.9296515603532205"><ele>881.0</ele><time>2026-04-19T14:33:23.001Z</time></trkpt><trkpt lat="45.09864900556159" lon="6.929928272807212"><ele>881.0</ele><time>2026-04-19T14:33:24.001Z</time></trkpt><trkpt lat="45.09875648652196" lon="6.930189276320895"><ele>881.0</ele><time>2026-04-19T14:33:25.001Z</time></trkpt><trkpt lat="45.09888737451835" lon="6.930457077541155"><ele>875.0</ele><time>2026-04-19T14:33:26.001Z</time></trkpt><trkpt lat="45.099036515862515" lon="6.930732659938753"><ele>869.0</ele><time>2026-04-19T14:33:27.001Z</time></trkpt><trkpt lat="45.099195198493554" lon="6.930994636215208"><ele>868.0</ele><time>2026-04-19T14:33:28.001Z</time></trkpt><trkpt lat="45.09937041639471" lon="6.931241395341988"><ele>867.0</ele><time>2026-04-19T14:33:29.001Z</time></trkpt><trkpt lat="45.09954664416496" lon="6.931486250593618"><ele>867.0</ele><time>2026-04-19T14:33:30.001Z</time></trkpt><trkpt lat="45.099732713422725" lon="6.9317174500236"><ele>867.0</ele><time>2026-04-19T14:33:31.001Z</time></trkpt><trkpt lat="45.099908168435704" lon="6.9319279772055085"><ele>867.3333333333333</ele><time>2026-04-19T14:33:32.001Z</time></trkpt><trkpt lat="45.10009109164623" lon="6.932106690910325"><ele>867.6666666666666</ele><time>2026-04-19T14:33:33.001Z</time></trkpt><trkpt lat="45.10027976607343" lon="6.932239625362319"><ele>868.0</ele><time>2026-04-19T14:33:34.001Z</time></trkpt><trkpt lat="45.10045577293929" lon="6.932394000283162"><ele>865.3333333333333</ele><time>2026-04-19T14:33:35.001Z</time></trkpt><trkpt lat="45.10058782463588" lon="6.932613822537417"><ele>862.6666666666667</ele><time>2026-04-19T14:33:36.001Z</time></trkpt><trkpt lat="45.10069168580447" lon="6.932896988087839"><ele>860.0</ele><time>2026-04-19T14:33:37.001Z</time></trkpt><trkpt lat="45.100757289648286" lon="6.9332358365610816"><ele>862.0</ele><time>2026-04-19T14:33:38.001Z</time></trkpt><trkpt lat="45.10079892859517" lon="6.9335967853778255"><ele>864.0</ele><time>2026-04-19T14:33:39Z</time></trkpt><trkpt lat="45.10084493279027" lon="6.933941950389638"><ele>864.0</ele><time>2026-04-19T14:33:40Z</time></trkpt><trkpt lat="45.10093010415753" lon="6.934246831212793"><ele>864.0</ele><time>2026-04-19T14:33:41Z</time></trkpt><trkpt lat="45.10106858622588" lon="6.934531567051989"><ele>864.0</ele><time>2026-04-19T14:33:42Z</time></trkpt><trkpt lat="45.10124289540138" lon="6.934794431342269"><ele>864.0</ele><time>2026-04-19T14:33:43Z</time></trkpt><trkpt lat="45.10140966239094" lon="6.935052999614696"><ele>861.5</ele><time>2026-04-19T14:33:44Z</time></trkpt><trkpt lat="45.101540209461355" lon="6.935319385869881"><ele>859.0</ele><time>2026-04-19T14:33:45Z</time></trkpt><trkpt lat="45.10165515037218" lon="6.935591423058954"><ele>859.0</ele><time>2026-04-19T14:33:46Z</time></trkpt><trkpt lat="45.101724966294476" lon="6.935885337976194"><ele>859.0</ele><time>2026-04-19T14:33:47Z</time></trkpt><trkpt lat="45.10179665903976" lon="6.936176365022269"><ele>859.0</ele><time>2026-04-19T14:33:48Z</time></trkpt><trkpt lat="45.101846051746364" lon="6.936483118169166"><ele>856.6666666666666</ele><time>2026-04-19T14:33:49Z</time></trkpt><trkpt lat="45.101876252065466" lon="6.936793393104488"><ele>854.3333333333333</ele><time>2026-04-19T14:33:50Z</time></trkpt><trkpt lat="45.101887283197534" lon="6.937106060934593"><ele>852.0</ele><time>2026-04-19T14:33:51Z</time></trkpt><trkpt lat="45.101880717220496" lon="6.937371456259505"><ele>851.0</ele><time>2026-04-19T14:33:52Z</time></trkpt><trkpt lat="45.101866499230006" lon="6.937596953644715"><ele>850.0</ele><time>2026-04-19T14:33:53Z</time></trkpt><trkpt lat="45.10186071305612" lon="6.937839444049062"><ele>849.0</ele><time>2026-04-19T14:33:54Z</time></trkpt><trkpt lat="45.101818747397836" lon="6.938070809482692"><ele>849.0</ele><time>2026-04-19T14:33:55Z</time></trkpt><trkpt lat="45.10180689952612" lon="6.938293892780017"><ele>849.0</ele><time>2026-04-19T14:33:56Z</time></trkpt><trkpt lat="45.10184548844745" lon="6.938529288541454"><ele>849.0</ele><time>2026-04-19T14:33:57Z</time></trkpt><trkpt lat="45.10193693061209" lon="6.938767953767748"><ele>847.6666666666667</ele><time>2026-04-19T14:33:58Z</time></trkpt><trkpt lat="45.102071561051375" lon="6.938999356275961"><ele>846.3333333333334</ele><time>2026-04-19T14:33:59Z</time></trkpt><trkpt lat="45.10218299235136" lon="6.939274152250506"><ele>845.0</ele><time>2026-04-19T14:34:00Z</time></trkpt><trkpt lat="45.10224935738366" lon="6.93955350948706"><ele>840.5</ele><time>2026-04-19T14:34:01Z</time></trkpt><trkpt lat="45.10230607555975" lon="6.939869653546931"><ele>836.0</ele><time>2026-04-19T14:34:02Z</time></trkpt><trkpt lat="45.10233100371612" lon="6.940189371082431"><ele>833.5</ele><time>2026-04-19T14:34:03Z</time></trkpt><trkpt lat="45.10242461187189" lon="6.9405661203380715"><ele>831.0</ele><time>2026-04-19T14:34:04Z</time></trkpt><trkpt lat="45.10246914550966" lon="6.940921304073453"><ele>831.0</ele><time>2026-04-19T14:34:05Z</time></trkpt><trkpt lat="45.102546228707986" lon="6.941230020417146"><ele>831.0</ele><time>2026-04-19T14:34:06Z</time></trkpt><trkpt lat="45.10258800951829" lon="6.941556608142039"><ele>827.0</ele><time>2026-04-19T14:34:07Z</time></trkpt><trkpt lat="45.10260866644678" lon="6.941869634578678"><ele>823.0</ele><time>2026-04-19T14:34:08Z</time></trkpt><trkpt lat="45.102630991068686" lon="6.9421595132680345"><ele>819.0</ele><time>2026-04-19T14:34:09Z</time></trkpt><trkpt lat="45.10267911975505" lon="6.942411635127902"><ele>814.3333333333333</ele><time>2026-04-19T14:34:10Z</time></trkpt><trkpt lat="45.102749979903194" lon="6.942652481367608"><ele>809.6666666666666</ele><time>2026-04-19T14:34:11Z</time></trkpt><trkpt lat="45.102897176153874" lon="6.942883774037329"><ele>805.0</ele><time>2026-04-19T14:34:12Z</time></trkpt><trkpt lat="45.10307130719173" lon="6.943096909160541"><ele>805.0</ele><time>2026-04-19T14:34:13Z</time></trkpt><trkpt lat="45.10319379788189" lon="6.94337509741306"><ele>805.0</ele><time>2026-04-19T14:34:14Z</time></trkpt><trkpt lat="45.103313700995145" lon="6.943694319204833"><ele>807.0</ele><time>2026-04-19T14:34:15Z</time></trkpt><trkpt lat="45.103443362409216" lon="6.944006347433547"><ele>809.0</ele><time>2026-04-19T14:34:16Z</time></trkpt><trkpt lat="45.10357585523825" lon="6.944294557434606"><ele>796.5</ele><time>2026-04-19T14:34:17Z</time></trkpt><trkpt lat="45.10375559227422" lon="6.944545843304429"><ele>784.0</ele><time>2026-04-19T14:34:18Z</time></trkpt><trkpt lat="45.10392583114817" lon="6.944811597047369"><ele>785.5</ele><time>2026-04-19T14:34:19Z</time></trkpt><trkpt lat="45.10409265229114" lon="6.945056281976777"><ele>787.0</ele><time>2026-04-19T14:34:20Z</time></trkpt><trkpt lat="45.1041850425789" lon="6.945335361113792"><ele>787.0</ele><time>2026-04-19T14:34:21Z</time></trkpt><trkpt lat="45.10430007370934" lon="6.945564409400655"><ele>787.0</ele><time>2026-04-19T14:34:22Z</time></trkpt><trkpt lat="45.10444103053814" lon="6.945778139394527"><ele>787.0</ele><time>2026-04-19T14:34:23Z</time></trkpt><trkpt lat="45.10462412293708" lon="6.945966840025844"><ele>789.0</ele><time>2026-04-19T14:34:24Z</time></trkpt><trkpt lat="45.10484131278369" lon="6.9461265363472835"><ele>791.0</ele><time>2026-04-19T14:34:25Z</time></trkpt><trkpt lat="45.10504151260516" lon="6.946222375482156"><ele>791.0</ele><time>2026-04-19T14:34:26Z</time></trkpt><trkpt lat="45.10519728773595" lon="6.946385067172256"><ele>791.0</ele><time>2026-04-19T14:34:27Z</time></trkpt><trkpt lat="45.105331405604076" lon="6.946604191833766"><ele>791.0</ele><time>2026-04-19T14:34:28Z</time></trkpt><trkpt lat="45.10546833994953" lon="6.946885658133288"><ele>801.0</ele><time>2026-04-19T14:34:29Z</time></trkpt><trkpt lat="45.10561534647433" lon="6.947191714843679"><ele>811.0</ele><time>2026-04-19T14:34:30Z</time></trkpt><trkpt lat="45.10575861668585" lon="6.947484267107358"><ele>805.0</ele><time>2026-04-19T14:34:31Z</time></trkpt><trkpt lat="45.10587216523966" lon="6.9477287648528065"><ele>799.0</ele><time>2026-04-19T14:34:32Z</time></trkpt><trkpt lat="45.10592279178975" lon="6.947931807950589"><ele>793.0</ele><time>2026-04-19T14:34:33Z</time></trkpt><trkpt lat="45.105912339311374" lon="6.948121286653572"><ele>786.0</ele><time>2026-04-19T14:34:34Z</time></trkpt><trkpt lat="45.10589863618622" lon="6.94841742828717"><ele>779.0</ele><time>2026-04-19T14:34:35Z</time></trkpt><trkpt lat="45.10595442324289" lon="6.9486900511247525"><ele>772.0</ele><time>2026-04-19T14:34:36Z</time></trkpt><trkpt lat="45.1060183957259" lon="6.948978662646256"><ele>766.3333333333333</ele><time>2026-04-19T14:34:37Z</time></trkpt><trkpt lat="45.106122541868174" lon="6.949285094698732"><ele>760.6666666666666</ele><time>2026-04-19T14:34:38Z</time></trkpt><trkpt lat="45.10622437809902" lon="6.949504718962688"><ele>755.0</ele><time>2026-04-19T14:34:39Z</time></trkpt><trkpt lat="45.10635700082795" lon="6.949654357280161"><ele>755.0</ele><time>2026-04-19T14:34:40Z</time></trkpt><trkpt lat="45.10645961389245" lon="6.949866711394454"><ele>755.0</ele><time>2026-04-19T14:34:41Z</time></trkpt><trkpt lat="45.10652017760994" lon="6.950147063150676"><ele>755.0</ele><time>2026-04-19T14:34:42Z</time></trkpt><trkpt lat="45.106542959640656" lon="6.950443870291343"><ele>758.0</ele><time>2026-04-19T14:34:43Z</time></trkpt><trkpt lat="45.10661148126022" lon="6.950703183416373"><ele>761.0</ele><time>2026-04-19T14:34:44Z</time></trkpt><trkpt lat="45.1066790918943" lon="6.9509627741353945"><ele>764.0</ele><time>2026-04-19T14:34:45Z</time></trkpt><trkpt lat="45.10675443727171" lon="6.9512146135245585"><ele>764.0</ele><time>2026-04-19T14:34:46Z</time></trkpt><trkpt lat="45.10684748471513" lon="6.9514319299691465"><ele>764.0</ele><time>2026-04-19T14:34:47Z</time></trkpt><trkpt lat="45.10693230088876" lon="6.9516360693022134"><ele>764.0</ele><time>2026-04-19T14:34:48Z</time></trkpt><trkpt lat="45.107005295461775" lon="6.951869782383066"><ele>757.5</ele><time>2026-04-19T14:34:49Z</time></trkpt><trkpt lat="45.10708199280156" lon="6.952156277891613"><ele>751.0</ele><time>2026-04-19T14:34:50Z</time></trkpt><trkpt lat="45.10716301386684" lon="6.95246686414235"><ele>747.3333333333334</ele><time>2026-04-19T14:34:51Z</time></trkpt><trkpt lat="45.107237656986264" lon="6.952775383379536"><ele>743.6666666666666</ele><time>2026-04-19T14:34:52Z</time></trkpt><trkpt lat="45.10730081575656" lon="6.953067858566449"><ele>740.0</ele><time>2026-04-19T14:34:53Z</time></trkpt><trkpt lat="45.10735996293001" lon="6.953344089126861"><ele>744.3333333333333</ele><time>2026-04-19T14:34:54Z</time></trkpt><trkpt lat="45.107421554345464" lon="6.95361758753233"><ele>748.6666666666666</ele><time>2026-04-19T14:34:55Z</time></trkpt><trkpt lat="45.10750240148963" lon="6.953890778768631"><ele>753.0</ele><time>2026-04-19T14:34:56Z</time></trkpt><trkpt lat="45.10756898343896" lon="6.954149019301965"><ele>748.0</ele><time>2026-04-19T14:34:57Z</time></trkpt><trkpt lat="45.10761768063744" lon="6.954412507134032"><ele>743.0</ele><time>2026-04-19T14:34:58Z</time></trkpt><trkpt lat="45.107682680858076" lon="6.954665125960529"><ele>738.0</ele><time>2026-04-19T14:34:59Z</time></trkpt><trkpt lat="45.1077466342552" lon="6.954913676352233"><ele>740.0</ele><time>2026-04-19T14:35:00Z</time></trkpt><trkpt lat="45.10781351112233" lon="6.955173588628533"><ele>742.0</ele><time>2026-04-19T14:35:01Z</time></trkpt><trkpt lat="45.10787889300202" lon="6.955424968694752"><ele>744.0</ele><time>2026-04-19T14:35:02Z</time></trkpt><trkpt lat="45.10794649449423" lon="6.955676042146561"><ele>748.6666666666666</ele><time>2026-04-19T14:35:03Z</time></trkpt><trkpt lat="45.10803350991117" lon="6.955912151655703"><ele>753.3333333333333</ele><time>2026-04-19T14:35:04Z</time></trkpt><trkpt lat="45.10810742058469" lon="6.956140223498399"><ele>758.0</ele><time>2026-04-19T14:35:05Z</time></trkpt><trkpt lat="45.108185773600596" lon="6.956353442919304"><ele>759.6666666666666</ele><time>2026-04-19T14:35:06Z</time></trkpt><trkpt lat="45.10825058518665" lon="6.956578626334947"><ele>761.3333333333334</ele><time>2026-04-19T14:35:07Z</time></trkpt><trkpt lat="45.10832943007282" lon="6.956802905606172"><ele>763.0</ele><time>2026-04-19T14:35:08Z</time></trkpt><trkpt lat="45.10840141563125" lon="6.9570214413946205"><ele>766.3333333333334</ele><time>2026-04-19T14:35:09Z</time></trkpt><trkpt lat="45.10846478305539" lon="6.957222898910485"><ele>769.6666666666667</ele><time>2026-04-19T14:35:10Z</time></trkpt><trkpt lat="45.10851777883146" lon="6.957436889364298"><ele>773.0</ele><time>2026-04-19T14:35:11Z</time></trkpt><trkpt lat="45.108563913844144" lon="6.957679102886623"><ele>774.6666666666667</ele><time>2026-04-19T14:35:12Z</time></trkpt><trkpt lat="45.10860120678197" lon="6.957953725890318"><ele>776.3333333333333</ele><time>2026-04-19T14:35:13Z</time></trkpt><trkpt lat="45.10862729664177" lon="6.958261246480612"><ele>778.0</ele><time>2026-04-19T14:35:14Z</time></trkpt><trkpt lat="45.108634864067035" lon="6.9585845055557884"><ele>780.3333333333333</ele><time>2026-04-19T14:35:15Z</time></trkpt><trkpt lat="45.108633636820386" lon="6.958895381468779"><ele>782.6666666666667</ele><time>2026-04-19T14:35:16Z</time></trkpt><trkpt lat="45.10863432609884" lon="6.959170633467618"><ele>785.0</ele><time>2026-04-19T14:35:17Z</time></trkpt><trkpt lat="45.108642381633985" lon="6.959423520907903"><ele>789.3333333333334</ele><time>2026-04-19T14:35:18Z</time></trkpt><trkpt lat="45.10867378143312" lon="6.959644621056764"><ele>793.6666666666667</ele><time>2026-04-19T14:35:19Z</time></trkpt><trkpt lat="45.10872634070194" lon="6.959860301329125"><ele>798.0</ele><time>2026-04-19T14:35:20Z</time></trkpt><trkpt lat="45.108834888036824" lon="6.96009679726508"><ele>788.0</ele><time>2026-04-19T14:35:21Z</time></trkpt><trkpt lat="45.10896645572579" lon="6.960367276052747"><ele>778.0</ele><time>2026-04-19T14:35:22Z</time></trkpt><trkpt lat="45.10909183072185" lon="6.9606537077949096"><ele>789.0</ele><time>2026-04-19T14:35:23Z</time></trkpt><trkpt lat="45.109208672360296" lon="6.960973426072824"><ele>800.0</ele><time>2026-04-19T14:35:24Z</time></trkpt><trkpt lat="45.10930258112312" lon="6.961332435664531"><ele>800.0</ele><time>2026-04-19T14:35:25.001Z</time></trkpt><trkpt lat="45.10941948413734" lon="6.9616637026313235"><ele>800.0</ele><time>2026-04-19T14:35:26.001Z</time></trkpt><trkpt lat="45.10955720956947" lon="6.961980773050542"><ele>808.0</ele><time>2026-04-19T14:35:27.001Z</time></trkpt><trkpt lat="45.10974437845251" lon="6.962254749578308"><ele>816.0</ele><time>2026-04-19T14:35:28.001Z</time></trkpt><trkpt lat="45.109894289240316" lon="6.962522906895846"><ele>808.3333333333333</ele><time>2026-04-19T14:35:29.001Z</time></trkpt><trkpt lat="45.109959541741006" lon="6.962821887124245"><ele>800.6666666666666</ele><time>2026-04-19T14:35:30.001Z</time></trkpt><trkpt lat="45.110048908680376" lon="6.963084903426474"><ele>793.0</ele><time>2026-04-19T14:35:31.001Z</time></trkpt><trkpt lat="45.11014382278448" lon="6.963361077761542"><ele>801.5</ele><time>2026-04-19T14:35:32.001Z</time></trkpt><trkpt lat="45.11028935252187" lon="6.9636450033328945"><ele>810.0</ele><time>2026-04-19T14:35:33.001Z</time></trkpt><trkpt lat="45.11046815501585" lon="6.963911460788844"><ele>810.0</ele><time>2026-04-19T14:35:34.001Z</time></trkpt><trkpt lat="45.110634906036125" lon="6.964189284766182"><ele>810.0</ele><time>2026-04-19T14:35:35Z</time></trkpt><trkpt lat="45.11079150710606" lon="6.964454548180835"><ele>809.0</ele><time>2026-04-19T14:35:36Z</time></trkpt><trkpt lat="45.11093853961889" lon="6.964705534953201"><ele>808.0</ele><time>2026-04-19T14:35:37Z</time></trkpt><trkpt lat="45.11107951287733" lon="6.964942388920887"><ele>807.0</ele><time>2026-04-19T14:35:38Z</time></trkpt><trkpt lat="45.11124061116512" lon="6.965194272297896"><ele>807.0</ele><time>2026-04-19T14:35:39Z</time></trkpt><trkpt lat="45.11141883784087" lon="6.965463572468339"><ele>807.0</ele><time>2026-04-19T14:35:40Z</time></trkpt><trkpt lat="45.11158858897993" lon="6.965725404281981"><ele>802.6666666666667</ele><time>2026-04-19T14:35:41Z</time></trkpt><trkpt lat="45.11173765211973" lon="6.965970937933644"><ele>798.3333333333334</ele><time>2026-04-19T14:35:42Z</time></trkpt><trkpt lat="45.11183446333025" lon="6.966227796341358"><ele>794.0</ele><time>2026-04-19T14:35:43Z</time></trkpt><trkpt lat="45.11186775594749" lon="6.966503722386776"><ele>796.0</ele><time>2026-04-19T14:35:44Z</time></trkpt><trkpt lat="45.11188004591525" lon="6.966817968193579"><ele>798.0</ele><time>2026-04-19T14:35:45Z</time></trkpt><trkpt lat="45.111895858767525" lon="6.967118445500493"><ele>800.0</ele><time>2026-04-19T14:35:46Z</time></trkpt><trkpt lat="45.111901611554174" lon="6.967419159494717"><ele>800.0</ele><time>2026-04-19T14:35:47Z</time></trkpt><trkpt lat="45.111910623430866" lon="6.9677230460907476"><ele>800.0</ele><time>2026-04-19T14:35:48Z</time></trkpt><trkpt lat="45.11190808226484" lon="6.968039690978411"><ele>800.0</ele><time>2026-04-19T14:35:49Z</time></trkpt><trkpt lat="45.111902151737105" lon="6.968385494268945"><ele>800.0</ele><time>2026-04-19T14:35:50Z</time></trkpt><trkpt lat="45.111889946696344" lon="6.968721208479736"><ele>800.0</ele><time>2026-04-19T14:35:51Z</time></trkpt><trkpt lat="45.11187694183268" lon="6.968990936921974"><ele>800.0</ele><time>2026-04-19T14:35:52Z</time></trkpt><trkpt lat="45.11188670648062" lon="6.9692100755734"><ele>806.3333333333334</ele><time>2026-04-19T14:35:53Z</time></trkpt><trkpt lat="45.11194678815346" lon="6.969405439769579"><ele>812.6666666666667</ele><time>2026-04-19T14:35:54Z</time></trkpt><trkpt lat="45.11204069582504" lon="6.969579039600358"><ele>819.0</ele><time>2026-04-19T14:35:55Z</time></trkpt><trkpt lat="45.112174131926885" lon="6.969730495366651"><ele>819.0</ele><time>2026-04-19T14:35:56Z</time></trkpt><trkpt lat="45.11235282454735" lon="6.969830569338886"><ele>819.0</ele><time>2026-04-19T14:35:57Z</time></trkpt><trkpt lat="45.11257909824348" lon="6.969978776495624"><ele>819.0</ele><time>2026-04-19T14:35:58Z</time></trkpt><trkpt lat="45.11281236947383" lon="6.970155691550557"><ele>814.0</ele><time>2026-04-19T14:35:59Z</time></trkpt><trkpt lat="45.11303566997413" lon="6.970356767323845"><ele>809.0</ele><time>2026-04-19T14:36:00Z</time></trkpt><trkpt lat="45.113222627482116" lon="6.9705662818540555"><ele>800.0</ele><time>2026-04-19T14:36:01Z</time></trkpt><trkpt lat="45.113384654892315" lon="6.970784863953863"><ele>791.0</ele><time>2026-04-19T14:36:02Z</time></trkpt><trkpt lat="45.11352560482359" lon="6.9710988812034"><ele>791.0</ele><time>2026-04-19T14:36:03Z</time></trkpt><trkpt lat="45.11364980923033" lon="6.9714323885560905"><ele>791.0</ele><time>2026-04-19T14:36:04Z</time></trkpt><trkpt lat="45.11375058478085" lon="6.971745009055274"><ele>789.6666666666667</ele><time>2026-04-19T14:36:05Z</time></trkpt><trkpt lat="45.11384592464147" lon="6.972025805508622"><ele>788.3333333333333</ele><time>2026-04-19T14:36:06Z</time></trkpt><trkpt lat="45.11394856393313" lon="6.97229313159428"><ele>787.0</ele><time>2026-04-19T14:36:07Z</time></trkpt><trkpt lat="45.11407471133065" lon="6.972525983450768"><ele>787.0</ele><time>2026-04-19T14:36:08Z</time></trkpt><trkpt lat="45.114217275981304" lon="6.9727373204866545"><ele>787.0</ele><time>2026-04-19T14:36:09Z</time></trkpt><trkpt lat="45.11436264883814" lon="6.972941320903015"><ele>787.0</ele><time>2026-04-19T14:36:10Z</time></trkpt><trkpt lat="45.1145017067966" lon="6.9731520421894455"><ele>789.3333333333333</ele><time>2026-04-19T14:36:11Z</time></trkpt><trkpt lat="45.11463341108108" lon="6.973360995595751"><ele>791.6666666666667</ele><time>2026-04-19T14:36:12Z</time></trkpt><trkpt lat="45.11476486705794" lon="6.973557460601653"><ele>794.0</ele><time>2026-04-19T14:36:13Z</time></trkpt><trkpt lat="45.1148979258086" lon="6.973761367435187"><ele>791.0</ele><time>2026-04-19T14:36:14Z</time></trkpt><trkpt lat="45.11504091120749" lon="6.973981589971591"><ele>788.0</ele><time>2026-04-19T14:36:15Z</time></trkpt><trkpt lat="45.11518743885052" lon="6.974208114053651"><ele>785.0</ele><time>2026-04-19T14:36:16Z</time></trkpt><trkpt lat="45.1153230672305" lon="6.974415542221623"><ele>785.0</ele><time>2026-04-19T14:36:17Z</time></trkpt><trkpt lat="45.115446365947506" lon="6.974608561244357"><ele>785.0</ele><time>2026-04-19T14:36:18Z</time></trkpt><trkpt lat="45.11555681404231" lon="6.974777277904131"><ele>785.0</ele><time>2026-04-19T14:36:19Z</time></trkpt><trkpt lat="45.11566727048782" lon="6.974939185620875"><ele>783.3333333333334</ele><time>2026-04-19T14:36:20Z</time></trkpt><trkpt lat="45.11577764745418" lon="6.9751091669324055"><ele>781.6666666666667</ele><time>2026-04-19T14:36:21Z</time></trkpt><trkpt lat="45.11588777093707" lon="6.9752833992078935"><ele>780.0</ele><time>2026-04-19T14:36:22Z</time></trkpt><trkpt lat="45.11599872871247" lon="6.97545784754195"><ele>780.0</ele><time>2026-04-19T14:36:23Z</time></trkpt><trkpt lat="45.116109014194144" lon="6.975630815123215"><ele>780.0</ele><time>2026-04-19T14:36:24Z</time></trkpt><trkpt lat="45.11622036762547" lon="6.975800415224039"><ele>780.0</ele><time>2026-04-19T14:36:25Z</time></trkpt><trkpt lat="45.116327218058295" lon="6.9759670359127135"><ele>780.3333333333333</ele><time>2026-04-19T14:36:26Z</time></trkpt><trkpt lat="45.11643667098556" lon="6.97612728545936"><ele>780.6666666666666</ele><time>2026-04-19T14:36:27Z</time></trkpt><trkpt lat="45.116545778778715" lon="6.976285464247275"><ele>781.0</ele><time>2026-04-19T14:36:28Z</time></trkpt><trkpt lat="45.116652714346294" lon="6.976446471847115"><ele>778.5</ele><time>2026-04-19T14:36:29Z</time></trkpt><trkpt lat="45.116744397977136" lon="6.976599353251854"><ele>776.0</ele><time>2026-04-19T14:36:30Z</time></trkpt><trkpt lat="45.11681990183949" lon="6.976748016911417"><ele>773.5</ele><time>2026-04-19T14:36:31Z</time></trkpt><trkpt lat="45.1168867676743" lon="6.976895125799665"><ele>771.0</ele><time>2026-04-19T14:36:32Z</time></trkpt><trkpt lat="45.11694281096197" lon="6.977049121629932"><ele>770.25</ele><time>2026-04-19T14:36:33Z</time></trkpt><trkpt lat="45.11698540164519" lon="6.977206365897833"><ele>769.5</ele><time>2026-04-19T14:36:34Z</time></trkpt><trkpt lat="45.117021656593515" lon="6.977371121583973"><ele>768.75</ele><time>2026-04-19T14:36:35Z</time></trkpt><trkpt lat="45.117053457325916" lon="6.977524165575193"><ele>768.0</ele><time>2026-04-19T14:36:36Z</time></trkpt><trkpt lat="45.11707523858544" lon="6.977701834884834"><ele>767.75</ele><time>2026-04-19T14:36:37Z</time></trkpt><trkpt lat="45.11709017872806" lon="6.977881504801606"><ele>767.5</ele><time>2026-04-19T14:36:38Z</time></trkpt><trkpt lat="45.11709833935228" lon="6.978083796600791"><ele>767.25</ele><time>2026-04-19T14:36:39Z</time></trkpt><trkpt lat="45.1170873597958" lon="6.978284563378888"><ele>767.0</ele><time>2026-04-19T14:36:40Z</time></trkpt><trkpt lat="45.117092696314266" lon="6.978493619487621"><ele>766.25</ele><time>2026-04-19T14:36:41Z</time></trkpt><trkpt lat="45.117098086226264" lon="6.978704767146989"><ele>765.5</ele><time>2026-04-19T14:36:42Z</time></trkpt><trkpt lat="45.11710327911111" lon="6.9789081964496456"><ele>764.75</ele><time>2026-04-19T14:36:43Z</time></trkpt><trkpt lat="45.11710836191833" lon="6.979107313474529"><ele>764.0</ele><time>2026-04-19T14:36:44Z</time></trkpt><trkpt lat="45.11711335174595" lon="6.979302788049212"><ele>763.75</ele><time>2026-04-19T14:36:45Z</time></trkpt><trkpt lat="45.117133882912015" lon="6.979485202049303"><ele>763.5</ele><time>2026-04-19T14:36:46Z</time></trkpt><trkpt lat="45.1171395944373" lon="6.979658148834527"><ele>763.25</ele><time>2026-04-19T14:36:47Z</time></trkpt><trkpt lat="45.11714332302288" lon="6.979848062516451"><ele>763.0</ele><time>2026-04-19T14:36:48Z</time></trkpt><trkpt lat="45.117148008915315" lon="6.98004060483822"><ele>764.5</ele><time>2026-04-19T14:36:49Z</time></trkpt><trkpt lat="45.11715078487681" lon="6.980221679089235"><ele>766.0</ele><time>2026-04-19T14:36:50Z</time></trkpt><trkpt lat="45.11715079205234" lon="6.980392319489145"><ele>767.5</ele><time>2026-04-19T14:36:51Z</time></trkpt><trkpt lat="45.1171654740338" lon="6.980580814826922"><ele>769.0</ele><time>2026-04-19T14:36:52Z</time></trkpt><trkpt lat="45.117160356372786" lon="6.980774191984928"><ele>770.25</ele><time>2026-04-19T14:36:53Z</time></trkpt><trkpt lat="45.11718161366312" lon="6.980945617552436"><ele>771.5</ele><time>2026-04-19T14:36:54Z</time></trkpt><trkpt lat="45.117171354228915" lon="6.981110486472659"><ele>772.75</ele><time>2026-04-19T14:36:55Z</time></trkpt><trkpt lat="45.11718988827102" lon="6.981292996302882"><ele>774.0</ele><time>2026-04-19T14:36:56Z</time></trkpt><trkpt lat="45.11719529205926" lon="6.981438791592991"><ele>774.0</ele><time>2026-04-19T14:36:57Z</time></trkpt><trkpt lat="45.11720022290013" lon="6.98159724375792"><ele>774.0</ele><time>2026-04-19T14:36:58Z</time></trkpt><trkpt lat="45.117204408819966" lon="6.981765113933834"><ele>774.0</ele><time>2026-04-19T14:36:59Z</time></trkpt><trkpt lat="45.11720579782686" lon="6.981932465713088"><ele>774.0</ele><time>2026-04-19T14:37:00Z</time></trkpt><trkpt lat="45.11721860136035" lon="6.982096753152084"><ele>775.8000000000001</ele><time>2026-04-19T14:37:01Z</time></trkpt><trkpt lat="45.117242497694065" lon="6.982252025566296"><ele>777.6</ele><time>2026-04-19T14:37:02Z</time></trkpt><trkpt lat="45.11727083920858" lon="6.982408154886938"><ele>779.4</ele><time>2026-04-19T14:37:03Z</time></trkpt><trkpt lat="45.11730358286733" lon="6.982557496606322"><ele>781.2</ele><time>2026-04-19T14:37:04Z</time></trkpt><trkpt lat="45.11734444050295" lon="6.982705572189427"><ele>783.0</ele><time>2026-04-19T14:37:05Z</time></trkpt><trkpt lat="45.11739276765809" lon="6.982859309104222"><ele>779.5</ele><time>2026-04-19T14:37:06Z</time></trkpt><trkpt lat="45.11745454010895" lon="6.9830125071778495"><ele>776.0</ele><time>2026-04-19T14:37:07Z</time></trkpt><trkpt lat="45.11753996334432" lon="6.9831583225021685"><ele>772.5</ele><time>2026-04-19T14:37:08Z</time></trkpt><trkpt lat="45.117628226597965" lon="6.983305098176806"><ele>769.0</ele><time>2026-04-19T14:37:09Z</time></trkpt><trkpt lat="45.117720615618424" lon="6.983442318796947"><ele>769.0</ele><time>2026-04-19T14:37:10Z</time></trkpt><trkpt lat="45.11783994929086" lon="6.983608511561711"><ele>769.0</ele><time>2026-04-19T14:37:11Z</time></trkpt><trkpt lat="45.11796917035185" lon="6.983805246096135"><ele>769.0</ele><time>2026-04-19T14:37:12Z</time></trkpt><trkpt lat="45.11808111938591" lon="6.9840016510502485"><ele>769.0</ele><time>2026-04-19T14:37:13Z</time></trkpt><trkpt lat="45.118185275186256" lon="6.984174110664115"><ele>769.0</ele><time>2026-04-19T14:37:14Z</time></trkpt><trkpt lat="45.11828130262151" lon="6.9843321443386746"><ele>769.0</ele><time>2026-04-19T14:37:15Z</time></trkpt><trkpt lat="45.11837345656112" lon="6.984483891373767"><ele>769.0</ele><time>2026-04-19T14:37:16Z</time></trkpt><trkpt lat="45.11845964089357" lon="6.984625692710818"><ele>769.0</ele><time>2026-04-19T14:37:17Z</time></trkpt><trkpt lat="45.11854426977355" lon="6.984752021347507"><ele>769.0</ele><time>2026-04-19T14:37:18Z</time></trkpt><trkpt lat="45.11862532840219" lon="6.984876682899789"><ele>769.0</ele><time>2026-04-19T14:37:19Z</time></trkpt><trkpt lat="45.11870002824914" lon="6.984995731205782"><ele>769.0</ele><time>2026-04-19T14:37:20Z</time></trkpt><trkpt lat="45.118780301733814" lon="6.98511332101268"><ele>769.0</ele><time>2026-04-19T14:37:21Z</time></trkpt><trkpt lat="45.11885623093487" lon="6.985238543769755"><ele>769.0</ele><time>2026-04-19T14:37:22Z</time></trkpt><trkpt lat="45.11893788177659" lon="6.9853639869515955"><ele>769.0</ele><time>2026-04-19T14:37:23Z</time></trkpt><trkpt lat="45.119018514530005" lon="6.985505125601106"><ele>769.0</ele><time>2026-04-19T14:37:24Z</time></trkpt><trkpt lat="45.11910812846124" lon="6.985631734115884"><ele>768.0</ele><time>2026-04-19T14:37:25Z</time></trkpt><trkpt lat="45.11920105638932" lon="6.985749696096619"><ele>767.0</ele><time>2026-04-19T14:37:26Z</time></trkpt><trkpt lat="45.1192975140874" lon="6.985866790875113"><ele>766.0</ele><time>2026-04-19T14:37:27Z</time></trkpt><trkpt lat="45.119396119797685" lon="6.985964181438299"><ele>765.0</ele><time>2026-04-19T14:37:28Z</time></trkpt><trkpt lat="45.119497709022326" lon="6.9860484151647935"><ele>765.0</ele><time>2026-04-19T14:37:29Z</time></trkpt><trkpt lat="45.11959621220778" lon="6.986124676798505"><ele>765.0</ele><time>2026-04-19T14:37:30Z</time></trkpt><trkpt lat="45.119710039021555" lon="6.986212250542526"><ele>765.0</ele><time>2026-04-19T14:37:31Z</time></trkpt><trkpt lat="45.119829068079945" lon="6.986280119672985"><ele>765.0</ele><time>2026-04-19T14:37:32Z</time></trkpt><trkpt lat="45.119959903632" lon="6.986326183849671"><ele>763.5</ele><time>2026-04-19T14:37:33Z</time></trkpt><trkpt lat="45.12008483868306" lon="6.986365870407009"><ele>762.0</ele><time>2026-04-19T14:37:34Z</time></trkpt><trkpt lat="45.12021020753201" lon="6.986389612479443"><ele>760.5</ele><time>2026-04-19T14:37:35Z</time></trkpt><trkpt lat="45.120331982872514" lon="6.986432732185496"><ele>759.0</ele><time>2026-04-19T14:37:36Z</time></trkpt><trkpt lat="45.1204534912733" lon="6.986495537738557"><ele>759.0</ele><time>2026-04-19T14:37:37Z</time></trkpt><trkpt lat="45.12055277750436" lon="6.986605105607477"><ele>759.0</ele><time>2026-04-19T14:37:38Z</time></trkpt><trkpt lat="45.1206426693604" lon="6.98672432089495"><ele>759.0</ele><time>2026-04-19T14:37:39Z</time></trkpt><trkpt lat="45.12072121355524" lon="6.9868611302090295"><ele>759.0</ele><time>2026-04-19T14:37:40Z</time></trkpt><trkpt lat="45.12079466392947" lon="6.987019125573376"><ele>758.25</ele><time>2026-04-19T14:37:41Z</time></trkpt><trkpt lat="45.12086268237733" lon="6.987196569992337"><ele>757.5</ele><time>2026-04-19T14:37:42Z</time></trkpt><trkpt lat="45.12092633379136" lon="6.987382117065173"><ele>756.75</ele><time>2026-04-19T14:37:43Z</time></trkpt><trkpt lat="45.12099468152917" lon="6.987578947063073"><ele>756.0</ele><time>2026-04-19T14:37:44Z</time></trkpt><trkpt lat="45.121062780772114" lon="6.9877802535181965"><ele>756.0</ele><time>2026-04-19T14:37:45Z</time></trkpt><trkpt lat="45.12113135106275" lon="6.987970130309805"><ele>756.0</ele><time>2026-04-19T14:37:46Z</time></trkpt><trkpt lat="45.12119718623652" lon="6.988151237731895"><ele>756.0</ele><time>2026-04-19T14:37:47Z</time></trkpt><trkpt lat="45.121261470572314" lon="6.98832421291119"><ele>756.0</ele><time>2026-04-19T14:37:48Z</time></trkpt><trkpt lat="45.121326156480905" lon="6.988492380171659"><ele>756.5</ele><time>2026-04-19T14:37:49Z</time></trkpt><trkpt lat="45.121389017819176" lon="6.988660016261429"><ele>757.0</ele><time>2026-04-19T14:37:50Z</time></trkpt><trkpt lat="45.12145708782916" lon="6.988842214934104"><ele>757.5</ele><time>2026-04-19T14:37:51Z</time></trkpt><trkpt lat="45.12153461210058" lon="6.989041995017537"><ele>758.0</ele><time>2026-04-19T14:37:52Z</time></trkpt><trkpt lat="45.12161467080226" lon="6.989265468805471"><ele>754.6666666666666</ele><time>2026-04-19T14:37:53Z</time></trkpt><trkpt lat="45.12169227103057" lon="6.98948191871893"><ele>751.3333333333334</ele><time>2026-04-19T14:37:54Z</time></trkpt><trkpt lat="45.12176588188656" lon="6.9896930828331865"><ele>748.0</ele><time>2026-04-19T14:37:55Z</time></trkpt><trkpt lat="45.121832783905084" lon="6.989894316853302"><ele>748.3333333333334</ele><time>2026-04-19T14:37:56Z</time></trkpt><trkpt lat="45.12188981376938" lon="6.9900992492703455"><ele>748.6666666666666</ele><time>2026-04-19T14:37:57Z</time></trkpt><trkpt lat="45.1219339920086" lon="6.990312297049336"><ele>749.0</ele><time>2026-04-19T14:37:58Z</time></trkpt><trkpt lat="45.12195235062441" lon="6.990554841891113"><ele>749.0</ele><time>2026-04-19T14:37:59Z</time></trkpt><trkpt lat="45.12199222619965" lon="6.990834886134046"><ele>749.0</ele><time>2026-04-19T14:38:00Z</time></trkpt><trkpt lat="45.12205507652795" lon="6.9911223696616895"><ele>749.0</ele><time>2026-04-19T14:38:01Z</time></trkpt><trkpt lat="45.1221122053663" lon="6.991390463137326"><ele>750.0</ele><time>2026-04-19T14:38:02Z</time></trkpt><trkpt lat="45.12218501379318" lon="6.991630355581612"><ele>751.0</ele><time>2026-04-19T14:38:03Z</time></trkpt><trkpt lat="45.12225505469586" lon="6.991855586912248"><ele>752.0</ele><time>2026-04-19T14:38:04Z</time></trkpt><trkpt lat="45.122317445007305" lon="6.992074806884849"><ele>753.0</ele><time>2026-04-19T14:38:05Z</time></trkpt><trkpt lat="45.122381214861655" lon="6.992312610902515"><ele>754.0</ele><time>2026-04-19T14:38:06Z</time></trkpt><trkpt lat="45.122437959750634" lon="6.99258014114359"><ele>755.0</ele><time>2026-04-19T14:38:07Z</time></trkpt><trkpt lat="45.12251480446869" lon="6.992863779536864"><ele>751.0</ele><time>2026-04-19T14:38:08Z</time></trkpt><trkpt lat="45.12259865377009" lon="6.993136456760288"><ele>747.0</ele><time>2026-04-19T14:38:09Z</time></trkpt><trkpt lat="45.12267590556332" lon="6.993422845632176"><ele>743.0</ele><time>2026-04-19T14:38:10Z</time></trkpt><trkpt lat="45.12275475548006" lon="6.993710378777004"><ele>743.0</ele><time>2026-04-19T14:38:11Z</time></trkpt><trkpt lat="45.122824378487174" lon="6.993989159056752"><ele>743.0</ele><time>2026-04-19T14:38:12Z</time></trkpt><trkpt lat="45.12289710199737" lon="6.994255073098534"><ele>743.0</ele><time>2026-04-19T14:38:13Z</time></trkpt><trkpt lat="45.12297366891145" lon="6.994527787711196"><ele>745.0</ele><time>2026-04-19T14:38:14Z</time></trkpt><trkpt lat="45.12304438427192" lon="6.994801667450782"><ele>747.0</ele><time>2026-04-19T14:38:15Z</time></trkpt><trkpt lat="45.12311713209619" lon="6.99507505004385"><ele>749.0</ele><time>2026-04-19T14:38:16Z</time></trkpt><trkpt lat="45.12319263293423" lon="6.995359631690778"><ele>747.3333333333333</ele><time>2026-04-19T14:38:17Z</time></trkpt><trkpt lat="45.123269246264435" lon="6.995646104874309"><ele>745.6666666666666</ele><time>2026-04-19T14:38:18Z</time></trkpt><trkpt lat="45.123356872395895" lon="6.995939140665266"><ele>744.0</ele><time>2026-04-19T14:38:19Z</time></trkpt><trkpt lat="45.123466763322185" lon="6.9962353074150565"><ele>744.0</ele><time>2026-04-19T14:38:20Z</time></trkpt><trkpt lat="45.123592607903845" lon="6.9965263913149895"><ele>744.0</ele><time>2026-04-19T14:38:21Z</time></trkpt><trkpt lat="45.123732822028465" lon="6.996819696971209"><ele>746.5</ele><time>2026-04-19T14:38:22Z</time></trkpt><trkpt lat="45.123885042272164" lon="6.997103786454282"><ele>749.0</ele><time>2026-04-19T14:38:23Z</time></trkpt><trkpt lat="45.124050864256745" lon="6.997367785711329"><ele>745.5</ele><time>2026-04-19T14:38:24Z</time></trkpt><trkpt lat="45.124231713016165" lon="6.997620595372568"><ele>742.0</ele><time>2026-04-19T14:38:25Z</time></trkpt><trkpt lat="45.12440149284118" lon="6.997877881518532"><ele>742.0</ele><time>2026-04-19T14:38:26Z</time></trkpt><trkpt lat="45.124522796540916" lon="6.998183096755964"><ele>742.0</ele><time>2026-04-19T14:38:27Z</time></trkpt><trkpt lat="45.124624450893045" lon="6.998514756549042"><ele>742.0</ele><time>2026-04-19T14:38:28Z</time></trkpt><trkpt lat="45.12469713367969" lon="6.99887085472954"><ele>742.0</ele><time>2026-04-19T14:38:29Z</time></trkpt><trkpt lat="45.12472608579087" lon="6.999244205353521"><ele>743.5</ele><time>2026-04-19T14:38:30Z</time></trkpt><trkpt lat="45.12471855389958" lon="6.999632450630144"><ele>745.0</ele><time>2026-04-19T14:38:31Z</time></trkpt><trkpt lat="45.12468516691164" lon="7.000025578267662"><ele>745.0</ele><time>2026-04-19T14:38:32Z</time></trkpt><trkpt lat="45.12466114039872" lon="7.0004070078406775"><ele>745.0</ele><time>2026-04-19T14:38:33Z</time></trkpt><trkpt lat="45.1246230652634" lon="7.000754188538348"><ele>745.0</ele><time>2026-04-19T14:38:34Z</time></trkpt><trkpt lat="45.12458654011632" lon="7.001081129675521"><ele>745.0</ele><time>2026-04-19T14:38:35Z</time></trkpt><trkpt lat="45.12456372686359" lon="7.001395461768162"><ele>745.6666666666667</ele><time>2026-04-19T14:38:36Z</time></trkpt><trkpt lat="45.124547250767556" lon="7.001699853922838"><ele>746.3333333333334</ele><time>2026-04-19T14:38:37Z</time></trkpt><trkpt lat="45.12457933023571" lon="7.002018875170011"><ele>747.0</ele><time>2026-04-19T14:38:38Z</time></trkpt><trkpt lat="45.124661031509255" lon="7.002325862622951"><ele>749.5</ele><time>2026-04-19T14:38:39Z</time></trkpt><trkpt lat="45.12478470248953" lon="7.002604299884424"><ele>752.0</ele><time>2026-04-19T14:38:40Z</time></trkpt><trkpt lat="45.12493621538804" lon="7.002844826198101"><ele>748.0</ele><time>2026-04-19T14:38:41Z</time></trkpt><trkpt lat="45.1250975370455" lon="7.003093588428014"><ele>744.0</ele><time>2026-04-19T14:38:42Z</time></trkpt><trkpt lat="45.125246385186855" lon="7.003372689245753"><ele>744.0</ele><time>2026-04-19T14:38:43Z</time></trkpt><trkpt lat="45.12537565437042" lon="7.003660276336393"><ele>744.0</ele><time>2026-04-19T14:38:44Z</time></trkpt><trkpt lat="45.12549173163161" lon="7.0039440609125645"><ele>744.6666666666666</ele><time>2026-04-19T14:38:45Z</time></trkpt><trkpt lat="45.125587080962525" lon="7.004230109956718"><ele>745.3333333333333</ele><time>2026-04-19T14:38:46Z</time></trkpt><trkpt lat="45.12568704099217" lon="7.004493184856579"><ele>746.0</ele><time>2026-04-19T14:38:47Z</time></trkpt><trkpt lat="45.1257870465087" lon="7.004734357677685"><ele>745.0</ele><time>2026-04-19T14:38:48Z</time></trkpt><trkpt lat="45.12587965935998" lon="7.004973276013163"><ele>744.0</ele><time>2026-04-19T14:38:49Z</time></trkpt><trkpt lat="45.12596357543488" lon="7.005205304551777"><ele>743.0</ele><time>2026-04-19T14:38:50Z</time></trkpt><trkpt lat="45.126040923471784" lon="7.005429685293509"><ele>743.0</ele><time>2026-04-19T14:38:51Z</time></trkpt><trkpt lat="45.12611022740042" lon="7.00565387485948"><ele>743.0</ele><time>2026-04-19T14:38:52Z</time></trkpt><trkpt lat="45.12617248259805" lon="7.00588398660659"><ele>743.0</ele><time>2026-04-19T14:38:53Z</time></trkpt><trkpt lat="45.12622665638324" lon="7.006106959835433"><ele>743.6666666666666</ele><time>2026-04-19T14:38:54Z</time></trkpt><trkpt lat="45.12627389904896" lon="7.006316088735166"><ele>744.3333333333334</ele><time>2026-04-19T14:38:55Z</time></trkpt><trkpt lat="45.126316484136915" lon="7.006518715320045"><ele>745.0</ele><time>2026-04-19T14:38:56Z</time></trkpt><trkpt lat="45.126353106397666" lon="7.006725745669027"><ele>745.0</ele><time>2026-04-19T14:38:57Z</time></trkpt><trkpt lat="45.12638725724318" lon="7.0069321039983645"><ele>745.0</ele><time>2026-04-19T14:38:58Z</time></trkpt><trkpt lat="45.12642017056203" lon="7.007139749331703"><ele>745.0</ele><time>2026-04-19T14:38:59Z</time></trkpt><trkpt lat="45.12645109413344" lon="7.007344826487372"><ele>745.0</ele><time>2026-04-19T14:39:00Z</time></trkpt><trkpt lat="45.126480966439445" lon="7.007542236466551"><ele>744.6666666666667</ele><time>2026-04-19T14:39:01Z</time></trkpt><trkpt lat="45.12651453163063" lon="7.007748812480561"><ele>744.3333333333334</ele><time>2026-04-19T14:39:02Z</time></trkpt><trkpt lat="45.12655233727053" lon="7.007971522802515"><ele>744.0</ele><time>2026-04-19T14:39:03Z</time></trkpt><trkpt lat="45.12657461997129" lon="7.008237790101795"><ele>741.3333333333334</ele><time>2026-04-19T14:39:04Z</time></trkpt><trkpt lat="45.12661515664959" lon="7.00851261497142"><ele>738.6666666666667</ele><time>2026-04-19T14:39:05Z</time></trkpt><trkpt lat="45.12665872223369" lon="7.008802381225826"><ele>736.0</ele><time>2026-04-19T14:39:06Z</time></trkpt><trkpt lat="45.12670504199284" lon="7.009107891620749"><ele>738.3333333333334</ele><time>2026-04-19T14:39:07Z</time></trkpt><trkpt lat="45.126761231085425" lon="7.009390756369476"><ele>740.6666666666666</ele><time>2026-04-19T14:39:08Z</time></trkpt><trkpt lat="45.12679486215464" lon="7.009655333028867"><ele>743.0</ele><time>2026-04-19T14:39:09Z</time></trkpt><trkpt lat="45.1268322609029" lon="7.0099005516574735"><ele>744.0</ele><time>2026-04-19T14:39:10Z</time></trkpt><trkpt lat="45.12687182829002" lon="7.0101431935362895"><ele>745.0</ele><time>2026-04-19T14:39:11Z</time></trkpt><trkpt lat="45.1269130045568" lon="7.010398946670473"><ele>746.0</ele><time>2026-04-19T14:39:12Z</time></trkpt><trkpt lat="45.126953248237506" lon="7.010655915764232"><ele>746.3333333333333</ele><time>2026-04-19T14:39:13Z</time></trkpt><trkpt lat="45.126995933388955" lon="7.010917746906775"><ele>746.6666666666666</ele><time>2026-04-19T14:39:14Z</time></trkpt><trkpt lat="45.12703737264041" lon="7.011184418375408"><ele>747.0</ele><time>2026-04-19T14:39:15Z</time></trkpt><trkpt lat="45.127060933309664" lon="7.011466306821264"><ele>747.6666666666666</ele><time>2026-04-19T14:39:16Z</time></trkpt><trkpt lat="45.12709600055711" lon="7.01175101555599"><ele>748.3333333333333</ele><time>2026-04-19T14:39:17Z</time></trkpt><trkpt lat="45.12712748211576" lon="7.012026743805398"><ele>749.0</ele><time>2026-04-19T14:39:18Z</time></trkpt><trkpt lat="45.12716248645123" lon="7.012295412221461"><ele>750.3333333333333</ele><time>2026-04-19T14:39:19Z</time></trkpt><trkpt lat="45.1271868216957" lon="7.012557022793264"><ele>751.6666666666666</ele><time>2026-04-19T14:39:20Z</time></trkpt><trkpt lat="45.127208038811226" lon="7.012813894309425"><ele>753.0</ele><time>2026-04-19T14:39:21Z</time></trkpt><trkpt lat="45.12723231919022" lon="7.0130603167245935"><ele>753.0</ele><time>2026-04-19T14:39:22Z</time></trkpt><trkpt lat="45.12726026363879" lon="7.01330000287143"><ele>753.0</ele><time>2026-04-19T14:39:23Z</time></trkpt><trkpt lat="45.12728499360223" lon="7.013539464012858"><ele>753.0</ele><time>2026-04-19T14:39:24Z</time></trkpt><trkpt lat="45.12730587915334" lon="7.013773702806915"><ele>754.3333333333334</ele><time>2026-04-19T14:39:25Z</time></trkpt><trkpt lat="45.12732401189749" lon="7.014017896512986"><ele>755.6666666666667</ele><time>2026-04-19T14:39:26Z</time></trkpt><trkpt lat="45.12732603149835" lon="7.014269193763211"><ele>757.0</ele><time>2026-04-19T14:39:27Z</time></trkpt><trkpt lat="45.12730220896116" lon="7.014522745577533"><ele>757.0</ele><time>2026-04-19T14:39:28Z</time></trkpt><trkpt lat="45.12723692656532" lon="7.014769577425449"><ele>757.0</ele><time>2026-04-19T14:39:29Z</time></trkpt><trkpt lat="45.12718838731134" lon="7.01501670595879"><ele>757.0</ele><time>2026-04-19T14:39:30Z</time></trkpt><trkpt lat="45.127115429674824" lon="7.015258369021763"><ele>757.6666666666667</ele><time>2026-04-19T14:39:31Z</time></trkpt><trkpt lat="45.127054137211" lon="7.015491448550681"><ele>758.3333333333334</ele><time>2026-04-19T14:39:32Z</time></trkpt><trkpt lat="45.12700199264253" lon="7.015729360881773"><ele>759.0</ele><time>2026-04-19T14:39:33Z</time></trkpt><trkpt lat="45.12696458039785" lon="7.015959756546317"><ele>759.3333333333334</ele><time>2026-04-19T14:39:34Z</time></trkpt><trkpt lat="45.12690359356902" lon="7.0162246849561996"><ele>759.6666666666667</ele><time>2026-04-19T14:39:35Z</time></trkpt><trkpt lat="45.12686523749382" lon="7.0165275893338785"><ele>760.0</ele><time>2026-04-19T14:39:36Z</time></trkpt><trkpt lat="45.12680879493561" lon="7.016784695898949"><ele>760.0</ele><time>2026-04-19T14:39:37Z</time></trkpt><trkpt lat="45.12672037073302" lon="7.016970270538385"><ele>760.0</ele><time>2026-04-19T14:39:38Z</time></trkpt><trkpt lat="45.126662650102524" lon="7.017154412463621"><ele>760.0</ele><time>2026-04-19T14:39:39Z</time></trkpt><trkpt lat="45.12659836394018" lon="7.017304418552031"><ele>760.0</ele><time>2026-04-19T14:39:40Z</time></trkpt><trkpt lat="45.12656638723746" lon="7.017469639674188"><ele>762.0</ele><time>2026-04-19T14:39:41Z</time></trkpt><trkpt lat="45.12655929685983" lon="7.017630714969371"><ele>764.0</ele><time>2026-04-19T14:39:42Z</time></trkpt><trkpt lat="45.126560280569045" lon="7.017793892288001"><ele>766.0</ele><time>2026-04-19T14:39:43Z</time></trkpt><trkpt lat="45.1265463006039" lon="7.017957787410392"><ele>768.0</ele><time>2026-04-19T14:39:44Z</time></trkpt><trkpt lat="45.126532794591604" lon="7.018131282212136"><ele>768.0</ele><time>2026-04-19T14:39:45Z</time></trkpt><trkpt lat="45.12653028352014" lon="7.018314722021042"><ele>768.0</ele><time>2026-04-19T14:39:46Z</time></trkpt><trkpt lat="45.126501504629545" lon="7.0185006963030645"><ele>768.0</ele><time>2026-04-19T14:39:47Z</time></trkpt><trkpt lat="45.12646442017733" lon="7.018687613080456"><ele>768.0</ele><time>2026-04-19T14:39:48Z</time></trkpt><trkpt lat="45.12640128396158" lon="7.018867937606952"><ele>766.6666666666666</ele><time>2026-04-19T14:39:49Z</time></trkpt><trkpt lat="45.12634358387435" lon="7.019061235739235"><ele>765.3333333333333</ele><time>2026-04-19T14:39:50Z</time></trkpt><trkpt lat="45.126275646720764" lon="7.019282041850763"><ele>764.0</ele><time>2026-04-19T14:39:51Z</time></trkpt><trkpt lat="45.12620333396182" lon="7.019514209070597"><ele>761.3333333333333</ele><time>2026-04-19T14:39:52Z</time></trkpt><trkpt lat="45.12612976221345" lon="7.019744682579399"><ele>758.6666666666666</ele><time>2026-04-19T14:39:53Z</time></trkpt><trkpt lat="45.12604581885029" lon="7.019960152148204"><ele>756.0</ele><time>2026-04-19T14:39:54Z</time></trkpt><trkpt lat="45.12594569614618" lon="7.020163075203707"><ele>754.0</ele><time>2026-04-19T14:39:55Z</time></trkpt><trkpt lat="45.12585027629278" lon="7.0203750663506534"><ele>752.0</ele><time>2026-04-19T14:39:56Z</time></trkpt><trkpt lat="45.12574077461446" lon="7.020581265764733"><ele>750.0</ele><time>2026-04-19T14:39:57Z</time></trkpt><trkpt lat="45.12564725297098" lon="7.020801939077829"><ele>762.6666666666667</ele><time>2026-04-19T14:39:58Z</time></trkpt><trkpt lat="45.125597045482294" lon="7.021062978932791"><ele>775.3333333333334</ele><time>2026-04-19T14:39:59Z</time></trkpt><trkpt lat="45.12559119702732" lon="7.021348611676064"><ele>788.0</ele><time>2026-04-19T14:40:00Z</time></trkpt><trkpt lat="45.12562994576941" lon="7.0216469777099535"><ele>791.3333333333334</ele><time>2026-04-19T14:40:01Z</time></trkpt><trkpt lat="45.12571061656086" lon="7.021925885065376"><ele>794.6666666666667</ele><time>2026-04-19T14:40:02Z</time></trkpt><trkpt lat="45.1258339688774" lon="7.022176372522414"><ele>798.0</ele><time>2026-04-19T14:40:03Z</time></trkpt><trkpt lat="45.12598481024738" lon="7.022385471533071"><ele>783.3333333333334</ele><time>2026-04-19T14:40:04Z</time></trkpt><trkpt lat="45.126152117306695" lon="7.02255488017187"><ele>768.6666666666667</ele><time>2026-04-19T14:40:05Z</time></trkpt><trkpt lat="45.12634269880955" lon="7.022701355270027"><ele>754.0</ele><time>2026-04-19T14:40:06Z</time></trkpt><trkpt lat="45.126546659452835" lon="7.022871682925283"><ele>740.0</ele><time>2026-04-19T14:40:07Z</time></trkpt><trkpt lat="45.12675269760479" lon="7.023051438629574"><ele>726.0</ele><time>2026-04-19T14:40:08Z</time></trkpt><trkpt lat="45.12694976059594" lon="7.0232248412516425"><ele>729.0</ele><time>2026-04-19T14:40:09Z</time></trkpt><trkpt lat="45.12714959584386" lon="7.023403420730468"><ele>732.0</ele><time>2026-04-19T14:40:10Z</time></trkpt><trkpt lat="45.127351434446076" lon="7.023583853454354"><ele>726.5</ele><time>2026-04-19T14:40:11Z</time></trkpt><trkpt lat="45.12756952586411" lon="7.023766345059983"><ele>721.0</ele><time>2026-04-19T14:40:12Z</time></trkpt><trkpt lat="45.12778364282748" lon="7.023943054980321"><ele>721.0</ele><time>2026-04-19T14:40:13Z</time></trkpt><trkpt lat="45.1279844360588" lon="7.024122921947197"><ele>721.0</ele><time>2026-04-19T14:40:14Z</time></trkpt><trkpt lat="45.128181917847044" lon="7.024295474634883"><ele>715.5</ele><time>2026-04-19T14:40:15Z</time></trkpt><trkpt lat="45.128373403454454" lon="7.024460495217561"><ele>710.0</ele><time>2026-04-19T14:40:16Z</time></trkpt><trkpt lat="45.12856864315129" lon="7.024631654630205"><ele>710.0</ele><time>2026-04-19T14:40:17Z</time></trkpt><trkpt lat="45.12876324044038" lon="7.024805392182731"><ele>710.0</ele><time>2026-04-19T14:40:18Z</time></trkpt><trkpt lat="45.128949251951894" lon="7.024984835311084"><ele>706.0</ele><time>2026-04-19T14:40:19Z</time></trkpt><trkpt lat="45.12911859178888" lon="7.025182041781562"><ele>702.0</ele><time>2026-04-19T14:40:20Z</time></trkpt><trkpt lat="45.129267071627204" lon="7.025404526236841"><ele>698.0</ele><time>2026-04-19T14:40:21Z</time></trkpt><trkpt lat="45.12938466538802" lon="7.02564883598665"><ele>697.6666666666666</ele><time>2026-04-19T14:40:22Z</time></trkpt><trkpt lat="45.12948021585553" lon="7.025903533692273"><ele>697.3333333333334</ele><time>2026-04-19T14:40:23Z</time></trkpt><trkpt lat="45.12955231226043" lon="7.026167051354686"><ele>697.0</ele><time>2026-04-19T14:40:24Z</time></trkpt><trkpt lat="45.1295999672074" lon="7.026443984882523"><ele>696.3333333333334</ele><time>2026-04-19T14:40:25Z</time></trkpt><trkpt lat="45.129628884630705" lon="7.026728237736542"><ele>695.6666666666666</ele><time>2026-04-19T14:40:26Z</time></trkpt><trkpt lat="45.12963892350994" lon="7.0270016204448655"><ele>695.0</ele><time>2026-04-19T14:40:27Z</time></trkpt><trkpt lat="45.12963638087163" lon="7.027278763099453"><ele>695.0</ele><time>2026-04-19T14:40:28Z</time></trkpt><trkpt lat="45.12962537574932" lon="7.027577144343252"><ele>695.0</ele><time>2026-04-19T14:40:29Z</time></trkpt><trkpt lat="45.1296164670593" lon="7.0278812628134375"><ele>695.0</ele><time>2026-04-19T14:40:30Z</time></trkpt><trkpt lat="45.12960786968989" lon="7.028166789780013"><ele>694.0</ele><time>2026-04-19T14:40:31Z</time></trkpt><trkpt lat="45.129599924491835" lon="7.028433831923433"><ele>693.0</ele><time>2026-04-19T14:40:32Z</time></trkpt><trkpt lat="45.12958163174872" lon="7.028678758339246"><ele>692.0</ele><time>2026-04-19T14:40:33Z</time></trkpt><trkpt lat="45.12952136940792" lon="7.028915339114231"><ele>692.0</ele><time>2026-04-19T14:40:34Z</time></trkpt><trkpt lat="45.12941754266266" lon="7.029138827704928"><ele>692.0</ele><time>2026-04-19T14:40:35Z</time></trkpt><trkpt lat="45.12930550370951" lon="7.029363393631631"><ele>692.0</ele><time>2026-04-19T14:40:36Z</time></trkpt><trkpt lat="45.12920621589763" lon="7.029578833577955"><ele>691.0</ele><time>2026-04-19T14:40:37Z</time></trkpt><trkpt lat="45.12912148574436" lon="7.029818820803458"><ele>690.0</ele><time>2026-04-19T14:40:38Z</time></trkpt><trkpt lat="45.12907779266223" lon="7.030096750890782"><ele>689.0</ele><time>2026-04-19T14:40:39Z</time></trkpt><trkpt lat="45.12909743154155" lon="7.030392094223783"><ele>685.5</ele><time>2026-04-19T14:40:40Z</time></trkpt><trkpt lat="45.12918229219579" lon="7.030690391799626"><ele>682.0</ele><time>2026-04-19T14:40:41Z</time></trkpt><trkpt lat="45.12931865650072" lon="7.030976759178565"><ele>680.5</ele><time>2026-04-19T14:40:42Z</time></trkpt><trkpt lat="45.129489777117286" lon="7.031237146374853"><ele>679.0</ele><time>2026-04-19T14:40:43Z</time></trkpt><trkpt lat="45.129659099658255" lon="7.031505633538505"><ele>680.5</ele><time>2026-04-19T14:40:44Z</time></trkpt><trkpt lat="45.12981468896198" lon="7.031770653390058"><ele>682.0</ele><time>2026-04-19T14:40:45Z</time></trkpt><trkpt lat="45.12995894531442" lon="7.032037914415285"><ele>673.5</ele><time>2026-04-19T14:40:46Z</time></trkpt><trkpt lat="45.13010695841183" lon="7.032322951430987"><ele>665.0</ele><time>2026-04-19T14:40:47Z</time></trkpt><trkpt lat="45.13025086082883" lon="7.032617619888917"><ele>658.5</ele><time>2026-04-19T14:40:48Z</time></trkpt><trkpt lat="45.130394488778414" lon="7.032918741908828"><ele>652.0</ele><time>2026-04-19T14:40:49Z</time></trkpt><trkpt lat="45.13053676071025" lon="7.033222763048439"><ele>650.5</ele><time>2026-04-19T14:40:50Z</time></trkpt><trkpt lat="45.1306849039197" lon="7.033515194551694"><ele>649.0</ele><time>2026-04-19T14:40:51Z</time></trkpt><trkpt lat="45.130840209096995" lon="7.0338171184100124"><ele>652.0</ele><time>2026-04-19T14:40:52Z</time></trkpt><trkpt lat="45.13098925952701" lon="7.0341313118749635"><ele>655.0</ele><time>2026-04-19T14:40:53Z</time></trkpt><trkpt lat="45.13110453822869" lon="7.0344638360805165"><ele>647.0</ele><time>2026-04-19T14:40:54Z</time></trkpt><trkpt lat="45.131202024576986" lon="7.034789129607604"><ele>639.0</ele><time>2026-04-19T14:40:55Z</time></trkpt><trkpt lat="45.13126787661476" lon="7.035104145201415"><ele>634.5</ele><time>2026-04-19T14:40:56Z</time></trkpt><trkpt lat="45.131310962935686" lon="7.035432662210251"><ele>630.0</ele><time>2026-04-19T14:40:57Z</time></trkpt><trkpt lat="45.131362546764045" lon="7.035759035019697"><ele>623.5</ele><time>2026-04-19T14:40:58Z</time></trkpt><trkpt lat="45.13139357601011" lon="7.036096951528498"><ele>617.0</ele><time>2026-04-19T14:40:59Z</time></trkpt><trkpt lat="45.13143483655215" lon="7.0364323859911995"><ele>612.5</ele><time>2026-04-19T14:41:00Z</time></trkpt><trkpt lat="45.131483297285556" lon="7.036766547868435"><ele>608.0</ele><time>2026-04-19T14:41:01Z</time></trkpt><trkpt lat="45.13153030679688" lon="7.037083376517256"><ele>612.0</ele><time>2026-04-19T14:41:02Z</time></trkpt><trkpt lat="45.1315730313547" lon="7.03738528361227"><ele>616.0</ele><time>2026-04-19T14:41:03Z</time></trkpt><trkpt lat="45.13160728795201" lon="7.0376821947703405"><ele>620.0</ele><time>2026-04-19T14:41:04Z</time></trkpt><trkpt lat="45.13164559745642" lon="7.0379746845731015"><ele>620.0</ele><time>2026-04-19T14:41:05Z</time></trkpt><trkpt lat="45.13167465313354" lon="7.038254642999914"><ele>620.0</ele><time>2026-04-19T14:41:06Z</time></trkpt><trkpt lat="45.131661318152645" lon="7.038526991971556"><ele>620.0</ele><time>2026-04-19T14:41:07Z</time></trkpt><trkpt lat="45.131592298120744" lon="7.0387888706937645"><ele>613.0</ele><time>2026-04-19T14:41:08Z</time></trkpt><trkpt lat="45.13147216990774" lon="7.039021391292119"><ele>606.0</ele><time>2026-04-19T14:41:09Z</time></trkpt><trkpt lat="45.131309872687844" lon="7.039212820643349"><ele>599.0</ele><time>2026-04-19T14:41:10Z</time></trkpt><trkpt lat="45.1311581459357" lon="7.0393460211824435"><ele>598.0</ele><time>2026-04-19T14:41:11Z</time></trkpt><trkpt lat="45.13105064283221" lon="7.039510044841834"><ele>597.0</ele><time>2026-04-19T14:41:12Z</time></trkpt><trkpt lat="45.13098019255861" lon="7.039712426417586"><ele>596.0</ele><time>2026-04-19T14:41:13Z</time></trkpt><trkpt lat="45.13097588806772" lon="7.039965254716097"><ele>594.6666666666666</ele><time>2026-04-19T14:41:14Z</time></trkpt><trkpt lat="45.131036824974096" lon="7.04016890498304"><ele>593.3333333333334</ele><time>2026-04-19T14:41:15Z</time></trkpt><trkpt lat="45.13113490921172" lon="7.040332827463116"><ele>592.0</ele><time>2026-04-19T14:41:16Z</time></trkpt><trkpt lat="45.13124775375317" lon="7.040467756321721"><ele>592.0</ele><time>2026-04-19T14:41:17Z</time></trkpt><trkpt lat="45.13138030775004" lon="7.040528102557056"><ele>592.0</ele><time>2026-04-19T14:41:18Z</time></trkpt><trkpt lat="45.13152121858118" lon="7.040521148712484"><ele>592.0</ele><time>2026-04-19T14:41:19Z</time></trkpt><trkpt lat="45.13166663032512" lon="7.040439991863779"><ele>592.0</ele><time>2026-04-19T14:41:20Z</time></trkpt><trkpt lat="45.131817612856345" lon="7.0403370834932995"><ele>595.0</ele><time>2026-04-19T14:41:21Z</time></trkpt><trkpt lat="45.13195482907302" lon="7.040265054450298"><ele>598.0</ele><time>2026-04-19T14:41:22Z</time></trkpt><trkpt lat="45.13206033858081" lon="7.040146296026386"><ele>601.0</ele><time>2026-04-19T14:41:23Z</time></trkpt><trkpt lat="45.13212959980498" lon="7.0399887392401315"><ele>604.0</ele><time>2026-04-19T14:41:24Z</time></trkpt><trkpt lat="45.13219954324311" lon="7.039838787540998"><ele>605.0</ele><time>2026-04-19T14:41:25Z</time></trkpt><trkpt lat="45.1322789794109" lon="7.039681187069273"><ele>606.0</ele><time>2026-04-19T14:41:25.999Z</time></trkpt><trkpt lat="45.13235758411592" lon="7.039564806192498"><ele>607.0</ele><time>2026-04-19T14:41:26.999Z</time></trkpt><trkpt lat="45.132443089316624" lon="7.039489405000742"><ele>608.0</ele><time>2026-04-19T14:41:27.999Z</time></trkpt><trkpt lat="45.132551950272465" lon="7.039482345492441"><ele>608.5</ele><time>2026-04-19T14:41:28.999Z</time></trkpt><trkpt lat="45.132684947438136" lon="7.039486714127819"><ele>609.0</ele><time>2026-04-19T14:41:29.999Z</time></trkpt><trkpt lat="45.13279601134351" lon="7.039567807122324"><ele>609.5</ele><time>2026-04-19T14:41:30.999Z</time></trkpt><trkpt lat="45.13291057580331" lon="7.0396595689864245"><ele>610.0</ele><time>2026-04-19T14:41:31.999Z</time></trkpt><trkpt lat="45.13302353688591" lon="7.039751968285777"><ele>610.0</ele><time>2026-04-19T14:41:32.999Z</time></trkpt><trkpt lat="45.133133746646514" lon="7.03985495172141"><ele>610.0</ele><time>2026-04-19T14:41:33.999Z</time></trkpt><trkpt lat="45.1332357795647" lon="7.039968986162715"><ele>610.0</ele><time>2026-04-19T14:41:34.999Z</time></trkpt><trkpt lat="45.13330368308322" lon="7.040103873751855"><ele>610.0</ele><time>2026-04-19T14:41:35.999Z</time></trkpt><trkpt lat="45.13334880680062" lon="7.040238486346492"><ele>606.0</ele><time>2026-04-19T14:41:36.999Z</time></trkpt><trkpt lat="45.13337260584439" lon="7.040375743087331"><ele>602.0</ele><time>2026-04-19T14:41:37.999Z</time></trkpt><trkpt lat="45.13337078575757" lon="7.040522000041386"><ele>598.0</ele><time>2026-04-19T14:41:38.999Z</time></trkpt><trkpt lat="45.13334508022544" lon="7.040682925640747"><ele>594.0</ele><time>2026-04-19T14:41:39.999Z</time></trkpt><trkpt lat="45.133286586755084" lon="7.040846860967092"><ele>590.0</ele><time>2026-04-19T14:41:40.999Z</time></trkpt><trkpt lat="45.13319606350773" lon="7.040975439983728"><ele>586.0</ele><time>2026-04-19T14:41:41.999Z</time></trkpt><trkpt lat="45.13307512257698" lon="7.041126583875558"><ele>582.0</ele><time>2026-04-19T14:41:43Z</time></trkpt><trkpt lat="45.13295020422534" lon="7.04129484475879"><ele>578.0</ele><time>2026-04-19T14:41:44Z</time></trkpt><trkpt lat="45.13284393620764" lon="7.041484214789638"><ele>575.0</ele><time>2026-04-19T14:41:45Z</time></trkpt><trkpt lat="45.13275610103153" lon="7.04172285313212"><ele>572.0</ele><time>2026-04-19T14:41:46Z</time></trkpt><trkpt lat="45.132701900291345" lon="7.042016476614813"><ele>569.0</ele><time>2026-04-19T14:41:47Z</time></trkpt><trkpt lat="45.13270661402959" lon="7.042335937247743"><ele>565.3333333333333</ele><time>2026-04-19T14:41:48Z</time></trkpt><trkpt lat="45.13276577226095" lon="7.042631030847193"><ele>561.6666666666666</ele><time>2026-04-19T14:41:49Z</time></trkpt><trkpt lat="45.1328619407978" lon="7.042855672269391"><ele>558.0</ele><time>2026-04-19T14:41:50Z</time></trkpt><trkpt lat="45.13294507013774" lon="7.043066672020841"><ele>558.0</ele><time>2026-04-19T14:41:51Z</time></trkpt><trkpt lat="45.1330068167421" lon="7.043270172973753"><ele>558.0</ele><time>2026-04-19T14:41:52Z</time></trkpt><trkpt lat="45.13300552836296" lon="7.043445914353276"><ele>558.0</ele><time>2026-04-19T14:41:53Z</time></trkpt><trkpt lat="45.13298339978786" lon="7.043602434357904"><ele>558.0</ele><time>2026-04-19T14:41:54Z</time></trkpt><trkpt lat="45.13291052119815" lon="7.0437054861998165"><ele>556.0</ele><time>2026-04-19T14:41:55Z</time></trkpt><trkpt lat="45.132817481435204" lon="7.043752373888136"><ele>554.0</ele><time>2026-04-19T14:41:56Z</time></trkpt><trkpt lat="45.13271342152994" lon="7.043733709529523"><ele>552.0</ele><time>2026-04-19T14:41:57Z</time></trkpt><trkpt lat="45.13261912756846" lon="7.0437113842381835"><ele>550.0</ele><time>2026-04-19T14:41:58Z</time></trkpt><trkpt lat="45.13256672163376" lon="7.04342207120868"><ele>552.0</ele><time>2026-04-19T14:41:59Z</time></trkpt><trkpt lat="45.132545567598534" lon="7.043252986383267"><ele>554.0</ele><time>2026-04-19T14:42:00Z</time></trkpt><trkpt lat="45.13251344178756" lon="7.043078225449432"><ele>556.0</ele><time>2026-04-19T14:42:01Z</time></trkpt><trkpt lat="45.13250265285073" lon="7.042859668431723"><ele>558.0</ele><time>2026-04-19T14:42:02Z</time></trkpt><trkpt lat="45.13249029693568" lon="7.042649287180009"><ele>558.0</ele><time>2026-04-19T14:42:03Z</time></trkpt><trkpt lat="45.13244214808104" lon="7.042465837381532"><ele>558.0</ele><time>2026-04-19T14:42:04Z</time></trkpt><trkpt lat="45.13233671828371" lon="7.042320821999358"><ele>558.0</ele><time>2026-04-19T14:42:05Z</time></trkpt><trkpt lat="45.13216360008644" lon="7.042185580462625"><ele>562.3333333333334</ele><time>2026-04-19T14:42:06Z</time></trkpt><trkpt lat="45.131962649316065" lon="7.042170677893186"><ele>566.6666666666667</ele><time>2026-04-19T14:42:07Z</time></trkpt><trkpt lat="45.13178710000969" lon="7.042218533638202"><ele>571.0</ele><time>2026-04-19T14:42:08Z</time></trkpt><trkpt lat="45.131617378098575" lon="7.042214356881456"><ele>567.3333333333334</ele><time>2026-04-19T14:42:09Z</time></trkpt><trkpt lat="45.13144469576076" lon="7.042169971190826"><ele>563.6666666666666</ele><time>2026-04-19T14:42:10Z</time></trkpt><trkpt lat="45.13123568294667" lon="7.042117108438521"><ele>560.0</ele><time>2026-04-19T14:42:11Z</time></trkpt><trkpt lat="45.131040631764506" lon="7.042048298367148"><ele>560.0</ele><time>2026-04-19T14:42:12Z</time></trkpt><trkpt lat="45.130862164795694" lon="7.041997814159373"><ele>560.0</ele><time>2026-04-19T14:42:13Z</time></trkpt><trkpt lat="45.13071987378658" lon="7.0419331985070945"><ele>560.0</ele><time>2026-04-19T14:42:14Z</time></trkpt><trkpt lat="45.13058522189061" lon="7.041888102034629"><ele>559.25</ele><time>2026-04-19T14:42:15Z</time></trkpt><trkpt lat="45.13047625469913" lon="7.041858071652141"><ele>558.5</ele><time>2026-04-19T14:42:16Z</time></trkpt><trkpt lat="45.13034920241813" lon="7.0418616479493705"><ele>557.75</ele><time>2026-04-19T14:42:17Z</time></trkpt><trkpt lat="45.13024437705542" lon="7.04188774956914"><ele>557.0</ele><time>2026-04-19T14:42:18Z</time></trkpt><trkpt lat="45.13016194680512" lon="7.0420234841940825"><ele>557.0</ele><time>2026-04-19T14:42:19Z</time></trkpt><trkpt lat="45.130157277932064" lon="7.042271652024283"><ele>557.0</ele><time>2026-04-19T14:42:20Z</time></trkpt><trkpt lat="45.13020582964799" lon="7.042475348901337"><ele>557.0</ele><time>2026-04-19T14:42:21Z</time></trkpt><trkpt lat="45.130317089421" lon="7.04261408441421"><ele>555.3333333333333</ele><time>2026-04-19T14:42:22Z</time></trkpt><trkpt lat="45.13047666269616" lon="7.042682367125985"><ele>553.6666666666666</ele><time>2026-04-19T14:42:23Z</time></trkpt><trkpt lat="45.130654626760396" lon="7.042704693270008"><ele>552.0</ele><time>2026-04-19T14:42:24Z</time></trkpt><trkpt lat="45.13080379311036" lon="7.042744776205097"><ele>550.75</ele><time>2026-04-19T14:42:25Z</time></trkpt><trkpt lat="45.13093604350961" lon="7.042796292483551"><ele>549.5</ele><time>2026-04-19T14:42:26Z</time></trkpt><trkpt lat="45.131060759924566" lon="7.04286484202305"><ele>548.25</ele><time>2026-04-19T14:42:27Z</time></trkpt><trkpt lat="45.131165602031516" lon="7.042982360774106"><ele>547.0</ele><time>2026-04-19T14:42:28Z</time></trkpt><trkpt lat="45.13123120688466" lon="7.043148466427299"><ele>546.0</ele><time>2026-04-19T14:42:29Z</time></trkpt><trkpt lat="45.13124397041202" lon="7.0433589284942"><ele>545.0</ele><time>2026-04-19T14:42:30Z</time></trkpt><trkpt lat="45.13122172463672" lon="7.043588084993836"><ele>544.0</ele><time>2026-04-19T14:42:31Z</time></trkpt><trkpt lat="45.131196511468126" lon="7.043815780929133"><ele>544.0</ele><time>2026-04-19T14:42:32Z</time></trkpt><trkpt lat="45.1312041178774" lon="7.044019438623094"><ele>544.0</ele><time>2026-04-19T14:42:33Z</time></trkpt><trkpt lat="45.13125484758805" lon="7.044229388161115"><ele>544.0</ele><time>2026-04-19T14:42:34Z</time></trkpt><trkpt lat="45.13133513502603" lon="7.044419072682247"><ele>542.3333333333334</ele><time>2026-04-19T14:42:35Z</time></trkpt><trkpt lat="45.131428376923175" lon="7.044601802605791"><ele>540.6666666666666</ele><time>2026-04-19T14:42:36Z</time></trkpt><trkpt lat="45.13152568117111" lon="7.044783151742765"><ele>539.0</ele><time>2026-04-19T14:42:36.999Z</time></trkpt><trkpt lat="45.13162551968922" lon="7.044973792333038"><ele>535.6666666666666</ele><time>2026-04-19T14:42:37.999Z</time></trkpt><trkpt lat="45.131729478208655" lon="7.045166825587441"><ele>532.3333333333334</ele><time>2026-04-19T14:42:38.999Z</time></trkpt><trkpt lat="45.13184501901008" lon="7.0453555313347564"><ele>529.0</ele><time>2026-04-19T14:42:39.999Z</time></trkpt><trkpt lat="45.131975960313724" lon="7.045537398614777"><ele>529.0</ele><time>2026-04-19T14:42:40.999Z</time></trkpt><trkpt lat="45.132117601109" lon="7.045709625513201"><ele>529.0</ele><time>2026-04-19T14:42:41.999Z</time></trkpt><trkpt lat="45.132262910090795" lon="7.045867964257471"><ele>529.0</ele><time>2026-04-19T14:42:42.999Z</time></trkpt><trkpt lat="45.13240049661333" lon="7.046006571590371"><ele>527.0</ele><time>2026-04-19T14:42:43.999Z</time></trkpt><trkpt lat="45.132529106200394" lon="7.0461548927864115"><ele>525.0</ele><time>2026-04-19T14:42:44.999Z</time></trkpt><trkpt lat="45.13264709717737" lon="7.046302547591368"><ele>523.0</ele><time>2026-04-19T14:42:45.999Z</time></trkpt><trkpt lat="45.13275467104667" lon="7.046437814859074"><ele>523.0</ele><time>2026-04-19T14:42:46.999Z</time></trkpt><trkpt lat="45.13285278360603" lon="7.046557252009799"><ele>523.0</ele><time>2026-04-19T14:42:47.999Z</time></trkpt><trkpt lat="45.132931901073015" lon="7.046693352660105"><ele>523.0</ele><time>2026-04-19T14:42:48.999Z</time></trkpt><trkpt lat="45.13301486428591" lon="7.04681560506148"><ele>523.0</ele><time>2026-04-19T14:42:49.999Z</time></trkpt><trkpt lat="45.1330927651474" lon="7.0469369823311565"><ele>522.5</ele><time>2026-04-19T14:42:50.999Z</time></trkpt><trkpt lat="45.13316794532532" lon="7.047054119554627"><ele>522.0</ele><time>2026-04-19T14:42:51.999Z</time></trkpt><trkpt lat="45.133308798281526" lon="7.0470765400811235"><ele>521.5</ele><time>2026-04-19T14:42:52.999Z</time></trkpt><trkpt lat="45.1334362970615" lon="7.0470992306126226"><ele>521.0</ele><time>2026-04-19T14:42:53.999Z</time></trkpt><trkpt lat="45.133569619745025" lon="7.047109374573084"><ele>519.25</ele><time>2026-04-19T14:42:54.999Z</time></trkpt><trkpt lat="45.13370595328037" lon="7.047085799641465"><ele>517.5</ele><time>2026-04-19T14:42:55.999Z</time></trkpt><trkpt lat="45.13385282178866" lon="7.04707574594739"><ele>515.75</ele><time>2026-04-19T14:42:56.999Z</time></trkpt><trkpt lat="45.13400264399317" lon="7.0471431529855675"><ele>514.0</ele><time>2026-04-19T14:42:57.999Z</time></trkpt><trkpt lat="45.13415342239732" lon="7.047252691745922"><ele>513.25</ele><time>2026-04-19T14:42:58.999Z</time></trkpt><trkpt lat="45.13429597536522" lon="7.047347904720077"><ele>512.5</ele><time>2026-04-19T14:42:59.999Z</time></trkpt><trkpt lat="45.13442299393282" lon="7.047423226397812"><ele>511.75</ele><time>2026-04-19T14:43:00.999Z</time></trkpt><trkpt lat="45.13454629585004" lon="7.047478481356963"><ele>511.0</ele><time>2026-04-19T14:43:01.999Z</time></trkpt><trkpt lat="45.13467318524498" lon="7.047491449066613"><ele>510.75</ele><time>2026-04-19T14:43:02.999Z</time></trkpt><trkpt lat="45.13479624901553" lon="7.047487017864773"><ele>510.5</ele><time>2026-04-19T14:43:03.999Z</time></trkpt><trkpt lat="45.134911786989974" lon="7.047507258009121"><ele>510.25</ele><time>2026-04-19T14:43:04.999Z</time></trkpt><trkpt lat="45.13501272414023" lon="7.047575720417043"><ele>510.0</ele><time>2026-04-19T14:43:05.999Z</time></trkpt><trkpt lat="45.13510467822839" lon="7.047656788087081"><ele>510.0</ele><time>2026-04-19T14:43:06.999Z</time></trkpt><trkpt lat="45.13519759244439" lon="7.047720214684903"><ele>510.0</ele><time>2026-04-19T14:43:07.999Z</time></trkpt><trkpt lat="45.135278016406595" lon="7.047759228814787"><ele>510.0</ele><time>2026-04-19T14:43:08.999Z</time></trkpt><trkpt lat="45.13535540430038" lon="7.047765299620795"><ele>510.0</ele><time>2026-04-19T14:43:09.999Z</time></trkpt><trkpt lat="45.13542258666351" lon="7.047715968354559"><ele>510.0</ele><time>2026-04-19T14:43:10.999Z</time></trkpt><trkpt lat="45.13549342511526" lon="7.047700859783389"><ele>510.0</ele><time>2026-04-19T14:43:11.999Z</time></trkpt><trkpt lat="45.13555582521819" lon="7.047679192166534"><ele>510.0</ele><time>2026-04-19T14:43:12.999Z</time></trkpt><trkpt lat="45.13565252799606" lon="7.047630931141182"><ele>510.0</ele><time>2026-04-19T14:43:14.999Z</time></trkpt><trkpt lat="45.13576690238851" lon="7.047628606070616"><ele>510.0</ele><time>2026-04-19T14:43:16.999Z</time></trkpt><trkpt lat="45.13583456676466" lon="7.047663715571425"><ele>510.0</ele><time>2026-04-19T14:43:17.999Z</time></trkpt><trkpt lat="45.13590671816859" lon="7.04768850840908"><ele>510.0</ele><time>2026-04-19T14:43:18.999Z</time></trkpt><trkpt lat="45.13598718322354" lon="7.047746695421197"><ele>508.8</ele><time>2026-04-19T14:43:19.999Z</time></trkpt><trkpt lat="45.136078495371166" lon="7.047750302164982"><ele>507.6</ele><time>2026-04-19T14:43:20.999Z</time></trkpt><trkpt lat="45.13615963970476" lon="7.047755622085335"><ele>506.4</ele><time>2026-04-19T14:43:21.999Z</time></trkpt><trkpt lat="45.13625193565338" lon="7.047759867626076"><ele>505.2</ele><time>2026-04-19T14:43:22.999Z</time></trkpt><trkpt lat="45.13635437932219" lon="7.04778937137664"><ele>504.0</ele><time>2026-04-19T14:43:23.999Z</time></trkpt><trkpt lat="45.13644622519401" lon="7.047774098395727"><ele>504.0</ele><time>2026-04-19T14:43:24.999Z</time></trkpt><trkpt lat="45.13654356579618" lon="7.047777468816619"><ele>504.0</ele><time>2026-04-19T14:43:25.999Z</time></trkpt><trkpt lat="45.13663471630648" lon="7.047793086330226"><ele>504.0</ele><time>2026-04-19T14:43:26.999Z</time></trkpt><trkpt lat="45.13671980724975" lon="7.047823419834581"><ele>504.0</ele><time>2026-04-19T14:43:27.999Z</time></trkpt><trkpt lat="45.136800681300834" lon="7.047870991522136"><ele>504.0</ele><time>2026-04-19T14:43:28.999Z</time></trkpt><trkpt lat="45.13686628945" lon="7.047921359997225"><ele>504.0</ele><time>2026-04-19T14:43:29.999Z</time></trkpt><trkpt lat="45.136926097446405" lon="7.04796144054754"><ele>503.6666666666667</ele><time>2026-04-19T14:43:30.999Z</time></trkpt><trkpt lat="45.13698622725079" lon="7.04798928777952"><ele>503.33333333333337</ele><time>2026-04-19T14:43:31.999Z</time></trkpt><trkpt lat="45.13710409173682" lon="7.048019475098934"><ele>503.0</ele><time>2026-04-19T14:43:33.999Z</time></trkpt><trkpt lat="45.13717000844245" lon="7.048025133162208"><ele>502.6666666666667</ele><time>2026-04-19T14:43:36.999Z</time></trkpt><trkpt lat="45.13727739152866" lon="7.048025769179525"><ele>502.33333333333337</ele><time>2026-04-19T14:43:41.999Z</time></trkpt><trkpt lat="45.137355641758475" lon="7.0480244081063415"><ele>502.0</ele><time>2026-04-19T14:43:42.999Z</time></trkpt><trkpt lat="45.137444756738255" lon="7.048059081895725"><ele>502.0</ele><time>2026-04-19T14:43:43.999Z</time></trkpt><trkpt lat="45.13755325887015" lon="7.048086483556991"><ele>502.0</ele><time>2026-04-19T14:43:44.999Z</time></trkpt><trkpt lat="45.13766612720104" lon="7.048140409393516"><ele>502.0</ele><time>2026-04-19T14:43:45.999Z</time></trkpt><trkpt lat="45.137794614315" lon="7.048165040513237"><ele>502.0</ele><time>2026-04-19T14:43:46.999Z</time></trkpt><trkpt lat="45.13789069126654" lon="7.0481953195656315"><ele>502.00000000000006</ele><time>2026-04-19T14:43:47.999Z</time></trkpt><trkpt lat="45.13797890801512" lon="7.048241876098935"><ele>502.0</ele><time>2026-04-19T14:43:49Z</time></trkpt><trkpt lat="45.138078507286416" lon="7.048282932248496"><ele>502.0</ele><time>2026-04-19T14:43:50Z</time></trkpt><trkpt lat="45.1381669559665" lon="7.048319897326026"><ele>502.0</ele><time>2026-04-19T14:43:51Z</time></trkpt><trkpt lat="45.138246365553385" lon="7.048336904979549"><ele>502.00000000000006</ele><time>2026-04-19T14:43:52Z</time></trkpt><trkpt lat="45.138308502436736" lon="7.0483560915405254"><ele>502.0</ele><time>2026-04-19T14:43:53Z</time></trkpt><trkpt lat="45.1383941003832" lon="7.04837917858357"><ele>502.20000000000005</ele><time>2026-04-19T14:43:55Z</time></trkpt><trkpt lat="45.13848380580691" lon="7.048399570645304"><ele>502.40000000000003</ele><time>2026-04-19T14:44:52.999Z</time></trkpt><trkpt lat="45.138549915650074" lon="7.048419388951078"><ele>502.59999999999997</ele><time>2026-04-19T14:44:53.999Z</time></trkpt><trkpt lat="45.13866879425317" lon="7.048263985771585"><ele>502.79999999999995</ele><time>2026-04-19T14:44:55.999Z</time></trkpt><trkpt lat="45.138690606322086" lon="7.048120834937743"><ele>503.0</ele><time>2026-04-19T14:44:56.999Z</time></trkpt><trkpt lat="45.13870700030617" lon="7.0479638498153525"><ele>503.0</ele><time>2026-04-19T14:44:57.999Z</time></trkpt><trkpt lat="45.13873562469845" lon="7.047797511756105"><ele>503.0</ele><time>2026-04-19T14:44:58.999Z</time></trkpt><trkpt lat="45.13876526541611" lon="7.047608500626845"><ele>503.0</ele><time>2026-04-19T14:44:59.999Z</time></trkpt><trkpt lat="45.13879415081529" lon="7.0473928622308755"><ele>503.0</ele><time>2026-04-19T14:45:00.999Z</time></trkpt><trkpt lat="45.13883436398926" lon="7.047149546260829"><ele>503.3333333333333</ele><time>2026-04-19T14:45:01.999Z</time></trkpt><trkpt lat="45.13887387592885" lon="7.046911052542811"><ele>503.66666666666663</ele><time>2026-04-19T14:45:02.999Z</time></trkpt><trkpt lat="45.13891120858766" lon="7.046657084404718"><ele>504.0</ele><time>2026-04-19T14:45:03.999Z</time></trkpt><trkpt lat="45.1389668765858" lon="7.046403078878251"><ele>504.33333333333337</ele><time>2026-04-19T14:45:04.999Z</time></trkpt><trkpt lat="45.1389987847556" lon="7.0461179420842015"><ele>504.6666666666667</ele><time>2026-04-19T14:45:05.999Z</time></trkpt><trkpt lat="45.13905152807092" lon="7.045838436064848"><ele>505.0</ele><time>2026-04-19T14:45:06.999Z</time></trkpt><trkpt lat="45.13909562161055" lon="7.045553886221283"><ele>507.0</ele><time>2026-04-19T14:45:07.999Z</time></trkpt><trkpt lat="45.139143942702184" lon="7.045261444853273"><ele>509.0</ele><time>2026-04-19T14:45:08.999Z</time></trkpt><trkpt lat="45.1391892446634" lon="7.044965075603468"><ele>511.0</ele><time>2026-04-19T14:45:09.999Z</time></trkpt><trkpt lat="45.13924007123608" lon="7.044670074296666"><ele>511.0</ele><time>2026-04-19T14:45:10.999Z</time></trkpt><trkpt lat="45.139288578860395" lon="7.044362996252268"><ele>511.0</ele><time>2026-04-19T14:45:11.999Z</time></trkpt><trkpt lat="45.13934046258077" lon="7.044086419610405"><ele>511.0</ele><time>2026-04-19T14:45:12.999Z</time></trkpt><trkpt lat="45.1394065280139" lon="7.04381513966095"><ele>511.0</ele><time>2026-04-19T14:45:13.999Z</time></trkpt><trkpt lat="45.13950737921084" lon="7.0435505866389905"><ele>511.0</ele><time>2026-04-19T14:45:14.999Z</time></trkpt><trkpt lat="45.139631724126836" lon="7.043300354601558"><ele>511.0</ele><time>2026-04-19T14:45:15.999Z</time></trkpt><trkpt lat="45.139771055533934" lon="7.04308288690968"><ele>517.0</ele><time>2026-04-19T14:45:16.999Z</time></trkpt><trkpt lat="45.13992389374059" lon="7.0429029979225115"><ele>523.0</ele><time>2026-04-19T14:45:17.999Z</time></trkpt><trkpt lat="45.140107857406385" lon="7.042743050507914"><ele>529.0</ele><time>2026-04-19T14:45:18.999Z</time></trkpt><trkpt lat="45.140317045819515" lon="7.042595336389697"><ele>530.0</ele><time>2026-04-19T14:45:19.999Z</time></trkpt><trkpt lat="45.1405437281478" lon="7.04245039086399"><ele>531.0</ele><time>2026-04-19T14:45:20.999Z</time></trkpt><trkpt lat="45.140784591110844" lon="7.04230519972797"><ele>531.0</ele><time>2026-04-19T14:45:21.999Z</time></trkpt><trkpt lat="45.141003910102405" lon="7.042166368596548"><ele>531.0</ele><time>2026-04-19T14:45:22.999Z</time></trkpt><trkpt lat="45.14119299955132" lon="7.0420468889588355"><ele>531.0</ele><time>2026-04-19T14:45:23.999Z</time></trkpt><trkpt lat="45.14134851309525" lon="7.041948495296905"><ele>531.0</ele><time>2026-04-19T14:45:24.999Z</time></trkpt><trkpt lat="45.14148034277547" lon="7.0418458943879845"><ele>531.0</ele><time>2026-04-19T14:45:25.999Z</time></trkpt><trkpt lat="45.141587078760935" lon="7.04171717647782"><ele>531.0</ele><time>2026-04-19T14:45:26.999Z</time></trkpt><trkpt lat="45.14166289291792" lon="7.041565662501435"><ele>531.0</ele><time>2026-04-19T14:45:27.999Z</time></trkpt><trkpt lat="45.14169382738484" lon="7.041374163429593"><ele>534.5</ele><time>2026-04-19T14:45:28.999Z</time></trkpt><trkpt lat="45.14171538961213" lon="7.041173024236301"><ele>538.0</ele><time>2026-04-19T14:45:29.999Z</time></trkpt><trkpt lat="45.14172601140959" lon="7.040975491413968"><ele>541.5</ele><time>2026-04-19T14:45:30.999Z</time></trkpt><trkpt lat="45.141718762161766" lon="7.040803422924687"><ele>545.0</ele><time>2026-04-19T14:45:31.999Z</time></trkpt><trkpt lat="45.141743115462624" lon="7.040646018249099"><ele>545.6</ele><time>2026-04-19T14:45:32.999Z</time></trkpt><trkpt lat="45.14174307224196" lon="7.040490708960267"><ele>546.2</ele><time>2026-04-19T14:45:33.999Z</time></trkpt><trkpt lat="45.1417680054" lon="7.040323111423818"><ele>546.8</ele><time>2026-04-19T14:45:34.999Z</time></trkpt><trkpt lat="45.14177241933356" lon="7.040171481303097"><ele>547.4</ele><time>2026-04-19T14:45:35.999Z</time></trkpt><trkpt lat="45.14179054786301" lon="7.040024398194908"><ele>548.0</ele><time>2026-04-19T14:45:36.999Z</time></trkpt><trkpt lat="45.141815758477264" lon="7.039886201672781"><ele>547.0</ele><time>2026-04-19T14:45:37.999Z</time></trkpt><trkpt lat="45.14184616407304" lon="7.039762512609436"><ele>546.0</ele><time>2026-04-19T14:45:38.999Z</time></trkpt><trkpt lat="45.14187237498475" lon="7.039638526888529"><ele>545.0</ele><time>2026-04-19T14:45:39.999Z</time></trkpt><trkpt lat="45.141897703230065" lon="7.039520276487716"><ele>544.0</ele><time>2026-04-19T14:45:40.999Z</time></trkpt><trkpt lat="45.141928309122214" lon="7.03940702120863"><ele>543.0</ele><time>2026-04-19T14:45:41.999Z</time></trkpt><trkpt lat="45.14195541943369" lon="7.039298426659309"><ele>542.0</ele><time>2026-04-19T14:45:42.999Z</time></trkpt><trkpt lat="45.14198118502252" lon="7.03918698013596"><ele>541.5</ele><time>2026-04-19T14:45:43.999Z</time></trkpt><trkpt lat="45.142009109995044" lon="7.039072994418034"><ele>541.0</ele><time>2026-04-19T14:45:44.999Z</time></trkpt><trkpt lat="45.14204018768157" lon="7.038952469984457"><ele>540.5</ele><time>2026-04-19T14:45:45.999Z</time></trkpt><trkpt lat="45.14206579212756" lon="7.038840428906488"><ele>540.0</ele><time>2026-04-19T14:45:46.999Z</time></trkpt><trkpt lat="45.142094267572965" lon="7.038719374662153"><ele>539.5</ele><time>2026-04-19T14:45:47.999Z</time></trkpt><trkpt lat="45.14212544465797" lon="7.038604037417978"><ele>539.0</ele><time>2026-04-19T14:45:48.999Z</time></trkpt><trkpt lat="45.14215499158911" lon="7.038492401924772"><ele>539.0</ele><time>2026-04-19T14:45:49.999Z</time></trkpt><trkpt lat="45.14218592161672" lon="7.038381621276865"><ele>539.0</ele><time>2026-04-19T14:45:50.999Z</time></trkpt><trkpt lat="45.142218468708656" lon="7.038277691033392"><ele>539.0</ele><time>2026-04-19T14:45:51.999Z</time></trkpt><trkpt lat="45.14226597115834" lon="7.038187465885674"><ele>539.0</ele><time>2026-04-19T14:45:52.999Z</time></trkpt><trkpt lat="45.14232897526612" lon="7.038109692522758"><ele>539.0</ele><time>2026-04-19T14:45:53.999Z</time></trkpt><trkpt lat="45.14241233643303" lon="7.038061754452194"><ele>539.0</ele><time>2026-04-19T14:45:55Z</time></trkpt><trkpt lat="45.14250183394955" lon="7.038031483481956"><ele>546.75</ele><time>2026-04-19T14:45:56Z</time></trkpt><trkpt lat="45.14260006638417" lon="7.038000541708157"><ele>554.5</ele><time>2026-04-19T14:45:56.999Z</time></trkpt><trkpt lat="45.14270832586673" lon="7.037959707566916"><ele>562.25</ele><time>2026-04-19T14:45:58Z</time></trkpt><trkpt lat="45.14283914935726" lon="7.037910775155026"><ele>570.0</ele><time>2026-04-19T14:45:59Z</time></trkpt><trkpt lat="45.14298863570201" lon="7.0378558835055385"><ele>570.0</ele><time>2026-04-19T14:46:00Z</time></trkpt><trkpt lat="45.143164108386685" lon="7.037803293255093"><ele>570.0</ele><time>2026-04-19T14:46:01Z</time></trkpt><trkpt lat="45.143349910566734" lon="7.037750676166556"><ele>570.0</ele><time>2026-04-19T14:46:02Z</time></trkpt><trkpt lat="45.14351296915606" lon="7.037683728820394"><ele>568.6666666666666</ele><time>2026-04-19T14:46:03Z</time></trkpt><trkpt lat="45.14365190642852" lon="7.037579881111668"><ele>567.3333333333333</ele><time>2026-04-19T14:46:04Z</time></trkpt><trkpt lat="45.14374710507099" lon="7.0374097124885635"><ele>566.0</ele><time>2026-04-19T14:46:05Z</time></trkpt><trkpt lat="45.14378926483342" lon="7.037176848294983"><ele>571.6666666666666</ele><time>2026-04-19T14:46:06Z</time></trkpt><trkpt lat="45.143779641908964" lon="7.036890085550579"><ele>577.3333333333334</ele><time>2026-04-19T14:46:07Z</time></trkpt><trkpt lat="45.14369966253376" lon="7.036559920714249"><ele>583.0</ele><time>2026-04-19T14:46:08Z</time></trkpt><trkpt lat="45.1436597306845" lon="7.036256097811632"><ele>591.5</ele><time>2026-04-19T14:46:09Z</time></trkpt><trkpt lat="45.14364623162724" lon="7.03594837496629"><ele>600.0</ele><time>2026-04-19T14:46:10Z</time></trkpt><trkpt lat="45.1436741892101" lon="7.035617028520641"><ele>603.6666666666666</ele><time>2026-04-19T14:46:11Z</time></trkpt><trkpt lat="45.143714937126404" lon="7.035291784126249"><ele>607.3333333333333</ele><time>2026-04-19T14:46:12Z</time></trkpt><trkpt lat="45.143761453725546" lon="7.035009429961504"><ele>611.0</ele><time>2026-04-19T14:46:13Z</time></trkpt><trkpt lat="45.14381588338671" lon="7.034757302677702"><ele>616.6666666666666</ele><time>2026-04-19T14:46:14Z</time></trkpt><trkpt lat="45.14389025969099" lon="7.03453896565864"><ele>622.3333333333334</ele><time>2026-04-19T14:46:15Z</time></trkpt><trkpt lat="45.143986662557374" lon="7.034338767143559"><ele>628.0</ele><time>2026-04-19T14:46:16Z</time></trkpt><trkpt lat="45.14409847444293" lon="7.034139356607268"><ele>620.0</ele><time>2026-04-19T14:46:17Z</time></trkpt><trkpt lat="45.144204263276904" lon="7.0339347966756804"><ele>612.0</ele><time>2026-04-19T14:46:18Z</time></trkpt><trkpt lat="45.144296067151636" lon="7.033728861091514"><ele>604.0</ele><time>2026-04-19T14:46:19Z</time></trkpt><trkpt lat="45.144368177813746" lon="7.033529282131355"><ele>604.0</ele><time>2026-04-19T14:46:19.999Z</time></trkpt><trkpt lat="45.1444164536096" lon="7.033345280538448"><ele>604.0</ele><time>2026-04-19T14:46:20.999Z</time></trkpt><trkpt lat="45.14445575098043" lon="7.033162214364884"><ele>604.0</ele><time>2026-04-19T14:46:21.999Z</time></trkpt><trkpt lat="45.144489996596235" lon="7.032960901450054"><ele>604.0</ele><time>2026-04-19T14:46:22.999Z</time></trkpt><trkpt lat="45.14451022107649" lon="7.032746405281743"><ele>606.5</ele><time>2026-04-19T14:46:23.999Z</time></trkpt><trkpt lat="45.14451884820146" lon="7.03252825750042"><ele>609.0</ele><time>2026-04-19T14:46:24.999Z</time></trkpt><trkpt lat="45.14452866227126" lon="7.032325062401963"><ele>611.5</ele><time>2026-04-19T14:46:25.999Z</time></trkpt><trkpt lat="45.144531278428424" lon="7.032136987142736"><ele>614.0</ele><time>2026-04-19T14:46:26.999Z</time></trkpt><trkpt lat="45.14452890580959" lon="7.031957470048602"><ele>615.5</ele><time>2026-04-19T14:46:27.999Z</time></trkpt><trkpt lat="45.144522988582786" lon="7.0317702788438"><ele>617.0</ele><time>2026-04-19T14:46:28.999Z</time></trkpt><trkpt lat="45.144507183333" lon="7.031577861962025"><ele>618.5</ele><time>2026-04-19T14:46:29.999Z</time></trkpt><trkpt lat="45.14447772495533" lon="7.031383485632353"><ele>620.0</ele><time>2026-04-19T14:46:30.999Z</time></trkpt><trkpt lat="45.144435545862734" lon="7.031190074607207"><ele>620.75</ele><time>2026-04-19T14:46:31.999Z</time></trkpt><trkpt lat="45.14439359485328" lon="7.031026948425023"><ele>621.5</ele><time>2026-04-19T14:46:32.999Z</time></trkpt><trkpt lat="45.144356989557544" lon="7.030878173704422"><ele>622.25</ele><time>2026-04-19T14:46:33.999Z</time></trkpt><trkpt lat="45.144319397506706" lon="7.030713589813433"><ele>623.0</ele><time>2026-04-19T14:46:34.999Z</time></trkpt><trkpt lat="45.14428940473578" lon="7.030535277314556"><ele>625.0</ele><time>2026-04-19T14:46:35.999Z</time></trkpt><trkpt lat="45.14428334629361" lon="7.030337649647048"><ele>627.0</ele><time>2026-04-19T14:46:36.999Z</time></trkpt><trkpt lat="45.14431964278925" lon="7.03011697692496"><ele>629.0</ele><time>2026-04-19T14:46:37.999Z</time></trkpt><trkpt lat="45.14438279233698" lon="7.029892592482698"><ele>631.0</ele><time>2026-04-19T14:46:38.999Z</time></trkpt><trkpt lat="45.14442833908576" lon="7.029652862700578"><ele>633.0</ele><time>2026-04-19T14:46:39.999Z</time></trkpt><trkpt lat="45.14443271192038" lon="7.029394643298578"><ele>635.0</ele><time>2026-04-19T14:46:40.999Z</time></trkpt><trkpt lat="45.144448537031394" lon="7.0291037218708"><ele>640.0</ele><time>2026-04-19T14:46:41.999Z</time></trkpt><trkpt lat="45.14447090447773" lon="7.028798769410705"><ele>645.0</ele><time>2026-04-19T14:46:42.999Z</time></trkpt><trkpt lat="45.1444736729188" lon="7.028408707786441"><ele>648.5</ele><time>2026-04-19T14:46:43.999Z</time></trkpt><trkpt lat="45.14446366301635" lon="7.028053093371422"><ele>652.0</ele><time>2026-04-19T14:46:44.999Z</time></trkpt><trkpt lat="45.144412527336385" lon="7.027705007214648"><ele>650.5</ele><time>2026-04-19T14:46:45.999Z</time></trkpt><trkpt lat="45.144388501917554" lon="7.027328537855848"><ele>649.0</ele><time>2026-04-19T14:46:46.999Z</time></trkpt><trkpt lat="45.144356021347235" lon="7.026932260599535"><ele>649.5</ele><time>2026-04-19T14:46:47.999Z</time></trkpt><trkpt lat="45.144319110802044" lon="7.026530136867647"><ele>650.0</ele><time>2026-04-19T14:46:48.999Z</time></trkpt><trkpt lat="45.14429545335685" lon="7.026150392697833"><ele>650.0</ele><time>2026-04-19T14:46:49.999Z</time></trkpt><trkpt lat="45.1442868382617" lon="7.025812757616985"><ele>650.0</ele><time>2026-04-19T14:46:50.999Z</time></trkpt><trkpt lat="45.14426428055307" lon="7.025486747284845"><ele>651.0</ele><time>2026-04-19T14:46:51.999Z</time></trkpt><trkpt lat="45.14421662213192" lon="7.025150813745829"><ele>652.0</ele><time>2026-04-19T14:46:52.999Z</time></trkpt><trkpt lat="45.14416349431653" lon="7.024850218598994"><ele>654.5</ele><time>2026-04-19T14:46:53.999Z</time></trkpt><trkpt lat="45.14413607190262" lon="7.024551573782468"><ele>657.0</ele><time>2026-04-19T14:46:54.999Z</time></trkpt><trkpt lat="45.14415021922922" lon="7.024199700573527"><ele>660.5</ele><time>2026-04-19T14:46:55.999Z</time></trkpt><trkpt lat="45.14417258029342" lon="7.023842065617165"><ele>664.0</ele><time>2026-04-19T14:46:56.999Z</time></trkpt><trkpt lat="45.14419049728841" lon="7.023550030033852"><ele>668.0</ele><time>2026-04-19T14:46:57.999Z</time></trkpt><trkpt lat="45.14420517788382" lon="7.023270056801824"><ele>672.0</ele><time>2026-04-19T14:46:58.999Z</time></trkpt><trkpt lat="45.144222380388356" lon="7.02302829706571"><ele>676.0</ele><time>2026-04-19T14:46:59.999Z</time></trkpt><trkpt lat="45.14424418668869" lon="7.022825202059813"><ele>676.0</ele><time>2026-04-19T14:47:00.999Z</time></trkpt><trkpt lat="45.14428782168146" lon="7.022656193054204"><ele>676.0</ele><time>2026-04-19T14:47:01.999Z</time></trkpt><trkpt lat="45.1443900911993" lon="7.022546072944422"><ele>676.0</ele><time>2026-04-19T14:47:02.999Z</time></trkpt><trkpt lat="45.14451303595879" lon="7.02249176571376"><ele>676.0</ele><time>2026-04-19T14:47:03.999Z</time></trkpt><trkpt lat="45.144605814327946" lon="7.0224132584283385"><ele>677.0</ele><time>2026-04-19T14:47:04.999Z</time></trkpt><trkpt lat="45.14466563506286" lon="7.022275326595673"><ele>678.0</ele><time>2026-04-19T14:47:05.999Z</time></trkpt><trkpt lat="45.14467608695142" lon="7.0221008951173"><ele>679.0</ele><time>2026-04-19T14:47:06.999Z</time></trkpt><trkpt lat="45.14465420505641" lon="7.021912325049394"><ele>680.0</ele><time>2026-04-19T14:47:07.999Z</time></trkpt><trkpt lat="45.144647275721" lon="7.021721207433132"><ele>681.0</ele><time>2026-04-19T14:47:08.999Z</time></trkpt><trkpt lat="45.14461180800424" lon="7.021524684192716"><ele>682.0</ele><time>2026-04-19T14:47:09.999Z</time></trkpt><trkpt lat="45.144538201313715" lon="7.021315761107542"><ele>683.0</ele><time>2026-04-19T14:47:10.999Z</time></trkpt><trkpt lat="45.14444254826036" lon="7.02111779082606"><ele>683.0</ele><time>2026-04-19T14:47:11.999Z</time></trkpt><trkpt lat="45.144328126404545" lon="7.02094878318553"><ele>683.0</ele><time>2026-04-19T14:47:13.999Z</time></trkpt><trkpt lat="45.14423970163741" lon="7.020824710021888"><ele>683.0</ele><time>2026-04-19T14:47:14.999Z</time></trkpt><trkpt lat="45.14420207860735" lon="7.020680424689068"><ele>683.0</ele><time>2026-04-19T14:47:15.999Z</time></trkpt><trkpt lat="45.14418455839938" lon="7.020558447354254"><ele>683.5999999999999</ele><time>2026-04-19T14:47:16.999Z</time></trkpt><trkpt lat="45.14420936994492" lon="7.020457062843959"><ele>684.1999999999999</ele><time>2026-04-19T14:47:17.999Z</time></trkpt><trkpt lat="45.14428328217799" lon="7.020392333439008"><ele>684.8</ele><time>2026-04-19T14:47:18.999Z</time></trkpt><trkpt lat="45.144385336258566" lon="7.020387862120055"><ele>685.4</ele><time>2026-04-19T14:47:19.999Z</time></trkpt><trkpt lat="45.14448527045989" lon="7.020395446727919"><ele>686.0</ele><time>2026-04-19T14:47:20.999Z</time></trkpt><trkpt lat="45.144616515073494" lon="7.020368002567387"><ele>686.0</ele><time>2026-04-19T14:47:21.999Z</time></trkpt><trkpt lat="45.14468292054724" lon="7.020237964438612"><ele>686.0</ele><time>2026-04-19T14:47:22.999Z</time></trkpt><trkpt lat="45.14468165579945" lon="7.020041613459377"><ele>686.0</ele><time>2026-04-19T14:47:23.999Z</time></trkpt><trkpt lat="45.144649958314446" lon="7.019855954039627"><ele>686.0</ele><time>2026-04-19T14:47:24.999Z</time></trkpt><trkpt lat="45.14459691847652" lon="7.019701899278286"><ele>687.0</ele><time>2026-04-19T14:47:25.999Z</time></trkpt><trkpt lat="45.14455011608465" lon="7.019511906805039"><ele>688.0</ele><time>2026-04-19T14:47:26.999Z</time></trkpt><trkpt lat="45.14450413339458" lon="7.019309886828506"><ele>689.0</ele><time>2026-04-19T14:47:27.999Z</time></trkpt><trkpt lat="45.14445107743121" lon="7.019095996324117"><ele>691.3333333333333</ele><time>2026-04-19T14:47:28.999Z</time></trkpt><trkpt lat="45.14445860851371" lon="7.018868111533546"><ele>693.6666666666666</ele><time>2026-04-19T14:47:29.999Z</time></trkpt><trkpt lat="45.14445298881358" lon="7.018644441093668"><ele>696.0</ele><time>2026-04-19T14:47:30.999Z</time></trkpt><trkpt lat="45.1444497134948" lon="7.018428800132926"><ele>698.1999999999999</ele><time>2026-04-19T14:47:31.999Z</time></trkpt><trkpt lat="45.14444818861582" lon="7.018253110161723"><ele>700.4</ele><time>2026-04-19T14:47:32.999Z</time></trkpt><trkpt lat="45.14449970772027" lon="7.0181517426900895"><ele>702.6</ele><time>2026-04-19T14:47:33.999Z</time></trkpt><trkpt lat="45.14459923838442" lon="7.018079854178194"><ele>704.8</ele><time>2026-04-19T14:47:34.999Z</time></trkpt><trkpt lat="45.1447123907371" lon="7.018126751417194"><ele>707.0</ele><time>2026-04-19T14:47:35.999Z</time></trkpt><trkpt lat="45.144781852910164" lon="7.0182751080832935"><ele>704.75</ele><time>2026-04-19T14:47:36.999Z</time></trkpt><trkpt lat="45.144816087727655" lon="7.018433344064352"><ele>702.5</ele><time>2026-04-19T14:47:37.999Z</time></trkpt><trkpt lat="45.144869513432134" lon="7.018597819453042"><ele>700.25</ele><time>2026-04-19T14:47:38.999Z</time></trkpt><trkpt lat="45.14496088210541" lon="7.018705453500882"><ele>698.0</ele><time>2026-04-19T14:47:39.999Z</time></trkpt><trkpt lat="45.14507955080187" lon="7.018726823103366"><ele>698.0</ele><time>2026-04-19T14:47:40.999Z</time></trkpt><trkpt lat="45.1452212229869" lon="7.018666095046006"><ele>698.0</ele><time>2026-04-19T14:47:41.999Z</time></trkpt><trkpt lat="45.14537558117771" lon="7.018634314117114"><ele>698.0</ele><time>2026-04-19T14:47:42.999Z</time></trkpt><trkpt lat="45.14551765926987" lon="7.0186126689485295"><ele>698.0</ele><time>2026-04-19T14:47:43.999Z</time></trkpt><trkpt lat="45.14562900873366" lon="7.018525608990637"><ele>698.0</ele><time>2026-04-19T14:47:44.999Z</time></trkpt><trkpt lat="45.145679486657606" lon="7.018390108283162"><ele>698.0</ele><time>2026-04-19T14:47:45.999Z</time></trkpt><trkpt lat="45.14566322527944" lon="7.018218035898187"><ele>698.0</ele><time>2026-04-19T14:47:46.999Z</time></trkpt><trkpt lat="45.145609921196204" lon="7.018036207191108"><ele>698.0</ele><time>2026-04-19T14:47:47.999Z</time></trkpt><trkpt lat="45.14555831895553" lon="7.0178202084451495"><ele>700.5999999999999</ele><time>2026-04-19T14:47:48.999Z</time></trkpt><trkpt lat="45.14553186302939" lon="7.0176441117622375"><ele>703.1999999999999</ele><time>2026-04-19T14:47:49.999Z</time></trkpt><trkpt lat="45.14551739912367" lon="7.017487774325187"><ele>705.8</ele><time>2026-04-19T14:47:50.999Z</time></trkpt><trkpt lat="45.145511507295176" lon="7.017341971752507"><ele>708.4</ele><time>2026-04-19T14:47:51.999Z</time></trkpt><trkpt lat="45.145509378693035" lon="7.017190285991083"><ele>711.0</ele><time>2026-04-19T14:47:52.999Z</time></trkpt><trkpt lat="45.145516432573935" lon="7.017046803592883"><ele>713.4</ele><time>2026-04-19T14:47:53.999Z</time></trkpt><trkpt lat="45.145540690150874" lon="7.01690845836684"><ele>715.8</ele><time>2026-04-19T14:47:54.999Z</time></trkpt><trkpt lat="45.14556796222157" lon="7.01676681747365"><ele>718.1999999999999</ele><time>2026-04-19T14:47:55.999Z</time></trkpt><trkpt lat="45.145602005242075" lon="7.016610151950246"><ele>720.5999999999999</ele><time>2026-04-19T14:47:56.999Z</time></trkpt><trkpt lat="45.145646553477945" lon="7.016450712554525"><ele>723.0</ele><time>2026-04-19T14:47:57.999Z</time></trkpt><trkpt lat="45.145691532663264" lon="7.016288461526907"><ele>723.75</ele><time>2026-04-19T14:47:58.999Z</time></trkpt><trkpt lat="45.145721079215534" lon="7.0161259464497645"><ele>724.5</ele><time>2026-04-19T14:47:59.999Z</time></trkpt><trkpt lat="45.145739192256556" lon="7.015948640001829"><ele>725.25</ele><time>2026-04-19T14:48:01Z</time></trkpt><trkpt lat="45.14574355790322" lon="7.015760240024181"><ele>726.0</ele><time>2026-04-19T14:48:02Z</time></trkpt><trkpt lat="45.14575196592681" lon="7.015580836221492"><ele>726.0</ele><time>2026-04-19T14:48:03Z</time></trkpt><trkpt lat="45.14575473614733" lon="7.015398879525125"><ele>726.0</ele><time>2026-04-19T14:48:04Z</time></trkpt><trkpt lat="45.145752467495576" lon="7.015217245693387"><ele>726.0</ele><time>2026-04-19T14:48:05Z</time></trkpt><trkpt lat="45.145752738032485" lon="7.015032465332411"><ele>726.0</ele><time>2026-04-19T14:48:06Z</time></trkpt><trkpt lat="45.14575867827757" lon="7.014837766610655"><ele>730.75</ele><time>2026-04-19T14:48:07Z</time></trkpt><trkpt lat="45.145760312165315" lon="7.014644966673924"><ele>735.5</ele><time>2026-04-19T14:48:08Z</time></trkpt><trkpt lat="45.14577805022237" lon="7.014446508674974"><ele>740.25</ele><time>2026-04-19T14:48:09Z</time></trkpt><trkpt lat="45.14581234014957" lon="7.014230463956536"><ele>745.0</ele><time>2026-04-19T14:48:10Z</time></trkpt><trkpt lat="45.14584440709658" lon="7.014002919726749"><ele>749.5</ele><time>2026-04-19T14:48:11Z</time></trkpt><trkpt lat="45.145873909795746" lon="7.013769600914839"><ele>754.0</ele><time>2026-04-19T14:48:12Z</time></trkpt><trkpt lat="45.14590467429165" lon="7.0135761851764915"><ele>758.5</ele><time>2026-04-19T14:48:13Z</time></trkpt><trkpt lat="45.145971985113185" lon="7.0134361877311715"><ele>763.0</ele><time>2026-04-19T14:48:14Z</time></trkpt><trkpt lat="45.14608449392397" lon="7.013358318588382"><ele>763.0</ele><time>2026-04-19T14:48:15Z</time></trkpt><trkpt lat="45.14622382262899" lon="7.0133636991198225"><ele>763.0</ele><time>2026-04-19T14:48:16Z</time></trkpt><trkpt lat="45.146380558352476" lon="7.013427328129371"><ele>763.0</ele><time>2026-04-19T14:48:17Z</time></trkpt><trkpt lat="45.14654504282675" lon="7.013437566927572"><ele>765.3333333333334</ele><time>2026-04-19T14:48:18Z</time></trkpt><trkpt lat="45.14671842537466" lon="7.013369324576561"><ele>767.6666666666667</ele><time>2026-04-19T14:48:19Z</time></trkpt><trkpt lat="45.14687764303046" lon="7.013315697511155"><ele>770.0</ele><time>2026-04-19T14:48:20Z</time></trkpt><trkpt lat="45.147020202472255" lon="7.013411721798307"><ele>763.3333333333334</ele><time>2026-04-19T14:48:21Z</time></trkpt><trkpt lat="45.14717194632648" lon="7.013555905588619"><ele>756.6666666666667</ele><time>2026-04-19T14:48:22Z</time></trkpt><trkpt lat="45.147344225064266" lon="7.013664092509424"><ele>750.0</ele><time>2026-04-19T14:48:23Z</time></trkpt><trkpt lat="45.14749746251495" lon="7.013673042608973"><ele>749.0</ele><time>2026-04-19T14:48:24Z</time></trkpt><trkpt lat="45.14759118046207" lon="7.01362640782779"><ele>748.0</ele><time>2026-04-19T14:48:25Z</time></trkpt><trkpt lat="45.1476507750135" lon="7.013496752105453"><ele>747.0</ele><time>2026-04-19T14:48:26Z</time></trkpt><trkpt lat="45.14763844106898" lon="7.013346058678804"><ele>746.0</ele><time>2026-04-19T14:48:27Z</time></trkpt><trkpt lat="45.14757787555217" lon="7.013227027713103"><ele>745.0</ele><time>2026-04-19T14:48:28Z</time></trkpt><trkpt lat="45.147464261737824" lon="7.013214360480597"><ele>751.25</ele><time>2026-04-19T14:48:29Z</time></trkpt><trkpt lat="45.14734578601794" lon="7.013305624130917"><ele>757.5</ele><time>2026-04-19T14:48:30Z</time></trkpt><trkpt lat="45.14724019214137" lon="7.013315548316287"><ele>763.75</ele><time>2026-04-19T14:48:31Z</time></trkpt><trkpt lat="45.14716794597736" lon="7.013233562981732"><ele>770.0</ele><time>2026-04-19T14:48:32Z</time></trkpt><trkpt lat="45.14718686828427" lon="7.013060804115713"><ele>770.0</ele><time>2026-04-19T14:48:33Z</time></trkpt><trkpt lat="45.14718767076836" lon="7.01288174030271"><ele>770.0</ele><time>2026-04-19T14:48:34Z</time></trkpt><trkpt lat="45.147191656584894" lon="7.012701959594951"><ele>770.0</ele><time>2026-04-19T14:48:35Z</time></trkpt><trkpt lat="45.147139294047705" lon="7.0125764823963594"><ele>770.0</ele><time>2026-04-19T14:48:35.999Z</time></trkpt><trkpt lat="45.1470255343889" lon="7.0125554290333465"><ele>770.0</ele><time>2026-04-19T14:48:36.999Z</time></trkpt><trkpt lat="45.14690245761771" lon="7.012634540261906"><ele>770.0</ele><time>2026-04-19T14:48:37.999Z</time></trkpt><trkpt lat="45.14680293614738" lon="7.012797596070918"><ele>770.0</ele><time>2026-04-19T14:48:38.999Z</time></trkpt><trkpt lat="45.14665488757351" lon="7.012889051193559"><ele>770.0</ele><time>2026-04-19T14:48:39.999Z</time></trkpt><trkpt lat="45.14652445337619" lon="7.012896043458103"><ele>773.0</ele><time>2026-04-19T14:48:40.999Z</time></trkpt><trkpt lat="45.14642705169204" lon="7.012860196975813"><ele>776.0</ele><time>2026-04-19T14:48:41.999Z</time></trkpt><trkpt lat="45.146364099571024" lon="7.012720892755469"><ele>779.0</ele><time>2026-04-19T14:48:42.999Z</time></trkpt><trkpt lat="45.14627724336617" lon="7.012558095612471"><ele>782.0</ele><time>2026-04-19T14:48:43.999Z</time></trkpt><trkpt lat="45.146195062179125" lon="7.012368868593363"><ele>790.0</ele><time>2026-04-19T14:48:44.999Z</time></trkpt><trkpt lat="45.146047206895304" lon="7.012252651150374"><ele>798.0</ele><time>2026-04-19T14:48:45.999Z</time></trkpt><trkpt lat="45.14585479330783" lon="7.012253376046249"><ele>806.0</ele><time>2026-04-19T14:48:46.999Z</time></trkpt><trkpt lat="45.14564685564935" lon="7.012289377450474"><ele>806.6666666666667</ele><time>2026-04-19T14:48:47.999Z</time></trkpt><trkpt lat="45.14547867057427" lon="7.012393986309622"><ele>807.3333333333333</ele><time>2026-04-19T14:48:48.999Z</time></trkpt><trkpt lat="45.14535360001164" lon="7.012571900081397"><ele>808.0</ele><time>2026-04-19T14:48:49.999Z</time></trkpt><trkpt lat="45.14528232150361" lon="7.012860532791396"><ele>808.0</ele><time>2026-04-19T14:48:50.999Z</time></trkpt><trkpt lat="45.14519484929049" lon="7.013120121022398"><ele>808.0</ele><time>2026-04-19T14:48:51.999Z</time></trkpt><trkpt lat="45.145106029498564" lon="7.013294840202835"><ele>808.0</ele><time>2026-04-19T14:48:52.999Z</time></trkpt><trkpt lat="45.144985138933556" lon="7.013439526785061"><ele>804.0</ele><time>2026-04-19T14:48:53.999Z</time></trkpt><trkpt lat="45.14484039173291" lon="7.013530942517835"><ele>800.0</ele><time>2026-04-19T14:48:54.999Z</time></trkpt><trkpt lat="45.14470170226517" lon="7.013558564099813"><ele>796.0</ele><time>2026-04-19T14:48:55.999Z</time></trkpt><trkpt lat="45.14458323891269" lon="7.013533238395024"><ele>792.0</ele><time>2026-04-19T14:48:56.999Z</time></trkpt><trkpt lat="45.144459580280426" lon="7.013459284092263"><ele>799.3333333333333</ele><time>2026-04-19T14:48:57.999Z</time></trkpt><trkpt lat="45.144366186644724" lon="7.013281798415269"><ele>806.6666666666666</ele><time>2026-04-19T14:48:58.999Z</time></trkpt><trkpt lat="45.14425986675081" lon="7.0131112036073135"><ele>814.0</ele><time>2026-04-19T14:48:59.999Z</time></trkpt><trkpt lat="45.14414634821065" lon="7.0129231742036655"><ele>809.6666666666666</ele><time>2026-04-19T14:49:00.999Z</time></trkpt><trkpt lat="45.143993008580196" lon="7.012765806599596"><ele>805.3333333333333</ele><time>2026-04-19T14:49:01.999Z</time></trkpt><trkpt lat="45.14381732881929" lon="7.012673399267027"><ele>801.0</ele><time>2026-04-19T14:49:02.999Z</time></trkpt><trkpt lat="45.143654092629916" lon="7.012621334969173"><ele>801.0</ele><time>2026-04-19T14:49:03.999Z</time></trkpt><trkpt lat="45.143557315933165" lon="7.012523522500886"><ele>801.0</ele><time>2026-04-19T14:49:04.999Z</time></trkpt><trkpt lat="45.14350135399512" lon="7.01238237727403"><ele>801.0</ele><time>2026-04-19T14:49:05.999Z</time></trkpt><trkpt lat="45.143444027031755" lon="7.012183598774769"><ele>801.0</ele><time>2026-04-19T14:49:06.999Z</time></trkpt><trkpt lat="45.14349503346995" lon="7.0119164169278845"><ele>806.6666666666667</ele><time>2026-04-19T14:49:07.999Z</time></trkpt><trkpt lat="45.143522065916684" lon="7.011625809919578"><ele>812.3333333333334</ele><time>2026-04-19T14:49:08.999Z</time></trkpt><trkpt lat="45.14352475662075" lon="7.011335896764045"><ele>818.0</ele><time>2026-04-19T14:49:09.999Z</time></trkpt><trkpt lat="45.14341284067805" lon="7.011056075655542"><ele>814.5</ele><time>2026-04-19T14:49:10.999Z</time></trkpt><trkpt lat="45.14325365654361" lon="7.010740583274626"><ele>811.0</ele><time>2026-04-19T14:49:11.999Z</time></trkpt><trkpt lat="45.14310428315655" lon="7.010376309545952"><ele>811.0</ele><time>2026-04-19T14:49:12.999Z</time></trkpt><trkpt lat="45.14296339682427" lon="7.009995205082285"><ele>811.0</ele><time>2026-04-19T14:49:13.999Z</time></trkpt><trkpt lat="45.1428496474975" lon="7.009617345436417"><ele>817.5</ele><time>2026-04-19T14:49:14.999Z</time></trkpt><trkpt lat="45.142755292295924" lon="7.009260481747773"><ele>824.0</ele><time>2026-04-19T14:49:15.999Z</time></trkpt><trkpt lat="45.14264551844156" lon="7.008966653559166"><ele>822.3333333333334</ele><time>2026-04-19T14:49:16.999Z</time></trkpt><trkpt lat="45.14249397646412" lon="7.008753831996016"><ele>820.6666666666667</ele><time>2026-04-19T14:49:17.999Z</time></trkpt><trkpt lat="45.14231879813267" lon="7.008624236406702"><ele>819.0</ele><time>2026-04-19T14:49:18.999Z</time></trkpt><trkpt lat="45.142216833688664" lon="7.008452291476239"><ele>823.3333333333333</ele><time>2026-04-19T14:49:19.999Z</time></trkpt><trkpt lat="45.14215519011544" lon="7.008200652399136"><ele>827.6666666666666</ele><time>2026-04-19T14:49:20.999Z</time></trkpt><trkpt lat="45.142075943492074" lon="7.00785707248834"><ele>832.0</ele><time>2026-04-19T14:49:21.999Z</time></trkpt><trkpt lat="45.14201067960152" lon="7.007456129581517"><ele>839.0</ele><time>2026-04-19T14:49:22.999Z</time></trkpt><trkpt lat="45.141934429993476" lon="7.007044541308842"><ele>846.0</ele><time>2026-04-19T14:49:23.999Z</time></trkpt><trkpt lat="45.14185751096087" lon="7.0066462501214675"><ele>851.3333333333333</ele><time>2026-04-19T14:49:24.999Z</time></trkpt><trkpt lat="45.14179560309735" lon="7.006327940856355"><ele>856.6666666666666</ele><time>2026-04-19T14:49:25.999Z</time></trkpt><trkpt lat="45.14172958353603" lon="7.0060866926531755"><ele>862.0</ele><time>2026-04-19T14:49:26.999Z</time></trkpt><trkpt lat="45.141619997618065" lon="7.005892081394855"><ele>866.0</ele><time>2026-04-19T14:49:27.999Z</time></trkpt><trkpt lat="45.14143695398898" lon="7.005778323364391"><ele>870.0</ele><time>2026-04-19T14:49:28.999Z</time></trkpt><trkpt lat="45.141232356601044" lon="7.005778797424435"><ele>874.0</ele><time>2026-04-19T14:49:29.999Z</time></trkpt><trkpt lat="45.14108145414982" lon="7.005810257161032"><ele>874.0</ele><time>2026-04-19T14:49:30.999Z</time></trkpt><trkpt lat="45.141015341250856" lon="7.005785174062028"><ele>874.0000000000001</ele><time>2026-04-19T14:49:31.999Z</time></trkpt><trkpt lat="45.141000038367096" lon="7.0056279166385"><ele>874.0000000000001</ele><time>2026-04-19T14:49:33.999Z</time></trkpt><trkpt lat="45.141082639107644" lon="7.005554820576531"><ele>874.0</ele><time>2026-04-19T14:49:34.999Z</time></trkpt><trkpt lat="45.14120265386793" lon="7.005575947031431"><ele>874.0</ele><time>2026-04-19T14:49:35.999Z</time></trkpt><trkpt lat="45.1413558555887" lon="7.005558349996727"><ele>874.0</ele><time>2026-04-19T14:49:36.999Z</time></trkpt><trkpt lat="45.14153744238512" lon="7.005509295283983"><ele>874.0</ele><time>2026-04-19T14:49:37.999Z</time></trkpt><trkpt lat="45.1417321312363" lon="7.00545798522463"><ele>874.0</ele><time>2026-04-19T14:49:38.999Z</time></trkpt><trkpt lat="45.141879593155274" lon="7.005545641356158"><ele>877.0</ele><time>2026-04-19T14:49:39.999Z</time></trkpt><trkpt lat="45.141981950741645" lon="7.005710037815616"><ele>880.0</ele><time>2026-04-19T14:49:40.999Z</time></trkpt><trkpt lat="45.14209116792324" lon="7.005947879182825"><ele>883.0</ele><time>2026-04-19T14:49:41.999Z</time></trkpt><trkpt lat="45.14222652266946" lon="7.006216094989923"><ele>880.3333333333333</ele><time>2026-04-19T14:49:42.999Z</time></trkpt><trkpt lat="45.14234569917835" lon="7.006500540341246"><ele>877.6666666666667</ele><time>2026-04-19T14:49:43.999Z</time></trkpt><trkpt lat="45.14247145258882" lon="7.006707405135674"><ele>875.0</ele><time>2026-04-19T14:49:44.999Z</time></trkpt><trkpt lat="45.142634226554605" lon="7.006846595929625"><ele>875.0</ele><time>2026-04-19T14:49:45.999Z</time></trkpt><trkpt lat="45.14286190691785" lon="7.006881496248506"><ele>875.0</ele><time>2026-04-19T14:49:46.999Z</time></trkpt><trkpt lat="45.143117669511525" lon="7.006860917929553"><ele>880.5</ele><time>2026-04-19T14:49:47.999Z</time></trkpt><trkpt lat="45.143390764401865" lon="7.0068415175103835"><ele>886.0</ele><time>2026-04-19T14:49:48.999Z</time></trkpt><trkpt lat="45.14363416671059" lon="7.006767468596383"><ele>886.0</ele><time>2026-04-19T14:49:49.999Z</time></trkpt><trkpt lat="45.14383521174772" lon="7.00666858085266"><ele>886.0</ele><time>2026-04-19T14:49:50.999Z</time></trkpt><trkpt lat="45.144001052454016" lon="7.00668362670109"><ele>886.0</ele><time>2026-04-19T14:49:51.999Z</time></trkpt><trkpt lat="45.14413455492909" lon="7.006804854599879"><ele>888.25</ele><time>2026-04-19T14:49:52.999Z</time></trkpt><trkpt lat="45.14427542812216" lon="7.006978029833397"><ele>890.5</ele><time>2026-04-19T14:49:53.999Z</time></trkpt><trkpt lat="45.144393629601474" lon="7.007116172463061"><ele>892.75</ele><time>2026-04-19T14:49:54.999Z</time></trkpt><trkpt lat="45.14446366237241" lon="7.007178836727756"><ele>895.0</ele><time>2026-04-19T14:49:55.999Z</time></trkpt><trkpt lat="45.1445299492262" lon="7.007122077419185"><ele>895.0</ele><time>2026-04-19T14:49:56.999Z</time></trkpt><trkpt lat="45.144557705365244" lon="7.006978351973908"><ele>895.0</ele><time>2026-04-19T14:49:57.999Z</time></trkpt><trkpt lat="45.14450922185152" lon="7.006820287751736"><ele>895.0</ele><time>2026-04-19T14:49:58.999Z</time></trkpt><trkpt lat="45.14438775918918" lon="7.0066924120346155"><ele>895.0</ele><time>2026-04-19T14:49:59.999Z</time></trkpt><trkpt lat="45.14425316074094" lon="7.0065297448421235"><ele>899.3333333333333</ele><time>2026-04-19T14:50:00.999Z</time></trkpt><trkpt lat="45.14408811434726" lon="7.006333040159443"><ele>903.6666666666667</ele><time>2026-04-19T14:50:01.999Z</time></trkpt><trkpt lat="45.143903561319505" lon="7.006150787687834"><ele>908.0</ele><time>2026-04-19T14:50:02.999Z</time></trkpt><trkpt lat="45.14366440434632" lon="7.006020898146766"><ele>908.0</ele><time>2026-04-19T14:50:03.999Z</time></trkpt><trkpt lat="45.14340850763219" lon="7.005851129505082"><ele>908.0</ele><time>2026-04-19T14:50:04.999Z</time></trkpt><trkpt lat="45.14318018943214" lon="7.005695070454823"><ele>907.6666666666667</ele><time>2026-04-19T14:50:05.999Z</time></trkpt><trkpt lat="45.143022243845934" lon="7.005548204939801"><ele>907.3333333333333</ele><time>2026-04-19T14:50:07Z</time></trkpt><trkpt lat="45.14290667945795" lon="7.005373966808827"><ele>907.0</ele><time>2026-04-19T14:50:08Z</time></trkpt><trkpt lat="45.14281590086631" lon="7.005149422527864"><ele>913.0</ele><time>2026-04-19T14:50:09Z</time></trkpt><trkpt lat="45.14274969444874" lon="7.00484409172346"><ele>919.0</ele><time>2026-04-19T14:50:10Z</time></trkpt><trkpt lat="45.14267067186" lon="7.004500160153864"><ele>929.5</ele><time>2026-04-19T14:50:11Z</time></trkpt><trkpt lat="45.14260970103411" lon="7.004154181149979"><ele>940.0</ele><time>2026-04-19T14:50:12Z</time></trkpt><trkpt lat="45.142520260011494" lon="7.003868063355959"><ele>931.5</ele><time>2026-04-19T14:50:13Z</time></trkpt><trkpt lat="45.14235282176014" lon="7.003611869412012"><ele>923.0</ele><time>2026-04-19T14:50:14Z</time></trkpt><trkpt lat="45.14213115973935" lon="7.003363257561933"><ele>930.5</ele><time>2026-04-19T14:50:15Z</time></trkpt><trkpt lat="45.141906007325375" lon="7.003101910323793"><ele>938.0</ele><time>2026-04-19T14:50:16Z</time></trkpt><trkpt lat="45.141722152405485" lon="7.00287202516212"><ele>938.0</ele><time>2026-04-19T14:50:17Z</time></trkpt><trkpt lat="45.141599617179686" lon="7.002714788651931"><ele>938.0</ele><time>2026-04-19T14:50:18Z</time></trkpt><trkpt lat="45.14155338815343" lon="7.002614314737912"><ele>938.0</ele><time>2026-04-19T14:50:19Z</time></trkpt><trkpt lat="45.141550348609144" lon="7.002443601933988"><ele>938.0</ele><time>2026-04-19T14:50:21Z</time></trkpt><trkpt lat="45.14168908141601" lon="7.002466102263957"><ele>938.0</ele><time>2026-04-19T14:50:22Z</time></trkpt><trkpt lat="45.141757175157196" lon="7.0025953929105595"><ele>938.0</ele><time>2026-04-19T14:50:23Z</time></trkpt><trkpt lat="45.14191744240136" lon="7.002726714242485"><ele>938.0</ele><time>2026-04-19T14:50:24Z</time></trkpt><trkpt lat="45.14206438882564" lon="7.002885426998327"><ele>938.0</ele><time>2026-04-19T14:50:25Z</time></trkpt><trkpt lat="45.14223066443355" lon="7.00301128018415"><ele>938.0</ele><time>2026-04-19T14:50:26Z</time></trkpt><trkpt lat="45.14242164960066" lon="7.003153950688427"><ele>938.0</ele><time>2026-04-19T14:50:27Z</time></trkpt><trkpt lat="45.142592161720216" lon="7.00318807542178"><ele>946.0</ele><time>2026-04-19T14:50:28Z</time></trkpt><trkpt lat="45.14272573543277" lon="7.003173899672813"><ele>954.0</ele><time>2026-04-19T14:50:29Z</time></trkpt><trkpt lat="45.142877051008995" lon="7.00317824796993"><ele>962.0</ele><time>2026-04-19T14:50:30Z</time></trkpt><trkpt lat="45.14303678888245" lon="7.003248504320251"><ele>960.0</ele><time>2026-04-19T14:50:31Z</time></trkpt><trkpt lat="45.143224547544456" lon="7.003354632051891"><ele>958.0</ele><time>2026-04-19T14:50:32Z</time></trkpt><trkpt lat="45.14343043652817" lon="7.003471808913062"><ele>956.0</ele><time>2026-04-19T14:50:33Z</time></trkpt><trkpt lat="45.14365932316085" lon="7.003639926539002"><ele>956.0</ele><time>2026-04-19T14:50:34Z</time></trkpt><trkpt lat="45.14387284326714" lon="7.003755487999438"><ele>956.0</ele><time>2026-04-19T14:50:35Z</time></trkpt><trkpt lat="45.14407886842314" lon="7.003834192054131"><ele>956.0</ele><time>2026-04-19T14:50:36Z</time></trkpt><trkpt lat="45.144248739776394" lon="7.003815053665004"><ele>961.5</ele><time>2026-04-19T14:50:37Z</time></trkpt><trkpt lat="45.14444593784228" lon="7.003740169274851"><ele>967.0</ele><time>2026-04-19T14:50:38Z</time></trkpt><trkpt lat="45.14467187923047" lon="7.00359250644311"><ele>966.5</ele><time>2026-04-19T14:50:39Z</time></trkpt><trkpt lat="45.144890862518864" lon="7.003355186985657"><ele>966.0</ele><time>2026-04-19T14:50:40Z</time></trkpt><trkpt lat="45.145094933927176" lon="7.003112000948787"><ele>977.0</ele><time>2026-04-19T14:50:41Z</time></trkpt><trkpt lat="45.14527705487969" lon="7.002868701819332"><ele>988.0</ele><time>2026-04-19T14:50:42Z</time></trkpt><trkpt lat="45.14547624941358" lon="7.002741474020599"><ele>988.0</ele><time>2026-04-19T14:50:43Z</time></trkpt><trkpt lat="45.145711450235716" lon="7.002630013158651"><ele>988.0</ele><time>2026-04-19T14:50:44Z</time></trkpt><trkpt lat="45.14595358011387" lon="7.002553544120467"><ele>1002.0</ele><time>2026-04-19T14:50:45Z</time></trkpt><trkpt lat="45.14618257641152" lon="7.002439701718228"><ele>1016.0</ele><time>2026-04-19T14:50:46Z</time></trkpt><trkpt lat="45.14639319103788" lon="7.00222556340836"><ele>1008.0</ele><time>2026-04-19T14:50:47Z</time></trkpt><trkpt lat="45.14665999656106" lon="7.001936037835521"><ele>1000.0</ele><time>2026-04-19T14:50:48Z</time></trkpt><trkpt lat="45.14696276803299" lon="7.00170094548047"><ele>1010.5</ele><time>2026-04-19T14:50:49Z</time></trkpt><trkpt lat="45.14721821188498" lon="7.001492592731623"><ele>1021.0</ele><time>2026-04-19T14:50:49.999Z</time></trkpt><trkpt lat="45.14743071511471" lon="7.0012990040447"><ele>1021.0</ele><time>2026-04-19T14:50:50.999Z</time></trkpt><trkpt lat="45.147648248884366" lon="7.001120380362698"><ele>1021.0</ele><time>2026-04-19T14:50:51.999Z</time></trkpt><trkpt lat="45.14788674282556" lon="7.000957973785558"><ele>1021.0</ele><time>2026-04-19T14:50:52.999Z</time></trkpt><trkpt lat="45.148149353871155" lon="7.000920183604891"><ele>1021.0</ele><time>2026-04-19T14:50:53.999Z</time></trkpt><trkpt lat="45.14840271999291" lon="7.000850975461505"><ele>1017.0</ele><time>2026-04-19T14:50:54.999Z</time></trkpt><trkpt lat="45.148613476064796" lon="7.000836872907126"><ele>1013.0</ele><time>2026-04-19T14:50:55.999Z</time></trkpt><trkpt lat="45.14877534248639" lon="7.000729180677158"><ele>1009.0</ele><time>2026-04-19T14:50:56.999Z</time></trkpt><trkpt lat="45.148945244233886" lon="7.000495393720055"><ele>1017.0</ele><time>2026-04-19T14:50:57.999Z</time></trkpt><trkpt lat="45.1491475056675" lon="7.000215141010518"><ele>1025.0</ele><time>2026-04-19T14:50:58.999Z</time></trkpt><trkpt lat="45.14935205781267" lon="7.000093596372132"><ele>1025.0</ele><time>2026-04-19T14:50:59.999Z</time></trkpt><trkpt lat="45.14954874398066" lon="7.000072655065818"><ele>1025.0</ele><time>2026-04-19T14:51:00.999Z</time></trkpt><trkpt lat="45.14977107926396" lon="6.999940236937321"><ele>1025.0</ele><time>2026-04-19T14:51:01.999Z</time></trkpt><trkpt lat="45.14995228941721" lon="6.999922808871074"><ele>1021.0</ele><time>2026-04-19T14:51:02.999Z</time></trkpt><trkpt lat="45.15021114454716" lon="6.999681344195318"><ele>1017.0</ele><time>2026-04-19T14:51:03.999Z</time></trkpt><trkpt lat="45.150440461185674" lon="6.999471119697061"><ele>1017.0</ele><time>2026-04-19T14:51:04.999Z</time></trkpt><trkpt lat="45.1506684870841" lon="6.999356689250845"><ele>1017.0</ele><time>2026-04-19T14:51:05.999Z</time></trkpt><trkpt lat="45.150924707967704" lon="6.999298860208383"><ele>1013.0</ele><time>2026-04-19T14:51:06.999Z</time></trkpt><trkpt lat="45.151152914261495" lon="6.99925377490317"><ele>1009.0</ele><time>2026-04-19T14:51:07.999Z</time></trkpt><trkpt lat="45.15135159092459" lon="6.999120888338151"><ele>1017.5</ele><time>2026-04-19T14:51:08.999Z</time></trkpt><trkpt lat="45.15159203660901" lon="6.998902563616497"><ele>1026.0</ele><time>2026-04-19T14:51:09.999Z</time></trkpt><trkpt lat="45.15179372866072" lon="6.9987000722326655"><ele>1026.0</ele><time>2026-04-19T14:51:10.999Z</time></trkpt><trkpt lat="45.1519854368188" lon="6.9985057277866165"><ele>1026.0</ele><time>2026-04-19T14:51:11.999Z</time></trkpt><trkpt lat="45.15211632591495" lon="6.99833902421315"><ele>1026.0</ele><time>2026-04-19T14:51:12.999Z</time></trkpt><trkpt lat="45.152190250803294" lon="6.99813201580715"><ele>1031.6666666666667</ele><time>2026-04-19T14:51:13.999Z</time></trkpt><trkpt lat="45.15225295291046" lon="6.997843820674004"><ele>1037.3333333333335</ele><time>2026-04-19T14:51:14.999Z</time></trkpt><trkpt lat="45.15233655766619" lon="6.997581255969681"><ele>1043.0</ele><time>2026-04-19T14:51:15.999Z</time></trkpt><trkpt lat="45.15243636330025" lon="6.997319732516992"><ele>1043.0</ele><time>2026-04-19T14:51:16.999Z</time></trkpt><trkpt lat="45.15260073550942" lon="6.997046488853126"><ele>1043.0</ele><time>2026-04-19T14:51:17.999Z</time></trkpt><trkpt lat="45.152828250658224" lon="6.99673083455028"><ele>1059.0</ele><time>2026-04-19T14:51:18.999Z</time></trkpt><trkpt lat="45.15296482835295" lon="6.996400944716849"><ele>1075.0</ele><time>2026-04-19T14:51:19.999Z</time></trkpt><trkpt lat="45.15313916774967" lon="6.99619814350205"><ele>1070.0</ele><time>2026-04-19T14:51:20.999Z</time></trkpt><trkpt lat="45.15328730790968" lon="6.995987495739374"><ele>1065.0</ele><time>2026-04-19T14:51:21.999Z</time></trkpt><trkpt lat="45.153439436270034" lon="6.995714198790404"><ele>1065.0</ele><time>2026-04-19T14:51:22.999Z</time></trkpt><trkpt lat="45.15356287492681" lon="6.995413523507056"><ele>1065.0</ele><time>2026-04-19T14:51:23.999Z</time></trkpt><trkpt lat="45.1536642180629" lon="6.995156834265384"><ele>1071.3333333333333</ele><time>2026-04-19T14:51:24.999Z</time></trkpt><trkpt lat="45.15372226483347" lon="6.994934700070701"><ele>1077.6666666666665</ele><time>2026-04-19T14:51:25.999Z</time></trkpt><trkpt lat="45.15373874147421" lon="6.994688360557353"><ele>1084.0</ele><time>2026-04-19T14:51:26.999Z</time></trkpt><trkpt lat="45.15374549057992" lon="6.994433695804792"><ele>1084.0</ele><time>2026-04-19T14:51:27.999Z</time></trkpt><trkpt lat="45.15384484922367" lon="6.994237207653512"><ele>1084.0</ele><time>2026-04-19T14:51:28.999Z</time></trkpt><trkpt lat="45.15398972285319" lon="6.99405657961082"><ele>1084.0</ele><time>2026-04-19T14:51:29.999Z</time></trkpt><trkpt lat="45.15410212438693" lon="6.993839541067359"><ele>1084.0</ele><time>2026-04-19T14:51:30.999Z</time></trkpt><trkpt lat="45.15414786591659" lon="6.993595437678657"><ele>1084.0</ele><time>2026-04-19T14:51:31.999Z</time></trkpt><trkpt lat="45.154224112152576" lon="6.993424341201556"><ele>1084.0</ele><time>2026-04-19T14:51:32.999Z</time></trkpt><trkpt lat="45.154340105060655" lon="6.99335175069627"><ele>1084.0</ele><time>2026-04-19T14:51:33.999Z</time></trkpt><trkpt lat="45.1545054759071" lon="6.993297903203325"><ele>1084.0</ele><time>2026-04-19T14:51:34.999Z</time></trkpt><trkpt lat="45.154666344226015" lon="6.993337252052882"><ele>1084.0</ele><time>2026-04-19T14:51:35.999Z</time></trkpt><trkpt lat="45.15484242050997" lon="6.993440972068533"><ele>1084.0</ele><time>2026-04-19T14:51:36.999Z</time></trkpt><trkpt lat="45.155014539643666" lon="6.993664456946497"><ele>1070.5</ele><time>2026-04-19T14:51:37.999Z</time></trkpt><trkpt lat="45.155156239840224" lon="6.993912178165423"><ele>1057.0</ele><time>2026-04-19T14:51:38.999Z</time></trkpt><trkpt lat="45.155322139761864" lon="6.994147973817438"><ele>1053.0</ele><time>2026-04-19T14:51:39.999Z</time></trkpt><trkpt lat="45.15554735799689" lon="6.994280244670236"><ele>1049.0</ele><time>2026-04-19T14:51:40.999Z</time></trkpt><trkpt lat="45.1558012217409" lon="6.994319656974767"><ele>1049.0</ele><time>2026-04-19T14:51:41.999Z</time></trkpt><trkpt lat="45.15601191409976" lon="6.994341108387953"><ele>1049.0</ele><time>2026-04-19T14:51:42.999Z</time></trkpt><trkpt lat="45.156109971765346" lon="6.994494807222331"><ele>1049.0</ele><time>2026-04-19T14:51:43.999Z</time></trkpt><trkpt lat="45.156226662876264" lon="6.994695491734602"><ele>1049.0</ele><time>2026-04-19T14:51:44.999Z</time></trkpt><trkpt lat="45.15636858697064" lon="6.994948902172579"><ele>1049.0</ele><time>2026-04-19T14:51:45.999Z</time></trkpt><trkpt lat="45.15655663707554" lon="6.995197804942059"><ele>1050.0</ele><time>2026-04-19T14:51:46.999Z</time></trkpt><trkpt lat="45.156741358334756" lon="6.995424536074312"><ele>1051.0</ele><time>2026-04-19T14:51:47.999Z</time></trkpt><trkpt lat="45.15692596469162" lon="6.995618482065167"><ele>1051.0</ele><time>2026-04-19T14:51:48.999Z</time></trkpt><trkpt lat="45.1570696154089" lon="6.995777270703974"><ele>1051.0</ele><time>2026-04-19T14:51:49.999Z</time></trkpt><trkpt lat="45.15721060435364" lon="6.995891516553084"><ele>1051.0</ele><time>2026-04-19T14:51:50.999Z</time></trkpt><trkpt lat="45.15739405977533" lon="6.995957462121573"><ele>1048.6666666666665</ele><time>2026-04-19T14:51:51.999Z</time></trkpt><trkpt lat="45.157583534723706" lon="6.995947911886585"><ele>1046.3333333333333</ele><time>2026-04-19T14:51:52.999Z</time></trkpt><trkpt lat="45.15779539961402" lon="6.996014985148158"><ele>1044.0</ele><time>2026-04-19T14:51:53.999Z</time></trkpt><trkpt lat="45.15806334100746" lon="6.99611398487814"><ele>1056.5</ele><time>2026-04-19T14:51:54.999Z</time></trkpt><trkpt lat="45.158321604774734" lon="6.996265862184557"><ele>1069.0</ele><time>2026-04-19T14:51:55.999Z</time></trkpt><trkpt lat="45.15853998464447" lon="6.996397539959229"><ele>1069.0</ele><time>2026-04-19T14:51:56.999Z</time></trkpt><trkpt lat="45.158690550431224" lon="6.996458504386618"><ele>1069.0</ele><time>2026-04-19T14:51:57.999Z</time></trkpt><trkpt lat="45.15880542029071" lon="6.996531269252818"><ele>1069.0</ele><time>2026-04-19T14:51:58.999Z</time></trkpt><trkpt lat="45.15896876420567" lon="6.996476866120194"><ele>1063.5</ele><time>2026-04-19T14:51:59.999Z</time></trkpt><trkpt lat="45.159133205782766" lon="6.9965128413036455"><ele>1058.0</ele><time>2026-04-19T14:52:00.999Z</time></trkpt><trkpt lat="45.159216287149285" lon="6.996650228913524"><ele>1052.5</ele><time>2026-04-19T14:52:01.999Z</time></trkpt><trkpt lat="45.15928304851686" lon="6.996829655457034"><ele>1047.0</ele><time>2026-04-19T14:52:02.999Z</time></trkpt><trkpt lat="45.159362727373825" lon="6.996969289643639"><ele>1047.0</ele><time>2026-04-19T14:52:03.999Z</time></trkpt><trkpt lat="45.15946363350909" lon="6.997029318437375"><ele>1047.0</ele><time>2026-04-19T14:52:04.999Z</time></trkpt><trkpt lat="45.15957607213115" lon="6.997047574224403"><ele>1047.0</ele><time>2026-04-19T14:52:05.999Z</time></trkpt><trkpt lat="45.15968552334439" lon="6.997030843476413"><ele>1047.0</ele><time>2026-04-19T14:52:06.999Z</time></trkpt><trkpt lat="45.15978482410747" lon="6.997011125862113"><ele>1047.0</ele><time>2026-04-19T14:52:07.999Z</time></trkpt><trkpt lat="45.15985394592025" lon="6.996995883589645"><ele>1052.5</ele><time>2026-04-19T14:52:08.999Z</time></trkpt><trkpt lat="45.159935276806586" lon="6.996940910516461"><ele>1058.0</ele><time>2026-04-19T14:52:10.999Z</time></trkpt><trkpt lat="45.16005845195462" lon="6.99685905111195"><ele>1063.5</ele><time>2026-04-19T14:52:33.999Z</time></trkpt><trkpt lat="45.1601674049271" lon="6.996811716097113"><ele>1069.0</ele><time>2026-04-19T14:52:34.999Z</time></trkpt><trkpt lat="45.160290016712906" lon="6.996796017470174"><ele>1069.0</ele><time>2026-04-19T14:52:35.999Z</time></trkpt><trkpt lat="45.16040837697094" lon="6.996842752994697"><ele>1069.0</ele><time>2026-04-19T14:52:36.999Z</time></trkpt><trkpt lat="45.16052926806237" lon="6.996956039196837"><ele>1069.0</ele><time>2026-04-19T14:52:37.999Z</time></trkpt><trkpt lat="45.160653351589524" lon="6.9970743679642915"><ele>1069.0</ele><time>2026-04-19T14:52:38.999Z</time></trkpt><trkpt lat="45.160783869916514" lon="6.997213339546835"><ele>1064.3333333333333</ele><time>2026-04-19T14:52:39.999Z</time></trkpt><trkpt lat="45.16089736626423" lon="6.997380568050321"><ele>1059.6666666666667</ele><time>2026-04-19T14:52:40.999Z</time></trkpt><trkpt lat="45.16102426301089" lon="6.997530081640075"><ele>1055.0</ele><time>2026-04-19T14:52:41.999Z</time></trkpt><trkpt lat="45.16119931506119" lon="6.997594397098278"><ele>1055.0</ele><time>2026-04-19T14:52:42.999Z</time></trkpt><trkpt lat="45.16141119029549" lon="6.9975758735237"><ele>1055.0</ele><time>2026-04-19T14:52:43.999Z</time></trkpt><trkpt lat="45.161627602503735" lon="6.997554484184014"><ele>1055.0</ele><time>2026-04-19T14:52:44.999Z</time></trkpt><trkpt lat="45.16181857745988" lon="6.997595003537996"><ele>1062.3333333333335</ele><time>2026-04-19T14:52:45.999Z</time></trkpt><trkpt lat="45.162006908589504" lon="6.997714486584998"><ele>1069.6666666666667</ele><time>2026-04-19T14:52:46.999Z</time></trkpt><trkpt lat="45.16219782451516" lon="6.9979215303442635"><ele>1077.0</ele><time>2026-04-19T14:52:47.999Z</time></trkpt><trkpt lat="45.16241110053147" lon="6.998104006573613"><ele>1082.5</ele><time>2026-04-19T14:52:48.999Z</time></trkpt><trkpt lat="45.162663481291695" lon="6.998229357686221"><ele>1088.0</ele><time>2026-04-19T14:52:49.999Z</time></trkpt><trkpt lat="45.16293859185651" lon="6.99830026648042"><ele>1085.0</ele><time>2026-04-19T14:52:50.999Z</time></trkpt><trkpt lat="45.16321063970591" lon="6.998376239623916"><ele>1082.0</ele><time>2026-04-19T14:52:51.999Z</time></trkpt><trkpt lat="45.16347360169973" lon="6.998533554453169"><ele>1082.0</ele><time>2026-04-19T14:52:52.999Z</time></trkpt><trkpt lat="45.16373021747415" lon="6.998739607165833"><ele>1082.0</ele><time>2026-04-19T14:52:53.999Z</time></trkpt><trkpt lat="45.16399014522063" lon="6.998971048451829"><ele>1077.5</ele><time>2026-04-19T14:52:54.999Z</time></trkpt><trkpt lat="45.164224926821994" lon="6.999179177741255"><ele>1073.0</ele><time>2026-04-19T14:52:55.999Z</time></trkpt><trkpt lat="45.16441887240114" lon="6.9993395701010845"><ele>1073.0</ele><time>2026-04-19T14:52:56.999Z</time></trkpt><trkpt lat="45.16458510826719" lon="6.999449712414458"><ele>1073.0</ele><time>2026-04-19T14:52:57.999Z</time></trkpt><trkpt lat="45.164787668777514" lon="6.999502351982254"><ele>1073.0</ele><time>2026-04-19T14:52:58.999Z</time></trkpt><trkpt lat="45.165011780299" lon="6.999465613342955"><ele>1076.0</ele><time>2026-04-19T14:52:59.999Z</time></trkpt><trkpt lat="45.165220911214156" lon="6.99948078426637"><ele>1079.0</ele><time>2026-04-19T14:53:00.999Z</time></trkpt><trkpt lat="45.16543096013239" lon="6.999534624394418"><ele>1082.0</ele><time>2026-04-19T14:53:01.999Z</time></trkpt><trkpt lat="45.16562603377503" lon="6.999509273071616"><ele>1081.3333333333335</ele><time>2026-04-19T14:53:02.999Z</time></trkpt><trkpt lat="45.16578970606846" lon="6.999361762325619"><ele>1080.6666666666667</ele><time>2026-04-19T14:53:03.999Z</time></trkpt><trkpt lat="45.165932606326315" lon="6.999258045407712"><ele>1080.0</ele><time>2026-04-19T14:53:04.999Z</time></trkpt><trkpt lat="45.166111801105394" lon="6.999305573572151"><ele>1080.0</ele><time>2026-04-19T14:53:05.999Z</time></trkpt><trkpt lat="45.16629244531207" lon="6.999493656942286"><ele>1080.0</ele><time>2026-04-19T14:53:06.999Z</time></trkpt><trkpt lat="45.166499784251364" lon="6.999703010945023"><ele>1090.5</ele><time>2026-04-19T14:53:07.999Z</time></trkpt><trkpt lat="45.1667173117491" lon="6.999933534080297"><ele>1101.0</ele><time>2026-04-19T14:53:08.999Z</time></trkpt><trkpt lat="45.166949190005404" lon="7.00015502731551"><ele>1101.0</ele><time>2026-04-19T14:53:09.999Z</time></trkpt><trkpt lat="45.16718603853218" lon="7.000370890848322"><ele>1101.0</ele><time>2026-04-19T14:53:10.999Z</time></trkpt><trkpt lat="45.16743810906911" lon="7.000528780682258"><ele>1124.0</ele><time>2026-04-19T14:53:11.999Z</time></trkpt><trkpt lat="45.167712735752865" lon="7.000624969107732"><ele>1147.0</ele><time>2026-04-19T14:53:12.999Z</time></trkpt><trkpt lat="45.16802492252376" lon="7.000724104051872"><ele>1136.5</ele><time>2026-04-19T14:53:13.999Z</time></trkpt><trkpt lat="45.168332383232794" lon="7.000866203000368"><ele>1126.0</ele><time>2026-04-19T14:53:14.999Z</time></trkpt><trkpt lat="45.16862731422771" lon="7.000994563873256"><ele>1126.0</ele><time>2026-04-19T14:53:15.999Z</time></trkpt><trkpt lat="45.16891578979825" lon="7.001103338700298"><ele>1126.0</ele><time>2026-04-19T14:53:16.999Z</time></trkpt><trkpt lat="45.169205683929626" lon="7.001211853592123"><ele>1146.0</ele><time>2026-04-19T14:53:17.999Z</time></trkpt><trkpt lat="45.16949555266006" lon="7.001323993139872"><ele>1166.0</ele><time>2026-04-19T14:53:18.999Z</time></trkpt><trkpt lat="45.169757851368615" lon="7.001439497628113"><ele>1196.5</ele><time>2026-04-19T14:53:19.999Z</time></trkpt><trkpt lat="45.16999342909513" lon="7.001541163737345"><ele>1227.0</ele><time>2026-04-19T14:53:20.999Z</time></trkpt><trkpt lat="45.17020583959136" lon="7.0016481270196085"><ele>1199.0</ele><time>2026-04-19T14:53:21.999Z</time></trkpt><trkpt lat="45.170379347376304" lon="7.001823920183703"><ele>1171.0</ele><time>2026-04-19T14:53:22.999Z</time></trkpt><trkpt lat="45.170518683369146" lon="7.002055873032323"><ele>1143.0</ele><time>2026-04-19T14:53:23.999Z</time></trkpt><trkpt lat="45.170663101200724" lon="7.002252600544859"><ele>1141.0</ele><time>2026-04-19T14:53:24.999Z</time></trkpt><trkpt lat="45.17079826177336" lon="7.002425923294899"><ele>1139.0</ele><time>2026-04-19T14:53:25.999Z</time></trkpt><trkpt lat="45.171001038017664" lon="7.002523638330772"><ele>1137.0</ele><time>2026-04-19T14:53:26.999Z</time></trkpt><trkpt lat="45.17125502978439" lon="7.0025782886584995"><ele>1153.5</ele><time>2026-04-19T14:53:27.999Z</time></trkpt><trkpt lat="45.171525826168555" lon="7.002696792500814"><ele>1170.0</ele><time>2026-04-19T14:53:28.999Z</time></trkpt><trkpt lat="45.1718098371935" lon="7.002837819882119"><ele>1170.0</ele><time>2026-04-19T14:53:29.999Z</time></trkpt><trkpt lat="45.17211389864149" lon="7.0029864408968985"><ele>1170.0</ele><time>2026-04-19T14:53:30.999Z</time></trkpt><trkpt lat="45.17241957578257" lon="7.00313392110246"><ele>1175.0</ele><time>2026-04-19T14:53:31.999Z</time></trkpt><trkpt lat="45.17267269470029" lon="7.003254451070832"><ele>1180.0</ele><time>2026-04-19T14:53:32.999Z</time></trkpt><trkpt lat="45.172864555361" lon="7.0033554740026585"><ele>1182.3333333333333</ele><time>2026-04-19T14:53:33.999Z</time></trkpt><trkpt lat="45.173037490717" lon="7.00342723171403"><ele>1184.6666666666667</ele><time>2026-04-19T14:53:34.999Z</time></trkpt><trkpt lat="45.17320160108292" lon="7.003410632724043"><ele>1187.0</ele><time>2026-04-19T14:53:35.999Z</time></trkpt><trkpt lat="45.17337738406631" lon="7.003298730925511"><ele>1187.0</ele><time>2026-04-19T14:53:36.999Z</time></trkpt><trkpt lat="45.17355581473288" lon="7.0030582659919585"><ele>1187.0</ele><time>2026-04-19T14:53:37.999Z</time></trkpt><trkpt lat="45.17373065223373" lon="7.002734430830144"><ele>1189.0</ele><time>2026-04-19T14:53:38.999Z</time></trkpt><trkpt lat="45.17392318407407" lon="7.002414708119153"><ele>1191.0</ele><time>2026-04-19T14:53:39.999Z</time></trkpt><trkpt lat="45.17410276610733" lon="7.002132895848115"><ele>1191.0</ele><time>2026-04-19T14:53:40.999Z</time></trkpt><trkpt lat="45.17424386886048" lon="7.001866476824256"><ele>1191.0</ele><time>2026-04-19T14:53:41.999Z</time></trkpt><trkpt lat="45.174343108869586" lon="7.001551313137665"><ele>1198.5</ele><time>2026-04-19T14:53:42.999Z</time></trkpt><trkpt lat="45.17442163406466" lon="7.001213889811718"><ele>1206.0</ele><time>2026-04-19T14:53:43.999Z</time></trkpt><trkpt lat="45.17453142964509" lon="7.000961072177323"><ele>1207.6666666666667</ele><time>2026-04-19T14:53:44.999Z</time></trkpt><trkpt lat="45.17469481637843" lon="7.000762027488889"><ele>1209.3333333333335</ele><time>2026-04-19T14:53:45.999Z</time></trkpt><trkpt lat="45.174866797953925" lon="7.000646057280049"><ele>1211.0</ele><time>2026-04-19T14:53:46.999Z</time></trkpt><trkpt lat="45.17499839256461" lon="7.000572510204084"><ele>1211.0</ele><time>2026-04-19T14:53:47.999Z</time></trkpt><trkpt lat="45.17508952727094" lon="7.000502135895733"><ele>1211.0</ele><time>2026-04-19T14:53:48.999Z</time></trkpt><trkpt lat="45.17513275222868" lon="7.000419555994055"><ele>1211.0</ele><time>2026-04-19T14:53:49.999Z</time></trkpt><trkpt lat="45.17511173293861" lon="7.0002791755990765"><ele>1211.0</ele><time>2026-04-19T14:53:50.999Z</time></trkpt><trkpt lat="45.175023587492156" lon="7.0001576448851885"><ele>1211.0</ele><time>2026-04-19T14:53:51.999Z</time></trkpt><trkpt lat="45.17489118904654" lon="7.000156088664402"><ele>1218.0</ele><time>2026-04-19T14:53:52.999Z</time></trkpt><trkpt lat="45.174741940120846" lon="7.000239182830689"><ele>1225.0</ele><time>2026-04-19T14:53:53.999Z</time></trkpt><trkpt lat="45.17460407434333" lon="7.000392574255242"><ele>1232.0</ele><time>2026-04-19T14:53:54.999Z</time></trkpt><trkpt lat="45.17445443430014" lon="7.000581527875688"><ele>1232.0</ele><time>2026-04-19T14:53:55.999Z</time></trkpt><trkpt lat="45.17429006900056" lon="7.000800640854151"><ele>1232.0</ele><time>2026-04-19T14:53:56.999Z</time></trkpt><trkpt lat="45.17410721832687" lon="7.000963844550908"><ele>1232.0</ele><time>2026-04-19T14:53:57.999Z</time></trkpt><trkpt lat="45.17390759746003" lon="7.001140532427928"><ele>1228.0</ele><time>2026-04-19T14:53:58.999Z</time></trkpt><trkpt lat="45.173683988885934" lon="7.001236864626224"><ele>1224.0</ele><time>2026-04-19T14:53:59.999Z</time></trkpt><trkpt lat="45.17346245619452" lon="7.001332086453169"><ele>1224.0</ele><time>2026-04-19T14:54:00.999Z</time></trkpt><trkpt lat="45.1732918825869" lon="7.001383036669349"><ele>1224.0</ele><time>2026-04-19T14:54:01.999Z</time></trkpt><trkpt lat="45.17313516923541" lon="7.001358523769997"><ele>1224.0</ele><time>2026-04-19T14:54:02.999Z</time></trkpt><trkpt lat="45.17294017407088" lon="7.001269672780026"><ele>1226.5</ele><time>2026-04-19T14:54:03.999Z</time></trkpt><trkpt lat="45.17269519891757" lon="7.001163738718276"><ele>1229.0</ele><time>2026-04-19T14:54:04.999Z</time></trkpt><trkpt lat="45.17245843568327" lon="7.001071834579245"><ele>1234.0</ele><time>2026-04-19T14:54:05.999Z</time></trkpt><trkpt lat="45.17220131891072" lon="7.001058048680438"><ele>1239.0</ele><time>2026-04-19T14:54:06.999Z</time></trkpt><trkpt lat="45.17196252684996" lon="7.001090522007273"><ele>1239.0</ele><time>2026-04-19T14:54:07.999Z</time></trkpt><trkpt lat="45.17177661483179" lon="7.001106498917339"><ele>1239.0</ele><time>2026-04-19T14:54:08.999Z</time></trkpt><trkpt lat="45.17166612805077" lon="7.001116371161478"><ele>1239.0</ele><time>2026-04-19T14:54:09.999Z</time></trkpt><trkpt lat="45.1716147201052" lon="7.001060715902866"><ele>1239.0</ele><time>2026-04-19T14:54:11.999Z</time></trkpt><trkpt lat="45.17165787402529" lon="7.000946659390118"><ele>1239.0</ele><time>2026-04-19T14:54:12.999Z</time></trkpt><trkpt lat="45.171791132072826" lon="7.00090806651919"><ele>1239.0</ele><time>2026-04-19T14:54:13.999Z</time></trkpt><trkpt lat="45.17194596766104" lon="7.000863325313496"><ele>1239.0</ele><time>2026-04-19T14:54:14.999Z</time></trkpt><trkpt lat="45.17211622451435" lon="7.0007770868504196"><ele>1244.0</ele><time>2026-04-19T14:54:15.999Z</time></trkpt><trkpt lat="45.17231208480262" lon="7.000678255441368"><ele>1249.0</ele><time>2026-04-19T14:54:16.999Z</time></trkpt><trkpt lat="45.17253893852887" lon="7.000579586948392"><ele>1254.0</ele><time>2026-04-19T14:54:17.999Z</time></trkpt><trkpt lat="45.172787877288286" lon="7.000461852592034"><ele>1254.0</ele><time>2026-04-19T14:54:18.999Z</time></trkpt><trkpt lat="45.17305343282723" lon="7.00033429052174"><ele>1254.0</ele><time>2026-04-19T14:54:19.999Z</time></trkpt><trkpt lat="45.173323475492225" lon="7.00020652519453"><ele>1251.0</ele><time>2026-04-19T14:54:20.999Z</time></trkpt><trkpt lat="45.173569295020684" lon="7.000068051494155"><ele>1248.0</ele><time>2026-04-19T14:54:21.999Z</time></trkpt><trkpt lat="45.173781750533365" lon="6.999905395080886"><ele>1248.0</ele><time>2026-04-19T14:54:22.999Z</time></trkpt><trkpt lat="45.17396137818846" lon="6.999707483738023"><ele>1248.0</ele><time>2026-04-19T14:54:23.999Z</time></trkpt><trkpt lat="45.1740935686099" lon="6.999441737185416"><ele>1252.0</ele><time>2026-04-19T14:54:24.999Z</time></trkpt><trkpt lat="45.17421046485308" lon="6.999171327127612"><ele>1256.0</ele><time>2026-04-19T14:54:25.999Z</time></trkpt><trkpt lat="45.174353952283376" lon="6.9989044934932725"><ele>1256.0</ele><time>2026-04-19T14:54:26.999Z</time></trkpt><trkpt lat="45.17454390739855" lon="6.998711762196259"><ele>1256.0</ele><time>2026-04-19T14:54:27.999Z</time></trkpt><trkpt lat="45.17478046353646" lon="6.998454522788301"><ele>1258.0</ele><time>2026-04-19T14:54:28.999Z</time></trkpt><trkpt lat="45.17498476582171" lon="6.998179551806803"><ele>1260.0</ele><time>2026-04-19T14:54:29.999Z</time></trkpt><trkpt lat="45.17517292769846" lon="6.9979539319972615"><ele>1260.0</ele><time>2026-04-19T14:54:30.999Z</time></trkpt><trkpt lat="45.175339085617416" lon="6.997812555412659"><ele>1260.0</ele><time>2026-04-19T14:54:31.999Z</time></trkpt><trkpt lat="45.17547127905883" lon="6.997797211984305"><ele>1260.0</ele><time>2026-04-19T14:54:32.999Z</time></trkpt><trkpt lat="45.1756659619809" lon="6.997825419315036"><ele>1257.0</ele><time>2026-04-19T14:54:33.999Z</time></trkpt><trkpt lat="45.17582741514484" lon="6.997781094032277"><ele>1254.0</ele><time>2026-04-19T14:54:34.999Z</time></trkpt><trkpt lat="45.17596832298475" lon="6.997706312273704"><ele>1251.0</ele><time>2026-04-19T14:54:35.999Z</time></trkpt><trkpt lat="45.17609278341892" lon="6.997514467730331"><ele>1259.0</ele><time>2026-04-19T14:54:36.999Z</time></trkpt><trkpt lat="45.176191961685234" lon="6.997242576560035"><ele>1267.0</ele><time>2026-04-19T14:54:37.999Z</time></trkpt><trkpt lat="45.17633414542462" lon="6.997033814711332"><ele>1275.0</ele><time>2026-04-19T14:54:38.999Z</time></trkpt><trkpt lat="45.176502614886445" lon="6.996867642380334"><ele>1271.0</ele><time>2026-04-19T14:54:39.999Z</time></trkpt><trkpt lat="45.176721319395526" lon="6.996747784965508"><ele>1267.0</ele><time>2026-04-19T14:54:40.999Z</time></trkpt><trkpt lat="45.17696115393928" lon="6.996620415452146"><ele>1275.5</ele><time>2026-04-19T14:54:41.999Z</time></trkpt><trkpt lat="45.17720489301423" lon="6.996453007567642"><ele>1284.0</ele><time>2026-04-19T14:54:42.999Z</time></trkpt><trkpt lat="45.1774607698472" lon="6.996331941458198"><ele>1284.0</ele><time>2026-04-19T14:54:43.999Z</time></trkpt><trkpt lat="45.177735927185275" lon="6.996230213768159"><ele>1284.0</ele><time>2026-04-19T14:54:44.999Z</time></trkpt><trkpt lat="45.17800964474431" lon="6.996108126511097"><ele>1278.5</ele><time>2026-04-19T14:54:45.999Z</time></trkpt><trkpt lat="45.17826084506473" lon="6.995950531021082"><ele>1273.0</ele><time>2026-04-19T14:54:46.999Z</time></trkpt><trkpt lat="45.17850601226164" lon="6.995745512417438"><ele>1290.0</ele><time>2026-04-19T14:54:48Z</time></trkpt><trkpt lat="45.178710619910646" lon="6.9955109430522215"><ele>1307.0</ele><time>2026-04-19T14:54:49Z</time></trkpt><trkpt lat="45.1788904176127" lon="6.995337837546034"><ele>1303.6666666666667</ele><time>2026-04-19T14:54:50Z</time></trkpt><trkpt lat="45.17906736047246" lon="6.99532882259872"><ele>1300.3333333333333</ele><time>2026-04-19T14:54:51Z</time></trkpt><trkpt lat="45.17923047501445" lon="6.995334210457962"><ele>1297.0</ele><time>2026-04-19T14:54:52Z</time></trkpt><trkpt lat="45.1793857219161" lon="6.995392798893076"><ele>1297.0</ele><time>2026-04-19T14:54:53Z</time></trkpt><trkpt lat="45.17953023960418" lon="6.995525680143913"><ele>1297.0</ele><time>2026-04-19T14:54:54Z</time></trkpt><trkpt lat="45.179705977795905" lon="6.995695952811519"><ele>1297.0</ele><time>2026-04-19T14:54:55Z</time></trkpt><trkpt lat="45.17990056475755" lon="6.995812648555882"><ele>1292.0</ele><time>2026-04-19T14:54:56Z</time></trkpt><trkpt lat="45.18010998928953" lon="6.995924752604042"><ele>1287.0</ele><time>2026-04-19T14:54:57Z</time></trkpt><trkpt lat="45.180314060821196" lon="6.995926418968554"><ele>1282.0</ele><time>2026-04-19T14:54:58Z</time></trkpt><trkpt lat="45.18045550921821" lon="6.995952190771227"><ele>1282.0</ele><time>2026-04-19T14:54:59Z</time></trkpt><trkpt lat="45.18062528561426" lon="6.995863146727755"><ele>1282.0</ele><time>2026-04-19T14:55:00Z</time></trkpt><trkpt lat="45.180784227884374" lon="6.995790906294289"><ele>1282.0</ele><time>2026-04-19T14:55:01Z</time></trkpt><trkpt lat="45.18090365844623" lon="6.995315570091638"><ele>1306.0</ele><time>2026-04-19T14:55:02Z</time></trkpt><trkpt lat="45.181041425285095" lon="6.994967512800636"><ele>1330.0</ele><time>2026-04-19T14:55:03Z</time></trkpt><trkpt lat="45.18117696073518" lon="6.994636617064329"><ele>1330.0</ele><time>2026-04-19T14:55:03.999Z</time></trkpt><trkpt lat="45.18131575233511" lon="6.994302563379143"><ele>1330.0</ele><time>2026-04-19T14:55:04.999Z</time></trkpt><trkpt lat="45.181420777168256" lon="6.99394196936039"><ele>1334.5</ele><time>2026-04-19T14:55:05.999Z</time></trkpt><trkpt lat="45.181493952193264" lon="6.993567731214121"><ele>1339.0</ele><time>2026-04-19T14:55:06.999Z</time></trkpt><trkpt lat="45.18158835922689" lon="6.99321841267919"><ele>1339.0</ele><time>2026-04-19T14:55:07.999Z</time></trkpt><trkpt lat="45.181674684588266" lon="6.992873634095798"><ele>1339.0</ele><time>2026-04-19T14:55:08.999Z</time></trkpt><trkpt lat="45.18175963852542" lon="6.992565852345833"><ele>1344.3333333333333</ele><time>2026-04-19T14:55:09.999Z</time></trkpt><trkpt lat="45.181840240191846" lon="6.992269533177515"><ele>1349.6666666666667</ele><time>2026-04-19T14:55:10.999Z</time></trkpt><trkpt lat="45.18193764435948" lon="6.991990581078145"><ele>1355.0</ele><time>2026-04-19T14:55:11.999Z</time></trkpt><trkpt lat="45.182040364249374" lon="6.991734308066725"><ele>1348.6666666666667</ele><time>2026-04-19T14:55:12.999Z</time></trkpt><trkpt lat="45.18216774499544" lon="6.99148685529628"><ele>1342.3333333333333</ele><time>2026-04-19T14:55:13.999Z</time></trkpt><trkpt lat="45.18229002410021" lon="6.9912448031988355"><ele>1336.0</ele><time>2026-04-19T14:55:14.999Z</time></trkpt><trkpt lat="45.182407806522356" lon="6.99099937528369"><ele>1345.0</ele><time>2026-04-19T14:55:15.999Z</time></trkpt><trkpt lat="45.1825188813337" lon="6.990747826388586"><ele>1354.0</ele><time>2026-04-19T14:55:16.999Z</time></trkpt><trkpt lat="45.18263032897211" lon="6.9904980450878025"><ele>1363.0</ele><time>2026-04-19T14:55:17.999Z</time></trkpt><trkpt lat="45.18274407635922" lon="6.990250501111688"><ele>1371.3333333333333</ele><time>2026-04-19T14:55:18.999Z</time></trkpt><trkpt lat="45.18286128491349" lon="6.990000393501889"><ele>1379.6666666666667</ele><time>2026-04-19T14:55:19.999Z</time></trkpt><trkpt lat="45.18298464073252" lon="6.989735751490619"><ele>1388.0</ele><time>2026-04-19T14:55:20.999Z</time></trkpt><trkpt lat="45.18310080512992" lon="6.989485950602347"><ele>1379.6666666666667</ele><time>2026-04-19T14:55:21.999Z</time></trkpt><trkpt lat="45.18320081241271" lon="6.989250858990618"><ele>1371.3333333333333</ele><time>2026-04-19T14:55:22.999Z</time></trkpt><trkpt lat="45.183259827186895" lon="6.989030518210173"><ele>1363.0</ele><time>2026-04-19T14:55:23.999Z</time></trkpt><trkpt lat="45.18327308185113" lon="6.988817653002136"><ele>1363.0</ele><time>2026-04-19T14:55:24.999Z</time></trkpt><trkpt lat="45.183232939801435" lon="6.988627140180656"><ele>1363.0</ele><time>2026-04-19T14:55:25.999Z</time></trkpt><trkpt lat="45.183141567749644" lon="6.988435289438958"><ele>1363.0</ele><time>2026-04-19T14:55:26.999Z</time></trkpt><trkpt lat="45.18307159926968" lon="6.988234389088309"><ele>1366.0</ele><time>2026-04-19T14:55:27.999Z</time></trkpt><trkpt lat="45.183051811897414" lon="6.988014429537052"><ele>1369.0</ele><time>2026-04-19T14:55:28.999Z</time></trkpt><trkpt lat="45.183070631651084" lon="6.98784235412491"><ele>1372.0</ele><time>2026-04-19T14:55:29.999Z</time></trkpt><trkpt lat="45.18311329173825" lon="6.987703209740693"><ele>1375.0</ele><time>2026-04-19T14:55:30.999Z</time></trkpt><trkpt lat="45.18321414822574" lon="6.987613766036191"><ele>1375.0</ele><time>2026-04-19T14:55:31.999Z</time></trkpt><trkpt lat="45.18335074367958" lon="6.987610638313"><ele>1375.0</ele><time>2026-04-19T14:55:32.999Z</time></trkpt><trkpt lat="45.183487058686474" lon="6.987670556419502"><ele>1375.0</ele><time>2026-04-19T14:55:33.999Z</time></trkpt><trkpt lat="45.1836301382586" lon="6.987700036702691"><ele>1375.0</ele><time>2026-04-19T14:55:34.999Z</time></trkpt><trkpt lat="45.18375015656023" lon="6.987625937378804"><ele>1375.0</ele><time>2026-04-19T14:55:35.999Z</time></trkpt><trkpt lat="45.18386085140514" lon="6.987534776120037"><ele>1375.0</ele><time>2026-04-19T14:55:36.999Z</time></trkpt><trkpt lat="45.18398333207615" lon="6.9872091985739635"><ele>1375.0</ele><time>2026-04-19T14:55:37.999Z</time></trkpt><trkpt lat="45.18409574362708" lon="6.9869182085571"><ele>1386.5</ele><time>2026-04-19T14:55:38.999Z</time></trkpt><trkpt lat="45.18420502788216" lon="6.986675222880372"><ele>1398.0</ele><time>2026-04-19T14:55:39.999Z</time></trkpt><trkpt lat="45.18435666175101" lon="6.9863923995509785"><ele>1398.0</ele><time>2026-04-19T14:55:40.999Z</time></trkpt><trkpt lat="45.1845072779575" lon="6.98609078860116"><ele>1398.0</ele><time>2026-04-19T14:55:41.999Z</time></trkpt><trkpt lat="45.184606320829026" lon="6.985836160205775"><ele>1404.3333333333333</ele><time>2026-04-19T14:55:42.999Z</time></trkpt><trkpt lat="45.184685073076466" lon="6.9855649545147935"><ele>1410.6666666666665</ele><time>2026-04-19T14:55:43.999Z</time></trkpt><trkpt lat="45.184721675285175" lon="6.985252962695941"><ele>1417.0</ele><time>2026-04-19T14:55:44.999Z</time></trkpt><trkpt lat="45.184716627730054" lon="6.984915647217666"><ele>1420.0</ele><time>2026-04-19T14:55:45.999Z</time></trkpt><trkpt lat="45.184739482711755" lon="6.9845782817357795"><ele>1423.0</ele><time>2026-04-19T14:55:46.999Z</time></trkpt><trkpt lat="45.184858386054586" lon="6.984292601331414"><ele>1415.0</ele><time>2026-04-19T14:55:47.999Z</time></trkpt><trkpt lat="45.18497447914466" lon="6.983995089374304"><ele>1407.0</ele><time>2026-04-19T14:55:48.999Z</time></trkpt><trkpt lat="45.18505569475894" lon="6.983677207864939"><ele>1411.5</ele><time>2026-04-19T14:55:49.999Z</time></trkpt><trkpt lat="45.185063204572074" lon="6.983311900823255"><ele>1416.0</ele><time>2026-04-19T14:55:50.999Z</time></trkpt><trkpt lat="45.18504591274996" lon="6.982919302012473"><ele>1416.0</ele><time>2026-04-19T14:55:51.999Z</time></trkpt><trkpt lat="45.18507045332057" lon="6.982525773463605"><ele>1416.0</ele><time>2026-04-19T14:55:52.999Z</time></trkpt><trkpt lat="45.185124138971325" lon="6.982169934524341"><ele>1421.0</ele><time>2026-04-19T14:55:53.999Z</time></trkpt><trkpt lat="45.18520331186161" lon="6.9818336562752235"><ele>1426.0</ele><time>2026-04-19T14:55:54.999Z</time></trkpt><trkpt lat="45.185277113864" lon="6.981504538305017"><ele>1431.0</ele><time>2026-04-19T14:55:55.999Z</time></trkpt><trkpt lat="45.1853518307597" lon="6.981211886907234"><ele>1436.0</ele><time>2026-04-19T14:55:56.999Z</time></trkpt><trkpt lat="45.1854230123071" lon="6.981002956280959"><ele>1441.0</ele><time>2026-04-19T14:55:57.999Z</time></trkpt><trkpt lat="45.185527978351274" lon="6.980843925792553"><ele>1437.3333333333333</ele><time>2026-04-19T14:55:58.999Z</time></trkpt><trkpt lat="45.18569551081787" lon="6.980689479467056"><ele>1433.6666666666667</ele><time>2026-04-19T14:55:59.999Z</time></trkpt><trkpt lat="45.185894438509955" lon="6.980523663308779"><ele>1430.0</ele><time>2026-04-19T14:56:00.999Z</time></trkpt><trkpt lat="45.18607650339563" lon="6.98038167139221"><ele>1430.0</ele><time>2026-04-19T14:56:01.999Z</time></trkpt><trkpt lat="45.18622928322981" lon="6.980194795789068"><ele>1430.0</ele><time>2026-04-19T14:56:02.999Z</time></trkpt><trkpt lat="45.18634409536397" lon="6.979924044560716"><ele>1430.0</ele><time>2026-04-19T14:56:03.999Z</time></trkpt><trkpt lat="45.186418380750126" lon="6.979574040798661"><ele>1429.5</ele><time>2026-04-19T14:56:04.999Z</time></trkpt><trkpt lat="45.18652050019681" lon="6.979212476737285"><ele>1429.0</ele><time>2026-04-19T14:56:05.999Z</time></trkpt><trkpt lat="45.18664267561631" lon="6.9788577576477016"><ele>1436.0</ele><time>2026-04-19T14:56:06.999Z</time></trkpt><trkpt lat="45.18675674740788" lon="6.9785473045956925"><ele>1443.0</ele><time>2026-04-19T14:56:07.999Z</time></trkpt><trkpt lat="45.186853479974594" lon="6.978293471966379"><ele>1446.0</ele><time>2026-04-19T14:56:08.999Z</time></trkpt><trkpt lat="45.18693087953649" lon="6.978102473392313"><ele>1449.0</ele><time>2026-04-19T14:56:09.999Z</time></trkpt><trkpt lat="45.187003147296046" lon="6.977951043656874"><ele>1452.0</ele><time>2026-04-19T14:56:10.999Z</time></trkpt><trkpt lat="45.18710556817438" lon="6.9778700996531695"><ele>1455.0</ele><time>2026-04-19T14:56:11.999Z</time></trkpt><trkpt lat="45.187247176651404" lon="6.977884567250622"><ele>1455.3333333333333</ele><time>2026-04-19T14:56:12.999Z</time></trkpt><trkpt lat="45.187391372861995" lon="6.977996670452107"><ele>1455.6666666666665</ele><time>2026-04-19T14:56:13.999Z</time></trkpt><trkpt lat="45.18749885310518" lon="6.978222276635821"><ele>1456.0</ele><time>2026-04-19T14:56:14.999Z</time></trkpt><trkpt lat="45.1876435731325" lon="6.978459550456359"><ele>1455.6666666666665</ele><time>2026-04-19T14:56:15.999Z</time></trkpt><trkpt lat="45.18779498139084" lon="6.978651874191866"><ele>1455.3333333333333</ele><time>2026-04-19T14:56:16.999Z</time></trkpt><trkpt lat="45.18801452822283" lon="6.9787613160076"><ele>1455.0</ele><time>2026-04-19T14:56:17.999Z</time></trkpt><trkpt lat="45.18825375067502" lon="6.978830054465041"><ele>1455.0</ele><time>2026-04-19T14:56:18.999Z</time></trkpt><trkpt lat="45.18842763308926" lon="6.978901378450419"><ele>1455.0</ele><time>2026-04-19T14:56:19.999Z</time></trkpt><trkpt lat="45.188562767544724" lon="6.9789646804259915"><ele>1455.0</ele><time>2026-04-19T14:56:20.999Z</time></trkpt><trkpt lat="45.188661510402255" lon="6.9789818560324"><ele>1455.0</ele><time>2026-04-19T14:56:21.999Z</time></trkpt><trkpt lat="45.188741976004444" lon="6.978899206378875"><ele>1455.0</ele><time>2026-04-19T14:56:22.999Z</time></trkpt><trkpt lat="45.18883878312848" lon="6.978690865489624"><ele>1455.0</ele><time>2026-04-19T14:56:24Z</time></trkpt><trkpt lat="45.18892400771024" lon="6.978449614366594"><ele>1455.0</ele><time>2026-04-19T14:56:25Z</time></trkpt><trkpt lat="45.18894914789373" lon="6.978218039370658"><ele>1460.0</ele><time>2026-04-19T14:56:26Z</time></trkpt><trkpt lat="45.18893983609586" lon="6.978044203134096"><ele>1465.0</ele><time>2026-04-19T14:56:27Z</time></trkpt><trkpt lat="45.188898375902866" lon="6.977872470874827"><ele>1470.0</ele><time>2026-04-19T14:56:28Z</time></trkpt><trkpt lat="45.18889734839213" lon="6.977696919407622"><ele>1475.0</ele><time>2026-04-19T14:56:29Z</time></trkpt><trkpt lat="45.188855725067235" lon="6.9775483024505505"><ele>1475.0</ele><time>2026-04-19T14:56:30Z</time></trkpt><trkpt lat="45.188949111875324" lon="6.977502229593599"><ele>1475.0</ele><time>2026-04-19T14:56:31Z</time></trkpt><trkpt lat="45.18906059542923" lon="6.97755408487757"><ele>1475.0</ele><time>2026-04-19T14:56:32Z</time></trkpt><trkpt lat="45.18913986490076" lon="6.977516176794504"><ele>1475.0</ele><time>2026-04-19T14:56:33Z</time></trkpt><trkpt lat="45.18945316968882" lon="6.977934486867059"><ele>1475.0</ele><time>2026-04-19T14:56:35Z</time></trkpt><trkpt lat="45.18961983528673" lon="6.978130845660016"><ele>1475.0</ele><time>2026-04-19T14:56:36Z</time></trkpt><trkpt lat="45.18980309914346" lon="6.97834126817437"><ele>1476.0</ele><time>2026-04-19T14:56:37Z</time></trkpt><trkpt lat="45.189942301557274" lon="6.978526500286481"><ele>1477.0</ele><time>2026-04-19T14:56:38Z</time></trkpt><trkpt lat="45.19004998290061" lon="6.978704607268275"><ele>1478.0</ele><time>2026-04-19T14:56:39Z</time></trkpt><trkpt lat="45.190123629808184" lon="6.978949834556432"><ele>1478.0</ele><time>2026-04-19T14:56:40Z</time></trkpt><trkpt lat="45.190171225002636" lon="6.97922505221158"><ele>1478.0</ele><time>2026-04-19T14:56:41Z</time></trkpt><trkpt lat="45.19022909540689" lon="6.979530598358857"><ele>1478.0</ele><time>2026-04-19T14:56:42Z</time></trkpt><trkpt lat="45.190267111694624" lon="6.97982734352143"><ele>1477.3333333333335</ele><time>2026-04-19T14:56:43Z</time></trkpt><trkpt lat="45.190266087220415" lon="6.980123694468702"><ele>1476.6666666666667</ele><time>2026-04-19T14:56:44Z</time></trkpt><trkpt lat="45.190235243194465" lon="6.980434089955531"><ele>1476.0</ele><time>2026-04-19T14:56:45Z</time></trkpt><trkpt lat="45.19020834098702" lon="6.980731533568732"><ele>1471.5</ele><time>2026-04-19T14:56:46Z</time></trkpt><trkpt lat="45.19023036803466" lon="6.981030281908295"><ele>1467.0</ele><time>2026-04-19T14:56:47Z</time></trkpt><trkpt lat="45.190362051041056" lon="6.9813350754400725"><ele>1467.0</ele><time>2026-04-19T14:56:48Z</time></trkpt><trkpt lat="45.19049070852564" lon="6.981617220085943"><ele>1467.0</ele><time>2026-04-19T14:56:49Z</time></trkpt><trkpt lat="45.19060000278039" lon="6.981941950293739"><ele>1482.5</ele><time>2026-04-19T14:56:50Z</time></trkpt><trkpt lat="45.190694534135666" lon="6.9822795972146094"><ele>1498.0</ele><time>2026-04-19T14:56:51Z</time></trkpt><trkpt lat="45.190799822657524" lon="6.982601386685737"><ele>1498.0</ele><time>2026-04-19T14:56:52Z</time></trkpt><trkpt lat="45.19090381423895" lon="6.982910382010908"><ele>1498.0</ele><time>2026-04-19T14:56:53Z</time></trkpt><trkpt lat="45.1909698696852" lon="6.983235942801285"><ele>1492.5</ele><time>2026-04-19T14:56:54Z</time></trkpt><trkpt lat="45.1910048183693" lon="6.983569195200603"><ele>1487.0</ele><time>2026-04-19T14:56:54.999Z</time></trkpt><trkpt lat="45.19107866546022" lon="6.983881007995752"><ele>1487.0</ele><time>2026-04-19T14:56:55.999Z</time></trkpt><trkpt lat="45.19121417925577" lon="6.984090856124624"><ele>1487.0</ele><time>2026-04-19T14:56:56.999Z</time></trkpt><trkpt lat="45.19140327987448" lon="6.98428210859917"><ele>1487.0</ele><time>2026-04-19T14:56:57.999Z</time></trkpt><trkpt lat="45.191566828278084" lon="6.984488045385344"><ele>1494.0</ele><time>2026-04-19T14:56:58.999Z</time></trkpt><trkpt lat="45.19167490891808" lon="6.984761846703023"><ele>1501.0</ele><time>2026-04-19T14:56:59.999Z</time></trkpt><trkpt lat="45.19180101915565" lon="6.9850154161552"><ele>1508.0</ele><time>2026-04-19T14:57:00.999Z</time></trkpt><trkpt lat="45.192035734735875" lon="6.985178688914224"><ele>1508.0</ele><time>2026-04-19T14:57:01.999Z</time></trkpt><trkpt lat="45.19218882864188" lon="6.985423164471112"><ele>1508.0</ele><time>2026-04-19T14:57:02.999Z</time></trkpt><trkpt lat="45.192317189689305" lon="6.985598303765611"><ele>1508.0</ele><time>2026-04-19T14:57:03.999Z</time></trkpt><trkpt lat="45.192494564942166" lon="6.985648350307777"><ele>1513.6666666666667</ele><time>2026-04-19T14:57:04.999Z</time></trkpt><trkpt lat="45.19271244408971" lon="6.98564489039009"><ele>1519.3333333333333</ele><time>2026-04-19T14:57:05.999Z</time></trkpt><trkpt lat="45.192923377926505" lon="6.9855446479940415"><ele>1525.0</ele><time>2026-04-19T14:57:06.999Z</time></trkpt><trkpt lat="45.19310790723244" lon="6.985389526945097"><ele>1526.3333333333333</ele><time>2026-04-19T14:57:07.999Z</time></trkpt><trkpt lat="45.19327618125693" lon="6.985294971482154"><ele>1527.6666666666667</ele><time>2026-04-19T14:57:08.999Z</time></trkpt><trkpt lat="45.19346580970702" lon="6.985321972648536"><ele>1529.0</ele><time>2026-04-19T14:57:09.999Z</time></trkpt><trkpt lat="45.19368086284019" lon="6.985345736603144"><ele>1529.0</ele><time>2026-04-19T14:57:10.999Z</time></trkpt><trkpt lat="45.19388400955857" lon="6.9853896007700795"><ele>1529.0</ele><time>2026-04-19T14:57:11.999Z</time></trkpt><trkpt lat="45.19404482749307" lon="6.985313170331755"><ele>1529.0</ele><time>2026-04-19T14:57:12.999Z</time></trkpt><trkpt lat="45.194178012817034" lon="6.985119570182964"><ele>1535.0</ele><time>2026-04-19T14:57:13.999Z</time></trkpt><trkpt lat="45.19431239922634" lon="6.984929718962811"><ele>1541.0</ele><time>2026-04-19T14:57:14.999Z</time></trkpt><trkpt lat="45.1944841123659" lon="6.984906011306633"><ele>1547.0</ele><time>2026-04-19T14:57:15.999Z</time></trkpt><trkpt lat="45.1946629246998" lon="6.984941720785148"><ele>1548.0</ele><time>2026-04-19T14:57:16.999Z</time></trkpt><trkpt lat="45.19484966239646" lon="6.985020233150806"><ele>1549.0</ele><time>2026-04-19T14:57:17.999Z</time></trkpt><trkpt lat="45.195050794537416" lon="6.984996506136055"><ele>1550.0</ele><time>2026-04-19T14:57:18.999Z</time></trkpt><trkpt lat="45.195247386039405" lon="6.984864127703375"><ele>1550.0</ele><time>2026-04-19T14:57:19.999Z</time></trkpt><trkpt lat="45.19544157849436" lon="6.984700197887188"><ele>1550.0</ele><time>2026-04-19T14:57:20.999Z</time></trkpt><trkpt lat="45.19562578931438" lon="6.9845706252021165"><ele>1550.0</ele><time>2026-04-19T14:57:21.999Z</time></trkpt><trkpt lat="45.19578188989242" lon="6.984396497781474"><ele>1554.6666666666665</ele><time>2026-04-19T14:57:22.999Z</time></trkpt><trkpt lat="45.195923985660876" lon="6.984166876364122"><ele>1559.3333333333335</ele><time>2026-04-19T14:57:23.999Z</time></trkpt><trkpt lat="45.196081507376455" lon="6.984001689452581"><ele>1564.0</ele><time>2026-04-19T14:57:24.999Z</time></trkpt><trkpt lat="45.1962758030519" lon="6.983967920319272"><ele>1564.0</ele><time>2026-04-19T14:57:25.999Z</time></trkpt><trkpt lat="45.196465196180306" lon="6.983913214818781"><ele>1564.0</ele><time>2026-04-19T14:57:26.999Z</time></trkpt><trkpt lat="45.1966253570648" lon="6.9838152603355"><ele>1564.0</ele><time>2026-04-19T14:57:27.999Z</time></trkpt><trkpt lat="45.19675345020941" lon="6.983609373115384"><ele>1570.0</ele><time>2026-04-19T14:57:28.999Z</time></trkpt><trkpt lat="45.19686005894896" lon="6.983308410147466"><ele>1576.0</ele><time>2026-04-19T14:57:29.999Z</time></trkpt><trkpt lat="45.196977147714186" lon="6.983007160991799"><ele>1576.0</ele><time>2026-04-19T14:57:30.999Z</time></trkpt><trkpt lat="45.19708284708452" lon="6.982746022107677"><ele>1576.0</ele><time>2026-04-19T14:57:31.999Z</time></trkpt><trkpt lat="45.19713473106699" lon="6.9825027919363585"><ele>1576.0</ele><time>2026-04-19T14:57:32.999Z</time></trkpt><trkpt lat="45.19712485546379" lon="6.982231147477836"><ele>1581.3333333333335</ele><time>2026-04-19T14:57:33.999Z</time></trkpt><trkpt lat="45.19704984482435" lon="6.981932818698444"><ele>1586.6666666666665</ele><time>2026-04-19T14:57:34.999Z</time></trkpt><trkpt lat="45.197000803518165" lon="6.981634611521129"><ele>1592.0</ele><time>2026-04-19T14:57:35.999Z</time></trkpt><trkpt lat="45.19701636572876" lon="6.981343340275945"><ele>1597.0</ele><time>2026-04-19T14:57:36.999Z</time></trkpt><trkpt lat="45.19703151293165" lon="6.98106529669153"><ele>1602.0</ele><time>2026-04-19T14:57:37.999Z</time></trkpt><trkpt lat="45.19705552921803" lon="6.980806334049865"><ele>1607.0</ele><time>2026-04-19T14:57:38.999Z</time></trkpt><trkpt lat="45.197113429477184" lon="6.980559907133399"><ele>1611.0</ele><time>2026-04-19T14:57:39.999Z</time></trkpt><trkpt lat="45.19721092369171" lon="6.9803380719570995"><ele>1615.0</ele><time>2026-04-19T14:57:40.999Z</time></trkpt><trkpt lat="45.19733513710583" lon="6.980171727333203"><ele>1619.0</ele><time>2026-04-19T14:57:41.999Z</time></trkpt><trkpt lat="45.19748397131363" lon="6.9800731238565294"><ele>1613.3333333333333</ele><time>2026-04-19T14:57:42.999Z</time></trkpt><trkpt lat="45.197664943227814" lon="6.979993090475559"><ele>1607.6666666666665</ele><time>2026-04-19T14:57:43.999Z</time></trkpt><trkpt lat="45.19784662990088" lon="6.9799635070162305"><ele>1602.0</ele><time>2026-04-19T14:57:44.999Z</time></trkpt><trkpt lat="45.19801356648067" lon="6.979891032587409"><ele>1602.0</ele><time>2026-04-19T14:57:45.999Z</time></trkpt><trkpt lat="45.19814656841568" lon="6.979737534838894"><ele>1602.0</ele><time>2026-04-19T14:57:46.999Z</time></trkpt><trkpt lat="45.198230320067076" lon="6.979490047752838"><ele>1602.0</ele><time>2026-04-19T14:57:47.999Z</time></trkpt><trkpt lat="45.19829606029319" lon="6.979213238897528"><ele>1603.6666666666665</ele><time>2026-04-19T14:57:48.999Z</time></trkpt><trkpt lat="45.198336173299744" lon="6.978980733148079"><ele>1605.3333333333333</ele><time>2026-04-19T14:57:49.999Z</time></trkpt><trkpt lat="45.1983634567817" lon="6.978768743676315"><ele>1607.0</ele><time>2026-04-19T14:57:50.999Z</time></trkpt><trkpt lat="45.19839656618095" lon="6.978570816318837"><ele>1607.0</ele><time>2026-04-19T14:57:51.999Z</time></trkpt><trkpt lat="45.198447571495784" lon="6.97838565122002"><ele>1607.0</ele><time>2026-04-19T14:57:52.999Z</time></trkpt><trkpt lat="45.19853492680038" lon="6.978231118758421"><ele>1607.0</ele><time>2026-04-19T14:57:53.999Z</time></trkpt><trkpt lat="45.19864644429741" lon="6.978120383058697"><ele>1607.0</ele><time>2026-04-19T14:57:54.999Z</time></trkpt><trkpt lat="45.1987600110593" lon="6.97805843054906"><ele>1606.1999999999998</ele><time>2026-04-19T14:57:55.999Z</time></trkpt><trkpt lat="45.198851295115325" lon="6.977996101434553"><ele>1605.4</ele><time>2026-04-19T14:57:56.999Z</time></trkpt><trkpt lat="45.19893617917203" lon="6.977897399438335"><ele>1604.6</ele><time>2026-04-19T14:57:57.999Z</time></trkpt><trkpt lat="45.19901255438882" lon="6.977776432646975"><ele>1603.8000000000002</ele><time>2026-04-19T14:57:58.999Z</time></trkpt><trkpt lat="45.199086230256945" lon="6.9776497178410715"><ele>1603.0</ele><time>2026-04-19T14:57:59.999Z</time></trkpt><trkpt lat="45.19915740327949" lon="6.977512102307808"><ele>1608.3333333333335</ele><time>2026-04-19T14:58:00.999Z</time></trkpt><trkpt lat="45.1992265626805" lon="6.977342918864453"><ele>1613.6666666666665</ele><time>2026-04-19T14:58:01.999Z</time></trkpt><trkpt lat="45.199286716087464" lon="6.977101886992491"><ele>1619.0</ele><time>2026-04-19T14:58:02.999Z</time></trkpt><trkpt lat="45.199355994085366" lon="6.9768277699324095"><ele>1628.0</ele><time>2026-04-19T14:58:03.999Z</time></trkpt><trkpt lat="45.199447781587445" lon="6.976536135446586"><ele>1637.0</ele><time>2026-04-19T14:58:04.999Z</time></trkpt><trkpt lat="45.199539274647805" lon="6.976218745279057"><ele>1637.0</ele><time>2026-04-19T14:58:05.999Z</time></trkpt><trkpt lat="45.199614689497146" lon="6.975893767680617"><ele>1637.0</ele><time>2026-04-19T14:58:06.999Z</time></trkpt><trkpt lat="45.19968778728315" lon="6.975592308617311"><ele>1641.6666666666665</ele><time>2026-04-19T14:58:07.999Z</time></trkpt><trkpt lat="45.19975682500139" lon="6.975316338146481"><ele>1646.3333333333335</ele><time>2026-04-19T14:58:08.999Z</time></trkpt><trkpt lat="45.19979550234325" lon="6.975027473358487"><ele>1651.0</ele><time>2026-04-19T14:58:09.999Z</time></trkpt><trkpt lat="45.19977812549237" lon="6.974718269179504"><ele>1656.3333333333335</ele><time>2026-04-19T14:58:10.999Z</time></trkpt><trkpt lat="45.199738081945334" lon="6.974419855072927"><ele>1661.6666666666665</ele><time>2026-04-19T14:58:11.999Z</time></trkpt><trkpt lat="45.19978330976547" lon="6.974136579328352"><ele>1667.0</ele><time>2026-04-19T14:58:12.999Z</time></trkpt><trkpt lat="45.19985428019139" lon="6.973828238150441"><ele>1657.0</ele><time>2026-04-19T14:58:13.999Z</time></trkpt><trkpt lat="45.19993446668326" lon="6.973496894889167"><ele>1647.0</ele><time>2026-04-19T14:58:14.999Z</time></trkpt><trkpt lat="45.200032236653016" lon="6.973153688445677"><ele>1647.0</ele><time>2026-04-19T14:58:15.999Z</time></trkpt><trkpt lat="45.20011999022762" lon="6.972805337476439"><ele>1647.0</ele><time>2026-04-19T14:58:16.999Z</time></trkpt><trkpt lat="45.200204318731096" lon="6.972474527446499"><ele>1652.0</ele><time>2026-04-19T14:58:17.999Z</time></trkpt><trkpt lat="45.200290691200095" lon="6.972177318793137"><ele>1657.0</ele><time>2026-04-19T14:58:18.999Z</time></trkpt><trkpt lat="45.20037450758971" lon="6.9719127026920225"><ele>1662.0</ele><time>2026-04-19T14:58:19.999Z</time></trkpt><trkpt lat="45.20046524981222" lon="6.9716754110804695"><ele>1656.0</ele><time>2026-04-19T14:58:20.999Z</time></trkpt><trkpt lat="45.20058230334472" lon="6.971446461980159"><ele>1650.0</ele><time>2026-04-19T14:58:21.999Z</time></trkpt><trkpt lat="45.200746221446344" lon="6.9712618177618975"><ele>1644.0</ele><time>2026-04-19T14:58:22.999Z</time></trkpt><trkpt lat="45.20090076388663" lon="6.971053992087761"><ele>1663.0</ele><time>2026-04-19T14:58:23.999Z</time></trkpt><trkpt lat="45.20107283610521" lon="6.970846199014169"><ele>1682.0</ele><time>2026-04-19T14:58:24.999Z</time></trkpt><trkpt lat="45.2012373833682" lon="6.970629611390525"><ele>1682.0</ele><time>2026-04-19T14:58:25.999Z</time></trkpt><trkpt lat="45.20140363598667" lon="6.970411521415945"><ele>1682.0</ele><time>2026-04-19T14:58:26.999Z</time></trkpt><trkpt lat="45.20156889403317" lon="6.970206617178721"><ele>1682.0</ele><time>2026-04-19T14:58:27.999Z</time></trkpt><trkpt lat="45.20173689683391" lon="6.970005180595676"><ele>1678.6666666666665</ele><time>2026-04-19T14:58:28.999Z</time></trkpt><trkpt lat="45.20189491154853" lon="6.969820644865176"><ele>1675.3333333333335</ele><time>2026-04-19T14:58:29.999Z</time></trkpt><trkpt lat="45.20204643817836" lon="6.969652248177237"><ele>1672.0</ele><time>2026-04-19T14:58:30.999Z</time></trkpt><trkpt lat="45.20218791869184" lon="6.969460754342297"><ele>1672.0</ele><time>2026-04-19T14:58:31.999Z</time></trkpt><trkpt lat="45.202303991945264" lon="6.969213176907566"><ele>1672.0</ele><time>2026-04-19T14:58:32.999Z</time></trkpt><trkpt lat="45.20238340306687" lon="6.968923755256747"><ele>1672.0</ele><time>2026-04-19T14:58:33.999Z</time></trkpt><trkpt lat="45.202459739899545" lon="6.968641393214213"><ele>1670.3333333333335</ele><time>2026-04-19T14:58:34.999Z</time></trkpt><trkpt lat="45.20255595590235" lon="6.968402898166379"><ele>1668.6666666666665</ele><time>2026-04-19T14:58:35.999Z</time></trkpt><trkpt lat="45.202669629461205" lon="6.968207572100575"><ele>1667.0</ele><time>2026-04-19T14:58:36.999Z</time></trkpt><trkpt lat="45.20281414452999" lon="6.968064540888664"><ele>1668.6666666666665</ele><time>2026-04-19T14:58:37.999Z</time></trkpt><trkpt lat="45.20298203967795" lon="6.967965867655151"><ele>1670.3333333333335</ele><time>2026-04-19T14:58:38.999Z</time></trkpt><trkpt lat="45.2031605235698" lon="6.967876491714856"><ele>1672.0</ele><time>2026-04-19T14:58:39.999Z</time></trkpt><trkpt lat="45.20333765796776" lon="6.967767697613642"><ele>1672.0</ele><time>2026-04-19T14:58:41Z</time></trkpt><trkpt lat="45.203508848091566" lon="6.9676520718239825"><ele>1672.0</ele><time>2026-04-19T14:58:42Z</time></trkpt><trkpt lat="45.20366225844863" lon="6.967543478192452"><ele>1672.0</ele><time>2026-04-19T14:58:43Z</time></trkpt><trkpt lat="45.20379061979919" lon="6.967431305055457"><ele>1673.3333333333335</ele><time>2026-04-19T14:58:44Z</time></trkpt><trkpt lat="45.203898162795866" lon="6.967284321041731"><ele>1674.6666666666665</ele><time>2026-04-19T14:58:45Z</time></trkpt><trkpt lat="45.2039715190666" lon="6.967075650600042"><ele>1676.0</ele><time>2026-04-19T14:58:46Z</time></trkpt><trkpt lat="45.20401887259183" lon="6.966823229689842"><ele>1681.0</ele><time>2026-04-19T14:58:46.999Z</time></trkpt><trkpt lat="45.204066034363834" lon="6.966561176697317"><ele>1686.0</ele><time>2026-04-19T14:58:47.999Z</time></trkpt><trkpt lat="45.20412495910247" lon="6.966299076188304"><ele>1691.0</ele><time>2026-04-19T14:58:48.999Z</time></trkpt><trkpt lat="45.204190435309776" lon="6.966037114429504"><ele>1696.6666666666665</ele><time>2026-04-19T14:58:49.999Z</time></trkpt><trkpt lat="45.20425781383172" lon="6.965772020746526"><ele>1702.3333333333335</ele><time>2026-04-19T14:58:50.999Z</time></trkpt><trkpt lat="45.20432214636192" lon="6.965502287120991"><ele>1708.0</ele><time>2026-04-19T14:58:51.999Z</time></trkpt><trkpt lat="45.204391455081826" lon="6.965234369191047"><ele>1713.6666666666667</ele><time>2026-04-19T14:58:52.999Z</time></trkpt><trkpt lat="45.20446364012727" lon="6.964973723472827"><ele>1719.3333333333335</ele><time>2026-04-19T14:58:53.999Z</time></trkpt><trkpt lat="45.20453411550486" lon="6.96471873684199"><ele>1725.0</ele><time>2026-04-19T14:58:54.999Z</time></trkpt><trkpt lat="45.204602969628716" lon="6.964473934939088"><ele>1725.0</ele><time>2026-04-19T14:58:55.999Z</time></trkpt><trkpt lat="45.2046726754774" lon="6.964241745838469"><ele>1725.0</ele><time>2026-04-19T14:58:56.999Z</time></trkpt><trkpt lat="45.2047422193686" lon="6.964021893243203"><ele>1725.0</ele><time>2026-04-19T14:58:57.999Z</time></trkpt><trkpt lat="45.20481546857521" lon="6.963836724528409"><ele>1723.25</ele><time>2026-04-19T14:58:58.999Z</time></trkpt><trkpt lat="45.204888210580954" lon="6.963676196108574"><ele>1721.5</ele><time>2026-04-19T14:58:59.999Z</time></trkpt><trkpt lat="45.20496154051" lon="6.963532395054976"><ele>1719.75</ele><time>2026-04-19T14:59:00.999Z</time></trkpt><trkpt lat="45.20503336146332" lon="6.963401861287569"><ele>1718.0</ele><time>2026-04-19T14:59:01.999Z</time></trkpt><trkpt lat="45.205114956698836" lon="6.963279712390532"><ele>1718.0</ele><time>2026-04-19T14:59:02.999Z</time></trkpt><trkpt lat="45.205206694789716" lon="6.9631646647630525"><ele>1718.0</ele><time>2026-04-19T14:59:03.999Z</time></trkpt><trkpt lat="45.20531164756521" lon="6.9630595960366355"><ele>1718.0</ele><time>2026-04-19T14:59:04.999Z</time></trkpt><trkpt lat="45.20542210545549" lon="6.9629685431449975"><ele>1718.0</ele><time>2026-04-19T14:59:05.999Z</time></trkpt><trkpt lat="45.205531184803796" lon="6.96288869325489"><ele>1717.9999999999998</ele><time>2026-04-19T14:59:06.999Z</time></trkpt><trkpt lat="45.20562748098894" lon="6.962811963105221"><ele>1718.0</ele><time>2026-04-19T14:59:07.999Z</time></trkpt><trkpt lat="45.20571443179424" lon="6.962745226117868"><ele>1718.0</ele><time>2026-04-19T14:59:08.999Z</time></trkpt><trkpt lat="45.2057913677542" lon="6.962687467496571"><ele>1718.0</ele><time>2026-04-19T14:59:09.999Z</time></trkpt><trkpt lat="45.205856070550695" lon="6.962637487758404"><ele>1717.9999999999998</ele><time>2026-04-19T14:59:10.999Z</time></trkpt><trkpt lat="45.205912922578534" lon="6.962597593107645"><ele>1718.0</ele><time>2026-04-19T14:59:11.999Z</time></trkpt><trkpt lat="45.20597134468004" lon="6.96255969120886"><ele>1718.0</ele><time>2026-04-19T14:59:13.999Z</time></trkpt><trkpt lat="45.20582288762105" lon="6.962568345888526"><ele>1718.0000000000002</ele><time>2026-04-19T15:15:48Z</time></trkpt><trkpt lat="45.20576058586024" lon="6.962644897241253"><ele>1718.0000000000002</ele><time>2026-04-19T15:15:49Z</time></trkpt><trkpt lat="45.205688532450814" lon="6.962717321202659"><ele>1718.0</ele><time>2026-04-19T15:15:50Z</time></trkpt><trkpt lat="45.20561365724498" lon="6.96277673624885"><ele>1718.0</ele><time>2026-04-19T15:15:51Z</time></trkpt><trkpt lat="45.20554447258803" lon="6.962840875542747"><ele>1717.9999999999998</ele><time>2026-04-19T15:15:52Z</time></trkpt><trkpt lat="45.20547077112376" lon="6.962875204346105"><ele>1718.0</ele><time>2026-04-19T15:15:53Z</time></trkpt><trkpt lat="45.20541309423119" lon="6.962926016966719"><ele>1718.0</ele><time>2026-04-19T15:15:54Z</time></trkpt><trkpt lat="45.20536042326647" lon="6.9630000678613575"><ele>1718.0</ele><time>2026-04-19T15:15:55Z</time></trkpt><trkpt lat="45.2052917979353" lon="6.963056775805068"><ele>1717.9999999999998</ele><time>2026-04-19T15:15:56Z</time></trkpt><trkpt lat="45.20521934091103" lon="6.963128365850238"><ele>1718.0</ele><time>2026-04-19T15:15:57Z</time></trkpt><trkpt lat="45.20514813264944" lon="6.963208203560687"><ele>1718.0</ele><time>2026-04-19T15:15:58Z</time></trkpt><trkpt lat="45.20506427993107" lon="6.963285826209479"><ele>1718.0000000000002</ele><time>2026-04-19T15:15:59Z</time></trkpt><trkpt lat="45.205007692392" lon="6.9634089232318415"><ele>1718.0000000000002</ele><time>2026-04-19T15:16:00Z</time></trkpt><trkpt lat="45.20492457254809" lon="6.963514675281614"><ele>1718.0</ele><time>2026-04-19T15:16:01Z</time></trkpt><trkpt lat="45.20485181504548" lon="6.963650026369637"><ele>1718.0</ele><time>2026-04-19T15:16:02Z</time></trkpt><trkpt lat="45.2047958505845" lon="6.9638120874919025"><ele>1719.75</ele><time>2026-04-19T15:16:03Z</time></trkpt><trkpt lat="45.20473338719942" lon="6.96396270791505"><ele>1721.5</ele><time>2026-04-19T15:16:04Z</time></trkpt><trkpt lat="45.204671014468566" lon="6.964129380179462"><ele>1723.25</ele><time>2026-04-19T15:16:05Z</time></trkpt><trkpt lat="45.20461171472305" lon="6.964308603400915"><ele>1725.0</ele><time>2026-04-19T15:16:06Z</time></trkpt><trkpt lat="45.20455764913062" lon="6.964501108278065"><ele>1725.0</ele><time>2026-04-19T15:16:07Z</time></trkpt><trkpt lat="45.20450341984117" lon="6.964704004439624"><ele>1725.0</ele><time>2026-04-19T15:16:08Z</time></trkpt><trkpt lat="45.20444992402564" lon="6.964916926890193"><ele>1725.0</ele><time>2026-04-19T15:16:09Z</time></trkpt><trkpt lat="45.204392783402135" lon="6.965139426424224"><ele>1719.3333333333335</ele><time>2026-04-19T15:16:10Z</time></trkpt><trkpt lat="45.20433460224083" lon="6.96536900286113"><ele>1713.6666666666667</ele><time>2026-04-19T15:16:11Z</time></trkpt><trkpt lat="45.20425961202523" lon="6.965597187655326"><ele>1708.0</ele><time>2026-04-19T15:16:12Z</time></trkpt><trkpt lat="45.204199734175184" lon="6.965836654845637"><ele>1702.3333333333335</ele><time>2026-04-19T15:16:13Z</time></trkpt><trkpt lat="45.20414104650433" lon="6.966076676586359"><ele>1696.6666666666665</ele><time>2026-04-19T15:16:14Z</time></trkpt><trkpt lat="45.20408376387476" lon="6.9663109519738144"><ele>1691.0</ele><time>2026-04-19T15:16:15Z</time></trkpt><trkpt lat="45.20404565675688" lon="6.966542139617712"><ele>1691.3333333333333</ele><time>2026-04-19T15:16:16Z</time></trkpt><trkpt lat="45.203988565559825" lon="6.966759636918663"><ele>1691.6666666666665</ele><time>2026-04-19T15:16:17Z</time></trkpt><trkpt lat="45.20392329681648" lon="6.966972199038939"><ele>1692.0</ele><time>2026-04-19T15:16:18Z</time></trkpt><trkpt lat="45.20384120861593" lon="6.96717709629764"><ele>1692.0</ele><time>2026-04-19T15:16:19Z</time></trkpt><trkpt lat="45.20373308060723" lon="6.967345408724167"><ele>1692.0</ele><time>2026-04-19T15:16:20Z</time></trkpt><trkpt lat="45.2035969165531" lon="6.967469954819419"><ele>1692.0</ele><time>2026-04-19T15:16:21Z</time></trkpt><trkpt lat="45.20344325112998" lon="6.967568940813978"><ele>1690.75</ele><time>2026-04-19T15:16:22Z</time></trkpt><trkpt lat="45.203273047800145" lon="6.9676665368083235"><ele>1689.5</ele><time>2026-04-19T15:16:23Z</time></trkpt><trkpt lat="45.203215855668525" lon="6.967772795457955"><ele>1688.25</ele><time>2026-04-19T15:16:24Z</time></trkpt><trkpt lat="45.20307074210343" lon="6.967868231372302"><ele>1687.0</ele><time>2026-04-19T15:16:25Z</time></trkpt><trkpt lat="45.20293599389222" lon="6.967975877496481"><ele>1687.0</ele><time>2026-04-19T15:16:26Z</time></trkpt><trkpt lat="45.20279868238183" lon="6.968057246106761"><ele>1687.0</ele><time>2026-04-19T15:16:27Z</time></trkpt><trkpt lat="45.202677017174295" lon="6.968150500579247"><ele>1687.0</ele><time>2026-04-19T15:16:28Z</time></trkpt><trkpt lat="45.20257242176257" lon="6.968274278174802"><ele>1687.0</ele><time>2026-04-19T15:16:29Z</time></trkpt><trkpt lat="45.202484331820784" lon="6.968418795777045"><ele>1682.0</ele><time>2026-04-19T15:16:30Z</time></trkpt><trkpt lat="45.20242152893496" lon="6.968591504206784"><ele>1677.0</ele><time>2026-04-19T15:16:31Z</time></trkpt><trkpt lat="45.20237039791353" lon="6.968773166377668"><ele>1672.0</ele><time>2026-04-19T15:16:32Z</time></trkpt><trkpt lat="45.202314236172846" lon="6.968949517006865"><ele>1667.0</ele><time>2026-04-19T15:16:33Z</time></trkpt><trkpt lat="45.202258456649275" lon="6.969121653197251"><ele>1668.25</ele><time>2026-04-19T15:16:34Z</time></trkpt><trkpt lat="45.20218247721386" lon="6.969291316098109"><ele>1669.5</ele><time>2026-04-19T15:16:35Z</time></trkpt><trkpt lat="45.20210734824717" lon="6.969465148676322"><ele>1670.75</ele><time>2026-04-19T15:16:36Z</time></trkpt><trkpt lat="45.202005542630765" lon="6.969614986699509"><ele>1672.0</ele><time>2026-04-19T15:16:37Z</time></trkpt><trkpt lat="45.20187180134028" lon="6.969738700581794"><ele>1672.0</ele><time>2026-04-19T15:16:38Z</time></trkpt><trkpt lat="45.201737841423935" lon="6.9698946422247925"><ele>1672.0</ele><time>2026-04-19T15:16:39Z</time></trkpt><trkpt lat="45.201607181026596" lon="6.970064316583739"><ele>1672.0</ele><time>2026-04-19T15:16:40Z</time></trkpt><trkpt lat="45.20146807969612" lon="6.97024740157514"><ele>1675.3333333333335</ele><time>2026-04-19T15:16:41Z</time></trkpt><trkpt lat="45.20132382480179" lon="6.970437269619579"><ele>1678.6666666666665</ele><time>2026-04-19T15:16:42Z</time></trkpt><trkpt lat="45.201175668906565" lon="6.970632272327931"><ele>1682.0</ele><time>2026-04-19T15:16:43Z</time></trkpt><trkpt lat="45.20102699338046" lon="6.970827958772871"><ele>1685.0</ele><time>2026-04-19T15:16:44Z</time></trkpt><trkpt lat="45.20088654665063" lon="6.971044157563382"><ele>1688.0</ele><time>2026-04-19T15:16:45Z</time></trkpt><trkpt lat="45.20071773520392" lon="6.97125467793985"><ele>1691.0</ele><time>2026-04-19T15:16:46Z</time></trkpt><trkpt lat="45.200574354508426" lon="6.971445096297148"><ele>1691.0</ele><time>2026-04-19T15:16:47Z</time></trkpt><trkpt lat="45.20044380757205" lon="6.971627439883604"><ele>1691.0</ele><time>2026-04-19T15:16:48Z</time></trkpt><trkpt lat="45.20031383977986" lon="6.971773793230684"><ele>1691.0</ele><time>2026-04-19T15:16:49Z</time></trkpt><trkpt lat="45.20023999745433" lon="6.9719360240134804"><ele>1676.5</ele><time>2026-04-19T15:16:50Z</time></trkpt><trkpt lat="45.20019409465381" lon="6.972408810976022"><ele>1662.0</ele><time>2026-04-19T15:16:51Z</time></trkpt><trkpt lat="45.200107618185164" lon="6.9727001888538895"><ele>1657.0</ele><time>2026-04-19T15:16:52Z</time></trkpt><trkpt lat="45.200032110698494" lon="6.972991783338427"><ele>1652.0</ele><time>2026-04-19T15:16:53Z</time></trkpt><trkpt lat="45.19995656797657" lon="6.973286374181785"><ele>1647.0</ele><time>2026-04-19T15:16:54Z</time></trkpt><trkpt lat="45.199884111268155" lon="6.973570719738544"><ele>1653.6666666666665</ele><time>2026-04-19T15:16:55Z</time></trkpt><trkpt lat="45.199815540145984" lon="6.973843509813975"><ele>1660.3333333333333</ele><time>2026-04-19T15:16:56Z</time></trkpt><trkpt lat="45.19975724136885" lon="6.97409670588159"><ele>1667.0</ele><time>2026-04-19T15:16:57Z</time></trkpt><trkpt lat="45.19971940321098" lon="6.9743236440519105"><ele>1667.0</ele><time>2026-04-19T15:16:58Z</time></trkpt><trkpt lat="45.199715893273925" lon="6.974554703499231"><ele>1667.0</ele><time>2026-04-19T15:16:59Z</time></trkpt><trkpt lat="45.19972116456908" lon="6.974784077793252"><ele>1667.0</ele><time>2026-04-19T15:17:00Z</time></trkpt><trkpt lat="45.19973760355006" lon="6.975000372360411"><ele>1663.0</ele><time>2026-04-19T15:17:01Z</time></trkpt><trkpt lat="45.19972191620157" lon="6.975194615712763"><ele>1659.0</ele><time>2026-04-19T15:17:02Z</time></trkpt><trkpt lat="45.199689638896864" lon="6.9753864480161525"><ele>1655.0</ele><time>2026-04-19T15:17:03Z</time></trkpt><trkpt lat="45.199641810155086" lon="6.975592242411652"><ele>1651.0</ele><time>2026-04-19T15:17:04Z</time></trkpt><trkpt lat="45.199585368286044" lon="6.975815290713493"><ele>1646.3333333333335</ele><time>2026-04-19T15:17:05Z</time></trkpt><trkpt lat="45.19952658745741" lon="6.9760437312163095"><ele>1641.6666666666665</ele><time>2026-04-19T15:17:06Z</time></trkpt><trkpt lat="45.19946698786798" lon="6.9762732737789594"><ele>1637.0</ele><time>2026-04-19T15:17:07Z</time></trkpt><trkpt lat="45.19940808664511" lon="6.976500171646909"><ele>1631.0</ele><time>2026-04-19T15:17:08Z</time></trkpt><trkpt lat="45.19935035271434" lon="6.976724146095493"><ele>1625.0</ele><time>2026-04-19T15:17:09Z</time></trkpt><trkpt lat="45.19929417916924" lon="6.97694472863667"><ele>1619.0</ele><time>2026-04-19T15:17:10Z</time></trkpt><trkpt lat="45.19923802113024" lon="6.977151034936441"><ele>1619.0</ele><time>2026-04-19T15:17:11Z</time></trkpt><trkpt lat="45.199175067882095" lon="6.977347278213485"><ele>1619.0</ele><time>2026-04-19T15:17:12Z</time></trkpt><trkpt lat="45.199104572736495" lon="6.9775168059346475"><ele>1619.0</ele><time>2026-04-19T15:17:13Z</time></trkpt><trkpt lat="45.19901679161567" lon="6.977679047916524"><ele>1619.0</ele><time>2026-04-19T15:17:14Z</time></trkpt><trkpt lat="45.19891967987241" lon="6.977822825000498"><ele>1619.25</ele><time>2026-04-19T15:17:15Z</time></trkpt><trkpt lat="45.198812441623964" lon="6.977948448311695"><ele>1619.5</ele><time>2026-04-19T15:17:16Z</time></trkpt><trkpt lat="45.19869496420521" lon="6.978055800145612"><ele>1619.75</ele><time>2026-04-19T15:17:17Z</time></trkpt><trkpt lat="45.19857706219354" lon="6.978156492170252"><ele>1620.0</ele><time>2026-04-19T15:17:18Z</time></trkpt><trkpt lat="45.19847108507969" lon="6.978279725978719"><ele>1616.75</ele><time>2026-04-19T15:17:19Z</time></trkpt><trkpt lat="45.19840331867776" lon="6.978445078692385"><ele>1613.5</ele><time>2026-04-19T15:17:20Z</time></trkpt><trkpt lat="45.198363019972675" lon="6.978642785031872"><ele>1610.25</ele><time>2026-04-19T15:17:21Z</time></trkpt><trkpt lat="45.19831867341534" lon="6.97883598947556"><ele>1607.0</ele><time>2026-04-19T15:17:22.001Z</time></trkpt><trkpt lat="45.19828501151428" lon="6.979029379093335"><ele>1605.75</ele><time>2026-04-19T15:17:23.001Z</time></trkpt><trkpt lat="45.19824349925862" lon="6.979219956774913"><ele>1604.5</ele><time>2026-04-19T15:17:24.001Z</time></trkpt><trkpt lat="45.198193137174655" lon="6.979410243206735"><ele>1603.25</ele><time>2026-04-19T15:17:25.001Z</time></trkpt><trkpt lat="45.198128836075625" lon="6.979583237613622"><ele>1602.0</ele><time>2026-04-19T15:17:26.001Z</time></trkpt><trkpt lat="45.1980464998283" lon="6.979738218503985"><ele>1602.0</ele><time>2026-04-19T15:17:27.001Z</time></trkpt><trkpt lat="45.19794413202913" lon="6.979849617864604"><ele>1602.0</ele><time>2026-04-19T15:17:28.001Z</time></trkpt><trkpt lat="45.197822010710844" lon="6.979920180913327"><ele>1602.0</ele><time>2026-04-19T15:17:29.001Z</time></trkpt><trkpt lat="45.1976942878198" lon="6.9799590244139464"><ele>1602.0</ele><time>2026-04-19T15:17:30.001Z</time></trkpt><trkpt lat="45.19756885705091" lon="6.979995900182293"><ele>1606.25</ele><time>2026-04-19T15:17:31.001Z</time></trkpt><trkpt lat="45.19745076106613" lon="6.980065816324588"><ele>1610.5</ele><time>2026-04-19T15:17:32.001Z</time></trkpt><trkpt lat="45.19733251295901" lon="6.980139653610138"><ele>1614.75</ele><time>2026-04-19T15:17:33.001Z</time></trkpt><trkpt lat="45.1972307356132" lon="6.98025505472753"><ele>1619.0</ele><time>2026-04-19T15:17:34.001Z</time></trkpt><trkpt lat="45.197146312827186" lon="6.980405748446929"><ele>1619.0</ele><time>2026-04-19T15:17:35.001Z</time></trkpt><trkpt lat="45.19708143441127" lon="6.980584638894982"><ele>1619.0</ele><time>2026-04-19T15:17:36.001Z</time></trkpt><trkpt lat="45.19702409423364" lon="6.980773123035369"><ele>1619.0</ele><time>2026-04-19T15:17:37.001Z</time></trkpt><trkpt lat="45.19701490980163" lon="6.98098772607778"><ele>1619.0</ele><time>2026-04-19T15:17:38.001Z</time></trkpt><trkpt lat="45.19700148320879" lon="6.9811984755244785"><ele>1615.0</ele><time>2026-04-19T15:17:39.001Z</time></trkpt><trkpt lat="45.19697990431279" lon="6.981407297205376"><ele>1611.0</ele><time>2026-04-19T15:17:40.001Z</time></trkpt><trkpt lat="45.19696975781892" lon="6.981622360995551"><ele>1607.0</ele><time>2026-04-19T15:17:41.001Z</time></trkpt><trkpt lat="45.19700064711464" lon="6.981839608419467"><ele>1603.25</ele><time>2026-04-19T15:17:42.001Z</time></trkpt><trkpt lat="45.19703988607285" lon="6.982043031042348"><ele>1599.5</ele><time>2026-04-19T15:17:43.001Z</time></trkpt><trkpt lat="45.197064162236366" lon="6.982249886002701"><ele>1595.75</ele><time>2026-04-19T15:17:44.001Z</time></trkpt><trkpt lat="45.19708358083657" lon="6.9824453562743765"><ele>1592.0</ele><time>2026-04-19T15:17:45.001Z</time></trkpt><trkpt lat="45.19706886033452" lon="6.982635831205577"><ele>1588.0</ele><time>2026-04-19T15:17:46.001Z</time></trkpt><trkpt lat="45.1970186223428" lon="6.982821078073367"><ele>1584.0</ele><time>2026-04-19T15:17:47.001Z</time></trkpt><trkpt lat="45.196939576528536" lon="6.982993979789138"><ele>1580.0</ele><time>2026-04-19T15:17:48.001Z</time></trkpt><trkpt lat="45.196857865733556" lon="6.9831809379307215"><ele>1576.0</ele><time>2026-04-19T15:17:49.001Z</time></trkpt><trkpt lat="45.19677731409952" lon="6.983371170959934"><ele>1573.0</ele><time>2026-04-19T15:17:50.001Z</time></trkpt><trkpt lat="45.19670311978523" lon="6.983551784166247"><ele>1570.0</ele><time>2026-04-19T15:17:51.001Z</time></trkpt><trkpt lat="45.19662786317908" lon="6.983703351018824"><ele>1567.0</ele><time>2026-04-19T15:17:52.001Z</time></trkpt><trkpt lat="45.19654298452105" lon="6.983821395391788"><ele>1564.0</ele><time>2026-04-19T15:17:53.001Z</time></trkpt><trkpt lat="45.196440837043006" lon="6.983876069258014"><ele>1564.0</ele><time>2026-04-19T15:17:54.001Z</time></trkpt><trkpt lat="45.19631860302862" lon="6.983907421789084"><ele>1564.0</ele><time>2026-04-19T15:17:55.001Z</time></trkpt><trkpt lat="45.19618613349794" lon="6.983945921431281"><ele>1564.0</ele><time>2026-04-19T15:17:56.001Z</time></trkpt><trkpt lat="45.196053363111474" lon="6.984016215143197"><ele>1564.0</ele><time>2026-04-19T15:17:57.001Z</time></trkpt><trkpt lat="45.19593105806366" lon="6.984114364302632"><ele>1560.5</ele><time>2026-04-19T15:17:58.001Z</time></trkpt><trkpt lat="45.195833511763674" lon="6.984245259452417"><ele>1557.0</ele><time>2026-04-19T15:17:59.001Z</time></trkpt><trkpt lat="45.19572792106064" lon="6.984371432411335"><ele>1553.5</ele><time>2026-04-19T15:18:00.001Z</time></trkpt><trkpt lat="45.19563495653801" lon="6.984491815483919"><ele>1550.0</ele><time>2026-04-19T15:18:01.001Z</time></trkpt><trkpt lat="45.195529073280085" lon="6.984591810279021"><ele>1550.0</ele><time>2026-04-19T15:18:02.001Z</time></trkpt><trkpt lat="45.19541581051322" lon="6.98467162218535"><ele>1550.0</ele><time>2026-04-19T15:18:03.001Z</time></trkpt><trkpt lat="45.19530021474126" lon="6.984744944060856"><ele>1550.0</ele><time>2026-04-19T15:18:04.001Z</time></trkpt><trkpt lat="45.19518223046446" lon="6.984819781063551"><ele>1550.0</ele><time>2026-04-19T15:18:05.001Z</time></trkpt><trkpt lat="45.19506419547128" lon="6.984890981476061"><ele>1550.0</ele><time>2026-04-19T15:18:06.001Z</time></trkpt><trkpt lat="45.19494723148963" lon="6.984943697677387"><ele>1550.0</ele><time>2026-04-19T15:18:07.001Z</time></trkpt><trkpt lat="45.19483133807028" lon="6.984964231858167"><ele>1550.0</ele><time>2026-04-19T15:18:08.001Z</time></trkpt><trkpt lat="45.19471471278887" lon="6.984932022846589"><ele>1550.0</ele><time>2026-04-19T15:18:09.001Z</time></trkpt><trkpt lat="45.194589635724824" lon="6.984891360753732"><ele>1549.25</ele><time>2026-04-19T15:18:10.001Z</time></trkpt><trkpt lat="45.19444754643375" lon="6.984887214871073"><ele>1548.5</ele><time>2026-04-19T15:18:11.001Z</time></trkpt><trkpt lat="45.19430881962392" lon="6.984890480716979"><ele>1547.75</ele><time>2026-04-19T15:18:12.001Z</time></trkpt><trkpt lat="45.194185269492216" lon="6.985014622580301"><ele>1547.0</ele><time>2026-04-19T15:18:13.001Z</time></trkpt><trkpt lat="45.19406505217394" lon="6.985139461267414"><ele>1542.5</ele><time>2026-04-19T15:18:14.001Z</time></trkpt><trkpt lat="45.193953234346715" lon="6.985256688240057"><ele>1538.0</ele><time>2026-04-19T15:18:15.001Z</time></trkpt><trkpt lat="45.19384185143596" lon="6.985317719554651"><ele>1533.5</ele><time>2026-04-19T15:18:16.001Z</time></trkpt><trkpt lat="45.19372621141422" lon="6.985301529837838"><ele>1529.0</ele><time>2026-04-19T15:18:17Z</time></trkpt><trkpt lat="45.193602737228495" lon="6.985290024877369"><ele>1529.0</ele><time>2026-04-19T15:18:18Z</time></trkpt><trkpt lat="45.1934738196975" lon="6.98527564561889"><ele>1529.0</ele><time>2026-04-19T15:18:19Z</time></trkpt><trkpt lat="45.19333797227186" lon="6.985256409415199"><ele>1529.0</ele><time>2026-04-19T15:18:20Z</time></trkpt><trkpt lat="45.19320379368587" lon="6.985256794489977"><ele>1529.0</ele><time>2026-04-19T15:18:21Z</time></trkpt><trkpt lat="45.19307927178742" lon="6.985328423498768"><ele>1528.0</ele><time>2026-04-19T15:18:22Z</time></trkpt><trkpt lat="45.19295878291534" lon="6.985398820881788"><ele>1527.0</ele><time>2026-04-19T15:18:23Z</time></trkpt><trkpt lat="45.19284250230527" lon="6.985490910701318"><ele>1526.0</ele><time>2026-04-19T15:18:24Z</time></trkpt><trkpt lat="45.192729963847796" lon="6.985548425199023"><ele>1525.0</ele><time>2026-04-19T15:18:25Z</time></trkpt><trkpt lat="45.19260953519271" lon="6.985561541233863"><ele>1525.0</ele><time>2026-04-19T15:18:26Z</time></trkpt><trkpt lat="45.19248054635865" lon="6.985540514965071"><ele>1525.0</ele><time>2026-04-19T15:18:27Z</time></trkpt><trkpt lat="45.19235444392564" lon="6.985503885504528"><ele>1525.0</ele><time>2026-04-19T15:18:28Z</time></trkpt><trkpt lat="45.192239760618634" lon="6.985423391971138"><ele>1525.0</ele><time>2026-04-19T15:18:29Z</time></trkpt><trkpt lat="45.19213089268151" lon="6.985309522334167"><ele>1521.3333333333333</ele><time>2026-04-19T15:18:30Z</time></trkpt><trkpt lat="45.19203782627048" lon="6.985144373509825"><ele>1517.6666666666667</ele><time>2026-04-19T15:18:31Z</time></trkpt><trkpt lat="45.191928036041226" lon="6.984992832180152"><ele>1514.0</ele><time>2026-04-19T15:18:32Z</time></trkpt><trkpt lat="45.1918068335786" lon="6.984862986478431"><ele>1514.0</ele><time>2026-04-19T15:18:33Z</time></trkpt><trkpt lat="45.19169759626399" lon="6.9847348126779485"><ele>1514.0</ele><time>2026-04-19T15:18:34Z</time></trkpt><trkpt lat="45.19161216871556" lon="6.984579843112607"><ele>1514.0</ele><time>2026-04-19T15:18:35Z</time></trkpt><trkpt lat="45.191549532347445" lon="6.984411322001639"><ele>1514.0</ele><time>2026-04-19T15:18:36Z</time></trkpt><trkpt lat="45.19147114106387" lon="6.984269315156858"><ele>1507.25</ele><time>2026-04-19T15:18:37Z</time></trkpt><trkpt lat="45.191367965460316" lon="6.98415998703238"><ele>1500.5</ele><time>2026-04-19T15:18:38Z</time></trkpt><trkpt lat="45.1912706647347" lon="6.984062986028254"><ele>1493.75</ele><time>2026-04-19T15:18:39Z</time></trkpt><trkpt lat="45.19118057861371" lon="6.983944146662932"><ele>1487.0</ele><time>2026-04-19T15:18:40Z</time></trkpt><trkpt lat="45.19110826349141" lon="6.983793594688468"><ele>1487.0</ele><time>2026-04-19T15:18:41Z</time></trkpt><trkpt lat="45.191053082718845" lon="6.983607168814138"><ele>1487.0</ele><time>2026-04-19T15:18:42Z</time></trkpt><trkpt lat="45.1910001364467" lon="6.983383334626385"><ele>1487.0</ele><time>2026-04-19T15:18:43Z</time></trkpt><trkpt lat="45.19095191569492" lon="6.983123141011918"><ele>1492.5</ele><time>2026-04-19T15:18:44Z</time></trkpt><trkpt lat="45.19088934445057" lon="6.982823804003939"><ele>1498.0</ele><time>2026-04-19T15:18:45Z</time></trkpt><trkpt lat="45.19080103805196" lon="6.982505924011231"><ele>1504.5</ele><time>2026-04-19T15:18:46Z</time></trkpt><trkpt lat="45.19070454475604" lon="6.982196436312108"><ele>1511.0</ele><time>2026-04-19T15:18:47Z</time></trkpt><trkpt lat="45.19060973980024" lon="6.981918170813063"><ele>1496.3333333333335</ele><time>2026-04-19T15:18:48Z</time></trkpt><trkpt lat="45.19052445676704" lon="6.981650286343191"><ele>1481.6666666666667</ele><time>2026-04-19T15:18:49Z</time></trkpt><trkpt lat="45.190444824087265" lon="6.981391021289203"><ele>1467.0</ele><time>2026-04-19T15:18:50Z</time></trkpt><trkpt lat="45.19036748710119" lon="6.981145086932848"><ele>1467.0</ele><time>2026-04-19T15:18:51Z</time></trkpt><trkpt lat="45.19030096572344" lon="6.980915091448692"><ele>1467.0</ele><time>2026-04-19T15:18:52Z</time></trkpt><trkpt lat="45.190255823071716" lon="6.980688693426457"><ele>1467.0</ele><time>2026-04-19T15:18:53Z</time></trkpt><trkpt lat="45.19025517436495" lon="6.980446557908206"><ele>1470.0</ele><time>2026-04-19T15:18:54Z</time></trkpt><trkpt lat="45.19028245778868" lon="6.980193088952978"><ele>1473.0</ele><time>2026-04-19T15:18:55Z</time></trkpt><trkpt lat="45.190294379575235" lon="6.979936799147003"><ele>1476.0</ele><time>2026-04-19T15:18:56Z</time></trkpt><trkpt lat="45.190287879416644" lon="6.979698194430884"><ele>1476.5</ele><time>2026-04-19T15:18:57Z</time></trkpt><trkpt lat="45.19025986638855" lon="6.979484779841303"><ele>1477.0</ele><time>2026-04-19T15:18:58Z</time></trkpt><trkpt lat="45.19021978846682" lon="6.979279385578799"><ele>1477.5</ele><time>2026-04-19T15:18:59Z</time></trkpt><trkpt lat="45.19017788905279" lon="6.9790882367570735"><ele>1478.0</ele><time>2026-04-19T15:19:00Z</time></trkpt><trkpt lat="45.19013016948851" lon="6.978905028980323"><ele>1478.0</ele><time>2026-04-19T15:19:01Z</time></trkpt><trkpt lat="45.19007799019753" lon="6.9787366871174825"><ele>1478.0</ele><time>2026-04-19T15:19:02Z</time></trkpt><trkpt lat="45.190003033601464" lon="6.978591262510205"><ele>1478.0</ele><time>2026-04-19T15:19:03Z</time></trkpt><trkpt lat="45.18992063020714" lon="6.978451506860041"><ele>1478.0</ele><time>2026-04-19T15:19:04Z</time></trkpt><trkpt lat="45.18982629761621" lon="6.978320896266184"><ele>1477.25</ele><time>2026-04-19T15:19:05Z</time></trkpt><trkpt lat="45.18972224099796" lon="6.978195791353461"><ele>1476.5</ele><time>2026-04-19T15:19:06Z</time></trkpt><trkpt lat="45.18961748214088" lon="6.978066881293775"><ele>1475.75</ele><time>2026-04-19T15:19:07Z</time></trkpt><trkpt lat="45.1895107534594" lon="6.977940825239894"><ele>1475.0</ele><time>2026-04-19T15:19:08Z</time></trkpt><trkpt lat="45.18940996240132" lon="6.977814075989006"><ele>1475.0</ele><time>2026-04-19T15:19:09Z</time></trkpt><trkpt lat="45.18930398460901" lon="6.977693086491121"><ele>1475.0</ele><time>2026-04-19T15:19:10Z</time></trkpt><trkpt lat="45.18919089805601" lon="6.977590252829356"><ele>1475.0</ele><time>2026-04-19T15:19:11Z</time></trkpt><trkpt lat="45.18907276834005" lon="6.977528801807781"><ele>1475.0</ele><time>2026-04-19T15:19:12Z</time></trkpt><trkpt lat="45.18896388791209" lon="6.977509523293568"><ele>1475.0</ele><time>2026-04-19T15:19:13Z</time></trkpt><trkpt lat="45.18887433978898" lon="6.9775006636750785"><ele>1475.0</ele><time>2026-04-19T15:19:14Z</time></trkpt><trkpt lat="45.18879158187203" lon="6.977585157926687"><ele>1475.0</ele><time>2026-04-19T15:19:15Z</time></trkpt><trkpt lat="45.188764260101166" lon="6.977785167079885"><ele>1475.0</ele><time>2026-04-19T15:19:16Z</time></trkpt><trkpt lat="45.18882458170526" lon="6.97798085155213"><ele>1475.0</ele><time>2026-04-19T15:19:17Z</time></trkpt><trkpt lat="45.18888460394075" lon="6.978159802017522"><ele>1475.0</ele><time>2026-04-19T15:19:18Z</time></trkpt><trkpt lat="45.18890645889278" lon="6.978315628700388"><ele>1475.0</ele><time>2026-04-19T15:19:19Z</time></trkpt><trkpt lat="45.18887837141068" lon="6.978441805037033"><ele>1475.0</ele><time>2026-04-19T15:19:20Z</time></trkpt><trkpt lat="45.18880428539467" lon="6.978573802366023"><ele>1470.0</ele><time>2026-04-19T15:19:21Z</time></trkpt><trkpt lat="45.188728689465314" lon="6.978746170058694"><ele>1465.0</ele><time>2026-04-19T15:19:22Z</time></trkpt><trkpt lat="45.188655811577" lon="6.9788608383197825"><ele>1460.0</ele><time>2026-04-19T15:19:23Z</time></trkpt><trkpt lat="45.188572402143585" lon="6.978919047719723"><ele>1455.0</ele><time>2026-04-19T15:19:24Z</time></trkpt><trkpt lat="45.1884625248" lon="6.978853464486055"><ele>1455.0</ele><time>2026-04-19T15:19:25Z</time></trkpt><trkpt lat="45.1883202308996" lon="6.978787174609116"><ele>1455.0</ele><time>2026-04-19T15:19:26Z</time></trkpt><trkpt lat="45.18816865743874" lon="6.978717373177912"><ele>1455.0</ele><time>2026-04-19T15:19:27Z</time></trkpt><trkpt lat="45.188003342500785" lon="6.978644992469813"><ele>1455.3333333333333</ele><time>2026-04-19T15:19:28.001Z</time></trkpt><trkpt lat="45.18783498847114" lon="6.9785918127003725"><ele>1455.6666666666665</ele><time>2026-04-19T15:19:29.001Z</time></trkpt><trkpt lat="45.187688993627" lon="6.9784611536888566"><ele>1456.0</ele><time>2026-04-19T15:19:30.001Z</time></trkpt><trkpt lat="45.18756417563215" lon="6.978267000213491"><ele>1456.0</ele><time>2026-04-19T15:19:31.001Z</time></trkpt><trkpt lat="45.18746249859223" lon="6.978077589519218"><ele>1456.0</ele><time>2026-04-19T15:19:32.001Z</time></trkpt><trkpt lat="45.18736290938103" lon="6.977940619265833"><ele>1456.0</ele><time>2026-04-19T15:19:33.001Z</time></trkpt><trkpt lat="45.18726451824047" lon="6.97787408055417"><ele>1456.0</ele><time>2026-04-19T15:19:34.001Z</time></trkpt><trkpt lat="45.18713319547028" lon="6.977837433978229"><ele>1455.6666666666665</ele><time>2026-04-19T15:19:35.001Z</time></trkpt><trkpt lat="45.18696039592485" lon="6.9779318066536495"><ele>1455.3333333333333</ele><time>2026-04-19T15:19:36.001Z</time></trkpt><trkpt lat="45.18686217980505" lon="6.9781708630055785"><ele>1455.0</ele><time>2026-04-19T15:19:37.001Z</time></trkpt><trkpt lat="45.186768276491705" lon="6.978411424823466"><ele>1453.3333333333333</ele><time>2026-04-19T15:19:38.001Z</time></trkpt><trkpt lat="45.18666638086281" lon="6.978683894487006"><ele>1451.6666666666665</ele><time>2026-04-19T15:19:39.001Z</time></trkpt><trkpt lat="45.186563895600415" lon="6.978965276002181"><ele>1450.0</ele><time>2026-04-19T15:19:40.001Z</time></trkpt><trkpt lat="45.186475600195685" lon="6.979213143896381"><ele>1450.0</ele><time>2026-04-19T15:19:41.001Z</time></trkpt><trkpt lat="45.18639060888351" lon="6.9794705511078625"><ele>1450.0</ele><time>2026-04-19T15:19:42.001Z</time></trkpt><trkpt lat="45.18631397459412" lon="6.979724101086142"><ele>1450.0</ele><time>2026-04-19T15:19:43.001Z</time></trkpt><trkpt lat="45.18623855809118" lon="6.979960571887803"><ele>1443.3333333333333</ele><time>2026-04-19T15:19:44.001Z</time></trkpt><trkpt lat="45.186156270303144" lon="6.9801580385792334"><ele>1436.6666666666667</ele><time>2026-04-19T15:19:45.001Z</time></trkpt><trkpt lat="45.18602725095391" lon="6.9803391300178985"><ele>1430.0</ele><time>2026-04-19T15:19:46.001Z</time></trkpt><trkpt lat="45.185842296722505" lon="6.980501539045146"><ele>1433.6666666666667</ele><time>2026-04-19T15:19:47.001Z</time></trkpt><trkpt lat="45.18564864527853" lon="6.980675784546735"><ele>1437.3333333333333</ele><time>2026-04-19T15:19:48.001Z</time></trkpt><trkpt lat="45.18548815488241" lon="6.980835876539964"><ele>1441.0</ele><time>2026-04-19T15:19:49.001Z</time></trkpt><trkpt lat="45.185369227885126" lon="6.981040989250324"><ele>1441.0</ele><time>2026-04-19T15:19:50.001Z</time></trkpt><trkpt lat="45.18530340792906" lon="6.981284981357641"><ele>1441.0</ele><time>2026-04-19T15:19:51.001Z</time></trkpt><trkpt lat="45.18523082981657" lon="6.98157794564036"><ele>1441.0</ele><time>2026-04-19T15:19:52.001Z</time></trkpt><trkpt lat="45.18515646174791" lon="6.9818809994784345"><ele>1436.0</ele><time>2026-04-19T15:19:53.001Z</time></trkpt><trkpt lat="45.18508786882147" lon="6.9821752311743115"><ele>1431.0</ele><time>2026-04-19T15:19:54.001Z</time></trkpt><trkpt lat="45.185041262755874" lon="6.9824688961163845"><ele>1426.0</ele><time>2026-04-19T15:19:55.001Z</time></trkpt><trkpt lat="45.18502310767491" lon="6.9827522327708635"><ele>1422.6666666666665</ele><time>2026-04-19T15:19:56.001Z</time></trkpt><trkpt lat="45.18501413306976" lon="6.983024995504756"><ele>1419.3333333333333</ele><time>2026-04-19T15:19:57.001Z</time></trkpt><trkpt lat="45.185009600853164" lon="6.983284942757998"><ele>1416.0</ele><time>2026-04-19T15:19:58.001Z</time></trkpt><trkpt lat="45.18500356149481" lon="6.983519192722023"><ele>1413.0</ele><time>2026-04-19T15:19:59.001Z</time></trkpt><trkpt lat="45.18498946392237" lon="6.983743133143855"><ele>1410.0</ele><time>2026-04-19T15:20:00.001Z</time></trkpt><trkpt lat="45.18496701296832" lon="6.983973235562042"><ele>1407.0</ele><time>2026-04-19T15:20:01.001Z</time></trkpt><trkpt lat="45.18485937728146" lon="6.984194962493184"><ele>1412.3333333333333</ele><time>2026-04-19T15:20:02.001Z</time></trkpt><trkpt lat="45.18476254546402" lon="6.984443992785544"><ele>1417.6666666666665</ele><time>2026-04-19T15:20:03.001Z</time></trkpt><trkpt lat="45.18469195953919" lon="6.984702182603144"><ele>1423.0</ele><time>2026-04-19T15:20:04.001Z</time></trkpt><trkpt lat="45.18467218010156" lon="6.984996823562646"><ele>1421.0</ele><time>2026-04-19T15:20:05.001Z</time></trkpt><trkpt lat="45.1846798885212" lon="6.985292881995846"><ele>1419.0</ele><time>2026-04-19T15:20:06.001Z</time></trkpt><trkpt lat="45.18463290825522" lon="6.985559014125599"><ele>1417.0</ele><time>2026-04-19T15:20:07.001Z</time></trkpt><trkpt lat="45.18454748203071" lon="6.985834346707738"><ele>1407.5</ele><time>2026-04-19T15:20:08.001Z</time></trkpt><trkpt lat="45.18443632062572" lon="6.986118673269706"><ele>1398.0</ele><time>2026-04-19T15:20:09.001Z</time></trkpt><trkpt lat="45.184301791145465" lon="6.986378799665887"><ele>1398.0</ele><time>2026-04-19T15:20:10.001Z</time></trkpt><trkpt lat="45.184166509208836" lon="6.986661320159692"><ele>1398.0</ele><time>2026-04-19T15:20:11.001Z</time></trkpt><trkpt lat="45.18404197536301" lon="6.986923072987323"><ele>1398.6666666666667</ele><time>2026-04-19T15:20:12.001Z</time></trkpt><trkpt lat="45.18393192900157" lon="6.987155958565163"><ele>1399.3333333333335</ele><time>2026-04-19T15:20:13.001Z</time></trkpt><trkpt lat="45.183843477738144" lon="6.987346384789714"><ele>1400.0</ele><time>2026-04-19T15:20:14.001Z</time></trkpt><trkpt lat="45.183761892592614" lon="6.987495866087879"><ele>1393.75</ele><time>2026-04-19T15:20:15.001Z</time></trkpt><trkpt lat="45.18367106248734" lon="6.987593645651092"><ele>1387.5</ele><time>2026-04-19T15:20:16.001Z</time></trkpt><trkpt lat="45.183548194942965" lon="6.987633528008388"><ele>1381.25</ele><time>2026-04-19T15:20:17.001Z</time></trkpt><trkpt lat="45.18339769414791" lon="6.98760414782903"><ele>1375.0</ele><time>2026-04-19T15:20:18.001Z</time></trkpt><trkpt lat="45.183237694033714" lon="6.987576334927655"><ele>1386.25</ele><time>2026-04-19T15:20:19.001Z</time></trkpt><trkpt lat="45.18311787985137" lon="6.987625561908756"><ele>1397.5</ele><time>2026-04-19T15:20:20.001Z</time></trkpt><trkpt lat="45.18303980839152" lon="6.9877413749555695"><ele>1408.75</ele><time>2026-04-19T15:20:21.001Z</time></trkpt><trkpt lat="45.18296233344047" lon="6.987860621223466"><ele>1420.0</ele><time>2026-04-19T15:20:22.001Z</time></trkpt><trkpt lat="45.18298185482283" lon="6.98803661012363"><ele>1420.0</ele><time>2026-04-19T15:20:23.001Z</time></trkpt><trkpt lat="45.18298957847216" lon="6.9882434699539715"><ele>1420.0</ele><time>2026-04-19T15:20:24.001Z</time></trkpt><trkpt lat="45.18303124959075" lon="6.988440941540347"><ele>1420.0</ele><time>2026-04-19T15:20:25.001Z</time></trkpt><trkpt lat="45.18309790065424" lon="6.98861675733432"><ele>1420.0</ele><time>2026-04-19T15:20:26Z</time></trkpt><trkpt lat="45.18315791063746" lon="6.988762766936782"><ele>1418.2</ele><time>2026-04-19T15:20:27Z</time></trkpt><trkpt lat="45.18320178066734" lon="6.988892613525131"><ele>1416.4</ele><time>2026-04-19T15:20:28Z</time></trkpt><trkpt lat="45.1831987464719" lon="6.989022158195812"><ele>1414.6</ele><time>2026-04-19T15:20:29Z</time></trkpt><trkpt lat="45.18316379632442" lon="6.989150720854766"><ele>1412.8</ele><time>2026-04-19T15:20:30Z</time></trkpt><trkpt lat="45.18311780641383" lon="6.989281373730969"><ele>1411.0</ele><time>2026-04-19T15:20:31Z</time></trkpt><trkpt lat="45.18306114578532" lon="6.989426146825514"><ele>1405.25</ele><time>2026-04-19T15:20:32Z</time></trkpt><trkpt lat="45.18299809413881" lon="6.989575054280452"><ele>1399.5</ele><time>2026-04-19T15:20:33Z</time></trkpt><trkpt lat="45.182931656158395" lon="6.989725402058571"><ele>1393.75</ele><time>2026-04-19T15:20:34Z</time></trkpt><trkpt lat="45.18286276414844" lon="6.98987846509437"><ele>1388.0</ele><time>2026-04-19T15:20:35Z</time></trkpt><trkpt lat="45.18279316226214" lon="6.990031808334019"><ele>1381.75</ele><time>2026-04-19T15:20:36Z</time></trkpt><trkpt lat="45.18272141211818" lon="6.990189884532204"><ele>1375.5</ele><time>2026-04-19T15:20:37Z</time></trkpt><trkpt lat="45.18264580219496" lon="6.990355229534501"><ele>1369.25</ele><time>2026-04-19T15:20:38Z</time></trkpt><trkpt lat="45.18256275918394" lon="6.990536102137989"><ele>1363.0</ele><time>2026-04-19T15:20:39Z</time></trkpt><trkpt lat="45.18247704769762" lon="6.990722786666802"><ele>1367.3333333333333</ele><time>2026-04-19T15:20:40Z</time></trkpt><trkpt lat="45.18238635729936" lon="6.990923523919707"><ele>1371.6666666666667</ele><time>2026-04-19T15:20:41Z</time></trkpt><trkpt lat="45.18229333161198" lon="6.99112991974723"><ele>1376.0</ele><time>2026-04-19T15:20:42Z</time></trkpt><trkpt lat="45.182203654475956" lon="6.991327188709281"><ele>1376.0</ele><time>2026-04-19T15:20:43Z</time></trkpt><trkpt lat="45.1821094435119" lon="6.991529886950733"><ele>1376.0</ele><time>2026-04-19T15:20:44Z</time></trkpt><trkpt lat="45.1820104862127" lon="6.991747021823939"><ele>1376.0</ele><time>2026-04-19T15:20:45Z</time></trkpt><trkpt lat="45.181918941895546" lon="6.991986379756377"><ele>1369.0</ele><time>2026-04-19T15:20:46Z</time></trkpt><trkpt lat="45.18181539392954" lon="6.992216418527098"><ele>1362.0</ele><time>2026-04-19T15:20:47Z</time></trkpt><trkpt lat="45.18174940486061" lon="6.992468550189907"><ele>1355.0</ele><time>2026-04-19T15:20:48Z</time></trkpt><trkpt lat="45.181663930988" lon="6.9927327883977615"><ele>1354.3333333333335</ele><time>2026-04-19T15:20:49Z</time></trkpt><trkpt lat="45.18159345085631" lon="6.993022258316417"><ele>1353.6666666666667</ele><time>2026-04-19T15:20:50Z</time></trkpt><trkpt lat="45.1815234652271" lon="6.993317336883491"><ele>1353.0</ele><time>2026-04-19T15:20:51Z</time></trkpt><trkpt lat="45.18145330422361" lon="6.993613154883292"><ele>1353.0</ele><time>2026-04-19T15:20:52Z</time></trkpt><trkpt lat="45.18138594972112" lon="6.993891898515997"><ele>1353.0</ele><time>2026-04-19T15:20:53Z</time></trkpt><trkpt lat="45.18131538560204" lon="6.994152901919399"><ele>1353.0</ele><time>2026-04-19T15:20:54Z</time></trkpt><trkpt lat="45.18123219370474" lon="6.994396917081834"><ele>1345.3333333333333</ele><time>2026-04-19T15:20:55Z</time></trkpt><trkpt lat="45.18113939417096" lon="6.994626397640668"><ele>1337.6666666666665</ele><time>2026-04-19T15:20:56Z</time></trkpt><trkpt lat="45.181046711677034" lon="6.994842498230363"><ele>1330.0</ele><time>2026-04-19T15:20:57Z</time></trkpt><trkpt lat="45.18095666526604" lon="6.9950479901078735"><ele>1322.6666666666665</ele><time>2026-04-19T15:20:58Z</time></trkpt><trkpt lat="45.18085639429876" lon="6.99524558060197"><ele>1315.3333333333333</ele><time>2026-04-19T15:20:59Z</time></trkpt><trkpt lat="45.180723217179505" lon="6.995482568580824"><ele>1308.0</ele><time>2026-04-19T15:21:00Z</time></trkpt><trkpt lat="45.1805936579868" lon="6.995674599564374"><ele>1308.0</ele><time>2026-04-19T15:21:01Z</time></trkpt><trkpt lat="45.18046034012749" lon="6.9957711984596775"><ele>1308.0</ele><time>2026-04-19T15:21:02Z</time></trkpt><trkpt lat="45.18031551479736" lon="6.995802251453094"><ele>1308.0</ele><time>2026-04-19T15:21:03Z</time></trkpt><trkpt lat="45.18014126453257" lon="6.995790613788752"><ele>1308.0</ele><time>2026-04-19T15:21:04Z</time></trkpt><trkpt lat="45.17994889283085" lon="6.995746469557633"><ele>1308.0</ele><time>2026-04-19T15:21:05Z</time></trkpt><trkpt lat="45.179774042156644" lon="6.995690186857329"><ele>1308.0</ele><time>2026-04-19T15:21:06Z</time></trkpt><trkpt lat="45.17963623408373" lon="6.9955833883134435"><ele>1304.3333333333333</ele><time>2026-04-19T15:21:07Z</time></trkpt><trkpt lat="45.17950445574875" lon="6.995446868775341"><ele>1300.6666666666665</ele><time>2026-04-19T15:21:08Z</time></trkpt><trkpt lat="45.17936974857622" lon="6.995347975048755"><ele>1297.0</ele><time>2026-04-19T15:21:09Z</time></trkpt><trkpt lat="45.179239933488226" lon="6.995296862434573"><ele>1297.0</ele><time>2026-04-19T15:21:10Z</time></trkpt><trkpt lat="45.1791105248851" lon="6.99529011780855"><ele>1297.0</ele><time>2026-04-19T15:21:11Z</time></trkpt><trkpt lat="45.178983361437226" lon="6.995302897896113"><ele>1297.0</ele><time>2026-04-19T15:21:12Z</time></trkpt><trkpt lat="45.17887731416565" lon="6.995328755204928"><ele>1297.0</ele><time>2026-04-19T15:21:13Z</time></trkpt><trkpt lat="45.178767245015365" lon="6.995343866534233"><ele>1299.5</ele><time>2026-04-19T15:21:14Z</time></trkpt><trkpt lat="45.17866337008268" lon="6.995423998273049"><ele>1302.0</ele><time>2026-04-19T15:21:15Z</time></trkpt><trkpt lat="45.178573062270544" lon="6.9955220632672654"><ele>1304.5</ele><time>2026-04-19T15:21:16Z</time></trkpt><trkpt lat="45.17848034312338" lon="6.995621598629003"><ele>1307.0</ele><time>2026-04-19T15:21:17Z</time></trkpt><trkpt lat="45.17838058046149" lon="6.995724284218396"><ele>1307.0</ele><time>2026-04-19T15:21:18Z</time></trkpt><trkpt lat="45.17827303738151" lon="6.995826070193929"><ele>1307.0</ele><time>2026-04-19T15:21:19Z</time></trkpt><trkpt lat="45.17814730230112" lon="6.995919852141734"><ele>1307.0</ele><time>2026-04-19T15:21:20Z</time></trkpt><trkpt lat="45.17800480811324" lon="6.996010841571721"><ele>1307.0</ele><time>2026-04-19T15:21:21Z</time></trkpt><trkpt lat="45.1778298070008" lon="6.996112416238614"><ele>1300.3333333333335</ele><time>2026-04-19T15:21:22Z</time></trkpt><trkpt lat="45.17763930706273" lon="6.9962037915888695"><ele>1293.6666666666667</ele><time>2026-04-19T15:21:23Z</time></trkpt><trkpt lat="45.177431988697656" lon="6.9963544319812705"><ele>1287.0</ele><time>2026-04-19T15:21:24Z</time></trkpt><trkpt lat="45.17719422291082" lon="6.996438450329164"><ele>1287.0</ele><time>2026-04-19T15:21:25Z</time></trkpt><trkpt lat="45.17696117733494" lon="6.996571568047781"><ele>1287.0</ele><time>2026-04-19T15:21:26Z</time></trkpt><trkpt lat="45.17675041241588" lon="6.996727204184742"><ele>1283.0</ele><time>2026-04-19T15:21:27Z</time></trkpt><trkpt lat="45.17654672952724" lon="6.996796061078144"><ele>1279.0</ele><time>2026-04-19T15:21:28Z</time></trkpt><trkpt lat="45.176370056514784" lon="6.996891713766345"><ele>1275.0</ele><time>2026-04-19T15:21:29Z</time></trkpt><trkpt lat="45.17622637667071" lon="6.9970618844789785"><ele>1275.0</ele><time>2026-04-19T15:21:30Z</time></trkpt><trkpt lat="45.17608837965086" lon="6.99729143671246"><ele>1275.0</ele><time>2026-04-19T15:21:31Z</time></trkpt><trkpt lat="45.17594681743774" lon="6.997520777228149"><ele>1275.0</ele><time>2026-04-19T15:21:32Z</time></trkpt><trkpt lat="45.17583228287684" lon="6.997702659042987"><ele>1271.25</ele><time>2026-04-19T15:21:33Z</time></trkpt><trkpt lat="45.175728161766536" lon="6.997790295161071"><ele>1267.5</ele><time>2026-04-19T15:21:34.001Z</time></trkpt><trkpt lat="45.17562179759089" lon="6.997803903837595"><ele>1263.75</ele><time>2026-04-19T15:21:35.001Z</time></trkpt><trkpt lat="45.17547067480795" lon="6.997764468982283"><ele>1260.0</ele><time>2026-04-19T15:21:36.001Z</time></trkpt><trkpt lat="45.175299755486115" lon="6.99778828275704"><ele>1260.0</ele><time>2026-04-19T15:21:37.001Z</time></trkpt><trkpt lat="45.17513307319751" lon="6.997925500008234"><ele>1260.0</ele><time>2026-04-19T15:21:38.001Z</time></trkpt><trkpt lat="45.17496925427504" lon="6.998150834952551"><ele>1260.0</ele><time>2026-04-19T15:21:39.001Z</time></trkpt><trkpt lat="45.17478591132449" lon="6.998369655088529"><ele>1258.0</ele><time>2026-04-19T15:21:40.001Z</time></trkpt><trkpt lat="45.174596206340915" lon="6.998606923733519"><ele>1256.0</ele><time>2026-04-19T15:21:41.001Z</time></trkpt><trkpt lat="45.174391320590615" lon="6.998832075912046"><ele>1256.0</ele><time>2026-04-19T15:21:42.001Z</time></trkpt><trkpt lat="45.174204363687004" lon="6.9990487859360915"><ele>1256.0</ele><time>2026-04-19T15:21:43.001Z</time></trkpt><trkpt lat="45.1740872197182" lon="6.999305287986828"><ele>1253.3333333333335</ele><time>2026-04-19T15:21:44.001Z</time></trkpt><trkpt lat="45.17397715130213" lon="6.999533521042581"><ele>1250.6666666666667</ele><time>2026-04-19T15:21:45.001Z</time></trkpt><trkpt lat="45.17387068097099" lon="6.999699749748846"><ele>1248.0</ele><time>2026-04-19T15:21:46.001Z</time></trkpt><trkpt lat="45.173729257003195" lon="6.999839879916198"><ele>1248.0</ele><time>2026-04-19T15:21:47.001Z</time></trkpt><trkpt lat="45.17354284603504" lon="6.999982059514973"><ele>1248.0</ele><time>2026-04-19T15:21:48.001Z</time></trkpt><trkpt lat="45.173324538245204" lon="7.0001154674220905"><ele>1248.0</ele><time>2026-04-19T15:21:49.001Z</time></trkpt><trkpt lat="45.17308255267157" lon="7.000237163106604"><ele>1251.0</ele><time>2026-04-19T15:21:50.001Z</time></trkpt><trkpt lat="45.1728205048651" lon="7.000362034679914"><ele>1254.0</ele><time>2026-04-19T15:21:51.001Z</time></trkpt><trkpt lat="45.17254241405393" lon="7.000494551105042"><ele>1259.0</ele><time>2026-04-19T15:21:52.001Z</time></trkpt><trkpt lat="45.17229171373455" lon="7.000612692239319"><ele>1264.0</ele><time>2026-04-19T15:21:53.001Z</time></trkpt><trkpt lat="45.17208106436115" lon="7.000711165205749"><ele>1264.0</ele><time>2026-04-19T15:21:54.001Z</time></trkpt><trkpt lat="45.171901303560325" lon="7.0007950230422455"><ele>1264.0</ele><time>2026-04-19T15:21:55.001Z</time></trkpt><trkpt lat="45.17174560721623" lon="7.000855264802043"><ele>1264.0</ele><time>2026-04-19T15:21:56.001Z</time></trkpt><trkpt lat="45.17163450921666" lon="7.000907019728692"><ele>1259.0</ele><time>2026-04-19T15:21:57.001Z</time></trkpt><trkpt lat="45.17157006678617" lon="7.000944765941151"><ele>1254.0</ele><time>2026-04-19T15:21:58.001Z</time></trkpt><trkpt lat="45.171539333590296" lon="7.001039844284986"><ele>1249.0</ele><time>2026-04-19T15:21:59.001Z</time></trkpt><trkpt lat="45.17159911133487" lon="7.001178033271977"><ele>1244.0</ele><time>2026-04-19T15:22:00.001Z</time></trkpt><trkpt lat="45.17170671300593" lon="7.001240721874279"><ele>1239.0</ele><time>2026-04-19T15:22:01.001Z</time></trkpt><trkpt lat="45.17181649538218" lon="7.001235145385717"><ele>1239.0</ele><time>2026-04-19T15:22:02.001Z</time></trkpt><trkpt lat="45.17200671416526" lon="7.001143356992419"><ele>1239.0</ele><time>2026-04-19T15:22:03.001Z</time></trkpt><trkpt lat="45.17217448515142" lon="7.001104310369072"><ele>1239.0</ele><time>2026-04-19T15:22:04Z</time></trkpt><trkpt lat="45.172357145496974" lon="7.001105261933011"><ele>1235.6666666666667</ele><time>2026-04-19T15:22:05Z</time></trkpt><trkpt lat="45.172548549146796" lon="7.001153312831092"><ele>1232.3333333333335</ele><time>2026-04-19T15:22:06Z</time></trkpt><trkpt lat="45.172748298449136" lon="7.001241234435534"><ele>1229.0</ele><time>2026-04-19T15:22:07Z</time></trkpt><trkpt lat="45.17295336116795" lon="7.001345692646902"><ele>1229.0</ele><time>2026-04-19T15:22:08Z</time></trkpt><trkpt lat="45.173143909463235" lon="7.0014300157795555"><ele>1229.0</ele><time>2026-04-19T15:22:09Z</time></trkpt><trkpt lat="45.17332123669248" lon="7.001468564872519"><ele>1229.0</ele><time>2026-04-19T15:22:10Z</time></trkpt><trkpt lat="45.17350725168017" lon="7.001430196508005"><ele>1226.5</ele><time>2026-04-19T15:22:11Z</time></trkpt><trkpt lat="45.173714965689605" lon="7.001321031423788"><ele>1224.0</ele><time>2026-04-19T15:22:12Z</time></trkpt><trkpt lat="45.173929570600066" lon="7.001195460644186"><ele>1228.0</ele><time>2026-04-19T15:22:13Z</time></trkpt><trkpt lat="45.1741339339088" lon="7.001028938839694"><ele>1232.0</ele><time>2026-04-19T15:22:14Z</time></trkpt><trkpt lat="45.17430159982474" lon="7.0008134860820235"><ele>1232.0</ele><time>2026-04-19T15:22:15Z</time></trkpt><trkpt lat="45.17445305229965" lon="7.000583177355473"><ele>1232.0</ele><time>2026-04-19T15:22:16Z</time></trkpt><trkpt lat="45.17461243484012" lon="7.0004079632108125"><ele>1232.0</ele><time>2026-04-19T15:22:17Z</time></trkpt><trkpt lat="45.17475834037015" lon="7.000282720236139"><ele>1226.75</ele><time>2026-04-19T15:22:18Z</time></trkpt><trkpt lat="45.17488990290386" lon="7.0002316948181615"><ele>1221.5</ele><time>2026-04-19T15:22:19Z</time></trkpt><trkpt lat="45.17495476748068" lon="7.000182990580533"><ele>1216.25</ele><time>2026-04-19T15:22:20Z</time></trkpt><trkpt lat="45.17506898883345" lon="7.000309443612698"><ele>1211.0</ele><time>2026-04-19T15:22:22Z</time></trkpt><trkpt lat="45.175064510458895" lon="7.000446955235039"><ele>1211.0</ele><time>2026-04-19T15:22:23Z</time></trkpt><trkpt lat="45.17498532122096" lon="7.000574856142799"><ele>1211.0</ele><time>2026-04-19T15:22:24Z</time></trkpt><trkpt lat="45.17484082732135" lon="7.000634838088221"><ele>1211.0</ele><time>2026-04-19T15:22:25Z</time></trkpt><trkpt lat="45.174714661113995" lon="7.000749157712578"><ele>1211.0</ele><time>2026-04-19T15:22:26Z</time></trkpt><trkpt lat="45.174575758683226" lon="7.000882352162962"><ele>1209.3333333333335</ele><time>2026-04-19T15:22:27Z</time></trkpt><trkpt lat="45.17444553597723" lon="7.001072101254991"><ele>1207.6666666666667</ele><time>2026-04-19T15:22:28Z</time></trkpt><trkpt lat="45.17433818753903" lon="7.001310756607523"><ele>1206.0</ele><time>2026-04-19T15:22:29Z</time></trkpt><trkpt lat="45.174271076876664" lon="7.001571852733621"><ele>1206.3333333333333</ele><time>2026-04-19T15:22:30Z</time></trkpt><trkpt lat="45.17419458969865" lon="7.001834266324569"><ele>1206.6666666666665</ele><time>2026-04-19T15:22:31Z</time></trkpt><trkpt lat="45.1741027066569" lon="7.002029838735459"><ele>1207.0</ele><time>2026-04-19T15:22:32Z</time></trkpt><trkpt lat="45.17399321628859" lon="7.002207650168015"><ele>1207.0</ele><time>2026-04-19T15:22:33Z</time></trkpt><trkpt lat="45.17388255318281" lon="7.002382346708658"><ele>1207.0</ele><time>2026-04-19T15:22:34Z</time></trkpt><trkpt lat="45.17378104014269" lon="7.002557362562469"><ele>1207.0</ele><time>2026-04-19T15:22:35Z</time></trkpt><trkpt lat="45.17367910670066" lon="7.002722016976268"><ele>1200.3333333333333</ele><time>2026-04-19T15:22:36Z</time></trkpt><trkpt lat="45.173580106258015" lon="7.002887353533799"><ele>1193.6666666666667</ele><time>2026-04-19T15:22:37Z</time></trkpt><trkpt lat="45.173477012168355" lon="7.003048626845326"><ele>1187.0</ele><time>2026-04-19T15:22:38Z</time></trkpt><trkpt lat="45.17337074353242" lon="7.003192439546688"><ele>1187.0</ele><time>2026-04-19T15:22:39Z</time></trkpt><trkpt lat="45.173246859724436" lon="7.003304363429771"><ele>1187.0</ele><time>2026-04-19T15:22:40Z</time></trkpt><trkpt lat="45.173101680390765" lon="7.003342132671509"><ele>1187.0</ele><time>2026-04-19T15:22:41Z</time></trkpt><trkpt lat="45.17296238474501" lon="7.003338811241519"><ele>1187.0</ele><time>2026-04-19T15:22:42Z</time></trkpt><trkpt lat="45.172811275534606" lon="7.0032729053097595"><ele>1184.6666666666667</ele><time>2026-04-19T15:22:43Z</time></trkpt><trkpt lat="45.17264554171412" lon="7.003206764450964"><ele>1182.3333333333333</ele><time>2026-04-19T15:22:44Z</time></trkpt><trkpt lat="45.17248244728501" lon="7.0031100088202844"><ele>1180.0</ele><time>2026-04-19T15:22:45Z</time></trkpt><trkpt lat="45.172312928638775" lon="7.003033139757741"><ele>1176.6666666666665</ele><time>2026-04-19T15:22:46Z</time></trkpt><trkpt lat="45.172135244561176" lon="7.002954063238419"><ele>1173.3333333333333</ele><time>2026-04-19T15:22:47Z</time></trkpt><trkpt lat="45.171958082249716" lon="7.0028749825781205"><ele>1170.0</ele><time>2026-04-19T15:22:48Z</time></trkpt><trkpt lat="45.17177235618349" lon="7.002794457160719"><ele>1170.0</ele><time>2026-04-19T15:22:49Z</time></trkpt><trkpt lat="45.17158947009075" lon="7.002710436902062"><ele>1170.0</ele><time>2026-04-19T15:22:50Z</time></trkpt><trkpt lat="45.17140532840476" lon="7.002631249935611"><ele>1170.0</ele><time>2026-04-19T15:22:51Z</time></trkpt><trkpt lat="45.17123438971721" lon="7.002536914053491"><ele>1178.3333333333333</ele><time>2026-04-19T15:22:52Z</time></trkpt><trkpt lat="45.171064990812184" lon="7.002460017945028"><ele>1186.6666666666665</ele><time>2026-04-19T15:22:53Z</time></trkpt><trkpt lat="45.170902269311505" lon="7.002404078693345"><ele>1195.0</ele><time>2026-04-19T15:22:54Z</time></trkpt><trkpt lat="45.17076580323907" lon="7.002317998859892"><ele>1177.6666666666665</ele><time>2026-04-19T15:22:55Z</time></trkpt><trkpt lat="45.17064312522627" lon="7.002183221408584"><ele>1160.3333333333333</ele><time>2026-04-19T15:22:56Z</time></trkpt><trkpt lat="45.17051468337931" lon="7.001989859743299"><ele>1143.0</ele><time>2026-04-19T15:22:57Z</time></trkpt><trkpt lat="45.17039119494657" lon="7.001812561813541"><ele>1150.6666666666667</ele><time>2026-04-19T15:22:58Z</time></trkpt><trkpt lat="45.170268699838516" lon="7.001658697072357"><ele>1158.3333333333335</ele><time>2026-04-19T15:22:59Z</time></trkpt><trkpt lat="45.170072971596575" lon="7.001522685547848"><ele>1166.0</ele><time>2026-04-19T15:23:00Z</time></trkpt><trkpt lat="45.169857972831025" lon="7.001424556116145"><ele>1166.0</ele><time>2026-04-19T15:23:01Z</time></trkpt><trkpt lat="45.16964845591442" lon="7.0013374113514715"><ele>1166.0</ele><time>2026-04-19T15:23:02Z</time></trkpt><trkpt lat="45.16938885625009" lon="7.001229435368098"><ele>1166.0</ele><time>2026-04-19T15:23:03Z</time></trkpt><trkpt lat="45.169146748514486" lon="7.001128734930246"><ele>1166.0</ele><time>2026-04-19T15:23:04Z</time></trkpt><trkpt lat="45.16889937125455" lon="7.001025601234227"><ele>1146.0</ele><time>2026-04-19T15:23:05Z</time></trkpt><trkpt lat="45.16864577173562" lon="7.0009249956908475"><ele>1126.0</ele><time>2026-04-19T15:23:06Z</time></trkpt><trkpt lat="45.168430183910026" lon="7.000837326555022"><ele>1136.5</ele><time>2026-04-19T15:23:07Z</time></trkpt><trkpt lat="45.16817010407136" lon="7.000737752581459"><ele>1147.0</ele><time>2026-04-19T15:23:08Z</time></trkpt><trkpt lat="45.167928936461315" lon="7.000638483408714"><ele>1147.0</ele><time>2026-04-19T15:23:09Z</time></trkpt><trkpt lat="45.16770287500686" lon="7.0005363298618555"><ele>1147.0</ele><time>2026-04-19T15:23:10Z</time></trkpt><trkpt lat="45.167478890494586" lon="7.0004388229404055"><ele>1131.6666666666665</ele><time>2026-04-19T15:23:11Z</time></trkpt><trkpt lat="45.167266999063706" lon="7.000337266909692"><ele>1116.3333333333333</ele><time>2026-04-19T15:23:12Z</time></trkpt><trkpt lat="45.16707725698354" lon="7.000187408990762"><ele>1101.0</ele><time>2026-04-19T15:23:13Z</time></trkpt><trkpt lat="45.16688214614767" lon="7.000001747361216"><ele>1101.0</ele><time>2026-04-19T15:23:14Z</time></trkpt><trkpt lat="45.16667398083518" lon="6.999800217864222"><ele>1101.0</ele><time>2026-04-19T15:23:15Z</time></trkpt><trkpt lat="45.16646626785559" lon="6.999602139173522"><ele>1094.0</ele><time>2026-04-19T15:23:16Z</time></trkpt><trkpt lat="45.166270448967175" lon="6.999441191731842"><ele>1087.0</ele><time>2026-04-19T15:23:17Z</time></trkpt><trkpt lat="45.166116338918386" lon="6.999290042810143"><ele>1080.0</ele><time>2026-04-19T15:23:18Z</time></trkpt><trkpt lat="45.16596641072671" lon="6.999199131272138"><ele>1080.0</ele><time>2026-04-19T15:23:19Z</time></trkpt><trkpt lat="45.16579272731466" lon="6.999195181727613"><ele>1080.0</ele><time>2026-04-19T15:23:20Z</time></trkpt><trkpt lat="45.16561631663158" lon="6.999281807804086"><ele>1080.0</ele><time>2026-04-19T15:23:21Z</time></trkpt><trkpt lat="45.16546274729148" lon="6.999432682421497"><ele>1080.6666666666667</ele><time>2026-04-19T15:23:22Z</time></trkpt><trkpt lat="45.165311653777394" lon="6.999445513412976"><ele>1081.3333333333335</ele><time>2026-04-19T15:23:23Z</time></trkpt><trkpt lat="45.16514506966498" lon="6.999393638156186"><ele>1082.0</ele><time>2026-04-19T15:23:24Z</time></trkpt><trkpt lat="45.16495364160891" lon="6.999377646470093"><ele>1079.0</ele><time>2026-04-19T15:23:25Z</time></trkpt><trkpt lat="45.1647398220835" lon="6.999391777201496"><ele>1076.0</ele><time>2026-04-19T15:23:26Z</time></trkpt><trkpt lat="45.16457576619792" lon="6.999363287967224"><ele>1073.0</ele><time>2026-04-19T15:23:27Z</time></trkpt><trkpt lat="45.16443685922281" lon="6.999261509853127"><ele>1076.0</ele><time>2026-04-19T15:23:28Z</time></trkpt><trkpt lat="45.164263812055175" lon="6.999124657184939"><ele>1079.0</ele><time>2026-04-19T15:23:29Z</time></trkpt><trkpt lat="45.16408555129332" lon="6.998982692866457"><ele>1082.0</ele><time>2026-04-19T15:23:30Z</time></trkpt><trkpt lat="45.16389947151989" lon="6.998834501518273"><ele>1082.0</ele><time>2026-04-19T15:23:31Z</time></trkpt><trkpt lat="45.16370553970936" lon="6.99868005706605"><ele>1082.0</ele><time>2026-04-19T15:23:32Z</time></trkpt><trkpt lat="45.163522665943745" lon="6.998534418926027"><ele>1082.0</ele><time>2026-04-19T15:23:33Z</time></trkpt><trkpt lat="45.16334895619554" lon="6.99840243088847"><ele>1084.0</ele><time>2026-04-19T15:23:34Z</time></trkpt><trkpt lat="45.163176607947825" lon="6.998292993515968"><ele>1086.0</ele><time>2026-04-19T15:23:35Z</time></trkpt><trkpt lat="45.162995043475384" lon="6.998237314994191"><ele>1088.0</ele><time>2026-04-19T15:23:36Z</time></trkpt><trkpt lat="45.1628107976828" lon="6.998174554160269"><ele>1088.0</ele><time>2026-04-19T15:23:37Z</time></trkpt><trkpt lat="45.16263389315928" lon="6.99809057490451"><ele>1088.0</ele><time>2026-04-19T15:23:38Z</time></trkpt><trkpt lat="45.162469728534234" lon="6.998023813389047"><ele>1088.0</ele><time>2026-04-19T15:23:39Z</time></trkpt><trkpt lat="45.16232592432029" lon="6.997945056808831"><ele>1085.25</ele><time>2026-04-19T15:23:40.001Z</time></trkpt><trkpt lat="45.162202281098864" lon="6.99784393101815"><ele>1082.5</ele><time>2026-04-19T15:23:41.001Z</time></trkpt><trkpt lat="45.16208671740787" lon="6.997746525819167"><ele>1079.75</ele><time>2026-04-19T15:23:42.001Z</time></trkpt><trkpt lat="45.16198674423465" lon="6.997664562820613"><ele>1077.0</ele><time>2026-04-19T15:23:43.001Z</time></trkpt><trkpt lat="45.16190114905737" lon="6.997598265539574"><ele>1077.0</ele><time>2026-04-19T15:23:44.001Z</time></trkpt><trkpt lat="45.16183226912668" lon="6.997552626436516"><ele>1077.0</ele><time>2026-04-19T15:23:45.001Z</time></trkpt><trkpt lat="45.16172256017649" lon="6.997502391698388"><ele>1077.0</ele><time>2026-04-19T15:23:47.001Z</time></trkpt><trkpt lat="45.16166010288155" lon="6.997486765965989"><ele>1077.0</ele><time>2026-04-19T15:24:13Z</time></trkpt><trkpt lat="45.16155881272304" lon="6.997471805826593"><ele>1077.0</ele><time>2026-04-19T15:24:15Z</time></trkpt><trkpt lat="45.16145964847944" lon="6.997469544872669"><ele>1079.5</ele><time>2026-04-19T15:24:16Z</time></trkpt><trkpt lat="45.161337955877755" lon="6.997470398164889"><ele>1082.0</ele><time>2026-04-19T15:24:17Z</time></trkpt><trkpt lat="45.1612157415857" lon="6.9974675536956505"><ele>1084.5</ele><time>2026-04-19T15:24:18Z</time></trkpt><trkpt lat="45.16108572731387" lon="6.997439092986161"><ele>1087.0</ele><time>2026-04-19T15:24:19Z</time></trkpt><trkpt lat="45.16095389082046" lon="6.997364378392012"><ele>1087.0</ele><time>2026-04-19T15:24:20Z</time></trkpt><trkpt lat="45.16082873366732" lon="6.997235427562594"><ele>1087.0</ele><time>2026-04-19T15:24:21Z</time></trkpt><trkpt lat="45.160695371169965" lon="6.9970902278869085"><ele>1087.0</ele><time>2026-04-19T15:24:22Z</time></trkpt><trkpt lat="45.16056487720456" lon="6.99694379012889"><ele>1081.0</ele><time>2026-04-19T15:24:23Z</time></trkpt><trkpt lat="45.160442431503554" lon="6.996812783453392"><ele>1075.0</ele><time>2026-04-19T15:24:24Z</time></trkpt><trkpt lat="45.16030708851028" lon="6.99674936440984"><ele>1069.0</ele><time>2026-04-19T15:24:25Z</time></trkpt><trkpt lat="45.160145983442106" lon="6.996752770932518"><ele>1069.0</ele><time>2026-04-19T15:24:26Z</time></trkpt><trkpt lat="45.15996570659489" lon="6.996858947557887"><ele>1069.0</ele><time>2026-04-19T15:24:27Z</time></trkpt><trkpt lat="45.15979858173983" lon="6.996939306229518"><ele>1069.0</ele><time>2026-04-19T15:24:28Z</time></trkpt><trkpt lat="45.159659285789026" lon="6.996955336309077"><ele>1063.5</ele><time>2026-04-19T15:24:29Z</time></trkpt><trkpt lat="45.159501460357134" lon="6.996942235711752"><ele>1058.0</ele><time>2026-04-19T15:24:30Z</time></trkpt><trkpt lat="45.159370071335175" lon="6.9968692115936815"><ele>1052.5</ele><time>2026-04-19T15:24:31Z</time></trkpt><trkpt lat="45.159276429952826" lon="6.996746047178558"><ele>1047.0</ele><time>2026-04-19T15:24:32Z</time></trkpt><trkpt lat="45.15916633236317" lon="6.99656951427549"><ele>1054.3333333333333</ele><time>2026-04-19T15:24:33Z</time></trkpt><trkpt lat="45.159041785026645" lon="6.996376383469919"><ele>1061.6666666666665</ele><time>2026-04-19T15:24:34Z</time></trkpt><trkpt lat="45.15889172888091" lon="6.996228609125497"><ele>1069.0</ele><time>2026-04-19T15:24:35Z</time></trkpt><trkpt lat="45.158699675469876" lon="6.996329788463071"><ele>1069.0</ele><time>2026-04-19T15:24:36Z</time></trkpt><trkpt lat="45.158525748331954" lon="6.996331246292802"><ele>1069.0</ele><time>2026-04-19T15:24:37Z</time></trkpt><trkpt lat="45.15835203706232" lon="6.996225029507767"><ele>1069.0</ele><time>2026-04-19T15:24:38Z</time></trkpt><trkpt lat="45.15813587956784" lon="6.996102095156163"><ele>1056.5</ele><time>2026-04-19T15:24:39Z</time></trkpt><trkpt lat="45.15789190230391" lon="6.995985809492346"><ele>1044.0</ele><time>2026-04-19T15:24:40Z</time></trkpt><trkpt lat="45.157687477816474" lon="6.995864279770806"><ele>1046.3333333333333</ele><time>2026-04-19T15:24:41Z</time></trkpt><trkpt lat="45.1574866307682" lon="6.995803712886932"><ele>1048.6666666666665</ele><time>2026-04-19T15:24:42Z</time></trkpt><trkpt lat="45.1572991678997" lon="6.995815807687055"><ele>1051.0</ele><time>2026-04-19T15:24:43Z</time></trkpt><trkpt lat="45.15714086407984" lon="6.995750841436823"><ele>1051.0</ele><time>2026-04-19T15:24:44Z</time></trkpt><trkpt lat="45.15702585378481" lon="6.995629548877239"><ele>1051.0</ele><time>2026-04-19T15:24:45Z</time></trkpt><trkpt lat="45.15685663747672" lon="6.995432144093839"><ele>1051.0</ele><time>2026-04-19T15:24:46Z</time></trkpt><trkpt lat="45.156693840098114" lon="6.995240976444482"><ele>1050.0</ele><time>2026-04-19T15:24:47Z</time></trkpt><trkpt lat="45.15649360241831" lon="6.99500734083226"><ele>1049.0</ele><time>2026-04-19T15:24:48Z</time></trkpt><trkpt lat="45.156315277980575" lon="6.99478669111696"><ele>1049.0</ele><time>2026-04-19T15:24:49Z</time></trkpt><trkpt lat="45.15619333470471" lon="6.9945823747117215"><ele>1049.0</ele><time>2026-04-19T15:24:50Z</time></trkpt><trkpt lat="45.15606345210663" lon="6.994373772315699"><ele>1049.0</ele><time>2026-04-19T15:24:51Z</time></trkpt><trkpt lat="45.15592984892758" lon="6.994252293340887"><ele>1049.0</ele><time>2026-04-19T15:24:52Z</time></trkpt><trkpt lat="45.155747927941086" lon="6.994175614043607"><ele>1049.0</ele><time>2026-04-19T15:24:53Z</time></trkpt><trkpt lat="45.15553882335882" lon="6.994112906765338"><ele>1049.0</ele><time>2026-04-19T15:24:54Z</time></trkpt><trkpt lat="45.15535969171799" lon="6.994019271001349"><ele>1051.6666666666667</ele><time>2026-04-19T15:24:55Z</time></trkpt><trkpt lat="45.1551991696547" lon="6.993870873793347"><ele>1054.3333333333333</ele><time>2026-04-19T15:24:56Z</time></trkpt><trkpt lat="45.15505590628762" lon="6.993671249496872"><ele>1057.0</ele><time>2026-04-19T15:24:57Z</time></trkpt><trkpt lat="45.1549040493367" lon="6.993462742002435"><ele>1066.0</ele><time>2026-04-19T15:24:58Z</time></trkpt><trkpt lat="45.15472766947461" lon="6.993336628672055"><ele>1075.0</ele><time>2026-04-19T15:24:59Z</time></trkpt><trkpt lat="45.15456694940288" lon="6.993279871901968"><ele>1084.0</ele><time>2026-04-19T15:25:00Z</time></trkpt><trkpt lat="45.154391234358805" lon="6.993288823670149"><ele>1091.3333333333333</ele><time>2026-04-19T15:25:01Z</time></trkpt><trkpt lat="45.15424704730157" lon="6.993351572856603"><ele>1098.6666666666667</ele><time>2026-04-19T15:25:02Z</time></trkpt><trkpt lat="45.15410901587653" lon="6.993528503271289"><ele>1106.0</ele><time>2026-04-19T15:25:03Z</time></trkpt><trkpt lat="45.154011083631026" lon="6.993780835431901"><ele>1106.0</ele><time>2026-04-19T15:25:04Z</time></trkpt><trkpt lat="45.15387676135256" lon="6.994117696044845"><ele>1106.0</ele><time>2026-04-19T15:25:05Z</time></trkpt><trkpt lat="45.15372439049113" lon="6.994356583677154"><ele>1098.6666666666667</ele><time>2026-04-19T15:25:06Z</time></trkpt><trkpt lat="45.15364306931683" lon="6.99464190156625"><ele>1091.3333333333333</ele><time>2026-04-19T15:25:07Z</time></trkpt><trkpt lat="45.15363229954899" lon="6.994904484737285"><ele>1084.0</ele><time>2026-04-19T15:25:08Z</time></trkpt><trkpt lat="45.15359229996102" lon="6.995180686400624"><ele>1074.5</ele><time>2026-04-19T15:25:09Z</time></trkpt><trkpt lat="45.15349706877875" lon="6.995449924488263"><ele>1065.0</ele><time>2026-04-19T15:25:10Z</time></trkpt><trkpt lat="45.15336895576456" lon="6.995746526232312"><ele>1070.0</ele><time>2026-04-19T15:25:11Z</time></trkpt><trkpt lat="45.153219245292156" lon="6.996009778214294"><ele>1075.0</ele><time>2026-04-19T15:25:12Z</time></trkpt><trkpt lat="45.153043720839285" lon="6.996260664532573"><ele>1075.0</ele><time>2026-04-19T15:25:13Z</time></trkpt><trkpt lat="45.15284384029724" lon="6.9965276891700965"><ele>1075.0</ele><time>2026-04-19T15:25:14Z</time></trkpt><trkpt lat="45.15269489954715" lon="6.996870217686141"><ele>1081.5</ele><time>2026-04-19T15:25:15Z</time></trkpt><trkpt lat="45.15250683094811" lon="6.997118294591489"><ele>1088.0</ele><time>2026-04-19T15:25:16Z</time></trkpt><trkpt lat="45.15231774303212" lon="6.997383604347745"><ele>1073.0</ele><time>2026-04-19T15:25:17Z</time></trkpt><trkpt lat="45.1521820345525" lon="6.997687482521038"><ele>1058.0</ele><time>2026-04-19T15:25:18Z</time></trkpt><trkpt lat="45.15211903021213" lon="6.997980883845186"><ele>1058.0</ele><time>2026-04-19T15:25:19Z</time></trkpt><trkpt lat="45.15205441822862" lon="6.998214607817189"><ele>1058.0</ele><time>2026-04-19T15:25:20Z</time></trkpt><trkpt lat="45.151963248179584" lon="6.998373773724159"><ele>1058.0</ele><time>2026-04-19T15:25:21Z</time></trkpt><trkpt lat="45.15182989377789" lon="6.998492950462308"><ele>1049.0</ele><time>2026-04-19T15:25:22Z</time></trkpt><trkpt lat="45.151641130606556" lon="6.998662920018861"><ele>1040.0</ele><time>2026-04-19T15:25:23Z</time></trkpt><trkpt lat="45.15143549952514" lon="6.998847066605474"><ele>1040.0</ele><time>2026-04-19T15:25:24Z</time></trkpt><trkpt lat="45.15123633569542" lon="6.99902536796185"><ele>1040.0</ele><time>2026-04-19T15:25:25Z</time></trkpt><trkpt lat="45.15105332210643" lon="6.999173644909315"><ele>1040.0</ele><time>2026-04-19T15:25:26Z</time></trkpt><trkpt lat="45.15087834781694" lon="6.999261256355669"><ele>1032.3333333333335</ele><time>2026-04-19T15:25:27Z</time></trkpt><trkpt lat="45.15067699652381" lon="6.9992972907701585"><ele>1024.6666666666667</ele><time>2026-04-19T15:25:28Z</time></trkpt><trkpt lat="45.150458227198364" lon="6.999354884354121"><ele>1017.0</ele><time>2026-04-19T15:25:29Z</time></trkpt><trkpt lat="45.15023709866975" lon="6.999479865401064"><ele>1017.0</ele><time>2026-04-19T15:25:30Z</time></trkpt><trkpt lat="45.15001487690655" lon="6.999671056377797"><ele>1017.0</ele><time>2026-04-19T15:25:31Z</time></trkpt><trkpt lat="45.149806795550354" lon="6.999856362663378"><ele>1019.6666666666667</ele><time>2026-04-19T15:25:32Z</time></trkpt><trkpt lat="45.14964876953305" lon="6.999972843491432"><ele>1022.3333333333334</ele><time>2026-04-19T15:25:33Z</time></trkpt><trkpt lat="45.149471908887655" lon="7.000042051342532"><ele>1025.0</ele><time>2026-04-19T15:25:34Z</time></trkpt><trkpt lat="45.14927099128382" lon="7.000064327060015"><ele>1025.0</ele><time>2026-04-19T15:25:35Z</time></trkpt><trkpt lat="45.14909167160173" lon="7.000149613174437"><ele>1025.0</ele><time>2026-04-19T15:25:36Z</time></trkpt><trkpt lat="45.148932322688445" lon="7.00032163296843"><ele>1025.0</ele><time>2026-04-19T15:25:37Z</time></trkpt><trkpt lat="45.14878436439257" lon="7.000501843076871"><ele>1031.5</ele><time>2026-04-19T15:25:38Z</time></trkpt><trkpt lat="45.14856521344562" lon="7.000716663772071"><ele>1038.0</ele><time>2026-04-19T15:25:39Z</time></trkpt><trkpt lat="45.148376380213264" lon="7.0008506076227235"><ele>1029.5</ele><time>2026-04-19T15:25:40Z</time></trkpt><trkpt lat="45.148172971629975" lon="7.000869204497085"><ele>1021.0</ele><time>2026-04-19T15:25:41Z</time></trkpt><trkpt lat="45.14792829101234" lon="7.000913200363389"><ele>1021.0</ele><time>2026-04-19T15:25:42Z</time></trkpt><trkpt lat="45.14768351771403" lon="7.001037282228744"><ele>1021.0</ele><time>2026-04-19T15:25:43Z</time></trkpt><trkpt lat="45.14743746701995" lon="7.001208296279531"><ele>1027.5</ele><time>2026-04-19T15:25:44Z</time></trkpt><trkpt lat="45.14719056051599" lon="7.001419097066702"><ele>1034.0</ele><time>2026-04-19T15:25:45Z</time></trkpt><trkpt lat="45.146932264627715" lon="7.0016375102279005"><ele>1025.0</ele><time>2026-04-19T15:25:46Z</time></trkpt><trkpt lat="45.14667143613076" lon="7.001844698520131"><ele>1016.0</ele><time>2026-04-19T15:25:47Z</time></trkpt><trkpt lat="45.14643323125917" lon="7.00203024258738"><ele>1016.0</ele><time>2026-04-19T15:25:48Z</time></trkpt><trkpt lat="45.14621812006869" lon="7.002216679329521"><ele>1016.0</ele><time>2026-04-19T15:25:49Z</time></trkpt><trkpt lat="45.14601532380216" lon="7.002391882281444"><ele>1006.6666666666667</ele><time>2026-04-19T15:25:50Z</time></trkpt><trkpt lat="45.145846380920815" lon="7.002570371085497"><ele>997.3333333333333</ele><time>2026-04-19T15:25:51Z</time></trkpt><trkpt lat="45.14566593043652" lon="7.002684854564266"><ele>988.0</ele><time>2026-04-19T15:25:52Z</time></trkpt><trkpt lat="45.14543882406486" lon="7.002710198437515"><ele>988.0</ele><time>2026-04-19T15:25:53Z</time></trkpt><trkpt lat="45.145231521802295" lon="7.002854261985299"><ele>988.0</ele><time>2026-04-19T15:25:54Z</time></trkpt><trkpt lat="45.145031979541955" lon="7.003028112994881"><ele>989.5</ele><time>2026-04-19T15:25:55Z</time></trkpt><trkpt lat="45.14486270036224" lon="7.003256257975851"><ele>991.0</ele><time>2026-04-19T15:25:56Z</time></trkpt><trkpt lat="45.144686174564306" lon="7.003433174341035"><ele>983.0</ele><time>2026-04-19T15:25:57Z</time></trkpt><trkpt lat="45.14451023317011" lon="7.003569518349684"><ele>975.0</ele><time>2026-04-19T15:25:58Z</time></trkpt><trkpt lat="45.144332445240565" lon="7.003673017657601"><ele>967.0</ele><time>2026-04-19T15:25:59Z</time></trkpt><trkpt lat="45.144155443589064" lon="7.003720274287722"><ele>963.3333333333333</ele><time>2026-04-19T15:26:00Z</time></trkpt><trkpt lat="45.14398033583818" lon="7.003715317113862"><ele>959.6666666666667</ele><time>2026-04-19T15:26:01Z</time></trkpt><trkpt lat="45.14380917255435" lon="7.003656610574629"><ele>956.0</ele><time>2026-04-19T15:26:02Z</time></trkpt><trkpt lat="45.143621222709506" lon="7.003554049807335"><ele>956.0</ele><time>2026-04-19T15:26:03Z</time></trkpt><trkpt lat="45.143411814284356" lon="7.003423207840423"><ele>956.0</ele><time>2026-04-19T15:26:04Z</time></trkpt><trkpt lat="45.14319642313797" lon="7.003284871541634"><ele>959.0</ele><time>2026-04-19T15:26:05Z</time></trkpt><trkpt lat="45.14296206032004" lon="7.003171496913022"><ele>962.0</ele><time>2026-04-19T15:26:06Z</time></trkpt><trkpt lat="45.1427229788471" lon="7.003152376036366"><ele>962.0</ele><time>2026-04-19T15:26:07Z</time></trkpt><trkpt lat="45.14250426301208" lon="7.003117571365172"><ele>962.0</ele><time>2026-04-19T15:26:08Z</time></trkpt><trkpt lat="45.142336886291304" lon="7.003057451868364"><ele>962.0</ele><time>2026-04-19T15:26:09Z</time></trkpt><trkpt lat="45.142185761984905" lon="7.002939616595048"><ele>954.0</ele><time>2026-04-19T15:26:10Z</time></trkpt><trkpt lat="45.14201465791517" lon="7.0027777828071605"><ele>946.0</ele><time>2026-04-19T15:26:11Z</time></trkpt><trkpt lat="45.14183242110303" lon="7.002608879736459"><ele>938.0</ele><time>2026-04-19T15:26:12Z</time></trkpt><trkpt lat="45.141687675891404" lon="7.002502702211884"><ele>937.4</ele><time>2026-04-19T15:26:13Z</time></trkpt><trkpt lat="45.14160185696695" lon="7.002408791426809"><ele>936.8</ele><time>2026-04-19T15:26:14Z</time></trkpt><trkpt lat="45.14153437882559" lon="7.002379028694546"><ele>936.2</ele><time>2026-04-19T15:26:15Z</time></trkpt><trkpt lat="45.141481009970896" lon="7.002449075830533"><ele>935.6</ele><time>2026-04-19T15:26:16Z</time></trkpt><trkpt lat="45.14140649216782" lon="7.002461658570398"><ele>935.0</ele><time>2026-04-19T15:26:17Z</time></trkpt><trkpt lat="45.14149253701596" lon="7.002706690020087"><ele>935.75</ele><time>2026-04-19T15:26:18Z</time></trkpt><trkpt lat="45.141607998798825" lon="7.002829512142418"><ele>936.5</ele><time>2026-04-19T15:26:19Z</time></trkpt><trkpt lat="45.141717825876775" lon="7.002936334208766"><ele>937.25</ele><time>2026-04-19T15:26:20Z</time></trkpt><trkpt lat="45.14183918825836" lon="7.003068807490657"><ele>938.0</ele><time>2026-04-19T15:26:21Z</time></trkpt><trkpt lat="45.14197714298116" lon="7.003240777980957"><ele>938.5</ele><time>2026-04-19T15:26:22Z</time></trkpt><trkpt lat="45.14209969796883" lon="7.003391650945356"><ele>939.0</ele><time>2026-04-19T15:26:23Z</time></trkpt><trkpt lat="45.1422071833047" lon="7.003532476321723"><ele>939.5</ele><time>2026-04-19T15:26:24Z</time></trkpt><trkpt lat="45.14230729862309" lon="7.003672678405311"><ele>940.0</ele><time>2026-04-19T15:26:25Z</time></trkpt><trkpt lat="45.14240947134141" lon="7.003806029829086"><ele>940.0</ele><time>2026-04-19T15:26:26Z</time></trkpt><trkpt lat="45.14250378605097" lon="7.003944585808895"><ele>940.0</ele><time>2026-04-19T15:26:27Z</time></trkpt><trkpt lat="45.142564237414014" lon="7.00411301964115"><ele>940.0</ele><time>2026-04-19T15:26:28Z</time></trkpt><trkpt lat="45.14260265080584" lon="7.004284548860619"><ele>940.0</ele><time>2026-04-19T15:26:29Z</time></trkpt><trkpt lat="45.14264073151436" lon="7.004469461549356"><ele>933.0</ele><time>2026-04-19T15:26:30Z</time></trkpt><trkpt lat="45.142683869059454" lon="7.0046879956976245"><ele>926.0</ele><time>2026-04-19T15:26:31Z</time></trkpt><trkpt lat="45.1427317808791" lon="7.0049219870927875"><ele>919.0</ele><time>2026-04-19T15:26:32Z</time></trkpt><trkpt lat="45.14280315129429" lon="7.005157726063737"><ele>915.0</ele><time>2026-04-19T15:26:33Z</time></trkpt><trkpt lat="45.14286312878581" lon="7.005382560010535"><ele>911.0</ele><time>2026-04-19T15:26:34Z</time></trkpt><trkpt lat="45.1429671697681" lon="7.005576374744247"><ele>907.0</ele><time>2026-04-19T15:26:35Z</time></trkpt><trkpt lat="45.14312757910047" lon="7.005739042931466"><ele>907.3333333333333</ele><time>2026-04-19T15:26:36Z</time></trkpt><trkpt lat="45.143298847902074" lon="7.0058991088842655"><ele>907.6666666666667</ele><time>2026-04-19T15:26:37Z</time></trkpt><trkpt lat="45.14350950165868" lon="7.0060052537256725"><ele>908.0</ele><time>2026-04-19T15:26:38Z</time></trkpt><trkpt lat="45.143721952546414" lon="7.006108868722194"><ele>908.0</ele><time>2026-04-19T15:26:39Z</time></trkpt><trkpt lat="45.143914525924174" lon="7.006228981105952"><ele>908.0</ele><time>2026-04-19T15:26:40Z</time></trkpt><trkpt lat="45.1440935647793" lon="7.00635393890493"><ele>908.0</ele><time>2026-04-19T15:26:41Z</time></trkpt><trkpt lat="45.144220394472406" lon="7.006544183599339"><ele>904.75</ele><time>2026-04-19T15:26:42Z</time></trkpt><trkpt lat="45.14434025310827" lon="7.0067172381835805"><ele>901.5</ele><time>2026-04-19T15:26:43Z</time></trkpt><trkpt lat="45.1444429815385" lon="7.006844673643075"><ele>898.25</ele><time>2026-04-19T15:26:44Z</time></trkpt><trkpt lat="45.1444885173787" lon="7.006915725421329"><ele>895.0</ele><time>2026-04-19T15:26:45Z</time></trkpt><trkpt lat="45.14448038504688" lon="7.007066833365377"><ele>895.0</ele><time>2026-04-19T15:26:47Z</time></trkpt><trkpt lat="45.144388321887384" lon="7.007079753627628"><ele>895.0</ele><time>2026-04-19T15:26:48Z</time></trkpt><trkpt lat="45.14430741310169" lon="7.006987225144341"><ele>895.0</ele><time>2026-04-19T15:26:49Z</time></trkpt><trkpt lat="45.1442285622872" lon="7.006847482041654"><ele>895.0</ele><time>2026-04-19T15:26:50Z</time></trkpt><trkpt lat="45.14412658513338" lon="7.006725659842913"><ele>899.3333333333333</ele><time>2026-04-19T15:26:51Z</time></trkpt><trkpt lat="45.144003893592455" lon="7.0066346071325425"><ele>903.6666666666667</ele><time>2026-04-19T15:26:52Z</time></trkpt><trkpt lat="45.14385913411929" lon="7.006597460151458"><ele>908.0</ele><time>2026-04-19T15:26:53Z</time></trkpt><trkpt lat="45.143695001661484" lon="7.006649914024729"><ele>900.6666666666667</ele><time>2026-04-19T15:26:54Z</time></trkpt><trkpt lat="45.1435328359117" lon="7.006755422532509"><ele>893.3333333333333</ele><time>2026-04-19T15:26:55Z</time></trkpt><trkpt lat="45.14335406659736" lon="7.006779625524046"><ele>886.0</ele><time>2026-04-19T15:26:56Z</time></trkpt><trkpt lat="45.143173728038335" lon="7.006781474719657"><ele>882.3333333333333</ele><time>2026-04-19T15:26:57Z</time></trkpt><trkpt lat="45.142983171173356" lon="7.006777845062468"><ele>878.6666666666667</ele><time>2026-04-19T15:26:58Z</time></trkpt><trkpt lat="45.142804108891426" lon="7.006767076369296"><ele>875.0</ele><time>2026-04-19T15:26:59Z</time></trkpt><trkpt lat="45.1426430462036" lon="7.006728655397088"><ele>870.6666666666667</ele><time>2026-04-19T15:27:00Z</time></trkpt><trkpt lat="45.142504340280446" lon="7.006637756104571"><ele>866.3333333333333</ele><time>2026-04-19T15:27:01Z</time></trkpt><trkpt lat="45.14239128906784" lon="7.0064935022368955"><ele>862.0</ele><time>2026-04-19T15:27:02Z</time></trkpt><trkpt lat="45.14227503764312" lon="7.0063042260178365"><ele>862.0</ele><time>2026-04-19T15:27:03Z</time></trkpt><trkpt lat="45.14218007307437" lon="7.006040624801499"><ele>862.0</ele><time>2026-04-19T15:27:04Z</time></trkpt><trkpt lat="45.142069370683274" lon="7.005777537518253"><ele>862.0</ele><time>2026-04-19T15:27:05Z</time></trkpt><trkpt lat="45.14194862833738" lon="7.005559123544392"><ele>866.0</ele><time>2026-04-19T15:27:06Z</time></trkpt><trkpt lat="45.141812645292596" lon="7.005412182114994"><ele>870.0</ele><time>2026-04-19T15:27:07Z</time></trkpt><trkpt lat="45.141655996374446" lon="7.005378659502859"><ele>874.0</ele><time>2026-04-19T15:27:08Z</time></trkpt><trkpt lat="45.14147924020487" lon="7.005450089789868"><ele>874.0</ele><time>2026-04-19T15:27:09Z</time></trkpt><trkpt lat="45.14129155279299" lon="7.005540947334169"><ele>874.0</ele><time>2026-04-19T15:27:10Z</time></trkpt><trkpt lat="45.141132229529624" lon="7.005533201564466"><ele>874.0</ele><time>2026-04-19T15:27:11Z</time></trkpt><trkpt lat="45.141026822168826" lon="7.005553284106971"><ele>874.0</ele><time>2026-04-19T15:27:12Z</time></trkpt><trkpt lat="45.14092226860032" lon="7.0056730050729294"><ele>874.0</ele><time>2026-04-19T15:27:14Z</time></trkpt><trkpt lat="45.14095509092508" lon="7.005835849513558"><ele>874.0</ele><time>2026-04-19T15:27:15Z</time></trkpt><trkpt lat="45.141087546859346" lon="7.005870645671812"><ele>874.0</ele><time>2026-04-19T15:27:16Z</time></trkpt><trkpt lat="45.14122203312426" lon="7.005874729474368"><ele>871.0</ele><time>2026-04-19T15:27:17Z</time></trkpt><trkpt lat="45.1413627170366" lon="7.005870967069865"><ele>868.0</ele><time>2026-04-19T15:27:18Z</time></trkpt><trkpt lat="45.14150057279497" lon="7.005907188530216"><ele>865.0</ele><time>2026-04-19T15:27:19Z</time></trkpt><trkpt lat="45.14160945198356" lon="7.0059874703569065"><ele>862.0</ele><time>2026-04-19T15:27:20Z</time></trkpt><trkpt lat="45.14170206912298" lon="7.006132738357952"><ele>862.0</ele><time>2026-04-19T15:27:21Z</time></trkpt><trkpt lat="45.14175482773935" lon="7.006332560436949"><ele>862.0</ele><time>2026-04-19T15:27:22Z</time></trkpt><trkpt lat="45.14180440218652" lon="7.006563203990799"><ele>862.0</ele><time>2026-04-19T15:27:23Z</time></trkpt><trkpt lat="45.14186925165583" lon="7.006820975657051"><ele>856.6666666666666</ele><time>2026-04-19T15:27:24Z</time></trkpt><trkpt lat="45.14191725628024" lon="7.007091989530618"><ele>851.3333333333333</ele><time>2026-04-19T15:27:25Z</time></trkpt><trkpt lat="45.14197332406286" lon="7.007352053079019"><ele>846.0</ele><time>2026-04-19T15:27:26Z</time></trkpt><trkpt lat="45.14202485144478" lon="7.0076181206637544"><ele>841.3333333333333</ele><time>2026-04-19T15:27:27Z</time></trkpt><trkpt lat="45.14207059314735" lon="7.007870240158963"><ele>836.6666666666666</ele><time>2026-04-19T15:27:28Z</time></trkpt><trkpt lat="45.142118559279815" lon="7.008116461350914"><ele>832.0</ele><time>2026-04-19T15:27:29Z</time></trkpt><trkpt lat="45.14216559624394" lon="7.0083446302087085"><ele>835.6666666666666</ele><time>2026-04-19T15:27:30Z</time></trkpt><trkpt lat="45.14223269418635" lon="7.008558592487616"><ele>839.3333333333333</ele><time>2026-04-19T15:27:31Z</time></trkpt><trkpt lat="45.142352831771944" lon="7.008745373769829"><ele>843.0</ele><time>2026-04-19T15:27:32Z</time></trkpt><trkpt lat="45.142519838516435" lon="7.008902249716453"><ele>843.0</ele><time>2026-04-19T15:27:33Z</time></trkpt><trkpt lat="45.14265655205652" lon="7.009092290689161"><ele>843.0</ele><time>2026-04-19T15:27:34Z</time></trkpt><trkpt lat="45.14273140800786" lon="7.009303900660432"><ele>843.0</ele><time>2026-04-19T15:27:35Z</time></trkpt><trkpt lat="45.14280217497649" lon="7.009536258285612"><ele>836.6666666666667</ele><time>2026-04-19T15:27:36Z</time></trkpt><trkpt lat="45.14289091056549" lon="7.0097762855110055"><ele>830.3333333333334</ele><time>2026-04-19T15:27:37Z</time></trkpt><trkpt lat="45.14297015355554" lon="7.010032712046357"><ele>824.0</ele><time>2026-04-19T15:27:38Z</time></trkpt><trkpt lat="45.14304682488655" lon="7.01030254825049"><ele>822.0</ele><time>2026-04-19T15:27:39Z</time></trkpt><trkpt lat="45.14313976640218" lon="7.010546780263491"><ele>820.0</ele><time>2026-04-19T15:27:40Z</time></trkpt><trkpt lat="45.14322739587757" lon="7.010775993645746"><ele>818.0</ele><time>2026-04-19T15:27:41Z</time></trkpt><trkpt lat="45.14331396477996" lon="7.010998576682761"><ele>818.0</ele><time>2026-04-19T15:27:42Z</time></trkpt><trkpt lat="45.14339815447829" lon="7.011215478173595"><ele>818.0</ele><time>2026-04-19T15:27:43Z</time></trkpt><trkpt lat="45.143469404434136" lon="7.011433799633525"><ele>818.0</ele><time>2026-04-19T15:27:44Z</time></trkpt><trkpt lat="45.14349595744642" lon="7.01165231166216"><ele>815.0</ele><time>2026-04-19T15:27:45Z</time></trkpt><trkpt lat="45.143469769811645" lon="7.011858013762794"><ele>812.0</ele><time>2026-04-19T15:27:46Z</time></trkpt><trkpt lat="45.14344633234178" lon="7.012071143404415"><ele>809.0</ele><time>2026-04-19T15:27:47Z</time></trkpt><trkpt lat="45.14343642068373" lon="7.012244339660006"><ele>806.0</ele><time>2026-04-19T15:27:48Z</time></trkpt><trkpt lat="45.143471060319875" lon="7.012387039824458"><ele>805.0</ele><time>2026-04-19T15:27:49Z</time></trkpt><trkpt lat="45.14351245890011" lon="7.012501876043601"><ele>804.0</ele><time>2026-04-19T15:27:50Z</time></trkpt><trkpt lat="45.14357993010995" lon="7.012601627029336"><ele>803.0</ele><time>2026-04-19T15:27:51Z</time></trkpt><trkpt lat="45.14366582288706" lon="7.01267025719015"><ele>802.0</ele><time>2026-04-19T15:27:52Z</time></trkpt><trkpt lat="45.14376145307421" lon="7.012711544087356"><ele>801.0</ele><time>2026-04-19T15:27:53Z</time></trkpt><trkpt lat="45.14385697048004" lon="7.012750539984219"><ele>801.0</ele><time>2026-04-19T15:27:54Z</time></trkpt><trkpt lat="45.14395462859437" lon="7.012792057175959"><ele>801.0</ele><time>2026-04-19T15:27:55Z</time></trkpt><trkpt lat="45.14404761216274" lon="7.012853139139746"><ele>801.0</ele><time>2026-04-19T15:27:56Z</time></trkpt><trkpt lat="45.1441158655652" lon="7.012963281851313"><ele>801.0</ele><time>2026-04-19T15:27:57Z</time></trkpt><trkpt lat="45.144189383365344" lon="7.0130731262444375"><ele>801.0</ele><time>2026-04-19T15:27:58Z</time></trkpt><trkpt lat="45.14426492323067" lon="7.0131740697447595"><ele>799.1999999999999</ele><time>2026-04-19T15:27:59Z</time></trkpt><trkpt lat="45.14433959264325" lon="7.01328742136704"><ele>797.4</ele><time>2026-04-19T15:28:00Z</time></trkpt><trkpt lat="45.144410807352784" lon="7.01340361886424"><ele>795.6</ele><time>2026-04-19T15:28:01Z</time></trkpt><trkpt lat="45.144491693107554" lon="7.013512109681312"><ele>793.8</ele><time>2026-04-19T15:28:02Z</time></trkpt><trkpt lat="45.144589169195235" lon="7.013591623596336"><ele>792.0</ele><time>2026-04-19T15:28:03Z</time></trkpt><trkpt lat="45.144705632812524" lon="7.013628780509124"><ele>792.0</ele><time>2026-04-19T15:28:04Z</time></trkpt><trkpt lat="45.14483086818531" lon="7.013618143520209"><ele>792.0</ele><time>2026-04-19T15:28:05Z</time></trkpt><trkpt lat="45.144953438068704" lon="7.0135573921324905"><ele>792.0</ele><time>2026-04-19T15:28:06Z</time></trkpt><trkpt lat="45.145065261507725" lon="7.013461774035576"><ele>792.0</ele><time>2026-04-19T15:28:07Z</time></trkpt><trkpt lat="45.145162794329515" lon="7.0133339824837435"><ele>796.0</ele><time>2026-04-19T15:28:08Z</time></trkpt><trkpt lat="45.145238997732406" lon="7.013181193881488"><ele>800.0</ele><time>2026-04-19T15:28:09Z</time></trkpt><trkpt lat="45.14529164487695" lon="7.013015123728602"><ele>804.0</ele><time>2026-04-19T15:28:10Z</time></trkpt><trkpt lat="45.145342399458805" lon="7.012847493359391"><ele>808.0</ele><time>2026-04-19T15:28:11Z</time></trkpt><trkpt lat="45.14539007639917" lon="7.0126877786201645"><ele>808.0</ele><time>2026-04-19T15:28:12Z</time></trkpt><trkpt lat="45.1454545978039" lon="7.012545103732696"><ele>808.0</ele><time>2026-04-19T15:28:13Z</time></trkpt><trkpt lat="45.14553515106347" lon="7.012423600220353"><ele>808.0</ele><time>2026-04-19T15:28:14Z</time></trkpt><trkpt lat="45.145634105175674" lon="7.012338436113813"><ele>808.0</ele><time>2026-04-19T15:28:15Z</time></trkpt><trkpt lat="45.1457491094105" lon="7.012304396748572"><ele>807.5</ele><time>2026-04-19T15:28:16Z</time></trkpt><trkpt lat="45.14587031557187" lon="7.0123025325664265"><ele>807.0</ele><time>2026-04-19T15:28:17Z</time></trkpt><trkpt lat="45.145983931058346" lon="7.012317419643558"><ele>806.5</ele><time>2026-04-19T15:28:18Z</time></trkpt><trkpt lat="45.14609280749284" lon="7.012346796919024"><ele>806.0</ele><time>2026-04-19T15:28:19Z</time></trkpt><trkpt lat="45.14619804604073" lon="7.0124143434589294"><ele>801.1999999999999</ele><time>2026-04-19T15:28:20Z</time></trkpt><trkpt lat="45.14625280481124" lon="7.012546797704004"><ele>796.4</ele><time>2026-04-19T15:28:21Z</time></trkpt><trkpt lat="45.14630462069409" lon="7.0126688914130435"><ele>791.6</ele><time>2026-04-19T15:28:22Z</time></trkpt><trkpt lat="45.14636940074774" lon="7.01277967413031"><ele>786.8</ele><time>2026-04-19T15:28:23Z</time></trkpt><trkpt lat="45.14641430404591" lon="7.012889618072304"><ele>782.0</ele><time>2026-04-19T15:28:24Z</time></trkpt><trkpt lat="45.146477918617165" lon="7.012956952092408"><ele>779.6</ele><time>2026-04-19T15:28:25Z</time></trkpt><trkpt lat="45.14656461705841" lon="7.012977090322691"><ele>777.2</ele><time>2026-04-19T15:28:26Z</time></trkpt><trkpt lat="45.14665916503399" lon="7.012960416709948"><ele>774.8</ele><time>2026-04-19T15:28:27Z</time></trkpt><trkpt lat="45.14674120343633" lon="7.012914133645598"><ele>772.4</ele><time>2026-04-19T15:28:28Z</time></trkpt><trkpt lat="45.14682612303782" lon="7.012850505658874"><ele>770.0</ele><time>2026-04-19T15:28:29Z</time></trkpt><trkpt lat="45.14690217440763" lon="7.012762676871906"><ele>770.0</ele><time>2026-04-19T15:28:30Z</time></trkpt><trkpt lat="45.14696476383379" lon="7.012677319544884"><ele>770.0</ele><time>2026-04-19T15:28:31Z</time></trkpt><trkpt lat="45.14706098835628" lon="7.012617063668227"><ele>770.0</ele><time>2026-04-19T15:28:33Z</time></trkpt><trkpt lat="45.14715334455167" lon="7.01272993520946"><ele>770.0</ele><time>2026-04-19T15:28:35Z</time></trkpt><trkpt lat="45.14713932866588" lon="7.012864084778733"><ele>770.0</ele><time>2026-04-19T15:28:36Z</time></trkpt><trkpt lat="45.14714582127895" lon="7.0129918141385845"><ele>770.0000000000001</ele><time>2026-04-19T15:28:37Z</time></trkpt><trkpt lat="45.14717105757463" lon="7.013097766400957"><ele>770.0</ele><time>2026-04-19T15:28:38Z</time></trkpt><trkpt lat="45.14718260120634" lon="7.013211054389372"><ele>770.0</ele><time>2026-04-19T15:28:39Z</time></trkpt><trkpt lat="45.14720989403309" lon="7.013307505683719"><ele>770.0</ele><time>2026-04-19T15:28:40Z</time></trkpt><trkpt lat="45.14727067508594" lon="7.013374273125329"><ele>770.0000000000001</ele><time>2026-04-19T15:28:41Z</time></trkpt><trkpt lat="45.14734530242953" lon="7.0133993191549155"><ele>770.0</ele><time>2026-04-19T15:28:42Z</time></trkpt><trkpt lat="45.147420825852095" lon="7.013368966312912"><ele>769.0000000000001</ele><time>2026-04-19T15:28:43Z</time></trkpt><trkpt lat="45.14747768270351" lon="7.013312362465643"><ele>768.0</ele><time>2026-04-19T15:28:44Z</time></trkpt><trkpt lat="45.14755887762281" lon="7.013297196167653"><ele>767.0</ele><time>2026-04-19T15:28:46Z</time></trkpt><trkpt lat="45.147616287204414" lon="7.013408720836343"><ele>766.0</ele><time>2026-04-19T15:28:48Z</time></trkpt><trkpt lat="45.14760119809915" lon="7.013507643587532"><ele>765.0</ele><time>2026-04-19T15:28:49Z</time></trkpt><trkpt lat="45.147524360828534" lon="7.013563797709049"><ele>764.0</ele><time>2026-04-19T15:28:50Z</time></trkpt><trkpt lat="45.147453891954655" lon="7.013619617634017"><ele>761.2</ele><time>2026-04-19T15:28:51Z</time></trkpt><trkpt lat="45.147351654212535" lon="7.013599225477642"><ele>758.4000000000001</ele><time>2026-04-19T15:28:52Z</time></trkpt><trkpt lat="45.14726282407067" lon="7.0135570187397835"><ele>755.6</ele><time>2026-04-19T15:28:53Z</time></trkpt><trkpt lat="45.147168787413655" lon="7.013503085826645"><ele>752.8</ele><time>2026-04-19T15:28:54Z</time></trkpt><trkpt lat="45.147071783725686" lon="7.013420871942904"><ele>750.0</ele><time>2026-04-19T15:28:55Z</time></trkpt><trkpt lat="45.14697405233022" lon="7.013342869532869"><ele>753.25</ele><time>2026-04-19T15:28:56Z</time></trkpt><trkpt lat="45.14686986491649" lon="7.013296258922878"><ele>756.5</ele><time>2026-04-19T15:28:57Z</time></trkpt><trkpt lat="45.14675339557914" lon="7.013298527671567"><ele>759.75</ele><time>2026-04-19T15:28:58Z</time></trkpt><trkpt lat="45.146631802658135" lon="7.01332110584285"><ele>763.0</ele><time>2026-04-19T15:28:59Z</time></trkpt><trkpt lat="45.14652004126745" lon="7.013353885442944"><ele>763.0</ele><time>2026-04-19T15:29:00Z</time></trkpt><trkpt lat="45.14641191522378" lon="7.013387936475188"><ele>763.0</ele><time>2026-04-19T15:29:01Z</time></trkpt><trkpt lat="45.14629912269677" lon="7.01337235391709"><ele>763.0</ele><time>2026-04-19T15:29:02Z</time></trkpt><trkpt lat="45.146190436559245" lon="7.013346592026257"><ele>763.0</ele><time>2026-04-19T15:29:03Z</time></trkpt><trkpt lat="45.14608845558324" lon="7.013318700443223"><ele>763.0</ele><time>2026-04-19T15:29:04Z</time></trkpt><trkpt lat="45.14599607995987" lon="7.013385162157147"><ele>763.0</ele><time>2026-04-19T15:29:05Z</time></trkpt><trkpt lat="45.145904673977796" lon="7.013467328768698"><ele>763.0</ele><time>2026-04-19T15:29:06Z</time></trkpt><trkpt lat="45.14587035065384" lon="7.0136388331288435"><ele>763.0</ele><time>2026-04-19T15:29:07Z</time></trkpt><trkpt lat="45.145844405560815" lon="7.013834063174535"><ele>763.0</ele><time>2026-04-19T15:29:08Z</time></trkpt><trkpt lat="45.14580486056906" lon="7.014048319924024"><ele>754.0</ele><time>2026-04-19T15:29:09Z</time></trkpt><trkpt lat="45.14577242026401" lon="7.014359068137226"><ele>745.0</ele><time>2026-04-19T15:29:10Z</time></trkpt><trkpt lat="45.145721259706455" lon="7.0147037843303215"><ele>750.0</ele><time>2026-04-19T15:29:11Z</time></trkpt><trkpt lat="45.1457039977888" lon="7.015099718331736"><ele>755.0</ele><time>2026-04-19T15:29:12Z</time></trkpt><trkpt lat="45.145711692106886" lon="7.015490940115333"><ele>746.0</ele><time>2026-04-19T15:29:13Z</time></trkpt><trkpt lat="45.14571807730431" lon="7.015841559362796"><ele>737.0</ele><time>2026-04-19T15:29:14Z</time></trkpt><trkpt lat="45.14567322283108" lon="7.016174718919304"><ele>737.0</ele><time>2026-04-19T15:29:15Z</time></trkpt><trkpt lat="45.14558943988212" lon="7.016534336743041"><ele>737.0</ele><time>2026-04-19T15:29:16Z</time></trkpt><trkpt lat="45.14550762078101" lon="7.016875928806632"><ele>730.0</ele><time>2026-04-19T15:29:17Z</time></trkpt><trkpt lat="45.1454693971675" lon="7.017199446375644"><ele>723.0</ele><time>2026-04-19T15:29:18Z</time></trkpt><trkpt lat="45.14547328006012" lon="7.017572787837415"><ele>719.0</ele><time>2026-04-19T15:29:19Z</time></trkpt><trkpt lat="45.14551240526442" lon="7.017911400395568"><ele>715.0</ele><time>2026-04-19T15:29:20Z</time></trkpt><trkpt lat="45.14556366396407" lon="7.018171637600092"><ele>711.0</ele><time>2026-04-19T15:29:21Z</time></trkpt><trkpt lat="45.1456001186959" lon="7.018355074466882"><ele>708.4</ele><time>2026-04-19T15:29:22Z</time></trkpt><trkpt lat="45.145570612181054" lon="7.018497943983536"><ele>705.8</ele><time>2026-04-19T15:29:23Z</time></trkpt><trkpt lat="45.14551630980605" lon="7.018585544117705"><ele>703.1999999999999</ele><time>2026-04-19T15:29:24Z</time></trkpt><trkpt lat="45.14542446440705" lon="7.018590911904839"><ele>700.5999999999999</ele><time>2026-04-19T15:29:25Z</time></trkpt><trkpt lat="45.14530501109104" lon="7.01857456482903"><ele>698.0</ele><time>2026-04-19T15:29:26Z</time></trkpt><trkpt lat="45.14513512771015" lon="7.018601195127087"><ele>698.0</ele><time>2026-04-19T15:29:27Z</time></trkpt><trkpt lat="45.14499490617533" lon="7.018602588572606"><ele>698.0</ele><time>2026-04-19T15:29:28Z</time></trkpt><trkpt lat="45.14487081349368" lon="7.018568521028302"><ele>698.0</ele><time>2026-04-19T15:29:29Z</time></trkpt><trkpt lat="45.144830879466696" lon="7.0183762698270105"><ele>698.0</ele><time>2026-04-19T15:29:30Z</time></trkpt><trkpt lat="45.14475775878765" lon="7.018210097557139"><ele>700.25</ele><time>2026-04-19T15:29:31Z</time></trkpt><trkpt lat="45.14469489139922" lon="7.018065776495401"><ele>702.5</ele><time>2026-04-19T15:29:32Z</time></trkpt><trkpt lat="45.144583973245986" lon="7.018014011585708"><ele>704.75</ele><time>2026-04-19T15:29:33Z</time></trkpt><trkpt lat="45.14447385325231" lon="7.0180862969557385"><ele>707.0</ele><time>2026-04-19T15:29:34Z</time></trkpt><trkpt lat="45.14437072124015" lon="7.01809572522713"><ele>701.5</ele><time>2026-04-19T15:29:35Z</time></trkpt><trkpt lat="45.144416887713355" lon="7.018577180095457"><ele>696.0</ele><time>2026-04-19T15:29:36Z</time></trkpt><trkpt lat="45.1444244538975" lon="7.0188346042984335"><ele>696.0</ele><time>2026-04-19T15:29:37Z</time></trkpt><trkpt lat="45.144432666716625" lon="7.019068622305662"><ele>696.0</ele><time>2026-04-19T15:29:38Z</time></trkpt><trkpt lat="45.14448822117795" lon="7.019337575266426"><ele>696.0</ele><time>2026-04-19T15:29:39Z</time></trkpt><trkpt lat="45.14454773423986" lon="7.019594788234327"><ele>693.6666666666666</ele><time>2026-04-19T15:29:40Z</time></trkpt><trkpt lat="45.14460392849589" lon="7.0198701226269105"><ele>691.3333333333333</ele><time>2026-04-19T15:29:41Z</time></trkpt><trkpt lat="45.14463159582378" lon="7.020084862314925"><ele>689.0</ele><time>2026-04-19T15:29:42Z</time></trkpt><trkpt lat="45.144610451121494" lon="7.020229404410679"><ele>688.4000000000001</ele><time>2026-04-19T15:29:43Z</time></trkpt><trkpt lat="45.14454512336906" lon="7.020356317468969"><ele>687.8</ele><time>2026-04-19T15:29:44Z</time></trkpt><trkpt lat="45.14443732834638" lon="7.020397420134581"><ele>687.2</ele><time>2026-04-19T15:29:45Z</time></trkpt><trkpt lat="45.144343314567536" lon="7.020352316557789"><ele>686.5999999999999</ele><time>2026-04-19T15:29:46Z</time></trkpt><trkpt lat="45.14424287211825" lon="7.0204028632456215"><ele>686.0</ele><time>2026-04-19T15:29:47Z</time></trkpt><trkpt lat="45.14415713672133" lon="7.020486296720619"><ele>686.0</ele><time>2026-04-19T15:29:48Z</time></trkpt><trkpt lat="45.144135966982525" lon="7.02066215927984"><ele>686.0</ele><time>2026-04-19T15:29:49Z</time></trkpt><trkpt lat="45.14419615927787" lon="7.020851522076583"><ele>686.0</ele><time>2026-04-19T15:29:50Z</time></trkpt><trkpt lat="45.14429230157838" lon="7.021035934618763"><ele>686.0</ele><time>2026-04-19T15:29:51Z</time></trkpt><trkpt lat="45.14444684538955" lon="7.021246351310929"><ele>685.0</ele><time>2026-04-19T15:29:52Z</time></trkpt><trkpt lat="45.144549497760636" lon="7.021467473038555"><ele>684.0</ele><time>2026-04-19T15:29:53Z</time></trkpt><trkpt lat="45.14461251771615" lon="7.021712010677324"><ele>683.0</ele><time>2026-04-19T15:29:54Z</time></trkpt><trkpt lat="45.144637696991644" lon="7.021972707748042"><ele>682.25</ele><time>2026-04-19T15:29:55Z</time></trkpt><trkpt lat="45.14465616970685" lon="7.02218428297774"><ele>681.5</ele><time>2026-04-19T15:29:56Z</time></trkpt><trkpt lat="45.14459314948779" lon="7.022367519977204"><ele>680.75</ele><time>2026-04-19T15:29:57Z</time></trkpt><trkpt lat="45.144514040149495" lon="7.022455326304674"><ele>680.0</ele><time>2026-04-19T15:29:58Z</time></trkpt><trkpt lat="45.14437886924236" lon="7.022498506946113"><ele>678.6666666666666</ele><time>2026-04-19T15:29:59Z</time></trkpt><trkpt lat="45.144250767826485" lon="7.022634617301679"><ele>677.3333333333334</ele><time>2026-04-19T15:30:00Z</time></trkpt><trkpt lat="45.14417832965936" lon="7.022877858419757"><ele>676.0</ele><time>2026-04-19T15:30:01Z</time></trkpt><trkpt lat="45.14417941699594" lon="7.023157949326217"><ele>670.0</ele><time>2026-04-19T15:30:02Z</time></trkpt><trkpt lat="45.144175493373815" lon="7.023475317340191"><ele>664.0</ele><time>2026-04-19T15:30:03Z</time></trkpt><trkpt lat="45.144154663950424" lon="7.023839988777536"><ele>660.5</ele><time>2026-04-19T15:30:04Z</time></trkpt><trkpt lat="45.14412539638554" lon="7.024228373249998"><ele>657.0</ele><time>2026-04-19T15:30:05Z</time></trkpt><trkpt lat="45.144101953709416" lon="7.024568830781188"><ele>657.0</ele><time>2026-04-19T15:30:06Z</time></trkpt><trkpt lat="45.144123289507974" lon="7.0249219946307795"><ele>657.0</ele><time>2026-04-19T15:30:07Z</time></trkpt><trkpt lat="45.144216394005774" lon="7.025328755149984"><ele>654.5</ele><time>2026-04-19T15:30:08Z</time></trkpt><trkpt lat="45.14425012195286" lon="7.025760972931233"><ele>652.0</ele><time>2026-04-19T15:30:09Z</time></trkpt><trkpt lat="45.144277831801546" lon="7.026222055338785"><ele>651.0</ele><time>2026-04-19T15:30:10Z</time></trkpt><trkpt lat="45.14430178823482" lon="7.026630670959131"><ele>650.0</ele><time>2026-04-19T15:30:11Z</time></trkpt><trkpt lat="45.144330269564776" lon="7.0270269415659"><ele>649.5</ele><time>2026-04-19T15:30:12Z</time></trkpt><trkpt lat="45.14436159918068" lon="7.027401226879482"><ele>649.0</ele><time>2026-04-19T15:30:13Z</time></trkpt><trkpt lat="45.14439947096539" lon="7.027759432582171"><ele>650.5</ele><time>2026-04-19T15:30:14Z</time></trkpt><trkpt lat="45.144427724730896" lon="7.028119138687724"><ele>652.0</ele><time>2026-04-19T15:30:15Z</time></trkpt><trkpt lat="45.144425161603905" lon="7.02849966208687"><ele>648.5</ele><time>2026-04-19T15:30:16Z</time></trkpt><trkpt lat="45.14440875851537" lon="7.028877334425993"><ele>645.0</ele><time>2026-04-19T15:30:17Z</time></trkpt><trkpt lat="45.14439027348654" lon="7.029235839156383"><ele>640.0</ele><time>2026-04-19T15:30:18Z</time></trkpt><trkpt lat="45.144371925436104" lon="7.0295731974266"><ele>635.0</ele><time>2026-04-19T15:30:19Z</time></trkpt><trkpt lat="45.14433603788501" lon="7.029885737584086"><ele>633.0</ele><time>2026-04-19T15:30:20Z</time></trkpt><trkpt lat="45.14426491782307" lon="7.030166531600186"><ele>631.0</ele><time>2026-04-19T15:30:21Z</time></trkpt><trkpt lat="45.14424993468864" lon="7.030456661885304"><ele>629.0</ele><time>2026-04-19T15:30:22Z</time></trkpt><trkpt lat="45.14428822933457" lon="7.030762207884971"><ele>626.0</ele><time>2026-04-19T15:30:23Z</time></trkpt><trkpt lat="45.14439921130561" lon="7.031106895360383"><ele>623.0</ele><time>2026-04-19T15:30:24Z</time></trkpt><trkpt lat="45.14445861082826" lon="7.031453548032628"><ele>621.5</ele><time>2026-04-19T15:30:25Z</time></trkpt><trkpt lat="45.14449003386962" lon="7.03178997753175"><ele>620.0</ele><time>2026-04-19T15:30:26Z</time></trkpt><trkpt lat="45.144495883252944" lon="7.032163370598218"><ele>617.0</ele><time>2026-04-19T15:30:27Z</time></trkpt><trkpt lat="45.144484677477465" lon="7.032543677601922"><ele>614.0</ele><time>2026-04-19T15:30:28Z</time></trkpt><trkpt lat="45.14445442409506" lon="7.032883633902336"><ele>614.0</ele><time>2026-04-19T15:30:29Z</time></trkpt><trkpt lat="45.144405283411054" lon="7.0332038462226505"><ele>614.0</ele><time>2026-04-19T15:30:30Z</time></trkpt><trkpt lat="45.14431463832466" lon="7.033528315680345"><ele>609.0</ele><time>2026-04-19T15:30:31Z</time></trkpt><trkpt lat="45.144189679180705" lon="7.033858402062029"><ele>604.0</ele><time>2026-04-19T15:30:32Z</time></trkpt><trkpt lat="45.144030745334994" lon="7.034158152797677"><ele>616.0</ele><time>2026-04-19T15:30:33Z</time></trkpt><trkpt lat="45.14388844422944" lon="7.0344518922127195"><ele>628.0</ele><time>2026-04-19T15:30:34Z</time></trkpt><trkpt lat="45.14375622617437" lon="7.034740961829571"><ele>619.5</ele><time>2026-04-19T15:30:35Z</time></trkpt><trkpt lat="45.143688877892686" lon="7.03510345597493"><ele>611.0</ele><time>2026-04-19T15:30:36Z</time></trkpt><trkpt lat="45.14366628760737" lon="7.035500014997786"><ele>605.5</ele><time>2026-04-19T15:30:37Z</time></trkpt><trkpt lat="45.14363949224082" lon="7.035873900882343"><ele>600.0</ele><time>2026-04-19T15:30:38Z</time></trkpt><trkpt lat="45.14363733494979" lon="7.036221003518832"><ele>600.0</ele><time>2026-04-19T15:30:39Z</time></trkpt><trkpt lat="45.1436853519612" lon="7.036563399951787"><ele>600.0</ele><time>2026-04-19T15:30:40Z</time></trkpt><trkpt lat="45.143725912927366" lon="7.03687114927003"><ele>595.75</ele><time>2026-04-19T15:30:41Z</time></trkpt><trkpt lat="45.14374066135225" lon="7.037094557979038"><ele>591.5</ele><time>2026-04-19T15:30:42Z</time></trkpt><trkpt lat="45.14372442944766" lon="7.037290386694332"><ele>587.25</ele><time>2026-04-19T15:30:43Z</time></trkpt><trkpt lat="45.1436565970198" lon="7.037459116708615"><ele>583.0</ele><time>2026-04-19T15:30:44Z</time></trkpt><trkpt lat="45.14355386729879" lon="7.037579934060791"><ele>580.4</ele><time>2026-04-19T15:30:45Z</time></trkpt><trkpt lat="45.14344074517811" lon="7.037639905658838"><ele>577.8</ele><time>2026-04-19T15:30:46Z</time></trkpt><trkpt lat="45.14334891817123" lon="7.037673747931229"><ele>575.2</ele><time>2026-04-19T15:30:47Z</time></trkpt><trkpt lat="45.1432634510051" lon="7.0377073834411386"><ele>572.6</ele><time>2026-04-19T15:30:48Z</time></trkpt><trkpt lat="45.143172235261" lon="7.037735601029879"><ele>570.0</ele><time>2026-04-19T15:30:49Z</time></trkpt><trkpt lat="45.143081908799005" lon="7.037766209815059"><ele>570.0</ele><time>2026-04-19T15:30:50Z</time></trkpt><trkpt lat="45.14298425900228" lon="7.037799300199967"><ele>570.0</ele><time>2026-04-19T15:30:51Z</time></trkpt><trkpt lat="45.14288239645909" lon="7.0378338181619515"><ele>570.0</ele><time>2026-04-19T15:30:52Z</time></trkpt><trkpt lat="45.142777163086414" lon="7.037869658573994"><ele>570.0</ele><time>2026-04-19T15:30:53Z</time></trkpt><trkpt lat="45.14266091102345" lon="7.037909270759558"><ele>570.0</ele><time>2026-04-19T15:30:54Z</time></trkpt><trkpt lat="45.14253973197404" lon="7.03795056182773"><ele>570.0</ele><time>2026-04-19T15:30:55Z</time></trkpt><trkpt lat="45.14242235134889" lon="7.03799055874849"><ele>570.0</ele><time>2026-04-19T15:30:56Z</time></trkpt><trkpt lat="45.142316623890785" lon="7.038062554274068"><ele>570.0</ele><time>2026-04-19T15:30:57Z</time></trkpt><trkpt lat="45.142221759928475" lon="7.038164845220573"><ele>570.0</ele><time>2026-04-19T15:30:58Z</time></trkpt><trkpt lat="45.142159979604145" lon="7.0383361686196135"><ele>559.6666666666666</ele><time>2026-04-19T15:30:59Z</time></trkpt><trkpt lat="45.14209749698103" lon="7.038537671119343"><ele>549.3333333333333</ele><time>2026-04-19T15:31:00Z</time></trkpt><trkpt lat="45.14204743858078" lon="7.038737052419577"><ele>539.0</ele><time>2026-04-19T15:31:01Z</time></trkpt><trkpt lat="45.14199867606981" lon="7.03893293273859"><ele>539.0</ele><time>2026-04-19T15:31:02Z</time></trkpt><trkpt lat="45.14194921443182" lon="7.0391316215124125"><ele>539.0</ele><time>2026-04-19T15:31:03Z</time></trkpt><trkpt lat="45.14189975046726" lon="7.039333519812067"><ele>539.0</ele><time>2026-04-19T15:31:04Z</time></trkpt><trkpt lat="45.14185294398213" lon="7.039532476160973"><ele>539.0</ele><time>2026-04-19T15:31:05Z</time></trkpt><trkpt lat="45.141807794776504" lon="7.039735535180497"><ele>540.0</ele><time>2026-04-19T15:31:06Z</time></trkpt><trkpt lat="45.14176675333991" lon="7.039946105817938"><ele>541.0</ele><time>2026-04-19T15:31:07Z</time></trkpt><trkpt lat="45.14173969793574" lon="7.0401660625182325"><ele>542.0</ele><time>2026-04-19T15:31:08Z</time></trkpt><trkpt lat="45.14173999735482" lon="7.040372347112229"><ele>542.75</ele><time>2026-04-19T15:31:09Z</time></trkpt><trkpt lat="45.141713477768576" lon="7.040573938540113"><ele>543.5</ele><time>2026-04-19T15:31:10Z</time></trkpt><trkpt lat="45.14170315042889" lon="7.040772872821037"><ele>544.25</ele><time>2026-04-19T15:31:11Z</time></trkpt><trkpt lat="45.141693409346246" lon="7.040960513986549"><ele>545.0</ele><time>2026-04-19T15:31:12Z</time></trkpt><trkpt lat="45.14168358027818" lon="7.041149850134507"><ele>545.0</ele><time>2026-04-19T15:31:13Z</time></trkpt><trkpt lat="45.141670383361834" lon="7.041330678610305"><ele>545.0</ele><time>2026-04-19T15:31:14Z</time></trkpt><trkpt lat="45.14163542432699" lon="7.04149409455184"><ele>545.0</ele><time>2026-04-19T15:31:15Z</time></trkpt><trkpt lat="45.14157861992952" lon="7.041648936138503"><ele>545.0</ele><time>2026-04-19T15:31:16Z</time></trkpt><trkpt lat="45.14149032991409" lon="7.041790905187344"><ele>540.3333333333333</ele><time>2026-04-19T15:31:17Z</time></trkpt><trkpt lat="45.14136089990215" lon="7.0418739847396425"><ele>535.6666666666666</ele><time>2026-04-19T15:31:18Z</time></trkpt><trkpt lat="45.141219041388" lon="7.041969889281003"><ele>531.0</ele><time>2026-04-19T15:31:19Z</time></trkpt><trkpt lat="45.14107067726313" lon="7.042064745887212"><ele>531.0</ele><time>2026-04-19T15:31:20Z</time></trkpt><trkpt lat="45.140925269193595" lon="7.042151172183375"><ele>531.0</ele><time>2026-04-19T15:31:21Z</time></trkpt><trkpt lat="45.140789957192254" lon="7.04225672118225"><ele>531.0</ele><time>2026-04-19T15:31:22Z</time></trkpt><trkpt lat="45.14065529390475" lon="7.042320775594152"><ele>531.0</ele><time>2026-04-19T15:31:23Z</time></trkpt><trkpt lat="45.140527126630595" lon="7.0424036194737765"><ele>531.0</ele><time>2026-04-19T15:31:24Z</time></trkpt><trkpt lat="45.14040122311049" lon="7.042485000686185"><ele>531.0</ele><time>2026-04-19T15:31:25Z</time></trkpt><trkpt lat="45.140277656081196" lon="7.04256275171013"><ele>531.0</ele><time>2026-04-19T15:31:26Z</time></trkpt><trkpt lat="45.14016007153646" lon="7.0426411007846355"><ele>530.6</ele><time>2026-04-19T15:31:27Z</time></trkpt><trkpt lat="45.140063719203184" lon="7.042714888219999"><ele>530.2</ele><time>2026-04-19T15:31:28Z</time></trkpt><trkpt lat="45.13999604394625" lon="7.042795463191264"><ele>529.8</ele><time>2026-04-19T15:31:29Z</time></trkpt><trkpt lat="45.13990601632172" lon="7.042852096521941"><ele>529.4</ele><time>2026-04-19T15:31:31Z</time></trkpt><trkpt lat="45.13983762834778" lon="7.04293060781347"><ele>529.0</ele><time>2026-04-19T15:41:13Z</time></trkpt><trkpt lat="45.139764658378006" lon="7.043027667664691"><ele>526.0</ele><time>2026-04-19T15:41:15Z</time></trkpt><trkpt lat="45.13971895477767" lon="7.043118177751089"><ele>523.0</ele><time>2026-04-19T15:41:16Z</time></trkpt><trkpt lat="45.13966945177805" lon="7.043197104591594"><ele>520.0</ele><time>2026-04-19T15:41:17Z</time></trkpt><trkpt lat="45.139617515721916" lon="7.043290818066657"><ele>517.0</ele><time>2026-04-19T15:41:18Z</time></trkpt><trkpt lat="45.13956455486567" lon="7.043389932048926"><ele>514.0</ele><time>2026-04-19T15:41:19Z</time></trkpt><trkpt lat="45.13951159521824" lon="7.043501840782717"><ele>511.0</ele><time>2026-04-19T15:41:20Z</time></trkpt><trkpt lat="45.13946570879478" lon="7.0436275781833535"><ele>511.0</ele><time>2026-04-19T15:41:21Z</time></trkpt><trkpt lat="45.139400096072116" lon="7.043752774546791"><ele>511.0</ele><time>2026-04-19T15:41:22Z</time></trkpt><trkpt lat="45.1393524054079" lon="7.043898455338104"><ele>511.0</ele><time>2026-04-19T15:41:23Z</time></trkpt><trkpt lat="45.13931500027653" lon="7.044062300726369"><ele>511.0</ele><time>2026-04-19T15:41:24Z</time></trkpt><trkpt lat="45.13928438725272" lon="7.04423428960993"><ele>511.0</ele><time>2026-04-19T15:41:25Z</time></trkpt><trkpt lat="45.13925554983325" lon="7.044409958268866"><ele>511.0</ele><time>2026-04-19T15:41:26Z</time></trkpt><trkpt lat="45.139226386598736" lon="7.044588990394705"><ele>511.0</ele><time>2026-04-19T15:41:27Z</time></trkpt><trkpt lat="45.13919639145218" lon="7.0447706787990505"><ele>511.0</ele><time>2026-04-19T15:41:28Z</time></trkpt><trkpt lat="45.13916561285887" lon="7.044955724509474"><ele>512.0</ele><time>2026-04-19T15:41:29Z</time></trkpt><trkpt lat="45.139133836212565" lon="7.045144934604282"><ele>513.0</ele><time>2026-04-19T15:41:30Z</time></trkpt><trkpt lat="45.13910419206626" lon="7.04533976534945"><ele>514.0</ele><time>2026-04-19T15:41:31Z</time></trkpt><trkpt lat="45.13904872595363" lon="7.045535789050951"><ele>515.0</ele><time>2026-04-19T15:41:32Z</time></trkpt><trkpt lat="45.13899172050158" lon="7.045741295266046"><ele>511.66666666666663</ele><time>2026-04-19T15:41:33Z</time></trkpt><trkpt lat="45.138940753147374" lon="7.045947092524368"><ele>508.33333333333337</ele><time>2026-04-19T15:41:34Z</time></trkpt><trkpt lat="45.138887783332436" lon="7.04615572777002"><ele>505.0</ele><time>2026-04-19T15:41:35Z</time></trkpt><trkpt lat="45.138861308161445" lon="7.046369608236949"><ele>505.0</ele><time>2026-04-19T15:41:36Z</time></trkpt><trkpt lat="45.13882673497896" lon="7.046580913682428"><ele>505.0</ele><time>2026-04-19T15:41:37Z</time></trkpt><trkpt lat="45.13880960784935" lon="7.0467863569587195"><ele>505.0</ele><time>2026-04-19T15:41:38Z</time></trkpt><trkpt lat="45.13881473051185" lon="7.046987661781648"><ele>505.0</ele><time>2026-04-19T15:41:39Z</time></trkpt><trkpt lat="45.138789206638755" lon="7.047179131598615"><ele>504.8</ele><time>2026-04-19T15:41:40Z</time></trkpt><trkpt lat="45.138766765420506" lon="7.047359708726669"><ele>504.6</ele><time>2026-04-19T15:41:41Z</time></trkpt><trkpt lat="45.138742283112826" lon="7.047530256681321"><ele>504.4</ele><time>2026-04-19T15:41:42Z</time></trkpt><trkpt lat="45.13872125226192" lon="7.047680727011575"><ele>504.2</ele><time>2026-04-19T15:41:43Z</time></trkpt><trkpt lat="45.13870461323031" lon="7.047783522666565"><ele>504.0</ele><time>2026-04-19T15:41:44Z</time></trkpt><trkpt lat="45.13869260490015" lon="7.047883063653211"><ele>504.0</ele><time>2026-04-19T15:41:47Z</time></trkpt><trkpt lat="45.138664253329175" lon="7.048041222541788"><ele>504.0</ele><time>2026-04-19T15:42:57Z</time></trkpt><trkpt lat="45.138649005290155" lon="7.048130192496529"><ele>504.0</ele><time>2026-04-19T15:42:58Z</time></trkpt><trkpt lat="45.138628931738275" lon="7.0482496411730455"><ele>504.0</ele><time>2026-04-19T15:42:59Z</time></trkpt><trkpt lat="45.138607390686076" lon="7.048377822098706"><ele>504.0</ele><time>2026-04-19T15:43:00Z</time></trkpt><trkpt lat="45.13858620524324" lon="7.0485038828923905"><ele>504.0</ele><time>2026-04-19T15:43:01Z</time></trkpt><trkpt lat="45.138567412533746" lon="7.048616770220251"><ele>504.0</ele><time>2026-04-19T15:43:02Z</time></trkpt><trkpt lat="45.13855015416731" lon="7.048720064736857"><ele>504.0</ele><time>2026-04-19T15:43:03Z</time></trkpt><trkpt lat="45.13853478436141" lon="7.0488127133104514"><ele>504.0</ele><time>2026-04-19T15:43:04Z</time></trkpt><trkpt lat="45.138519731291375" lon="7.048903895114574"><ele>504.0</ele><time>2026-04-19T15:43:05Z</time></trkpt><trkpt lat="45.138504874602546" lon="7.048993887188263"><ele>504.0</ele><time>2026-04-19T15:43:06Z</time></trkpt><trkpt lat="45.138477788699056" lon="7.0491590938646915"><ele>504.0</ele><time>2026-04-19T15:43:08Z</time></trkpt><trkpt lat="45.13845453880057" lon="7.049304130779207"><ele>504.0</ele><time>2026-04-19T15:43:10Z</time></trkpt><trkpt lat="45.138414556703935" lon="7.049571605194019"><ele>504.0</ele><time>2026-04-19T15:43:23Z</time></trkpt><trkpt lat="45.13839390011645" lon="7.049724147673197"><ele>504.0</ele><time>2026-04-19T15:43:25Z</time></trkpt><trkpt lat="45.138373087775626" lon="7.049896997029586"><ele>503.5</ele><time>2026-04-19T15:43:27Z</time></trkpt><trkpt lat="45.138361020522325" lon="7.049997435380332"><ele>503.0</ele><time>2026-04-19T15:43:28Z</time></trkpt><trkpt lat="45.1383494695492" lon="7.050094650291483"><ele>502.5</ele><time>2026-04-19T15:43:29Z</time></trkpt><trkpt lat="45.13833786645484" lon="7.050192303641535"><ele>502.0</ele><time>2026-04-19T15:43:30Z</time></trkpt><trkpt lat="45.13832570338964" lon="7.050294671219532"><ele>501.5</ele><time>2026-04-19T15:43:31Z</time></trkpt><trkpt lat="45.13830812845567" lon="7.050448689313636"><ele>501.0</ele><time>2026-04-19T15:43:33Z</time></trkpt><trkpt lat="45.13829745294999" lon="7.050541414414207"><ele>501.0</ele><time>2026-04-19T15:43:35Z</time></trkpt><trkpt lat="45.138264237078914" lon="7.050463410247509"><ele>501.0</ele><time>2026-04-19T15:46:01Z</time></trkpt><trkpt lat="45.13826434472567" lon="7.050373385632752"><ele>501.0</ele><time>2026-04-19T15:46:09Z</time></trkpt><trkpt lat="45.13823653767552" lon="7.050496871247731"><ele>501.0</ele><time>2026-04-19T15:46:27Z</time></trkpt><trkpt lat="45.138425108005464" lon="7.050566792500294"><ele>501.0</ele><time>2026-04-19T15:47:26.946Z</time></trkpt><trkpt lat="45.138323852338424" lon="7.050229523131829"><ele>501.0</ele><time>2026-04-19T15:48:01.226Z</time></trkpt><trkpt lat="45.13856875357005" lon="7.050584369037321"><ele>501.0</ele><time>2026-04-19T15:49:43.812Z</time></trkpt><trkpt lat="45.138422960246096" lon="7.050405718667074"><ele>501.0</ele><time>2026-04-19T15:50:41.999Z</time></trkpt><trkpt lat="45.13834496296124" lon="7.050420802734276"><ele>501.0</ele><time>2026-04-19T15:50:44.999Z</time></trkpt><trkpt lat="45.13834277976575" lon="7.0505168060361285"><ele>501.0</ele><time>2026-04-19T15:50:52Z</time></trkpt><trkpt lat="45.13827607087922" lon="7.050516286308883"><ele>501.0</ele><time>2026-04-19T15:51:30Z</time></trkpt><trkpt lat="45.13827677402185" lon="7.050610372912354"><ele>501.0</ele><time>2026-04-19T15:53:03Z</time></trkpt><trkpt lat="45.13826466602333" lon="7.050521000127722"><ele>501.0</ele><time>2026-04-19T15:55:29Z</time></trkpt><trkpt lat="45.13834255912902" lon="7.050569950038578"><ele>501.0</ele><time>2026-04-19T15:59:03Z</time></trkpt><trkpt lat="45.13827830391922" lon="7.05070773795746"><ele>500.4</ele><time>2026-04-19T15:59:06Z</time></trkpt><trkpt lat="45.13826039911285" lon="7.05086295590914"><ele>499.8</ele><time>2026-04-19T15:59:08Z</time></trkpt><trkpt lat="45.13824014227201" lon="7.051036239228865"><ele>499.19999999999993</ele><time>2026-04-19T15:59:10Z</time></trkpt><trkpt lat="45.138225934323984" lon="7.051157778834179"><ele>498.59999999999997</ele><time>2026-04-19T15:59:11Z</time></trkpt><trkpt lat="45.138213635088704" lon="7.051252373014137"><ele>498.0</ele><time>2026-04-19T15:59:12Z</time></trkpt><trkpt lat="45.138192079216665" lon="7.051419384528216"><ele>497.8333333333333</ele><time>2026-04-19T15:59:14Z</time></trkpt><trkpt lat="45.13819385343021" lon="7.051512091228409"><ele>497.66666666666663</ele><time>2026-04-19T15:59:15Z</time></trkpt><trkpt lat="45.138177413916615" lon="7.051621127087765"><ele>497.5</ele><time>2026-04-19T15:59:16Z</time></trkpt><trkpt lat="45.138147975217294" lon="7.051735205906012"><ele>497.3333333333333</ele><time>2026-04-19T15:59:17Z</time></trkpt><trkpt lat="45.1381312741262" lon="7.051853206964412"><ele>497.16666666666663</ele><time>2026-04-19T15:59:18Z</time></trkpt><trkpt lat="45.13811293574591" lon="7.051982776316905"><ele>497.0</ele><time>2026-04-19T15:59:19Z</time></trkpt><trkpt lat="45.138093811426515" lon="7.052117899920888"><ele>496.6</ele><time>2026-04-19T15:59:20Z</time></trkpt><trkpt lat="45.13807595913476" lon="7.052257073488047"><ele>496.20000000000005</ele><time>2026-04-19T15:59:21Z</time></trkpt><trkpt lat="45.138078637144936" lon="7.05239196322253"><ele>495.8</ele><time>2026-04-19T15:59:22Z</time></trkpt><trkpt lat="45.13805657388472" lon="7.0525314536904515"><ele>495.4</ele><time>2026-04-19T15:59:23Z</time></trkpt><trkpt lat="45.13803660841948" lon="7.052671566632592"><ele>495.0</ele><time>2026-04-19T15:59:24Z</time></trkpt><trkpt lat="45.13802139778821" lon="7.05281761805393"><ele>495.0</ele><time>2026-04-19T15:59:25Z</time></trkpt><trkpt lat="45.137998449121895" lon="7.052948508969703"><ele>495.0</ele><time>2026-04-19T15:59:26Z</time></trkpt><trkpt lat="45.13798193208341" lon="7.053063183127216"><ele>495.0</ele><time>2026-04-19T15:59:27Z</time></trkpt><trkpt lat="45.13796621448094" lon="7.053179791044931"><ele>495.0</ele><time>2026-04-19T15:59:28Z</time></trkpt><trkpt lat="45.13795506992826" lon="7.053306723024893"><ele>495.0</ele><time>2026-04-19T15:59:29Z</time></trkpt><trkpt lat="45.137935497011746" lon="7.053450599690299"><ele>494.8</ele><time>2026-04-19T15:59:30Z</time></trkpt><trkpt lat="45.137918420418316" lon="7.053603014115247"><ele>494.6</ele><time>2026-04-19T15:59:31Z</time></trkpt><trkpt lat="45.13790198216106" lon="7.053753634746549"><ele>494.4</ele><time>2026-04-19T15:59:32Z</time></trkpt><trkpt lat="45.13788141275591" lon="7.053908500510268"><ele>494.2</ele><time>2026-04-19T15:59:33Z</time></trkpt><trkpt lat="45.13786063284399" lon="7.054066248936344"><ele>494.0</ele><time>2026-04-19T15:59:34Z</time></trkpt><trkpt lat="45.13784179096368" lon="7.05423160522784"><ele>494.0</ele><time>2026-04-19T15:59:35Z</time></trkpt><trkpt lat="45.13783280082719" lon="7.054407528298236"><ele>494.0</ele><time>2026-04-19T15:59:36Z</time></trkpt><trkpt lat="45.13780957155493" lon="7.054574574614973"><ele>494.0</ele><time>2026-04-19T15:59:37Z</time></trkpt><trkpt lat="45.13778776801583" lon="7.0547434562771505"><ele>494.0</ele><time>2026-04-19T15:59:38Z</time></trkpt><trkpt lat="45.137765475337154" lon="7.0549150998207315"><ele>493.25</ele><time>2026-04-19T15:59:39Z</time></trkpt><trkpt lat="45.13774417228306" lon="7.055087366042573"><ele>492.5</ele><time>2026-04-19T15:59:40Z</time></trkpt><trkpt lat="45.13772723062669" lon="7.055260748008191"><ele>491.75</ele><time>2026-04-19T15:59:41Z</time></trkpt><trkpt lat="45.13770748681018" lon="7.055436670369486"><ele>491.0</ele><time>2026-04-19T15:59:42Z</time></trkpt><trkpt lat="45.13768349323927" lon="7.05561527923494"><ele>491.0</ele><time>2026-04-19T15:59:43Z</time></trkpt><trkpt lat="45.137660301780784" lon="7.055791518612425"><ele>491.0</ele><time>2026-04-19T15:59:44Z</time></trkpt><trkpt lat="45.13763966893732" lon="7.055970926975618"><ele>491.0</ele><time>2026-04-19T15:59:45Z</time></trkpt><trkpt lat="45.1376234203103" lon="7.056156832492918"><ele>491.0</ele><time>2026-04-19T15:59:46Z</time></trkpt><trkpt lat="45.13760224459678" lon="7.056344415231813"><ele>491.0</ele><time>2026-04-19T15:59:47Z</time></trkpt><trkpt lat="45.13757894618537" lon="7.056539834096362"><ele>491.0</ele><time>2026-04-19T15:59:48Z</time></trkpt><trkpt lat="45.1375428920685" lon="7.05672543827763"><ele>491.0</ele><time>2026-04-19T15:59:49Z</time></trkpt><trkpt lat="45.137535153388676" lon="7.056918406865671"><ele>491.0</ele><time>2026-04-19T15:59:50Z</time></trkpt><trkpt lat="45.1375143989245" lon="7.057109810797076"><ele>491.0</ele><time>2026-04-19T15:59:51Z</time></trkpt><trkpt lat="45.137476568191715" lon="7.05729583009646"><ele>491.0</ele><time>2026-04-19T15:59:52Z</time></trkpt><trkpt lat="45.13745239861606" lon="7.057496830706278"><ele>491.0</ele><time>2026-04-19T15:59:53Z</time></trkpt><trkpt lat="45.13742974052574" lon="7.057687039042104"><ele>491.0</ele><time>2026-04-19T15:59:54Z</time></trkpt><trkpt lat="45.13740725282425" lon="7.057877877693191"><ele>490.0</ele><time>2026-04-19T15:59:55Z</time></trkpt><trkpt lat="45.137383031272805" lon="7.058079240788677"><ele>489.0</ele><time>2026-04-19T15:59:56Z</time></trkpt><trkpt lat="45.13735867000947" lon="7.058282224837293"><ele>488.0</ele><time>2026-04-19T15:59:57Z</time></trkpt><trkpt lat="45.1373344067994" lon="7.0584918360197975"><ele>487.0</ele><time>2026-04-19T15:59:58Z</time></trkpt><trkpt lat="45.13730971852586" lon="7.05870511931756"><ele>487.0</ele><time>2026-04-19T15:59:59Z</time></trkpt><trkpt lat="45.1372852459628" lon="7.058916539049261"><ele>487.0</ele><time>2026-04-19T16:00:00Z</time></trkpt><trkpt lat="45.13726261768628" lon="7.059112026030167"><ele>487.0</ele><time>2026-04-19T16:00:01Z</time></trkpt><trkpt lat="45.1372406606318" lon="7.059301714499135"><ele>487.0</ele><time>2026-04-19T16:00:02Z</time></trkpt><trkpt lat="45.137219253367725" lon="7.05948459556767"><ele>487.5</ele><time>2026-04-19T16:00:03Z</time></trkpt><trkpt lat="45.13719717540866" lon="7.059673311966316"><ele>488.0</ele><time>2026-04-19T16:00:04Z</time></trkpt><trkpt lat="45.13717465331142" lon="7.059865824636866"><ele>488.5</ele><time>2026-04-19T16:00:05Z</time></trkpt><trkpt lat="45.13715153207091" lon="7.0600579464506765"><ele>489.0</ele><time>2026-04-19T16:00:06Z</time></trkpt><trkpt lat="45.13712880136718" lon="7.060246586163019"><ele>489.1666666666667</ele><time>2026-04-19T16:00:07Z</time></trkpt><trkpt lat="45.13710855637037" lon="7.0604145972219845"><ele>489.33333333333337</ele><time>2026-04-19T16:00:08Z</time></trkpt><trkpt lat="45.137091520973854" lon="7.060555709589562"><ele>489.5</ele><time>2026-04-19T16:00:09Z</time></trkpt><trkpt lat="45.13707808696935" lon="7.06066521910256"><ele>489.6666666666667</ele><time>2026-04-19T16:00:10Z</time></trkpt><trkpt lat="45.13706661828858" lon="7.060760037564135"><ele>489.83333333333337</ele><time>2026-04-19T16:00:11Z</time></trkpt><trkpt lat="45.1370553968361" lon="7.06084906258832"><ele>490.0</ele><time>2026-04-19T16:00:12Z</time></trkpt><trkpt lat="45.137028961088205" lon="7.061003843735739"><ele>490.00000000000006</ele><time>2026-04-19T16:00:14Z</time></trkpt><trkpt lat="45.136955781087664" lon="7.06114856214544"><ele>490.0</ele><time>2026-04-19T16:00:16Z</time></trkpt><trkpt lat="45.13694264262684" lon="7.0612381365080905"><ele>490.0</ele><time>2026-04-19T16:00:17Z</time></trkpt><trkpt lat="45.13694648490381" lon="7.061340566377827"><ele>490.0</ele><time>2026-04-19T16:00:18Z</time></trkpt><trkpt lat="45.13696881725968" lon="7.061452280683402"><ele>490.00000000000006</ele><time>2026-04-19T16:00:19Z</time></trkpt><trkpt lat="45.13698096908625" lon="7.061567917720513"><ele>490.0</ele><time>2026-04-19T16:00:20Z</time></trkpt><trkpt lat="45.136953775321565" lon="7.061699547122433"><ele>489.83333333333337</ele><time>2026-04-19T16:00:21Z</time></trkpt><trkpt lat="45.1369378511934" lon="7.061830059639463"><ele>489.6666666666667</ele><time>2026-04-19T16:00:22Z</time></trkpt><trkpt lat="45.13692315763405" lon="7.0619504862703915"><ele>489.5</ele><time>2026-04-19T16:00:23Z</time></trkpt><trkpt lat="45.13692437025561" lon="7.0620684626697345"><ele>489.33333333333337</ele><time>2026-04-19T16:00:24Z</time></trkpt><trkpt lat="45.13690867627378" lon="7.062190789148593"><ele>489.1666666666667</ele><time>2026-04-19T16:00:25Z</time></trkpt><trkpt lat="45.13689269879685" lon="7.062306759655331"><ele>489.0</ele><time>2026-04-19T16:00:26Z</time></trkpt><trkpt lat="45.13686734704322" lon="7.062407903671335"><ele>489.6</ele><time>2026-04-19T16:00:27Z</time></trkpt><trkpt lat="45.136853765239344" lon="7.062519218634971"><ele>490.2</ele><time>2026-04-19T16:00:28Z</time></trkpt><trkpt lat="45.136838919579425" lon="7.062640892106675"><ele>490.80000000000007</ele><time>2026-04-19T16:00:29Z</time></trkpt><trkpt lat="45.13682329940962" lon="7.062768913175155"><ele>491.40000000000003</ele><time>2026-04-19T16:00:30Z</time></trkpt><trkpt lat="45.13680679565226" lon="7.062904176053814"><ele>492.0</ele><time>2026-04-19T16:00:31Z</time></trkpt><trkpt lat="45.13680524827014" lon="7.063041985371625"><ele>492.0</ele><time>2026-04-19T16:00:32Z</time></trkpt><trkpt lat="45.13679037654366" lon="7.063172089119071"><ele>492.0</ele><time>2026-04-19T16:00:33Z</time></trkpt><trkpt lat="45.13677508048094" lon="7.063295881351985"><ele>492.0</ele><time>2026-04-19T16:00:34Z</time></trkpt><trkpt lat="45.13675510320179" lon="7.06341731821881"><ele>492.0</ele><time>2026-04-19T16:00:35Z</time></trkpt><trkpt lat="45.13673817236353" lon="7.063542557438466"><ele>492.0</ele><time>2026-04-19T16:00:36Z</time></trkpt><trkpt lat="45.13672750858277" lon="7.063669047220127"><ele>492.0</ele><time>2026-04-19T16:00:37Z</time></trkpt><trkpt lat="45.136714389821215" lon="7.063796832006311"><ele>492.0</ele><time>2026-04-19T16:00:38Z</time></trkpt><trkpt lat="45.136696625196905" lon="7.06393462760578"><ele>492.00000000000006</ele><time>2026-04-19T16:00:39Z</time></trkpt><trkpt lat="45.13667886092473" lon="7.064073392706614"><ele>492.00000000000006</ele><time>2026-04-19T16:00:40Z</time></trkpt><trkpt lat="45.1366617450744" lon="7.064213143198617"><ele>492.0</ele><time>2026-04-19T16:00:41Z</time></trkpt><trkpt lat="45.13664472444387" lon="7.064349329952557"><ele>492.0</ele><time>2026-04-19T16:00:42Z</time></trkpt><trkpt lat="45.13662647975574" lon="7.064486373289821"><ele>492.0</ele><time>2026-04-19T16:00:43Z</time></trkpt><trkpt lat="45.13660900117401" lon="7.064614346333472"><ele>492.0</ele><time>2026-04-19T16:00:44Z</time></trkpt><trkpt lat="45.13659469238092" lon="7.064725045165592"><ele>492.0</ele><time>2026-04-19T16:00:45Z</time></trkpt><trkpt lat="45.13658447788953" lon="7.064822090157236"><ele>492.0</ele><time>2026-04-19T16:00:46Z</time></trkpt><trkpt lat="45.13656941721605" lon="7.064992963025377"><ele>492.0</ele><time>2026-04-19T16:00:48Z</time></trkpt><trkpt lat="45.13656345489901" lon="7.065084302918612"><ele>492.0</ele><time>2026-04-19T16:00:49Z</time></trkpt><trkpt lat="45.13655255776026" lon="7.0651798687271885"><ele>490.8</ele><time>2026-04-19T16:00:50Z</time></trkpt><trkpt lat="45.136537523959774" lon="7.065273248580456"><ele>489.6</ele><time>2026-04-19T16:00:51Z</time></trkpt><trkpt lat="45.13652651214915" lon="7.0653847085401145"><ele>488.40000000000003</ele><time>2026-04-19T16:00:52Z</time></trkpt><trkpt lat="45.13651769139933" lon="7.06551774074108"><ele>487.20000000000005</ele><time>2026-04-19T16:00:53Z</time></trkpt><trkpt lat="45.136501190013696" lon="7.065661475120532"><ele>486.0</ele><time>2026-04-19T16:00:54Z</time></trkpt><trkpt lat="45.136477604085385" lon="7.065818756900352"><ele>484.75</ele><time>2026-04-19T16:00:55Z</time></trkpt><trkpt lat="45.13646273320009" lon="7.065976326240045"><ele>483.5</ele><time>2026-04-19T16:00:56Z</time></trkpt><trkpt lat="45.13645019052857" lon="7.0661393654276745"><ele>482.25</ele><time>2026-04-19T16:00:57Z</time></trkpt><trkpt lat="45.136446430822524" lon="7.066316581911434"><ele>481.0</ele><time>2026-04-19T16:00:58Z</time></trkpt><trkpt lat="45.136449917618386" lon="7.066493953444334"><ele>480.75</ele><time>2026-04-19T16:00:59Z</time></trkpt><trkpt lat="45.13645965653816" lon="7.066677244988836"><ele>480.5</ele><time>2026-04-19T16:01:00Z</time></trkpt><trkpt lat="45.13647838745155" lon="7.066857474393034"><ele>480.25</ele><time>2026-04-19T16:01:01Z</time></trkpt><trkpt lat="45.136498706487124" lon="7.067049429680496"><ele>480.0</ele><time>2026-04-19T16:01:02Z</time></trkpt><trkpt lat="45.13652333873322" lon="7.067234223465018"><ele>480.0</ele><time>2026-04-19T16:01:03Z</time></trkpt><trkpt lat="45.1365463646353" lon="7.067410172835832"><ele>480.0</ele><time>2026-04-19T16:01:04Z</time></trkpt><trkpt lat="45.136568881094824" lon="7.067586465107367"><ele>480.0</ele><time>2026-04-19T16:01:05Z</time></trkpt><trkpt lat="45.13659343845671" lon="7.067757095816388"><ele>480.0</ele><time>2026-04-19T16:01:06Z</time></trkpt><trkpt lat="45.136616738115436" lon="7.067931760364947"><ele>480.5</ele><time>2026-04-19T16:01:07Z</time></trkpt><trkpt lat="45.13664135491895" lon="7.068110058473205"><ele>481.0</ele><time>2026-04-19T16:01:08Z</time></trkpt><trkpt lat="45.136666405160824" lon="7.068290293073363"><ele>481.5</ele><time>2026-04-19T16:01:09Z</time></trkpt><trkpt lat="45.13668870389258" lon="7.068486799716363"><ele>482.0</ele><time>2026-04-19T16:01:10Z</time></trkpt><trkpt lat="45.13671688425787" lon="7.068692496249315"><ele>482.0</ele><time>2026-04-19T16:01:11Z</time></trkpt><trkpt lat="45.13674446697423" lon="7.0688942579830485"><ele>482.0</ele><time>2026-04-19T16:01:12Z</time></trkpt><trkpt lat="45.13677127055331" lon="7.069103773773966"><ele>482.0</ele><time>2026-04-19T16:01:13Z</time></trkpt><trkpt lat="45.1367977275462" lon="7.069300999282483"><ele>482.0</ele><time>2026-04-19T16:01:14Z</time></trkpt><trkpt lat="45.13682607472881" lon="7.069503620663215"><ele>481.75</ele><time>2026-04-19T16:01:15Z</time></trkpt><trkpt lat="45.13684949547935" lon="7.069705494641122"><ele>481.5</ele><time>2026-04-19T16:01:16Z</time></trkpt><trkpt lat="45.13687796701459" lon="7.069910931258614"><ele>481.25</ele><time>2026-04-19T16:01:17Z</time></trkpt><trkpt lat="45.1369041579894" lon="7.070112228556314"><ele>481.0</ele><time>2026-04-19T16:01:18Z</time></trkpt><trkpt lat="45.13693060262317" lon="7.07031023917551"><ele>480.0</ele><time>2026-04-19T16:01:19Z</time></trkpt><trkpt lat="45.13695797512069" lon="7.070507611113993"><ele>479.0</ele><time>2026-04-19T16:01:20Z</time></trkpt><trkpt lat="45.136985033127004" lon="7.070704978309663"><ele>478.0</ele><time>2026-04-19T16:01:21Z</time></trkpt><trkpt lat="45.137010706153134" lon="7.070902479601055"><ele>477.0</ele><time>2026-04-19T16:01:22Z</time></trkpt><trkpt lat="45.137038242312045" lon="7.07111232552191"><ele>477.0</ele><time>2026-04-19T16:01:23Z</time></trkpt><trkpt lat="45.13706359916849" lon="7.0713155271950585"><ele>477.0</ele><time>2026-04-19T16:01:24Z</time></trkpt><trkpt lat="45.13709290580195" lon="7.0715228070064535"><ele>477.0</ele><time>2026-04-19T16:01:25Z</time></trkpt><trkpt lat="45.137127210886476" lon="7.0717322104206515"><ele>477.0</ele><time>2026-04-19T16:01:26Z</time></trkpt><trkpt lat="45.13717201229592" lon="7.071934923995809"><ele>476.33333333333337</ele><time>2026-04-19T16:01:27Z</time></trkpt><trkpt lat="45.137219497445315" lon="7.0721311515270004"><ele>475.6666666666667</ele><time>2026-04-19T16:01:28Z</time></trkpt><trkpt lat="45.13726638349594" lon="7.072330150712735"><ele>475.0</ele><time>2026-04-19T16:01:29Z</time></trkpt><trkpt lat="45.13731908570606" lon="7.072540596267075"><ele>474.6666666666667</ele><time>2026-04-19T16:01:30Z</time></trkpt><trkpt lat="45.13735493841438" lon="7.072781378258753"><ele>474.33333333333337</ele><time>2026-04-19T16:01:31Z</time></trkpt><trkpt lat="45.13740943915299" lon="7.073015225058679"><ele>474.0</ele><time>2026-04-19T16:01:32Z</time></trkpt><trkpt lat="45.13747063326667" lon="7.073280431176888"><ele>474.66666666666663</ele><time>2026-04-19T16:01:33Z</time></trkpt><trkpt lat="45.13753616773574" lon="7.073560409368697"><ele>475.3333333333333</ele><time>2026-04-19T16:01:34Z</time></trkpt><trkpt lat="45.13761442919893" lon="7.073846446333461"><ele>476.0</ele><time>2026-04-19T16:01:35Z</time></trkpt><trkpt lat="45.13768721273013" lon="7.074159666622534"><ele>476.0</ele><time>2026-04-19T16:01:36Z</time></trkpt><trkpt lat="45.137761423967376" lon="7.074469192929691"><ele>476.0</ele><time>2026-04-19T16:01:37Z</time></trkpt><trkpt lat="45.1378321570353" lon="7.074759397404115"><ele>476.0</ele><time>2026-04-19T16:01:38Z</time></trkpt><trkpt lat="45.13788861220498" lon="7.075037664512344"><ele>475.66666666666663</ele><time>2026-04-19T16:01:39Z</time></trkpt><trkpt lat="45.137932757354015" lon="7.0753335372680075"><ele>475.33333333333337</ele><time>2026-04-19T16:01:40Z</time></trkpt><trkpt lat="45.13796347294723" lon="7.075641535470826"><ele>475.0</ele><time>2026-04-19T16:01:41Z</time></trkpt><trkpt lat="45.13797324453792" lon="7.075956395499981"><ele>475.0</ele><time>2026-04-19T16:01:42Z</time></trkpt><trkpt lat="45.137967061533416" lon="7.076272348818095"><ele>475.0</ele><time>2026-04-19T16:01:43Z</time></trkpt><trkpt lat="45.13795136879239" lon="7.076591269345304"><ele>475.0</ele><time>2026-04-19T16:01:44Z</time></trkpt><trkpt lat="45.13794154441063" lon="7.076909173040754"><ele>475.6666666666667</ele><time>2026-04-19T16:01:45Z</time></trkpt><trkpt lat="45.13793968583013" lon="7.077206618757007"><ele>476.33333333333337</ele><time>2026-04-19T16:01:46Z</time></trkpt><trkpt lat="45.13793794639003" lon="7.077486499474986"><ele>477.0</ele><time>2026-04-19T16:01:47Z</time></trkpt><trkpt lat="45.13794197501681" lon="7.077769403080875"><ele>477.0</ele><time>2026-04-19T16:01:48Z</time></trkpt><trkpt lat="45.137959706738464" lon="7.078063766207704"><ele>477.0</ele><time>2026-04-19T16:01:49Z</time></trkpt><trkpt lat="45.13799381711915" lon="7.078369297444722"><ele>477.0</ele><time>2026-04-19T16:01:50Z</time></trkpt><trkpt lat="45.13803631761133" lon="7.0786893861786435"><ele>476.0</ele><time>2026-04-19T16:01:51Z</time></trkpt><trkpt lat="45.13807882939946" lon="7.079014475684139"><ele>475.0</ele><time>2026-04-19T16:01:52Z</time></trkpt><trkpt lat="45.13812149655643" lon="7.079349084750104"><ele>473.0</ele><time>2026-04-19T16:01:53Z</time></trkpt><trkpt lat="45.13816106921615" lon="7.079686504523917"><ele>471.0</ele><time>2026-04-19T16:01:54Z</time></trkpt><trkpt lat="45.13820347265693" lon="7.080029101738676"><ele>470.5</ele><time>2026-04-19T16:01:55Z</time></trkpt><trkpt lat="45.138248603115166" lon="7.080364397953938"><ele>470.0</ele><time>2026-04-19T16:01:56Z</time></trkpt><trkpt lat="45.13829825072004" lon="7.080699161416104"><ele>470.5</ele><time>2026-04-19T16:01:57Z</time></trkpt><trkpt lat="45.138352245624674" lon="7.081036491448819"><ele>471.0</ele><time>2026-04-19T16:01:58Z</time></trkpt><trkpt lat="45.138389936327236" lon="7.081381717210135"><ele>470.5</ele><time>2026-04-19T16:01:59Z</time></trkpt><trkpt lat="45.13844727631409" lon="7.081720536685432"><ele>470.0</ele><time>2026-04-19T16:02:00Z</time></trkpt><trkpt lat="45.138494672040935" lon="7.0820411206604446"><ele>470.0</ele><time>2026-04-19T16:02:01Z</time></trkpt><trkpt lat="45.13854139586245" lon="7.082345101469106"><ele>470.0</ele><time>2026-04-19T16:02:02Z</time></trkpt><trkpt lat="45.13858123110889" lon="7.082642257734747"><ele>470.0</ele><time>2026-04-19T16:02:03Z</time></trkpt><trkpt lat="45.13861903769052" lon="7.082936643803802"><ele>470.3333333333333</ele><time>2026-04-19T16:02:04Z</time></trkpt><trkpt lat="45.13864726685264" lon="7.0832344245578955"><ele>470.66666666666663</ele><time>2026-04-19T16:02:05Z</time></trkpt><trkpt lat="45.13866911562075" lon="7.083527953291274"><ele>471.0</ele><time>2026-04-19T16:02:06Z</time></trkpt><trkpt lat="45.13867992405704" lon="7.083816726509177"><ele>470.33333333333337</ele><time>2026-04-19T16:02:07Z</time></trkpt><trkpt lat="45.13868168423619" lon="7.0841068810332395"><ele>469.6666666666667</ele><time>2026-04-19T16:02:08Z</time></trkpt><trkpt lat="45.13867571678249" lon="7.084397009259412"><ele>469.0</ele><time>2026-04-19T16:02:09Z</time></trkpt><trkpt lat="45.13866352978321" lon="7.0846894662050195"><ele>468.6666666666667</ele><time>2026-04-19T16:02:10Z</time></trkpt><trkpt lat="45.1386483411485" lon="7.084979368068633"><ele>468.33333333333337</ele><time>2026-04-19T16:02:11Z</time></trkpt><trkpt lat="45.13863061870728" lon="7.085266753208706"><ele>468.0</ele><time>2026-04-19T16:02:12Z</time></trkpt><trkpt lat="45.13859402501279" lon="7.085549063838907"><ele>467.66666666666663</ele><time>2026-04-19T16:02:13Z</time></trkpt><trkpt lat="45.13857310467731" lon="7.085829655904518"><ele>467.3333333333333</ele><time>2026-04-19T16:02:14Z</time></trkpt><trkpt lat="45.13855337459561" lon="7.0860942819789425"><ele>467.0</ele><time>2026-04-19T16:02:15Z</time></trkpt><trkpt lat="45.138550381776106" lon="7.086364659213844"><ele>467.0</ele><time>2026-04-19T16:02:16Z</time></trkpt><trkpt lat="45.138530344010455" lon="7.086629199085272"><ele>467.0</ele><time>2026-04-19T16:02:17Z</time></trkpt><trkpt lat="45.13851074481622" lon="7.0868898106488025"><ele>467.0</ele><time>2026-04-19T16:02:18Z</time></trkpt><trkpt lat="45.13849098952427" lon="7.087150547341274"><ele>467.0</ele><time>2026-04-19T16:02:19Z</time></trkpt><trkpt lat="45.138456359309565" lon="7.087419100060822"><ele>467.0</ele><time>2026-04-19T16:02:20Z</time></trkpt><trkpt lat="45.13843570147372" lon="7.087704614829782"><ele>467.0</ele><time>2026-04-19T16:02:21Z</time></trkpt><trkpt lat="45.13841395680478" lon="7.087993537711535"><ele>467.0</ele><time>2026-04-19T16:02:22Z</time></trkpt><trkpt lat="45.138407275875345" lon="7.088288999146784"><ele>467.0</ele><time>2026-04-19T16:02:23Z</time></trkpt><trkpt lat="45.138384649899116" lon="7.088578799058992"><ele>467.0</ele><time>2026-04-19T16:02:24Z</time></trkpt><trkpt lat="45.13836162281659" lon="7.088869704227129"><ele>466.66666666666663</ele><time>2026-04-19T16:02:25Z</time></trkpt><trkpt lat="45.138340401507286" lon="7.089169135149009"><ele>466.33333333333337</ele><time>2026-04-19T16:02:26Z</time></trkpt><trkpt lat="45.13830288654409" lon="7.089469011376753"><ele>466.0</ele><time>2026-04-19T16:02:27Z</time></trkpt><trkpt lat="45.13828042534681" lon="7.089774516601464"><ele>466.0</ele><time>2026-04-19T16:02:28Z</time></trkpt><trkpt lat="45.138257522037804" lon="7.090086035201921"><ele>466.0</ele><time>2026-04-19T16:02:29Z</time></trkpt><trkpt lat="45.13823479238411" lon="7.090395191855269"><ele>466.0</ele><time>2026-04-19T16:02:30Z</time></trkpt><trkpt lat="45.13821198325058" lon="7.090705429514558"><ele>465.6666666666667</ele><time>2026-04-19T16:02:31Z</time></trkpt><trkpt lat="45.13818922328412" lon="7.09101499846832"><ele>465.33333333333337</ele><time>2026-04-19T16:02:32Z</time></trkpt><trkpt lat="45.138166096800056" lon="7.091329552538955"><ele>465.0</ele><time>2026-04-19T16:02:33Z</time></trkpt><trkpt lat="45.138142647957174" lon="7.091652657962241"><ele>464.0</ele><time>2026-04-19T16:02:34Z</time></trkpt><trkpt lat="45.13811892675396" lon="7.091983474158534"><ele>463.0</ele><time>2026-04-19T16:02:35Z</time></trkpt><trkpt lat="45.13809526142264" lon="7.09231460977976"><ele>462.5</ele><time>2026-04-19T16:02:36Z</time></trkpt><trkpt lat="45.13807039516942" lon="7.0926496105471335"><ele>462.0</ele><time>2026-04-19T16:02:37Z</time></trkpt><trkpt lat="45.13804432383722" lon="7.093000183957035"><ele>462.5</ele><time>2026-04-19T16:02:38Z</time></trkpt><trkpt lat="45.13801759070086" lon="7.093359656295582"><ele>463.0</ele><time>2026-04-19T16:02:39Z</time></trkpt><trkpt lat="45.137991287019226" lon="7.0937133541414905"><ele>463.0</ele><time>2026-04-19T16:02:40Z</time></trkpt><trkpt lat="45.137965470058674" lon="7.094065097094359"><ele>463.0</ele><time>2026-04-19T16:02:41Z</time></trkpt><trkpt lat="45.137940022427145" lon="7.094418436784917"><ele>463.0</ele><time>2026-04-19T16:02:42Z</time></trkpt><trkpt lat="45.13793106287934" lon="7.094774078533944"><ele>463.0</ele><time>2026-04-19T16:02:43Z</time></trkpt><trkpt lat="45.13790431082677" lon="7.095130584694397"><ele>462.0</ele><time>2026-04-19T16:02:44Z</time></trkpt><trkpt lat="45.13787772906638" lon="7.095488742121088"><ele>461.0</ele><time>2026-04-19T16:02:45Z</time></trkpt><trkpt lat="45.13785132427011" lon="7.095850980712267"><ele>461.0</ele><time>2026-04-19T16:02:46Z</time></trkpt><trkpt lat="45.13782216924485" lon="7.096218414419128"><ele>461.0</ele><time>2026-04-19T16:02:47Z</time></trkpt><trkpt lat="45.137796118930794" lon="7.096585987502984"><ele>460.5</ele><time>2026-04-19T16:02:48Z</time></trkpt><trkpt lat="45.13776963144375" lon="7.096954747763331"><ele>460.0</ele><time>2026-04-19T16:02:49Z</time></trkpt><trkpt lat="45.13774151819007" lon="7.097313014686238"><ele>460.0</ele><time>2026-04-19T16:02:50Z</time></trkpt><trkpt lat="45.13771292307067" lon="7.097680127251696"><ele>460.0</ele><time>2026-04-19T16:02:51Z</time></trkpt><trkpt lat="45.137685487234954" lon="7.09805016440662"><ele>458.5</ele><time>2026-04-19T16:02:52Z</time></trkpt><trkpt lat="45.1376596462208" lon="7.098421778751209"><ele>457.0</ele><time>2026-04-19T16:02:53Z</time></trkpt><trkpt lat="45.137631768223976" lon="7.098796090547447"><ele>457.0</ele><time>2026-04-19T16:02:54Z</time></trkpt><trkpt lat="45.137602916280784" lon="7.099170456668739"><ele>457.0</ele><time>2026-04-19T16:02:55Z</time></trkpt><trkpt lat="45.13757494704622" lon="7.09955023071041"><ele>458.5</ele><time>2026-04-19T16:02:56Z</time></trkpt><trkpt lat="45.1375470021239" lon="7.0999294949324945"><ele>460.0</ele><time>2026-04-19T16:02:57Z</time></trkpt><trkpt lat="45.13751809593217" lon="7.100307459227792"><ele>460.0</ele><time>2026-04-19T16:02:58Z</time></trkpt><trkpt lat="45.13749119914916" lon="7.100690516031236"><ele>460.0</ele><time>2026-04-19T16:02:59Z</time></trkpt><trkpt lat="45.13746544013321" lon="7.101070925028234"><ele>459.0</ele><time>2026-04-19T16:03:00Z</time></trkpt><trkpt lat="45.137438105332244" lon="7.101453003675318"><ele>458.0</ele><time>2026-04-19T16:03:01Z</time></trkpt><trkpt lat="45.13740897449879" lon="7.1018363454425355"><ele>457.5</ele><time>2026-04-19T16:03:02Z</time></trkpt><trkpt lat="45.13738060058855" lon="7.1022207139304045"><ele>457.0</ele><time>2026-04-19T16:03:03Z</time></trkpt><trkpt lat="45.137350755811276" lon="7.102608129672715"><ele>457.0</ele><time>2026-04-19T16:03:04Z</time></trkpt><trkpt lat="45.13732296955892" lon="7.102994616671491"><ele>457.0</ele><time>2026-04-19T16:03:05Z</time></trkpt><trkpt lat="45.13729343673515" lon="7.103379915946366"><ele>457.0</ele><time>2026-04-19T16:03:06Z</time></trkpt><trkpt lat="45.13726638250999" lon="7.103760682480169"><ele>457.0</ele><time>2026-04-19T16:03:07Z</time></trkpt><trkpt lat="45.13723779285167" lon="7.104140133056893"><ele>457.0</ele><time>2026-04-19T16:03:08Z</time></trkpt><trkpt lat="45.1372109654357" lon="7.104515593827022"><ele>457.0</ele><time>2026-04-19T16:03:09Z</time></trkpt><trkpt lat="45.13718350028796" lon="7.104884404504003"><ele>457.0</ele><time>2026-04-19T16:03:10Z</time></trkpt><trkpt lat="45.13715666638038" lon="7.105251457640234"><ele>457.0</ele><time>2026-04-19T16:03:11Z</time></trkpt><trkpt lat="45.13713044120483" lon="7.105611532788699"><ele>456.0</ele><time>2026-04-19T16:03:12Z</time></trkpt><trkpt lat="45.1371039792631" lon="7.105962933886887"><ele>455.0</ele><time>2026-04-19T16:03:13Z</time></trkpt><trkpt lat="45.13707713350716" lon="7.10630315378025"><ele>454.3333333333333</ele><time>2026-04-19T16:03:14Z</time></trkpt><trkpt lat="45.13705338363171" lon="7.10662426820655"><ele>453.66666666666663</ele><time>2026-04-19T16:03:15Z</time></trkpt><trkpt lat="45.13703352563342" lon="7.10693687870144"><ele>453.0</ele><time>2026-04-19T16:03:16Z</time></trkpt><trkpt lat="45.13701100726413" lon="7.1072508366880145"><ele>453.33333333333337</ele><time>2026-04-19T16:03:17Z</time></trkpt><trkpt lat="45.136989333908836" lon="7.107558535436422"><ele>453.6666666666667</ele><time>2026-04-19T16:03:18Z</time></trkpt><trkpt lat="45.13696915740078" lon="7.107869839793027"><ele>454.0</ele><time>2026-04-19T16:03:19Z</time></trkpt><trkpt lat="45.13694137098296" lon="7.108182460747028"><ele>454.0</ele><time>2026-04-19T16:03:20Z</time></trkpt><trkpt lat="45.136923530832405" lon="7.108481770606571"><ele>454.0</ele><time>2026-04-19T16:03:21Z</time></trkpt><trkpt lat="45.13689554820641" lon="7.108789043626861"><ele>454.0</ele><time>2026-04-19T16:03:22Z</time></trkpt><trkpt lat="45.13687393353058" lon="7.109096214018748"><ele>454.33333333333337</ele><time>2026-04-19T16:03:23Z</time></trkpt><trkpt lat="45.13685301243516" lon="7.109402928300228"><ele>454.66666666666663</ele><time>2026-04-19T16:03:24Z</time></trkpt><trkpt lat="45.13682621044965" lon="7.109710947337358"><ele>455.0</ele><time>2026-04-19T16:03:25Z</time></trkpt><trkpt lat="45.13680052671113" lon="7.110020336728433"><ele>455.0</ele><time>2026-04-19T16:03:26Z</time></trkpt><trkpt lat="45.13677868089319" lon="7.110327727511886"><ele>455.0</ele><time>2026-04-19T16:03:27Z</time></trkpt><trkpt lat="45.13675505767673" lon="7.110634437323938"><ele>455.0</ele><time>2026-04-19T16:03:28Z</time></trkpt><trkpt lat="45.13673118125425" lon="7.110952112213473"><ele>455.0</ele><time>2026-04-19T16:03:29Z</time></trkpt><trkpt lat="45.136706764115175" lon="7.111267684553698"><ele>455.0</ele><time>2026-04-19T16:03:30Z</time></trkpt><trkpt lat="45.13668358874462" lon="7.1115765100367225"><ele>455.0</ele><time>2026-04-19T16:03:31Z</time></trkpt><trkpt lat="45.136665079322334" lon="7.111891467947306"><ele>456.0</ele><time>2026-04-19T16:03:32Z</time></trkpt><trkpt lat="45.13664461796743" lon="7.112209195204896"><ele>457.0</ele><time>2026-04-19T16:03:33Z</time></trkpt><trkpt lat="45.13662364287699" lon="7.112531308442854"><ele>458.0</ele><time>2026-04-19T16:03:34Z</time></trkpt><trkpt lat="45.13659514674786" lon="7.112860619199172"><ele>459.0</ele><time>2026-04-19T16:03:35Z</time></trkpt><trkpt lat="45.136567052086846" lon="7.113182963069897"><ele>458.0</ele><time>2026-04-19T16:03:36Z</time></trkpt><trkpt lat="45.13654331518072" lon="7.113518130926684"><ele>457.0</ele><time>2026-04-19T16:03:37Z</time></trkpt><trkpt lat="45.136518317496865" lon="7.113859137418468"><ele>457.5</ele><time>2026-04-19T16:03:38Z</time></trkpt><trkpt lat="45.13649245269072" lon="7.1142012649433255"><ele>458.0</ele><time>2026-04-19T16:03:39Z</time></trkpt><trkpt lat="45.13646498260591" lon="7.114542603885543"><ele>458.0</ele><time>2026-04-19T16:03:40Z</time></trkpt><trkpt lat="45.136438946140956" lon="7.114885071764337"><ele>458.0</ele><time>2026-04-19T16:03:41Z</time></trkpt><trkpt lat="45.13641173853905" lon="7.115237057189548"><ele>457.5</ele><time>2026-04-19T16:03:42Z</time></trkpt><trkpt lat="45.136386153061494" lon="7.1155882983419065"><ele>457.0</ele><time>2026-04-19T16:03:43Z</time></trkpt><trkpt lat="45.13635685882353" lon="7.115931458787333"><ele>456.5</ele><time>2026-04-19T16:03:44Z</time></trkpt><trkpt lat="45.13632971832993" lon="7.116283792864366"><ele>456.0</ele><time>2026-04-19T16:03:45Z</time></trkpt><trkpt lat="45.136300302578505" lon="7.116629886482163"><ele>456.0</ele><time>2026-04-19T16:03:46Z</time></trkpt><trkpt lat="45.13627377742825" lon="7.1169734252769405"><ele>456.0</ele><time>2026-04-19T16:03:47Z</time></trkpt><trkpt lat="45.136247076243016" lon="7.117320021979437"><ele>455.0</ele><time>2026-04-19T16:03:48Z</time></trkpt><trkpt lat="45.13622409074259" lon="7.117668323908747"><ele>454.0</ele><time>2026-04-19T16:03:49Z</time></trkpt><trkpt lat="45.13619357368206" lon="7.118017412651718"><ele>454.5</ele><time>2026-04-19T16:03:50Z</time></trkpt><trkpt lat="45.13616198757403" lon="7.1183622470790056"><ele>455.0</ele><time>2026-04-19T16:03:51Z</time></trkpt><trkpt lat="45.136126642723156" lon="7.118712697913779"><ele>455.0</ele><time>2026-04-19T16:03:52Z</time></trkpt><trkpt lat="45.136099863091374" lon="7.119065529527165"><ele>455.0</ele><time>2026-04-19T16:03:53Z</time></trkpt><trkpt lat="45.13608096553897" lon="7.1194196752357195"><ele>455.5</ele><time>2026-04-19T16:03:54Z</time></trkpt><trkpt lat="45.136056514954205" lon="7.119768142840992"><ele>456.0</ele><time>2026-04-19T16:03:55Z</time></trkpt><trkpt lat="45.136025827581236" lon="7.1200858791281885"><ele>455.33333333333337</ele><time>2026-04-19T16:03:56Z</time></trkpt><trkpt lat="45.13599673449235" lon="7.12038483775079"><ele>454.6666666666667</ele><time>2026-04-19T16:03:57Z</time></trkpt><trkpt lat="45.13598096604393" lon="7.120652219593895"><ele>454.0</ele><time>2026-04-19T16:03:58Z</time></trkpt><trkpt lat="45.135999476153145" lon="7.120926077988589"><ele>453.6666666666667</ele><time>2026-04-19T16:03:59Z</time></trkpt><trkpt lat="45.13606122630442" lon="7.121205307064477"><ele>453.33333333333337</ele><time>2026-04-19T16:04:00Z</time></trkpt><trkpt lat="45.13617305266284" lon="7.121468397102572"><ele>453.0</ele><time>2026-04-19T16:04:01Z</time></trkpt><trkpt lat="45.13631493338832" lon="7.121712870583535"><ele>453.0</ele><time>2026-04-19T16:04:02Z</time></trkpt><trkpt lat="45.13646849124801" lon="7.1219373153037555"><ele>453.0</ele><time>2026-04-19T16:04:03Z</time></trkpt><trkpt lat="45.13664199677816" lon="7.122147744919975"><ele>453.0</ele><time>2026-04-19T16:04:04Z</time></trkpt><trkpt lat="45.136816980698214" lon="7.122337997594504"><ele>452.0</ele><time>2026-04-19T16:04:05Z</time></trkpt><trkpt lat="45.136979857370164" lon="7.122532316330972"><ele>451.0</ele><time>2026-04-19T16:04:06Z</time></trkpt><trkpt lat="45.13712613976602" lon="7.122745201836071"><ele>450.0</ele><time>2026-04-19T16:04:07Z</time></trkpt><trkpt lat="45.13727127605942" lon="7.122968613484204"><ele>450.33333333333337</ele><time>2026-04-19T16:04:08Z</time></trkpt><trkpt lat="45.13741354276883" lon="7.123196946063856"><ele>450.6666666666667</ele><time>2026-04-19T16:04:09Z</time></trkpt><trkpt lat="45.13754191872168" lon="7.123423411823807"><ele>451.0</ele><time>2026-04-19T16:04:10Z</time></trkpt><trkpt lat="45.137643858756086" lon="7.1236670386096375"><ele>451.0</ele><time>2026-04-19T16:04:11Z</time></trkpt><trkpt lat="45.137718813589466" lon="7.123927102297873"><ele>451.0</ele><time>2026-04-19T16:04:12Z</time></trkpt><trkpt lat="45.137738210035685" lon="7.124210268659491"><ele>451.0</ele><time>2026-04-19T16:04:13Z</time></trkpt><trkpt lat="45.13775973205281" lon="7.1245004068286795"><ele>449.33333333333337</ele><time>2026-04-19T16:04:14Z</time></trkpt><trkpt lat="45.137791954827065" lon="7.124794240883281"><ele>447.66666666666663</ele><time>2026-04-19T16:04:15Z</time></trkpt><trkpt lat="45.1378073108688" lon="7.12509223478625"><ele>446.0</ele><time>2026-04-19T16:04:16Z</time></trkpt><trkpt lat="45.13783167975571" lon="7.125393017656473"><ele>445.3333333333333</ele><time>2026-04-19T16:04:17Z</time></trkpt><trkpt lat="45.137855323653014" lon="7.125702676351816"><ele>444.66666666666663</ele><time>2026-04-19T16:04:18Z</time></trkpt><trkpt lat="45.13787663999141" lon="7.1260153735387615"><ele>444.0</ele><time>2026-04-19T16:04:19Z</time></trkpt><trkpt lat="45.137897698859966" lon="7.1263315565250105"><ele>444.33333333333337</ele><time>2026-04-19T16:04:20Z</time></trkpt><trkpt lat="45.137922380655844" lon="7.126647534369687"><ele>444.6666666666667</ele><time>2026-04-19T16:04:21Z</time></trkpt><trkpt lat="45.13794697241626" lon="7.126961836418934"><ele>445.0</ele><time>2026-04-19T16:04:22Z</time></trkpt><trkpt lat="45.137973361707324" lon="7.127279980176216"><ele>444.5</ele><time>2026-04-19T16:04:23Z</time></trkpt><trkpt lat="45.137997244177605" lon="7.127599042255595"><ele>444.0</ele><time>2026-04-19T16:04:24Z</time></trkpt><trkpt lat="45.13802246126862" lon="7.127923978017683"><ele>443.5</ele><time>2026-04-19T16:04:25Z</time></trkpt><trkpt lat="45.138047266419846" lon="7.128249351587557"><ele>443.0</ele><time>2026-04-19T16:04:26Z</time></trkpt><trkpt lat="45.13807268246292" lon="7.128575096183878"><ele>443.0</ele><time>2026-04-19T16:04:27Z</time></trkpt><trkpt lat="45.13809803000722" lon="7.128893925379765"><ele>443.0</ele><time>2026-04-19T16:04:28Z</time></trkpt><trkpt lat="45.13812170811213" lon="7.129218313432846"><ele>442.5</ele><time>2026-04-19T16:04:29Z</time></trkpt><trkpt lat="45.13814030250189" lon="7.129541402517807"><ele>442.0</ele><time>2026-04-19T16:04:30Z</time></trkpt><trkpt lat="45.13815243735419" lon="7.129867525091088"><ele>442.5</ele><time>2026-04-19T16:04:31Z</time></trkpt><trkpt lat="45.1381532983231" lon="7.130192954486111"><ele>443.0</ele><time>2026-04-19T16:04:32Z</time></trkpt><trkpt lat="45.138142391894505" lon="7.130516625313083"><ele>443.0</ele><time>2026-04-19T16:04:33Z</time></trkpt><trkpt lat="45.13813354719732" lon="7.130834516957946"><ele>443.0</ele><time>2026-04-19T16:04:34Z</time></trkpt><trkpt lat="45.13814438651496" lon="7.1311451890853865"><ele>443.0</ele><time>2026-04-19T16:04:35Z</time></trkpt><trkpt lat="45.138154427308834" lon="7.13143490240123"><ele>443.3333333333333</ele><time>2026-04-19T16:04:36Z</time></trkpt><trkpt lat="45.13814576265194" lon="7.13170619248806"><ele>443.66666666666663</ele><time>2026-04-19T16:04:37Z</time></trkpt><trkpt lat="45.138110869224704" lon="7.131958837599592"><ele>444.0</ele><time>2026-04-19T16:04:38Z</time></trkpt><trkpt lat="45.138058051262895" lon="7.132214315978468"><ele>444.0</ele><time>2026-04-19T16:04:39Z</time></trkpt><trkpt lat="45.13798642988929" lon="7.132458346716497"><ele>444.0</ele><time>2026-04-19T16:04:40Z</time></trkpt><trkpt lat="45.13801221202437" lon="7.1326853033160305"><ele>444.0</ele><time>2026-04-19T16:04:41Z</time></trkpt><trkpt lat="45.13807519950387" lon="7.1329276444853305"><ele>444.0</ele><time>2026-04-19T16:04:42Z</time></trkpt><trkpt lat="45.138170562413855" lon="7.133164643635896"><ele>444.0</ele><time>2026-04-19T16:04:43Z</time></trkpt><trkpt lat="45.13825861320797" lon="7.133395612865127"><ele>444.0</ele><time>2026-04-19T16:04:44Z</time></trkpt><trkpt lat="45.13832681154621" lon="7.133636466129914"><ele>443.33333333333337</ele><time>2026-04-19T16:04:45Z</time></trkpt><trkpt lat="45.138391419569054" lon="7.133891255441342"><ele>442.6666666666667</ele><time>2026-04-19T16:04:46Z</time></trkpt><trkpt lat="45.13844756632146" lon="7.134155560669941"><ele>442.0</ele><time>2026-04-19T16:04:47Z</time></trkpt><trkpt lat="45.13848690469857" lon="7.134426957980467"><ele>442.0</ele><time>2026-04-19T16:04:48Z</time></trkpt><trkpt lat="45.13851525365395" lon="7.134704233764584"><ele>442.0</ele><time>2026-04-19T16:04:49Z</time></trkpt><trkpt lat="45.138531602411064" lon="7.134988663230064"><ele>442.0</ele><time>2026-04-19T16:04:50Z</time></trkpt><trkpt lat="45.13854214808781" lon="7.135275689150237"><ele>441.6666666666667</ele><time>2026-04-19T16:04:51Z</time></trkpt><trkpt lat="45.13855240845601" lon="7.135569669734394"><ele>441.33333333333337</ele><time>2026-04-19T16:04:52Z</time></trkpt><trkpt lat="45.138563235295244" lon="7.135870669030241"><ele>441.0</ele><time>2026-04-19T16:04:53Z</time></trkpt><trkpt lat="45.13856917764504" lon="7.136170844554896"><ele>441.0</ele><time>2026-04-19T16:04:54Z</time></trkpt><trkpt lat="45.13854777636451" lon="7.136475809243529"><ele>441.0</ele><time>2026-04-19T16:04:55Z</time></trkpt><trkpt lat="45.13853962385532" lon="7.136779470081971"><ele>441.0</ele><time>2026-04-19T16:04:56Z</time></trkpt><trkpt lat="45.13854534586724" lon="7.13707662530243"><ele>441.0</ele><time>2026-04-19T16:04:57Z</time></trkpt><trkpt lat="45.138534009912235" lon="7.137373598090336"><ele>441.0</ele><time>2026-04-19T16:04:58Z</time></trkpt><trkpt lat="45.13852092784569" lon="7.137673195823463"><ele>441.0</ele><time>2026-04-19T16:04:59Z</time></trkpt><trkpt lat="45.138507967532846" lon="7.137979123228917"><ele>440.66666666666663</ele><time>2026-04-19T16:05:00Z</time></trkpt><trkpt lat="45.13850097771721" lon="7.1382892206553645"><ele>440.3333333333333</ele><time>2026-04-19T16:05:01Z</time></trkpt><trkpt lat="45.13849211361248" lon="7.138601033475389"><ele>440.0</ele><time>2026-04-19T16:05:02Z</time></trkpt><trkpt lat="45.138485816189906" lon="7.13890305816147"><ele>440.0</ele><time>2026-04-19T16:05:03Z</time></trkpt><trkpt lat="45.13848760563352" lon="7.139190975346408"><ele>440.0</ele><time>2026-04-19T16:05:04Z</time></trkpt><trkpt lat="45.13849354272617" lon="7.139452530811876"><ele>440.0</ele><time>2026-04-19T16:05:05Z</time></trkpt><trkpt lat="45.13851851078916" lon="7.139727055649219"><ele>439.66666666666663</ele><time>2026-04-19T16:05:06Z</time></trkpt><trkpt lat="45.13854348768559" lon="7.1399818445727"><ele>439.33333333333337</ele><time>2026-04-19T16:05:07Z</time></trkpt><trkpt lat="45.13856943821168" lon="7.1402265963550935"><ele>439.0</ele><time>2026-04-19T16:05:08Z</time></trkpt><trkpt lat="45.138594085154814" lon="7.140468350787169"><ele>439.0</ele><time>2026-04-19T16:05:09Z</time></trkpt><trkpt lat="45.13861849582095" lon="7.140706099920768"><ele>439.0</ele><time>2026-04-19T16:05:10Z</time></trkpt><trkpt lat="45.13864084449593" lon="7.140938005935871"><ele>439.0</ele><time>2026-04-19T16:05:11Z</time></trkpt><trkpt lat="45.13866095611539" lon="7.1411635498891455"><ele>438.6666666666667</ele><time>2026-04-19T16:05:12Z</time></trkpt><trkpt lat="45.13868400747708" lon="7.141381817445332"><ele>438.33333333333337</ele><time>2026-04-19T16:05:13Z</time></trkpt><trkpt lat="45.13870703780958" lon="7.141601614010849"><ele>438.0</ele><time>2026-04-19T16:05:14Z</time></trkpt><trkpt lat="45.13872581884027" lon="7.141832514678638"><ele>437.75</ele><time>2026-04-19T16:05:15Z</time></trkpt><trkpt lat="45.13874989534221" lon="7.142054567218312"><ele>437.5</ele><time>2026-04-19T16:05:16Z</time></trkpt><trkpt lat="45.138768959017355" lon="7.142254961572543"><ele>437.25</ele><time>2026-04-19T16:05:17Z</time></trkpt><trkpt lat="45.13878777832761" lon="7.1424344872450805"><ele>437.0</ele><time>2026-04-19T16:05:18Z</time></trkpt><trkpt lat="45.13880237282706" lon="7.142604503683648"><ele>437.0</ele><time>2026-04-19T16:05:19Z</time></trkpt><trkpt lat="45.138815034467044" lon="7.1427658957654705"><ele>437.0</ele><time>2026-04-19T16:05:20Z</time></trkpt><trkpt lat="45.13883533645107" lon="7.142919576247291"><ele>437.0</ele><time>2026-04-19T16:05:21Z</time></trkpt><trkpt lat="45.138850171763686" lon="7.1430825840492185"><ele>437.0</ele><time>2026-04-19T16:05:22Z</time></trkpt><trkpt lat="45.13886605934137" lon="7.143251164843606"><ele>437.5</ele><time>2026-04-19T16:05:23Z</time></trkpt><trkpt lat="45.13888536983424" lon="7.1434266100071"><ele>438.0</ele><time>2026-04-19T16:05:24Z</time></trkpt><trkpt lat="45.13891655986569" lon="7.143599077884656"><ele>438.5</ele><time>2026-04-19T16:05:25Z</time></trkpt><trkpt lat="45.13894491709923" lon="7.143775131512795"><ele>439.0</ele><time>2026-04-19T16:05:26Z</time></trkpt><trkpt lat="45.138959190911905" lon="7.143958434720159"><ele>439.0</ele><time>2026-04-19T16:05:27Z</time></trkpt><trkpt lat="45.138989163809335" lon="7.144136309471447"><ele>439.0</ele><time>2026-04-19T16:05:28Z</time></trkpt><trkpt lat="45.13901786775287" lon="7.144306653368591"><ele>439.0</ele><time>2026-04-19T16:05:29Z</time></trkpt><trkpt lat="45.13904451691631" lon="7.144463150675967"><ele>439.0</ele><time>2026-04-19T16:05:30Z</time></trkpt><trkpt lat="45.139070331373965" lon="7.144614795796464"><ele>439.0</ele><time>2026-04-19T16:05:31Z</time></trkpt><trkpt lat="45.13909588445195" lon="7.144765092535954"><ele>439.0</ele><time>2026-04-19T16:05:32Z</time></trkpt><trkpt lat="45.139121632760904" lon="7.14491670400024"><ele>439.0</ele><time>2026-04-19T16:05:33Z</time></trkpt><trkpt lat="45.1391475072675" lon="7.145069058540502"><ele>439.0</ele><time>2026-04-19T16:05:34Z</time></trkpt><trkpt lat="45.13917259635456" lon="7.145216788408863"><ele>439.0</ele><time>2026-04-19T16:05:35Z</time></trkpt><trkpt lat="45.13919418061886" lon="7.1453603728499155"><ele>439.00000000000006</ele><time>2026-04-19T16:05:36Z</time></trkpt><trkpt lat="45.13920318312009" lon="7.145503903221072"><ele>439.0</ele><time>2026-04-19T16:05:37Z</time></trkpt><trkpt lat="45.13919477997849" lon="7.145624933358321"><ele>439.0</ele><time>2026-04-19T16:05:38Z</time></trkpt><trkpt lat="45.13918378770014" lon="7.145736749104256"><ele>439.0</ele><time>2026-04-19T16:05:39Z</time></trkpt><trkpt lat="45.13917066581705" lon="7.1458636098340955"><ele>439.00000000000006</ele><time>2026-04-19T16:05:41Z</time></trkpt><trkpt lat="45.139157759744506" lon="7.145987917379789"><ele>439.0</ele><time>2026-04-19T16:05:43Z</time></trkpt><trkpt lat="45.13914816097988" lon="7.146080369952486"><ele>439.00000000000006</ele><time>2026-04-19T16:05:44Z</time></trkpt><trkpt lat="45.13913733010789" lon="7.146184689916582"><ele>439.0</ele><time>2026-04-19T16:05:45Z</time></trkpt><trkpt lat="45.13912739880358" lon="7.146280345212303"><ele>439.0</ele><time>2026-04-19T16:05:46Z</time></trkpt><trkpt lat="45.13911720463822" lon="7.146378532445817"><ele>439.0</ele><time>2026-04-19T16:05:47Z</time></trkpt><trkpt lat="45.13910696850211" lon="7.146477123993605"><ele>439.00000000000006</ele><time>2026-04-19T16:05:48Z</time></trkpt><trkpt lat="45.139088711343504" lon="7.146652971665944"><ele>439.0</ele><time>2026-04-19T16:05:50Z</time></trkpt><trkpt lat="45.139074737589596" lon="7.146787562892233"><ele>438.79999999999995</ele><time>2026-04-19T16:05:52Z</time></trkpt><trkpt lat="45.139049431616094" lon="7.147012772146116"><ele>438.59999999999997</ele><time>2026-04-19T16:06:53Z</time></trkpt><trkpt lat="45.1390363805215" lon="7.1471260786271875"><ele>438.4</ele><time>2026-04-19T16:06:54Z</time></trkpt><trkpt lat="45.13902343312792" lon="7.147241390731676"><ele>438.2</ele><time>2026-04-19T16:06:55Z</time></trkpt><trkpt lat="45.13901133171089" lon="7.147348877754696"><ele>438.0</ele><time>2026-04-19T16:06:56Z</time></trkpt><trkpt lat="45.13899717747379" lon="7.147467380714559"><ele>438.0</ele><time>2026-04-19T16:06:57Z</time></trkpt><trkpt lat="45.13898283966261" lon="7.147587419611815"><ele>437.99999999999994</ele><time>2026-04-19T16:06:58Z</time></trkpt><trkpt lat="45.13896852163856" lon="7.147713383370191"><ele>437.99999999999994</ele><time>2026-04-19T16:06:59Z</time></trkpt><trkpt lat="45.13895291512563" lon="7.147849337031728"><ele>438.0</ele><time>2026-04-19T16:07:00Z</time></trkpt><trkpt lat="45.13893669173708" lon="7.147988942027634"><ele>438.0</ele><time>2026-04-19T16:07:01Z</time></trkpt><trkpt lat="45.13892032679264" lon="7.148128935759644"><ele>437.79999999999995</ele><time>2026-04-19T16:07:02Z</time></trkpt><trkpt lat="45.13890405000677" lon="7.148268175327087"><ele>437.59999999999997</ele><time>2026-04-19T16:07:03Z</time></trkpt><trkpt lat="45.138888279546975" lon="7.148403083544835"><ele>437.40000000000003</ele><time>2026-04-19T16:07:04Z</time></trkpt><trkpt lat="45.13886774525965" lon="7.148581561812744"><ele>437.20000000000005</ele><time>2026-04-19T16:07:05Z</time></trkpt><trkpt lat="45.13885156400732" lon="7.148722585945504"><ele>437.0</ele><time>2026-04-19T16:07:06Z</time></trkpt><trkpt lat="45.13883504910377" lon="7.148866517707225"><ele>437.0</ele><time>2026-04-19T16:07:07Z</time></trkpt><trkpt lat="45.13881820898415" lon="7.149013283898635"><ele>437.00000000000006</ele><time>2026-04-19T16:07:08Z</time></trkpt><trkpt lat="45.13880233264688" lon="7.149151650518622"><ele>437.00000000000006</ele><time>2026-04-19T16:07:09Z</time></trkpt><trkpt lat="45.13878810800911" lon="7.149275944822091"><ele>437.0</ele><time>2026-04-19T16:07:10Z</time></trkpt><trkpt lat="45.138774690234534" lon="7.149393314723723"><ele>437.0</ele><time>2026-04-19T16:07:11Z</time></trkpt><trkpt lat="45.13876279716514" lon="7.14949734780054"><ele>436.8</ele><time>2026-04-19T16:07:12Z</time></trkpt><trkpt lat="45.13875201912295" lon="7.149591627243429"><ele>436.6</ele><time>2026-04-19T16:07:13Z</time></trkpt><trkpt lat="45.13873400844447" lon="7.149749173033517"><ele>436.40000000000003</ele><time>2026-04-19T16:07:15Z</time></trkpt><trkpt lat="45.138718169041084" lon="7.1498877258470594"><ele>436.20000000000005</ele><time>2026-04-19T16:07:17Z</time></trkpt><trkpt lat="45.13870204924049" lon="7.1500275964871"><ele>436.0</ele><time>2026-04-19T16:07:19Z</time></trkpt><trkpt lat="45.138687653299804" lon="7.150152040259931"><ele>435.5</ele><time>2026-04-19T16:07:21Z</time></trkpt><trkpt lat="45.13867645441961" lon="7.150249359904053"><ele>435.0</ele><time>2026-04-19T16:07:24Z</time></trkpt><trkpt lat="45.13864957459265" lon="7.150480872767255"><ele>434.5</ele><time>2026-04-19T16:07:30Z</time></trkpt><trkpt lat="45.138631713472705" lon="7.150633234367661"><ele>434.0</ele><time>2026-04-19T16:07:31Z</time></trkpt><trkpt lat="45.13861418293721" lon="7.1507827753696604"><ele>433.99999999999994</ele><time>2026-04-19T16:07:32Z</time></trkpt><trkpt lat="45.1385967873604" lon="7.150931165666747"><ele>434.0</ele><time>2026-04-19T16:07:33Z</time></trkpt><trkpt lat="45.13858029300819" lon="7.1510718679298755"><ele>434.0</ele><time>2026-04-19T16:07:34Z</time></trkpt><trkpt lat="45.13856572424535" lon="7.151196144250069"><ele>434.0</ele><time>2026-04-19T16:07:35Z</time></trkpt><trkpt lat="45.13855396229396" lon="7.151298056828309"><ele>433.99999999999994</ele><time>2026-04-19T16:07:36Z</time></trkpt><trkpt lat="45.138542173252816" lon="7.151401035417029"><ele>434.0</ele><time>2026-04-19T16:07:37Z</time></trkpt><trkpt lat="45.13852797018317" lon="7.151525100851642"><ele>434.25</ele><time>2026-04-19T16:07:38Z</time></trkpt><trkpt lat="45.13851284763755" lon="7.151657198078296"><ele>434.5</ele><time>2026-04-19T16:07:39Z</time></trkpt><trkpt lat="45.1384962827152" lon="7.151801894516152"><ele>434.75</ele><time>2026-04-19T16:07:40Z</time></trkpt><trkpt lat="45.13847519550248" lon="7.151986092744031"><ele>435.0</ele><time>2026-04-19T16:07:41Z</time></trkpt><trkpt lat="45.13847046826812" lon="7.152180654177903"><ele>435.0</ele><time>2026-04-19T16:07:42Z</time></trkpt><trkpt lat="45.138439323243304" lon="7.152367642584566"><ele>435.0</ele><time>2026-04-19T16:07:43Z</time></trkpt><trkpt lat="45.138420430538055" lon="7.152563054563458"><ele>435.0</ele><time>2026-04-19T16:07:44Z</time></trkpt><trkpt lat="45.13839675730125" lon="7.15277884724664"><ele>435.0</ele><time>2026-04-19T16:07:45Z</time></trkpt><trkpt lat="45.13837050325114" lon="7.1529917196946515"><ele>434.66666666666663</ele><time>2026-04-19T16:07:46Z</time></trkpt><trkpt lat="45.13834071793748" lon="7.153209098727917"><ele>434.3333333333333</ele><time>2026-04-19T16:07:47Z</time></trkpt><trkpt lat="45.138316657205046" lon="7.153434149187695"><ele>434.0</ele><time>2026-04-19T16:07:48Z</time></trkpt><trkpt lat="45.13829037492053" lon="7.153663930940013"><ele>434.0</ele><time>2026-04-19T16:07:49Z</time></trkpt><trkpt lat="45.138273496421895" lon="7.153903890284208"><ele>434.0</ele><time>2026-04-19T16:07:50Z</time></trkpt><trkpt lat="45.13824151677222" lon="7.154134575166216"><ele>434.0</ele><time>2026-04-19T16:07:51Z</time></trkpt><trkpt lat="45.13820416684068" lon="7.154379404225154"><ele>433.66666666666663</ele><time>2026-04-19T16:07:52Z</time></trkpt><trkpt lat="45.13817685037426" lon="7.154619618278636"><ele>433.33333333333337</ele><time>2026-04-19T16:07:53Z</time></trkpt><trkpt lat="45.13814824272453" lon="7.15487069120588"><ele>433.0</ele><time>2026-04-19T16:07:54Z</time></trkpt><trkpt lat="45.13813438769654" lon="7.155122137554167"><ele>433.0</ele><time>2026-04-19T16:07:55Z</time></trkpt><trkpt lat="45.138101539353734" lon="7.155375106867626"><ele>433.0</ele><time>2026-04-19T16:07:56Z</time></trkpt><trkpt lat="45.13807306194086" lon="7.155626469411414"><ele>433.0</ele><time>2026-04-19T16:07:57Z</time></trkpt><trkpt lat="45.138044560643" lon="7.1558817653614675"><ele>433.0</ele><time>2026-04-19T16:07:58Z</time></trkpt><trkpt lat="45.13801216226555" lon="7.156137476422054"><ele>433.0</ele><time>2026-04-19T16:07:59Z</time></trkpt><trkpt lat="45.137982127661935" lon="7.156396180955875"><ele>433.0</ele><time>2026-04-19T16:08:00Z</time></trkpt><trkpt lat="45.137956239004346" lon="7.156659782953539"><ele>432.33333333333337</ele><time>2026-04-19T16:08:01Z</time></trkpt><trkpt lat="45.13792599955763" lon="7.156925787455919"><ele>431.66666666666663</ele><time>2026-04-19T16:08:02Z</time></trkpt><trkpt lat="45.13789452145521" lon="7.157187138733365"><ele>431.0</ele><time>2026-04-19T16:08:03Z</time></trkpt><trkpt lat="45.13786369122545" lon="7.15745060422079"><ele>430.66666666666663</ele><time>2026-04-19T16:08:04Z</time></trkpt><trkpt lat="45.13783376635155" lon="7.157710822427883"><ele>430.33333333333337</ele><time>2026-04-19T16:08:05Z</time></trkpt><trkpt lat="45.13780575754767" lon="7.157966499187648"><ele>430.0</ele><time>2026-04-19T16:08:06Z</time></trkpt><trkpt lat="45.13777930429328" lon="7.158217807584609"><ele>430.0</ele><time>2026-04-19T16:08:07Z</time></trkpt><trkpt lat="45.13775203095429" lon="7.158469738425406"><ele>430.0</ele><time>2026-04-19T16:08:08Z</time></trkpt><trkpt lat="45.13772204848597" lon="7.15871697849921"><ele>430.0</ele><time>2026-04-19T16:08:09Z</time></trkpt><trkpt lat="45.137693670327685" lon="7.1589683267036275"><ele>430.0</ele><time>2026-04-19T16:08:10Z</time></trkpt><trkpt lat="45.137664718757684" lon="7.159214212528114"><ele>430.0</ele><time>2026-04-19T16:08:11Z</time></trkpt><trkpt lat="45.13763489636046" lon="7.159440998563508"><ele>430.0</ele><time>2026-04-19T16:08:12Z</time></trkpt><trkpt lat="45.13761420193222" lon="7.1596611821758005"><ele>430.0</ele><time>2026-04-19T16:08:13Z</time></trkpt><trkpt lat="45.137589911368735" lon="7.159868992541685"><ele>430.0</ele><time>2026-04-19T16:08:14Z</time></trkpt><trkpt lat="45.13756798191474" lon="7.160067323230135"><ele>430.0</ele><time>2026-04-19T16:08:15Z</time></trkpt><trkpt lat="45.13754576905873" lon="7.160251406352656"><ele>430.0</ele><time>2026-04-19T16:08:16Z</time></trkpt><trkpt lat="45.13752678631162" lon="7.160421014369605"><ele>430.0</ele><time>2026-04-19T16:08:17Z</time></trkpt><trkpt lat="45.137502119733135" lon="7.160579766044651"><ele>430.0</ele><time>2026-04-19T16:08:18Z</time></trkpt><trkpt lat="45.13748290121112" lon="7.160749826914922"><ele>430.0</ele><time>2026-04-19T16:08:19Z</time></trkpt><trkpt lat="45.137458288214766" lon="7.1609365762072095"><ele>430.0</ele><time>2026-04-19T16:08:20Z</time></trkpt><trkpt lat="45.137429255850115" lon="7.161148890409064"><ele>430.0</ele><time>2026-04-19T16:08:21Z</time></trkpt><trkpt lat="45.13740010819563" lon="7.161392349422251"><ele>430.0</ele><time>2026-04-19T16:08:22Z</time></trkpt><trkpt lat="45.137370126589595" lon="7.161652275394888"><ele>430.0</ele><time>2026-04-19T16:08:23Z</time></trkpt><trkpt lat="45.13733509236071" lon="7.161926487393474"><ele>430.0</ele><time>2026-04-19T16:08:24Z</time></trkpt><trkpt lat="45.13730027584718" lon="7.162206091980832"><ele>430.0</ele><time>2026-04-19T16:08:25Z</time></trkpt><trkpt lat="45.137274192253905" lon="7.16248084450535"><ele>430.0</ele><time>2026-04-19T16:08:26Z</time></trkpt><trkpt lat="45.13725585547524" lon="7.162749856750509"><ele>430.33333333333337</ele><time>2026-04-19T16:08:27Z</time></trkpt><trkpt lat="45.13723030061263" lon="7.163001188429345"><ele>430.66666666666663</ele><time>2026-04-19T16:08:28Z</time></trkpt><trkpt lat="45.13720256495526" lon="7.1632527430418556"><ele>431.0</ele><time>2026-04-19T16:08:29Z</time></trkpt><trkpt lat="45.137175609403556" lon="7.163512267069154"><ele>431.66666666666663</ele><time>2026-04-19T16:08:30Z</time></trkpt><trkpt lat="45.13713050769512" lon="7.1637849383704815"><ele>432.33333333333337</ele><time>2026-04-19T16:08:31Z</time></trkpt><trkpt lat="45.13709618161063" lon="7.164077473698037"><ele>433.0</ele><time>2026-04-19T16:08:32Z</time></trkpt><trkpt lat="45.137061314699196" lon="7.164376506129919"><ele>433.33333333333337</ele><time>2026-04-19T16:08:33Z</time></trkpt><trkpt lat="45.13702624526764" lon="7.164677556753846"><ele>433.66666666666663</ele><time>2026-04-19T16:08:34Z</time></trkpt><trkpt lat="45.136997719542556" lon="7.16498597796918"><ele>434.0</ele><time>2026-04-19T16:08:35Z</time></trkpt><trkpt lat="45.136965272992725" lon="7.165293766448441"><ele>434.0</ele><time>2026-04-19T16:08:36Z</time></trkpt><trkpt lat="45.13693063047911" lon="7.165602596525509"><ele>434.0</ele><time>2026-04-19T16:08:37Z</time></trkpt><trkpt lat="45.136894399395935" lon="7.165909523403364"><ele>434.0</ele><time>2026-04-19T16:08:38Z</time></trkpt><trkpt lat="45.13685954804129" lon="7.166204735049064"><ele>434.0</ele><time>2026-04-19T16:08:39Z</time></trkpt><trkpt lat="45.1368253693539" lon="7.1665001825259935"><ele>434.0</ele><time>2026-04-19T16:08:40Z</time></trkpt><trkpt lat="45.13679267463195" lon="7.166797749086296"><ele>434.0</ele><time>2026-04-19T16:08:41Z</time></trkpt><trkpt lat="45.136758268841454" lon="7.167090476710338"><ele>434.3333333333333</ele><time>2026-04-19T16:08:42Z</time></trkpt><trkpt lat="45.136724348869116" lon="7.167378459372804"><ele>434.66666666666663</ele><time>2026-04-19T16:08:43Z</time></trkpt><trkpt lat="45.13669029813377" lon="7.1676573290671195"><ele>435.0</ele><time>2026-04-19T16:08:44Z</time></trkpt><trkpt lat="45.136658086176205" lon="7.167924981624321"><ele>435.0</ele><time>2026-04-19T16:08:45Z</time></trkpt><trkpt lat="45.13662716484041" lon="7.168185972399166"><ele>435.0</ele><time>2026-04-19T16:08:46Z</time></trkpt><trkpt lat="45.13659604976291" lon="7.168459910723025"><ele>435.0</ele><time>2026-04-19T16:08:47Z</time></trkpt><trkpt lat="45.136565939206434" lon="7.168738798904278"><ele>434.0</ele><time>2026-04-19T16:08:48Z</time></trkpt><trkpt lat="45.13653485668439" lon="7.169019522556544"><ele>433.0</ele><time>2026-04-19T16:08:49Z</time></trkpt><trkpt lat="45.13650126375776" lon="7.16930499388854"><ele>432.0</ele><time>2026-04-19T16:08:50Z</time></trkpt><trkpt lat="45.13646718149367" lon="7.169595119082535"><ele>432.0</ele><time>2026-04-19T16:08:51Z</time></trkpt><trkpt lat="45.136435550974255" lon="7.169888147975649"><ele>432.0</ele><time>2026-04-19T16:08:52Z</time></trkpt><trkpt lat="45.13640435100877" lon="7.170184794766773"><ele>432.0</ele><time>2026-04-19T16:08:53Z</time></trkpt><trkpt lat="45.13637099236537" lon="7.170487082112777"><ele>432.0</ele><time>2026-04-19T16:08:54Z</time></trkpt><trkpt lat="45.136334118489884" lon="7.170792836385921"><ele>432.0</ele><time>2026-04-19T16:08:55Z</time></trkpt><trkpt lat="45.13629793857348" lon="7.17109738090005"><ele>432.0</ele><time>2026-04-19T16:08:56Z</time></trkpt><trkpt lat="45.13626491264531" lon="7.171396782622411"><ele>431.33333333333337</ele><time>2026-04-19T16:08:57Z</time></trkpt><trkpt lat="45.136233762589434" lon="7.171697420956318"><ele>430.6666666666667</ele><time>2026-04-19T16:08:58Z</time></trkpt><trkpt lat="45.13620123728215" lon="7.171991797907432"><ele>430.0</ele><time>2026-04-19T16:08:59Z</time></trkpt><trkpt lat="45.136169155835994" lon="7.172277868897602"><ele>429.6666666666667</ele><time>2026-04-19T16:09:00Z</time></trkpt><trkpt lat="45.13613662368087" lon="7.172570320664994"><ele>429.33333333333337</ele><time>2026-04-19T16:09:01Z</time></trkpt><trkpt lat="45.13610584792815" lon="7.172857840617708"><ele>429.0</ele><time>2026-04-19T16:09:02Z</time></trkpt><trkpt lat="45.13607644828938" lon="7.173126819461682"><ele>428.66666666666663</ele><time>2026-04-19T16:09:03Z</time></trkpt><trkpt lat="45.136047895337754" lon="7.173381555458074"><ele>428.3333333333333</ele><time>2026-04-19T16:09:04Z</time></trkpt><trkpt lat="45.13601936070258" lon="7.17361452405023"><ele>428.0</ele><time>2026-04-19T16:09:05Z</time></trkpt><trkpt lat="45.135988042432" lon="7.173845660013108"><ele>427.75</ele><time>2026-04-19T16:09:06Z</time></trkpt><trkpt lat="45.1359541408936" lon="7.174065373601862"><ele>427.5</ele><time>2026-04-19T16:09:07Z</time></trkpt><trkpt lat="45.13591309213258" lon="7.1742790067360565"><ele>427.25</ele><time>2026-04-19T16:09:08Z</time></trkpt><trkpt lat="45.13586697138593" lon="7.174453285114324"><ele>427.0</ele><time>2026-04-19T16:09:09Z</time></trkpt><trkpt lat="45.135815408813095" lon="7.174594586387009"><ele>427.0</ele><time>2026-04-19T16:09:10Z</time></trkpt><trkpt lat="45.135742095240126" lon="7.174706416769481"><ele>427.00000000000006</ele><time>2026-04-19T16:09:11Z</time></trkpt><trkpt lat="45.13564971040242" lon="7.174785139932129"><ele>427.00000000000006</ele><time>2026-04-19T16:09:12Z</time></trkpt><trkpt lat="45.135561343218825" lon="7.174847437451908"><ele>427.0</ele><time>2026-04-19T16:09:13Z</time></trkpt><trkpt lat="45.13550517451378" lon="7.174941835873904"><ele>427.0</ele><time>2026-04-19T16:09:14Z</time></trkpt><trkpt lat="45.1354970457119" lon="7.175072908785333"><ele>426.20000000000005</ele><time>2026-04-19T16:09:15Z</time></trkpt><trkpt lat="45.13552415501851" lon="7.175216781658057"><ele>425.40000000000003</ele><time>2026-04-19T16:09:16Z</time></trkpt><trkpt lat="45.13556674675973" lon="7.175358022623895"><ele>424.6</ele><time>2026-04-19T16:09:17Z</time></trkpt><trkpt lat="45.135599668634754" lon="7.1755099005711545"><ele>423.79999999999995</ele><time>2026-04-19T16:09:18Z</time></trkpt><trkpt lat="45.135620157069404" lon="7.1756749588424595"><ele>423.0</ele><time>2026-04-19T16:09:19Z</time></trkpt><trkpt lat="45.13563626989978" lon="7.175827649777025"><ele>422.25</ele><time>2026-04-19T16:09:20Z</time></trkpt><trkpt lat="45.13564553209321" lon="7.175981643947097"><ele>421.5</ele><time>2026-04-19T16:09:21Z</time></trkpt><trkpt lat="45.13564862748936" lon="7.176145883453785"><ele>420.75</ele><time>2026-04-19T16:09:22Z</time></trkpt><trkpt lat="45.1356497184399" lon="7.1763147330743795"><ele>420.0</ele><time>2026-04-19T16:09:23Z</time></trkpt><trkpt lat="45.135642723031516" lon="7.176477113283426"><ele>420.2</ele><time>2026-04-19T16:09:24Z</time></trkpt><trkpt lat="45.135635047328655" lon="7.176631169962468"><ele>420.4</ele><time>2026-04-19T16:09:25Z</time></trkpt><trkpt lat="45.135628759654686" lon="7.176781964979535"><ele>420.6</ele><time>2026-04-19T16:09:26Z</time></trkpt><trkpt lat="45.13561769927193" lon="7.176934521005945"><ele>420.8</ele><time>2026-04-19T16:09:27Z</time></trkpt><trkpt lat="45.13560780549721" lon="7.177089895826289"><ele>421.0</ele><time>2026-04-19T16:09:28Z</time></trkpt><trkpt lat="45.13559728097087" lon="7.177250763072295"><ele>420.75</ele><time>2026-04-19T16:09:29Z</time></trkpt><trkpt lat="45.135579896879456" lon="7.177410494026842"><ele>420.5</ele><time>2026-04-19T16:09:30Z</time></trkpt><trkpt lat="45.13556169219884" lon="7.177582232887682"><ele>420.25</ele><time>2026-04-19T16:09:31Z</time></trkpt><trkpt lat="45.13554087879313" lon="7.17776283748555"><ele>420.0</ele><time>2026-04-19T16:09:32Z</time></trkpt><trkpt lat="45.13551824503021" lon="7.177951600013878"><ele>420.0</ele><time>2026-04-19T16:09:33Z</time></trkpt><trkpt lat="45.13549599496458" lon="7.17814338611288"><ele>420.0</ele><time>2026-04-19T16:09:34Z</time></trkpt><trkpt lat="45.13547365070025" lon="7.178344781048854"><ele>420.0</ele><time>2026-04-19T16:09:35Z</time></trkpt><trkpt lat="45.135431339693675" lon="7.178553699536011"><ele>420.0</ele><time>2026-04-19T16:09:36Z</time></trkpt><trkpt lat="45.135398011168625" lon="7.178772733368404"><ele>420.33333333333337</ele><time>2026-04-19T16:09:37Z</time></trkpt><trkpt lat="45.13535794138938" lon="7.179009510500739"><ele>420.6666666666667</ele><time>2026-04-19T16:09:38Z</time></trkpt><trkpt lat="45.13530751161005" lon="7.179268867275"><ele>421.0</ele><time>2026-04-19T16:09:39Z</time></trkpt><trkpt lat="45.135248725920064" lon="7.179545116599774"><ele>421.33333333333337</ele><time>2026-04-19T16:09:40Z</time></trkpt><trkpt lat="45.13518655290058" lon="7.179822873657692"><ele>421.66666666666663</ele><time>2026-04-19T16:09:41Z</time></trkpt><trkpt lat="45.13512636763172" lon="7.180090139489811"><ele>422.0</ele><time>2026-04-19T16:09:42Z</time></trkpt><trkpt lat="45.135066515676435" lon="7.180355925029401"><ele>422.0</ele><time>2026-04-19T16:09:43Z</time></trkpt><trkpt lat="45.13500845878572" lon="7.180617367734209"><ele>422.0</ele><time>2026-04-19T16:09:44Z</time></trkpt><trkpt lat="45.13494851388208" lon="7.180887743517724"><ele>422.0</ele><time>2026-04-19T16:09:45Z</time></trkpt><trkpt lat="45.13488707804486" lon="7.181164844135289"><ele>421.0</ele><time>2026-04-19T16:09:46Z</time></trkpt><trkpt lat="45.13482648439737" lon="7.181438462582944"><ele>420.0</ele><time>2026-04-19T16:09:47Z</time></trkpt><trkpt lat="45.134764938056115" lon="7.181716440386038"><ele>419.0</ele><time>2026-04-19T16:09:48Z</time></trkpt><trkpt lat="45.13470158366331" lon="7.182002721217926"><ele>419.0</ele><time>2026-04-19T16:09:49Z</time></trkpt><trkpt lat="45.13465263878555" lon="7.182291405049917"><ele>419.0</ele><time>2026-04-19T16:09:50Z</time></trkpt><trkpt lat="45.134586303655" lon="7.18257409737831"><ele>419.0</ele><time>2026-04-19T16:09:51Z</time></trkpt><trkpt lat="45.1345199573947" lon="7.182862711837475"><ele>419.0</ele><time>2026-04-19T16:09:52Z</time></trkpt><trkpt lat="45.13445571588932" lon="7.183160233294747"><ele>419.0</ele><time>2026-04-19T16:09:53Z</time></trkpt><trkpt lat="45.13438815513694" lon="7.183463864634578"><ele>419.0</ele><time>2026-04-19T16:09:54Z</time></trkpt><trkpt lat="45.13432029471554" lon="7.183770550517755"><ele>417.5</ele><time>2026-04-19T16:09:55Z</time></trkpt><trkpt lat="45.13424891350702" lon="7.184078857431501"><ele>416.0</ele><time>2026-04-19T16:09:56Z</time></trkpt><trkpt lat="45.13417689806561" lon="7.184389669418945"><ele>416.0</ele><time>2026-04-19T16:09:57Z</time></trkpt><trkpt lat="45.134107014339506" lon="7.1846992419221785"><ele>416.0</ele><time>2026-04-19T16:09:58Z</time></trkpt><trkpt lat="45.13403824350655" lon="7.185012556944936"><ele>416.0</ele><time>2026-04-19T16:09:59Z</time></trkpt><trkpt lat="45.1339696324571" lon="7.185324034115583"><ele>416.0</ele><time>2026-04-19T16:10:00Z</time></trkpt><trkpt lat="45.133900429271115" lon="7.18563648817269"><ele>416.0</ele><time>2026-04-19T16:10:01Z</time></trkpt><trkpt lat="45.13383266813845" lon="7.185941727588992"><ele>416.0</ele><time>2026-04-19T16:10:02Z</time></trkpt><trkpt lat="45.13376623002318" lon="7.186230531316836"><ele>416.0</ele><time>2026-04-19T16:10:03Z</time></trkpt><trkpt lat="45.13370230116688" lon="7.186518951624431"><ele>416.0</ele><time>2026-04-19T16:10:04Z</time></trkpt><trkpt lat="45.13363710423672" lon="7.186809500161046"><ele>416.0</ele><time>2026-04-19T16:10:05Z</time></trkpt><trkpt lat="45.133570209038766" lon="7.1871056517177205"><ele>416.0</ele><time>2026-04-19T16:10:06Z</time></trkpt><trkpt lat="45.1335031110195" lon="7.187404330943677"><ele>416.0</ele><time>2026-04-19T16:10:07Z</time></trkpt><trkpt lat="45.13343853641122" lon="7.187705360468373"><ele>416.0</ele><time>2026-04-19T16:10:08Z</time></trkpt><trkpt lat="45.133368191495435" lon="7.18801516862117"><ele>415.0</ele><time>2026-04-19T16:10:09Z</time></trkpt><trkpt lat="45.1332956637496" lon="7.188331418039854"><ele>414.0</ele><time>2026-04-19T16:10:10Z</time></trkpt><trkpt lat="45.13322377190191" lon="7.1886523349989435"><ele>414.0</ele><time>2026-04-19T16:10:11Z</time></trkpt><trkpt lat="45.133152842361795" lon="7.1889742916635475"><ele>414.0</ele><time>2026-04-19T16:10:12Z</time></trkpt><trkpt lat="45.13308255016451" lon="7.189295151361383"><ele>414.0</ele><time>2026-04-19T16:10:13Z</time></trkpt><trkpt lat="45.13301294878979" lon="7.189604080648807"><ele>414.0</ele><time>2026-04-19T16:10:14Z</time></trkpt><trkpt lat="45.13294302923116" lon="7.189914563396648"><ele>413.5</ele><time>2026-04-19T16:10:15Z</time></trkpt><trkpt lat="45.132875856798464" lon="7.1902167681449285"><ele>413.0</ele><time>2026-04-19T16:10:16Z</time></trkpt><trkpt lat="45.132806353991796" lon="7.190523911255757"><ele>412.5</ele><time>2026-04-19T16:10:17Z</time></trkpt><trkpt lat="45.132736729060454" lon="7.190836368242523"><ele>412.0</ele><time>2026-04-19T16:10:18Z</time></trkpt><trkpt lat="45.132666332811525" lon="7.191155013755211"><ele>412.0</ele><time>2026-04-19T16:10:19Z</time></trkpt><trkpt lat="45.13259621735061" lon="7.191474192768069"><ele>412.0</ele><time>2026-04-19T16:10:20Z</time></trkpt><trkpt lat="45.13252607971444" lon="7.191796449902375"><ele>412.0</ele><time>2026-04-19T16:10:21Z</time></trkpt><trkpt lat="45.13245525679219" lon="7.192121761246025"><ele>412.0</ele><time>2026-04-19T16:10:22Z</time></trkpt><trkpt lat="45.13238254541339" lon="7.192449412280355"><ele>412.0</ele><time>2026-04-19T16:10:23Z</time></trkpt><trkpt lat="45.13231166067544" lon="7.192775359346589"><ele>412.0</ele><time>2026-04-19T16:10:24Z</time></trkpt><trkpt lat="45.13223711814659" lon="7.193101749955936"><ele>412.5</ele><time>2026-04-19T16:10:25Z</time></trkpt><trkpt lat="45.132163773911394" lon="7.193423678339128"><ele>413.0</ele><time>2026-04-19T16:10:26Z</time></trkpt><trkpt lat="45.13209226468113" lon="7.1937409408410025"><ele>411.0</ele><time>2026-04-19T16:10:27Z</time></trkpt><trkpt lat="45.1320223233808" lon="7.194056973366377"><ele>409.0</ele><time>2026-04-19T16:10:28Z</time></trkpt><trkpt lat="45.131952519100615" lon="7.194374537983409"><ele>409.0</ele><time>2026-04-19T16:10:29Z</time></trkpt><trkpt lat="45.13188232261343" lon="7.194690481046334"><ele>409.0</ele><time>2026-04-19T16:10:30Z</time></trkpt><trkpt lat="45.13181136457284" lon="7.195006272670251"><ele>409.0</ele><time>2026-04-19T16:10:31Z</time></trkpt><trkpt lat="45.13173902474926" lon="7.195332962972222"><ele>409.0</ele><time>2026-04-19T16:10:32Z</time></trkpt><trkpt lat="45.13166509380105" lon="7.195665889641499"><ele>409.5</ele><time>2026-04-19T16:10:33Z</time></trkpt><trkpt lat="45.131589002135414" lon="7.196004974597375"><ele>410.0</ele><time>2026-04-19T16:10:34Z</time></trkpt><trkpt lat="45.13151193521386" lon="7.196340808567827"><ele>411.0</ele><time>2026-04-19T16:10:35Z</time></trkpt><trkpt lat="45.13143662202968" lon="7.196671469834674"><ele>412.0</ele><time>2026-04-19T16:10:36Z</time></trkpt><trkpt lat="45.13136355871533" lon="7.1970032391589465"><ele>412.0</ele><time>2026-04-19T16:10:37Z</time></trkpt><trkpt lat="45.13129161830104" lon="7.197330586629259"><ele>412.0</ele><time>2026-04-19T16:10:38Z</time></trkpt><trkpt lat="45.131218751212145" lon="7.197657988830511"><ele>412.0</ele><time>2026-04-19T16:10:39Z</time></trkpt><trkpt lat="45.13114541194365" lon="7.197982547786754"><ele>412.0</ele><time>2026-04-19T16:10:40Z</time></trkpt><trkpt lat="45.13107864223594" lon="7.198300344725635"><ele>412.0</ele><time>2026-04-19T16:10:41Z</time></trkpt><trkpt lat="45.13100878074073" lon="7.198619062381946"><ele>412.0</ele><time>2026-04-19T16:10:42Z</time></trkpt><trkpt lat="45.13093443837149" lon="7.198937262289563"><ele>412.0</ele><time>2026-04-19T16:10:43Z</time></trkpt><trkpt lat="45.13086549153679" lon="7.199245689708502"><ele>412.0</ele><time>2026-04-19T16:10:44Z</time></trkpt><trkpt lat="45.13079711123991" lon="7.199549984574571"><ele>412.0</ele><time>2026-04-19T16:10:45Z</time></trkpt><trkpt lat="45.13072700906813" lon="7.199860184361248"><ele>412.0</ele><time>2026-04-19T16:10:46Z</time></trkpt><trkpt lat="45.13065782585557" lon="7.200167755219175"><ele>412.0</ele><time>2026-04-19T16:10:47Z</time></trkpt><trkpt lat="45.13059038003318" lon="7.2004698068991235"><ele>412.0</ele><time>2026-04-19T16:10:48Z</time></trkpt><trkpt lat="45.13052228715946" lon="7.200775661871199"><ele>412.0</ele><time>2026-04-19T16:10:49Z</time></trkpt><trkpt lat="45.13045588712716" lon="7.201080613141655"><ele>412.0</ele><time>2026-04-19T16:10:50Z</time></trkpt><trkpt lat="45.13039025378295" lon="7.201383989596425"><ele>412.0</ele><time>2026-04-19T16:10:51Z</time></trkpt><trkpt lat="45.13032319748376" lon="7.201684443340156"><ele>411.5</ele><time>2026-04-19T16:10:52Z</time></trkpt><trkpt lat="45.13025750770038" lon="7.201990334808563"><ele>411.0</ele><time>2026-04-19T16:10:53Z</time></trkpt><trkpt lat="45.130191591351185" lon="7.202299279490761"><ele>410.5</ele><time>2026-04-19T16:10:54Z</time></trkpt><trkpt lat="45.13012494366629" lon="7.202606760094212"><ele>410.0</ele><time>2026-04-19T16:10:55Z</time></trkpt><trkpt lat="45.130056678690906" lon="7.202912819850999"><ele>410.66666666666663</ele><time>2026-04-19T16:10:56Z</time></trkpt><trkpt lat="45.12998803999896" lon="7.203211285510068"><ele>411.33333333333337</ele><time>2026-04-19T16:10:57Z</time></trkpt><trkpt lat="45.12992162422379" lon="7.203507019290838"><ele>412.0</ele><time>2026-04-19T16:10:58Z</time></trkpt><trkpt lat="45.12985778782852" lon="7.203797008273793"><ele>410.6666666666667</ele><time>2026-04-19T16:10:59Z</time></trkpt><trkpt lat="45.12979252255037" lon="7.2040936222152485"><ele>409.33333333333337</ele><time>2026-04-19T16:11:00Z</time></trkpt><trkpt lat="45.129724197986484" lon="7.204398127401974"><ele>408.0</ele><time>2026-04-19T16:11:01Z</time></trkpt><trkpt lat="45.12965537400954" lon="7.2047091776346495"><ele>407.66666666666663</ele><time>2026-04-19T16:11:02Z</time></trkpt><trkpt lat="45.12958506896418" lon="7.205013970780462"><ele>407.3333333333333</ele><time>2026-04-19T16:11:03Z</time></trkpt><trkpt lat="45.12951963377697" lon="7.205298666112452"><ele>407.0</ele><time>2026-04-19T16:11:04Z</time></trkpt><trkpt lat="45.129458287007324" lon="7.205573414705844"><ele>406.66666666666663</ele><time>2026-04-19T16:11:05Z</time></trkpt><trkpt lat="45.12939792406528" lon="7.205847819675378"><ele>406.33333333333337</ele><time>2026-04-19T16:11:06Z</time></trkpt><trkpt lat="45.12933810212848" lon="7.206106565823205"><ele>406.0</ele><time>2026-04-19T16:11:07Z</time></trkpt><trkpt lat="45.12928119104439" lon="7.206348361127067"><ele>406.33333333333337</ele><time>2026-04-19T16:11:08Z</time></trkpt><trkpt lat="45.129229622497704" lon="7.206577174289102"><ele>406.66666666666663</ele><time>2026-04-19T16:11:09Z</time></trkpt><trkpt lat="45.12918223107999" lon="7.206796886763149"><ele>407.0</ele><time>2026-04-19T16:11:10Z</time></trkpt><trkpt lat="45.12913696184925" lon="7.2070148139399"><ele>407.0</ele><time>2026-04-19T16:11:11Z</time></trkpt><trkpt lat="45.12908636270273" lon="7.207227616334071"><ele>407.0</ele><time>2026-04-19T16:11:12Z</time></trkpt><trkpt lat="45.12902776952478" lon="7.20743527849823"><ele>407.0</ele><time>2026-04-19T16:11:13Z</time></trkpt><trkpt lat="45.128969618050775" lon="7.2076318737814535"><ele>406.8</ele><time>2026-04-19T16:11:14Z</time></trkpt><trkpt lat="45.1289569430244" lon="7.2077775127811705"><ele>406.6</ele><time>2026-04-19T16:11:15Z</time></trkpt><trkpt lat="45.1289200222615" lon="7.207932167953441"><ele>406.40000000000003</ele><time>2026-04-19T16:11:16Z</time></trkpt><trkpt lat="45.12887978994004" lon="7.208076738167759"><ele>406.20000000000005</ele><time>2026-04-19T16:11:17Z</time></trkpt><trkpt lat="45.1288315307896" lon="7.2082082969230115"><ele>406.0</ele><time>2026-04-19T16:11:18Z</time></trkpt><trkpt lat="45.128760702654766" lon="7.208313528373031"><ele>406.0</ele><time>2026-04-19T16:11:19Z</time></trkpt><trkpt lat="45.128685412945714" lon="7.20841333812986"><ele>406.0</ele><time>2026-04-19T16:11:20Z</time></trkpt><trkpt lat="45.12864912830261" lon="7.208554123162792"><ele>406.0</ele><time>2026-04-19T16:11:21Z</time></trkpt><trkpt lat="45.12865200325154" lon="7.208713869833864"><ele>406.0</ele><time>2026-04-19T16:11:22Z</time></trkpt><trkpt lat="45.1286762057476" lon="7.208872855120321"><ele>406.0</ele><time>2026-04-19T16:11:23Z</time></trkpt><trkpt lat="45.12866967508927" lon="7.209035033053693"><ele>406.0</ele><time>2026-04-19T16:11:24Z</time></trkpt><trkpt lat="45.12863920804457" lon="7.2092072379536685"><ele>406.0</ele><time>2026-04-19T16:11:25Z</time></trkpt><trkpt lat="45.128601585254934" lon="7.209395882361079"><ele>406.0</ele><time>2026-04-19T16:11:26Z</time></trkpt><trkpt lat="45.12855701209856" lon="7.2095803150881315"><ele>406.0</ele><time>2026-04-19T16:11:27Z</time></trkpt><trkpt lat="45.12851555365219" lon="7.209764365862758"><ele>406.0</ele><time>2026-04-19T16:11:28Z</time></trkpt><trkpt lat="45.12847079169745" lon="7.21000394825505"><ele>406.0</ele><time>2026-04-19T16:11:29Z</time></trkpt><trkpt lat="45.12841578431523" lon="7.210273777060426"><ele>406.0</ele><time>2026-04-19T16:11:30Z</time></trkpt><trkpt lat="45.12835688483716" lon="7.210550581566724"><ele>406.0</ele><time>2026-04-19T16:11:31Z</time></trkpt><trkpt lat="45.128292023952916" lon="7.210813703777863"><ele>406.0</ele><time>2026-04-19T16:11:32Z</time></trkpt><trkpt lat="45.12823423828055" lon="7.211052852838837"><ele>406.0</ele><time>2026-04-19T16:11:33Z</time></trkpt><trkpt lat="45.12818134993551" lon="7.211307770566614"><ele>405.33333333333337</ele><time>2026-04-19T16:11:34Z</time></trkpt><trkpt lat="45.12812353354239" lon="7.211571581788831"><ele>404.66666666666663</ele><time>2026-04-19T16:11:35Z</time></trkpt><trkpt lat="45.12805908541565" lon="7.211848412354765"><ele>404.0</ele><time>2026-04-19T16:11:36Z</time></trkpt><trkpt lat="45.127990436431666" lon="7.212133975697808"><ele>404.66666666666663</ele><time>2026-04-19T16:11:37Z</time></trkpt><trkpt lat="45.12792557687014" lon="7.212428203998972"><ele>405.33333333333337</ele><time>2026-04-19T16:11:38Z</time></trkpt><trkpt lat="45.12786175355847" lon="7.212720997485778"><ele>406.0</ele><time>2026-04-19T16:11:39Z</time></trkpt><trkpt lat="45.1277986261079" lon="7.213008653725789"><ele>405.6666666666667</ele><time>2026-04-19T16:11:40Z</time></trkpt><trkpt lat="45.12773329193958" lon="7.213300299623023"><ele>405.33333333333337</ele><time>2026-04-19T16:11:41Z</time></trkpt><trkpt lat="45.127667627763145" lon="7.213597196882778"><ele>405.0</ele><time>2026-04-19T16:11:42Z</time></trkpt><trkpt lat="45.127599992975334" lon="7.213896983763762"><ele>404.5</ele><time>2026-04-19T16:11:43Z</time></trkpt><trkpt lat="45.127533127164575" lon="7.214201555981381"><ele>404.0</ele><time>2026-04-19T16:11:44Z</time></trkpt><trkpt lat="45.12746434038087" lon="7.2145062244914495"><ele>404.0</ele><time>2026-04-19T16:11:45Z</time></trkpt><trkpt lat="45.12739958219464" lon="7.214796416882542"><ele>404.0</ele><time>2026-04-19T16:11:46Z</time></trkpt><trkpt lat="45.12733988699924" lon="7.215074383322244"><ele>404.0</ele><time>2026-04-19T16:11:47Z</time></trkpt><trkpt lat="45.12727967218367" lon="7.2153535294572455"><ele>403.66666666666663</ele><time>2026-04-19T16:11:48Z</time></trkpt><trkpt lat="45.127216209264986" lon="7.2156376698875775"><ele>403.33333333333337</ele><time>2026-04-19T16:11:49Z</time></trkpt><trkpt lat="45.127152539840665" lon="7.215931459714864"><ele>403.0</ele><time>2026-04-19T16:11:50Z</time></trkpt><trkpt lat="45.12708732734541" lon="7.216229612700862"><ele>402.6666666666667</ele><time>2026-04-19T16:11:51Z</time></trkpt><trkpt lat="45.12702020113074" lon="7.216529100292562"><ele>402.33333333333337</ele><time>2026-04-19T16:11:52Z</time></trkpt><trkpt lat="45.12695435176981" lon="7.216831269338501"><ele>402.0</ele><time>2026-04-19T16:11:53Z</time></trkpt><trkpt lat="45.12688674548036" lon="7.2171286587502355"><ele>401.33333333333337</ele><time>2026-04-19T16:11:54Z</time></trkpt><trkpt lat="45.12681808302269" lon="7.2174262549773855"><ele>400.6666666666667</ele><time>2026-04-19T16:11:55Z</time></trkpt><trkpt lat="45.12675034569618" lon="7.217726493129766"><ele>400.0</ele><time>2026-04-19T16:11:56Z</time></trkpt><trkpt lat="45.126685393192645" lon="7.218018678632179"><ele>400.0</ele><time>2026-04-19T16:11:57Z</time></trkpt><trkpt lat="45.12661877484299" lon="7.218313956680025"><ele>400.0</ele><time>2026-04-19T16:11:58Z</time></trkpt><trkpt lat="45.12655140942225" lon="7.218608711438361"><ele>400.0</ele><time>2026-04-19T16:11:59Z</time></trkpt><trkpt lat="45.126483676775244" lon="7.218907228660604"><ele>400.33333333333337</ele><time>2026-04-19T16:12:00Z</time></trkpt><trkpt lat="45.126416239300326" lon="7.219206742149339"><ele>400.66666666666663</ele><time>2026-04-19T16:12:01Z</time></trkpt><trkpt lat="45.12634986919172" lon="7.219508161656559"><ele>401.0</ele><time>2026-04-19T16:12:02Z</time></trkpt><trkpt lat="45.126281673432366" lon="7.219806877547794"><ele>400.0</ele><time>2026-04-19T16:12:03Z</time></trkpt><trkpt lat="45.1262129205259" lon="7.220119253788877"><ele>399.0</ele><time>2026-04-19T16:12:04Z</time></trkpt><trkpt lat="45.12614334402771" lon="7.220435129887431"><ele>399.0</ele><time>2026-04-19T16:12:05Z</time></trkpt><trkpt lat="45.126074949437154" lon="7.220754244584463"><ele>399.0</ele><time>2026-04-19T16:12:06Z</time></trkpt><trkpt lat="45.126007411390376" lon="7.2210738834143395"><ele>399.0</ele><time>2026-04-19T16:12:07Z</time></trkpt><trkpt lat="45.1259352380629" lon="7.221398571000352"><ele>399.0</ele><time>2026-04-19T16:12:08Z</time></trkpt><trkpt lat="45.12586267907229" lon="7.221712389925998"><ele>399.33333333333337</ele><time>2026-04-19T16:12:09Z</time></trkpt><trkpt lat="45.125792846558184" lon="7.222012014420204"><ele>399.6666666666667</ele><time>2026-04-19T16:12:10Z</time></trkpt><trkpt lat="45.125725838491334" lon="7.222308993343851"><ele>400.0</ele><time>2026-04-19T16:12:11Z</time></trkpt><trkpt lat="45.12565993230647" lon="7.222596792849829"><ele>400.6666666666667</ele><time>2026-04-19T16:12:12Z</time></trkpt><trkpt lat="45.12559639432003" lon="7.222878363630392"><ele>401.33333333333337</ele><time>2026-04-19T16:12:13Z</time></trkpt><trkpt lat="45.12553407058023" lon="7.223164209562779"><ele>402.0</ele><time>2026-04-19T16:12:14Z</time></trkpt><trkpt lat="45.125473573967945" lon="7.223446487532139"><ele>402.0</ele><time>2026-04-19T16:12:15Z</time></trkpt><trkpt lat="45.12541273229837" lon="7.223730199972138"><ele>402.0</ele><time>2026-04-19T16:12:16Z</time></trkpt><trkpt lat="45.12535048851776" lon="7.224016942426317"><ele>402.0</ele><time>2026-04-19T16:12:17Z</time></trkpt><trkpt lat="45.125286645444675" lon="7.224299637047337"><ele>401.33333333333337</ele><time>2026-04-19T16:12:18Z</time></trkpt><trkpt lat="45.12522304345505" lon="7.224577025801038"><ele>400.6666666666667</ele><time>2026-04-19T16:12:19Z</time></trkpt><trkpt lat="45.12516073622914" lon="7.224840960676427"><ele>400.0</ele><time>2026-04-19T16:12:20Z</time></trkpt><trkpt lat="45.12510540630076" lon="7.225093471813309"><ele>399.6666666666667</ele><time>2026-04-19T16:12:21Z</time></trkpt><trkpt lat="45.125050201097515" lon="7.225338736634162"><ele>399.33333333333337</ele><time>2026-04-19T16:12:22Z</time></trkpt><trkpt lat="45.12500046247816" lon="7.225570619830707"><ele>399.0</ele><time>2026-04-19T16:12:23Z</time></trkpt><trkpt lat="45.12494791469972" lon="7.225804821118148"><ele>399.0</ele><time>2026-04-19T16:12:24Z</time></trkpt><trkpt lat="45.1249013462895" lon="7.226018394325853"><ele>399.0</ele><time>2026-04-19T16:12:25Z</time></trkpt><trkpt lat="45.12486061568527" lon="7.226216263095327"><ele>399.0</ele><time>2026-04-19T16:12:26Z</time></trkpt><trkpt lat="45.12480703021197" lon="7.226384446716834"><ele>399.0</ele><time>2026-04-19T16:12:27Z</time></trkpt><trkpt lat="45.12477406042362" lon="7.226530879830273"><ele>398.79999999999995</ele><time>2026-04-19T16:12:28Z</time></trkpt><trkpt lat="45.124744918839525" lon="7.226662120434684"><ele>398.59999999999997</ele><time>2026-04-19T16:12:29Z</time></trkpt><trkpt lat="45.12471903369225" lon="7.226778051760337"><ele>398.4</ele><time>2026-04-19T16:12:30Z</time></trkpt><trkpt lat="45.124686445469955" lon="7.22695849411634"><ele>398.2</ele><time>2026-04-19T16:12:31Z</time></trkpt><trkpt lat="45.124654003853436" lon="7.227067606847789"><ele>398.0</ele><time>2026-04-19T16:12:32Z</time></trkpt><trkpt lat="45.12461384259145" lon="7.227169458459938"><ele>397.99999999999994</ele><time>2026-04-19T16:12:33Z</time></trkpt><trkpt lat="45.12454116692529" lon="7.227250521366443"><ele>398.0</ele><time>2026-04-19T16:12:34Z</time></trkpt><trkpt lat="45.12451585044309" lon="7.227336287258443"><ele>398.0</ele><time>2026-04-19T16:12:35Z</time></trkpt><trkpt lat="45.12448073892709" lon="7.22749219372637"><ele>398.0</ele><time>2026-04-19T16:12:37Z</time></trkpt><trkpt lat="45.12449575027319" lon="7.227587373155263"><ele>397.99999999999994</ele><time>2026-04-19T16:12:38Z</time></trkpt><trkpt lat="45.12450420958491" lon="7.227706316325517"><ele>398.0</ele><time>2026-04-19T16:12:39Z</time></trkpt><trkpt lat="45.124491125634485" lon="7.227835477014832"><ele>398.0</ele><time>2026-04-19T16:12:40Z</time></trkpt><trkpt lat="45.124464567183665" lon="7.227959210029068"><ele>398.0</ele><time>2026-04-19T16:12:41Z</time></trkpt><trkpt lat="45.124437035257785" lon="7.22811155703973"><ele>398.0</ele><time>2026-04-19T16:12:42Z</time></trkpt><trkpt lat="45.12439632653498" lon="7.228268249456876"><ele>398.0</ele><time>2026-04-19T16:12:43Z</time></trkpt><trkpt lat="45.12436276086825" lon="7.228413328138328"><ele>398.0</ele><time>2026-04-19T16:12:44Z</time></trkpt><trkpt lat="45.12433483164259" lon="7.228569107778972"><ele>398.0</ele><time>2026-04-19T16:12:45Z</time></trkpt><trkpt lat="45.12429640703467" lon="7.228759345682642"><ele>398.0</ele><time>2026-04-19T16:12:46Z</time></trkpt><trkpt lat="45.12424906222534" lon="7.228960537348301"><ele>398.0</ele><time>2026-04-19T16:12:47Z</time></trkpt><trkpt lat="45.12418965751992" lon="7.229178819459011"><ele>397.66666666666663</ele><time>2026-04-19T16:12:48Z</time></trkpt><trkpt lat="45.12413105649317" lon="7.229419469313658"><ele>397.33333333333337</ele><time>2026-04-19T16:12:49Z</time></trkpt><trkpt lat="45.12407092638951" lon="7.229672661278708"><ele>397.0</ele><time>2026-04-19T16:12:50Z</time></trkpt><trkpt lat="45.12401496190437" lon="7.229927601750408"><ele>397.0</ele><time>2026-04-19T16:12:51Z</time></trkpt><trkpt lat="45.12396564077748" lon="7.2301948671280325"><ele>397.0</ele><time>2026-04-19T16:12:52Z</time></trkpt><trkpt lat="45.12389785429749" lon="7.230464594915511"><ele>397.0</ele><time>2026-04-19T16:12:53Z</time></trkpt><trkpt lat="45.12384263246475" lon="7.230733043998503"><ele>397.0</ele><time>2026-04-19T16:12:54Z</time></trkpt><trkpt lat="45.12377748523037" lon="7.231007328244336"><ele>397.0</ele><time>2026-04-19T16:12:55Z</time></trkpt><trkpt lat="45.12370928265484" lon="7.231275326069739"><ele>397.0</ele><time>2026-04-19T16:12:56Z</time></trkpt><trkpt lat="45.123645265224305" lon="7.231541653984165"><ele>397.0</ele><time>2026-04-19T16:12:57Z</time></trkpt><trkpt lat="45.123582511726596" lon="7.231820512744487"><ele>397.0</ele><time>2026-04-19T16:12:58Z</time></trkpt><trkpt lat="45.123521034079616" lon="7.232104372702438"><ele>397.0</ele><time>2026-04-19T16:12:59Z</time></trkpt><trkpt lat="45.12345833576272" lon="7.2323963820600685"><ele>397.0</ele><time>2026-04-19T16:13:00Z</time></trkpt><trkpt lat="45.123391719776954" lon="7.232693530595442"><ele>397.0</ele><time>2026-04-19T16:13:01Z</time></trkpt><trkpt lat="45.123326837485656" lon="7.232997188249045"><ele>397.0</ele><time>2026-04-19T16:13:02Z</time></trkpt><trkpt lat="45.123256028997474" lon="7.233300727287823"><ele>397.0</ele><time>2026-04-19T16:13:03Z</time></trkpt><trkpt lat="45.12319329537891" lon="7.233600608914045"><ele>397.0</ele><time>2026-04-19T16:13:04Z</time></trkpt><trkpt lat="45.123127414251535" lon="7.233900158898689"><ele>397.0</ele><time>2026-04-19T16:13:05Z</time></trkpt><trkpt lat="45.12306468083228" lon="7.234187547775361"><ele>397.0</ele><time>2026-04-19T16:13:06Z</time></trkpt><trkpt lat="45.12300738505888" lon="7.234462440413637"><ele>397.0</ele><time>2026-04-19T16:13:07Z</time></trkpt><trkpt lat="45.122938189846465" lon="7.234712856812906"><ele>397.0</ele><time>2026-04-19T16:13:08Z</time></trkpt><trkpt lat="45.122885549165325" lon="7.234987473241177"><ele>397.33333333333337</ele><time>2026-04-19T16:13:09Z</time></trkpt><trkpt lat="45.12282782480627" lon="7.235264713543799"><ele>397.66666666666663</ele><time>2026-04-19T16:13:10Z</time></trkpt><trkpt lat="45.122767202539016" lon="7.235528371656803"><ele>398.0</ele><time>2026-04-19T16:13:11Z</time></trkpt><trkpt lat="45.12270485963557" lon="7.235777033905766"><ele>398.0</ele><time>2026-04-19T16:13:12Z</time></trkpt><trkpt lat="45.12264764823242" lon="7.236019297265594"><ele>398.0</ele><time>2026-04-19T16:13:13Z</time></trkpt><trkpt lat="45.122581465633516" lon="7.23624703236273"><ele>398.0</ele><time>2026-04-19T16:13:14Z</time></trkpt><trkpt lat="45.1225231226685" lon="7.236458532198042"><ele>398.0</ele><time>2026-04-19T16:13:15Z</time></trkpt><trkpt lat="45.12245801332192" lon="7.236659437166195"><ele>398.0</ele><time>2026-04-19T16:13:16Z</time></trkpt><trkpt lat="45.12239969764729" lon="7.236840689812856"><ele>398.0</ele><time>2026-04-19T16:13:17Z</time></trkpt><trkpt lat="45.12234039212496" lon="7.237017016685995"><ele>398.0</ele><time>2026-04-19T16:13:18Z</time></trkpt><trkpt lat="45.12228334714218" lon="7.237182475218321"><ele>397.75</ele><time>2026-04-19T16:13:19Z</time></trkpt><trkpt lat="45.1222258843205" lon="7.237344022075871"><ele>397.5</ele><time>2026-04-19T16:13:20Z</time></trkpt><trkpt lat="45.12216495342047" lon="7.237505803222228"><ele>397.25</ele><time>2026-04-19T16:13:21Z</time></trkpt><trkpt lat="45.1221035882705" lon="7.237659915102957"><ele>397.0</ele><time>2026-04-19T16:13:22Z</time></trkpt><trkpt lat="45.122033353761445" lon="7.23782865041399"><ele>397.0</ele><time>2026-04-19T16:13:23Z</time></trkpt><trkpt lat="45.12195938458281" lon="7.237998935331025"><ele>397.0</ele><time>2026-04-19T16:13:24Z</time></trkpt><trkpt lat="45.12188276265261" lon="7.23816963108084"><ele>397.0</ele><time>2026-04-19T16:13:25Z</time></trkpt><trkpt lat="45.1217988138991" lon="7.238347018988748"><ele>397.0</ele><time>2026-04-19T16:13:26Z</time></trkpt><trkpt lat="45.12171242414183" lon="7.238521963984568"><ele>397.0</ele><time>2026-04-19T16:13:27Z</time></trkpt><trkpt lat="45.1216210116658" lon="7.238695779088145"><ele>397.0</ele><time>2026-04-19T16:13:28Z</time></trkpt><trkpt lat="45.121525044813154" lon="7.2388623337471625"><ele>397.0</ele><time>2026-04-19T16:13:29Z</time></trkpt><trkpt lat="45.12142310697976" lon="7.23902769011519"><ele>396.5</ele><time>2026-04-19T16:13:30Z</time></trkpt><trkpt lat="45.12131978433269" lon="7.239182092929067"><ele>396.0</ele><time>2026-04-19T16:13:31Z</time></trkpt><trkpt lat="45.121213577764934" lon="7.239322646177383"><ele>395.5</ele><time>2026-04-19T16:13:32Z</time></trkpt><trkpt lat="45.12110123062927" lon="7.239456293136389"><ele>395.0</ele><time>2026-04-19T16:13:33Z</time></trkpt><trkpt lat="45.12098473893902" lon="7.239572670807848"><ele>395.0</ele><time>2026-04-19T16:13:34Z</time></trkpt><trkpt lat="45.120874227189695" lon="7.239691243062353"><ele>395.0</ele><time>2026-04-19T16:13:35Z</time></trkpt><trkpt lat="45.12076234483977" lon="7.239768454380352"><ele>395.0</ele><time>2026-04-19T16:13:36Z</time></trkpt><trkpt lat="45.120644965251316" lon="7.239845018829218"><ele>395.0</ele><time>2026-04-19T16:13:37Z</time></trkpt><trkpt lat="45.120520719740796" lon="7.2399166070449645"><ele>395.25</ele><time>2026-04-19T16:13:38Z</time></trkpt><trkpt lat="45.12040522494556" lon="7.2399674238928915"><ele>395.5</ele><time>2026-04-19T16:13:39Z</time></trkpt><trkpt lat="45.120280271327594" lon="7.240008067840064"><ele>395.75</ele><time>2026-04-19T16:13:40Z</time></trkpt><trkpt lat="45.120177779380754" lon="7.240033408189137"><ele>396.0</ele><time>2026-04-19T16:13:41Z</time></trkpt><trkpt lat="45.12007993099064" lon="7.240046945454758"><ele>396.0</ele><time>2026-04-19T16:13:42Z</time></trkpt><trkpt lat="45.11997751613686" lon="7.240046250950151"><ele>396.0</ele><time>2026-04-19T16:13:43Z</time></trkpt><trkpt lat="45.119863000217926" lon="7.240016157260819"><ele>396.0</ele><time>2026-04-19T16:13:44Z</time></trkpt><trkpt lat="45.11974301961804" lon="7.239982059568803"><ele>396.0</ele><time>2026-04-19T16:13:45Z</time></trkpt><trkpt lat="45.11961884356014" lon="7.239950805206852"><ele>395.5</ele><time>2026-04-19T16:13:46Z</time></trkpt><trkpt lat="45.11949812242064" lon="7.239917277933724"><ele>395.0</ele><time>2026-04-19T16:13:47Z</time></trkpt><trkpt lat="45.11937923492638" lon="7.239849288856107"><ele>394.5</ele><time>2026-04-19T16:13:48Z</time></trkpt><trkpt lat="45.11926731943664" lon="7.239756806616726"><ele>394.0</ele><time>2026-04-19T16:13:49Z</time></trkpt><trkpt lat="45.11916109860946" lon="7.239646398313516"><ele>393.5</ele><time>2026-04-19T16:13:50Z</time></trkpt><trkpt lat="45.11904814885341" lon="7.239524696098988"><ele>393.0</ele><time>2026-04-19T16:13:51Z</time></trkpt><trkpt lat="45.11893699972573" lon="7.2393954407570815"><ele>392.5</ele><time>2026-04-19T16:13:52Z</time></trkpt><trkpt lat="45.11882671866607" lon="7.239266361593696"><ele>392.0</ele><time>2026-04-19T16:13:53Z</time></trkpt><trkpt lat="45.11871098023368" lon="7.239126221905218"><ele>392.0</ele><time>2026-04-19T16:13:54Z</time></trkpt><trkpt lat="45.1185963414504" lon="7.238982901882002"><ele>392.0</ele><time>2026-04-19T16:13:55Z</time></trkpt><trkpt lat="45.11848129285048" lon="7.238840513388947"><ele>392.0</ele><time>2026-04-19T16:13:56Z</time></trkpt><trkpt lat="45.118363554024796" lon="7.2386980473462845"><ele>393.3333333333333</ele><time>2026-04-19T16:13:57Z</time></trkpt><trkpt lat="45.11824758407359" lon="7.238549667421813"><ele>394.66666666666663</ele><time>2026-04-19T16:13:58Z</time></trkpt><trkpt lat="45.118124318149626" lon="7.238411516213387"><ele>396.0</ele><time>2026-04-19T16:13:59Z</time></trkpt><trkpt lat="45.11799150963126" lon="7.2382930769321785"><ele>396.0</ele><time>2026-04-19T16:14:00Z</time></trkpt><trkpt lat="45.11785055388255" lon="7.238178651248748"><ele>396.0</ele><time>2026-04-19T16:14:01Z</time></trkpt><trkpt lat="45.11769523101808" lon="7.2381100507824385"><ele>396.0</ele><time>2026-04-19T16:14:02Z</time></trkpt><trkpt lat="45.11753364755471" lon="7.238076448859091"><ele>395.75</ele><time>2026-04-19T16:14:03Z</time></trkpt><trkpt lat="45.11738068204115" lon="7.238078762180473"><ele>395.5</ele><time>2026-04-19T16:14:04Z</time></trkpt><trkpt lat="45.11723444991081" lon="7.238087013870256"><ele>395.25</ele><time>2026-04-19T16:14:05Z</time></trkpt><trkpt lat="45.117099861345224" lon="7.238110983342918"><ele>395.0</ele><time>2026-04-19T16:14:06Z</time></trkpt><trkpt lat="45.116979540537976" lon="7.238131162315751"><ele>394.8333333333333</ele><time>2026-04-19T16:14:07Z</time></trkpt><trkpt lat="45.116884116944675" lon="7.2381547494156235"><ele>394.66666666666663</ele><time>2026-04-19T16:14:08Z</time></trkpt><trkpt lat="45.11680834756089" lon="7.238176471681112"><ele>394.5</ele><time>2026-04-19T16:14:09Z</time></trkpt><trkpt lat="45.116738747615486" lon="7.238188471452309"><ele>394.33333333333337</ele><time>2026-04-19T16:14:10Z</time></trkpt><trkpt lat="45.11667311096679" lon="7.238182538704217"><ele>394.1666666666667</ele><time>2026-04-19T16:14:11Z</time></trkpt><trkpt lat="45.116611702617675" lon="7.238160048150768"><ele>394.0</ele><time>2026-04-19T16:14:12Z</time></trkpt><trkpt lat="45.116485575145425" lon="7.238048604502189"><ele>394.00000000000006</ele><time>2026-04-19T16:14:14Z</time></trkpt><trkpt lat="45.116423503467075" lon="7.237973795457117"><ele>394.0</ele><time>2026-04-19T16:14:15Z</time></trkpt><trkpt lat="45.11634395379815" lon="7.237937635396855"><ele>394.0</ele><time>2026-04-19T16:14:16Z</time></trkpt><trkpt lat="45.116255311351765" lon="7.237950575581238"><ele>394.0</ele><time>2026-04-19T16:14:17Z</time></trkpt><trkpt lat="45.116175637835234" lon="7.238006260085845"><ele>394.00000000000006</ele><time>2026-04-19T16:14:18Z</time></trkpt><trkpt lat="45.11611457862493" lon="7.238099162734991"><ele>394.0</ele><time>2026-04-19T16:14:19Z</time></trkpt><trkpt lat="45.11608545333243" lon="7.238224988916134"><ele>394.2</ele><time>2026-04-19T16:14:20Z</time></trkpt><trkpt lat="45.11607476585205" lon="7.2383612917310405"><ele>394.4</ele><time>2026-04-19T16:14:21Z</time></trkpt><trkpt lat="45.11605699888725" lon="7.238496455808568"><ele>394.6</ele><time>2026-04-19T16:14:22Z</time></trkpt><trkpt lat="45.116017314714426" lon="7.238619946918663"><ele>394.8</ele><time>2026-04-19T16:14:23Z</time></trkpt><trkpt lat="45.115963952776745" lon="7.238745500350803"><ele>395.0</ele><time>2026-04-19T16:14:24Z</time></trkpt><trkpt lat="45.11589109606585" lon="7.238875596852112"><ele>394.75</ele><time>2026-04-19T16:14:25Z</time></trkpt><trkpt lat="45.11580455863093" lon="7.239007255224208"><ele>394.5</ele><time>2026-04-19T16:14:26Z</time></trkpt><trkpt lat="45.11571209825648" lon="7.239142846932622"><ele>394.25</ele><time>2026-04-19T16:14:27Z</time></trkpt><trkpt lat="45.11561395373825" lon="7.239290794298979"><ele>394.0</ele><time>2026-04-19T16:14:28Z</time></trkpt><trkpt lat="45.11551019305897" lon="7.239444691108497"><ele>394.0</ele><time>2026-04-19T16:14:29Z</time></trkpt><trkpt lat="45.11540540268209" lon="7.239603008669851"><ele>394.0</ele><time>2026-04-19T16:14:30Z</time></trkpt><trkpt lat="45.115305145492336" lon="7.239771692255241"><ele>394.0</ele><time>2026-04-19T16:14:31Z</time></trkpt><trkpt lat="45.1152076514544" lon="7.239937462669445"><ele>394.0</ele><time>2026-04-19T16:14:32Z</time></trkpt><trkpt lat="45.11512191899461" lon="7.240090335404352"><ele>394.0</ele><time>2026-04-19T16:14:33Z</time></trkpt><trkpt lat="45.1150447325692" lon="7.240231593249125"><ele>394.0</ele><time>2026-04-19T16:14:34Z</time></trkpt><trkpt lat="45.114974089403084" lon="7.240370833685881"><ele>394.0</ele><time>2026-04-19T16:14:35Z</time></trkpt><trkpt lat="45.114904882286176" lon="7.240508574453665"><ele>394.25</ele><time>2026-04-19T16:14:36Z</time></trkpt><trkpt lat="45.11483691160586" lon="7.2406388876208805"><ele>394.5</ele><time>2026-04-19T16:14:37Z</time></trkpt><trkpt lat="45.11478004852299" lon="7.24076600879785"><ele>394.75</ele><time>2026-04-19T16:14:38Z</time></trkpt><trkpt lat="45.1147198984605" lon="7.240906241531741"><ele>395.0</ele><time>2026-04-19T16:14:39Z</time></trkpt><trkpt lat="45.11464361074285" lon="7.241048861537674"><ele>395.0</ele><time>2026-04-19T16:14:40Z</time></trkpt><trkpt lat="45.11458169013973" lon="7.241202896373487"><ele>395.0</ele><time>2026-04-19T16:14:41Z</time></trkpt><trkpt lat="45.11451935030273" lon="7.241369241367061"><ele>395.0</ele><time>2026-04-19T16:14:42Z</time></trkpt><trkpt lat="45.11445444657093" lon="7.241550740368391"><ele>395.0</ele><time>2026-04-19T16:14:43Z</time></trkpt><trkpt lat="45.11438778123344" lon="7.2417412894715705"><ele>394.0</ele><time>2026-04-19T16:14:44Z</time></trkpt><trkpt lat="45.114317287456544" lon="7.241944716357953"><ele>393.0</ele><time>2026-04-19T16:14:45Z</time></trkpt><trkpt lat="45.114253135134774" lon="7.242172699409787"><ele>392.0</ele><time>2026-04-19T16:14:46Z</time></trkpt><trkpt lat="45.11417618384101" lon="7.242395612064161"><ele>391.66666666666663</ele><time>2026-04-19T16:14:47Z</time></trkpt><trkpt lat="45.11409762648658" lon="7.2426260132072136"><ele>391.33333333333337</ele><time>2026-04-19T16:14:48Z</time></trkpt><trkpt lat="45.11401710281379" lon="7.242862425863643"><ele>391.0</ele><time>2026-04-19T16:14:49Z</time></trkpt><trkpt lat="45.11393294711921" lon="7.243108714330797"><ele>390.6666666666667</ele><time>2026-04-19T16:14:50Z</time></trkpt><trkpt lat="45.11384692232375" lon="7.243354569922102"><ele>390.33333333333337</ele><time>2026-04-19T16:14:51Z</time></trkpt><trkpt lat="45.1137672220124" lon="7.243597097135277"><ele>390.0</ele><time>2026-04-19T16:14:52Z</time></trkpt><trkpt lat="45.11368261301974" lon="7.24385313613675"><ele>390.33333333333337</ele><time>2026-04-19T16:14:53Z</time></trkpt><trkpt lat="45.11359428817004" lon="7.244113523195161"><ele>390.6666666666667</ele><time>2026-04-19T16:14:54Z</time></trkpt><trkpt lat="45.11350943710867" lon="7.2443698486492885"><ele>391.0</ele><time>2026-04-19T16:14:55Z</time></trkpt><trkpt lat="45.1134050370523" lon="7.244628281698794"><ele>391.0</ele><time>2026-04-19T16:14:56Z</time></trkpt><trkpt lat="45.11330852118695" lon="7.244915807542672"><ele>391.0</ele><time>2026-04-19T16:14:57Z</time></trkpt><trkpt lat="45.11322101040652" lon="7.245223727492095"><ele>390.5</ele><time>2026-04-19T16:14:58Z</time></trkpt><trkpt lat="45.1131173270151" lon="7.245518368215804"><ele>390.0</ele><time>2026-04-19T16:14:59Z</time></trkpt><trkpt lat="45.11301813097605" lon="7.24580694639823"><ele>390.0</ele><time>2026-04-19T16:15:00Z</time></trkpt><trkpt lat="45.11292990034403" lon="7.246072631425244"><ele>390.0</ele><time>2026-04-19T16:15:01Z</time></trkpt><trkpt lat="45.11284754207065" lon="7.246321240343381"><ele>390.0</ele><time>2026-04-19T16:15:02Z</time></trkpt><trkpt lat="45.112763770752274" lon="7.246571139400561"><ele>390.0</ele><time>2026-04-19T16:15:03Z</time></trkpt><trkpt lat="45.1126781253893" lon="7.246829316399885"><ele>390.0</ele><time>2026-04-19T16:15:04Z</time></trkpt><trkpt lat="45.11259491140981" lon="7.247085002047244"><ele>390.0</ele><time>2026-04-19T16:15:05Z</time></trkpt><trkpt lat="45.1124963145147" lon="7.247316947687525"><ele>390.0</ele><time>2026-04-19T16:15:06Z</time></trkpt><trkpt lat="45.112415616865434" lon="7.247553408060351"><ele>390.0</ele><time>2026-04-19T16:15:07Z</time></trkpt><trkpt lat="45.11232956512058" lon="7.2478034619720715"><ele>390.0</ele><time>2026-04-19T16:15:08Z</time></trkpt><trkpt lat="45.112260264415575" lon="7.248080797138614"><ele>389.33333333333337</ele><time>2026-04-19T16:15:09Z</time></trkpt><trkpt lat="45.112169525342104" lon="7.248345938814687"><ele>388.6666666666667</ele><time>2026-04-19T16:15:10Z</time></trkpt><trkpt lat="45.1120705131494" lon="7.248607018070118"><ele>388.0</ele><time>2026-04-19T16:15:11Z</time></trkpt><trkpt lat="45.11197748026713" lon="7.2488647271444115"><ele>388.33333333333337</ele><time>2026-04-19T16:15:12Z</time></trkpt><trkpt lat="45.11189050682285" lon="7.249133708198464"><ele>388.66666666666663</ele><time>2026-04-19T16:15:13Z</time></trkpt><trkpt lat="45.11180425343435" lon="7.249386234104707"><ele>389.0</ele><time>2026-04-19T16:15:14Z</time></trkpt><trkpt lat="45.1117170587828" lon="7.249630357113212"><ele>388.66666666666663</ele><time>2026-04-19T16:15:15Z</time></trkpt><trkpt lat="45.11162538626537" lon="7.249892314073814"><ele>388.33333333333337</ele><time>2026-04-19T16:15:16Z</time></trkpt><trkpt lat="45.11153542061333" lon="7.250152373140592"><ele>388.0</ele><time>2026-04-19T16:15:17Z</time></trkpt><trkpt lat="45.11145581008707" lon="7.250391281641537"><ele>388.0</ele><time>2026-04-19T16:15:18Z</time></trkpt><trkpt lat="45.111379598881605" lon="7.250617258405292"><ele>388.0</ele><time>2026-04-19T16:15:19Z</time></trkpt><trkpt lat="45.11129447824964" lon="7.250862656745921"><ele>388.0</ele><time>2026-04-19T16:15:20Z</time></trkpt><trkpt lat="45.111211013842926" lon="7.251121440435129"><ele>387.6666666666667</ele><time>2026-04-19T16:15:21Z</time></trkpt><trkpt lat="45.11112386892346" lon="7.2513881214894225"><ele>387.33333333333337</ele><time>2026-04-19T16:15:22Z</time></trkpt><trkpt lat="45.11103731524206" lon="7.25165700299033"><ele>387.0</ele><time>2026-04-19T16:15:23Z</time></trkpt><trkpt lat="45.1109487659518" lon="7.251925010721465"><ele>387.0</ele><time>2026-04-19T16:15:24Z</time></trkpt><trkpt lat="45.11085598217761" lon="7.252192809113947"><ele>387.0</ele><time>2026-04-19T16:15:25Z</time></trkpt><trkpt lat="45.11075831034403" lon="7.252460628015838"><ele>387.0</ele><time>2026-04-19T16:15:26Z</time></trkpt><trkpt lat="45.110660720694156" lon="7.252727581412073"><ele>386.66666666666663</ele><time>2026-04-19T16:15:27Z</time></trkpt><trkpt lat="45.110568815756395" lon="7.252992176699634"><ele>386.3333333333333</ele><time>2026-04-19T16:15:28Z</time></trkpt><trkpt lat="45.11047782474675" lon="7.253265456225535"><ele>386.0</ele><time>2026-04-19T16:15:29Z</time></trkpt><trkpt lat="45.11038380195713" lon="7.253538642606926"><ele>386.0</ele><time>2026-04-19T16:15:30Z</time></trkpt><trkpt lat="45.110290023762204" lon="7.253813519575249"><ele>386.0</ele><time>2026-04-19T16:15:31Z</time></trkpt><trkpt lat="45.11019486595404" lon="7.254092192768279"><ele>386.0</ele><time>2026-04-19T16:15:32Z</time></trkpt><trkpt lat="45.11010136725621" lon="7.254367106157589"><ele>386.0</ele><time>2026-04-19T16:15:33Z</time></trkpt><trkpt lat="45.11000834809491" lon="7.25463860486928"><ele>386.0</ele><time>2026-04-19T16:15:34Z</time></trkpt><trkpt lat="45.10991306626365" lon="7.254915877912922"><ele>386.0</ele><time>2026-04-19T16:15:35Z</time></trkpt><trkpt lat="45.10981743953091" lon="7.255192518763875"><ele>386.0</ele><time>2026-04-19T16:15:36Z</time></trkpt><trkpt lat="45.10972297808083" lon="7.255470596651367"><ele>386.0</ele><time>2026-04-19T16:15:37Z</time></trkpt><trkpt lat="45.10963147604071" lon="7.255745942018633"><ele>386.0</ele><time>2026-04-19T16:15:38Z</time></trkpt><trkpt lat="45.10953976593855" lon="7.2560219320928026"><ele>386.3333333333333</ele><time>2026-04-19T16:15:39Z</time></trkpt><trkpt lat="45.10944446881302" lon="7.256299200701765"><ele>386.66666666666663</ele><time>2026-04-19T16:15:40Z</time></trkpt><trkpt lat="45.109348998295594" lon="7.256577941360986"><ele>387.0</ele><time>2026-04-19T16:15:41Z</time></trkpt><trkpt lat="45.10925322803744" lon="7.256850435282322"><ele>387.0</ele><time>2026-04-19T16:15:42Z</time></trkpt><trkpt lat="45.10915650392699" lon="7.257128340181224"><ele>387.0</ele><time>2026-04-19T16:15:43Z</time></trkpt><trkpt lat="45.10906262207543" lon="7.25739234517157"><ele>387.0</ele><time>2026-04-19T16:15:44Z</time></trkpt><trkpt lat="45.108967525458816" lon="7.257658839709569"><ele>387.0</ele><time>2026-04-19T16:15:45Z</time></trkpt><trkpt lat="45.10887243420835" lon="7.257925173593523"><ele>387.0</ele><time>2026-04-19T16:15:46Z</time></trkpt><trkpt lat="45.10878109606033" lon="7.258194337083341"><ele>387.0</ele><time>2026-04-19T16:15:47Z</time></trkpt><trkpt lat="45.108691009641646" lon="7.258471044044834"><ele>387.0</ele><time>2026-04-19T16:15:48Z</time></trkpt><trkpt lat="45.10859869697954" lon="7.2587484513953635"><ele>387.0</ele><time>2026-04-19T16:15:49Z</time></trkpt><trkpt lat="45.108508209483595" lon="7.259030658485989"><ele>387.0</ele><time>2026-04-19T16:15:50Z</time></trkpt><trkpt lat="45.10841858231482" lon="7.259292119951569"><ele>386.66666666666663</ele><time>2026-04-19T16:15:51Z</time></trkpt><trkpt lat="45.10833395438808" lon="7.2595502866069435"><ele>386.3333333333333</ele><time>2026-04-19T16:15:52Z</time></trkpt><trkpt lat="45.10824693321083" lon="7.259807769986812"><ele>386.0</ele><time>2026-04-19T16:15:53Z</time></trkpt><trkpt lat="45.108166837027234" lon="7.260048351914321"><ele>386.0</ele><time>2026-04-19T16:15:54Z</time></trkpt><trkpt lat="45.10808900921022" lon="7.26027704858456"><ele>386.0</ele><time>2026-04-19T16:15:55Z</time></trkpt><trkpt lat="45.1080157844579" lon="7.260494540382114"><ele>386.0</ele><time>2026-04-19T16:15:56Z</time></trkpt><trkpt lat="45.10794726188389" lon="7.260701014836459"><ele>386.0</ele><time>2026-04-19T16:15:57Z</time></trkpt><trkpt lat="45.10788068266368" lon="7.260899713524391"><ele>386.0</ele><time>2026-04-19T16:15:58Z</time></trkpt><trkpt lat="45.10781550538484" lon="7.261093715349537"><ele>386.0</ele><time>2026-04-19T16:15:59Z</time></trkpt><trkpt lat="45.1077553373214" lon="7.261284018302295"><ele>385.66666666666663</ele><time>2026-04-19T16:16:00Z</time></trkpt><trkpt lat="45.107677254176046" lon="7.261463883453042"><ele>385.33333333333337</ele><time>2026-04-19T16:16:01Z</time></trkpt><trkpt lat="45.10762614833005" lon="7.261662337466868"><ele>385.0</ele><time>2026-04-19T16:16:02Z</time></trkpt><trkpt lat="45.10755693575036" lon="7.26186358043838"><ele>385.0</ele><time>2026-04-19T16:16:03Z</time></trkpt><trkpt lat="45.10749159679995" lon="7.262055292704627"><ele>385.0</ele><time>2026-04-19T16:16:04Z</time></trkpt><trkpt lat="45.10742570459167" lon="7.262234160590134"><ele>385.0</ele><time>2026-04-19T16:16:05Z</time></trkpt><trkpt lat="45.10735951291386" lon="7.262387238836194"><ele>385.0</ele><time>2026-04-19T16:16:06Z</time></trkpt><trkpt lat="45.107290409321116" lon="7.262511321076015"><ele>384.8</ele><time>2026-04-19T16:16:07Z</time></trkpt><trkpt lat="45.10720612939993" lon="7.262599927393642"><ele>384.6</ele><time>2026-04-19T16:16:08Z</time></trkpt><trkpt lat="45.10712260326955" lon="7.262659610847172"><ele>384.4</ele><time>2026-04-19T16:16:09Z</time></trkpt><trkpt lat="45.107068746042756" lon="7.262767487039351"><ele>384.2</ele><time>2026-04-19T16:16:10Z</time></trkpt><trkpt lat="45.10706028828001" lon="7.262899780309296"><ele>384.0</ele><time>2026-04-19T16:16:11Z</time></trkpt><trkpt lat="45.1070970799455" lon="7.26302338379934"><ele>384.6</ele><time>2026-04-19T16:16:12Z</time></trkpt><trkpt lat="45.10716624449133" lon="7.263129782434105"><ele>385.2</ele><time>2026-04-19T16:16:13Z</time></trkpt><trkpt lat="45.10722773325137" lon="7.263250743672889"><ele>385.8</ele><time>2026-04-19T16:16:14Z</time></trkpt><trkpt lat="45.10725598143351" lon="7.2634041437724814"><ele>386.40000000000003</ele><time>2026-04-19T16:16:15Z</time></trkpt><trkpt lat="45.10728458485614" lon="7.263561666373041"><ele>387.0</ele><time>2026-04-19T16:16:16Z</time></trkpt><trkpt lat="45.107296097691325" lon="7.263742388508724"><ele>387.0</ele><time>2026-04-19T16:16:17Z</time></trkpt><trkpt lat="45.107320042860344" lon="7.263924087196999"><ele>387.0</ele><time>2026-04-19T16:16:18Z</time></trkpt><trkpt lat="45.1073547099401" lon="7.264108451435379"><ele>387.0</ele><time>2026-04-19T16:16:19Z</time></trkpt><trkpt lat="45.10736327377894" lon="7.264307972788149"><ele>387.0</ele><time>2026-04-19T16:16:20Z</time></trkpt><trkpt lat="45.1073691885122" lon="7.264511086192165"><ele>386.33333333333337</ele><time>2026-04-19T16:16:21Z</time></trkpt><trkpt lat="45.10744710479716" lon="7.264748881193375"><ele>385.6666666666667</ele><time>2026-04-19T16:16:22Z</time></trkpt><trkpt lat="45.10747754268548" lon="7.264973531055384"><ele>385.0</ele><time>2026-04-19T16:16:23Z</time></trkpt><trkpt lat="45.107493851524644" lon="7.2652078519132015"><ele>384.6666666666667</ele><time>2026-04-19T16:16:24Z</time></trkpt><trkpt lat="45.10754129962281" lon="7.265436079081221"><ele>384.33333333333337</ele><time>2026-04-19T16:16:25Z</time></trkpt><trkpt lat="45.107557863262365" lon="7.265674200699426"><ele>384.0</ele><time>2026-04-19T16:16:26Z</time></trkpt><trkpt lat="45.10758868359092" lon="7.2658987379477615"><ele>383.6666666666667</ele><time>2026-04-19T16:16:27Z</time></trkpt><trkpt lat="45.1076186352147" lon="7.266116946413675"><ele>383.33333333333337</ele><time>2026-04-19T16:16:28Z</time></trkpt><trkpt lat="45.1076497310862" lon="7.266343491197599"><ele>383.0</ele><time>2026-04-19T16:16:29Z</time></trkpt><trkpt lat="45.10768235733675" lon="7.266581185321356"><ele>383.0</ele><time>2026-04-19T16:16:30Z</time></trkpt><trkpt lat="45.10771672260458" lon="7.266832790589557"><ele>383.0</ele><time>2026-04-19T16:16:31Z</time></trkpt><trkpt lat="45.10775228284012" lon="7.267094912461911"><ele>383.0</ele><time>2026-04-19T16:16:32Z</time></trkpt><trkpt lat="45.107786819265" lon="7.267351659061523"><ele>383.0</ele><time>2026-04-19T16:16:33Z</time></trkpt><trkpt lat="45.10782051722989" lon="7.267608297555356"><ele>383.0</ele><time>2026-04-19T16:16:34Z</time></trkpt><trkpt lat="45.1078536696059" lon="7.267860780915"><ele>383.0</ele><time>2026-04-19T16:16:35Z</time></trkpt><trkpt lat="45.10788804993208" lon="7.268115562346451"><ele>383.0</ele><time>2026-04-19T16:16:36Z</time></trkpt><trkpt lat="45.10792257936398" lon="7.268369447148778"><ele>383.0</ele><time>2026-04-19T16:16:37Z</time></trkpt><trkpt lat="45.10795817187308" lon="7.2686271358668"><ele>383.0</ele><time>2026-04-19T16:16:38Z</time></trkpt><trkpt lat="45.108011728998164" lon="7.2688906448588115"><ele>383.33333333333337</ele><time>2026-04-19T16:16:39Z</time></trkpt><trkpt lat="45.10804183039968" lon="7.26915005215742"><ele>383.6666666666667</ele><time>2026-04-19T16:16:40Z</time></trkpt><trkpt lat="45.10807280976456" lon="7.26939746830322"><ele>384.0</ele><time>2026-04-19T16:16:41Z</time></trkpt><trkpt lat="45.108107791606194" lon="7.2696315710022645"><ele>384.0</ele><time>2026-04-19T16:16:42Z</time></trkpt><trkpt lat="45.10814179895812" lon="7.2698719814577775"><ele>384.0</ele><time>2026-04-19T16:16:43Z</time></trkpt><trkpt lat="45.1081669976049" lon="7.2701440177832835"><ele>384.0</ele><time>2026-04-19T16:16:44Z</time></trkpt><trkpt lat="45.108206263715694" lon="7.270429045696382"><ele>383.6666666666667</ele><time>2026-04-19T16:16:45Z</time></trkpt><trkpt lat="45.108243757342244" lon="7.270705808696291"><ele>383.33333333333337</ele><time>2026-04-19T16:16:46Z</time></trkpt><trkpt lat="45.10829370865308" lon="7.270952319993246"><ele>383.0</ele><time>2026-04-19T16:16:47Z</time></trkpt><trkpt lat="45.10831273035199" lon="7.271214939829875"><ele>383.6666666666667</ele><time>2026-04-19T16:16:48Z</time></trkpt><trkpt lat="45.108347100933806" lon="7.271468649706883"><ele>384.33333333333337</ele><time>2026-04-19T16:16:49Z</time></trkpt><trkpt lat="45.108379270264244" lon="7.2717061109179095"><ele>385.0</ele><time>2026-04-19T16:16:50Z</time></trkpt><trkpt lat="45.1084091258117" lon="7.2719257729513975"><ele>385.0</ele><time>2026-04-19T16:16:51Z</time></trkpt><trkpt lat="45.10843846871988" lon="7.2721413441782286"><ele>385.0</ele><time>2026-04-19T16:16:52Z</time></trkpt><trkpt lat="45.10846978193782" lon="7.27236707784878"><ele>385.0</ele><time>2026-04-19T16:16:53Z</time></trkpt><trkpt lat="45.10851740232882" lon="7.272597783338228"><ele>384.33333333333337</ele><time>2026-04-19T16:16:54Z</time></trkpt><trkpt lat="45.10855136695336" lon="7.272825564142837"><ele>383.6666666666667</ele><time>2026-04-19T16:16:55Z</time></trkpt><trkpt lat="45.10858093293934" lon="7.273045744635134"><ele>383.0</ele><time>2026-04-19T16:16:56Z</time></trkpt><trkpt lat="45.10858663056542" lon="7.2732494944155315"><ele>382.6666666666667</ele><time>2026-04-19T16:16:57Z</time></trkpt><trkpt lat="45.10860545625" lon="7.273463700489311"><ele>382.3333333333333</ele><time>2026-04-19T16:16:58Z</time></trkpt><trkpt lat="45.1086221724947" lon="7.273683042921844"><ele>382.0</ele><time>2026-04-19T16:16:59Z</time></trkpt><trkpt lat="45.108632159931986" lon="7.273918050952337"><ele>382.5</ele><time>2026-04-19T16:17:00Z</time></trkpt><trkpt lat="45.10863479785418" lon="7.27414340108151"><ele>383.0</ele><time>2026-04-19T16:17:01Z</time></trkpt><trkpt lat="45.10863028026016" lon="7.274351753052762"><ele>383.5</ele><time>2026-04-19T16:17:02Z</time></trkpt><trkpt lat="45.10862298183927" lon="7.274548504275852"><ele>384.0</ele><time>2026-04-19T16:17:03Z</time></trkpt><trkpt lat="45.10861594681572" lon="7.274729267326547"><ele>384.2</ele><time>2026-04-19T16:17:04Z</time></trkpt><trkpt lat="45.10860949404624" lon="7.274890072558854"><ele>384.4</ele><time>2026-04-19T16:17:05Z</time></trkpt><trkpt lat="45.10860288016862" lon="7.275032249011575"><ele>384.6</ele><time>2026-04-19T16:17:06Z</time></trkpt><trkpt lat="45.108613027267374" lon="7.275157862236825"><ele>384.8</ele><time>2026-04-19T16:17:07Z</time></trkpt><trkpt lat="45.10859103973272" lon="7.275272467127434"><ele>385.0</ele><time>2026-04-19T16:17:08Z</time></trkpt><trkpt lat="45.108585546818425" lon="7.275373294022336"><ele>385.00000000000006</ele><time>2026-04-19T16:17:09Z</time></trkpt><trkpt lat="45.108578014009474" lon="7.275511564520767"><ele>385.0</ele><time>2026-04-19T16:17:11Z</time></trkpt><trkpt lat="45.108572509187404" lon="7.275612609687335"><ele>385.0</ele><time>2026-04-19T16:17:14Z</time></trkpt><trkpt lat="45.108566596971684" lon="7.27572113308568"><ele>385.0</ele><time>2026-04-19T16:17:32Z</time></trkpt><trkpt lat="45.10856074232525" lon="7.2758223654830045"><ele>385.00000000000006</ele><time>2026-04-19T16:17:33Z</time></trkpt><trkpt lat="45.1085533034519" lon="7.275940533371163"><ele>385.0</ele><time>2026-04-19T16:17:34Z</time></trkpt><trkpt lat="45.10855971008205" lon="7.276063158057029"><ele>385.0</ele><time>2026-04-19T16:17:35Z</time></trkpt><trkpt lat="45.10853614235302" lon="7.276207744465609"><ele>385.0</ele><time>2026-04-19T16:17:36Z</time></trkpt><trkpt lat="45.10853499500833" lon="7.276385970125858"><ele>385.0</ele><time>2026-04-19T16:17:37Z</time></trkpt><trkpt lat="45.10851671179002" lon="7.27657593151393"><ele>385.0</ele><time>2026-04-19T16:17:38Z</time></trkpt><trkpt lat="45.108494565847536" lon="7.276765389476756"><ele>384.33333333333337</ele><time>2026-04-19T16:17:39Z</time></trkpt><trkpt lat="45.10845858931596" lon="7.27695712691056"><ele>383.6666666666667</ele><time>2026-04-19T16:17:40Z</time></trkpt><trkpt lat="45.1084156960233" lon="7.27716283113589"><ele>383.0</ele><time>2026-04-19T16:17:41Z</time></trkpt><trkpt lat="45.108362843016685" lon="7.277376909357161"><ele>382.6666666666667</ele><time>2026-04-19T16:17:42Z</time></trkpt><trkpt lat="45.10830360278523" lon="7.277601594452496"><ele>382.3333333333333</ele><time>2026-04-19T16:17:43Z</time></trkpt><trkpt lat="45.10824321718743" lon="7.277831270506122"><ele>382.0</ele><time>2026-04-19T16:17:44Z</time></trkpt><trkpt lat="45.10818005560121" lon="7.2780715297587"><ele>381.66666666666663</ele><time>2026-04-19T16:17:45Z</time></trkpt><trkpt lat="45.10811664649417" lon="7.278309268310017"><ele>381.3333333333333</ele><time>2026-04-19T16:17:46Z</time></trkpt><trkpt lat="45.108053803437635" lon="7.278562097403312"><ele>381.0</ele><time>2026-04-19T16:17:47Z</time></trkpt><trkpt lat="45.108008622360245" lon="7.278814072404288"><ele>381.0</ele><time>2026-04-19T16:17:48Z</time></trkpt><trkpt lat="45.10797646162599" lon="7.279062408136838"><ele>381.0</ele><time>2026-04-19T16:17:49Z</time></trkpt><trkpt lat="45.107952248352674" lon="7.279298535142566"><ele>381.0</ele><time>2026-04-19T16:17:50Z</time></trkpt><trkpt lat="45.10793535364234" lon="7.279525107443889"><ele>381.0</ele><time>2026-04-19T16:17:50.999Z</time></trkpt><trkpt lat="45.107924561137935" lon="7.2797479598129815"><ele>381.0</ele><time>2026-04-19T16:17:51.999Z</time></trkpt><trkpt lat="45.107916540533374" lon="7.2799464562690686"><ele>381.0</ele><time>2026-04-19T16:17:52.999Z</time></trkpt><trkpt lat="45.10790965601399" lon="7.280117505488364"><ele>381.0</ele><time>2026-04-19T16:17:53.999Z</time></trkpt><trkpt lat="45.107904369803606" lon="7.280274856804015"><ele>381.0</ele><time>2026-04-19T16:17:54.999Z</time></trkpt><trkpt lat="45.1079000322077" lon="7.280419639389331"><ele>381.0</ele><time>2026-04-19T16:17:55.999Z</time></trkpt><trkpt lat="45.10788835374519" lon="7.280554889897424"><ele>381.0</ele><time>2026-04-19T16:17:56.999Z</time></trkpt><trkpt lat="45.10787664705308" lon="7.280670732561782"><ele>381.0</ele><time>2026-04-19T16:17:57.999Z</time></trkpt><trkpt lat="45.107867292862686" lon="7.280773038642406"><ele>381.0</ele><time>2026-04-19T16:17:58.999Z</time></trkpt><trkpt lat="45.10785957583839" lon="7.280932570544329"><ele>381.0</ele><time>2026-04-19T16:18:00.999Z</time></trkpt><trkpt lat="45.10786575355176" lon="7.281102474973395"><ele>381.0</ele><time>2026-04-19T16:18:42Z</time></trkpt><trkpt lat="45.10785349807055" lon="7.281219313447196"><ele>381.0</ele><time>2026-04-19T16:18:43Z</time></trkpt><trkpt lat="45.1078478166079" lon="7.281360346928793"><ele>381.0</ele><time>2026-04-19T16:18:44Z</time></trkpt><trkpt lat="45.107841021242" lon="7.2815154838646"><ele>381.0</ele><time>2026-04-19T16:18:45Z</time></trkpt><trkpt lat="45.10783322358171" lon="7.2816917124296054"><ele>381.0</ele><time>2026-04-19T16:18:46Z</time></trkpt><trkpt lat="45.10782532945747" lon="7.281869904114993"><ele>381.0</ele><time>2026-04-19T16:18:47Z</time></trkpt><trkpt lat="45.10781629333965" lon="7.282073874624446"><ele>381.0</ele><time>2026-04-19T16:18:48Z</time></trkpt><trkpt lat="45.10780800024879" lon="7.282263917124266"><ele>381.0</ele><time>2026-04-19T16:18:49Z</time></trkpt><trkpt lat="45.10779918008242" lon="7.282465658395735"><ele>380.5</ele><time>2026-04-19T16:18:50Z</time></trkpt><trkpt lat="45.10781302379349" lon="7.282662811713921"><ele>380.0</ele><time>2026-04-19T16:18:51Z</time></trkpt><trkpt lat="45.1077963874302" lon="7.282877297067558"><ele>379.5</ele><time>2026-04-19T16:18:52Z</time></trkpt><trkpt lat="45.10778378807664" lon="7.283096823303411"><ele>379.0</ele><time>2026-04-19T16:18:53Z</time></trkpt><trkpt lat="45.10777324915276" lon="7.283305623950705"><ele>378.66666666666663</ele><time>2026-04-19T16:18:54Z</time></trkpt><trkpt lat="45.107767810776174" lon="7.283516611271904"><ele>378.3333333333333</ele><time>2026-04-19T16:18:55Z</time></trkpt><trkpt lat="45.10775330994172" lon="7.283742788348194"><ele>378.0</ele><time>2026-04-19T16:18:56Z</time></trkpt><trkpt lat="45.10774056595896" lon="7.283991871584115"><ele>377.6666666666667</ele><time>2026-04-19T16:18:57Z</time></trkpt><trkpt lat="45.10772884598548" lon="7.2842576463703494"><ele>377.33333333333337</ele><time>2026-04-19T16:18:58Z</time></trkpt><trkpt lat="45.10771689349907" lon="7.284521191416474"><ele>377.0</ele><time>2026-04-19T16:18:59Z</time></trkpt><trkpt lat="45.10770234323463" lon="7.284781266117539"><ele>376.6666666666667</ele><time>2026-04-19T16:19:00Z</time></trkpt><trkpt lat="45.10768887837666" lon="7.285041587442897"><ele>376.3333333333333</ele><time>2026-04-19T16:19:01Z</time></trkpt><trkpt lat="45.107675044999624" lon="7.285302554616947"><ele>376.0</ele><time>2026-04-19T16:19:02Z</time></trkpt><trkpt lat="45.10766420129406" lon="7.285555474334265"><ele>376.0</ele><time>2026-04-19T16:19:03Z</time></trkpt><trkpt lat="45.10765345568515" lon="7.28581563077292"><ele>376.0</ele><time>2026-04-19T16:19:04Z</time></trkpt><trkpt lat="45.10764064526207" lon="7.286067115880969"><ele>376.0</ele><time>2026-04-19T16:19:05Z</time></trkpt><trkpt lat="45.10763298263082" lon="7.286310625163976"><ele>376.3333333333333</ele><time>2026-04-19T16:19:06Z</time></trkpt><trkpt lat="45.10762374556829" lon="7.286537570006909"><ele>376.6666666666667</ele><time>2026-04-19T16:19:07Z</time></trkpt><trkpt lat="45.10761635834042" lon="7.28675787385125"><ele>377.0</ele><time>2026-04-19T16:19:08Z</time></trkpt><trkpt lat="45.10760784387248" lon="7.286967074791034"><ele>377.0</ele><time>2026-04-19T16:19:09Z</time></trkpt><trkpt lat="45.107596560283895" lon="7.287194026643721"><ele>377.0</ele><time>2026-04-19T16:19:10Z</time></trkpt><trkpt lat="45.10759006787847" lon="7.287417895961881"><ele>377.0</ele><time>2026-04-19T16:19:11Z</time></trkpt><trkpt lat="45.10758914904795" lon="7.287639456921798"><ele>377.0</ele><time>2026-04-19T16:19:12Z</time></trkpt><trkpt lat="45.107564453097275" lon="7.287846618969891"><ele>377.0</ele><time>2026-04-19T16:19:13Z</time></trkpt><trkpt lat="45.10755657196128" lon="7.288022262914337"><ele>377.0</ele><time>2026-04-19T16:19:14Z</time></trkpt><trkpt lat="45.10754905014948" lon="7.2881886932227875"><ele>377.0</ele><time>2026-04-19T16:19:15Z</time></trkpt><trkpt lat="45.107542085868474" lon="7.288342535543076"><ele>377.0</ele><time>2026-04-19T16:19:16Z</time></trkpt><trkpt lat="45.107535939193944" lon="7.288478316668518"><ele>377.0</ele><time>2026-04-19T16:19:17Z</time></trkpt><trkpt lat="45.10751654488508" lon="7.288714673088901"><ele>377.0</ele><time>2026-04-19T16:19:18Z</time></trkpt><trkpt lat="45.10749332108739" lon="7.288845910046042"><ele>377.0</ele><time>2026-04-19T16:19:19Z</time></trkpt><trkpt lat="45.10744372608321" lon="7.288958595352364"><ele>377.0</ele><time>2026-04-19T16:19:20Z</time></trkpt><trkpt lat="45.10739174740372" lon="7.289041030781285"><ele>377.0</ele><time>2026-04-19T16:19:21Z</time></trkpt><trkpt lat="45.10736114237714" lon="7.289129766599312"><ele>377.0</ele><time>2026-04-19T16:19:22Z</time></trkpt><trkpt lat="45.1073598340687" lon="7.289237864389437"><ele>377.0</ele><time>2026-04-19T16:19:23Z</time></trkpt><trkpt lat="45.107380066364954" lon="7.28934636332322"><ele>377.0</ele><time>2026-04-19T16:19:24Z</time></trkpt><trkpt lat="45.107421251737854" lon="7.289445412545252"><ele>377.0</ele><time>2026-04-19T16:19:25Z</time></trkpt><trkpt lat="45.107464652164225" lon="7.289542509475964"><ele>377.25</ele><time>2026-04-19T16:19:26Z</time></trkpt><trkpt lat="45.107488752030356" lon="7.289810388203064"><ele>377.5</ele><time>2026-04-19T16:19:28Z</time></trkpt><trkpt lat="45.10748930272909" lon="7.28997110993404"><ele>377.75</ele><time>2026-04-19T16:19:29Z</time></trkpt><trkpt lat="45.10748705659318" lon="7.290150360014238"><ele>378.0</ele><time>2026-04-19T16:19:30Z</time></trkpt><trkpt lat="45.10747423283187" lon="7.290344242613877"><ele>378.0</ele><time>2026-04-19T16:19:31Z</time></trkpt><trkpt lat="45.10744330799925" lon="7.290577514143755"><ele>378.0</ele><time>2026-04-19T16:19:32Z</time></trkpt><trkpt lat="45.10743245729645" lon="7.290829709075122"><ele>378.0</ele><time>2026-04-19T16:19:33Z</time></trkpt><trkpt lat="45.1074202967715" lon="7.291121494041729"><ele>375.5</ele><time>2026-04-19T16:19:34Z</time></trkpt><trkpt lat="45.10740738730948" lon="7.2914312492932964"><ele>373.0</ele><time>2026-04-19T16:19:35Z</time></trkpt><trkpt lat="45.107393545347456" lon="7.2917633794590415"><ele>373.0</ele><time>2026-04-19T16:19:36Z</time></trkpt><trkpt lat="45.107379103753125" lon="7.292109900521315"><ele>373.0</ele><time>2026-04-19T16:19:37Z</time></trkpt><trkpt lat="45.10737654523614" lon="7.292459159442661"><ele>373.5</ele><time>2026-04-19T16:19:38Z</time></trkpt><trkpt lat="45.10735748151153" lon="7.292820313651107"><ele>374.0</ele><time>2026-04-19T16:19:39Z</time></trkpt><trkpt lat="45.10734248095517" lon="7.2931810594264235"><ele>374.0</ele><time>2026-04-19T16:19:40Z</time></trkpt><trkpt lat="45.107326081535206" lon="7.2935454164949745"><ele>374.0</ele><time>2026-04-19T16:19:41Z</time></trkpt><trkpt lat="45.10730574106146" lon="7.293909265906693"><ele>373.5</ele><time>2026-04-19T16:19:42Z</time></trkpt><trkpt lat="45.107287331506384" lon="7.294267807443446"><ele>373.0</ele><time>2026-04-19T16:19:43Z</time></trkpt><trkpt lat="45.107273541218234" lon="7.294611209181445"><ele>373.0</ele><time>2026-04-19T16:19:44Z</time></trkpt><trkpt lat="45.107259248643416" lon="7.294945549327027"><ele>373.0</ele><time>2026-04-19T16:19:45Z</time></trkpt><trkpt lat="45.10724221218746" lon="7.295271925082127"><ele>373.0</ele><time>2026-04-19T16:19:46Z</time></trkpt><trkpt lat="45.107224454747225" lon="7.295591850337806"><ele>373.0</ele><time>2026-04-19T16:19:47Z</time></trkpt><trkpt lat="45.10721324173478" lon="7.295914702504332"><ele>373.0</ele><time>2026-04-19T16:19:48Z</time></trkpt><trkpt lat="45.107201343203954" lon="7.296249390604533"><ele>373.0</ele><time>2026-04-19T16:19:49Z</time></trkpt><trkpt lat="45.107137806006804" lon="7.296554492542766"><ele>373.0</ele><time>2026-04-19T16:19:50Z</time></trkpt><trkpt lat="45.10717525878317" lon="7.296931085883177"><ele>373.0</ele><time>2026-04-19T16:19:51Z</time></trkpt><trkpt lat="45.10715852731023" lon="7.297274094949995"><ele>373.5</ele><time>2026-04-19T16:19:52Z</time></trkpt><trkpt lat="45.107139859469555" lon="7.297618320164969"><ele>374.0</ele><time>2026-04-19T16:19:53Z</time></trkpt><trkpt lat="45.10712361668901" lon="7.297961516206276"><ele>373.0</ele><time>2026-04-19T16:19:54Z</time></trkpt><trkpt lat="45.10710956544375" lon="7.298285333973994"><ele>372.0</ele><time>2026-04-19T16:19:55Z</time></trkpt><trkpt lat="45.10709074077938" lon="7.29860541767005"><ele>372.5</ele><time>2026-04-19T16:19:56Z</time></trkpt><trkpt lat="45.10707554341014" lon="7.298939046432289"><ele>373.0</ele><time>2026-04-19T16:19:57Z</time></trkpt><trkpt lat="45.1070590811594" lon="7.299292346676819"><ele>373.0</ele><time>2026-04-19T16:19:58Z</time></trkpt><trkpt lat="45.107041249612635" lon="7.299649028739024"><ele>373.0</ele><time>2026-04-19T16:19:59Z</time></trkpt><trkpt lat="45.10702330901339" lon="7.3000085242131965"><ele>373.0</ele><time>2026-04-19T16:20:00Z</time></trkpt><trkpt lat="45.1070061668685" lon="7.300372078532376"><ele>373.0</ele><time>2026-04-19T16:20:01Z</time></trkpt><trkpt lat="45.10698523338627" lon="7.300734810003874"><ele>373.0</ele><time>2026-04-19T16:20:02Z</time></trkpt><trkpt lat="45.10696806933135" lon="7.301107216467701"><ele>373.0</ele><time>2026-04-19T16:20:03Z</time></trkpt><trkpt lat="45.10695171602979" lon="7.301463429139793"><ele>373.0</ele><time>2026-04-19T16:20:04Z</time></trkpt><trkpt lat="45.106937025175704" lon="7.301817415948934"><ele>373.0</ele><time>2026-04-19T16:20:05Z</time></trkpt><trkpt lat="45.10691952960919" lon="7.30218267595672"><ele>373.0</ele><time>2026-04-19T16:20:06Z</time></trkpt><trkpt lat="45.10690452785621" lon="7.302557332919527"><ele>373.0</ele><time>2026-04-19T16:20:07Z</time></trkpt><trkpt lat="45.10688496182633" lon="7.302935673427219"><ele>373.5</ele><time>2026-04-19T16:20:08Z</time></trkpt><trkpt lat="45.10686748477758" lon="7.303316616142623"><ele>374.0</ele><time>2026-04-19T16:20:09Z</time></trkpt><trkpt lat="45.10684854769542" lon="7.30369694044424"><ele>374.5</ele><time>2026-04-19T16:20:10Z</time></trkpt><trkpt lat="45.10682768417337" lon="7.304078006749986"><ele>375.0</ele><time>2026-04-19T16:20:11Z</time></trkpt><trkpt lat="45.10681150486287" lon="7.304460909504152"><ele>374.5</ele><time>2026-04-19T16:20:12Z</time></trkpt><trkpt lat="45.106793763474144" lon="7.304855077928266"><ele>374.0</ele><time>2026-04-19T16:20:13Z</time></trkpt><trkpt lat="45.10677454114652" lon="7.30524937954664"><ele>372.5</ele><time>2026-04-19T16:20:14Z</time></trkpt><trkpt lat="45.10675601322711" lon="7.30564541811429"><ele>371.0</ele><time>2026-04-19T16:20:15Z</time></trkpt><trkpt lat="45.10673309187011" lon="7.306040849442897"><ele>370.5</ele><time>2026-04-19T16:20:16Z</time></trkpt><trkpt lat="45.10671240943793" lon="7.306435322084148"><ele>370.0</ele><time>2026-04-19T16:20:17Z</time></trkpt><trkpt lat="45.106691748299326" lon="7.306827524781613"><ele>370.0</ele><time>2026-04-19T16:20:18Z</time></trkpt><trkpt lat="45.10667295060564" lon="7.307217352615802"><ele>370.0</ele><time>2026-04-19T16:20:19Z</time></trkpt><trkpt lat="45.10665646638196" lon="7.307585027227423"><ele>370.0</ele><time>2026-04-19T16:20:20Z</time></trkpt><trkpt lat="45.10663675315415" lon="7.307927711870551"><ele>370.0</ele><time>2026-04-19T16:20:21Z</time></trkpt><trkpt lat="45.106618417752316" lon="7.308276877779328"><ele>370.0</ele><time>2026-04-19T16:20:22Z</time></trkpt><trkpt lat="45.10660022043235" lon="7.308616662980954"><ele>370.0</ele><time>2026-04-19T16:20:23Z</time></trkpt><trkpt lat="45.1065812062626" lon="7.308931050762894"><ele>370.3333333333333</ele><time>2026-04-19T16:20:24Z</time></trkpt><trkpt lat="45.1065683408485" lon="7.309242254233069"><ele>370.6666666666667</ele><time>2026-04-19T16:20:25Z</time></trkpt><trkpt lat="45.10655455658716" lon="7.309550346005295"><ele>371.0</ele><time>2026-04-19T16:20:26Z</time></trkpt><trkpt lat="45.10653807469824" lon="7.309841600066896"><ele>371.0</ele><time>2026-04-19T16:20:27Z</time></trkpt><trkpt lat="45.10652551700338" lon="7.310104730785372"><ele>371.0</ele><time>2026-04-19T16:20:28Z</time></trkpt><trkpt lat="45.10651329444257" lon="7.310352658217727"><ele>371.0</ele><time>2026-04-19T16:20:29Z</time></trkpt><trkpt lat="45.10649910449113" lon="7.310582037776427"><ele>370.75</ele><time>2026-04-19T16:20:30Z</time></trkpt><trkpt lat="45.10648587328054" lon="7.310785968326227"><ele>370.5</ele><time>2026-04-19T16:20:31Z</time></trkpt><trkpt lat="45.10646020529502" lon="7.31095546502025"><ele>370.25</ele><time>2026-04-19T16:20:32Z</time></trkpt><trkpt lat="45.10641140805837" lon="7.311094088157455"><ele>370.0</ele><time>2026-04-19T16:20:33Z</time></trkpt><trkpt lat="45.10634061938853" lon="7.311204902664011"><ele>370.0</ele><time>2026-04-19T16:20:34Z</time></trkpt><trkpt lat="45.10630478702462" lon="7.311337481577459"><ele>370.0</ele><time>2026-04-19T16:20:35Z</time></trkpt><trkpt lat="45.10632966218957" lon="7.31149406539957"><ele>370.0</ele><time>2026-04-19T16:20:36Z</time></trkpt><trkpt lat="45.10639057550183" lon="7.311671070445717"><ele>370.0</ele><time>2026-04-19T16:20:37Z</time></trkpt><trkpt lat="45.106445529823844" lon="7.311878068384838"><ele>370.3333333333333</ele><time>2026-04-19T16:20:38Z</time></trkpt><trkpt lat="45.10644401578419" lon="7.312117543238345"><ele>370.6666666666667</ele><time>2026-04-19T16:20:39Z</time></trkpt><trkpt lat="45.10641900285709" lon="7.312385544223359"><ele>371.0</ele><time>2026-04-19T16:20:40Z</time></trkpt><trkpt lat="45.10639712227202" lon="7.312652376042909"><ele>371.0</ele><time>2026-04-19T16:20:41Z</time></trkpt><trkpt lat="45.106382380659376" lon="7.31293186913055"><ele>371.0</ele><time>2026-04-19T16:20:42Z</time></trkpt><trkpt lat="45.10635299546356" lon="7.313215443654403"><ele>371.0</ele><time>2026-04-19T16:20:43Z</time></trkpt><trkpt lat="45.10635560510922" lon="7.313511045468193"><ele>370.33333333333337</ele><time>2026-04-19T16:20:44Z</time></trkpt><trkpt lat="45.106339738291446" lon="7.313799541223176"><ele>369.6666666666667</ele><time>2026-04-19T16:20:45Z</time></trkpt><trkpt lat="45.106322480553935" lon="7.314081350372276"><ele>369.0</ele><time>2026-04-19T16:20:46Z</time></trkpt><trkpt lat="45.10630789594051" lon="7.314353430206963"><ele>369.0</ele><time>2026-04-19T16:20:47Z</time></trkpt><trkpt lat="45.10629350820819" lon="7.314638151235202"><ele>369.0</ele><time>2026-04-19T16:20:48Z</time></trkpt><trkpt lat="45.10627973899507" lon="7.3149294431853615"><ele>369.0</ele><time>2026-04-19T16:20:49Z</time></trkpt><trkpt lat="45.10626613395789" lon="7.315219775645522"><ele>369.0</ele><time>2026-04-19T16:20:50Z</time></trkpt><trkpt lat="45.10625050992598" lon="7.315511984208821"><ele>369.0</ele><time>2026-04-19T16:20:51Z</time></trkpt><trkpt lat="45.10623599286717" lon="7.315805398673925"><ele>369.0</ele><time>2026-04-19T16:20:52Z</time></trkpt><trkpt lat="45.106221440763484" lon="7.316099871849265"><ele>369.0</ele><time>2026-04-19T16:20:53Z</time></trkpt><trkpt lat="45.106206393080065" lon="7.316393856415947"><ele>369.0</ele><time>2026-04-19T16:20:54Z</time></trkpt><trkpt lat="45.106188082875825" lon="7.316687258740331"><ele>369.0</ele><time>2026-04-19T16:20:55Z</time></trkpt><trkpt lat="45.106172043288964" lon="7.316980219735891"><ele>368.6666666666667</ele><time>2026-04-19T16:20:56Z</time></trkpt><trkpt lat="45.10615856535598" lon="7.317268059140917"><ele>368.33333333333337</ele><time>2026-04-19T16:20:57Z</time></trkpt><trkpt lat="45.1061453622759" lon="7.317561002454056"><ele>368.0</ele><time>2026-04-19T16:20:58Z</time></trkpt><trkpt lat="45.10612953614514" lon="7.317858387575056"><ele>368.33333333333337</ele><time>2026-04-19T16:20:59Z</time></trkpt><trkpt lat="45.1061167408426" lon="7.318154240601579"><ele>368.6666666666667</ele><time>2026-04-19T16:21:00Z</time></trkpt><trkpt lat="45.106102626296" lon="7.318459448473606"><ele>369.0</ele><time>2026-04-19T16:21:01Z</time></trkpt><trkpt lat="45.106086696743496" lon="7.3187569027331385"><ele>369.0</ele><time>2026-04-19T16:21:02Z</time></trkpt><trkpt lat="45.10606890392616" lon="7.319052686703696"><ele>369.0</ele><time>2026-04-19T16:21:03Z</time></trkpt><trkpt lat="45.10605013301356" lon="7.319345040845371"><ele>369.0</ele><time>2026-04-19T16:21:04Z</time></trkpt><trkpt lat="45.106038299219335" lon="7.319638611083224"><ele>369.0</ele><time>2026-04-19T16:21:05Z</time></trkpt><trkpt lat="45.10602493023232" lon="7.31993067172859"><ele>369.0</ele><time>2026-04-19T16:21:06Z</time></trkpt><trkpt lat="45.106008603440294" lon="7.320225140564871"><ele>369.0</ele><time>2026-04-19T16:21:07Z</time></trkpt><trkpt lat="45.10599497021368" lon="7.320520710925641"><ele>369.0</ele><time>2026-04-19T16:21:08Z</time></trkpt><trkpt lat="45.10598185686349" lon="7.320812655440372"><ele>369.0</ele><time>2026-04-19T16:21:09Z</time></trkpt><trkpt lat="45.10595188520266" lon="7.321104077997241"><ele>369.0</ele><time>2026-04-19T16:21:10Z</time></trkpt><trkpt lat="45.10593642372219" lon="7.321401093462989"><ele>368.6666666666667</ele><time>2026-04-19T16:21:11Z</time></trkpt><trkpt lat="45.105921164087746" lon="7.321694231431878"><ele>368.33333333333337</ele><time>2026-04-19T16:21:12Z</time></trkpt><trkpt lat="45.10590603962175" lon="7.321984772819906"><ele>368.0</ele><time>2026-04-19T16:21:13Z</time></trkpt><trkpt lat="45.10590582652592" lon="7.322274492982072"><ele>368.0</ele><time>2026-04-19T16:21:14Z</time></trkpt><trkpt lat="45.10588324977447" lon="7.322558017849877"><ele>368.0</ele><time>2026-04-19T16:21:15Z</time></trkpt><trkpt lat="45.10586524460619" lon="7.322828129597906"><ele>368.0</ele><time>2026-04-19T16:21:16Z</time></trkpt><trkpt lat="45.10585415442785" lon="7.323068235538941"><ele>368.0</ele><time>2026-04-19T16:21:17Z</time></trkpt><trkpt lat="45.105845690127666" lon="7.32329620018978"><ele>368.0</ele><time>2026-04-19T16:21:18Z</time></trkpt><trkpt lat="45.105836222999706" lon="7.323514984661623"><ele>368.0</ele><time>2026-04-19T16:21:19Z</time></trkpt><trkpt lat="45.10582544434539" lon="7.323718273422409"><ele>367.75</ele><time>2026-04-19T16:21:20Z</time></trkpt><trkpt lat="45.105819192088894" lon="7.32390446410946"><ele>367.5</ele><time>2026-04-19T16:21:21Z</time></trkpt><trkpt lat="45.105794435508194" lon="7.324080540568936"><ele>367.25</ele><time>2026-04-19T16:21:22Z</time></trkpt><trkpt lat="45.10578537550194" lon="7.3242462600878655"><ele>367.0</ele><time>2026-04-19T16:21:23Z</time></trkpt><trkpt lat="45.10577697886507" lon="7.3243998453676005"><ele>367.0</ele><time>2026-04-19T16:21:24Z</time></trkpt><trkpt lat="45.10576888283171" lon="7.3245479325251726"><ele>367.0</ele><time>2026-04-19T16:21:25Z</time></trkpt><trkpt lat="45.10575947461972" lon="7.324720021005643"><ele>367.0</ele><time>2026-04-19T16:21:26Z</time></trkpt><trkpt lat="45.10576230277395" lon="7.324898153343668"><ele>367.0</ele><time>2026-04-19T16:21:27Z</time></trkpt><trkpt lat="45.10575172154065" lon="7.3250640681253945"><ele>367.0</ele><time>2026-04-19T16:21:28Z</time></trkpt><trkpt lat="45.105746470536076" lon="7.325235013523656"><ele>367.0</ele><time>2026-04-19T16:21:29Z</time></trkpt><trkpt lat="45.105735891571456" lon="7.325436381039953"><ele>367.0</ele><time>2026-04-19T16:21:30Z</time></trkpt><trkpt lat="45.10571991164421" lon="7.325658853863048"><ele>367.0</ele><time>2026-04-19T16:21:31Z</time></trkpt><trkpt lat="45.10570732916556" lon="7.325908354269421"><ele>367.0</ele><time>2026-04-19T16:21:32Z</time></trkpt><trkpt lat="45.10569674185763" lon="7.326173018436179"><ele>367.0</ele><time>2026-04-19T16:21:33Z</time></trkpt><trkpt lat="45.10566562933671" lon="7.326446038979211"><ele>367.0</ele><time>2026-04-19T16:21:34Z</time></trkpt><trkpt lat="45.10565042761775" lon="7.326726262303839"><ele>367.0</ele><time>2026-04-19T16:21:35Z</time></trkpt><trkpt lat="45.10563526224547" lon="7.327006878077687"><ele>367.0</ele><time>2026-04-19T16:21:36Z</time></trkpt><trkpt lat="45.105620001439966" lon="7.327289131832929"><ele>367.0</ele><time>2026-04-19T16:21:37Z</time></trkpt><trkpt lat="45.10560496747205" lon="7.327567190162649"><ele>366.66666666666663</ele><time>2026-04-19T16:21:38Z</time></trkpt><trkpt lat="45.105590410963" lon="7.327836417874042"><ele>366.3333333333333</ele><time>2026-04-19T16:21:39Z</time></trkpt><trkpt lat="45.10557695202852" lon="7.328088177802083"><ele>366.0</ele><time>2026-04-19T16:21:40Z</time></trkpt><trkpt lat="45.10556432511134" lon="7.3283249249017"><ele>366.0</ele><time>2026-04-19T16:21:41Z</time></trkpt><trkpt lat="45.105551064001375" lon="7.328573562565412"><ele>366.0</ele><time>2026-04-19T16:21:42Z</time></trkpt><trkpt lat="45.105561258183435" lon="7.328829027418741"><ele>366.0</ele><time>2026-04-19T16:21:43Z</time></trkpt><trkpt lat="45.10554878209306" lon="7.329083725008274"><ele>366.0</ele><time>2026-04-19T16:21:44Z</time></trkpt><trkpt lat="45.10553446770412" lon="7.329327655569482"><ele>366.0</ele><time>2026-04-19T16:21:45Z</time></trkpt><trkpt lat="45.10551923218847" lon="7.32957753317454"><ele>366.0</ele><time>2026-04-19T16:21:46Z</time></trkpt><trkpt lat="45.10550520979074" lon="7.329832636104697"><ele>366.0</ele><time>2026-04-19T16:21:47Z</time></trkpt><trkpt lat="45.10547503653501" lon="7.330075269369405"><ele>366.0</ele><time>2026-04-19T16:21:48Z</time></trkpt><trkpt lat="45.10546234688191" lon="7.330322696031101"><ele>366.0</ele><time>2026-04-19T16:21:49Z</time></trkpt><trkpt lat="45.105449566878846" lon="7.330580759327188"><ele>365.3333333333333</ele><time>2026-04-19T16:21:50Z</time></trkpt><trkpt lat="45.10543549718804" lon="7.330855501484476"><ele>364.66666666666663</ele><time>2026-04-19T16:21:51Z</time></trkpt><trkpt lat="45.105422182600115" lon="7.331114146318952"><ele>364.0</ele><time>2026-04-19T16:21:52Z</time></trkpt><trkpt lat="45.105408690725305" lon="7.331376235455034"><ele>364.0</ele><time>2026-04-19T16:21:53Z</time></trkpt><trkpt lat="45.10539510205713" lon="7.331639803470167"><ele>364.0</ele><time>2026-04-19T16:21:54Z</time></trkpt><trkpt lat="45.10538132229836" lon="7.331906947770582"><ele>364.0</ele><time>2026-04-19T16:21:55Z</time></trkpt><trkpt lat="45.10536773276398" lon="7.332169011211744"><ele>363.66666666666663</ele><time>2026-04-19T16:21:56Z</time></trkpt><trkpt lat="45.10535420815675" lon="7.332429647424818"><ele>363.3333333333333</ele><time>2026-04-19T16:21:57Z</time></trkpt><trkpt lat="45.10533996641558" lon="7.332704103739926"><ele>363.0</ele><time>2026-04-19T16:21:58Z</time></trkpt><trkpt lat="45.10532568251902" lon="7.3329859876949435"><ele>363.3333333333333</ele><time>2026-04-19T16:21:59Z</time></trkpt><trkpt lat="45.10531148246089" lon="7.333268489856858"><ele>363.66666666666663</ele><time>2026-04-19T16:22:00Z</time></trkpt><trkpt lat="45.1052968592812" lon="7.3335594116917475"><ele>364.0</ele><time>2026-04-19T16:22:01Z</time></trkpt><trkpt lat="45.10530212996107" lon="7.333861027596492"><ele>364.0</ele><time>2026-04-19T16:22:02Z</time></trkpt><trkpt lat="45.10528045295947" lon="7.334161931875215"><ele>364.0</ele><time>2026-04-19T16:22:03Z</time></trkpt><trkpt lat="45.10526166091241" lon="7.334472591407765"><ele>364.0</ele><time>2026-04-19T16:22:04Z</time></trkpt><trkpt lat="45.10524703422875" lon="7.3347939121625405"><ele>364.0</ele><time>2026-04-19T16:22:05Z</time></trkpt><trkpt lat="45.10522802656014" lon="7.335125272806"><ele>364.0</ele><time>2026-04-19T16:22:06Z</time></trkpt><trkpt lat="45.10520997716515" lon="7.335470004368934"><ele>363.5</ele><time>2026-04-19T16:22:07Z</time></trkpt><trkpt lat="45.105189221586635" lon="7.335830763324146"><ele>363.0</ele><time>2026-04-19T16:22:08Z</time></trkpt><trkpt lat="45.1051699545834" lon="7.336209722416113"><ele>363.5</ele><time>2026-04-19T16:22:09Z</time></trkpt><trkpt lat="45.10514958344567" lon="7.336599719654534"><ele>364.0</ele><time>2026-04-19T16:22:10Z</time></trkpt><trkpt lat="45.10512953068653" lon="7.33699570115942"><ele>363.0</ele><time>2026-04-19T16:22:11Z</time></trkpt><trkpt lat="45.10510459679857" lon="7.337380859654169"><ele>362.0</ele><time>2026-04-19T16:22:12Z</time></trkpt><trkpt lat="45.10508019601677" lon="7.337730980284295"><ele>361.5</ele><time>2026-04-19T16:22:13Z</time></trkpt><trkpt lat="45.10506065452983" lon="7.338075117373017"><ele>361.0</ele><time>2026-04-19T16:22:14Z</time></trkpt><trkpt lat="45.10504179262878" lon="7.338420451118852"><ele>361.0</ele><time>2026-04-19T16:22:15Z</time></trkpt><trkpt lat="45.1050212685357" lon="7.338772186771789"><ele>361.0</ele><time>2026-04-19T16:22:16Z</time></trkpt><trkpt lat="45.10499427000715" lon="7.339125096394786"><ele>361.0</ele><time>2026-04-19T16:22:17Z</time></trkpt><trkpt lat="45.10499501140417" lon="7.339426316771877"><ele>361.0</ele><time>2026-04-19T16:22:18Z</time></trkpt><trkpt lat="45.104978057795016" lon="7.339732745229183"><ele>361.0</ele><time>2026-04-19T16:22:19Z</time></trkpt><trkpt lat="45.10495960957084" lon="7.340028589543779"><ele>361.0</ele><time>2026-04-19T16:22:20Z</time></trkpt><trkpt lat="45.10494287001604" lon="7.340326552058646"><ele>361.0</ele><time>2026-04-19T16:22:21Z</time></trkpt><trkpt lat="45.10492979580675" lon="7.340633138954515"><ele>361.0</ele><time>2026-04-19T16:22:22Z</time></trkpt><trkpt lat="45.10489702277608" lon="7.34094830112412"><ele>364.5</ele><time>2026-04-19T16:22:23Z</time></trkpt><trkpt lat="45.104878886434776" lon="7.341273820145024"><ele>368.0</ele><time>2026-04-19T16:22:24Z</time></trkpt><trkpt lat="45.10486037907941" lon="7.341605998324056"><ele>368.0</ele><time>2026-04-19T16:22:25Z</time></trkpt><trkpt lat="45.104851019428" lon="7.341949090428172"><ele>368.0</ele><time>2026-04-19T16:22:26Z</time></trkpt><trkpt lat="45.104826654849475" lon="7.342288033250525"><ele>365.5</ele><time>2026-04-19T16:22:27Z</time></trkpt><trkpt lat="45.10480572016455" lon="7.342631007796655"><ele>363.0</ele><time>2026-04-19T16:22:28Z</time></trkpt><trkpt lat="45.104789037455156" lon="7.342977766908757"><ele>362.0</ele><time>2026-04-19T16:22:29Z</time></trkpt><trkpt lat="45.10477167125655" lon="7.343325513449171"><ele>361.0</ele><time>2026-04-19T16:22:30Z</time></trkpt><trkpt lat="45.10475453530628" lon="7.343677649296839"><ele>361.0</ele><time>2026-04-19T16:22:31Z</time></trkpt><trkpt lat="45.10473403503339" lon="7.344030749900984"><ele>361.0</ele><time>2026-04-19T16:22:32Z</time></trkpt><trkpt lat="45.10471429356494" lon="7.344384864023392"><ele>361.5</ele><time>2026-04-19T16:22:33Z</time></trkpt><trkpt lat="45.1046936505761" lon="7.344739447586469"><ele>362.0</ele><time>2026-04-19T16:22:34Z</time></trkpt><trkpt lat="45.10467167066654" lon="7.345098043565511"><ele>362.0</ele><time>2026-04-19T16:22:35Z</time></trkpt><trkpt lat="45.10465305112555" lon="7.345462784239054"><ele>362.0</ele><time>2026-04-19T16:22:36Z</time></trkpt><trkpt lat="45.10463357360059" lon="7.345831913364372"><ele>361.5</ele><time>2026-04-19T16:22:37Z</time></trkpt><trkpt lat="45.1046123150055" lon="7.346205764483797"><ele>361.0</ele><time>2026-04-19T16:22:38Z</time></trkpt><trkpt lat="45.10459127149335" lon="7.34658024137623"><ele>361.5</ele><time>2026-04-19T16:22:39Z</time></trkpt><trkpt lat="45.10457660413432" lon="7.34695954905791"><ele>362.0</ele><time>2026-04-19T16:22:40Z</time></trkpt><trkpt lat="45.104559395648835" lon="7.3473232127447865"><ele>362.0</ele><time>2026-04-19T16:22:41Z</time></trkpt><trkpt lat="45.10454272117233" lon="7.347658454241168"><ele>362.0</ele><time>2026-04-19T16:22:42Z</time></trkpt><trkpt lat="45.10452529244372" lon="7.347972022778382"><ele>361.6666666666667</ele><time>2026-04-19T16:22:43Z</time></trkpt><trkpt lat="45.104508288743936" lon="7.34826715739661"><ele>361.3333333333333</ele><time>2026-04-19T16:22:44Z</time></trkpt><trkpt lat="45.10448490253701" lon="7.348536981410372"><ele>361.0</ele><time>2026-04-19T16:22:45Z</time></trkpt><trkpt lat="45.10446190522821" lon="7.348791094584568"><ele>361.25</ele><time>2026-04-19T16:22:46Z</time></trkpt><trkpt lat="45.104437141577144" lon="7.34903065361756"><ele>361.5</ele><time>2026-04-19T16:22:47Z</time></trkpt><trkpt lat="45.104412717251165" lon="7.34923811141161"><ele>361.75</ele><time>2026-04-19T16:22:48Z</time></trkpt><trkpt lat="45.10437795909071" lon="7.349401733945371"><ele>362.0</ele><time>2026-04-19T16:22:49Z</time></trkpt><trkpt lat="45.10433240712687" lon="7.349542117172711"><ele>362.0</ele><time>2026-04-19T16:22:50Z</time></trkpt><trkpt lat="45.104249289714566" lon="7.349647693744685"><ele>362.0</ele><time>2026-04-19T16:22:51Z</time></trkpt><trkpt lat="45.10418513018027" lon="7.349775916249913"><ele>362.0</ele><time>2026-04-19T16:22:52Z</time></trkpt><trkpt lat="45.10417254487236" lon="7.349940801663751"><ele>362.0</ele><time>2026-04-19T16:22:53Z</time></trkpt><trkpt lat="45.104182117270256" lon="7.3501324130430445"><ele>362.0</ele><time>2026-04-19T16:22:54Z</time></trkpt><trkpt lat="45.10418653125205" lon="7.350333863907225"><ele>362.0</ele><time>2026-04-19T16:22:55Z</time></trkpt><trkpt lat="45.10413811349893" lon="7.350574571194002"><ele>362.0</ele><time>2026-04-19T16:22:56Z</time></trkpt><trkpt lat="45.104031688009684" lon="7.350823616240688"><ele>361.0</ele><time>2026-04-19T16:22:57Z</time></trkpt><trkpt lat="45.10395427645433" lon="7.351091892653083"><ele>360.0</ele><time>2026-04-19T16:22:58Z</time></trkpt><trkpt lat="45.10387383531486" lon="7.351369767470184"><ele>359.0</ele><time>2026-04-19T16:22:59Z</time></trkpt><trkpt lat="45.103794078294435" lon="7.351645279143376"><ele>358.6666666666667</ele><time>2026-04-19T16:23:00Z</time></trkpt><trkpt lat="45.10371832599905" lon="7.3519143304380865"><ele>358.3333333333333</ele><time>2026-04-19T16:23:01Z</time></trkpt><trkpt lat="45.10363900756365" lon="7.3521811912290245"><ele>358.0</ele><time>2026-04-19T16:23:02Z</time></trkpt><trkpt lat="45.10356155321691" lon="7.3524505191375455"><ele>358.0</ele><time>2026-04-19T16:23:03Z</time></trkpt><trkpt lat="45.10349456180199" lon="7.352743746914352"><ele>358.0</ele><time>2026-04-19T16:23:04Z</time></trkpt><trkpt lat="45.10340601290652" lon="7.353031421568736"><ele>358.0</ele><time>2026-04-19T16:23:05Z</time></trkpt><trkpt lat="45.10332088034506" lon="7.353323238006159"><ele>358.0</ele><time>2026-04-19T16:23:06Z</time></trkpt><trkpt lat="45.103235166001795" lon="7.35361907356717"><ele>358.0</ele><time>2026-04-19T16:23:07Z</time></trkpt><trkpt lat="45.10314471795545" lon="7.353926593023194"><ele>358.0</ele><time>2026-04-19T16:23:08Z</time></trkpt><trkpt lat="45.10305868052989" lon="7.354237236378517"><ele>358.0</ele><time>2026-04-19T16:23:09Z</time></trkpt><trkpt lat="45.10297151661512" lon="7.354541348727271"><ele>358.0</ele><time>2026-04-19T16:23:10Z</time></trkpt><trkpt lat="45.1028858853806" lon="7.354832160896031"><ele>358.0</ele><time>2026-04-19T16:23:11Z</time></trkpt><trkpt lat="45.102801892768866" lon="7.355115246705041"><ele>358.0</ele><time>2026-04-19T16:23:12Z</time></trkpt><trkpt lat="45.10272342750795" lon="7.355377149998867"><ele>358.3333333333333</ele><time>2026-04-19T16:23:13Z</time></trkpt><trkpt lat="45.102654010529704" lon="7.3556229041793815"><ele>358.6666666666667</ele><time>2026-04-19T16:23:14Z</time></trkpt><trkpt lat="45.10258819419635" lon="7.355850231116655"><ele>359.0</ele><time>2026-04-19T16:23:15Z</time></trkpt><trkpt lat="45.10252284966192" lon="7.3560716227974385"><ele>359.0</ele><time>2026-04-19T16:23:16Z</time></trkpt><trkpt lat="45.10245293612831" lon="7.356312343202743"><ele>359.0</ele><time>2026-04-19T16:23:17Z</time></trkpt><trkpt lat="45.102380395934766" lon="7.35656813008022"><ele>359.0</ele><time>2026-04-19T16:23:18Z</time></trkpt><trkpt lat="45.10230402093491" lon="7.356833425018831"><ele>358.6666666666667</ele><time>2026-04-19T16:23:19Z</time></trkpt><trkpt lat="45.102227306687794" lon="7.357104110695745"><ele>358.3333333333333</ele><time>2026-04-19T16:23:20Z</time></trkpt><trkpt lat="45.102145145935125" lon="7.357384002618199"><ele>358.0</ele><time>2026-04-19T16:23:21Z</time></trkpt><trkpt lat="45.10206652863575" lon="7.357667198240652"><ele>357.66666666666663</ele><time>2026-04-19T16:23:22Z</time></trkpt><trkpt lat="45.101987208909044" lon="7.357956281359715"><ele>357.3333333333333</ele><time>2026-04-19T16:23:23Z</time></trkpt><trkpt lat="45.10190213727901" lon="7.3582422780358785"><ele>357.0</ele><time>2026-04-19T16:23:24Z</time></trkpt><trkpt lat="45.10181320454308" lon="7.358528152990513"><ele>357.0</ele><time>2026-04-19T16:23:25Z</time></trkpt><trkpt lat="45.10170455444684" lon="7.358804924146848"><ele>357.0</ele><time>2026-04-19T16:23:26Z</time></trkpt><trkpt lat="45.10159112449697" lon="7.3590903315397105"><ele>357.3333333333333</ele><time>2026-04-19T16:23:27Z</time></trkpt><trkpt lat="45.1014030617858" lon="7.359202262906623"><ele>357.66666666666663</ele><time>2026-04-19T16:23:28Z</time></trkpt><trkpt lat="45.10126957815756" lon="7.3593791740293435"><ele>358.0</ele><time>2026-04-19T16:23:29Z</time></trkpt><trkpt lat="45.101149040670514" lon="7.359554240469471"><ele>357.75</ele><time>2026-04-19T16:23:30Z</time></trkpt><trkpt lat="45.10104442061042" lon="7.359704636619525"><ele>357.5</ele><time>2026-04-19T16:23:31Z</time></trkpt><trkpt lat="45.10095295776279" lon="7.359838503550505"><ele>357.25</ele><time>2026-04-19T16:23:32Z</time></trkpt><trkpt lat="45.10087951285995" lon="7.359954706071054"><ele>357.0</ele><time>2026-04-19T16:23:33Z</time></trkpt><trkpt lat="45.10082260734763" lon="7.360028729026191"><ele>357.0</ele><time>2026-04-19T16:23:34Z</time></trkpt><trkpt lat="45.100772596530014" lon="7.360097206432533"><ele>357.0</ele><time>2026-04-19T16:23:35Z</time></trkpt><trkpt lat="45.1006959657225" lon="7.360203031853803"><ele>357.0</ele><time>2026-04-19T16:23:37Z</time></trkpt><trkpt lat="45.10063333628902" lon="7.360294704656605"><ele>357.0</ele><time>2026-04-19T16:24:08Z</time></trkpt><trkpt lat="45.10059328000968" lon="7.360367266789249"><ele>357.0</ele><time>2026-04-19T16:24:09Z</time></trkpt><trkpt lat="45.10053982407607" lon="7.360478484211648"><ele>357.0</ele><time>2026-04-19T16:24:10Z</time></trkpt><trkpt lat="45.10048441577826" lon="7.360623263344444"><ele>356.75</ele><time>2026-04-19T16:24:11Z</time></trkpt><trkpt lat="45.100428904931846" lon="7.360763376171374"><ele>356.5</ele><time>2026-04-19T16:24:12Z</time></trkpt><trkpt lat="45.10038362637213" lon="7.360924046528348"><ele>356.25</ele><time>2026-04-19T16:24:13Z</time></trkpt><trkpt lat="45.1003271082936" lon="7.361103602688223"><ele>356.0</ele><time>2026-04-19T16:24:14Z</time></trkpt><trkpt lat="45.100267837957965" lon="7.361297893400993"><ele>356.0</ele><time>2026-04-19T16:24:15Z</time></trkpt><trkpt lat="45.100207149301575" lon="7.361503407559185"><ele>356.0</ele><time>2026-04-19T16:24:16Z</time></trkpt><trkpt lat="45.100144590711565" lon="7.361712996853289"><ele>356.0</ele><time>2026-04-19T16:24:17Z</time></trkpt><trkpt lat="45.10007742761077" lon="7.361928910508743"><ele>356.0</ele><time>2026-04-19T16:24:18Z</time></trkpt><trkpt lat="45.10000602737714" lon="7.362160226537268"><ele>356.0</ele><time>2026-04-19T16:24:19Z</time></trkpt><trkpt lat="45.099927645073926" lon="7.362424139325838"><ele>356.0</ele><time>2026-04-19T16:24:20Z</time></trkpt><trkpt lat="45.09983892875734" lon="7.362703253363581"><ele>355.5</ele><time>2026-04-19T16:24:21Z</time></trkpt><trkpt lat="45.09974684733531" lon="7.362990504434128"><ele>355.0</ele><time>2026-04-19T16:24:22Z</time></trkpt><trkpt lat="45.09964723819114" lon="7.363319752427244"><ele>355.0</ele><time>2026-04-19T16:24:23Z</time></trkpt><trkpt lat="45.099561237306155" lon="7.363609937922118"><ele>355.0</ele><time>2026-04-19T16:24:24Z</time></trkpt><trkpt lat="45.09948354996474" lon="7.363866922193714"><ele>355.0</ele><time>2026-04-19T16:24:25Z</time></trkpt><trkpt lat="45.099411105815065" lon="7.364105730188956"><ele>355.0</ele><time>2026-04-19T16:24:26Z</time></trkpt><trkpt lat="45.099340303123746" lon="7.364330774437529"><ele>355.0</ele><time>2026-04-19T16:24:27Z</time></trkpt><trkpt lat="45.09926593147701" lon="7.364565162482797"><ele>355.0</ele><time>2026-04-19T16:24:28Z</time></trkpt><trkpt lat="45.099177415145455" lon="7.36478986866559"><ele>354.3333333333333</ele><time>2026-04-19T16:24:29Z</time></trkpt><trkpt lat="45.09906763074119" lon="7.364996183751793"><ele>353.6666666666667</ele><time>2026-04-19T16:24:30Z</time></trkpt><trkpt lat="45.09893995825977" lon="7.365179534294429"><ele>353.0</ele><time>2026-04-19T16:24:31Z</time></trkpt><trkpt lat="45.09880053946546" lon="7.365353045279013"><ele>353.0</ele><time>2026-04-19T16:24:32Z</time></trkpt><trkpt lat="45.09865162313008" lon="7.36552976996313"><ele>353.0</ele><time>2026-04-19T16:24:33Z</time></trkpt><trkpt lat="45.09848741901956" lon="7.365680421743118"><ele>353.0</ele><time>2026-04-19T16:24:34Z</time></trkpt><trkpt lat="45.098329748813065" lon="7.365804552404797"><ele>353.0</ele><time>2026-04-19T16:24:35Z</time></trkpt><trkpt lat="45.0981836561548" lon="7.365917223630653"><ele>353.0</ele><time>2026-04-19T16:24:36Z</time></trkpt><trkpt lat="45.09803314816043" lon="7.3660405575882075"><ele>353.0</ele><time>2026-04-19T16:24:37Z</time></trkpt><trkpt lat="45.09788315492847" lon="7.366169178704309"><ele>353.0</ele><time>2026-04-19T16:24:38Z</time></trkpt><trkpt lat="45.09773241650411" lon="7.366299133156004"><ele>353.0</ele><time>2026-04-19T16:24:39Z</time></trkpt><trkpt lat="45.097583071240784" lon="7.366425336777471"><ele>353.0</ele><time>2026-04-19T16:24:40Z</time></trkpt><trkpt lat="45.09743494448742" lon="7.366549617735343"><ele>353.33333333333337</ele><time>2026-04-19T16:24:41Z</time></trkpt><trkpt lat="45.09728560412692" lon="7.36667088643617"><ele>353.6666666666667</ele><time>2026-04-19T16:24:42Z</time></trkpt><trkpt lat="45.09713535182103" lon="7.366794251997705"><ele>354.0</ele><time>2026-04-19T16:24:43Z</time></trkpt><trkpt lat="45.09698725155607" lon="7.366918046058388"><ele>354.0</ele><time>2026-04-19T16:24:44Z</time></trkpt><trkpt lat="45.09685042827343" lon="7.367030535907849"><ele>354.0</ele><time>2026-04-19T16:24:45Z</time></trkpt><trkpt lat="45.09672808983878" lon="7.3671325317969405"><ele>354.0</ele><time>2026-04-19T16:24:46Z</time></trkpt><trkpt lat="45.09661466034587" lon="7.367236050433686"><ele>354.0</ele><time>2026-04-19T16:24:47Z</time></trkpt><trkpt lat="45.09649099587693" lon="7.367354232824995"><ele>354.0</ele><time>2026-04-19T16:24:48Z</time></trkpt><trkpt lat="45.0963441446479" lon="7.367461615373173"><ele>354.0</ele><time>2026-04-19T16:24:49Z</time></trkpt><trkpt lat="45.0962141844997" lon="7.367611212880793"><ele>354.0</ele><time>2026-04-19T16:24:50Z</time></trkpt><trkpt lat="45.09607476696382" lon="7.367741858480174"><ele>354.0</ele><time>2026-04-19T16:24:51Z</time></trkpt><trkpt lat="45.09594001339843" lon="7.367897508869958"><ele>354.0</ele><time>2026-04-19T16:24:52Z</time></trkpt><trkpt lat="45.09581618034976" lon="7.368086536928667"><ele>354.0</ele><time>2026-04-19T16:24:53Z</time></trkpt><trkpt lat="45.09570894931121" lon="7.368294519239584"><ele>354.0</ele><time>2026-04-19T16:24:54Z</time></trkpt><trkpt lat="45.095617704744896" lon="7.368495171659713"><ele>354.0</ele><time>2026-04-19T16:24:55Z</time></trkpt><trkpt lat="45.09554405735694" lon="7.368683657524544"><ele>354.0</ele><time>2026-04-19T16:24:56Z</time></trkpt><trkpt lat="45.095482316056305" lon="7.3688635365668995"><ele>354.25</ele><time>2026-04-19T16:24:57Z</time></trkpt><trkpt lat="45.095431230406874" lon="7.369037122226843"><ele>354.5</ele><time>2026-04-19T16:24:58Z</time></trkpt><trkpt lat="45.09538703951935" lon="7.36920063340009"><ele>354.75</ele><time>2026-04-19T16:24:59Z</time></trkpt><trkpt lat="45.09534610401743" lon="7.36935222514727"><ele>355.0</ele><time>2026-04-19T16:25:00Z</time></trkpt><trkpt lat="45.095305288468495" lon="7.369488790501735"><ele>355.0</ele><time>2026-04-19T16:25:01Z</time></trkpt><trkpt lat="45.095268582127694" lon="7.369608069781793"><ele>355.0</ele><time>2026-04-19T16:25:02Z</time></trkpt><trkpt lat="45.09523954478029" lon="7.369706111075681"><ele>355.0</ele><time>2026-04-19T16:25:03Z</time></trkpt><trkpt lat="45.09521554818546" lon="7.369790370431573"><ele>355.0</ele><time>2026-04-19T16:25:04Z</time></trkpt><trkpt lat="45.09518154831526" lon="7.369902066683917"><ele>355.0</ele><time>2026-04-19T16:25:06Z</time></trkpt><trkpt lat="45.095129881088724" lon="7.370051884100616"><ele>355.0</ele><time>2026-04-19T16:25:28Z</time></trkpt><trkpt lat="45.09508444070115" lon="7.370209796515768"><ele>354.75</ele><time>2026-04-19T16:25:29Z</time></trkpt><trkpt lat="45.095038607640774" lon="7.370380473698282"><ele>354.5</ele><time>2026-04-19T16:25:30Z</time></trkpt><trkpt lat="45.09498337664901" lon="7.370546425353015"><ele>354.25</ele><time>2026-04-19T16:25:31Z</time></trkpt><trkpt lat="45.09493322856845" lon="7.370710929322145"><ele>354.0</ele><time>2026-04-19T16:25:32Z</time></trkpt><trkpt lat="45.094884087748746" lon="7.370887688809628"><ele>353.5</ele><time>2026-04-19T16:25:33Z</time></trkpt><trkpt lat="45.09483567462634" lon="7.371060666168363"><ele>353.0</ele><time>2026-04-19T16:25:34Z</time></trkpt><trkpt lat="45.09478699087836" lon="7.371231795840566"><ele>352.5</ele><time>2026-04-19T16:25:35Z</time></trkpt><trkpt lat="45.09473552461687" lon="7.371399609787457"><ele>352.0</ele><time>2026-04-19T16:25:36Z</time></trkpt><trkpt lat="45.09468762609731" lon="7.3715705161094185"><ele>352.0</ele><time>2026-04-19T16:25:37Z</time></trkpt><trkpt lat="45.094635427106745" lon="7.371744854302304"><ele>352.0</ele><time>2026-04-19T16:25:38Z</time></trkpt><trkpt lat="45.09457978726333" lon="7.371936481012852"><ele>352.0</ele><time>2026-04-19T16:25:39Z</time></trkpt><trkpt lat="45.09451728053958" lon="7.37214047672049"><ele>352.0</ele><time>2026-04-19T16:25:40Z</time></trkpt><trkpt lat="45.094445277660846" lon="7.372379488249355"><ele>352.0</ele><time>2026-04-19T16:25:41Z</time></trkpt><trkpt lat="45.09437072585623" lon="7.372633650504133"><ele>352.0</ele><time>2026-04-19T16:25:42Z</time></trkpt><trkpt lat="45.09429311558369" lon="7.372899795074518"><ele>352.0</ele><time>2026-04-19T16:25:43Z</time></trkpt><trkpt lat="45.09421171791365" lon="7.373170599925321"><ele>352.0</ele><time>2026-04-19T16:25:44Z</time></trkpt><trkpt lat="45.09412755517029" lon="7.373452685721427"><ele>352.0</ele><time>2026-04-19T16:25:45Z</time></trkpt><trkpt lat="45.094045585203894" lon="7.373736562210034"><ele>352.0</ele><time>2026-04-19T16:25:46Z</time></trkpt><trkpt lat="45.09396209578132" lon="7.374025197390701"><ele>351.66666666666663</ele><time>2026-04-19T16:25:47Z</time></trkpt><trkpt lat="45.09387867326996" lon="7.37430719226899"><ele>351.3333333333333</ele><time>2026-04-19T16:25:48Z</time></trkpt><trkpt lat="45.09379117239648" lon="7.374601033115109"><ele>351.0</ele><time>2026-04-19T16:25:49Z</time></trkpt><trkpt lat="45.09370703729416" lon="7.374874495565255"><ele>351.0</ele><time>2026-04-19T16:25:50Z</time></trkpt><trkpt lat="45.093629433528434" lon="7.375135471595639"><ele>351.0</ele><time>2026-04-19T16:25:51Z</time></trkpt><trkpt lat="45.09355899882698" lon="7.375376291429881"><ele>351.0</ele><time>2026-04-19T16:25:52Z</time></trkpt><trkpt lat="45.09349227110767" lon="7.375610560556265"><ele>351.3333333333333</ele><time>2026-04-19T16:25:53Z</time></trkpt><trkpt lat="45.0934260564428" lon="7.375831788926921"><ele>351.66666666666663</ele><time>2026-04-19T16:25:54Z</time></trkpt><trkpt lat="45.09335706423322" lon="7.376052763659651"><ele>352.0</ele><time>2026-04-19T16:25:55Z</time></trkpt><trkpt lat="45.09328648788609" lon="7.376283536055643"><ele>351.66666666666663</ele><time>2026-04-19T16:25:56Z</time></trkpt><trkpt lat="45.09321290481085" lon="7.376526314332872"><ele>351.3333333333333</ele><time>2026-04-19T16:25:57Z</time></trkpt><trkpt lat="45.093139470607596" lon="7.37676837925308"><ele>351.0</ele><time>2026-04-19T16:25:58Z</time></trkpt><trkpt lat="45.093067214331036" lon="7.377017574525882"><ele>350.6666666666667</ele><time>2026-04-19T16:25:59Z</time></trkpt><trkpt lat="45.09299415739311" lon="7.377266543712728"><ele>350.33333333333337</ele><time>2026-04-19T16:26:00Z</time></trkpt><trkpt lat="45.09291966194555" lon="7.377515938553344"><ele>350.0</ele><time>2026-04-19T16:26:01Z</time></trkpt><trkpt lat="45.09284691139286" lon="7.3777596889416595"><ele>350.0</ele><time>2026-04-19T16:26:02Z</time></trkpt><trkpt lat="45.09277559456095" lon="7.377991092162227"><ele>350.0</ele><time>2026-04-19T16:26:03Z</time></trkpt><trkpt lat="45.092708787906766" lon="7.378211613803076"><ele>350.0</ele><time>2026-04-19T16:26:04Z</time></trkpt><trkpt lat="45.092650682623756" lon="7.378414686818289"><ele>350.33333333333337</ele><time>2026-04-19T16:26:05Z</time></trkpt><trkpt lat="45.09258622112635" lon="7.378628478232795"><ele>350.6666666666667</ele><time>2026-04-19T16:26:06Z</time></trkpt><trkpt lat="45.092519564712624" lon="7.378841335365127"><ele>351.0</ele><time>2026-04-19T16:26:07Z</time></trkpt><trkpt lat="45.09245563813834" lon="7.379055093535668"><ele>350.25</ele><time>2026-04-19T16:26:08Z</time></trkpt><trkpt lat="45.09239236061238" lon="7.379259891429637"><ele>349.5</ele><time>2026-04-19T16:26:09Z</time></trkpt><trkpt lat="45.09233277793246" lon="7.379454199686703"><ele>348.75</ele><time>2026-04-19T16:26:10Z</time></trkpt><trkpt lat="45.09227845011842" lon="7.379635816007501"><ele>348.0</ele><time>2026-04-19T16:26:11Z</time></trkpt><trkpt lat="45.0922246232045" lon="7.379807971999673"><ele>348.0</ele><time>2026-04-19T16:26:12Z</time></trkpt><trkpt lat="45.09217382726358" lon="7.379965272335262"><ele>348.0</ele><time>2026-04-19T16:26:13Z</time></trkpt><trkpt lat="45.09212893647481" lon="7.38010774701452"><ele>348.0</ele><time>2026-04-19T16:26:14Z</time></trkpt><trkpt lat="45.09209482063761" lon="7.380230243729383"><ele>348.0</ele><time>2026-04-19T16:26:15Z</time></trkpt><trkpt lat="45.092062639927505" lon="7.3803461172926745"><ele>348.0</ele><time>2026-04-19T16:26:16Z</time></trkpt><trkpt lat="45.092034349300086" lon="7.380450316057064"><ele>348.1666666666667</ele><time>2026-04-19T16:26:17Z</time></trkpt><trkpt lat="45.09200815505891" lon="7.380540492519088"><ele>348.3333333333333</ele><time>2026-04-19T16:26:18Z</time></trkpt><trkpt lat="45.09198490222372" lon="7.380627013448263"><ele>348.5</ele><time>2026-04-19T16:26:19Z</time></trkpt><trkpt lat="45.091942513389704" lon="7.380760909617722"><ele>348.66666666666663</ele><time>2026-04-19T16:26:21Z</time></trkpt><trkpt lat="45.09191514153441" lon="7.380852408341082"><ele>348.8333333333333</ele><time>2026-04-19T16:26:24Z</time></trkpt><trkpt lat="45.091868520555465" lon="7.381020620338684"><ele>349.0</ele><time>2026-04-19T16:26:38Z</time></trkpt><trkpt lat="45.091811403314885" lon="7.381182620896072"><ele>348.5</ele><time>2026-04-19T16:26:39Z</time></trkpt><trkpt lat="45.09176084119675" lon="7.381351276524998"><ele>348.0</ele><time>2026-04-19T16:26:40Z</time></trkpt><trkpt lat="45.09171588745849" lon="7.381525084968629"><ele>347.5</ele><time>2026-04-19T16:26:41Z</time></trkpt><trkpt lat="45.09164440637783" lon="7.381757818783578"><ele>347.0</ele><time>2026-04-19T16:26:42Z</time></trkpt><trkpt lat="45.09157740096926" lon="7.381980832510353"><ele>346.6666666666667</ele><time>2026-04-19T16:26:43Z</time></trkpt><trkpt lat="45.0915096054394" lon="7.3822161508494055"><ele>346.3333333333333</ele><time>2026-04-19T16:26:44Z</time></trkpt><trkpt lat="45.09143910585555" lon="7.382470287610026"><ele>346.0</ele><time>2026-04-19T16:26:45Z</time></trkpt><trkpt lat="45.091364737515065" lon="7.38273400306709"><ele>346.0</ele><time>2026-04-19T16:26:46Z</time></trkpt><trkpt lat="45.09128177656484" lon="7.383008345973152"><ele>346.0</ele><time>2026-04-19T16:26:47Z</time></trkpt><trkpt lat="45.091198760746956" lon="7.383278770613355"><ele>346.0</ele><time>2026-04-19T16:26:48Z</time></trkpt><trkpt lat="45.09110929338881" lon="7.383561055204844"><ele>345.3333333333333</ele><time>2026-04-19T16:26:49Z</time></trkpt><trkpt lat="45.09102104471048" lon="7.383851174665105"><ele>344.6666666666667</ele><time>2026-04-19T16:26:50Z</time></trkpt><trkpt lat="45.090935983898625" lon="7.384139201240053"><ele>344.0</ele><time>2026-04-19T16:26:51Z</time></trkpt><trkpt lat="45.09087057505342" lon="7.384434928296086"><ele>344.5</ele><time>2026-04-19T16:26:52Z</time></trkpt><trkpt lat="45.09086668118469" lon="7.384762656180663"><ele>345.0</ele><time>2026-04-19T16:26:53Z</time></trkpt><trkpt lat="45.09092923807908" lon="7.3851210195788175"><ele>345.0</ele><time>2026-04-19T16:26:54Z</time></trkpt><trkpt lat="45.09101374495575" lon="7.385460203648508"><ele>345.0</ele><time>2026-04-19T16:26:55Z</time></trkpt><trkpt lat="45.091086049539214" lon="7.385764521508278"><ele>345.6666666666667</ele><time>2026-04-19T16:26:56Z</time></trkpt><trkpt lat="45.091086996645984" lon="7.386042370303178"><ele>346.33333333333337</ele><time>2026-04-19T16:26:57Z</time></trkpt><trkpt lat="45.0910511795224" lon="7.386332460686255"><ele>347.0</ele><time>2026-04-19T16:26:58Z</time></trkpt><trkpt lat="45.09095048007547" lon="7.386654445254678"><ele>347.5</ele><time>2026-04-19T16:26:59Z</time></trkpt><trkpt lat="45.09083441033004" lon="7.387005241803108"><ele>348.0</ele><time>2026-04-19T16:27:00Z</time></trkpt><trkpt lat="45.09070817739423" lon="7.387334097997612"><ele>347.0</ele><time>2026-04-19T16:27:01Z</time></trkpt><trkpt lat="45.09059140266377" lon="7.387640604873844"><ele>346.0</ele><time>2026-04-19T16:27:02Z</time></trkpt><trkpt lat="45.09046174351336" lon="7.387946421229189"><ele>346.0</ele><time>2026-04-19T16:27:03Z</time></trkpt><trkpt lat="45.09032239160686" lon="7.388269623688761"><ele>346.0</ele><time>2026-04-19T16:27:04Z</time></trkpt><trkpt lat="45.09018418034435" lon="7.388604823129918"><ele>346.0</ele><time>2026-04-19T16:27:05Z</time></trkpt><trkpt lat="45.0900447998413" lon="7.388943928398339"><ele>346.0</ele><time>2026-04-19T16:27:06Z</time></trkpt><trkpt lat="45.08990974314337" lon="7.389278677074136"><ele>346.0</ele><time>2026-04-19T16:27:07Z</time></trkpt><trkpt lat="45.08977430073254" lon="7.389614187321122"><ele>346.0</ele><time>2026-04-19T16:27:08Z</time></trkpt><trkpt lat="45.08963815523134" lon="7.389946450105193"><ele>345.5</ele><time>2026-04-19T16:27:09Z</time></trkpt><trkpt lat="45.08950797556717" lon="7.3902597302938"><ele>345.0</ele><time>2026-04-19T16:27:10Z</time></trkpt><trkpt lat="45.08938581609559" lon="7.390545870618651"><ele>346.0</ele><time>2026-04-19T16:27:11Z</time></trkpt><trkpt lat="45.089267343213145" lon="7.39083182499573"><ele>347.0</ele><time>2026-04-19T16:27:12Z</time></trkpt><trkpt lat="45.08915422903232" lon="7.391101034518081"><ele>346.33333333333337</ele><time>2026-04-19T16:27:13Z</time></trkpt><trkpt lat="45.089049262487706" lon="7.3913555641207225"><ele>345.6666666666667</ele><time>2026-04-19T16:27:14Z</time></trkpt><trkpt lat="45.088952431132114" lon="7.391592388498912"><ele>345.0</ele><time>2026-04-19T16:27:15Z</time></trkpt><trkpt lat="45.088858250187826" lon="7.391818839886698"><ele>345.0</ele><time>2026-04-19T16:27:16Z</time></trkpt><trkpt lat="45.088768827556656" lon="7.392034473530982"><ele>345.0</ele><time>2026-04-19T16:27:17Z</time></trkpt><trkpt lat="45.088687206922586" lon="7.392235590038237"><ele>345.0</ele><time>2026-04-19T16:27:18Z</time></trkpt><trkpt lat="45.08861839938959" lon="7.392426853824382"><ele>345.0</ele><time>2026-04-19T16:27:19Z</time></trkpt><trkpt lat="45.088561469223194" lon="7.392605642142507"><ele>345.0</ele><time>2026-04-19T16:27:20Z</time></trkpt><trkpt lat="45.088507729164476" lon="7.392774267443619"><ele>345.0</ele><time>2026-04-19T16:27:21Z</time></trkpt><trkpt lat="45.08844386038312" lon="7.392911253736171"><ele>345.0</ele><time>2026-04-19T16:27:22Z</time></trkpt><trkpt lat="45.08841595486117" lon="7.393051644517552"><ele>344.75</ele><time>2026-04-19T16:27:23Z</time></trkpt><trkpt lat="45.088451248156446" lon="7.393200749751621"><ele>344.5</ele><time>2026-04-19T16:27:24Z</time></trkpt><trkpt lat="45.08853689921342" lon="7.393346620552877"><ele>344.25</ele><time>2026-04-19T16:27:25Z</time></trkpt><trkpt lat="45.08864044327965" lon="7.393503902434154"><ele>344.0</ele><time>2026-04-19T16:27:26Z</time></trkpt><trkpt lat="45.088678642554" lon="7.393736688281561"><ele>344.33333333333337</ele><time>2026-04-19T16:27:27Z</time></trkpt><trkpt lat="45.08868745425266" lon="7.394019723515591"><ele>344.6666666666667</ele><time>2026-04-19T16:27:28Z</time></trkpt><trkpt lat="45.08868141736171" lon="7.394346117409867"><ele>345.0</ele><time>2026-04-19T16:27:29Z</time></trkpt><trkpt lat="45.08868916271406" lon="7.394686440539908"><ele>345.0</ele><time>2026-04-19T16:27:30Z</time></trkpt><trkpt lat="45.08867118358678" lon="7.395047655957504"><ele>345.0</ele><time>2026-04-19T16:27:31Z</time></trkpt><trkpt lat="45.08865798675117" lon="7.395418797498933"><ele>344.0</ele><time>2026-04-19T16:27:32Z</time></trkpt><trkpt lat="45.08865219438175" lon="7.395808107598559"><ele>343.0</ele><time>2026-04-19T16:27:33Z</time></trkpt><trkpt lat="45.08864178312874" lon="7.396201523957625"><ele>343.0</ele><time>2026-04-19T16:27:34Z</time></trkpt><trkpt lat="45.088630689933716" lon="7.396607028782897"><ele>343.0</ele><time>2026-04-19T16:27:35Z</time></trkpt><trkpt lat="45.08861627816633" lon="7.397019460465697"><ele>344.0</ele><time>2026-04-19T16:27:36Z</time></trkpt><trkpt lat="45.08860591349801" lon="7.397437242057625"><ele>345.0</ele><time>2026-04-19T16:27:37Z</time></trkpt><trkpt lat="45.08859459026558" lon="7.397861731450615"><ele>345.0</ele><time>2026-04-19T16:27:38Z</time></trkpt><trkpt lat="45.08858555834227" lon="7.398269365364315"><ele>345.0</ele><time>2026-04-19T16:27:39Z</time></trkpt><trkpt lat="45.08857586270609" lon="7.398641957402375"><ele>344.5</ele><time>2026-04-19T16:27:40Z</time></trkpt><trkpt lat="45.08856188329473" lon="7.39898714938348"><ele>344.0</ele><time>2026-04-19T16:27:41Z</time></trkpt><trkpt lat="45.08853884397978" lon="7.3993242626096345"><ele>344.0</ele><time>2026-04-19T16:27:42Z</time></trkpt><trkpt lat="45.08850505319799" lon="7.399668695191239"><ele>344.0</ele><time>2026-04-19T16:27:43Z</time></trkpt><trkpt lat="45.0884638491029" lon="7.399991562516782"><ele>344.0</ele><time>2026-04-19T16:27:44Z</time></trkpt><trkpt lat="45.08839881045446" lon="7.400279421490871"><ele>344.0</ele><time>2026-04-19T16:27:45Z</time></trkpt><trkpt lat="45.08832673081042" lon="7.400539420281945"><ele>344.0</ele><time>2026-04-19T16:27:46Z</time></trkpt><trkpt lat="45.08825052200394" lon="7.40078221296755"><ele>343.6666666666667</ele><time>2026-04-19T16:27:47Z</time></trkpt><trkpt lat="45.08819196847143" lon="7.401007118429058"><ele>343.3333333333333</ele><time>2026-04-19T16:27:48Z</time></trkpt><trkpt lat="45.08812750689728" lon="7.4012005858664915"><ele>343.0</ele><time>2026-04-19T16:27:49Z</time></trkpt><trkpt lat="45.08807108030903" lon="7.401368890161445"><ele>342.8333333333333</ele><time>2026-04-19T16:27:50Z</time></trkpt><trkpt lat="45.08802461732756" lon="7.401508728334212"><ele>342.66666666666663</ele><time>2026-04-19T16:27:51Z</time></trkpt><trkpt lat="45.08798451587724" lon="7.401619902933169"><ele>342.5</ele><time>2026-04-19T16:27:52Z</time></trkpt><trkpt lat="45.08795271863843" lon="7.401696989686625"><ele>342.3333333333333</ele><time>2026-04-19T16:27:53Z</time></trkpt><trkpt lat="45.087910136915184" lon="7.401765169969892"><ele>342.1666666666667</ele><time>2026-04-19T16:27:55Z</time></trkpt><trkpt lat="45.087855023387576" lon="7.401872829691323"><ele>342.0</ele><time>2026-04-19T16:27:58Z</time></trkpt><trkpt lat="45.08778096784587" lon="7.401978809358576"><ele>342.0</ele><time>2026-04-19T16:28:00Z</time></trkpt><trkpt lat="45.08776075797687" lon="7.402144624207369"><ele>342.0</ele><time>2026-04-19T16:28:02Z</time></trkpt><trkpt lat="45.087761344027726" lon="7.402268972495827"><ele>342.0</ele><time>2026-04-19T16:28:03Z</time></trkpt><trkpt lat="45.08773697869363" lon="7.402420073822574"><ele>342.0</ele><time>2026-04-19T16:28:04Z</time></trkpt><trkpt lat="45.08768062242744" lon="7.402561700688993"><ele>342.0</ele><time>2026-04-19T16:28:05Z</time></trkpt><trkpt lat="45.08761967828604" lon="7.402724022498023"><ele>341.6666666666667</ele><time>2026-04-19T16:28:06Z</time></trkpt><trkpt lat="45.08755565382315" lon="7.402917234530682"><ele>341.33333333333337</ele><time>2026-04-19T16:28:07Z</time></trkpt><trkpt lat="45.08748134786462" lon="7.403117939953582"><ele>341.0</ele><time>2026-04-19T16:28:08Z</time></trkpt><trkpt lat="45.08740851459692" lon="7.403330621502353"><ele>341.0</ele><time>2026-04-19T16:28:09Z</time></trkpt><trkpt lat="45.08733541518331" lon="7.403542954202854"><ele>341.0</ele><time>2026-04-19T16:28:10Z</time></trkpt><trkpt lat="45.08725723298103" lon="7.403759047011629"><ele>341.0</ele><time>2026-04-19T16:28:11Z</time></trkpt><trkpt lat="45.08717762535334" lon="7.40398362078261"><ele>341.0</ele><time>2026-04-19T16:28:12Z</time></trkpt><trkpt lat="45.08709565175268" lon="7.404217953068087"><ele>341.0</ele><time>2026-04-19T16:28:13Z</time></trkpt><trkpt lat="45.08701371589586" lon="7.404451980975641"><ele>341.0</ele><time>2026-04-19T16:28:14Z</time></trkpt><trkpt lat="45.086934958074494" lon="7.404668678279386"><ele>340.6666666666667</ele><time>2026-04-19T16:28:15Z</time></trkpt><trkpt lat="45.08686189342194" lon="7.404883446911164"><ele>340.3333333333333</ele><time>2026-04-19T16:28:16Z</time></trkpt><trkpt lat="45.08678963569548" lon="7.405085109835155"><ele>340.0</ele><time>2026-04-19T16:28:17Z</time></trkpt><trkpt lat="45.08672556800308" lon="7.405268994643512"><ele>340.0</ele><time>2026-04-19T16:28:18Z</time></trkpt><trkpt lat="45.08666380677377" lon="7.405444926554935"><ele>340.0</ele><time>2026-04-19T16:28:19Z</time></trkpt><trkpt lat="45.08660240893055" lon="7.4056164591517835"><ele>340.0</ele><time>2026-04-19T16:28:20Z</time></trkpt><trkpt lat="45.08654108051258" lon="7.405791798429605"><ele>340.0</ele><time>2026-04-19T16:28:21Z</time></trkpt><trkpt lat="45.08648058402029" lon="7.405969065548752"><ele>340.0</ele><time>2026-04-19T16:28:22Z</time></trkpt><trkpt lat="45.08642933840157" lon="7.406139605660119"><ele>340.0</ele><time>2026-04-19T16:28:23Z</time></trkpt><trkpt lat="45.086387206341826" lon="7.4062998613063735"><ele>340.0</ele><time>2026-04-19T16:28:24Z</time></trkpt><trkpt lat="45.0863491666523" lon="7.406461386818011"><ele>340.0</ele><time>2026-04-19T16:28:25Z</time></trkpt><trkpt lat="45.086309543974124" lon="7.40662044109581"><ele>340.2</ele><time>2026-04-19T16:28:26Z</time></trkpt><trkpt lat="45.08627314176274" lon="7.406764365793648"><ele>340.4</ele><time>2026-04-19T16:28:27Z</time></trkpt><trkpt lat="45.08624217235039" lon="7.406894857661554"><ele>340.6</ele><time>2026-04-19T16:28:28Z</time></trkpt><trkpt lat="45.08621602180594" lon="7.4070114026346"><ele>340.8</ele><time>2026-04-19T16:28:29Z</time></trkpt><trkpt lat="45.0861900900502" lon="7.40712170776029"><ele>341.0</ele><time>2026-04-19T16:28:30Z</time></trkpt><trkpt lat="45.08616234133114" lon="7.407224022904192"><ele>341.0</ele><time>2026-04-19T16:28:31Z</time></trkpt><trkpt lat="45.08613469198155" lon="7.407311952712232"><ele>341.0</ele><time>2026-04-19T16:28:32Z</time></trkpt><trkpt lat="45.08605432818888" lon="7.4074572008415185"><ele>341.0</ele><time>2026-04-19T16:28:34Z</time></trkpt><trkpt lat="45.085995978556724" lon="7.407503120320689"><ele>341.0</ele><time>2026-04-19T16:28:35Z</time></trkpt><trkpt lat="45.08593637744376" lon="7.407549846476393"><ele>341.0</ele><time>2026-04-19T16:28:36Z</time></trkpt><trkpt lat="45.085853185439454" lon="7.407686543656208"><ele>341.0</ele><time>2026-04-19T16:28:38Z</time></trkpt><trkpt lat="45.085842498196925" lon="7.407796804707535"><ele>341.0</ele><time>2026-04-19T16:28:39Z</time></trkpt><trkpt lat="45.08585498749965" lon="7.40791237085929"><ele>341.0</ele><time>2026-04-19T16:28:40Z</time></trkpt><trkpt lat="45.08587805332247" lon="7.408007889936335"><ele>341.0</ele><time>2026-04-19T16:28:41Z</time></trkpt><trkpt lat="45.085905730272465" lon="7.40810652851547"><ele>341.0</ele><time>2026-04-19T16:28:42Z</time></trkpt><trkpt lat="45.08592346073293" lon="7.40822914390065"><ele>341.0</ele><time>2026-04-19T16:28:43Z</time></trkpt><trkpt lat="45.08591679234374" lon="7.408383747960007"><ele>341.0</ele><time>2026-04-19T16:28:44Z</time></trkpt><trkpt lat="45.08588082765429" lon="7.408547271109376"><ele>341.0</ele><time>2026-04-19T16:28:45Z</time></trkpt><trkpt lat="45.08584261368876" lon="7.408734260037955"><ele>341.0</ele><time>2026-04-19T16:28:46Z</time></trkpt><trkpt lat="45.08579711036342" lon="7.408964051186398"><ele>341.0</ele><time>2026-04-19T16:28:47Z</time></trkpt><trkpt lat="45.08573999159139" lon="7.409215621286397"><ele>340.0</ele><time>2026-04-19T16:28:48Z</time></trkpt><trkpt lat="45.08568185483938" lon="7.409468998753193"><ele>339.0</ele><time>2026-04-19T16:28:49Z</time></trkpt><trkpt lat="45.08562557935858" lon="7.409734216003568"><ele>338.0</ele><time>2026-04-19T16:28:50Z</time></trkpt><trkpt lat="45.08556645585887" lon="7.409977808695541"><ele>338.0</ele><time>2026-04-19T16:28:51Z</time></trkpt><trkpt lat="45.08551343033113" lon="7.410187467579665"><ele>338.0</ele><time>2026-04-19T16:28:52Z</time></trkpt><trkpt lat="45.08545780172793" lon="7.410394829008597"><ele>338.0</ele><time>2026-04-19T16:28:53Z</time></trkpt><trkpt lat="45.08539971841067" lon="7.410583046023828"><ele>338.25</ele><time>2026-04-19T16:28:54Z</time></trkpt><trkpt lat="45.08534166100683" lon="7.410770393325538"><ele>338.5</ele><time>2026-04-19T16:28:55Z</time></trkpt><trkpt lat="45.08528778069619" lon="7.410937752085055"><ele>338.75</ele><time>2026-04-19T16:28:56Z</time></trkpt><trkpt lat="45.085237361284236" lon="7.411087000106192"><ele>339.0</ele><time>2026-04-19T16:28:57Z</time></trkpt><trkpt lat="45.085192900295155" lon="7.411208490358381"><ele>339.0</ele><time>2026-04-19T16:28:58Z</time></trkpt><trkpt lat="45.08514548747699" lon="7.411319854310223"><ele>339.0</ele><time>2026-04-19T16:28:59Z</time></trkpt><trkpt lat="45.085106256958085" lon="7.411437552429735"><ele>339.0</ele><time>2026-04-19T16:29:00Z</time></trkpt><trkpt lat="45.08505146504534" lon="7.411541639701526"><ele>339.0</ele><time>2026-04-19T16:29:01Z</time></trkpt><trkpt lat="45.08500718459879" lon="7.411620546194617"><ele>339.0</ele><time>2026-04-19T16:29:02Z</time></trkpt><trkpt lat="45.084926233161944" lon="7.411715097778107"><ele>339.0</ele><time>2026-04-19T16:29:04Z</time></trkpt><trkpt lat="45.08483466798664" lon="7.411789526679284"><ele>339.0</ele><time>2026-04-19T16:29:06Z</time></trkpt><trkpt lat="45.08475714763439" lon="7.411831344750452"><ele>339.0</ele><time>2026-04-19T16:29:07Z</time></trkpt><trkpt lat="45.08465817796029" lon="7.41187518368577"><ele>339.0</ele><time>2026-04-19T16:29:08Z</time></trkpt><trkpt lat="45.084570153250816" lon="7.411948743506066"><ele>339.0</ele><time>2026-04-19T16:29:09Z</time></trkpt><trkpt lat="45.08450840709575" lon="7.41204444441869"><ele>339.0</ele><time>2026-04-19T16:29:10Z</time></trkpt><trkpt lat="45.08446087287958" lon="7.412172497601979"><ele>339.0</ele><time>2026-04-19T16:29:11Z</time></trkpt><trkpt lat="45.08444414814463" lon="7.412284189074782"><ele>339.0</ele><time>2026-04-19T16:29:12Z</time></trkpt><trkpt lat="45.08444269417778" lon="7.412379355751277"><ele>339.0</ele><time>2026-04-19T16:29:13Z</time></trkpt><trkpt lat="45.084454825377975" lon="7.412552973914259"><ele>339.0</ele><time>2026-04-19T16:29:15Z</time></trkpt><trkpt lat="45.08448145284367" lon="7.412653375368118"><ele>339.0</ele><time>2026-04-19T16:29:16Z</time></trkpt><trkpt lat="45.084518325534475" lon="7.412765907883434"><ele>339.0</ele><time>2026-04-19T16:29:17Z</time></trkpt><trkpt lat="45.084577240011214" lon="7.4128771921239"><ele>339.0</ele><time>2026-04-19T16:29:18Z</time></trkpt><trkpt lat="45.08454423793538" lon="7.413084080624421"><ele>339.0</ele><time>2026-04-19T16:29:19Z</time></trkpt><trkpt lat="45.08452232092527" lon="7.413293683756"><ele>339.0</ele><time>2026-04-19T16:29:20Z</time></trkpt><trkpt lat="45.08440929983764" lon="7.413500616283317"><ele>339.6666666666667</ele><time>2026-04-19T16:29:21Z</time></trkpt><trkpt lat="45.084317137385156" lon="7.413743220910917"><ele>340.33333333333337</ele><time>2026-04-19T16:29:22Z</time></trkpt><trkpt lat="45.08422029625266" lon="7.414017711645588"><ele>341.0</ele><time>2026-04-19T16:29:23Z</time></trkpt><trkpt lat="45.08412207581447" lon="7.414285482596277"><ele>341.33333333333337</ele><time>2026-04-19T16:29:24Z</time></trkpt><trkpt lat="45.084023883336684" lon="7.414552171761368"><ele>341.6666666666667</ele><time>2026-04-19T16:29:25Z</time></trkpt><trkpt lat="45.08392844510776" lon="7.414811126071697"><ele>342.0</ele><time>2026-04-19T16:29:26Z</time></trkpt><trkpt lat="45.08382747958113" lon="7.415086893842653"><ele>341.0</ele><time>2026-04-19T16:29:27Z</time></trkpt><trkpt lat="45.08373145221522" lon="7.415387779708953"><ele>340.0</ele><time>2026-04-19T16:29:28Z</time></trkpt><trkpt lat="45.083638338383814" lon="7.415688416614787"><ele>340.0</ele><time>2026-04-19T16:29:29Z</time></trkpt><trkpt lat="45.08353820985973" lon="7.4159526595524925"><ele>340.0</ele><time>2026-04-19T16:29:30Z</time></trkpt><trkpt lat="45.083423170261035" lon="7.4162108715949095"><ele>340.0</ele><time>2026-04-19T16:29:31Z</time></trkpt><trkpt lat="45.0833144021992" lon="7.416501381332334"><ele>340.0</ele><time>2026-04-19T16:29:32Z</time></trkpt><trkpt lat="45.08321695108471" lon="7.416813554334549"><ele>340.0</ele><time>2026-04-19T16:29:33Z</time></trkpt><trkpt lat="45.08311208334792" lon="7.417131639142341"><ele>340.5</ele><time>2026-04-19T16:29:34Z</time></trkpt><trkpt lat="45.08304729959773" lon="7.417474768371972"><ele>341.0</ele><time>2026-04-19T16:29:35Z</time></trkpt><trkpt lat="45.08302600270169" lon="7.4178023220379"><ele>341.0</ele><time>2026-04-19T16:29:36Z</time></trkpt><trkpt lat="45.08302278021062" lon="7.418083192765181"><ele>341.0</ele><time>2026-04-19T16:29:37Z</time></trkpt><trkpt lat="45.0830243030918" lon="7.418327868032267"><ele>341.0</ele><time>2026-04-19T16:29:38Z</time></trkpt><trkpt lat="45.08302841449727" lon="7.418557822160321"><ele>341.0</ele><time>2026-04-19T16:29:39Z</time></trkpt><trkpt lat="45.08301688484919" lon="7.418753898880516"><ele>341.0</ele><time>2026-04-19T16:29:40Z</time></trkpt><trkpt lat="45.082984666012486" lon="7.418918037568382"><ele>341.0</ele><time>2026-04-19T16:29:41Z</time></trkpt><trkpt lat="45.08291497340298" lon="7.419055892594926"><ele>341.0</ele><time>2026-04-19T16:29:42Z</time></trkpt><trkpt lat="45.082816846430504" lon="7.4191866349556985"><ele>341.0</ele><time>2026-04-19T16:29:43Z</time></trkpt><trkpt lat="45.082774000488065" lon="7.41936986441363"><ele>341.0</ele><time>2026-04-19T16:29:44Z</time></trkpt><trkpt lat="45.082802309715085" lon="7.41957566063522"><ele>341.0</ele><time>2026-04-19T16:29:45Z</time></trkpt><trkpt lat="45.08289465600298" lon="7.419740528067359"><ele>341.0</ele><time>2026-04-19T16:29:46Z</time></trkpt><trkpt lat="45.08300767361229" lon="7.419878986940235"><ele>340.25</ele><time>2026-04-19T16:29:47Z</time></trkpt><trkpt lat="45.08308185322093" lon="7.420039753578966"><ele>339.5</ele><time>2026-04-19T16:29:48Z</time></trkpt><trkpt lat="45.083111252408834" lon="7.420229509814935"><ele>338.75</ele><time>2026-04-19T16:29:49Z</time></trkpt><trkpt lat="45.08309695801889" lon="7.4204532926064"><ele>338.0</ele><time>2026-04-19T16:29:50Z</time></trkpt><trkpt lat="45.08310406586554" lon="7.420706708263341"><ele>338.0</ele><time>2026-04-19T16:29:51Z</time></trkpt><trkpt lat="45.083111725891975" lon="7.420984102439321"><ele>338.0</ele><time>2026-04-19T16:29:52Z</time></trkpt><trkpt lat="45.08311926027754" lon="7.421256947161894"><ele>338.0</ele><time>2026-04-19T16:29:53Z</time></trkpt><trkpt lat="45.0831271052039" lon="7.421541037471605"><ele>338.0</ele><time>2026-04-19T16:29:54Z</time></trkpt><trkpt lat="45.08313485321866" lon="7.421821618177932"><ele>338.0</ele><time>2026-04-19T16:29:55Z</time></trkpt><trkpt lat="45.08314177275296" lon="7.422072197133625"><ele>338.0</ele><time>2026-04-19T16:29:56Z</time></trkpt><trkpt lat="45.08314864354344" lon="7.422321006239037"><ele>338.33333333333337</ele><time>2026-04-19T16:29:57Z</time></trkpt><trkpt lat="45.08315635087594" lon="7.422585799376043"><ele>338.6666666666667</ele><time>2026-04-19T16:29:58Z</time></trkpt><trkpt lat="45.08316388707075" lon="7.422847352559067"><ele>339.0</ele><time>2026-04-19T16:29:59Z</time></trkpt><trkpt lat="45.08317071095881" lon="7.423104316086233"><ele>339.3333333333333</ele><time>2026-04-19T16:30:00Z</time></trkpt><trkpt lat="45.083177247929754" lon="7.423352963076671"><ele>339.66666666666663</ele><time>2026-04-19T16:30:01Z</time></trkpt><trkpt lat="45.08318347935947" lon="7.423589988255049"><ele>340.0</ele><time>2026-04-19T16:30:02Z</time></trkpt><trkpt lat="45.08319044221819" lon="7.423823502990157"><ele>340.0</ele><time>2026-04-19T16:30:03Z</time></trkpt><trkpt lat="45.08319698005242" lon="7.424057790423505"><ele>340.0</ele><time>2026-04-19T16:30:04Z</time></trkpt><trkpt lat="45.083203078206026" lon="7.42430957316113"><ele>340.0</ele><time>2026-04-19T16:30:05Z</time></trkpt><trkpt lat="45.08321001152939" lon="7.424563134706016"><ele>340.3333333333333</ele><time>2026-04-19T16:30:06Z</time></trkpt><trkpt lat="45.08321697123148" lon="7.424817659209486"><ele>340.6666666666667</ele><time>2026-04-19T16:30:07Z</time></trkpt><trkpt lat="45.08322402896833" lon="7.425073008047878"><ele>341.0</ele><time>2026-04-19T16:30:08Z</time></trkpt><trkpt lat="45.08323024893723" lon="7.425308099947949"><ele>341.33333333333337</ele><time>2026-04-19T16:30:09Z</time></trkpt><trkpt lat="45.0832628958844" lon="7.425533013952436"><ele>341.6666666666667</ele><time>2026-04-19T16:30:10Z</time></trkpt><trkpt lat="45.08326387015169" lon="7.425748381247686"><ele>342.0</ele><time>2026-04-19T16:30:11Z</time></trkpt><trkpt lat="45.083269109681865" lon="7.425960128363579"><ele>342.0</ele><time>2026-04-19T16:30:12Z</time></trkpt><trkpt lat="45.083274616241965" lon="7.42617409121968"><ele>342.0</ele><time>2026-04-19T16:30:13Z</time></trkpt><trkpt lat="45.083284406155165" lon="7.426398893335709"><ele>342.0</ele><time>2026-04-19T16:30:14Z</time></trkpt><trkpt lat="45.0832906124322" lon="7.426633450793893"><ele>341.75</ele><time>2026-04-19T16:30:15Z</time></trkpt><trkpt lat="45.08327309300592" lon="7.4268623105980245"><ele>341.5</ele><time>2026-04-19T16:30:16Z</time></trkpt><trkpt lat="45.083278525332624" lon="7.4270628260542555"><ele>341.25</ele><time>2026-04-19T16:30:17Z</time></trkpt><trkpt lat="45.08328380413823" lon="7.4272549942958905"><ele>341.0</ele><time>2026-04-19T16:30:18Z</time></trkpt><trkpt lat="45.08328843226782" lon="7.4274234753690624"><ele>340.8</ele><time>2026-04-19T16:30:19Z</time></trkpt><trkpt lat="45.08329261624033" lon="7.427577502896976"><ele>340.6</ele><time>2026-04-19T16:30:20Z</time></trkpt><trkpt lat="45.08329664849091" lon="7.427726042936586"><ele>340.4</ele><time>2026-04-19T16:30:21Z</time></trkpt><trkpt lat="45.08330042746045" lon="7.427865252785954"><ele>340.2</ele><time>2026-04-19T16:30:22Z</time></trkpt><trkpt lat="45.083304649988015" lon="7.4280208024661825"><ele>340.0</ele><time>2026-04-19T16:30:23Z</time></trkpt><trkpt lat="45.08330916997484" lon="7.428187309804123"><ele>339.75</ele><time>2026-04-19T16:30:24Z</time></trkpt><trkpt lat="45.08331415822017" lon="7.4283710666601355"><ele>339.5</ele><time>2026-04-19T16:30:25Z</time></trkpt><trkpt lat="45.08331950226196" lon="7.428565402832665"><ele>339.25</ele><time>2026-04-19T16:30:26Z</time></trkpt><trkpt lat="45.08332532052524" lon="7.428773696648797"><ele>339.0</ele><time>2026-04-19T16:30:27Z</time></trkpt><trkpt lat="45.08333154967264" lon="7.4289966999080335"><ele>339.0</ele><time>2026-04-19T16:30:28Z</time></trkpt><trkpt lat="45.08333813576408" lon="7.429232482195936"><ele>339.0</ele><time>2026-04-19T16:30:29Z</time></trkpt><trkpt lat="45.08336054467901" lon="7.429461760231078"><ele>339.0</ele><time>2026-04-19T16:30:30Z</time></trkpt><trkpt lat="45.083366360031754" lon="7.429701286288466"><ele>339.0</ele><time>2026-04-19T16:30:31Z</time></trkpt><trkpt lat="45.083371360158296" lon="7.429946384347607"><ele>339.0</ele><time>2026-04-19T16:30:32Z</time></trkpt><trkpt lat="45.083380231882586" lon="7.430191892352975"><ele>339.0</ele><time>2026-04-19T16:30:33Z</time></trkpt><trkpt lat="45.08338402933646" lon="7.4304366578011685"><ele>339.0</ele><time>2026-04-19T16:30:34Z</time></trkpt><trkpt lat="45.08339290996979" lon="7.430670130171207"><ele>339.0</ele><time>2026-04-19T16:30:35Z</time></trkpt><trkpt lat="45.08339968363777" lon="7.430909811292759"><ele>339.0</ele><time>2026-04-19T16:30:36Z</time></trkpt><trkpt lat="45.083404333519326" lon="7.431156051498972"><ele>339.3333333333333</ele><time>2026-04-19T16:30:37Z</time></trkpt><trkpt lat="45.083396101213516" lon="7.431395726175252"><ele>339.66666666666663</ele><time>2026-04-19T16:30:38Z</time></trkpt><trkpt lat="45.08340289843325" lon="7.431642839754176"><ele>340.0</ele><time>2026-04-19T16:30:39Z</time></trkpt><trkpt lat="45.083429789482985" lon="7.431884778299308"><ele>340.0</ele><time>2026-04-19T16:30:40Z</time></trkpt><trkpt lat="45.083433811815205" lon="7.432123198181606"><ele>340.0</ele><time>2026-04-19T16:30:41Z</time></trkpt><trkpt lat="45.08343583493584" lon="7.432359713048292"><ele>340.0</ele><time>2026-04-19T16:30:42Z</time></trkpt><trkpt lat="45.08343984769739" lon="7.432587829568974"><ele>339.66666666666663</ele><time>2026-04-19T16:30:43Z</time></trkpt><trkpt lat="45.08344702889334" lon="7.4328279215081485"><ele>339.3333333333333</ele><time>2026-04-19T16:30:44Z</time></trkpt><trkpt lat="45.083456118801095" lon="7.433078539694616"><ele>339.0</ele><time>2026-04-19T16:30:45Z</time></trkpt><trkpt lat="45.08346208620327" lon="7.433319078263476"><ele>339.0</ele><time>2026-04-19T16:30:46Z</time></trkpt><trkpt lat="45.083467430882436" lon="7.433537720993323"><ele>339.0</ele><time>2026-04-19T16:30:47Z</time></trkpt><trkpt lat="45.08347382555507" lon="7.433746280821529"><ele>339.0</ele><time>2026-04-19T16:30:48Z</time></trkpt><trkpt lat="45.08348008814371" lon="7.433942381306265"><ele>339.0</ele><time>2026-04-19T16:30:49Z</time></trkpt><trkpt lat="45.083469595091124" lon="7.43412508700547"><ele>339.0</ele><time>2026-04-19T16:30:50Z</time></trkpt><trkpt lat="45.08348827857269" lon="7.434307455630348"><ele>339.0</ele><time>2026-04-19T16:30:51Z</time></trkpt><trkpt lat="45.08349433061809" lon="7.434511185734972"><ele>339.0</ele><time>2026-04-19T16:30:52Z</time></trkpt><trkpt lat="45.08349738283569" lon="7.434707290585825"><ele>339.0</ele><time>2026-04-19T16:30:53Z</time></trkpt><trkpt lat="45.08350184421545" lon="7.434912061402423"><ele>339.3333333333333</ele><time>2026-04-19T16:30:54Z</time></trkpt><trkpt lat="45.083502829109314" lon="7.435119008041336"><ele>339.66666666666663</ele><time>2026-04-19T16:30:55Z</time></trkpt><trkpt lat="45.083503648887195" lon="7.43533629848563"><ele>340.0</ele><time>2026-04-19T16:30:56Z</time></trkpt><trkpt lat="45.08350728787479" lon="7.435551990945698"><ele>338.66666666666663</ele><time>2026-04-19T16:30:57Z</time></trkpt><trkpt lat="45.08350772248762" lon="7.435767389952423"><ele>337.3333333333333</ele><time>2026-04-19T16:30:58Z</time></trkpt><trkpt lat="45.08351161364074" lon="7.43599222576542"><ele>336.0</ele><time>2026-04-19T16:30:59Z</time></trkpt><trkpt lat="45.08351285449745" lon="7.43622158062342"><ele>336.3333333333333</ele><time>2026-04-19T16:31:00Z</time></trkpt><trkpt lat="45.0835157686369" lon="7.436468244564325"><ele>336.66666666666663</ele><time>2026-04-19T16:31:01Z</time></trkpt><trkpt lat="45.083520900160266" lon="7.436728775789967"><ele>337.0</ele><time>2026-04-19T16:31:02Z</time></trkpt><trkpt lat="45.08352925554873" lon="7.437007828759715"><ele>336.66666666666663</ele><time>2026-04-19T16:31:03Z</time></trkpt><trkpt lat="45.08353695228645" lon="7.437300963140551"><ele>336.3333333333333</ele><time>2026-04-19T16:31:04Z</time></trkpt><trkpt lat="45.0835427740624" lon="7.437607314340773"><ele>336.0</ele><time>2026-04-19T16:31:05Z</time></trkpt><trkpt lat="45.083547485643905" lon="7.437914097240858"><ele>336.0</ele><time>2026-04-19T16:31:06Z</time></trkpt><trkpt lat="45.08355474456271" lon="7.438236302847353"><ele>336.0</ele><time>2026-04-19T16:31:07Z</time></trkpt><trkpt lat="45.08356273495047" lon="7.438603022461211"><ele>336.0</ele><time>2026-04-19T16:31:08Z</time></trkpt><trkpt lat="45.0835750558746" lon="7.439033369893336"><ele>336.0</ele><time>2026-04-19T16:31:09Z</time></trkpt><trkpt lat="45.08358667958211" lon="7.439485008914289"><ele>336.0</ele><time>2026-04-19T16:31:10Z</time></trkpt><trkpt lat="45.083600911078875" lon="7.440013427236214"><ele>336.0</ele><time>2026-04-19T16:31:11Z</time></trkpt><trkpt lat="45.083613919002204" lon="7.440584458934685"><ele>336.0</ele><time>2026-04-19T16:31:12Z</time></trkpt><trkpt lat="45.08362869089475" lon="7.4411802725927485"><ele>336.0</ele><time>2026-04-19T16:31:13Z</time></trkpt><trkpt lat="45.08364573242189" lon="7.441804435070402"><ele>335.5</ele><time>2026-04-19T16:31:14Z</time></trkpt><trkpt lat="45.083660362196035" lon="7.442389280353751"><ele>335.0</ele><time>2026-04-19T16:31:15Z</time></trkpt><trkpt lat="45.08367169809455" lon="7.442912127191325"><ele>334.5</ele><time>2026-04-19T16:31:16Z</time></trkpt><trkpt lat="45.08368226743782" lon="7.443396988823534"><ele>334.0</ele><time>2026-04-19T16:31:17Z</time></trkpt><trkpt lat="45.083690766186656" lon="7.44390780292256"><ele>333.5</ele><time>2026-04-19T16:31:18Z</time></trkpt><trkpt lat="45.08369745724805" lon="7.444413432814739"><ele>333.0</ele><time>2026-04-19T16:31:19Z</time></trkpt><trkpt lat="45.08369827754996" lon="7.44486477356494"><ele>333.0</ele><time>2026-04-19T16:31:20Z</time></trkpt><trkpt lat="45.083709598295826" lon="7.445270714840808"><ele>333.0</ele><time>2026-04-19T16:31:21Z</time></trkpt><trkpt lat="45.08372872520157" lon="7.445627037604666"><ele>333.0</ele><time>2026-04-19T16:31:22Z</time></trkpt><trkpt lat="45.083748363349315" lon="7.445925668640463"><ele>333.0</ele><time>2026-04-19T16:31:23Z</time></trkpt><trkpt lat="45.08376928502218" lon="7.446193209513483"><ele>333.0</ele><time>2026-04-19T16:31:24Z</time></trkpt><trkpt lat="45.08379144659004" lon="7.446447232490112"><ele>333.0</ele><time>2026-04-19T16:31:25Z</time></trkpt><trkpt lat="45.083814983066006" lon="7.446694711329697"><ele>333.0</ele><time>2026-04-19T16:31:26Z</time></trkpt><trkpt lat="45.083836377407145" lon="7.446926153622176"><ele>333.0</ele><time>2026-04-19T16:31:27Z</time></trkpt><trkpt lat="45.08385470992133" lon="7.44714216055045"><ele>333.25</ele><time>2026-04-19T16:31:28Z</time></trkpt><trkpt lat="45.08387053080941" lon="7.447347738838965"><ele>333.5</ele><time>2026-04-19T16:31:29Z</time></trkpt><trkpt lat="45.08388897751407" lon="7.447547191257547"><ele>333.75</ele><time>2026-04-19T16:31:30Z</time></trkpt><trkpt lat="45.083912179480876" lon="7.447764554166024"><ele>334.0</ele><time>2026-04-19T16:31:31Z</time></trkpt><trkpt lat="45.083936603375875" lon="7.448001895433175"><ele>335.0</ele><time>2026-04-19T16:31:32Z</time></trkpt><trkpt lat="45.083947037724165" lon="7.448213865206493"><ele>336.0</ele><time>2026-04-19T16:31:33Z</time></trkpt><trkpt lat="45.08393566891459" lon="7.448352537504829"><ele>337.0</ele><time>2026-04-19T16:31:34Z</time></trkpt><trkpt lat="45.083920859715754" lon="7.448509187850317"><ele>338.0</ele><time>2026-04-19T16:31:35Z</time></trkpt><trkpt lat="45.08391176655913" lon="7.448670296295237"><ele>337.5</ele><time>2026-04-19T16:31:36Z</time></trkpt><trkpt lat="45.08394381642653" lon="7.448855733052867"><ele>337.0</ele><time>2026-04-19T16:31:37Z</time></trkpt><trkpt lat="45.08397599699426" lon="7.44905049265596"><ele>336.5</ele><time>2026-04-19T16:31:38Z</time></trkpt><trkpt lat="45.083987015405775" lon="7.44926001757991"><ele>336.0</ele><time>2026-04-19T16:31:39Z</time></trkpt><trkpt lat="45.083989002335194" lon="7.449499064225257"><ele>335.6666666666667</ele><time>2026-04-19T16:31:40Z</time></trkpt><trkpt lat="45.083992042200464" lon="7.44977527966049"><ele>335.33333333333337</ele><time>2026-04-19T16:31:41Z</time></trkpt><trkpt lat="45.08399209218206" lon="7.450091002154417"><ele>335.0</ele><time>2026-04-19T16:31:42Z</time></trkpt><trkpt lat="45.08398209602398" lon="7.450453256802379"><ele>334.5</ele><time>2026-04-19T16:31:43Z</time></trkpt><trkpt lat="45.0839717434761" lon="7.450851408681528"><ele>334.0</ele><time>2026-04-19T16:31:44Z</time></trkpt><trkpt lat="45.08397030434986" lon="7.451289503036923"><ele>334.0</ele><time>2026-04-19T16:31:45Z</time></trkpt><trkpt lat="45.083967816542945" lon="7.451757649804619"><ele>334.0</ele><time>2026-04-19T16:31:46Z</time></trkpt><trkpt lat="45.083965413465044" lon="7.452282323538414"><ele>334.0</ele><time>2026-04-19T16:31:47Z</time></trkpt><trkpt lat="45.08396453553848" lon="7.45283063536179"><ele>334.0</ele><time>2026-04-19T16:31:48Z</time></trkpt><trkpt lat="45.083977373194166" lon="7.453414710228653"><ele>333.0</ele><time>2026-04-19T16:31:49Z</time></trkpt><trkpt lat="45.08400250656367" lon="7.454038658756977"><ele>332.0</ele><time>2026-04-19T16:31:50Z</time></trkpt><trkpt lat="45.0840196145457" lon="7.454688763545041"><ele>330.0</ele><time>2026-04-19T16:31:51Z</time></trkpt><trkpt lat="45.08403811377782" lon="7.455344500007964"><ele>331.0</ele><time>2026-04-19T16:31:52Z</time></trkpt><trkpt lat="45.08405711685604" lon="7.4560122187655535"><ele>330.0</ele><time>2026-04-19T16:31:53Z</time></trkpt><trkpt lat="45.08406729646929" lon="7.456682019376889"><ele>329.5</ele><time>2026-04-19T16:31:54Z</time></trkpt><trkpt lat="45.08409211012071" lon="7.4572957374235544"><ele>329.0</ele><time>2026-04-19T16:31:55Z</time></trkpt><trkpt lat="45.084105330844864" lon="7.457844008103011"><ele>328.5</ele><time>2026-04-19T16:31:56Z</time></trkpt><trkpt lat="45.08411978854653" lon="7.4583565180759415"><ele>328.0</ele><time>2026-04-19T16:31:57Z</time></trkpt><trkpt lat="45.08413460199841" lon="7.458833120471461"><ele>327.5</ele><time>2026-04-19T16:31:58Z</time></trkpt><trkpt lat="45.084146853973955" lon="7.4592850110900795"><ele>327.0</ele><time>2026-04-19T16:31:59Z</time></trkpt><trkpt lat="45.084157107251755" lon="7.459712206563285"><ele>327.0</ele><time>2026-04-19T16:32:00Z</time></trkpt><trkpt lat="45.084163591156546" lon="7.460112004545597"><ele>327.0</ele><time>2026-04-19T16:32:01Z</time></trkpt><trkpt lat="45.084170686355115" lon="7.460480891471235"><ele>327.0</ele><time>2026-04-19T16:32:02Z</time></trkpt><trkpt lat="45.084180924685334" lon="7.460811433970118"><ele>327.0</ele><time>2026-04-19T16:32:03Z</time></trkpt><trkpt lat="45.084190145760736" lon="7.461109235755971"><ele>327.0</ele><time>2026-04-19T16:32:04Z</time></trkpt><trkpt lat="45.0841975519679" lon="7.461378766155197"><ele>327.3333333333333</ele><time>2026-04-19T16:32:05Z</time></trkpt><trkpt lat="45.08420009074209" lon="7.461625503552432"><ele>327.66666666666663</ele><time>2026-04-19T16:32:06Z</time></trkpt><trkpt lat="45.084196499766" lon="7.461852500717029"><ele>328.0</ele><time>2026-04-19T16:32:07Z</time></trkpt><trkpt lat="45.08417937953582" lon="7.462073933539323"><ele>328.3333333333333</ele><time>2026-04-19T16:32:08Z</time></trkpt><trkpt lat="45.08413392543854" lon="7.462281591262742"><ele>328.6666666666667</ele><time>2026-04-19T16:32:09Z</time></trkpt><trkpt lat="45.08409069196174" lon="7.462486498034747"><ele>329.0</ele><time>2026-04-19T16:32:10Z</time></trkpt><trkpt lat="45.08408506618439" lon="7.462703697748333"><ele>329.0</ele><time>2026-04-19T16:32:11Z</time></trkpt><trkpt lat="45.084138923319145" lon="7.462934642748783"><ele>329.0</ele><time>2026-04-19T16:32:12Z</time></trkpt><trkpt lat="45.08422760576391" lon="7.46317083313875"><ele>329.0</ele><time>2026-04-19T16:32:13Z</time></trkpt><trkpt lat="45.08427411440106" lon="7.4634574555634146"><ele>329.5</ele><time>2026-04-19T16:32:14Z</time></trkpt><trkpt lat="45.08429356150479" lon="7.463779239579216"><ele>330.0</ele><time>2026-04-19T16:32:15Z</time></trkpt><trkpt lat="45.08430458992466" lon="7.464125245327283"><ele>331.0</ele><time>2026-04-19T16:32:16Z</time></trkpt><trkpt lat="45.08431287062802" lon="7.464502240647004"><ele>332.0</ele><time>2026-04-19T16:32:17Z</time></trkpt><trkpt lat="45.08432245647858" lon="7.464902546473191"><ele>332.0</ele><time>2026-04-19T16:32:18Z</time></trkpt><trkpt lat="45.084332325436364" lon="7.465321825018627"><ele>332.0</ele><time>2026-04-19T16:32:19Z</time></trkpt><trkpt lat="45.08434654064485" lon="7.4657460798764275"><ele>332.0</ele><time>2026-04-19T16:32:20Z</time></trkpt><trkpt lat="45.08436085093838" lon="7.4661702804074075"><ele>332.0</ele><time>2026-04-19T16:32:21Z</time></trkpt><trkpt lat="45.084371378952135" lon="7.466591513570195"><ele>332.0</ele><time>2026-04-19T16:32:22Z</time></trkpt><trkpt lat="45.08438066071832" lon="7.467020599889904"><ele>332.0</ele><time>2026-04-19T16:32:23Z</time></trkpt><trkpt lat="45.08439099820614" lon="7.4674483005552625"><ele>332.0</ele><time>2026-04-19T16:32:24Z</time></trkpt><trkpt lat="45.08440054655666" lon="7.4678719937542954"><ele>332.0</ele><time>2026-04-19T16:32:25Z</time></trkpt><trkpt lat="45.08441330176922" lon="7.468281625702116"><ele>332.0</ele><time>2026-04-19T16:32:26Z</time></trkpt><trkpt lat="45.084424207593294" lon="7.468665411039012"><ele>332.0</ele><time>2026-04-19T16:32:27Z</time></trkpt><trkpt lat="45.08443466282238" lon="7.469043266090945"><ele>332.0</ele><time>2026-04-19T16:32:28Z</time></trkpt><trkpt lat="45.08444601312247" lon="7.469423261846645"><ele>332.0</ele><time>2026-04-19T16:32:29Z</time></trkpt><trkpt lat="45.08445645991221" lon="7.469798265244874"><ele>330.5</ele><time>2026-04-19T16:32:30Z</time></trkpt><trkpt lat="45.08446630846465" lon="7.47016567372298"><ele>329.0</ele><time>2026-04-19T16:32:31Z</time></trkpt><trkpt lat="45.0844770007853" lon="7.47052959729128"><ele>329.0</ele><time>2026-04-19T16:32:32Z</time></trkpt><trkpt lat="45.084487039406845" lon="7.4708946978265445"><ele>329.0</ele><time>2026-04-19T16:32:33Z</time></trkpt><trkpt lat="45.084495662577524" lon="7.471262541046746"><ele>329.5</ele><time>2026-04-19T16:32:34Z</time></trkpt><trkpt lat="45.08450591931099" lon="7.471631212478772"><ele>330.0</ele><time>2026-04-19T16:32:35Z</time></trkpt><trkpt lat="45.08451827686885" lon="7.472006437132758"><ele>330.5</ele><time>2026-04-19T16:32:36Z</time></trkpt><trkpt lat="45.084528709547094" lon="7.472387697309984"><ele>331.0</ele><time>2026-04-19T16:32:37Z</time></trkpt><trkpt lat="45.084540007865144" lon="7.4727679251530725"><ele>331.5</ele><time>2026-04-19T16:32:38Z</time></trkpt><trkpt lat="45.084549953809464" lon="7.473156789993105"><ele>332.0</ele><time>2026-04-19T16:32:39Z</time></trkpt><trkpt lat="45.08456219808027" lon="7.473541521250057"><ele>331.5</ele><time>2026-04-19T16:32:40Z</time></trkpt><trkpt lat="45.08457371330122" lon="7.473920349610164"><ele>331.0</ele><time>2026-04-19T16:32:41Z</time></trkpt><trkpt lat="45.08457569451366" lon="7.47429881995652"><ele>330.5</ele><time>2026-04-19T16:32:42Z</time></trkpt><trkpt lat="45.08458815823193" lon="7.474707109799272"><ele>330.0</ele><time>2026-04-19T16:32:43Z</time></trkpt><trkpt lat="45.084603983449355" lon="7.47509782381068"><ele>330.5</ele><time>2026-04-19T16:32:44Z</time></trkpt><trkpt lat="45.08461613476819" lon="7.475494139723867"><ele>331.0</ele><time>2026-04-19T16:32:45Z</time></trkpt><trkpt lat="45.084626908699754" lon="7.475890279073271"><ele>332.0</ele><time>2026-04-19T16:32:46Z</time></trkpt><trkpt lat="45.0846332359756" lon="7.476301719312622"><ele>333.0</ele><time>2026-04-19T16:32:47Z</time></trkpt><trkpt lat="45.084640553909914" lon="7.4767082174706285"><ele>332.5</ele><time>2026-04-19T16:32:48Z</time></trkpt><trkpt lat="45.084651283376246" lon="7.47712200592449"><ele>332.0</ele><time>2026-04-19T16:32:49Z</time></trkpt><trkpt lat="45.0846648816809" lon="7.477533203554063"><ele>332.5</ele><time>2026-04-19T16:32:50Z</time></trkpt><trkpt lat="45.08467436874779" lon="7.477947830170143"><ele>333.0</ele><time>2026-04-19T16:32:51Z</time></trkpt><trkpt lat="45.0846884659121" lon="7.478358917821231"><ele>333.5</ele><time>2026-04-19T16:32:52Z</time></trkpt><trkpt lat="45.0847030450209" lon="7.478789262208553"><ele>334.0</ele><time>2026-04-19T16:32:53Z</time></trkpt><trkpt lat="45.084718922002146" lon="7.479225796446135"><ele>333.5</ele><time>2026-04-19T16:32:54Z</time></trkpt><trkpt lat="45.084730338259334" lon="7.479650768166668"><ele>333.0</ele><time>2026-04-19T16:32:55Z</time></trkpt><trkpt lat="45.084737123919176" lon="7.480027097655375"><ele>333.0</ele><time>2026-04-19T16:32:56Z</time></trkpt><trkpt lat="45.084746644964646" lon="7.480379589618781"><ele>333.0</ele><time>2026-04-19T16:32:57Z</time></trkpt><trkpt lat="45.084756448208275" lon="7.480691198059388"><ele>333.0</ele><time>2026-04-19T16:32:58Z</time></trkpt><trkpt lat="45.08476134274686" lon="7.480963740143925"><ele>333.0</ele><time>2026-04-19T16:32:59Z</time></trkpt><trkpt lat="45.08476171338714" lon="7.481192959059195"><ele>333.0</ele><time>2026-04-19T16:33:00Z</time></trkpt><trkpt lat="45.084749848186746" lon="7.481403466107637"><ele>332.5</ele><time>2026-04-19T16:33:01Z</time></trkpt><trkpt lat="45.0846892115903" lon="7.481592736690003"><ele>332.0</ele><time>2026-04-19T16:33:02Z</time></trkpt><trkpt lat="45.08461088877499" lon="7.481761946354466"><ele>331.5</ele><time>2026-04-19T16:33:03Z</time></trkpt><trkpt lat="45.08461888222902" lon="7.481971501323994"><ele>331.0</ele><time>2026-04-19T16:33:04Z</time></trkpt><trkpt lat="45.084681793628306" lon="7.482228620117293"><ele>330.5</ele><time>2026-04-19T16:33:05Z</time></trkpt><trkpt lat="45.084740667568326" lon="7.482514723422903"><ele>330.0</ele><time>2026-04-19T16:33:06Z</time></trkpt><trkpt lat="45.08477629584741" lon="7.4828516717441405"><ele>330.5</ele><time>2026-04-19T16:33:07Z</time></trkpt><trkpt lat="45.0847945251274" lon="7.483210760081354"><ele>331.0</ele><time>2026-04-19T16:33:08Z</time></trkpt><trkpt lat="45.084801921834064" lon="7.483593431933915"><ele>332.5</ele><time>2026-04-19T16:33:09Z</time></trkpt><trkpt lat="45.084808532636636" lon="7.483999035408367"><ele>334.0</ele><time>2026-04-19T16:33:10Z</time></trkpt><trkpt lat="45.08481297115617" lon="7.484416820366983"><ele>334.5</ele><time>2026-04-19T16:33:11Z</time></trkpt><trkpt lat="45.08481932733822" lon="7.484838304835349"><ele>335.0</ele><time>2026-04-19T16:33:12Z</time></trkpt><trkpt lat="45.084832656085666" lon="7.485274111897848"><ele>338.0</ele><time>2026-04-19T16:33:13Z</time></trkpt><trkpt lat="45.08485333853697" lon="7.485732962097484"><ele>341.0</ele><time>2026-04-19T16:33:14Z</time></trkpt><trkpt lat="45.08487273397537" lon="7.486200154372117"><ele>340.5</ele><time>2026-04-19T16:33:15Z</time></trkpt><trkpt lat="45.0848885872812" lon="7.486666064076621"><ele>340.0</ele><time>2026-04-19T16:33:16Z</time></trkpt><trkpt lat="45.08489992462408" lon="7.487149791592386"><ele>340.0</ele><time>2026-04-19T16:33:17Z</time></trkpt><trkpt lat="45.08490904516672" lon="7.48763589303284"><ele>340.0</ele><time>2026-04-19T16:33:18Z</time></trkpt><trkpt lat="45.084917576939255" lon="7.488128294054385"><ele>339.5</ele><time>2026-04-19T16:33:19Z</time></trkpt><trkpt lat="45.08492712166991" lon="7.488601844563158"><ele>339.0</ele><time>2026-04-19T16:33:20Z</time></trkpt><trkpt lat="45.084930654736695" lon="7.48903045106279"><ele>339.0</ele><time>2026-04-19T16:33:21Z</time></trkpt><trkpt lat="45.08491135875158" lon="7.489425827356556"><ele>339.0</ele><time>2026-04-19T16:33:22Z</time></trkpt><trkpt lat="45.0848621674665" lon="7.489776756634916"><ele>339.0</ele><time>2026-04-19T16:33:23Z</time></trkpt><trkpt lat="45.08478923870033" lon="7.4901463039020495"><ele>339.0</ele><time>2026-04-19T16:33:24Z</time></trkpt><trkpt lat="45.08467262504995" lon="7.490542101328612"><ele>339.0</ele><time>2026-04-19T16:33:25Z</time></trkpt><trkpt lat="45.084534531395306" lon="7.490930934978699"><ele>339.0</ele><time>2026-04-19T16:33:26Z</time></trkpt><trkpt lat="45.08438466225586" lon="7.491317372527827"><ele>339.5</ele><time>2026-04-19T16:33:27Z</time></trkpt><trkpt lat="45.084228496255136" lon="7.491689665591806"><ele>340.0</ele><time>2026-04-19T16:33:28Z</time></trkpt><trkpt lat="45.084105068831235" lon="7.492066258083735"><ele>343.0</ele><time>2026-04-19T16:33:29Z</time></trkpt><trkpt lat="45.08403963100456" lon="7.492503544687485"><ele>346.0</ele><time>2026-04-19T16:33:30Z</time></trkpt><trkpt lat="45.08401596734274" lon="7.492965241849701"><ele>346.0</ele><time>2026-04-19T16:33:31Z</time></trkpt><trkpt lat="45.08396008871615" lon="7.4934258584263205"><ele>346.0</ele><time>2026-04-19T16:33:32Z</time></trkpt><trkpt lat="45.08412047126326" lon="7.493947835755215"><ele>346.0</ele><time>2026-04-19T16:33:33Z</time></trkpt><trkpt lat="45.08423174345286" lon="7.494430935632056"><ele>346.0</ele><time>2026-04-19T16:33:34Z</time></trkpt><trkpt lat="45.08434634999972" lon="7.494863162753824"><ele>349.0</ele><time>2026-04-19T16:33:35Z</time></trkpt><trkpt lat="45.08441181841802" lon="7.495291719842396"><ele>352.0</ele><time>2026-04-19T16:33:36Z</time></trkpt><trkpt lat="45.08441907233998" lon="7.495746287233886"><ele>354.5</ele><time>2026-04-19T16:33:37Z</time></trkpt><trkpt lat="45.08437220324437" lon="7.49621673803778"><ele>357.0</ele><time>2026-04-19T16:33:38Z</time></trkpt><trkpt lat="45.08432239662466" lon="7.496688638812637"><ele>357.5</ele><time>2026-04-19T16:33:39Z</time></trkpt><trkpt lat="45.084245642062164" lon="7.497128839084299"><ele>358.0</ele><time>2026-04-19T16:33:40Z</time></trkpt><trkpt lat="45.0841302479937" lon="7.497495935732166"><ele>361.5</ele><time>2026-04-19T16:33:41Z</time></trkpt><trkpt lat="45.08400629010329" lon="7.497828723850207"><ele>365.0</ele><time>2026-04-19T16:33:42Z</time></trkpt><trkpt lat="45.083898353406155" lon="7.498132285089017"><ele>365.0</ele><time>2026-04-19T16:33:43Z</time></trkpt><trkpt lat="45.08378981034426" lon="7.498426290659401"><ele>365.0</ele><time>2026-04-19T16:33:44Z</time></trkpt><trkpt lat="45.08368771124929" lon="7.498693632767099"><ele>365.0</ele><time>2026-04-19T16:33:45Z</time></trkpt><trkpt lat="45.083594753144645" lon="7.498943939668338"><ele>364.0</ele><time>2026-04-19T16:33:46Z</time></trkpt><trkpt lat="45.083511897458095" lon="7.4991801784605"><ele>363.0</ele><time>2026-04-19T16:33:47Z</time></trkpt><trkpt lat="45.08342659852097" lon="7.499401037496336"><ele>362.0</ele><time>2026-04-19T16:33:48Z</time></trkpt><trkpt lat="45.083343906224954" lon="7.499621480321232"><ele>361.33333333333337</ele><time>2026-04-19T16:33:49Z</time></trkpt><trkpt lat="45.083261943987274" lon="7.499834025853594"><ele>360.6666666666667</ele><time>2026-04-19T16:33:50Z</time></trkpt><trkpt lat="45.0831898780071" lon="7.500029129777412"><ele>360.0</ele><time>2026-04-19T16:33:51Z</time></trkpt><trkpt lat="45.083119143300394" lon="7.500210237261502"><ele>360.0</ele><time>2026-04-19T16:33:52Z</time></trkpt><trkpt lat="45.083053326648376" lon="7.500380612377232"><ele>360.0</ele><time>2026-04-19T16:33:53Z</time></trkpt><trkpt lat="45.08299372437213" lon="7.500540256072531"><ele>360.0</ele><time>2026-04-19T16:33:54Z</time></trkpt><trkpt lat="45.082941884023406" lon="7.500694019268564"><ele>360.0</ele><time>2026-04-19T16:33:55Z</time></trkpt><trkpt lat="45.082896397106296" lon="7.500829078667704"><ele>359.8333333333333</ele><time>2026-04-19T16:33:56Z</time></trkpt><trkpt lat="45.082857444548324" lon="7.500944280796311"><ele>359.6666666666667</ele><time>2026-04-19T16:33:57Z</time></trkpt><trkpt lat="45.082817567862506" lon="7.501031268104132"><ele>359.5</ele><time>2026-04-19T16:33:58Z</time></trkpt><trkpt lat="45.08278762915144" lon="7.501115788295632"><ele>359.33333333333337</ele><time>2026-04-19T16:33:59Z</time></trkpt><trkpt lat="45.08273859215949" lon="7.501243263421252"><ele>359.1666666666667</ele><time>2026-04-19T16:34:01Z</time></trkpt><trkpt lat="45.08269239424356" lon="7.501337366973086"><ele>359.0</ele><time>2026-04-19T16:34:03Z</time></trkpt><trkpt lat="45.08262276146361" lon="7.5014563356504125"><ele>359.0</ele><time>2026-04-19T16:34:05Z</time></trkpt><trkpt lat="45.0825969886882" lon="7.501553316508849"><ele>359.0</ele><time>2026-04-19T16:34:06Z</time></trkpt><trkpt lat="45.08256732292082" lon="7.501658446405291"><ele>359.0</ele><time>2026-04-19T16:34:07Z</time></trkpt><trkpt lat="45.08253256815747" lon="7.501779818887236"><ele>359.0</ele><time>2026-04-19T16:34:08Z</time></trkpt><trkpt lat="45.08249281783485" lon="7.501914775636439"><ele>359.0</ele><time>2026-04-19T16:34:09Z</time></trkpt><trkpt lat="45.08243841319726" lon="7.502060409883028"><ele>359.5</ele><time>2026-04-19T16:34:10Z</time></trkpt><trkpt lat="45.08237552864893" lon="7.502205103962201"><ele>360.0</ele><time>2026-04-19T16:34:11Z</time></trkpt><trkpt lat="45.082315681542354" lon="7.502353648616402"><ele>360.5</ele><time>2026-04-19T16:34:12Z</time></trkpt><trkpt lat="45.08225684845731" lon="7.502505856470137"><ele>361.0</ele><time>2026-04-19T16:34:13Z</time></trkpt><trkpt lat="45.082202596106306" lon="7.50265691143711"><ele>361.0</ele><time>2026-04-19T16:34:14Z</time></trkpt><trkpt lat="45.08215133809095" lon="7.502796773545943"><ele>361.0</ele><time>2026-04-19T16:34:15Z</time></trkpt><trkpt lat="45.08210106118545" lon="7.502924171251585"><ele>361.0</ele><time>2026-04-19T16:34:16Z</time></trkpt><trkpt lat="45.08205757579293" lon="7.50303986201989"><ele>361.0</ele><time>2026-04-19T16:34:17Z</time></trkpt><trkpt lat="45.0820159834009" lon="7.503159863381498"><ele>361.0</ele><time>2026-04-19T16:34:18Z</time></trkpt><trkpt lat="45.08196560391497" lon="7.50328783901917"><ele>360.75</ele><time>2026-04-19T16:34:19Z</time></trkpt><trkpt lat="45.08191208135366" lon="7.503426898933397"><ele>360.5</ele><time>2026-04-19T16:34:20Z</time></trkpt><trkpt lat="45.08185653498946" lon="7.5035748883423725"><ele>360.25</ele><time>2026-04-19T16:34:21Z</time></trkpt><trkpt lat="45.08179636156782" lon="7.50372695836515"><ele>360.0</ele><time>2026-04-19T16:34:22Z</time></trkpt><trkpt lat="45.08173458020754" lon="7.503875252088543"><ele>360.0</ele><time>2026-04-19T16:34:23Z</time></trkpt><trkpt lat="45.08167347301561" lon="7.504018475788996"><ele>360.0</ele><time>2026-04-19T16:34:24Z</time></trkpt><trkpt lat="45.081614944722425" lon="7.504154536768979"><ele>360.0</ele><time>2026-04-19T16:34:25Z</time></trkpt><trkpt lat="45.08155794521079" lon="7.504287237723118"><ele>360.0</ele><time>2026-04-19T16:34:26Z</time></trkpt><trkpt lat="45.0815164797179" lon="7.504407331976335"><ele>360.0</ele><time>2026-04-19T16:34:27Z</time></trkpt><trkpt lat="45.08147990712783" lon="7.504533499060573"><ele>360.1666666666667</ele><time>2026-04-19T16:34:28Z</time></trkpt><trkpt lat="45.081440196388996" lon="7.504650039071359"><ele>360.3333333333333</ele><time>2026-04-19T16:34:29Z</time></trkpt><trkpt lat="45.081396783674634" lon="7.504765431162142"><ele>360.5</ele><time>2026-04-19T16:34:30Z</time></trkpt><trkpt lat="45.0813568589048" lon="7.5048803615567055"><ele>360.66666666666663</ele><time>2026-04-19T16:34:31Z</time></trkpt><trkpt lat="45.08132232116269" lon="7.504985621579987"><ele>360.8333333333333</ele><time>2026-04-19T16:34:32Z</time></trkpt><trkpt lat="45.08129774681592" lon="7.505080263447713"><ele>361.0</ele><time>2026-04-19T16:34:33Z</time></trkpt><trkpt lat="45.08125693114203" lon="7.505220457535054"><ele>361.0</ele><time>2026-04-19T16:34:35Z</time></trkpt><trkpt lat="45.081197561044554" lon="7.505327546239633"><ele>361.0</ele><time>2026-04-19T16:34:37Z</time></trkpt><trkpt lat="45.08118345596819" lon="7.505444371074546"><ele>361.0</ele><time>2026-04-19T16:34:39Z</time></trkpt><trkpt lat="45.08119571693915" lon="7.505537759145263"><ele>361.0</ele><time>2026-04-19T16:34:41Z</time></trkpt><trkpt lat="45.0811248834647" lon="7.505640350374561"><ele>361.0</ele><time>2026-04-19T16:34:43Z</time></trkpt><trkpt lat="45.0810843634208" lon="7.50573042225101"><ele>361.0</ele><time>2026-04-19T16:34:45Z</time></trkpt><trkpt lat="45.08103741840934" lon="7.505832652525658"><ele>360.8333333333333</ele><time>2026-04-19T16:34:47Z</time></trkpt><trkpt lat="45.08099896346112" lon="7.505924612377437"><ele>360.66666666666663</ele><time>2026-04-19T16:34:49Z</time></trkpt><trkpt lat="45.080962573572826" lon="7.506003964275886"><ele>360.5</ele><time>2026-04-19T16:34:57Z</time></trkpt><trkpt lat="45.08089277160522" lon="7.506112942630898"><ele>360.3333333333333</ele><time>2026-04-19T16:35:01Z</time></trkpt><trkpt lat="45.080865602092594" lon="7.506194401334439"><ele>360.1666666666667</ele><time>2026-04-19T16:35:02Z</time></trkpt><trkpt lat="45.08082992433879" lon="7.506279974235648"><ele>360.0</ele><time>2026-04-19T16:35:03Z</time></trkpt><trkpt lat="45.080797395246584" lon="7.50637146320816"><ele>360.1666666666667</ele><time>2026-04-19T16:35:04Z</time></trkpt><trkpt lat="45.08077182115784" lon="7.506457679755761"><ele>360.3333333333333</ele><time>2026-04-19T16:35:05Z</time></trkpt><trkpt lat="45.080737491156896" lon="7.506535165114261"><ele>360.5</ele><time>2026-04-19T16:35:06Z</time></trkpt><trkpt lat="45.080700355397994" lon="7.5066147351194354"><ele>360.66666666666663</ele><time>2026-04-19T16:35:07Z</time></trkpt><trkpt lat="45.080657450430174" lon="7.506753850747977"><ele>360.8333333333333</ele><time>2026-04-19T16:35:09Z</time></trkpt><trkpt lat="45.08062382212788" lon="7.506856929241565"><ele>361.0</ele><time>2026-04-19T16:35:11Z</time></trkpt><trkpt lat="45.080594273255684" lon="7.506945170861246"><ele>361.0</ele><time>2026-04-19T16:35:14Z</time></trkpt><trkpt lat="45.0805526073287" lon="7.507023537724388"><ele>361.0</ele><time>2026-04-19T16:35:18Z</time></trkpt><trkpt lat="45.08051028564533" lon="7.507135470825989"><ele>361.0</ele><time>2026-04-19T16:35:21Z</time></trkpt><trkpt lat="45.08045997541658" lon="7.507301163658384"><ele>361.0</ele><time>2026-04-19T16:35:23Z</time></trkpt><trkpt lat="45.080428803938815" lon="7.507396621303632"><ele>361.0</ele><time>2026-04-19T16:35:24Z</time></trkpt><trkpt lat="45.080402086860815" lon="7.507491430549316"><ele>361.0</ele><time>2026-04-19T16:35:25Z</time></trkpt><trkpt lat="45.08037433109744" lon="7.507592148897278"><ele>360.16666666666663</ele><time>2026-04-19T16:35:26Z</time></trkpt><trkpt lat="45.08033947810946" lon="7.5076731482589745"><ele>359.3333333333333</ele><time>2026-04-19T16:35:27Z</time></trkpt><trkpt lat="45.08030858105628" lon="7.5077560992384695"><ele>358.5</ele><time>2026-04-19T16:35:28Z</time></trkpt><trkpt lat="45.080262708926355" lon="7.507863956047015"><ele>357.6666666666667</ele><time>2026-04-19T16:35:30Z</time></trkpt><trkpt lat="45.080195625492244" lon="7.5079629755493436"><ele>356.83333333333337</ele><time>2026-04-19T16:35:32Z</time></trkpt><trkpt lat="45.08014747635526" lon="7.508022532740814"><ele>356.0</ele><time>2026-04-19T16:35:33Z</time></trkpt><trkpt lat="45.080071383270436" lon="7.508118037653987"><ele>356.0</ele><time>2026-04-19T16:35:35Z</time></trkpt><trkpt lat="45.08003766554197" lon="7.508243079923432"><ele>356.0</ele><time>2026-04-19T16:35:37Z</time></trkpt><trkpt lat="45.0800318260716" lon="7.508335905574123"><ele>356.0</ele><time>2026-04-19T16:35:39Z</time></trkpt><trkpt lat="45.08008987992134" lon="7.508381620535738"><ele>356.0</ele><time>2026-04-19T16:35:43Z</time></trkpt><trkpt lat="45.080008533799656" lon="7.508522335225068"><ele>356.0</ele><time>2026-04-19T16:35:44Z</time></trkpt><trkpt lat="45.079970993572616" lon="7.5086750035687775"><ele>355.75</ele><time>2026-04-19T16:35:46Z</time></trkpt><trkpt lat="45.079921341080876" lon="7.508786574044118"><ele>355.5</ele><time>2026-04-19T16:35:47Z</time></trkpt><trkpt lat="45.079863399600775" lon="7.50893596970168"><ele>355.25</ele><time>2026-04-19T16:35:48Z</time></trkpt><trkpt lat="45.079808408487175" lon="7.509085112524866"><ele>355.0</ele><time>2026-04-19T16:35:49Z</time></trkpt><trkpt lat="45.07974305181989" lon="7.50926230332229"><ele>355.0</ele><time>2026-04-19T16:35:50Z</time></trkpt><trkpt lat="45.07968853701629" lon="7.509409508892788"><ele>355.0</ele><time>2026-04-19T16:35:51Z</time></trkpt><trkpt lat="45.07963504984835" lon="7.509553947255582"><ele>355.0</ele><time>2026-04-19T16:35:52Z</time></trkpt><trkpt lat="45.07958111770656" lon="7.509699587215"><ele>355.0</ele><time>2026-04-19T16:35:53Z</time></trkpt><trkpt lat="45.07952747435331" lon="7.509841125324396"><ele>354.8</ele><time>2026-04-19T16:35:54Z</time></trkpt><trkpt lat="45.07947560531888" lon="7.5099800639164"><ele>354.6</ele><time>2026-04-19T16:35:55Z</time></trkpt><trkpt lat="45.07942837212479" lon="7.510106603093966"><ele>354.4</ele><time>2026-04-19T16:35:56Z</time></trkpt><trkpt lat="45.07938182091579" lon="7.510231315297539"><ele>354.2</ele><time>2026-04-19T16:35:57Z</time></trkpt><trkpt lat="45.0793343317295" lon="7.510358024106831"><ele>354.0</ele><time>2026-04-19T16:35:58Z</time></trkpt><trkpt lat="45.07929093217526" lon="7.510473883347768"><ele>353.79999999999995</ele><time>2026-04-19T16:35:59Z</time></trkpt><trkpt lat="45.07925199287481" lon="7.510577835851215"><ele>353.59999999999997</ele><time>2026-04-19T16:36:00Z</time></trkpt><trkpt lat="45.07921213064334" lon="7.510684252242217"><ele>353.4</ele><time>2026-04-19T16:36:01Z</time></trkpt><trkpt lat="45.07916400435756" lon="7.510812813675213"><ele>353.2</ele><time>2026-04-19T16:36:02Z</time></trkpt><trkpt lat="45.07910337860493" lon="7.5109748128472535"><ele>353.0</ele><time>2026-04-19T16:36:03Z</time></trkpt><trkpt lat="45.07903355490308" lon="7.511161389595765"><ele>353.0</ele><time>2026-04-19T16:36:04Z</time></trkpt><trkpt lat="45.078966201555545" lon="7.511341364905535"><ele>353.0</ele><time>2026-04-19T16:36:05Z</time></trkpt><trkpt lat="45.07890756435857" lon="7.511498376240305"><ele>353.0</ele><time>2026-04-19T16:36:06Z</time></trkpt><trkpt lat="45.0788562798904" lon="7.51163584442827"><ele>353.0</ele><time>2026-04-19T16:36:07Z</time></trkpt><trkpt lat="45.07881041305669" lon="7.511758790641121"><ele>353.0</ele><time>2026-04-19T16:36:08Z</time></trkpt><trkpt lat="45.07877127239479" lon="7.511864214730628"><ele>353.0</ele><time>2026-04-19T16:36:09Z</time></trkpt><trkpt lat="45.07873920129642" lon="7.511950820258976"><ele>353.0</ele><time>2026-04-19T16:36:10Z</time></trkpt><trkpt lat="45.07869893629147" lon="7.512087898235746"><ele>353.0</ele><time>2026-04-19T16:36:12Z</time></trkpt><trkpt lat="45.07860965157256" lon="7.512221055450699"><ele>353.0</ele><time>2026-04-19T16:36:14Z</time></trkpt><trkpt lat="45.07856987847797" lon="7.51233547189525"><ele>353.0</ele><time>2026-04-19T16:36:15Z</time></trkpt><trkpt lat="45.078553468511835" lon="7.5124795937506965"><ele>353.0</ele><time>2026-04-19T16:36:16Z</time></trkpt><trkpt lat="45.07852357012926" lon="7.51258587524668"><ele>353.0</ele><time>2026-04-19T16:36:17Z</time></trkpt><trkpt lat="45.07849466107423" lon="7.512676907752595"><ele>353.0</ele><time>2026-04-19T16:36:18Z</time></trkpt><trkpt lat="45.07844130620314" lon="7.512824339118456"><ele>353.0</ele><time>2026-04-19T16:36:20Z</time></trkpt><trkpt lat="45.07840167070557" lon="7.512930399715008"><ele>353.0</ele><time>2026-04-19T16:36:21Z</time></trkpt><trkpt lat="45.0783599203041" lon="7.513046475400506"><ele>353.0</ele><time>2026-04-19T16:36:22Z</time></trkpt><trkpt lat="45.0783212682139" lon="7.513145169590866"><ele>353.0</ele><time>2026-04-19T16:36:23Z</time></trkpt><trkpt lat="45.07828758417469" lon="7.513234475736047"><ele>353.0</ele><time>2026-04-19T16:36:24Z</time></trkpt><trkpt lat="45.07825722367414" lon="7.51331514347879"><ele>353.0</ele><time>2026-04-19T16:36:25Z</time></trkpt><trkpt lat="45.07819847009314" lon="7.5134753781264445"><ele>353.0</ele><time>2026-04-19T16:36:27Z</time></trkpt><trkpt lat="45.07816532807952" lon="7.513560632021553"><ele>353.0</ele><time>2026-04-19T16:36:28Z</time></trkpt><trkpt lat="45.07811493295114" lon="7.5136178632818735"><ele>353.0</ele><time>2026-04-19T16:36:29Z</time></trkpt><trkpt lat="45.078095643657086" lon="7.51373789222528"><ele>353.0</ele><time>2026-04-19T16:36:32Z</time></trkpt><trkpt lat="45.078065412672" lon="7.5138226212544685"><ele>353.0</ele><time>2026-04-19T16:36:35Z</time></trkpt><trkpt lat="45.07803580131997" lon="7.513910939687473"><ele>353.0</ele><time>2026-04-19T16:36:37Z</time></trkpt><trkpt lat="45.07799197222043" lon="7.514028937712597"><ele>353.0</ele><time>2026-04-19T16:36:39Z</time></trkpt><trkpt lat="45.07793721617973" lon="7.514089631132537"><ele>353.0</ele><time>2026-04-19T16:36:41Z</time></trkpt><trkpt lat="45.07787890750104" lon="7.514143209888681"><ele>353.0</ele><time>2026-04-19T16:36:43Z</time></trkpt><trkpt lat="45.077863236648994" lon="7.514249190850877"><ele>353.0</ele><time>2026-04-19T16:36:45Z</time></trkpt><trkpt lat="45.0778547521945" lon="7.514414364044552"><ele>353.0</ele><time>2026-04-19T16:36:47Z</time></trkpt><trkpt lat="45.07782241864948" lon="7.514519798303913"><ele>353.0</ele><time>2026-04-19T16:36:48Z</time></trkpt><trkpt lat="45.077775923524946" lon="7.514625737576406"><ele>353.0</ele><time>2026-04-19T16:36:49Z</time></trkpt><trkpt lat="45.07774234436814" lon="7.514741313851561"><ele>352.83333333333337</ele><time>2026-04-19T16:36:50Z</time></trkpt><trkpt lat="45.07770446465714" lon="7.514857062470575"><ele>352.6666666666667</ele><time>2026-04-19T16:36:51Z</time></trkpt><trkpt lat="45.077668880834224" lon="7.514960033804014"><ele>352.5</ele><time>2026-04-19T16:36:52Z</time></trkpt><trkpt lat="45.07757922693147" lon="7.515041151259136"><ele>352.3333333333333</ele><time>2026-04-19T16:36:53Z</time></trkpt><trkpt lat="45.07753176355112" lon="7.515128058700694"><ele>352.16666666666663</ele><time>2026-04-19T16:36:54Z</time></trkpt><trkpt lat="45.07749706710616" lon="7.515222377093156"><ele>352.0</ele><time>2026-04-19T16:36:55Z</time></trkpt><trkpt lat="45.077549539386986" lon="7.515347541290837"><ele>352.20000000000005</ele><time>2026-04-19T16:36:56Z</time></trkpt><trkpt lat="45.07751611744761" lon="7.515424902615717"><ele>352.4</ele><time>2026-04-19T16:36:59Z</time></trkpt><trkpt lat="45.07745591644698" lon="7.515537737064931"><ele>352.6</ele><time>2026-04-19T16:37:02Z</time></trkpt><trkpt lat="45.077390465635666" lon="7.515609142605903"><ele>352.79999999999995</ele><time>2026-04-19T16:37:03Z</time></trkpt><trkpt lat="45.07733442108204" lon="7.515728145611573"><ele>353.0</ele><time>2026-04-19T16:37:04Z</time></trkpt><trkpt lat="45.077281658806804" lon="7.515858623539732"><ele>353.0</ele><time>2026-04-19T16:37:05Z</time></trkpt><trkpt lat="45.07721679230004" lon="7.515992669391217"><ele>353.0</ele><time>2026-04-19T16:37:06Z</time></trkpt><trkpt lat="45.07716762500086" lon="7.516126299455803"><ele>353.0</ele><time>2026-04-19T16:37:07Z</time></trkpt><trkpt lat="45.07711476678183" lon="7.516269959004845"><ele>353.0</ele><time>2026-04-19T16:37:08Z</time></trkpt><trkpt lat="45.077060971085174" lon="7.5164182480155874"><ele>353.33333333333337</ele><time>2026-04-19T16:37:09Z</time></trkpt><trkpt lat="45.07701786522149" lon="7.51653663852365"><ele>353.6666666666667</ele><time>2026-04-19T16:37:10Z</time></trkpt><trkpt lat="45.07698131073694" lon="7.516637035428274"><ele>354.0</ele><time>2026-04-19T16:37:11Z</time></trkpt><trkpt lat="45.0769468767866" lon="7.516731608756046"><ele>354.3333333333333</ele><time>2026-04-19T16:37:12Z</time></trkpt><trkpt lat="45.076909674133134" lon="7.5168336827086"><ele>354.66666666666663</ele><time>2026-04-19T16:37:13Z</time></trkpt><trkpt lat="45.07686973315657" lon="7.516968149790625"><ele>355.0</ele><time>2026-04-19T16:37:14Z</time></trkpt><trkpt lat="45.07683113363296" lon="7.517085281862532"><ele>355.0</ele><time>2026-04-19T16:37:15Z</time></trkpt><trkpt lat="45.07678736165458" lon="7.517184895556578"><ele>355.0</ele><time>2026-04-19T16:37:16Z</time></trkpt><trkpt lat="45.076745548932074" lon="7.517306820857419"><ele>355.0</ele><time>2026-04-19T16:37:17Z</time></trkpt><trkpt lat="45.076689224742736" lon="7.517456435095124"><ele>355.0</ele><time>2026-04-19T16:37:18Z</time></trkpt><trkpt lat="45.076621796322144" lon="7.517640562381226"><ele>355.0</ele><time>2026-04-19T16:37:19Z</time></trkpt><trkpt lat="45.076556911938766" lon="7.517802062764053"><ele>354.6</ele><time>2026-04-19T16:37:20Z</time></trkpt><trkpt lat="45.0765021275359" lon="7.51793721228813"><ele>354.2</ele><time>2026-04-19T16:37:21Z</time></trkpt><trkpt lat="45.07645914809325" lon="7.518055811404124"><ele>353.79999999999995</ele><time>2026-04-19T16:37:22Z</time></trkpt><trkpt lat="45.076412173010986" lon="7.518174146658719"><ele>353.4</ele><time>2026-04-19T16:37:23Z</time></trkpt><trkpt lat="45.07636817323333" lon="7.518287432359539"><ele>353.0</ele><time>2026-04-19T16:37:24Z</time></trkpt><trkpt lat="45.07633886565607" lon="7.518368951256332"><ele>353.0</ele><time>2026-04-19T16:37:25Z</time></trkpt><trkpt lat="45.07630870898764" lon="7.518449718389197"><ele>353.0</ele><time>2026-04-19T16:37:26Z</time></trkpt><trkpt lat="45.07627192515141" lon="7.518544318268735"><ele>353.0</ele><time>2026-04-19T16:37:27Z</time></trkpt><trkpt lat="45.07623065297981" lon="7.518649492967486"><ele>353.0</ele><time>2026-04-19T16:37:28Z</time></trkpt><trkpt lat="45.07618778979043" lon="7.518756815976597"><ele>353.0</ele><time>2026-04-19T16:37:29Z</time></trkpt><trkpt lat="45.076142927753736" lon="7.5188716900852555"><ele>353.0</ele><time>2026-04-19T16:37:30Z</time></trkpt><trkpt lat="45.076104434907684" lon="7.518954975404863"><ele>352.79999999999995</ele><time>2026-04-19T16:37:31Z</time></trkpt><trkpt lat="45.07605909836532" lon="7.519044941011206"><ele>352.6</ele><time>2026-04-19T16:37:32Z</time></trkpt><trkpt lat="45.076006503933485" lon="7.519145772987568"><ele>352.4</ele><time>2026-04-19T16:37:33Z</time></trkpt><trkpt lat="45.07592501648366" lon="7.51927708472863"><ele>352.20000000000005</ele><time>2026-04-19T16:37:34Z</time></trkpt><trkpt lat="45.07584178573954" lon="7.519405660497708"><ele>352.0</ele><time>2026-04-19T16:37:35Z</time></trkpt><trkpt lat="45.075760951265686" lon="7.519502831481464"><ele>352.20000000000005</ele><time>2026-04-19T16:37:36Z</time></trkpt><trkpt lat="45.07567259447794" lon="7.519563989743449"><ele>352.4</ele><time>2026-04-19T16:37:37Z</time></trkpt><trkpt lat="45.07558359414689" lon="7.519603885034053"><ele>352.6</ele><time>2026-04-19T16:37:38Z</time></trkpt><trkpt lat="45.075527548778794" lon="7.519683782373764"><ele>352.79999999999995</ele><time>2026-04-19T16:37:39Z</time></trkpt><trkpt lat="45.07551464712565" lon="7.5198209135971945"><ele>353.0</ele><time>2026-04-19T16:37:40Z</time></trkpt><trkpt lat="45.07555781905698" lon="7.519969404384532"><ele>353.0</ele><time>2026-04-19T16:37:41Z</time></trkpt><trkpt lat="45.075586847876465" lon="7.520118768958452"><ele>353.0</ele><time>2026-04-19T16:37:42Z</time></trkpt><trkpt lat="45.07558329160703" lon="7.520296260305586"><ele>353.0</ele><time>2026-04-19T16:37:43Z</time></trkpt><trkpt lat="45.07556121299938" lon="7.520511324111008"><ele>353.0</ele><time>2026-04-19T16:37:44Z</time></trkpt><trkpt lat="45.07552204439288" lon="7.520735464247796"><ele>353.0</ele><time>2026-04-19T16:37:45Z</time></trkpt><trkpt lat="45.07547531543842" lon="7.520963616086352"><ele>353.0</ele><time>2026-04-19T16:37:46Z</time></trkpt><trkpt lat="45.07543444718392" lon="7.521186636695945"><ele>353.0</ele><time>2026-04-19T16:37:47Z</time></trkpt><trkpt lat="45.07540140983221" lon="7.521388544628792"><ele>352.5</ele><time>2026-04-19T16:37:48Z</time></trkpt><trkpt lat="45.07537233653367" lon="7.5215779087840415"><ele>352.0</ele><time>2026-04-19T16:37:49Z</time></trkpt><trkpt lat="45.07534227181213" lon="7.521761457564097"><ele>351.5</ele><time>2026-04-19T16:37:50Z</time></trkpt><trkpt lat="45.075314397101224" lon="7.521947404634579"><ele>351.0</ele><time>2026-04-19T16:37:51Z</time></trkpt><trkpt lat="45.07528503881751" lon="7.522122836943321"><ele>350.5</ele><time>2026-04-19T16:37:52Z</time></trkpt><trkpt lat="45.07526059837521" lon="7.522286826336799"><ele>350.0</ele><time>2026-04-19T16:37:53Z</time></trkpt><trkpt lat="45.07523768855762" lon="7.522458508671645"><ele>349.5</ele><time>2026-04-19T16:37:54Z</time></trkpt><trkpt lat="45.07520798178559" lon="7.52265666101927"><ele>349.0</ele><time>2026-04-19T16:37:55Z</time></trkpt><trkpt lat="45.07516990383846" lon="7.522862774167369"><ele>349.25</ele><time>2026-04-19T16:37:56Z</time></trkpt><trkpt lat="45.07513999294205" lon="7.523066960931134"><ele>349.5</ele><time>2026-04-19T16:37:57Z</time></trkpt><trkpt lat="45.07510871190514" lon="7.523251626888539"><ele>349.75</ele><time>2026-04-19T16:37:58Z</time></trkpt><trkpt lat="45.075080522824" lon="7.5234197119755555"><ele>350.0</ele><time>2026-04-19T16:37:59Z</time></trkpt><trkpt lat="45.07505592230154" lon="7.523575181108114"><ele>350.0</ele><time>2026-04-19T16:38:00Z</time></trkpt><trkpt lat="45.07503564131841" lon="7.523724490361433"><ele>350.0</ele><time>2026-04-19T16:38:01Z</time></trkpt><trkpt lat="45.07500976034175" lon="7.523872629237623"><ele>350.0</ele><time>2026-04-19T16:38:02Z</time></trkpt><trkpt lat="45.07498246310595" lon="7.524059078603421"><ele>350.0</ele><time>2026-04-19T16:38:03Z</time></trkpt><trkpt lat="45.07495194103227" lon="7.524242217785001"><ele>349.6666666666667</ele><time>2026-04-19T16:38:04Z</time></trkpt><trkpt lat="45.07492590847809" lon="7.52441167612465"><ele>349.3333333333333</ele><time>2026-04-19T16:38:05Z</time></trkpt><trkpt lat="45.07488639962236" lon="7.52462451909183"><ele>349.0</ele><time>2026-04-19T16:38:06Z</time></trkpt><trkpt lat="45.07488356555448" lon="7.524867562776422"><ele>348.66666666666663</ele><time>2026-04-19T16:38:07Z</time></trkpt><trkpt lat="45.07485232581342" lon="7.525116037251663"><ele>348.3333333333333</ele><time>2026-04-19T16:38:08Z</time></trkpt><trkpt lat="45.07484019276652" lon="7.525340669474041"><ele>348.0</ele><time>2026-04-19T16:38:09Z</time></trkpt><trkpt lat="45.07482984254846" lon="7.525532294475579"><ele>348.0</ele><time>2026-04-19T16:38:10Z</time></trkpt><trkpt lat="45.074821117747554" lon="7.5256837618207895"><ele>348.0</ele><time>2026-04-19T16:38:11Z</time></trkpt><trkpt lat="45.074811249666816" lon="7.525820946935145"><ele>348.0</ele><time>2026-04-19T16:38:12Z</time></trkpt><trkpt lat="45.074799696017905" lon="7.525928315077275"><ele>348.0</ele><time>2026-04-19T16:38:13Z</time></trkpt><trkpt lat="45.07481811862275" lon="7.526023247359839"><ele>348.0</ele><time>2026-04-19T16:38:14Z</time></trkpt><trkpt lat="45.074805935012165" lon="7.526171812595788"><ele>348.0</ele><time>2026-04-19T16:38:16Z</time></trkpt><trkpt lat="45.074763296563006" lon="7.526319836252362"><ele>348.0</ele><time>2026-04-19T16:38:18Z</time></trkpt><trkpt lat="45.07471910160949" lon="7.526416040315183"><ele>348.0</ele><time>2026-04-19T16:38:19Z</time></trkpt><trkpt lat="45.074647179965886" lon="7.526559161040502"><ele>348.0</ele><time>2026-04-19T16:38:20Z</time></trkpt><trkpt lat="45.074569587419" lon="7.526711079188841"><ele>348.0</ele><time>2026-04-19T16:38:21Z</time></trkpt><trkpt lat="45.07449162808936" lon="7.52688842657225"><ele>348.0</ele><time>2026-04-19T16:38:22Z</time></trkpt><trkpt lat="45.07441934762794" lon="7.5270772970469055"><ele>348.0</ele><time>2026-04-19T16:38:23Z</time></trkpt><trkpt lat="45.07433335476083" lon="7.527294773307002"><ele>348.0</ele><time>2026-04-19T16:38:24Z</time></trkpt><trkpt lat="45.074240442592" lon="7.5275305837138875"><ele>348.0</ele><time>2026-04-19T16:38:25Z</time></trkpt><trkpt lat="45.07414367718659" lon="7.527783641035619"><ele>348.0</ele><time>2026-04-19T16:38:26Z</time></trkpt><trkpt lat="45.074041913584715" lon="7.528046657657326"><ele>347.6666666666667</ele><time>2026-04-19T16:38:27Z</time></trkpt><trkpt lat="45.07392197956435" lon="7.528298161996319"><ele>347.33333333333337</ele><time>2026-04-19T16:38:28Z</time></trkpt><trkpt lat="45.07381072763199" lon="7.5285527500657965"><ele>347.0</ele><time>2026-04-19T16:38:29Z</time></trkpt><trkpt lat="45.07369817413416" lon="7.528805717320744"><ele>347.0</ele><time>2026-04-19T16:38:30Z</time></trkpt><trkpt lat="45.073603502273805" lon="7.529048290926716"><ele>347.0</ele><time>2026-04-19T16:38:31Z</time></trkpt><trkpt lat="45.07351714297385" lon="7.5292432022458415"><ele>347.0</ele><time>2026-04-19T16:38:32Z</time></trkpt><trkpt lat="45.073431640194976" lon="7.5294377147164715"><ele>347.0</ele><time>2026-04-19T16:38:33Z</time></trkpt><trkpt lat="45.07333054013222" lon="7.5296476044164"><ele>347.0</ele><time>2026-04-19T16:38:34Z</time></trkpt><trkpt lat="45.073231696176535" lon="7.529856602412566"><ele>347.0</ele><time>2026-04-19T16:38:35Z</time></trkpt><trkpt lat="45.07313019901159" lon="7.530044093962243"><ele>347.0</ele><time>2026-04-19T16:38:36Z</time></trkpt><trkpt lat="45.07301218475992" lon="7.5301863471044586"><ele>347.0</ele><time>2026-04-19T16:38:37Z</time></trkpt><trkpt lat="45.07287543195552" lon="7.530277284751197"><ele>347.0</ele><time>2026-04-19T16:38:38Z</time></trkpt><trkpt lat="45.07272315324263" lon="7.530297904170591"><ele>347.0</ele><time>2026-04-19T16:38:39Z</time></trkpt><trkpt lat="45.072587751591215" lon="7.530257417408164"><ele>347.0</ele><time>2026-04-19T16:38:40Z</time></trkpt><trkpt lat="45.072457814687844" lon="7.5301588157263915"><ele>347.0</ele><time>2026-04-19T16:38:41Z</time></trkpt><trkpt lat="45.07232470664562" lon="7.530027830967907"><ele>347.0</ele><time>2026-04-19T16:38:42Z</time></trkpt><trkpt lat="45.072174065217524" lon="7.529905136714286"><ele>347.0</ele><time>2026-04-19T16:38:43Z</time></trkpt><trkpt lat="45.072002414989825" lon="7.529780984664566"><ele>347.0</ele><time>2026-04-19T16:38:44Z</time></trkpt><trkpt lat="45.07182369270748" lon="7.5296240998207"><ele>347.0</ele><time>2026-04-19T16:38:45Z</time></trkpt><trkpt lat="45.07162962531637" lon="7.52944995421509"><ele>348.0</ele><time>2026-04-19T16:38:46Z</time></trkpt><trkpt lat="45.07143269340853" lon="7.529267205094656"><ele>349.0</ele><time>2026-04-19T16:38:47Z</time></trkpt><trkpt lat="45.07127019119465" lon="7.529121219960724"><ele>350.0</ele><time>2026-04-19T16:38:48Z</time></trkpt><trkpt lat="45.07115047968277" lon="7.52901095386637"><ele>350.0</ele><time>2026-04-19T16:38:49Z</time></trkpt><trkpt lat="45.07105804789685" lon="7.528925077838239"><ele>350.0</ele><time>2026-04-19T16:38:50Z</time></trkpt><trkpt lat="45.0709955263534" lon="7.528874992278423"><ele>350.0</ele><time>2026-04-19T16:38:51Z</time></trkpt><trkpt lat="45.07093353675043" lon="7.528820538677156"><ele>350.0</ele><time>2026-04-19T16:38:53Z</time></trkpt><trkpt lat="45.07085354235132" lon="7.528781403013208"><ele>350.0</ele><time>2026-04-19T16:40:18Z</time></trkpt><trkpt lat="45.070770660658575" lon="7.528762690668509"><ele>350.0</ele><time>2026-04-19T16:40:19Z</time></trkpt><trkpt lat="45.070678907890965" lon="7.5287398737483135"><ele>350.8</ele><time>2026-04-19T16:40:20Z</time></trkpt><trkpt lat="45.070598944676306" lon="7.528736213301649"><ele>351.6</ele><time>2026-04-19T16:40:21Z</time></trkpt><trkpt lat="45.0705057919097" lon="7.528871192039184"><ele>352.4</ele><time>2026-04-19T16:40:22Z</time></trkpt><trkpt lat="45.07044769534492" lon="7.529014458477468"><ele>353.2</ele><time>2026-04-19T16:40:23Z</time></trkpt><trkpt lat="45.07039003156881" lon="7.529162132226351"><ele>354.0</ele><time>2026-04-19T16:40:24Z</time></trkpt><trkpt lat="45.07033693982068" lon="7.529334106330629"><ele>354.0</ele><time>2026-04-19T16:40:25Z</time></trkpt><trkpt lat="45.07027641026649" lon="7.529522402399148"><ele>354.0</ele><time>2026-04-19T16:40:26Z</time></trkpt><trkpt lat="45.070205016886234" lon="7.529724989968136"><ele>354.0</ele><time>2026-04-19T16:40:27Z</time></trkpt><trkpt lat="45.070129188284774" lon="7.529936242054111"><ele>354.0</ele><time>2026-04-19T16:40:28Z</time></trkpt><trkpt lat="45.070047609743945" lon="7.53017300729834"><ele>354.0</ele><time>2026-04-19T16:40:29Z</time></trkpt><trkpt lat="45.06996035017571" lon="7.530430356109136"><ele>354.0</ele><time>2026-04-19T16:40:30Z</time></trkpt><trkpt lat="45.06986440830966" lon="7.530686576113464"><ele>352.6666666666667</ele><time>2026-04-19T16:40:31Z</time></trkpt><trkpt lat="45.069763739840994" lon="7.530942861504308"><ele>351.33333333333337</ele><time>2026-04-19T16:40:32Z</time></trkpt><trkpt lat="45.069648472299825" lon="7.531201978407721"><ele>350.0</ele><time>2026-04-19T16:40:33Z</time></trkpt><trkpt lat="45.069522733942996" lon="7.531480419738257"><ele>349.33333333333337</ele><time>2026-04-19T16:40:34Z</time></trkpt><trkpt lat="45.069399475937374" lon="7.531754849289021"><ele>348.6666666666667</ele><time>2026-04-19T16:40:35Z</time></trkpt><trkpt lat="45.06928660862005" lon="7.532004139480093"><ele>348.0</ele><time>2026-04-19T16:40:36Z</time></trkpt><trkpt lat="45.069175901362975" lon="7.532240758587486"><ele>346.3333333333333</ele><time>2026-04-19T16:40:37Z</time></trkpt><trkpt lat="45.06907178296927" lon="7.53247160917733"><ele>344.66666666666663</ele><time>2026-04-19T16:40:38Z</time></trkpt><trkpt lat="45.068957042404946" lon="7.5326865250753015"><ele>343.0</ele><time>2026-04-19T16:40:39Z</time></trkpt><trkpt lat="45.06886033482839" lon="7.53289611536423"><ele>342.25</ele><time>2026-04-19T16:40:40Z</time></trkpt><trkpt lat="45.068769310890985" lon="7.533093020797913"><ele>341.5</ele><time>2026-04-19T16:40:41Z</time></trkpt><trkpt lat="45.06869104898462" lon="7.533261749391485"><ele>340.75</ele><time>2026-04-19T16:40:42Z</time></trkpt><trkpt lat="45.06864263622843" lon="7.5334023585533805"><ele>340.0</ele><time>2026-04-19T16:40:43Z</time></trkpt><trkpt lat="45.06858950250068" lon="7.533489898981592"><ele>340.0</ele><time>2026-04-19T16:40:44Z</time></trkpt><trkpt lat="45.06852237606642" lon="7.5335509819200395"><ele>340.0</ele><time>2026-04-19T16:40:45Z</time></trkpt><trkpt lat="45.06845426741051" lon="7.5336032750547774"><ele>340.0</ele><time>2026-04-19T16:40:46Z</time></trkpt><trkpt lat="45.06840460350005" lon="7.533711748023923"><ele>340.0</ele><time>2026-04-19T16:40:47Z</time></trkpt><trkpt lat="45.068389445464526" lon="7.533868832763655"><ele>340.0</ele><time>2026-04-19T16:40:48Z</time></trkpt><trkpt lat="45.06836128770734" lon="7.534039344042259"><ele>338.3333333333333</ele><time>2026-04-19T16:40:49Z</time></trkpt><trkpt lat="45.06825556664999" lon="7.534195454819079"><ele>336.6666666666667</ele><time>2026-04-19T16:40:50Z</time></trkpt><trkpt lat="45.068155606660724" lon="7.534407922128107"><ele>335.0</ele><time>2026-04-19T16:40:51Z</time></trkpt><trkpt lat="45.06805042599072" lon="7.534634901149287"><ele>334.6666666666667</ele><time>2026-04-19T16:40:52Z</time></trkpt><trkpt lat="45.06793585356647" lon="7.5348821473799825"><ele>334.3333333333333</ele><time>2026-04-19T16:40:53Z</time></trkpt><trkpt lat="45.06781266166123" lon="7.5351476011953995"><ele>334.0</ele><time>2026-04-19T16:40:54Z</time></trkpt><trkpt lat="45.067771168547715" lon="7.535267855495392"><ele>333.3333333333333</ele><time>2026-04-19T16:40:55Z</time></trkpt><trkpt lat="45.06767559825558" lon="7.535458314375436"><ele>332.6666666666667</ele><time>2026-04-19T16:40:56Z</time></trkpt><trkpt lat="45.067595490636684" lon="7.535631738210865"><ele>332.0</ele><time>2026-04-19T16:40:57Z</time></trkpt><trkpt lat="45.067516897477596" lon="7.535799783861233"><ele>332.0</ele><time>2026-04-19T16:40:58Z</time></trkpt><trkpt lat="45.06745051274771" lon="7.5359505481500895"><ele>332.0</ele><time>2026-04-19T16:40:59Z</time></trkpt><trkpt lat="45.067376601564845" lon="7.536140073866652"><ele>332.0</ele><time>2026-04-19T16:41:00Z</time></trkpt><trkpt lat="45.067270873148715" lon="7.536350332788645"><ele>331.25</ele><time>2026-04-19T16:41:01Z</time></trkpt><trkpt lat="45.067192312969354" lon="7.536583434547047"><ele>330.5</ele><time>2026-04-19T16:41:02Z</time></trkpt><trkpt lat="45.06711649551524" lon="7.536756607626983"><ele>329.75</ele><time>2026-04-19T16:41:03Z</time></trkpt><trkpt lat="45.06706039795638" lon="7.536881980390159"><ele>329.0</ele><time>2026-04-19T16:41:04Z</time></trkpt><trkpt lat="45.06699758697679" lon="7.536979067696169"><ele>329.0</ele><time>2026-04-19T16:41:05Z</time></trkpt><trkpt lat="45.06692657428691" lon="7.537028165145855"><ele>329.0</ele><time>2026-04-19T16:41:06Z</time></trkpt><trkpt lat="45.06685775602792" lon="7.537016827191682"><ele>329.0</ele><time>2026-04-19T16:41:07Z</time></trkpt><trkpt lat="45.06677434779529" lon="7.5369615670869585"><ele>329.0</ele><time>2026-04-19T16:41:10Z</time></trkpt><trkpt lat="45.06669797868843" lon="7.536923722635929"><ele>329.0</ele><time>2026-04-19T16:41:11Z</time></trkpt><trkpt lat="45.066611972894904" lon="7.536924774330268"><ele>329.0</ele><time>2026-04-19T16:41:12Z</time></trkpt><trkpt lat="45.066541164151765" lon="7.536994433240497"><ele>328.6</ele><time>2026-04-19T16:41:13Z</time></trkpt><trkpt lat="45.06649167664374" lon="7.537147583765128"><ele>328.2</ele><time>2026-04-19T16:41:14Z</time></trkpt><trkpt lat="45.06645302390305" lon="7.537326939179683"><ele>327.8</ele><time>2026-04-19T16:41:15Z</time></trkpt><trkpt lat="45.06637738937875" lon="7.537417651853056"><ele>327.40000000000003</ele><time>2026-04-19T16:41:16Z</time></trkpt><trkpt lat="45.066326775083446" lon="7.537529487391105"><ele>327.0</ele><time>2026-04-19T16:41:17Z</time></trkpt><trkpt lat="45.06629672514682" lon="7.537651715089313"><ele>327.0</ele><time>2026-04-19T16:41:18Z</time></trkpt><trkpt lat="45.06627526660314" lon="7.537762392146878"><ele>327.0</ele><time>2026-04-19T16:41:19Z</time></trkpt><trkpt lat="45.06624594073499" lon="7.537873085407283"><ele>327.0</ele><time>2026-04-19T16:41:20Z</time></trkpt><trkpt lat="45.06623196615586" lon="7.53796995281896"><ele>327.0</ele><time>2026-04-19T16:41:21Z</time></trkpt><trkpt lat="45.06617900434518" lon="7.5380864066442355"><ele>327.0</ele><time>2026-04-19T16:41:22Z</time></trkpt><trkpt lat="45.066160219671325" lon="7.538212081769511"><ele>327.0</ele><time>2026-04-19T16:41:23Z</time></trkpt><trkpt lat="45.06612109378377" lon="7.538325581026249"><ele>327.0</ele><time>2026-04-19T16:41:24Z</time></trkpt><trkpt lat="45.06607757249695" lon="7.538460380187456"><ele>327.0</ele><time>2026-04-19T16:41:25Z</time></trkpt><trkpt lat="45.066023114853046" lon="7.5386235742429255"><ele>327.0</ele><time>2026-04-19T16:41:26Z</time></trkpt><trkpt lat="45.06595781307367" lon="7.538823970046254"><ele>327.0</ele><time>2026-04-19T16:41:27Z</time></trkpt><trkpt lat="45.065861959811606" lon="7.5390456539452115"><ele>326.3333333333333</ele><time>2026-04-19T16:41:28Z</time></trkpt><trkpt lat="45.065762676278446" lon="7.539305686792377"><ele>325.66666666666663</ele><time>2026-04-19T16:41:29Z</time></trkpt><trkpt lat="45.06566424605418" lon="7.539600344758197"><ele>325.0</ele><time>2026-04-19T16:41:30Z</time></trkpt><trkpt lat="45.06554124682699" lon="7.5398796326690505"><ele>325.0</ele><time>2026-04-19T16:41:31Z</time></trkpt><trkpt lat="45.065444844601686" lon="7.540117603517251"><ele>325.0</ele><time>2026-04-19T16:41:32Z</time></trkpt><trkpt lat="45.06536399474667" lon="7.540306114625683"><ele>325.0</ele><time>2026-04-19T16:41:33Z</time></trkpt><trkpt lat="45.065296296459685" lon="7.540474168453107"><ele>324.6</ele><time>2026-04-19T16:41:34Z</time></trkpt><trkpt lat="45.0652411529481" lon="7.540595578956848"><ele>324.2</ele><time>2026-04-19T16:41:35Z</time></trkpt><trkpt lat="45.065202946272734" lon="7.540677300364983"><ele>323.79999999999995</ele><time>2026-04-19T16:41:36Z</time></trkpt><trkpt lat="45.06511642506823" lon="7.5408066499400865"><ele>323.4</ele><time>2026-04-19T16:41:38Z</time></trkpt><trkpt lat="45.0650381981492" lon="7.540875582848319"><ele>323.0</ele><time>2026-04-19T16:41:39Z</time></trkpt><trkpt lat="45.06495739785529" lon="7.5409494736961635"><ele>322.75</ele><time>2026-04-19T16:41:40Z</time></trkpt><trkpt lat="45.064909509162355" lon="7.5410681705608615"><ele>322.5</ele><time>2026-04-19T16:41:41Z</time></trkpt><trkpt lat="45.06489801015417" lon="7.541238731787411"><ele>322.25</ele><time>2026-04-19T16:41:42Z</time></trkpt><trkpt lat="45.064869435796716" lon="7.5414578447772795"><ele>322.0</ele><time>2026-04-19T16:41:43Z</time></trkpt><trkpt lat="45.06477023324578" lon="7.5416899668880335"><ele>321.5</ele><time>2026-04-19T16:41:44Z</time></trkpt><trkpt lat="45.0646654980262" lon="7.541973276141709"><ele>321.0</ele><time>2026-04-19T16:41:45Z</time></trkpt><trkpt lat="45.06456400211967" lon="7.542298514326544"><ele>320.5</ele><time>2026-04-19T16:41:46Z</time></trkpt><trkpt lat="45.064453804369215" lon="7.54265704821932"><ele>320.0</ele><time>2026-04-19T16:41:47Z</time></trkpt><trkpt lat="45.06433470473444" lon="7.54303361077124"><ele>318.5</ele><time>2026-04-19T16:41:48Z</time></trkpt><trkpt lat="45.06422331774467" lon="7.543412599214567"><ele>317.0</ele><time>2026-04-19T16:41:49Z</time></trkpt><trkpt lat="45.064106300955515" lon="7.543803699198812"><ele>316.0</ele><time>2026-04-19T16:41:50Z</time></trkpt><trkpt lat="45.06398410494869" lon="7.544197773287169"><ele>315.0</ele><time>2026-04-19T16:41:51Z</time></trkpt><trkpt lat="45.06385546818024" lon="7.544601381350929"><ele>315.0</ele><time>2026-04-19T16:41:52Z</time></trkpt><trkpt lat="45.06371947039143" lon="7.545010829659512"><ele>315.0</ele><time>2026-04-19T16:41:53Z</time></trkpt><trkpt lat="45.06356766125997" lon="7.545409752566266"><ele>315.0</ele><time>2026-04-19T16:41:54Z</time></trkpt><trkpt lat="45.0633992477074" lon="7.545801879424958"><ele>315.0</ele><time>2026-04-19T16:41:55Z</time></trkpt><trkpt lat="45.06324247610918" lon="7.546144193789224"><ele>314.5</ele><time>2026-04-19T16:41:56Z</time></trkpt><trkpt lat="45.0630893220353" lon="7.546460899436322"><ele>314.0</ele><time>2026-04-19T16:41:57Z</time></trkpt><trkpt lat="45.06293680020336" lon="7.54675288844245"><ele>312.5</ele><time>2026-04-19T16:41:58Z</time></trkpt><trkpt lat="45.06276723169689" lon="7.547056127187579"><ele>311.0</ele><time>2026-04-19T16:41:59Z</time></trkpt><trkpt lat="45.062578502584195" lon="7.547377581609377"><ele>311.5</ele><time>2026-04-19T16:42:00Z</time></trkpt><trkpt lat="45.06239347168551" lon="7.547686544077724"><ele>312.0</ele><time>2026-04-19T16:42:01Z</time></trkpt><trkpt lat="45.06223034520432" lon="7.547976916039805"><ele>310.5</ele><time>2026-04-19T16:42:02Z</time></trkpt><trkpt lat="45.062086401004" lon="7.548257501626605"><ele>309.0</ele><time>2026-04-19T16:42:03Z</time></trkpt><trkpt lat="45.06196599505246" lon="7.548522748458675"><ele>308.3333333333333</ele><time>2026-04-19T16:42:04Z</time></trkpt><trkpt lat="45.061876270340186" lon="7.548764529926933"><ele>307.66666666666663</ele><time>2026-04-19T16:42:05Z</time></trkpt><trkpt lat="45.061784277366804" lon="7.548921892264964"><ele>307.0</ele><time>2026-04-19T16:42:06Z</time></trkpt><trkpt lat="45.06171453124818" lon="7.5490564801000675"><ele>307.0</ele><time>2026-04-19T16:42:07Z</time></trkpt><trkpt lat="45.0616503345625" lon="7.549163352194548"><ele>307.0</ele><time>2026-04-19T16:42:08Z</time></trkpt><trkpt lat="45.06159286633344" lon="7.5492753445793825"><ele>307.0</ele><time>2026-04-19T16:42:09Z</time></trkpt><trkpt lat="45.06148362433174" lon="7.5492578008042095"><ele>307.0</ele><time>2026-04-19T16:42:10Z</time></trkpt><trkpt lat="45.06142537687487" lon="7.549336633100127"><ele>307.0</ele><time>2026-04-19T16:42:11Z</time></trkpt><trkpt lat="45.061403992184985" lon="7.549448459368826"><ele>306.8</ele><time>2026-04-19T16:42:12Z</time></trkpt><trkpt lat="45.06140060784424" lon="7.549551359416018"><ele>306.6</ele><time>2026-04-19T16:42:13Z</time></trkpt><trkpt lat="45.06145251301185" lon="7.549672381168317"><ele>306.40000000000003</ele><time>2026-04-19T16:42:14Z</time></trkpt><trkpt lat="45.06153078314091" lon="7.549762765190354"><ele>306.2</ele><time>2026-04-19T16:42:15Z</time></trkpt><trkpt lat="45.06163847048899" lon="7.549776212965748"><ele>306.0</ele><time>2026-04-19T16:42:16Z</time></trkpt><trkpt lat="45.06174586819218" lon="7.549714721476875"><ele>306.0</ele><time>2026-04-19T16:42:17Z</time></trkpt><trkpt lat="45.061823041117485" lon="7.549587736911278"><ele>306.0</ele><time>2026-04-19T16:42:18Z</time></trkpt><trkpt lat="45.06184508519768" lon="7.5494155361124395"><ele>306.0</ele><time>2026-04-19T16:42:19Z</time></trkpt><trkpt lat="45.06183890038029" lon="7.549233261065709"><ele>306.0</ele><time>2026-04-19T16:42:20Z</time></trkpt><trkpt lat="45.06185218780668" lon="7.549036106816175"><ele>306.3333333333333</ele><time>2026-04-19T16:42:21Z</time></trkpt><trkpt lat="45.06190858296296" lon="7.54882209481466"><ele>306.66666666666663</ele><time>2026-04-19T16:42:22Z</time></trkpt><trkpt lat="45.062034060317984" lon="7.548589898454915"><ele>307.0</ele><time>2026-04-19T16:42:23Z</time></trkpt><trkpt lat="45.06216021922197" lon="7.548322868843725"><ele>307.66666666666663</ele><time>2026-04-19T16:42:24Z</time></trkpt><trkpt lat="45.06231364135204" lon="7.5480824159051645"><ele>308.3333333333333</ele><time>2026-04-19T16:42:25Z</time></trkpt><trkpt lat="45.062442742736884" lon="7.547851258037854"><ele>309.0</ele><time>2026-04-19T16:42:26Z</time></trkpt><trkpt lat="45.06256255301879" lon="7.547659429007012"><ele>309.5</ele><time>2026-04-19T16:42:27Z</time></trkpt><trkpt lat="45.06266584644874" lon="7.547505825858825"><ele>310.0</ele><time>2026-04-19T16:42:28Z</time></trkpt><trkpt lat="45.06274919693402" lon="7.547362558435087"><ele>310.5</ele><time>2026-04-19T16:42:29Z</time></trkpt><trkpt lat="45.06281730545089" lon="7.5472171214848665"><ele>311.0</ele><time>2026-04-19T16:42:30Z</time></trkpt><trkpt lat="45.06288266983406" lon="7.54710238415816"><ele>311.6</ele><time>2026-04-19T16:42:31Z</time></trkpt><trkpt lat="45.062946546324135" lon="7.546990258337107"><ele>312.20000000000005</ele><time>2026-04-19T16:42:32Z</time></trkpt><trkpt lat="45.06301593471955" lon="7.546868455715054"><ele>312.79999999999995</ele><time>2026-04-19T16:42:33Z</time></trkpt><trkpt lat="45.063086472954694" lon="7.546740922955215"><ele>313.4</ele><time>2026-04-19T16:42:34Z</time></trkpt><trkpt lat="45.06315512475543" lon="7.546615463819118"><ele>314.0</ele><time>2026-04-19T16:42:35Z</time></trkpt><trkpt lat="45.06322221260275" lon="7.5464899995446695"><ele>314.0</ele><time>2026-04-19T16:42:36Z</time></trkpt><trkpt lat="45.06336056834927" lon="7.546449454639508"><ele>314.0</ele><time>2026-04-19T16:42:37Z</time></trkpt><trkpt lat="45.063449900411705" lon="7.546353390852928"><ele>314.0</ele><time>2026-04-19T16:42:38Z</time></trkpt><trkpt lat="45.06355134246064" lon="7.546271785637116"><ele>314.0</ele><time>2026-04-19T16:42:39Z</time></trkpt><trkpt lat="45.06366318344569" lon="7.5461922451374726"><ele>314.25</ele><time>2026-04-19T16:42:40Z</time></trkpt><trkpt lat="45.06378211016844" lon="7.546137686332467"><ele>314.5</ele><time>2026-04-19T16:42:41Z</time></trkpt><trkpt lat="45.063901581449905" lon="7.5460995132669275"><ele>314.75</ele><time>2026-04-19T16:42:42Z</time></trkpt><trkpt lat="45.06403274782262" lon="7.546080508728922"><ele>315.0</ele><time>2026-04-19T16:42:43Z</time></trkpt><trkpt lat="45.06416150236727" lon="7.546086304060931"><ele>315.25</ele><time>2026-04-19T16:42:44Z</time></trkpt><trkpt lat="45.0642834063632" lon="7.5461304031557015"><ele>315.5</ele><time>2026-04-19T16:42:45Z</time></trkpt><trkpt lat="45.06440662573507" lon="7.546146617850981"><ele>315.75</ele><time>2026-04-19T16:42:46Z</time></trkpt><trkpt lat="45.06452285722576" lon="7.546141217315485"><ele>316.0</ele><time>2026-04-19T16:42:47Z</time></trkpt><trkpt lat="45.06463163989604" lon="7.546101384097893"><ele>316.0</ele><time>2026-04-19T16:42:48Z</time></trkpt><trkpt lat="45.06474243643077" lon="7.546042071750624"><ele>316.0</ele><time>2026-04-19T16:42:49Z</time></trkpt><trkpt lat="45.06485231000628" lon="7.545952396739079"><ele>316.0</ele><time>2026-04-19T16:42:50Z</time></trkpt><trkpt lat="45.06493734608289" lon="7.545825974598028"><ele>316.0</ele><time>2026-04-19T16:42:51Z</time></trkpt><trkpt lat="45.065018972373444" lon="7.545699449836237"><ele>316.0</ele><time>2026-04-19T16:42:52Z</time></trkpt><trkpt lat="45.065079515175555" lon="7.545563056218056"><ele>316.0</ele><time>2026-04-19T16:42:53Z</time></trkpt><trkpt lat="45.06514234849629" lon="7.545413596708456"><ele>316.0</ele><time>2026-04-19T16:42:54Z</time></trkpt><trkpt lat="45.06517297779584" lon="7.545250499747336"><ele>316.0</ele><time>2026-04-19T16:42:55Z</time></trkpt><trkpt lat="45.06520331754527" lon="7.545104532819"><ele>316.0</ele><time>2026-04-19T16:42:56Z</time></trkpt><trkpt lat="45.06524297573905" lon="7.544973219628922"><ele>316.0</ele><time>2026-04-19T16:42:57Z</time></trkpt><trkpt lat="45.06529244558501" lon="7.544870105668921"><ele>316.0</ele><time>2026-04-19T16:42:58Z</time></trkpt><trkpt lat="45.0653518933639" lon="7.544785560577523"><ele>316.0</ele><time>2026-04-19T16:42:59Z</time></trkpt><trkpt lat="45.06542558160162" lon="7.5447151562372"><ele>316.0</ele><time>2026-04-19T16:43:00Z</time></trkpt><trkpt lat="45.06551211728131" lon="7.544654680825145"><ele>316.0</ele><time>2026-04-19T16:43:01Z</time></trkpt><trkpt lat="45.065602065592664" lon="7.544617144456749"><ele>316.0</ele><time>2026-04-19T16:43:02Z</time></trkpt><trkpt lat="45.06569237349211" lon="7.544600711149094"><ele>316.0</ele><time>2026-04-19T16:43:03Z</time></trkpt><trkpt lat="45.065767498784226" lon="7.544606574692974"><ele>316.0</ele><time>2026-04-19T16:43:04Z</time></trkpt><trkpt lat="45.06583701697304" lon="7.544622049063458"><ele>316.0</ele><time>2026-04-19T16:43:05Z</time></trkpt><trkpt lat="45.06590177835207" lon="7.54464353204171"><ele>316.0</ele><time>2026-04-19T16:43:06Z</time></trkpt><trkpt lat="45.065965878158295" lon="7.5446560009700905"><ele>316.16666666666663</ele><time>2026-04-19T16:43:07Z</time></trkpt><trkpt lat="45.066040189315636" lon="7.544673779103586"><ele>316.3333333333333</ele><time>2026-04-19T16:43:08Z</time></trkpt><trkpt lat="45.06612979701147" lon="7.544701798909806"><ele>316.5</ele><time>2026-04-19T16:43:10Z</time></trkpt><trkpt lat="45.06619393321277" lon="7.544722608350166"><ele>316.6666666666667</ele><time>2026-04-19T16:43:15Z</time></trkpt><trkpt lat="45.06625712234626" lon="7.544737012583812"><ele>316.83333333333337</ele><time>2026-04-19T16:43:18Z</time></trkpt><trkpt lat="45.06634887266011" lon="7.54476923283275"><ele>317.0</ele><time>2026-04-19T16:43:20Z</time></trkpt><trkpt lat="45.066423978646675" lon="7.544790095659011"><ele>317.0</ele><time>2026-04-19T16:43:21Z</time></trkpt><trkpt lat="45.0665197802828" lon="7.544816691224471"><ele>317.0</ele><time>2026-04-19T16:43:22Z</time></trkpt><trkpt lat="45.06661503702115" lon="7.5448369074718675"><ele>317.0</ele><time>2026-04-19T16:43:23Z</time></trkpt><trkpt lat="45.066694341850095" lon="7.5448515720753715"><ele>317.0</ele><time>2026-04-19T16:43:24Z</time></trkpt><trkpt lat="45.06679127886218" lon="7.5448683958718155"><ele>317.0</ele><time>2026-04-19T16:43:26Z</time></trkpt><trkpt lat="45.066874884396505" lon="7.544876872610468"><ele>317.4</ele><time>2026-04-19T16:43:29Z</time></trkpt><trkpt lat="45.06696840362863" lon="7.5448811112314145"><ele>317.79999999999995</ele><time>2026-04-19T16:43:32Z</time></trkpt><trkpt lat="45.06709160519155" lon="7.5449063962348415"><ele>318.2</ele><time>2026-04-19T16:43:34Z</time></trkpt><trkpt lat="45.06720184579845" lon="7.544941959166394"><ele>318.59999999999997</ele><time>2026-04-19T16:43:36Z</time></trkpt><trkpt lat="45.06729820830591" lon="7.544973738747647"><ele>319.0</ele><time>2026-04-19T16:43:38Z</time></trkpt><trkpt lat="45.06740375925779" lon="7.545005448591829"><ele>319.0</ele><time>2026-04-19T16:43:40Z</time></trkpt><trkpt lat="45.06752113761951" lon="7.545045479943466"><ele>319.0</ele><time>2026-04-19T16:43:42Z</time></trkpt><trkpt lat="45.06760616188604" lon="7.545074740402106"><ele>319.0</ele><time>2026-04-19T16:43:44Z</time></trkpt><trkpt lat="45.06767596392636" lon="7.54509028462491"><ele>319.0</ele><time>2026-04-19T16:43:47Z</time></trkpt><trkpt lat="45.06774129888575" lon="7.545111170743224"><ele>319.0</ele><time>2026-04-19T16:43:51Z</time></trkpt><trkpt lat="45.06783698595861" lon="7.545109577660108"><ele>319.0</ele><time>2026-04-19T16:43:54Z</time></trkpt><trkpt lat="45.06793221623866" lon="7.5451378394705415"><ele>319.0</ele><time>2026-04-19T16:43:56Z</time></trkpt><trkpt lat="45.068037810592" lon="7.545177284576331"><ele>319.0</ele><time>2026-04-19T16:43:58Z</time></trkpt><trkpt lat="45.0681069036463" lon="7.545202441804314"><ele>319.0</ele><time>2026-04-19T16:43:59Z</time></trkpt><trkpt lat="45.0681853618627" lon="7.545221273521801"><ele>319.0</ele><time>2026-04-19T16:44:00Z</time></trkpt><trkpt lat="45.068264701291014" lon="7.545242522099682"><ele>319.0</ele><time>2026-04-19T16:44:01Z</time></trkpt><trkpt lat="45.06834827409434" lon="7.545262701155655"><ele>319.0</ele><time>2026-04-19T16:44:02Z</time></trkpt><trkpt lat="45.06842866086692" lon="7.54528854053218"><ele>319.3333333333333</ele><time>2026-04-19T16:44:03Z</time></trkpt><trkpt lat="45.0685076225452" lon="7.545313399636476"><ele>319.66666666666663</ele><time>2026-04-19T16:44:04Z</time></trkpt><trkpt lat="45.068579859260915" lon="7.545337499126375"><ele>320.0</ele><time>2026-04-19T16:44:05Z</time></trkpt><trkpt lat="45.06869007254553" lon="7.545368938171278"><ele>320.3333333333333</ele><time>2026-04-19T16:44:07Z</time></trkpt><trkpt lat="45.06877528061698" lon="7.5453919448012865"><ele>320.6666666666667</ele><time>2026-04-19T16:44:09Z</time></trkpt><trkpt lat="45.06886228632885" lon="7.54541559873256"><ele>321.0</ele><time>2026-04-19T16:44:11Z</time></trkpt><trkpt lat="45.06896777347284" lon="7.54544893879448"><ele>321.0</ele><time>2026-04-19T16:44:13Z</time></trkpt><trkpt lat="45.069082590923884" lon="7.545485682371189"><ele>321.0</ele><time>2026-04-19T16:44:15Z</time></trkpt><trkpt lat="45.06920576959772" lon="7.545515312844251"><ele>321.0</ele><time>2026-04-19T16:44:17Z</time></trkpt><trkpt lat="45.06932353760948" lon="7.5455572160547115"><ele>321.0</ele><time>2026-04-19T16:44:19Z</time></trkpt><trkpt lat="45.06944659327692" lon="7.545599138489261"><ele>321.2857142857143</ele><time>2026-04-19T16:44:21Z</time></trkpt><trkpt lat="45.069511306368476" lon="7.545616927982179"><ele>321.57142857142856</ele><time>2026-04-19T16:44:22Z</time></trkpt><trkpt lat="45.06958535714049" lon="7.545638940815712"><ele>321.8571428571429</ele><time>2026-04-19T16:44:23Z</time></trkpt><trkpt lat="45.069659004289335" lon="7.545659846401516"><ele>322.1428571428571</ele><time>2026-04-19T16:44:24Z</time></trkpt><trkpt lat="45.06972853979785" lon="7.545683573741315"><ele>322.42857142857144</ele><time>2026-04-19T16:44:25Z</time></trkpt><trkpt lat="45.06979813443065" lon="7.545700748196139"><ele>322.7142857142857</ele><time>2026-04-19T16:44:26Z</time></trkpt><trkpt lat="45.069870113606996" lon="7.54572856652439"><ele>323.0</ele><time>2026-04-19T16:44:27Z</time></trkpt><trkpt lat="45.069938032795214" lon="7.545747473379981"><ele>323.28571428571433</ele><time>2026-04-19T16:44:28Z</time></trkpt><trkpt lat="45.070002329095175" lon="7.545766069200461"><ele>323.57142857142856</ele><time>2026-04-19T16:44:29Z</time></trkpt><trkpt lat="45.070065241412806" lon="7.545785088584384"><ele>323.8571428571429</ele><time>2026-04-19T16:44:30Z</time></trkpt><trkpt lat="45.070130688292814" lon="7.5458067132812925"><ele>324.14285714285717</ele><time>2026-04-19T16:44:31Z</time></trkpt><trkpt lat="45.07019504110871" lon="7.545828756564815"><ele>324.42857142857144</ele><time>2026-04-19T16:44:32Z</time></trkpt><trkpt lat="45.070258036142164" lon="7.5458529546471285"><ele>324.7142857142857</ele><time>2026-04-19T16:44:33Z</time></trkpt><trkpt lat="45.07037151505974" lon="7.545884155075839"><ele>325.0</ele><time>2026-04-19T16:44:35Z</time></trkpt><trkpt lat="45.07049950466267" lon="7.545920286006454"><ele>325.0</ele><time>2026-04-19T16:44:37Z</time></trkpt><trkpt lat="45.07056942326353" lon="7.545944536401746"><ele>325.0</ele><time>2026-04-19T16:44:38Z</time></trkpt><trkpt lat="45.070638099290434" lon="7.545966047654699"><ele>325.0</ele><time>2026-04-19T16:44:39Z</time></trkpt><trkpt lat="45.070700457511386" lon="7.545985292613489"><ele>325.0</ele><time>2026-04-19T16:44:40Z</time></trkpt><trkpt lat="45.070766650973006" lon="7.546005171493461"><ele>325.0</ele><time>2026-04-19T16:44:41Z</time></trkpt><trkpt lat="45.07088334590595" lon="7.5460390637355905"><ele>325.0</ele><time>2026-04-19T16:44:43Z</time></trkpt><trkpt lat="45.07094871378513" lon="7.546058309204965"><ele>325.0</ele><time>2026-04-19T16:44:44Z</time></trkpt><trkpt lat="45.07101033425076" lon="7.546078681193844"><ele>325.0</ele><time>2026-04-19T16:44:45Z</time></trkpt><trkpt lat="45.071074770602074" lon="7.546097045793872"><ele>325.0</ele><time>2026-04-19T16:44:46Z</time></trkpt><trkpt lat="45.071143808282365" lon="7.546117160599355"><ele>325.0</ele><time>2026-04-19T16:44:47Z</time></trkpt><trkpt lat="45.071207220186025" lon="7.546134814916998"><ele>325.0</ele><time>2026-04-19T16:44:48Z</time></trkpt><trkpt lat="45.07127072738858" lon="7.546158307005308"><ele>325.0</ele><time>2026-04-19T16:44:49Z</time></trkpt><trkpt lat="45.071378648155175" lon="7.546187569304194"><ele>325.0</ele><time>2026-04-19T16:44:51Z</time></trkpt><trkpt lat="45.07149766654747" lon="7.546224792032805"><ele>324.8</ele><time>2026-04-19T16:44:53Z</time></trkpt><trkpt lat="45.07161907969552" lon="7.546257721915321"><ele>324.6</ele><time>2026-04-19T16:44:55Z</time></trkpt><trkpt lat="45.07172439567903" lon="7.546293184293012"><ele>324.4</ele><time>2026-04-19T16:44:57Z</time></trkpt><trkpt lat="45.07181895124325" lon="7.5463258602243615"><ele>324.2</ele><time>2026-04-19T16:44:59Z</time></trkpt><trkpt lat="45.071928082834695" lon="7.546357081445903"><ele>324.0</ele><time>2026-04-19T16:45:01Z</time></trkpt><trkpt lat="45.07206143918396" lon="7.546404145792096"><ele>324.0</ele><time>2026-04-19T16:45:04Z</time></trkpt><trkpt lat="45.072145708398736" lon="7.546429814555792"><ele>324.0</ele><time>2026-04-19T16:45:06Z</time></trkpt><trkpt lat="45.072252328728936" lon="7.54646730092624"><ele>324.0</ele><time>2026-04-19T16:45:08Z</time></trkpt><trkpt lat="45.072363306966885" lon="7.546500607229059"><ele>324.0</ele><time>2026-04-19T16:45:10Z</time></trkpt><trkpt lat="45.07244803024864" lon="7.546527285384239"><ele>324.0</ele><time>2026-04-19T16:45:12Z</time></trkpt><trkpt lat="45.07253083983183" lon="7.546552089321888"><ele>323.79999999999995</ele><time>2026-04-19T16:45:14Z</time></trkpt><trkpt lat="45.07264464960433" lon="7.546581312812247"><ele>323.59999999999997</ele><time>2026-04-19T16:45:16Z</time></trkpt><trkpt lat="45.072723771183455" lon="7.546608783816757"><ele>323.4</ele><time>2026-04-19T16:45:17Z</time></trkpt><trkpt lat="45.0728121507606" lon="7.546634278400324"><ele>323.2</ele><time>2026-04-19T16:45:18Z</time></trkpt><trkpt lat="45.07289849731247" lon="7.546660035627211"><ele>323.0</ele><time>2026-04-19T16:45:19Z</time></trkpt><trkpt lat="45.07298619380655" lon="7.54668992727467"><ele>323.0</ele><time>2026-04-19T16:45:20Z</time></trkpt><trkpt lat="45.07307385640148" lon="7.546717591979529"><ele>323.0</ele><time>2026-04-19T16:45:21Z</time></trkpt><trkpt lat="45.07315191443256" lon="7.546743083367876"><ele>323.0</ele><time>2026-04-19T16:45:22Z</time></trkpt><trkpt lat="45.073221298436245" lon="7.546763754394123"><ele>323.0</ele><time>2026-04-19T16:45:23Z</time></trkpt><trkpt lat="45.07334741540247" lon="7.546801194065481"><ele>323.0</ele><time>2026-04-19T16:45:25Z</time></trkpt><trkpt lat="45.07342586865566" lon="7.546825583947181"><ele>323.5</ele><time>2026-04-19T16:45:26Z</time></trkpt><trkpt lat="45.07350806146314" lon="7.546851636554387"><ele>324.0</ele><time>2026-04-19T16:45:27Z</time></trkpt><trkpt lat="45.07358997487507" lon="7.546876820663025"><ele>324.5</ele><time>2026-04-19T16:45:28Z</time></trkpt><trkpt lat="45.0736604896664" lon="7.546904809500818"><ele>325.0</ele><time>2026-04-19T16:45:29Z</time></trkpt><trkpt lat="45.07373107510795" lon="7.546930643369784"><ele>325.5</ele><time>2026-04-19T16:45:30Z</time></trkpt><trkpt lat="45.07380856968145" lon="7.546946367636394"><ele>326.0</ele><time>2026-04-19T16:45:31Z</time></trkpt><trkpt lat="45.07388120241216" lon="7.546971798986907"><ele>326.0</ele><time>2026-04-19T16:45:32Z</time></trkpt><trkpt lat="45.07394709098529" lon="7.546989770704782"><ele>326.0</ele><time>2026-04-19T16:45:33Z</time></trkpt><trkpt lat="45.07407281658282" lon="7.547031065896722"><ele>326.0</ele><time>2026-04-19T16:45:35Z</time></trkpt><trkpt lat="45.074148739046095" lon="7.547054680601736"><ele>326.0</ele><time>2026-04-19T16:45:36Z</time></trkpt><trkpt lat="45.074215702619156" lon="7.547072779227722"><ele>326.0</ele><time>2026-04-19T16:45:37Z</time></trkpt><trkpt lat="45.07428380806906" lon="7.547094402704959"><ele>326.0</ele><time>2026-04-19T16:45:38Z</time></trkpt><trkpt lat="45.07435763270697" lon="7.547120231289411"><ele>325.42857142857144</ele><time>2026-04-19T16:45:39Z</time></trkpt><trkpt lat="45.07443105914762" lon="7.547145170878982"><ele>324.85714285714283</ele><time>2026-04-19T16:45:40Z</time></trkpt><trkpt lat="45.074502750978134" lon="7.547160896310089"><ele>324.2857142857143</ele><time>2026-04-19T16:45:41Z</time></trkpt><trkpt lat="45.0745668832953" lon="7.547178095325605"><ele>323.7142857142857</ele><time>2026-04-19T16:45:42Z</time></trkpt><trkpt lat="45.074638002649415" lon="7.547204127537182"><ele>323.1428571428571</ele><time>2026-04-19T16:45:43Z</time></trkpt><trkpt lat="45.0747117487723" lon="7.547227851550383"><ele>322.57142857142856</ele><time>2026-04-19T16:45:44Z</time></trkpt><trkpt lat="45.0747869458405" lon="7.547250437655996"><ele>322.0</ele><time>2026-04-19T16:45:45Z</time></trkpt><trkpt lat="45.07486308890164" lon="7.547275504544495"><ele>322.2857142857143</ele><time>2026-04-19T16:45:46Z</time></trkpt><trkpt lat="45.074938365282634" lon="7.547298605583417"><ele>322.57142857142856</ele><time>2026-04-19T16:45:47Z</time></trkpt><trkpt lat="45.075006549297605" lon="7.547320838232727"><ele>322.8571428571429</ele><time>2026-04-19T16:45:48Z</time></trkpt><trkpt lat="45.075073976355974" lon="7.5473424353810765"><ele>323.1428571428571</ele><time>2026-04-19T16:45:49Z</time></trkpt><trkpt lat="45.07514130039575" lon="7.547365573310075"><ele>323.42857142857144</ele><time>2026-04-19T16:45:50Z</time></trkpt><trkpt lat="45.075212996355475" lon="7.547386901401413"><ele>323.7142857142857</ele><time>2026-04-19T16:45:51Z</time></trkpt><trkpt lat="45.07528044596907" lon="7.547406540665272"><ele>324.0</ele><time>2026-04-19T16:45:52Z</time></trkpt><trkpt lat="45.075349270609564" lon="7.547425454515226"><ele>324.0</ele><time>2026-04-19T16:45:53Z</time></trkpt><trkpt lat="45.07542423564762" lon="7.547449606441489"><ele>324.0</ele><time>2026-04-19T16:45:54Z</time></trkpt><trkpt lat="45.075502738995276" lon="7.547473572726326"><ele>324.0</ele><time>2026-04-19T16:45:55Z</time></trkpt><trkpt lat="45.075581844966756" lon="7.547496890535391"><ele>324.0</ele><time>2026-04-19T16:45:56Z</time></trkpt><trkpt lat="45.07565567897061" lon="7.547520741616037"><ele>324.0</ele><time>2026-04-19T16:45:57Z</time></trkpt><trkpt lat="45.07573122098133" lon="7.547544737952587"><ele>324.0</ele><time>2026-04-19T16:45:58Z</time></trkpt><trkpt lat="45.075803151873664" lon="7.547567362173854"><ele>324.6666666666667</ele><time>2026-04-19T16:45:59Z</time></trkpt><trkpt lat="45.075876633448466" lon="7.547590732125644"><ele>325.3333333333333</ele><time>2026-04-19T16:46:00Z</time></trkpt><trkpt lat="45.07594811941039" lon="7.547614146150771"><ele>326.0</ele><time>2026-04-19T16:46:01Z</time></trkpt><trkpt lat="45.076027498835884" lon="7.547636658240733"><ele>326.66666666666663</ele><time>2026-04-19T16:46:02Z</time></trkpt><trkpt lat="45.07610610664979" lon="7.54766247088259"><ele>327.3333333333333</ele><time>2026-04-19T16:46:03Z</time></trkpt><trkpt lat="45.07618746625539" lon="7.547688611242897"><ele>328.0</ele><time>2026-04-19T16:46:04Z</time></trkpt><trkpt lat="45.076262395679045" lon="7.547711121075158"><ele>328.0</ele><time>2026-04-19T16:46:05Z</time></trkpt><trkpt lat="45.07632578301998" lon="7.547733890693169"><ele>328.0</ele><time>2026-04-19T16:46:06Z</time></trkpt><trkpt lat="45.07640700026209" lon="7.547761163239044"><ele>328.0</ele><time>2026-04-19T16:46:08Z</time></trkpt><trkpt lat="45.076488790651545" lon="7.547791750398385"><ele>328.0</ele><time>2026-04-19T16:46:11Z</time></trkpt><trkpt lat="45.07658443241315" lon="7.54781416899729"><ele>328.0</ele><time>2026-04-19T16:46:14Z</time></trkpt><trkpt lat="45.076657556178354" lon="7.547831138874523"><ele>328.0</ele><time>2026-04-19T16:46:16Z</time></trkpt><trkpt lat="45.07673566660136" lon="7.54785250645141"><ele>327.4285714285714</ele><time>2026-04-19T16:46:18Z</time></trkpt><trkpt lat="45.07679558758724" lon="7.547880677445843"><ele>326.85714285714283</ele><time>2026-04-19T16:46:19Z</time></trkpt><trkpt lat="45.07686575664643" lon="7.547897384785557"><ele>326.2857142857143</ele><time>2026-04-19T16:46:20Z</time></trkpt><trkpt lat="45.076938083775815" lon="7.547921696589983"><ele>325.71428571428567</ele><time>2026-04-19T16:46:21Z</time></trkpt><trkpt lat="45.077014988190555" lon="7.547948329389266"><ele>325.1428571428571</ele><time>2026-04-19T16:46:22Z</time></trkpt><trkpt lat="45.077088691368786" lon="7.547971544406982"><ele>324.57142857142856</ele><time>2026-04-19T16:46:23Z</time></trkpt><trkpt lat="45.07715441262813" lon="7.547987689895998"><ele>324.0</ele><time>2026-04-19T16:46:24Z</time></trkpt><trkpt lat="45.07722208235712" lon="7.548000651773525"><ele>324.0</ele><time>2026-04-19T16:46:25Z</time></trkpt><trkpt lat="45.07728918979761" lon="7.54801344089256"><ele>324.0</ele><time>2026-04-19T16:46:26Z</time></trkpt><trkpt lat="45.077352979491764" lon="7.548021165662111"><ele>324.0</ele><time>2026-04-19T16:46:27Z</time></trkpt><trkpt lat="45.0774177746056" lon="7.54802603900043"><ele>324.0</ele><time>2026-04-19T16:46:28Z</time></trkpt><trkpt lat="45.077500738795344" lon="7.548091265951491"><ele>324.0</ele><time>2026-04-19T16:46:31Z</time></trkpt><trkpt lat="45.07760779465479" lon="7.54812443569471"><ele>324.0</ele><time>2026-04-19T16:46:33Z</time></trkpt><trkpt lat="45.077713458491296" lon="7.548153978991779"><ele>323.8333333333333</ele><time>2026-04-19T16:46:35Z</time></trkpt><trkpt lat="45.07777673970488" lon="7.548172675115341"><ele>323.6666666666667</ele><time>2026-04-19T16:46:36Z</time></trkpt><trkpt lat="45.0778397095571" lon="7.5481951258528355"><ele>323.5</ele><time>2026-04-19T16:46:37Z</time></trkpt><trkpt lat="45.07792592019759" lon="7.548218154076655"><ele>323.33333333333337</ele><time>2026-04-19T16:46:39Z</time></trkpt><trkpt lat="45.07800464633319" lon="7.548246003624335"><ele>323.1666666666667</ele><time>2026-04-19T16:46:41Z</time></trkpt><trkpt lat="45.07808823759799" lon="7.548271153934678"><ele>323.0</ele><time>2026-04-19T16:46:43Z</time></trkpt><trkpt lat="45.078161131365235" lon="7.548285157527136"><ele>323.0</ele><time>2026-04-19T16:46:46Z</time></trkpt><trkpt lat="45.07824294533895" lon="7.548325562275104"><ele>323.0</ele><time>2026-04-19T16:46:48Z</time></trkpt><trkpt lat="45.07833396087838" lon="7.548356183038465"><ele>323.0</ele><time>2026-04-19T16:46:50Z</time></trkpt><trkpt lat="45.07842617550053" lon="7.548385958228614"><ele>323.0</ele><time>2026-04-19T16:46:52Z</time></trkpt><trkpt lat="45.07852698422019" lon="7.54841677932436"><ele>323.0</ele><time>2026-04-19T16:46:54Z</time></trkpt><trkpt lat="45.07860401837151" lon="7.548444232540955"><ele>323.2</ele><time>2026-04-19T16:46:56Z</time></trkpt><trkpt lat="45.07867661745362" lon="7.548462388212122"><ele>323.4</ele><time>2026-04-19T16:46:59Z</time></trkpt><trkpt lat="45.07873357575207" lon="7.548538071257537"><ele>323.59999999999997</ele><time>2026-04-19T16:47:05Z</time></trkpt><trkpt lat="45.078775535299755" lon="7.54860596942086"><ele>323.79999999999995</ele><time>2026-04-19T16:47:07Z</time></trkpt><trkpt lat="45.078920230982725" lon="7.548634144173113"><ele>324.0</ele><time>2026-04-19T16:47:09Z</time></trkpt><trkpt lat="45.07901306466286" lon="7.548666267354042"><ele>324.0</ele><time>2026-04-19T16:47:10Z</time></trkpt><trkpt lat="45.07909830943229" lon="7.5486945707742095"><ele>324.0</ele><time>2026-04-19T16:47:11Z</time></trkpt><trkpt lat="45.07918517760128" lon="7.548722405205494"><ele>324.0</ele><time>2026-04-19T16:47:12Z</time></trkpt><trkpt lat="45.079265129348606" lon="7.548750126183276"><ele>324.0</ele><time>2026-04-19T16:47:13Z</time></trkpt><trkpt lat="45.07934101095879" lon="7.548780175794985"><ele>324.0</ele><time>2026-04-19T16:47:14Z</time></trkpt><trkpt lat="45.07941600025258" lon="7.548811195448177"><ele>324.0</ele><time>2026-04-19T16:47:15Z</time></trkpt><trkpt lat="45.07949122745081" lon="7.548845972488994"><ele>323.5</ele><time>2026-04-19T16:47:16Z</time></trkpt><trkpt lat="45.07956115405813" lon="7.548884153555586"><ele>323.0</ele><time>2026-04-19T16:47:17Z</time></trkpt><trkpt lat="45.079625596756095" lon="7.548920945793202"><ele>322.5</ele><time>2026-04-19T16:47:18Z</time></trkpt><trkpt lat="45.07972600571802" lon="7.548975312347519"><ele>322.0</ele><time>2026-04-19T16:47:20Z</time></trkpt><trkpt lat="45.07979036802449" lon="7.54901078340284"><ele>321.5</ele><time>2026-04-19T16:47:24Z</time></trkpt><trkpt lat="45.07983715044077" lon="7.5490773932185204"><ele>321.0</ele><time>2026-04-19T16:47:47Z</time></trkpt><trkpt lat="45.079894044508755" lon="7.549120193080698"><ele>320.6</ele><time>2026-04-19T16:48:11Z</time></trkpt><trkpt lat="45.07999658626096" lon="7.549219950229858"><ele>320.20000000000005</ele><time>2026-04-19T16:48:20Z</time></trkpt><trkpt lat="45.08007652801347" lon="7.549311974543773"><ele>319.79999999999995</ele><time>2026-04-19T16:48:22Z</time></trkpt><trkpt lat="45.08017449925515" lon="7.549431874280517"><ele>319.4</ele><time>2026-04-19T16:48:24Z</time></trkpt><trkpt lat="45.08022500592789" lon="7.549515243732681"><ele>319.0</ele><time>2026-04-19T16:48:25Z</time></trkpt><trkpt lat="45.0802847020476" lon="7.549589319197477"><ele>318.5</ele><time>2026-04-19T16:48:26Z</time></trkpt><trkpt lat="45.080345720351225" lon="7.549666218514209"><ele>318.0</ele><time>2026-04-19T16:48:27Z</time></trkpt><trkpt lat="45.08040077373185" lon="7.549742405538711"><ele>317.5</ele><time>2026-04-19T16:48:28Z</time></trkpt><trkpt lat="45.080455351391876" lon="7.549822739141674"><ele>317.0</ele><time>2026-04-19T16:48:29Z</time></trkpt><trkpt lat="45.0805214239544" lon="7.549889497556983"><ele>316.5</ele><time>2026-04-19T16:48:30Z</time></trkpt><trkpt lat="45.08057543009946" lon="7.549975360592059"><ele>316.0</ele><time>2026-04-19T16:48:31Z</time></trkpt><trkpt lat="45.08061201669542" lon="7.550068986890764"><ele>316.0</ele><time>2026-04-19T16:48:32Z</time></trkpt><trkpt lat="45.080658387106766" lon="7.550155526627733"><ele>316.0</ele><time>2026-04-19T16:48:33Z</time></trkpt><trkpt lat="45.0807167463248" lon="7.550227166039195"><ele>316.0</ele><time>2026-04-19T16:48:34Z</time></trkpt><trkpt lat="45.08076318548434" lon="7.550322910488627"><ele>316.0</ele><time>2026-04-19T16:48:35Z</time></trkpt><trkpt lat="45.08080933633187" lon="7.550425841162893"><ele>316.0</ele><time>2026-04-19T16:48:36Z</time></trkpt><trkpt lat="45.08085619520506" lon="7.550537069411678"><ele>316.0</ele><time>2026-04-19T16:48:37Z</time></trkpt><trkpt lat="45.08089000147743" lon="7.5506547888891316"><ele>315.8</ele><time>2026-04-19T16:48:38Z</time></trkpt><trkpt lat="45.08093286442776" lon="7.550768362738307"><ele>315.6</ele><time>2026-04-19T16:48:39Z</time></trkpt><trkpt lat="45.08097583813203" lon="7.550880656372827"><ele>315.4</ele><time>2026-04-19T16:48:40Z</time></trkpt><trkpt lat="45.08101791099531" lon="7.551001069452242"><ele>315.2</ele><time>2026-04-19T16:48:41Z</time></trkpt><trkpt lat="45.08105624139764" lon="7.551115574829618"><ele>315.0</ele><time>2026-04-19T16:48:42Z</time></trkpt><trkpt lat="45.081096763727324" lon="7.5512467635264136"><ele>314.4</ele><time>2026-04-19T16:48:43Z</time></trkpt><trkpt lat="45.08113171667381" lon="7.551388977867885"><ele>313.8</ele><time>2026-04-19T16:48:44Z</time></trkpt><trkpt lat="45.081170145750065" lon="7.551537163754352"><ele>313.2</ele><time>2026-04-19T16:48:45Z</time></trkpt><trkpt lat="45.08120754298548" lon="7.551682393909348"><ele>312.6</ele><time>2026-04-19T16:48:46Z</time></trkpt><trkpt lat="45.08124915243265" lon="7.5518310841159435"><ele>312.0</ele><time>2026-04-19T16:48:47Z</time></trkpt><trkpt lat="45.0812959220631" lon="7.551990011424267"><ele>311.25</ele><time>2026-04-19T16:48:48Z</time></trkpt><trkpt lat="45.081345516699834" lon="7.552156222301401"><ele>310.5</ele><time>2026-04-19T16:48:49Z</time></trkpt><trkpt lat="45.08139333178748" lon="7.55232286853817"><ele>309.75</ele><time>2026-04-19T16:48:50Z</time></trkpt><trkpt lat="45.08144380307337" lon="7.5524959635963675"><ele>309.0</ele><time>2026-04-19T16:48:51Z</time></trkpt><trkpt lat="45.08149467283966" lon="7.552679110067417"><ele>309.0</ele><time>2026-04-19T16:48:52Z</time></trkpt><trkpt lat="45.081548724457804" lon="7.552860898986412"><ele>309.0</ele><time>2026-04-19T16:48:53Z</time></trkpt><trkpt lat="45.08160656267468" lon="7.553043108046139"><ele>309.0</ele><time>2026-04-19T16:48:54Z</time></trkpt><trkpt lat="45.0816640388835" lon="7.553219110842539"><ele>309.0</ele><time>2026-04-19T16:48:55Z</time></trkpt><trkpt lat="45.08172211326189" lon="7.553392406238435"><ele>310.5</ele><time>2026-04-19T16:48:56Z</time></trkpt><trkpt lat="45.08177701202063" lon="7.553559376730401"><ele>312.0</ele><time>2026-04-19T16:48:57Z</time></trkpt><trkpt lat="45.081832287324815" lon="7.553718302940222"><ele>313.5</ele><time>2026-04-19T16:48:58Z</time></trkpt><trkpt lat="45.081889912865435" lon="7.553878822016137"><ele>315.0</ele><time>2026-04-19T16:48:59Z</time></trkpt><trkpt lat="45.08195016694458" lon="7.554038958253062"><ele>315.0</ele><time>2026-04-19T16:49:00Z</time></trkpt><trkpt lat="45.08201355699179" lon="7.554193214160084"><ele>315.0</ele><time>2026-04-19T16:49:01Z</time></trkpt><trkpt lat="45.08207907369222" lon="7.554353126983791"><ele>315.0</ele><time>2026-04-19T16:49:02Z</time></trkpt><trkpt lat="45.082146536921904" lon="7.554507569746247"><ele>315.0</ele><time>2026-04-19T16:49:03Z</time></trkpt><trkpt lat="45.08221248433757" lon="7.554661566701082"><ele>315.0</ele><time>2026-04-19T16:49:04Z</time></trkpt><trkpt lat="45.082279336706925" lon="7.554811371871682"><ele>315.0</ele><time>2026-04-19T16:49:05Z</time></trkpt><trkpt lat="45.082345014799444" lon="7.5549552360623515"><ele>315.0</ele><time>2026-04-19T16:49:06Z</time></trkpt><trkpt lat="45.082415653126624" lon="7.55509911852093"><ele>315.0</ele><time>2026-04-19T16:49:07Z</time></trkpt><trkpt lat="45.08248344996544" lon="7.555241727727636"><ele>315.5</ele><time>2026-04-19T16:49:08Z</time></trkpt><trkpt lat="45.0825528646613" lon="7.555378756074226"><ele>316.0</ele><time>2026-04-19T16:49:09Z</time></trkpt><trkpt lat="45.082624188688676" lon="7.555516536917822"><ele>316.5</ele><time>2026-04-19T16:49:10Z</time></trkpt><trkpt lat="45.08269519341747" lon="7.55565170644494"><ele>317.0</ele><time>2026-04-19T16:49:11Z</time></trkpt><trkpt lat="45.08276703330241" lon="7.555784482778952"><ele>317.0</ele><time>2026-04-19T16:49:12Z</time></trkpt><trkpt lat="45.08284190213726" lon="7.555916824090274"><ele>317.0</ele><time>2026-04-19T16:49:13Z</time></trkpt><trkpt lat="45.08291933415592" lon="7.55604508426697"><ele>317.0</ele><time>2026-04-19T16:49:14Z</time></trkpt><trkpt lat="45.08299741354725" lon="7.556175196427385"><ele>317.0</ele><time>2026-04-19T16:49:15Z</time></trkpt><trkpt lat="45.083075491582065" lon="7.556305828581094"><ele>316.5</ele><time>2026-04-19T16:49:16Z</time></trkpt><trkpt lat="45.08315542845283" lon="7.556434189292059"><ele>316.0</ele><time>2026-04-19T16:49:17Z</time></trkpt><trkpt lat="45.08323612119656" lon="7.556560996269603"><ele>315.5</ele><time>2026-04-19T16:49:18Z</time></trkpt><trkpt lat="45.083319709555475" lon="7.556684273231056"><ele>315.0</ele><time>2026-04-19T16:49:19Z</time></trkpt><trkpt lat="45.08340524888469" lon="7.55680698187344"><ele>315.0</ele><time>2026-04-19T16:49:20Z</time></trkpt><trkpt lat="45.0834921809984" lon="7.556931976853642"><ele>315.0</ele><time>2026-04-19T16:49:21Z</time></trkpt><trkpt lat="45.083579432942294" lon="7.557055512223761"><ele>315.0</ele><time>2026-04-19T16:49:22Z</time></trkpt><trkpt lat="45.08366806908621" lon="7.557175783293038"><ele>315.0</ele><time>2026-04-19T16:49:23Z</time></trkpt><trkpt lat="45.08375635915666" lon="7.55729330165697"><ele>314.5</ele><time>2026-04-19T16:49:24Z</time></trkpt><trkpt lat="45.08384482046184" lon="7.557407224155973"><ele>314.0</ele><time>2026-04-19T16:49:25Z</time></trkpt><trkpt lat="45.083931601310084" lon="7.557517537853883"><ele>313.5</ele><time>2026-04-19T16:49:26Z</time></trkpt><trkpt lat="45.084015613140494" lon="7.557624691306041"><ele>313.0</ele><time>2026-04-19T16:49:27Z</time></trkpt><trkpt lat="45.08409733686461" lon="7.5577284483822735"><ele>313.0</ele><time>2026-04-19T16:49:28Z</time></trkpt><trkpt lat="45.084178461514135" lon="7.557830842462786"><ele>313.0</ele><time>2026-04-19T16:49:29Z</time></trkpt><trkpt lat="45.08425886648837" lon="7.557934280245161"><ele>313.0</ele><time>2026-04-19T16:49:30Z</time></trkpt><trkpt lat="45.08434119980621" lon="7.558036978654917"><ele>313.0</ele><time>2026-04-19T16:49:31Z</time></trkpt><trkpt lat="45.0844271841622" lon="7.558140803051545"><ele>313.0</ele><time>2026-04-19T16:49:32Z</time></trkpt><trkpt lat="45.08451358500767" lon="7.558249207090409"><ele>313.0</ele><time>2026-04-19T16:49:33Z</time></trkpt><trkpt lat="45.084598885915995" lon="7.55835880984142"><ele>313.0</ele><time>2026-04-19T16:49:34Z</time></trkpt><trkpt lat="45.084687395013994" lon="7.558469807289914"><ele>313.0</ele><time>2026-04-19T16:49:35Z</time></trkpt><trkpt lat="45.08477482471024" lon="7.558579009049358"><ele>313.0</ele><time>2026-04-19T16:49:36Z</time></trkpt><trkpt lat="45.08486593172502" lon="7.558691822421851"><ele>313.5</ele><time>2026-04-19T16:49:37Z</time></trkpt><trkpt lat="45.08495927716709" lon="7.558808930748549"><ele>314.0</ele><time>2026-04-19T16:49:38Z</time></trkpt><trkpt lat="45.08505530232976" lon="7.5589282616161455"><ele>314.5</ele><time>2026-04-19T16:49:39Z</time></trkpt><trkpt lat="45.085152320895965" lon="7.559049837390578"><ele>315.0</ele><time>2026-04-19T16:49:40Z</time></trkpt><trkpt lat="45.08525017604257" lon="7.559171773982704"><ele>315.0</ele><time>2026-04-19T16:49:41Z</time></trkpt><trkpt lat="45.085349331178456" lon="7.559297631410415"><ele>315.0</ele><time>2026-04-19T16:49:42Z</time></trkpt><trkpt lat="45.08544897940123" lon="7.559422479545006"><ele>315.0</ele><time>2026-04-19T16:49:43Z</time></trkpt><trkpt lat="45.08554492240609" lon="7.559547542030372"><ele>315.0</ele><time>2026-04-19T16:49:44Z</time></trkpt><trkpt lat="45.08563512140746" lon="7.559663782813572"><ele>314.75</ele><time>2026-04-19T16:49:45Z</time></trkpt><trkpt lat="45.0857255142196" lon="7.559774918222439"><ele>314.5</ele><time>2026-04-19T16:49:46Z</time></trkpt><trkpt lat="45.085813922686796" lon="7.55988782540732"><ele>314.25</ele><time>2026-04-19T16:49:47Z</time></trkpt><trkpt lat="45.085903097498694" lon="7.5600021501568655"><ele>314.0</ele><time>2026-04-19T16:49:48Z</time></trkpt><trkpt lat="45.085994628782274" lon="7.560115298481507"><ele>313.8</ele><time>2026-04-19T16:49:49Z</time></trkpt><trkpt lat="45.086085074596575" lon="7.560224674130304"><ele>313.59999999999997</ele><time>2026-04-19T16:49:50Z</time></trkpt><trkpt lat="45.08617452415934" lon="7.56032833060104"><ele>313.4</ele><time>2026-04-19T16:49:51Z</time></trkpt><trkpt lat="45.08625061917149" lon="7.560429007929142"><ele>313.2</ele><time>2026-04-19T16:49:52Z</time></trkpt><trkpt lat="45.08632019225306" lon="7.560520370445606"><ele>313.0</ele><time>2026-04-19T16:49:53Z</time></trkpt><trkpt lat="45.0863885903276" lon="7.560611100660484"><ele>313.0</ele><time>2026-04-19T16:49:54Z</time></trkpt><trkpt lat="45.08646422227929" lon="7.560685533047912"><ele>313.0</ele><time>2026-04-19T16:49:55Z</time></trkpt><trkpt lat="45.086524742268615" lon="7.560789127314583"><ele>313.0</ele><time>2026-04-19T16:49:56Z</time></trkpt><trkpt lat="45.0865905632481" lon="7.560865935614753"><ele>313.0</ele><time>2026-04-19T16:49:57Z</time></trkpt><trkpt lat="45.0866576083852" lon="7.560939546824479"><ele>313.0</ele><time>2026-04-19T16:49:58Z</time></trkpt><trkpt lat="45.08671888408804" lon="7.5610175786235345"><ele>313.0</ele><time>2026-04-19T16:49:59Z</time></trkpt><trkpt lat="45.086776233395014" lon="7.5610937739125115"><ele>311.8333333333333</ele><time>2026-04-19T16:50:00Z</time></trkpt><trkpt lat="45.086832011834886" lon="7.561164587761194"><ele>310.66666666666663</ele><time>2026-04-19T16:50:01Z</time></trkpt><trkpt lat="45.086883052107254" lon="7.561228422857408"><ele>309.5</ele><time>2026-04-19T16:50:02Z</time></trkpt><trkpt lat="45.0869305856806" lon="7.561290009541126"><ele>308.3333333333333</ele><time>2026-04-19T16:50:03Z</time></trkpt><trkpt lat="45.086978703233505" lon="7.561347598682901"><ele>307.1666666666667</ele><time>2026-04-19T16:50:04Z</time></trkpt><trkpt lat="45.08707215794856" lon="7.561475942246658"><ele>306.0</ele><time>2026-04-19T16:50:06Z</time></trkpt><trkpt lat="45.087125387934044" lon="7.5615451113184085"><ele>305.42857142857144</ele><time>2026-04-19T16:50:07Z</time></trkpt><trkpt lat="45.08717554041604" lon="7.561608588058046"><ele>304.8571428571429</ele><time>2026-04-19T16:50:08Z</time></trkpt><trkpt lat="45.08722451379896" lon="7.561671370223503"><ele>304.28571428571433</ele><time>2026-04-19T16:50:09Z</time></trkpt><trkpt lat="45.087303276157705" lon="7.561763779771909"><ele>303.7142857142857</ele><time>2026-04-19T16:50:11Z</time></trkpt><trkpt lat="45.08736247179421" lon="7.561841890022058"><ele>303.14285714285717</ele><time>2026-04-19T16:50:13Z</time></trkpt><trkpt lat="45.08741035752493" lon="7.561904317003095"><ele>302.5714285714286</ele><time>2026-04-19T16:50:17Z</time></trkpt><trkpt lat="45.08747061712413" lon="7.561945258574088"><ele>302.0</ele><time>2026-04-19T16:50:34Z</time></trkpt><trkpt lat="45.087543387073374" lon="7.561999273228144"><ele>301.1666666666667</ele><time>2026-04-19T16:50:37Z</time></trkpt><trkpt lat="45.08759485174732" lon="7.562075708119347"><ele>300.33333333333337</ele><time>2026-04-19T16:50:39Z</time></trkpt><trkpt lat="45.08765890157253" lon="7.562155374192171"><ele>299.5</ele><time>2026-04-19T16:50:41Z</time></trkpt><trkpt lat="45.08772543485943" lon="7.562243939862662"><ele>298.6666666666667</ele><time>2026-04-19T16:50:43Z</time></trkpt><trkpt lat="45.087795969088454" lon="7.562337053091868"><ele>297.8333333333333</ele><time>2026-04-19T16:50:45Z</time></trkpt><trkpt lat="45.087866472840716" lon="7.562424900511551"><ele>297.0</ele><time>2026-04-19T16:50:47Z</time></trkpt><trkpt lat="45.087941652242826" lon="7.562521774994185"><ele>297.0</ele><time>2026-04-19T16:50:49Z</time></trkpt><trkpt lat="45.08798723942773" lon="7.562584912711708"><ele>297.0</ele><time>2026-04-19T16:50:50Z</time></trkpt><trkpt lat="45.08810395353864" lon="7.562719890604345"><ele>297.0</ele><time>2026-04-19T16:50:52Z</time></trkpt><trkpt lat="45.08817168703766" lon="7.562801056585854"><ele>297.0</ele><time>2026-04-19T16:50:53Z</time></trkpt><trkpt lat="45.088256828688046" lon="7.562887306090736"><ele>297.0</ele><time>2026-04-19T16:50:54Z</time></trkpt><trkpt lat="45.08835963694625" lon="7.563001537742922"><ele>295.6666666666667</ele><time>2026-04-19T16:50:55Z</time></trkpt><trkpt lat="45.088476255200845" lon="7.563141121461565"><ele>294.33333333333337</ele><time>2026-04-19T16:50:56Z</time></trkpt><trkpt lat="45.08860276913112" lon="7.5633038115318545"><ele>293.0</ele><time>2026-04-19T16:50:57Z</time></trkpt><trkpt lat="45.08873932271051" lon="7.563473867491271"><ele>293.0</ele><time>2026-04-19T16:50:58Z</time></trkpt><trkpt lat="45.088883283227446" lon="7.563658207364807"><ele>293.0</ele><time>2026-04-19T16:50:59Z</time></trkpt><trkpt lat="45.089048979805725" lon="7.5638667606651175"><ele>293.0</ele><time>2026-04-19T16:51:00Z</time></trkpt><trkpt lat="45.08922442881325" lon="7.564085059603053"><ele>293.5</ele><time>2026-04-19T16:51:01Z</time></trkpt><trkpt lat="45.0894133808425" lon="7.564327042410891"><ele>294.0</ele><time>2026-04-19T16:51:02Z</time></trkpt><trkpt lat="45.08960401000622" lon="7.564570766691409"><ele>293.5</ele><time>2026-04-19T16:51:03Z</time></trkpt><trkpt lat="45.08982073206578" lon="7.56484445847053"><ele>293.0</ele><time>2026-04-19T16:51:04Z</time></trkpt><trkpt lat="45.09005253034204" lon="7.565130871688165"><ele>292.5</ele><time>2026-04-19T16:51:05Z</time></trkpt><trkpt lat="45.09029045879818" lon="7.565433279507409"><ele>292.0</ele><time>2026-04-19T16:51:06Z</time></trkpt><trkpt lat="45.09053815565766" lon="7.5657448986198155"><ele>293.0</ele><time>2026-04-19T16:51:07Z</time></trkpt><trkpt lat="45.090790832476756" lon="7.566064586909643"><ele>294.0</ele><time>2026-04-19T16:51:08Z</time></trkpt><trkpt lat="45.091046213267944" lon="7.566387334116114"><ele>294.5</ele><time>2026-04-19T16:51:09Z</time></trkpt><trkpt lat="45.09130267986741" lon="7.566711730606956"><ele>295.0</ele><time>2026-04-19T16:51:10Z</time></trkpt><trkpt lat="45.091561369439376" lon="7.567038485230596"><ele>296.0</ele><time>2026-04-19T16:51:11Z</time></trkpt><trkpt lat="45.09181886131236" lon="7.567365010119878"><ele>297.0</ele><time>2026-04-19T16:51:12Z</time></trkpt><trkpt lat="45.092077844256906" lon="7.567693147161253"><ele>298.0</ele><time>2026-04-19T16:51:13Z</time></trkpt><trkpt lat="45.09233964726894" lon="7.568026462916369"><ele>299.0</ele><time>2026-04-19T16:51:14Z</time></trkpt><trkpt lat="45.09260082484998" lon="7.568360475463356"><ele>298.5</ele><time>2026-04-19T16:51:15Z</time></trkpt><trkpt lat="45.09286934098997" lon="7.568699420695736"><ele>298.0</ele><time>2026-04-19T16:51:16Z</time></trkpt><trkpt lat="45.09314011604891" lon="7.5690352318440395"><ele>299.5</ele><time>2026-04-19T16:51:17Z</time></trkpt><trkpt lat="45.09341740384148" lon="7.569380762487235"><ele>301.0</ele><time>2026-04-19T16:51:18Z</time></trkpt><trkpt lat="45.093696332261835" lon="7.569728375541495"><ele>301.0</ele><time>2026-04-19T16:51:19Z</time></trkpt><trkpt lat="45.09397811317918" lon="7.570078188148366"><ele>301.0</ele><time>2026-04-19T16:51:20Z</time></trkpt><trkpt lat="45.09425650496612" lon="7.570425066132866"><ele>300.0</ele><time>2026-04-19T16:51:21Z</time></trkpt><trkpt lat="45.09454102887085" lon="7.570778704345981"><ele>299.0</ele><time>2026-04-19T16:51:22Z</time></trkpt><trkpt lat="45.094824208916975" lon="7.571139526939115"><ele>298.0</ele><time>2026-04-19T16:51:23Z</time></trkpt><trkpt lat="45.095113301877525" lon="7.5714969777757135"><ele>297.0</ele><time>2026-04-19T16:51:24Z</time></trkpt><trkpt lat="45.09540177692897" lon="7.571857012375554"><ele>296.5</ele><time>2026-04-19T16:51:25Z</time></trkpt><trkpt lat="45.09569376463503" lon="7.572222188522384"><ele>296.0</ele><time>2026-04-19T16:51:26Z</time></trkpt><trkpt lat="45.09598213399226" lon="7.572596285419117"><ele>296.5</ele><time>2026-04-19T16:51:27Z</time></trkpt><trkpt lat="45.096269693348276" lon="7.5729792428660945"><ele>297.0</ele><time>2026-04-19T16:51:28Z</time></trkpt><trkpt lat="45.09653811894885" lon="7.573374202392536"><ele>296.5</ele><time>2026-04-19T16:51:29Z</time></trkpt><trkpt lat="45.09679823719579" lon="7.573784419161657"><ele>296.0</ele><time>2026-04-19T16:51:30Z</time></trkpt><trkpt lat="45.09704570620952" lon="7.5742088142927875"><ele>296.0</ele><time>2026-04-19T16:51:31Z</time></trkpt><trkpt lat="45.097281332622465" lon="7.574644206158688"><ele>296.0</ele><time>2026-04-19T16:51:32Z</time></trkpt><trkpt lat="45.09751062555699" lon="7.575093461145285"><ele>296.0</ele><time>2026-04-19T16:51:33Z</time></trkpt><trkpt lat="45.097724134675545" lon="7.575549268709078"><ele>296.0</ele><time>2026-04-19T16:51:34Z</time></trkpt><trkpt lat="45.09792655626536" lon="7.5760168517176405"><ele>296.5</ele><time>2026-04-19T16:51:35Z</time></trkpt><trkpt lat="45.09811802312688" lon="7.576496275439157"><ele>297.0</ele><time>2026-04-19T16:51:36Z</time></trkpt><trkpt lat="45.09829587271305" lon="7.576987319265789"><ele>296.0</ele><time>2026-04-19T16:51:37Z</time></trkpt><trkpt lat="45.09846406712947" lon="7.577492818866243"><ele>295.0</ele><time>2026-04-19T16:51:38Z</time></trkpt><trkpt lat="45.09862203299727" lon="7.578004153529258"><ele>294.5</ele><time>2026-04-19T16:51:39Z</time></trkpt><trkpt lat="45.098767418542415" lon="7.578512971323961"><ele>294.0</ele><time>2026-04-19T16:51:40Z</time></trkpt><trkpt lat="45.09891013175053" lon="7.579014481641446"><ele>293.0</ele><time>2026-04-19T16:51:41Z</time></trkpt><trkpt lat="45.09904882290551" lon="7.579506126933937"><ele>292.0</ele><time>2026-04-19T16:51:42Z</time></trkpt><trkpt lat="45.09918092588696" lon="7.579992296936292"><ele>291.0</ele><time>2026-04-19T16:51:43Z</time></trkpt><trkpt lat="45.09931511325222" lon="7.580472359800796"><ele>290.0</ele><time>2026-04-19T16:51:44Z</time></trkpt><trkpt lat="45.099453115790624" lon="7.580950290202407"><ele>289.0</ele><time>2026-04-19T16:51:45Z</time></trkpt><trkpt lat="45.09959202290158" lon="7.581414854887644"><ele>288.0</ele><time>2026-04-19T16:51:46Z</time></trkpt><trkpt lat="45.09972327605882" lon="7.581882375704938"><ele>288.5</ele><time>2026-04-19T16:51:47Z</time></trkpt><trkpt lat="45.09985386815916" lon="7.582348387953743"><ele>289.0</ele><time>2026-04-19T16:51:48Z</time></trkpt><trkpt lat="45.09998649730607" lon="7.582817098388455"><ele>288.5</ele><time>2026-04-19T16:51:49Z</time></trkpt><trkpt lat="45.10011627627505" lon="7.58329745594792"><ele>288.0</ele><time>2026-04-19T16:51:50Z</time></trkpt><trkpt lat="45.100247926633216" lon="7.583788318160703"><ele>287.5</ele><time>2026-04-19T16:51:51Z</time></trkpt><trkpt lat="45.100384962093585" lon="7.5842865171848395"><ele>287.0</ele><time>2026-04-19T16:51:52Z</time></trkpt><trkpt lat="45.10052529589304" lon="7.584788497795578"><ele>287.0</ele><time>2026-04-19T16:51:53Z</time></trkpt><trkpt lat="45.10066486801243" lon="7.585294959192987"><ele>287.0</ele><time>2026-04-19T16:51:54Z</time></trkpt><trkpt lat="45.1008048052032" lon="7.585800640261334"><ele>287.0</ele><time>2026-04-19T16:51:55Z</time></trkpt><trkpt lat="45.100943420617696" lon="7.5863081148570295"><ele>287.0</ele><time>2026-04-19T16:51:56Z</time></trkpt><trkpt lat="45.101082330766914" lon="7.586817636290572"><ele>286.5</ele><time>2026-04-19T16:51:57Z</time></trkpt><trkpt lat="45.10122110406975" lon="7.587332689349761"><ele>286.0</ele><time>2026-04-19T16:51:58Z</time></trkpt><trkpt lat="45.1013630306824" lon="7.587847163670686"><ele>286.0</ele><time>2026-04-19T16:51:59Z</time></trkpt><trkpt lat="45.10150354951739" lon="7.588363860184309"><ele>286.0</ele><time>2026-04-19T16:52:00Z</time></trkpt><trkpt lat="45.10164584305934" lon="7.5888787205526445"><ele>285.0</ele><time>2026-04-19T16:52:01Z</time></trkpt><trkpt lat="45.101790371584194" lon="7.589381704648601"><ele>284.0</ele><time>2026-04-19T16:52:02Z</time></trkpt><trkpt lat="45.101932007766365" lon="7.589883048175318"><ele>284.5</ele><time>2026-04-19T16:52:03Z</time></trkpt><trkpt lat="45.102067914390574" lon="7.5903817248646845"><ele>285.0</ele><time>2026-04-19T16:52:04Z</time></trkpt><trkpt lat="45.10220156251676" lon="7.590879253753104"><ele>285.5</ele><time>2026-04-19T16:52:05Z</time></trkpt><trkpt lat="45.10233579091005" lon="7.5913752004905914"><ele>286.0</ele><time>2026-04-19T16:52:06Z</time></trkpt><trkpt lat="45.10247128053401" lon="7.591867094159425"><ele>284.5</ele><time>2026-04-19T16:52:07Z</time></trkpt><trkpt lat="45.10260505921899" lon="7.592352871355333"><ele>283.0</ele><time>2026-04-19T16:52:08Z</time></trkpt><trkpt lat="45.1027402265243" lon="7.592836473285244"><ele>283.0</ele><time>2026-04-19T16:52:09Z</time></trkpt><trkpt lat="45.10287404891355" lon="7.593315892353128"><ele>283.0</ele><time>2026-04-19T16:52:10Z</time></trkpt><trkpt lat="45.10300380013604" lon="7.593796942171042"><ele>283.0</ele><time>2026-04-19T16:52:11Z</time></trkpt><trkpt lat="45.10313334668862" lon="7.5942783590580545"><ele>283.0</ele><time>2026-04-19T16:52:12Z</time></trkpt><trkpt lat="45.103263086150776" lon="7.5947601388488755"><ele>283.0</ele><time>2026-04-19T16:52:13Z</time></trkpt><trkpt lat="45.10338845582229" lon="7.595241992374246"><ele>283.0</ele><time>2026-04-19T16:52:14Z</time></trkpt><trkpt lat="45.10351409133159" lon="7.59572399423975"><ele>282.5</ele><time>2026-04-19T16:52:15Z</time></trkpt><trkpt lat="45.1036403384674" lon="7.59620629078681"><ele>282.0</ele><time>2026-04-19T16:52:16Z</time></trkpt><trkpt lat="45.10376820397262" lon="7.596685475546256"><ele>281.0</ele><time>2026-04-19T16:52:17Z</time></trkpt><trkpt lat="45.103900762834805" lon="7.597163257439386"><ele>280.0</ele><time>2026-04-19T16:52:18Z</time></trkpt><trkpt lat="45.10403607233363" lon="7.597644039957356"><ele>281.0</ele><time>2026-04-19T16:52:19Z</time></trkpt><trkpt lat="45.104169733188634" lon="7.598123277945342"><ele>282.0</ele><time>2026-04-19T16:52:20Z</time></trkpt><trkpt lat="45.10430610379377" lon="7.598602297071989"><ele>281.0</ele><time>2026-04-19T16:52:21Z</time></trkpt><trkpt lat="45.1044381195751" lon="7.599083013941053"><ele>280.0</ele><time>2026-04-19T16:52:22Z</time></trkpt><trkpt lat="45.10456823190442" lon="7.599566777350901"><ele>279.0</ele><time>2026-04-19T16:52:23Z</time></trkpt><trkpt lat="45.10470033431915" lon="7.600056696164026"><ele>278.0</ele><time>2026-04-19T16:52:24Z</time></trkpt><trkpt lat="45.10483071937723" lon="7.600531634905597"><ele>278.5</ele><time>2026-04-19T16:52:25Z</time></trkpt><trkpt lat="45.10496102907142" lon="7.601002886013215"><ele>279.0</ele><time>2026-04-19T16:52:26Z</time></trkpt><trkpt lat="45.10509190653222" lon="7.601471368629221"><ele>278.0</ele><time>2026-04-19T16:52:27Z</time></trkpt><trkpt lat="45.105222126001955" lon="7.6019346326808215"><ele>277.0</ele><time>2026-04-19T16:52:28Z</time></trkpt><trkpt lat="45.10535070989295" lon="7.6023927657398715"><ele>277.0</ele><time>2026-04-19T16:52:29Z</time></trkpt><trkpt lat="45.10547616788562" lon="7.602822963998433"><ele>277.0</ele><time>2026-04-19T16:52:30Z</time></trkpt><trkpt lat="45.10561714098321" lon="7.603268952785665"><ele>277.0</ele><time>2026-04-19T16:52:31Z</time></trkpt><trkpt lat="45.10577279293159" lon="7.603730736422078"><ele>277.0</ele><time>2026-04-19T16:52:32Z</time></trkpt><trkpt lat="45.105941524797224" lon="7.604193883654179"><ele>277.0</ele><time>2026-04-19T16:52:33Z</time></trkpt><trkpt lat="45.10612214485551" lon="7.604663602933368"><ele>277.0</ele><time>2026-04-19T16:52:34Z</time></trkpt><trkpt lat="45.106301725387" lon="7.605142908020827"><ele>277.0</ele><time>2026-04-19T16:52:35Z</time></trkpt><trkpt lat="45.10648093387275" lon="7.605622914878258"><ele>277.0</ele><time>2026-04-19T16:52:36Z</time></trkpt><trkpt lat="45.10666776805078" lon="7.606102671234227"><ele>275.0</ele><time>2026-04-19T16:52:37Z</time></trkpt><trkpt lat="45.10685917464526" lon="7.606580869361548"><ele>273.0</ele><time>2026-04-19T16:52:38Z</time></trkpt><trkpt lat="45.107056644053024" lon="7.607062364599924"><ele>273.0</ele><time>2026-04-19T16:52:39Z</time></trkpt><trkpt lat="45.10726096654523" lon="7.607540298204529"><ele>273.0</ele><time>2026-04-19T16:52:40Z</time></trkpt><trkpt lat="45.107472755342876" lon="7.608018385711102"><ele>273.0</ele><time>2026-04-19T16:52:41Z</time></trkpt><trkpt lat="45.10768838189974" lon="7.608491285743788"><ele>273.0</ele><time>2026-04-19T16:52:42Z</time></trkpt><trkpt lat="45.10791345227948" lon="7.6089668715595105"><ele>273.0</ele><time>2026-04-19T16:52:43Z</time></trkpt><trkpt lat="45.10813688491982" lon="7.609440639598938"><ele>273.0</ele><time>2026-04-19T16:52:44Z</time></trkpt><trkpt lat="45.10835953414694" lon="7.609905270322529"><ele>272.0</ele><time>2026-04-19T16:52:45Z</time></trkpt><trkpt lat="45.108578497992866" lon="7.610363447162352"><ele>271.0</ele><time>2026-04-19T16:52:46Z</time></trkpt><trkpt lat="45.10879527267192" lon="7.61081523640197"><ele>272.0</ele><time>2026-04-19T16:52:47Z</time></trkpt><trkpt lat="45.10900552906316" lon="7.611261746472821"><ele>273.0</ele><time>2026-04-19T16:52:48Z</time></trkpt><trkpt lat="45.10921061794604" lon="7.611697664340278"><ele>274.0</ele><time>2026-04-19T16:52:49Z</time></trkpt><trkpt lat="45.10940824787529" lon="7.612116480403653"><ele>275.0</ele><time>2026-04-19T16:52:50Z</time></trkpt><trkpt lat="45.10959765379087" lon="7.612511520622982"><ele>275.0</ele><time>2026-04-19T16:52:51Z</time></trkpt><trkpt lat="45.10977839138314" lon="7.612895961376577"><ele>275.0</ele><time>2026-04-19T16:52:52Z</time></trkpt><trkpt lat="45.10995871543102" lon="7.61327965085772"><ele>274.0</ele><time>2026-04-19T16:52:53Z</time></trkpt><trkpt lat="45.11013280851891" lon="7.613656957538283"><ele>273.0</ele><time>2026-04-19T16:52:54Z</time></trkpt><trkpt lat="45.110304649441495" lon="7.614038646768536"><ele>273.0</ele><time>2026-04-19T16:52:55Z</time></trkpt><trkpt lat="45.11048341259484" lon="7.614445210678798"><ele>273.0</ele><time>2026-04-19T16:52:56Z</time></trkpt><trkpt lat="45.11067010214434" lon="7.614863821566827"><ele>273.0</ele><time>2026-04-19T16:52:57Z</time></trkpt><trkpt lat="45.11086548220369" lon="7.6152715657453784"><ele>273.0</ele><time>2026-04-19T16:52:58Z</time></trkpt><trkpt lat="45.111066023024634" lon="7.615681793282402"><ele>273.0</ele><time>2026-04-19T16:52:59Z</time></trkpt><trkpt lat="45.11126346817199" lon="7.616092591843391"><ele>273.0</ele><time>2026-04-19T16:53:00Z</time></trkpt><trkpt lat="45.111455431784364" lon="7.616501270137287"><ele>273.0</ele><time>2026-04-19T16:53:01Z</time></trkpt><trkpt lat="45.111648288404574" lon="7.616901220313177"><ele>273.0</ele><time>2026-04-19T16:53:02Z</time></trkpt><trkpt lat="45.1118428801489" lon="7.617298866650628"><ele>273.0</ele><time>2026-04-19T16:53:03Z</time></trkpt><trkpt lat="45.112039553798674" lon="7.61769017334021"><ele>273.0</ele><time>2026-04-19T16:53:04Z</time></trkpt><trkpt lat="45.112231687219385" lon="7.61808208440904"><ele>273.0</ele><time>2026-04-19T16:53:05Z</time></trkpt><trkpt lat="45.11241431956691" lon="7.618466522952586"><ele>273.0</ele><time>2026-04-19T16:53:06Z</time></trkpt><trkpt lat="45.112589819648555" lon="7.618837589988307"><ele>272.5</ele><time>2026-04-19T16:53:07Z</time></trkpt><trkpt lat="45.11277063904991" lon="7.619214441185473"><ele>272.0</ele><time>2026-04-19T16:53:08Z</time></trkpt><trkpt lat="45.11295188742772" lon="7.619596739867661"><ele>271.0</ele><time>2026-04-19T16:53:09Z</time></trkpt><trkpt lat="45.113133641997976" lon="7.619982319650151"><ele>270.0</ele><time>2026-04-19T16:53:10Z</time></trkpt><trkpt lat="45.11331601091163" lon="7.620369705268215"><ele>270.0</ele><time>2026-04-19T16:53:11Z</time></trkpt><trkpt lat="45.113499277845115" lon="7.620753975752103"><ele>270.0</ele><time>2026-04-19T16:53:12Z</time></trkpt><trkpt lat="45.11368369348308" lon="7.621143016339249"><ele>270.0</ele><time>2026-04-19T16:53:13Z</time></trkpt><trkpt lat="45.113868900449" lon="7.6215299191389985"><ele>270.0</ele><time>2026-04-19T16:53:14Z</time></trkpt><trkpt lat="45.11405470006471" lon="7.621915406949148"><ele>269.0</ele><time>2026-04-19T16:53:15Z</time></trkpt><trkpt lat="45.114236066418016" lon="7.622293676812847"><ele>268.0</ele><time>2026-04-19T16:53:16Z</time></trkpt><trkpt lat="45.114407521646264" lon="7.622667235293992"><ele>267.5</ele><time>2026-04-19T16:53:17Z</time></trkpt><trkpt lat="45.114568065707076" lon="7.623037889261068"><ele>267.0</ele><time>2026-04-19T16:53:18Z</time></trkpt><trkpt lat="45.11471415721126" lon="7.623404817836676"><ele>267.0</ele><time>2026-04-19T16:53:19Z</time></trkpt><trkpt lat="45.114855752891735" lon="7.623764922048006"><ele>267.0</ele><time>2026-04-19T16:53:20Z</time></trkpt><trkpt lat="45.11499864065502" lon="7.624134775847479"><ele>265.0</ele><time>2026-04-19T16:53:21Z</time></trkpt><trkpt lat="45.1151408144854" lon="7.624527593298412"><ele>263.0</ele><time>2026-04-19T16:53:22Z</time></trkpt><trkpt lat="45.11528741434082" lon="7.624922263276921"><ele>263.0</ele><time>2026-04-19T16:53:23Z</time></trkpt><trkpt lat="45.11544093662535" lon="7.625318294042276"><ele>263.0</ele><time>2026-04-19T16:53:24Z</time></trkpt><trkpt lat="45.115585539111976" lon="7.625713336138212"><ele>263.0</ele><time>2026-04-19T16:53:25Z</time></trkpt><trkpt lat="45.11572521800547" lon="7.626101022733807"><ele>263.0</ele><time>2026-04-19T16:53:26Z</time></trkpt><trkpt lat="45.115854433444795" lon="7.626472405920476"><ele>263.5</ele><time>2026-04-19T16:53:27Z</time></trkpt><trkpt lat="45.115980563790295" lon="7.626859243912114"><ele>264.0</ele><time>2026-04-19T16:53:28Z</time></trkpt><trkpt lat="45.11610855897617" lon="7.627268484615781"><ele>264.0</ele><time>2026-04-19T16:53:29Z</time></trkpt><trkpt lat="45.11623662525745" lon="7.627687515701649"><ele>264.0</ele><time>2026-04-19T16:53:30Z</time></trkpt><trkpt lat="45.116380434389015" lon="7.628134065661839"><ele>264.0</ele><time>2026-04-19T16:53:31Z</time></trkpt><trkpt lat="45.11652717790493" lon="7.628585547612916"><ele>264.0</ele><time>2026-04-19T16:53:32Z</time></trkpt><trkpt lat="45.1166780432589" lon="7.629055222211102"><ele>264.0</ele><time>2026-04-19T16:53:33Z</time></trkpt><trkpt lat="45.11682952809419" lon="7.629533079886004"><ele>264.0</ele><time>2026-04-19T16:53:34Z</time></trkpt><trkpt lat="45.116983051123704" lon="7.630024895331065"><ele>264.0</ele><time>2026-04-19T16:53:35Z</time></trkpt><trkpt lat="45.11714060747571" lon="7.630523431924455"><ele>264.0</ele><time>2026-04-19T16:53:36Z</time></trkpt><trkpt lat="45.11730466659573" lon="7.631035307519645"><ele>264.0</ele><time>2026-04-19T16:53:37Z</time></trkpt><trkpt lat="45.117469027566706" lon="7.631546657208571"><ele>264.0</ele><time>2026-04-19T16:53:38Z</time></trkpt><trkpt lat="45.11762473334239" lon="7.632028067964998"><ele>263.0</ele><time>2026-04-19T16:53:39Z</time></trkpt><trkpt lat="45.11777054234333" lon="7.632483020707515"><ele>262.0</ele><time>2026-04-19T16:53:40Z</time></trkpt><trkpt lat="45.11790384776837" lon="7.632919565973685"><ele>261.5</ele><time>2026-04-19T16:53:41Z</time></trkpt><trkpt lat="45.11803158113865" lon="7.6333494191379065"><ele>261.0</ele><time>2026-04-19T16:53:42Z</time></trkpt><trkpt lat="45.118150283821635" lon="7.633768611067336"><ele>260.5</ele><time>2026-04-19T16:53:43Z</time></trkpt><trkpt lat="45.11827414950547" lon="7.634211360730018"><ele>260.0</ele><time>2026-04-19T16:53:44Z</time></trkpt><trkpt lat="45.118399059744625" lon="7.634671805844437"><ele>259.0</ele><time>2026-04-19T16:53:45Z</time></trkpt><trkpt lat="45.11851966515134" lon="7.635136928933209"><ele>258.0</ele><time>2026-04-19T16:53:46Z</time></trkpt><trkpt lat="45.11864294203324" lon="7.635591334315295"><ele>257.5</ele><time>2026-04-19T16:53:47Z</time></trkpt><trkpt lat="45.11874551323587" lon="7.636004593261145"><ele>257.0</ele><time>2026-04-19T16:53:48Z</time></trkpt><trkpt lat="45.11882848943824" lon="7.636370364091158"><ele>257.0</ele><time>2026-04-19T16:53:49Z</time></trkpt><trkpt lat="45.1188919710671" lon="7.636699911726832"><ele>257.0</ele><time>2026-04-19T16:53:50Z</time></trkpt><trkpt lat="45.11892861969474" lon="7.6369718171932535"><ele>257.0</ele><time>2026-04-19T16:53:51Z</time></trkpt><trkpt lat="45.118941003425704" lon="7.637198782463555"><ele>256.5</ele><time>2026-04-19T16:53:52Z</time></trkpt><trkpt lat="45.11893146147897" lon="7.637367579199785"><ele>256.0</ele><time>2026-04-19T16:53:53Z</time></trkpt><trkpt lat="45.118896967091125" lon="7.63750683915372"><ele>255.5</ele><time>2026-04-19T16:53:54Z</time></trkpt><trkpt lat="45.11880611084475" lon="7.637620029754907"><ele>255.0</ele><time>2026-04-19T16:53:55Z</time></trkpt><trkpt lat="45.11871687585373" lon="7.637758421094589"><ele>255.33333333333331</ele><time>2026-04-19T16:53:56Z</time></trkpt><trkpt lat="45.118720167699706" lon="7.63799651407293"><ele>255.66666666666666</ele><time>2026-04-19T16:53:57Z</time></trkpt><trkpt lat="45.11873596261653" lon="7.638240897311121"><ele>256.0</ele><time>2026-04-19T16:53:58Z</time></trkpt><trkpt lat="45.11870729425242" lon="7.638505910011247"><ele>257.66666666666663</ele><time>2026-04-19T16:53:59Z</time></trkpt><trkpt lat="45.1186388516759" lon="7.638771703231412"><ele>259.3333333333333</ele><time>2026-04-19T16:54:00Z</time></trkpt><trkpt lat="45.11858656059661" lon="7.6390349370025765"><ele>261.0</ele><time>2026-04-19T16:54:01Z</time></trkpt><trkpt lat="45.11855512945917" lon="7.639264488232236"><ele>260.3333333333333</ele><time>2026-04-19T16:54:02Z</time></trkpt><trkpt lat="45.11855067055124" lon="7.639495748937019"><ele>259.66666666666663</ele><time>2026-04-19T16:54:03Z</time></trkpt><trkpt lat="45.1185872626372" lon="7.639741779156398"><ele>259.0</ele><time>2026-04-19T16:54:04Z</time></trkpt><trkpt lat="45.118661546006855" lon="7.639953335368326"><ele>259.0</ele><time>2026-04-19T16:54:05Z</time></trkpt><trkpt lat="45.11876475413458" lon="7.640130347928829"><ele>259.0</ele><time>2026-04-19T16:54:06Z</time></trkpt><trkpt lat="45.11889334025443" lon="7.640258715850253"><ele>259.0</ele><time>2026-04-19T16:54:07Z</time></trkpt><trkpt lat="45.11903908753305" lon="7.640335580121209"><ele>257.66666666666663</ele><time>2026-04-19T16:54:08Z</time></trkpt><trkpt lat="45.119194928736285" lon="7.640366562610336"><ele>256.3333333333333</ele><time>2026-04-19T16:54:09Z</time></trkpt><trkpt lat="45.11935161300043" lon="7.640355092663663"><ele>255.0</ele><time>2026-04-19T16:54:10Z</time></trkpt><trkpt lat="45.11952360676538" lon="7.640307238227351"><ele>255.0</ele><time>2026-04-19T16:54:11Z</time></trkpt><trkpt lat="45.11969766028054" lon="7.640214804758649"><ele>255.0</ele><time>2026-04-19T16:54:12Z</time></trkpt><trkpt lat="45.1198765553256" lon="7.640097722491612"><ele>255.0</ele><time>2026-04-19T16:54:13Z</time></trkpt><trkpt lat="45.120061763968245" lon="7.6399760164651855"><ele>255.0</ele><time>2026-04-19T16:54:14Z</time></trkpt><trkpt lat="45.12025978764872" lon="7.639848610550403"><ele>255.0</ele><time>2026-04-19T16:54:15Z</time></trkpt><trkpt lat="45.12046707851301" lon="7.6397144833551796"><ele>255.0</ele><time>2026-04-19T16:54:16Z</time></trkpt><trkpt lat="45.120685635699516" lon="7.639576466668088"><ele>257.5</ele><time>2026-04-19T16:54:17Z</time></trkpt><trkpt lat="45.12092099871944" lon="7.639431442498025"><ele>260.0</ele><time>2026-04-19T16:54:18Z</time></trkpt><trkpt lat="45.12116568214144" lon="7.639292014680686"><ele>260.0</ele><time>2026-04-19T16:54:19Z</time></trkpt><trkpt lat="45.12141244834078" lon="7.639154291305187"><ele>260.0</ele><time>2026-04-19T16:54:20Z</time></trkpt><trkpt lat="45.121658521436856" lon="7.639021232968084"><ele>260.5</ele><time>2026-04-19T16:54:21Z</time></trkpt><trkpt lat="45.12188283421445" lon="7.638902174391676"><ele>261.0</ele><time>2026-04-19T16:54:22Z</time></trkpt><trkpt lat="45.12209303750548" lon="7.638787130165277"><ele>261.0</ele><time>2026-04-19T16:54:23Z</time></trkpt><trkpt lat="45.12227791517839" lon="7.638681970063616"><ele>261.0</ele><time>2026-04-19T16:54:24Z</time></trkpt><trkpt lat="45.12244342890872" lon="7.638584778451081"><ele>261.0</ele><time>2026-04-19T16:54:25Z</time></trkpt><trkpt lat="45.122590145932925" lon="7.638505062848307"><ele>260.40000000000003</ele><time>2026-04-19T16:54:26Z</time></trkpt><trkpt lat="45.122710437285" lon="7.638450555470055"><ele>259.8</ele><time>2026-04-19T16:54:27Z</time></trkpt><trkpt lat="45.12280796613398" lon="7.638418188289617"><ele>259.20000000000005</ele><time>2026-04-19T16:54:28Z</time></trkpt><trkpt lat="45.12290296943264" lon="7.638411435863742"><ele>258.6</ele><time>2026-04-19T16:54:29Z</time></trkpt><trkpt lat="45.12299526180416" lon="7.638444405665522"><ele>258.0</ele><time>2026-04-19T16:54:30Z</time></trkpt><trkpt lat="45.12310972243715" lon="7.638434288055945"><ele>258.0</ele><time>2026-04-19T16:54:31Z</time></trkpt><trkpt lat="45.12324592887638" lon="7.638429541637118"><ele>258.0</ele><time>2026-04-19T16:54:32Z</time></trkpt><trkpt lat="45.123394476923615" lon="7.638451700393804"><ele>258.0</ele><time>2026-04-19T16:54:33Z</time></trkpt><trkpt lat="45.123560684132435" lon="7.638560546389711"><ele>258.0</ele><time>2026-04-19T16:54:34Z</time></trkpt><trkpt lat="45.12373364062744" lon="7.638703336190453"><ele>258.0</ele><time>2026-04-19T16:54:35Z</time></trkpt><trkpt lat="45.12393279900848" lon="7.638877803507165"><ele>258.0</ele><time>2026-04-19T16:54:36Z</time></trkpt><trkpt lat="45.124119758027184" lon="7.6390545770015255"><ele>258.0</ele><time>2026-04-19T16:54:37Z</time></trkpt><trkpt lat="45.12427823249379" lon="7.639186397625307"><ele>258.0</ele><time>2026-04-19T16:54:38Z</time></trkpt><trkpt lat="45.12441554692124" lon="7.639300969644384"><ele>258.0</ele><time>2026-04-19T16:54:39Z</time></trkpt><trkpt lat="45.124527750728426" lon="7.639409865620682"><ele>258.0</ele><time>2026-04-19T16:54:40Z</time></trkpt><trkpt lat="45.124614590806225" lon="7.639482769754627"><ele>258.0</ele><time>2026-04-19T16:54:41Z</time></trkpt><trkpt lat="45.12465658957207" lon="7.639589614968659"><ele>258.0</ele><time>2026-04-19T16:54:42Z</time></trkpt><trkpt lat="45.1247267165977" lon="7.639697903095548"><ele>258.0</ele><time>2026-04-19T16:54:44Z</time></trkpt><trkpt lat="45.12478876651088" lon="7.639740911678241"><ele>258.0</ele><time>2026-04-19T16:55:33Z</time></trkpt><trkpt lat="45.12484519279797" lon="7.639785424891719"><ele>258.0</ele><time>2026-04-19T16:55:34Z</time></trkpt><trkpt lat="45.12489990021461" lon="7.639845797512368"><ele>258.0</ele><time>2026-04-19T16:55:35Z</time></trkpt><trkpt lat="45.12503478945988" lon="7.6397416278940105"><ele>258.0</ele><time>2026-04-19T16:55:36Z</time></trkpt><trkpt lat="45.1251315458575" lon="7.639656562967034"><ele>258.0</ele><time>2026-04-19T16:55:37Z</time></trkpt><trkpt lat="45.12523074910741" lon="7.639510031006486"><ele>258.0</ele><time>2026-04-19T16:55:38Z</time></trkpt><trkpt lat="45.12535578341286" lon="7.6393506901306925"><ele>258.0</ele><time>2026-04-19T16:55:39Z</time></trkpt><trkpt lat="45.12550715745943" lon="7.63919031707673"><ele>258.0</ele><time>2026-04-19T16:55:40Z</time></trkpt><trkpt lat="45.12565768727296" lon="7.639024473918449"><ele>258.0</ele><time>2026-04-19T16:55:41Z</time></trkpt><trkpt lat="45.125811282460134" lon="7.6388417087389895"><ele>257.6666666666667</ele><time>2026-04-19T16:55:42Z</time></trkpt><trkpt lat="45.12597590692401" lon="7.638659764961924"><ele>257.33333333333337</ele><time>2026-04-19T16:55:43Z</time></trkpt><trkpt lat="45.126140111016376" lon="7.638472519465715"><ele>257.0</ele><time>2026-04-19T16:55:44Z</time></trkpt><trkpt lat="45.12630901681366" lon="7.638260902115864"><ele>257.0</ele><time>2026-04-19T16:55:45Z</time></trkpt><trkpt lat="45.12647349323526" lon="7.638033538806933"><ele>257.0</ele><time>2026-04-19T16:55:46Z</time></trkpt><trkpt lat="45.1266125413285" lon="7.637820894198534"><ele>257.0</ele><time>2026-04-19T16:55:47Z</time></trkpt><trkpt lat="45.1267368875912" lon="7.637616503549822"><ele>257.6666666666667</ele><time>2026-04-19T16:55:48Z</time></trkpt><trkpt lat="45.12685037006651" lon="7.637426837555496"><ele>258.3333333333333</ele><time>2026-04-19T16:55:49Z</time></trkpt><trkpt lat="45.12695926982026" lon="7.637251902704382"><ele>259.0</ele><time>2026-04-19T16:55:50Z</time></trkpt><trkpt lat="45.127068698675025" lon="7.637071686838361"><ele>259.3333333333333</ele><time>2026-04-19T16:55:51Z</time></trkpt><trkpt lat="45.127186343007565" lon="7.6368687387603345"><ele>259.6666666666667</ele><time>2026-04-19T16:55:52Z</time></trkpt><trkpt lat="45.127314663039755" lon="7.636657453747044"><ele>260.0</ele><time>2026-04-19T16:55:53Z</time></trkpt><trkpt lat="45.12743315761816" lon="7.636477727527868"><ele>260.5</ele><time>2026-04-19T16:55:54Z</time></trkpt><trkpt lat="45.12754435746531" lon="7.6363380188458825"><ele>261.0</ele><time>2026-04-19T16:55:55Z</time></trkpt><trkpt lat="45.12764618663334" lon="7.636227825447571"><ele>261.5</ele><time>2026-04-19T16:55:56Z</time></trkpt><trkpt lat="45.12772528782642" lon="7.636135674820956"><ele>262.0</ele><time>2026-04-19T16:55:57Z</time></trkpt><trkpt lat="45.12779334379624" lon="7.6360761353285715"><ele>262.0</ele><time>2026-04-19T16:55:58Z</time></trkpt><trkpt lat="45.12786443637815" lon="7.6360434319518795"><ele>262.0</ele><time>2026-04-19T16:55:59Z</time></trkpt><trkpt lat="45.12794965327964" lon="7.63604640518371"><ele>262.0</ele><time>2026-04-19T16:56:00Z</time></trkpt><trkpt lat="45.12801309633608" lon="7.636107074609296"><ele>262.0</ele><time>2026-04-19T16:56:01Z</time></trkpt><trkpt lat="45.128070311331086" lon="7.636210564997868"><ele>262.0</ele><time>2026-04-19T16:56:02Z</time></trkpt><trkpt lat="45.12813020865412" lon="7.6363291219486715"><ele>262.0</ele><time>2026-04-19T16:56:03Z</time></trkpt><trkpt lat="45.128192885042395" lon="7.636464725717547"><ele>261.6</ele><time>2026-04-19T16:56:04Z</time></trkpt><trkpt lat="45.128263151291435" lon="7.636576423664146"><ele>261.2</ele><time>2026-04-19T16:56:05Z</time></trkpt><trkpt lat="45.12832303342993" lon="7.636689762333725"><ele>260.8</ele><time>2026-04-19T16:56:06Z</time></trkpt><trkpt lat="45.128382001414074" lon="7.63680712846224"><ele>260.4</ele><time>2026-04-19T16:56:07Z</time></trkpt><trkpt lat="45.12842993751964" lon="7.636920999535082"><ele>260.0</ele><time>2026-04-19T16:56:08Z</time></trkpt><trkpt lat="45.12848596116525" lon="7.637022893118332"><ele>259.83333333333337</ele><time>2026-04-19T16:56:09Z</time></trkpt><trkpt lat="45.12853112940044" lon="7.637093916856479"><ele>259.6666666666667</ele><time>2026-04-19T16:56:10Z</time></trkpt><trkpt lat="45.128594148539435" lon="7.6371875928813795"><ele>259.5</ele><time>2026-04-19T16:56:11Z</time></trkpt><trkpt lat="45.128654774479244" lon="7.637295808059143"><ele>259.3333333333333</ele><time>2026-04-19T16:56:12Z</time></trkpt><trkpt lat="45.12870667416007" lon="7.637392324598794"><ele>259.16666666666663</ele><time>2026-04-19T16:56:13Z</time></trkpt><trkpt lat="45.128756873364836" lon="7.637483754690685"><ele>259.0</ele><time>2026-04-19T16:56:14Z</time></trkpt><trkpt lat="45.12880087941837" lon="7.6375677443112675"><ele>259.0</ele><time>2026-04-19T16:56:15Z</time></trkpt><trkpt lat="45.12887177483028" lon="7.637683097856234"><ele>259.0</ele><time>2026-04-19T16:56:17Z</time></trkpt><trkpt lat="45.12891732050335" lon="7.637762755592962"><ele>259.0</ele><time>2026-04-19T16:56:20Z</time></trkpt><trkpt lat="45.128950459816465" lon="7.637844820152134"><ele>259.0</ele><time>2026-04-19T16:56:30Z</time></trkpt><trkpt lat="45.12891121389129" lon="7.637971353823638"><ele>259.0</ele><time>2026-04-19T16:56:32Z</time></trkpt><trkpt lat="45.12889079894865" lon="7.638109207696205"><ele>259.0</ele><time>2026-04-19T16:56:34Z</time></trkpt><trkpt lat="45.128876255172166" lon="7.63826764208485"><ele>258.8333333333333</ele><time>2026-04-19T16:56:36Z</time></trkpt><trkpt lat="45.128850962734326" lon="7.6384391712704245"><ele>258.66666666666663</ele><time>2026-04-19T16:56:38Z</time></trkpt><trkpt lat="45.12883653277787" lon="7.638528116174277"><ele>258.5</ele><time>2026-04-19T16:56:39Z</time></trkpt><trkpt lat="45.128821994816086" lon="7.638617402100193"><ele>258.3333333333333</ele><time>2026-04-19T16:56:40Z</time></trkpt><trkpt lat="45.12879583009823" lon="7.638773916163582"><ele>258.1666666666667</ele><time>2026-04-19T16:56:42Z</time></trkpt><trkpt lat="45.1287919989603" lon="7.638885719600664"><ele>258.0</ele><time>2026-04-19T16:56:44Z</time></trkpt><trkpt lat="45.128758338829" lon="7.638971458904499"><ele>257.8</ele><time>2026-04-19T16:56:57Z</time></trkpt><trkpt lat="45.128733195030016" lon="7.63908278425061"><ele>257.6</ele><time>2026-04-19T16:56:59Z</time></trkpt><trkpt lat="45.128704600169634" lon="7.639201698617021"><ele>257.4</ele><time>2026-04-19T16:57:01Z</time></trkpt><trkpt lat="45.12868505350454" lon="7.639324665149794"><ele>257.2</ele><time>2026-04-19T16:57:03Z</time></trkpt><trkpt lat="45.128654170371334" lon="7.639445525152843"><ele>257.0</ele><time>2026-04-19T16:57:05Z</time></trkpt><trkpt lat="45.12862683711217" lon="7.63959176212404"><ele>257.0</ele><time>2026-04-19T16:57:07Z</time></trkpt><trkpt lat="45.12858579739871" lon="7.639760779686847"><ele>257.0</ele><time>2026-04-19T16:57:09Z</time></trkpt><trkpt lat="45.12852678415521" lon="7.639914259709389"><ele>257.0</ele><time>2026-04-19T16:57:11Z</time></trkpt><trkpt lat="45.1284547265469" lon="7.640014079118663"><ele>257.0</ele><time>2026-04-19T16:57:13Z</time></trkpt><trkpt lat="45.128388937392124" lon="7.640138475798237"><ele>257.0</ele><time>2026-04-19T16:57:15Z</time></trkpt><trkpt lat="45.12836553684912" lon="7.640225426670409"><ele>257.0</ele><time>2026-04-19T16:57:16Z</time></trkpt><trkpt lat="45.12833857960245" lon="7.640317117420661"><ele>257.0</ele><time>2026-04-19T16:57:17Z</time></trkpt><trkpt lat="45.128307847225024" lon="7.640406266208046"><ele>257.0</ele><time>2026-04-19T16:57:18Z</time></trkpt><trkpt lat="45.12825418002264" lon="7.640488687590584"><ele>257.0</ele><time>2026-04-19T16:57:19Z</time></trkpt><trkpt lat="45.12820621747657" lon="7.640591698466581"><ele>257.0</ele><time>2026-04-19T16:57:20Z</time></trkpt><trkpt lat="45.128169642136235" lon="7.6406965054159235"><ele>257.1666666666667</ele><time>2026-04-19T16:57:21Z</time></trkpt><trkpt lat="45.1281412102321" lon="7.640794173912886"><ele>257.33333333333337</ele><time>2026-04-19T16:57:22Z</time></trkpt><trkpt lat="45.12811096833268" lon="7.640894101167097"><ele>257.5</ele><time>2026-04-19T16:57:23Z</time></trkpt><trkpt lat="45.128079288613975" lon="7.640996641486076"><ele>257.6666666666667</ele><time>2026-04-19T16:57:24Z</time></trkpt><trkpt lat="45.12804759737094" lon="7.641099217634822"><ele>257.8333333333333</ele><time>2026-04-19T16:57:25Z</time></trkpt><trkpt lat="45.12801556901308" lon="7.641199781466617"><ele>258.0</ele><time>2026-04-19T16:57:26Z</time></trkpt><trkpt lat="45.127983142219804" lon="7.641303020900077"><ele>258.1666666666667</ele><time>2026-04-19T16:57:27Z</time></trkpt><trkpt lat="45.127951339307145" lon="7.64140427393751"><ele>258.3333333333333</ele><time>2026-04-19T16:57:28Z</time></trkpt><trkpt lat="45.12792170719288" lon="7.64150131712181"><ele>258.5</ele><time>2026-04-19T16:57:29Z</time></trkpt><trkpt lat="45.12790444841706" lon="7.641606007083232"><ele>258.66666666666663</ele><time>2026-04-19T16:57:30Z</time></trkpt><trkpt lat="45.12786977745193" lon="7.641705579302547"><ele>258.8333333333333</ele><time>2026-04-19T16:57:31Z</time></trkpt><trkpt lat="45.12783254267137" lon="7.64180976937352"><ele>259.0</ele><time>2026-04-19T16:57:32Z</time></trkpt><trkpt lat="45.12779485755188" lon="7.641926691040106"><ele>259.16666666666663</ele><time>2026-04-19T16:57:33Z</time></trkpt><trkpt lat="45.12775958039822" lon="7.642041858753571"><ele>259.3333333333333</ele><time>2026-04-19T16:57:34Z</time></trkpt><trkpt lat="45.12772336188465" lon="7.642161831932522"><ele>259.5</ele><time>2026-04-19T16:57:35Z</time></trkpt><trkpt lat="45.12768621161485" lon="7.642281744729163"><ele>259.6666666666667</ele><time>2026-04-19T16:57:36Z</time></trkpt><trkpt lat="45.127651276953735" lon="7.642393604900707"><ele>259.83333333333337</ele><time>2026-04-19T16:57:37Z</time></trkpt><trkpt lat="45.127615981498515" lon="7.642495324109035"><ele>260.0</ele><time>2026-04-19T16:57:38Z</time></trkpt><trkpt lat="45.12757907578822" lon="7.6425830470625185"><ele>260.0</ele><time>2026-04-19T16:57:39Z</time></trkpt><trkpt lat="45.127534829992946" lon="7.642663496391437"><ele>260.0</ele><time>2026-04-19T16:57:40Z</time></trkpt><trkpt lat="45.12748716705844" lon="7.642739520150758"><ele>260.0</ele><time>2026-04-19T16:57:41Z</time></trkpt><trkpt lat="45.127448562331665" lon="7.642831956426166"><ele>260.0</ele><time>2026-04-19T16:57:42Z</time></trkpt><trkpt lat="45.12741206502568" lon="7.642948994794747"><ele>260.0</ele><time>2026-04-19T16:57:43Z</time></trkpt><trkpt lat="45.1273761277537" lon="7.643068610434073"><ele>260.0</ele><time>2026-04-19T16:57:44Z</time></trkpt><trkpt lat="45.12733796587241" lon="7.64319676704833"><ele>260.2</ele><time>2026-04-19T16:57:45Z</time></trkpt><trkpt lat="45.12728243775376" lon="7.643317832967364"><ele>260.4</ele><time>2026-04-19T16:57:46Z</time></trkpt><trkpt lat="45.12724004139284" lon="7.643454667519296"><ele>260.6</ele><time>2026-04-19T16:57:46.999Z</time></trkpt><trkpt lat="45.127197106533224" lon="7.6435938998298205"><ele>260.8</ele><time>2026-04-19T16:57:47.999Z</time></trkpt><trkpt lat="45.12715621153949" lon="7.643728099283344"><ele>261.0</ele><time>2026-04-19T16:57:48.999Z</time></trkpt><trkpt lat="45.12711928802726" lon="7.643850031354048"><ele>261.2</ele><time>2026-04-19T16:57:49.999Z</time></trkpt><trkpt lat="45.12708650417826" lon="7.64397614618498"><ele>261.40000000000003</ele><time>2026-04-19T16:57:50.999Z</time></trkpt><trkpt lat="45.12705024070432" lon="7.644094733217766"><ele>261.6</ele><time>2026-04-19T16:57:52Z</time></trkpt><trkpt lat="45.12701412419021" lon="7.64421431890032"><ele>261.8</ele><time>2026-04-19T16:57:53Z</time></trkpt><trkpt lat="45.12697844419126" lon="7.644332572234015"><ele>262.0</ele><time>2026-04-19T16:57:54Z</time></trkpt><trkpt lat="45.12694367140503" lon="7.644450185261829"><ele>261.2</ele><time>2026-04-19T16:57:55Z</time></trkpt><trkpt lat="45.12691143219949" lon="7.6445571126927625"><ele>260.4</ele><time>2026-04-19T16:57:56Z</time></trkpt><trkpt lat="45.126881968973855" lon="7.644652270354896"><ele>259.6</ele><time>2026-04-19T16:57:57Z</time></trkpt><trkpt lat="45.12683535276755" lon="7.64481144812034"><ele>258.8</ele><time>2026-04-19T16:57:59Z</time></trkpt><trkpt lat="45.12676593166434" lon="7.644952550516422"><ele>258.0</ele><time>2026-04-19T16:58:01Z</time></trkpt><trkpt lat="45.12675445597823" lon="7.645050294737135"><ele>258.0</ele><time>2026-04-19T16:58:02Z</time></trkpt><trkpt lat="45.12672956126254" lon="7.64513412341534"><ele>258.0</ele><time>2026-04-19T16:58:03Z</time></trkpt><trkpt lat="45.12670296637366" lon="7.645229659221903"><ele>258.0</ele><time>2026-04-19T16:58:04Z</time></trkpt><trkpt lat="45.12667405970978" lon="7.6453347520549135"><ele>258.0</ele><time>2026-04-19T16:58:05Z</time></trkpt><trkpt lat="45.12664110148938" lon="7.645446679768672"><ele>258.0</ele><time>2026-04-19T16:58:06Z</time></trkpt><trkpt lat="45.12660764519276" lon="7.645557808848882"><ele>258.0</ele><time>2026-04-19T16:58:07Z</time></trkpt><trkpt lat="45.1265708834558" lon="7.64568364659699"><ele>258.2</ele><time>2026-04-19T16:58:08Z</time></trkpt><trkpt lat="45.126533812441366" lon="7.645813717210563"><ele>258.4</ele><time>2026-04-19T16:58:09Z</time></trkpt><trkpt lat="45.12649374506496" lon="7.645942011111502"><ele>258.59999999999997</ele><time>2026-04-19T16:58:10Z</time></trkpt><trkpt lat="45.12645672840573" lon="7.646068621574219"><ele>258.8</ele><time>2026-04-19T16:58:11Z</time></trkpt><trkpt lat="45.12642539005237" lon="7.646192317306387"><ele>259.0</ele><time>2026-04-19T16:58:12Z</time></trkpt><trkpt lat="45.12639671209343" lon="7.646313000876723"><ele>258.59999999999997</ele><time>2026-04-19T16:58:13Z</time></trkpt><trkpt lat="45.12633646367329" lon="7.646486763612389"><ele>258.2</ele><time>2026-04-19T16:58:14Z</time></trkpt><trkpt lat="45.12629737642642" lon="7.6466232049171055"><ele>257.79999999999995</ele><time>2026-04-19T16:58:15Z</time></trkpt><trkpt lat="45.12625457753249" lon="7.6467443315243315"><ele>257.4</ele><time>2026-04-19T16:58:16Z</time></trkpt><trkpt lat="45.12621751185377" lon="7.646857121191278"><ele>257.0</ele><time>2026-04-19T16:58:17Z</time></trkpt><trkpt lat="45.126180889346784" lon="7.64695489363694"><ele>256.4</ele><time>2026-04-19T16:58:18Z</time></trkpt><trkpt lat="45.126156769053026" lon="7.647050227278331"><ele>255.79999999999998</ele><time>2026-04-19T16:58:19Z</time></trkpt><trkpt lat="45.12611512476309" lon="7.647213160788973"><ele>255.2</ele><time>2026-04-19T16:58:21Z</time></trkpt><trkpt lat="45.126059893361635" lon="7.647381596644545"><ele>254.6</ele><time>2026-04-19T16:58:23Z</time></trkpt><trkpt lat="45.12603331098825" lon="7.647479317578327"><ele>254.0</ele><time>2026-04-19T16:58:24Z</time></trkpt><trkpt lat="45.126006352197464" lon="7.64758786159955"><ele>254.00000000000003</ele><time>2026-04-19T16:58:25Z</time></trkpt><trkpt lat="45.12595847478159" lon="7.647684397538866"><ele>254.0</ele><time>2026-04-19T16:58:26Z</time></trkpt><trkpt lat="45.12591352633286" lon="7.647775961647012"><ele>254.0</ele><time>2026-04-19T16:58:27Z</time></trkpt><trkpt lat="45.12581526264222" lon="7.647901798738495"><ele>254.0</ele><time>2026-04-19T16:58:29Z</time></trkpt><trkpt lat="45.12574369273587" lon="7.647934315253048"><ele>254.00000000000003</ele><time>2026-04-19T16:58:30Z</time></trkpt><trkpt lat="45.12567037529375" lon="7.647967151460785"><ele>254.0</ele><time>2026-04-19T16:58:31Z</time></trkpt><trkpt lat="45.125604301691105" lon="7.647964382801568"><ele>254.28571428571428</ele><time>2026-04-19T16:58:32Z</time></trkpt><trkpt lat="45.12554557551492" lon="7.647920654704834"><ele>254.57142857142856</ele><time>2026-04-19T16:58:33Z</time></trkpt><trkpt lat="45.12548377830849" lon="7.647895761432605"><ele>254.85714285714283</ele><time>2026-04-19T16:58:34Z</time></trkpt><trkpt lat="45.12542779049474" lon="7.647846147746898"><ele>255.14285714285714</ele><time>2026-04-19T16:58:35Z</time></trkpt><trkpt lat="45.12538547294482" lon="7.64775616199912"><ele>255.4285714285714</ele><time>2026-04-19T16:58:36Z</time></trkpt><trkpt lat="45.12534713658837" lon="7.647662501165815"><ele>255.7142857142857</ele><time>2026-04-19T16:58:37Z</time></trkpt><trkpt lat="45.12531404378939" lon="7.647564850584706"><ele>256.0</ele><time>2026-04-19T16:58:38Z</time></trkpt><trkpt lat="45.12527744060384" lon="7.64746479480143"><ele>255.99999999999997</ele><time>2026-04-19T16:58:39Z</time></trkpt><trkpt lat="45.125240513682826" lon="7.647363981610649"><ele>256.0</ele><time>2026-04-19T16:58:40Z</time></trkpt><trkpt lat="45.12520792729567" lon="7.647277671336033"><ele>256.0</ele><time>2026-04-19T16:58:41Z</time></trkpt><trkpt lat="45.12518011023882" lon="7.647196529628427"><ele>256.0</ele><time>2026-04-19T16:58:42Z</time></trkpt><trkpt lat="45.125118883810366" lon="7.647065187525789"><ele>255.99999999999997</ele><time>2026-04-19T16:58:44Z</time></trkpt><trkpt lat="45.125097891815145" lon="7.646968532969449"><ele>256.0</ele><time>2026-04-19T16:58:46Z</time></trkpt><trkpt lat="45.12497858737359" lon="7.6470558463445935"><ele>256.16666666666663</ele><time>2026-04-19T16:58:48Z</time></trkpt><trkpt lat="45.124868759550395" lon="7.647112494562719"><ele>256.3333333333333</ele><time>2026-04-19T17:00:02Z</time></trkpt><trkpt lat="45.12480572316587" lon="7.647157683235697"><ele>256.5</ele><time>2026-04-19T17:00:03Z</time></trkpt><trkpt lat="45.12472993560669" lon="7.647212832618404"><ele>256.6666666666667</ele><time>2026-04-19T17:00:04Z</time></trkpt><trkpt lat="45.12466581816114" lon="7.64728268097495"><ele>256.83333333333337</ele><time>2026-04-19T17:00:05Z</time></trkpt><trkpt lat="45.12460572661322" lon="7.647318274686521"><ele>257.0</ele><time>2026-04-19T17:00:06Z</time></trkpt><trkpt lat="45.12452158574391" lon="7.6473386607273355"><ele>257.0</ele><time>2026-04-19T17:00:08Z</time></trkpt><trkpt lat="45.124388537904274" lon="7.647099090721197"><ele>257.0</ele><time>2026-04-19T17:00:27Z</time></trkpt><trkpt lat="45.124319457216735" lon="7.647190910846937"><ele>257.0</ele><time>2026-04-19T17:00:29Z</time></trkpt><trkpt lat="45.12432892566828" lon="7.647295025708176"><ele>257.0</ele><time>2026-04-19T17:00:31Z</time></trkpt><trkpt lat="45.12431916790291" lon="7.64747471765188"><ele>257.0</ele><time>2026-04-19T17:00:34Z</time></trkpt><trkpt lat="45.12418931988047" lon="7.647565075194483"><ele>257.0</ele><time>2026-04-19T17:00:37Z</time></trkpt><trkpt lat="45.12409715502609" lon="7.647677179894083"><ele>257.0</ele><time>2026-04-19T17:00:39Z</time></trkpt><trkpt lat="45.12394531216907" lon="7.647738175553126"><ele>257.0</ele><time>2026-04-19T17:00:41Z</time></trkpt><trkpt lat="45.12388018851818" lon="7.647785591715039"><ele>256.0</ele><time>2026-04-19T17:00:42Z</time></trkpt><trkpt lat="45.12380662461801" lon="7.64783903654853"><ele>255.0</ele><time>2026-04-19T17:00:43Z</time></trkpt><trkpt lat="45.12370689379256" lon="7.647906230918261"><ele>254.0</ele><time>2026-04-19T17:00:45Z</time></trkpt><trkpt lat="45.123644313233385" lon="7.647947993902328"><ele>253.0</ele><time>2026-04-19T17:00:46.07Z</time></trkpt><trkpt lat="45.12359000161991" lon="7.647997431556595"><ele>252.0</ele><time>2026-04-19T17:00:47.041Z</time></trkpt><trkpt lat="45.12348872209841" lon="7.648130960216317"><ele>253.33333333333331</ele><time>2026-04-19T17:00:49.035Z</time></trkpt><trkpt lat="45.12363008298912" lon="7.647746631867615"><ele>254.66666666666666</ele><time>2026-04-19T17:01:23.481Z</time></trkpt><trkpt lat="45.123663451757125" lon="7.64758579943668"><ele>256.0</ele><time>2026-04-19T17:05:31.804Z</time></trkpt><trkpt lat="45.12359954422153" lon="7.647576668429305"><ele>256.0</ele><time>2026-04-19T17:38:54.011Z</time></trkpt></trkseg></trk></gpx>